<?xml version="1.0" encoding="UTF-8" standalone="no" ?>
<gpx xmlns="http://www.topografix.com/GPX/1/1" xmlns:xsi="http://www.w3.org/2001/XMLSchema-instance" xsi:schemaLocation="http://www.topografix.com/GPX/1/1 http://www.topografix.com/GPX/1/1/gpx.xsd" version="1.1" creator="VisuGPX - https://www.visugpx.com">
  <metadata>
    <name>Randonnée source de Méout Arthès 81160</name>
  </metadata>
  <trk>
    <name><![CDATA[Randonnée source de Méout Arthès 81160_1]]></name>
    <trkseg>
      <trkpt lat="43.95408" lon="2.20687">
        <ele>173</ele>
        <time>2021-02-25T12:00:40.000Z</time>
      </trkpt>
      <trkpt lat="43.95408" lon="2.20688">
        <ele>173</ele>
        <time>2021-02-25T12:00:41.000Z</time>
      </trkpt>
      <trkpt lat="43.95408" lon="2.20689">
        <ele>172</ele>
        <time>2021-02-25T12:00:42.000Z</time>
      </trkpt>
      <trkpt lat="43.95408" lon="2.20689">
        <ele>172</ele>
        <time>2021-02-25T12:00:43.000Z</time>
      </trkpt>
      <trkpt lat="43.95408" lon="2.2069">
        <ele>172</ele>
        <time>2021-02-25T12:00:44.000Z</time>
      </trkpt>
      <trkpt lat="43.95408" lon="2.20691">
        <ele>172</ele>
        <time>2021-02-25T12:00:45.000Z</time>
      </trkpt>
      <trkpt lat="43.95408" lon="2.20692">
        <ele>172</ele>
        <time>2021-02-25T12:00:46.000Z</time>
      </trkpt>
      <trkpt lat="43.95407" lon="2.20693">
        <ele>172</ele>
        <time>2021-02-25T12:00:47.000Z</time>
      </trkpt>
      <trkpt lat="43.95407" lon="2.20694">
        <ele>172</ele>
        <time>2021-02-25T12:00:48.000Z</time>
      </trkpt>
      <trkpt lat="43.95406" lon="2.20694">
        <ele>172</ele>
        <time>2021-02-25T12:00:49.000Z</time>
      </trkpt>
      <trkpt lat="43.95406" lon="2.20695">
        <ele>172</ele>
        <time>2021-02-25T12:00:50.000Z</time>
      </trkpt>
      <trkpt lat="43.95405" lon="2.20695">
        <ele>172</ele>
        <time>2021-02-25T12:00:51.000Z</time>
      </trkpt>
      <trkpt lat="43.95405" lon="2.20695">
        <ele>171</ele>
        <time>2021-02-25T12:00:52.000Z</time>
      </trkpt>
      <trkpt lat="43.95404" lon="2.20696">
        <ele>171</ele>
        <time>2021-02-25T12:00:53.000Z</time>
      </trkpt>
      <trkpt lat="43.95404" lon="2.20697">
        <ele>171</ele>
        <time>2021-02-25T12:00:54.000Z</time>
      </trkpt>
      <trkpt lat="43.95404" lon="2.20697">
        <ele>171</ele>
        <time>2021-02-25T12:00:55.000Z</time>
      </trkpt>
      <trkpt lat="43.95403" lon="2.20698">
        <ele>171</ele>
        <time>2021-02-25T12:00:56.000Z</time>
      </trkpt>
      <trkpt lat="43.95403" lon="2.20699">
        <ele>171</ele>
        <time>2021-02-25T12:00:57.000Z</time>
      </trkpt>
      <trkpt lat="43.95403" lon="2.207">
        <ele>171</ele>
        <time>2021-02-25T12:00:58.000Z</time>
      </trkpt>
      <trkpt lat="43.95403" lon="2.20701">
        <ele>171</ele>
        <time>2021-02-25T12:00:59.000Z</time>
      </trkpt>
      <trkpt lat="43.95402" lon="2.20702">
        <ele>171</ele>
        <time>2021-02-25T12:01:00.000Z</time>
      </trkpt>
      <trkpt lat="43.95402" lon="2.20704">
        <ele>170</ele>
        <time>2021-02-25T12:01:01.000Z</time>
      </trkpt>
      <trkpt lat="43.95401" lon="2.20705">
        <ele>170</ele>
        <time>2021-02-25T12:01:02.000Z</time>
      </trkpt>
      <trkpt lat="43.95401" lon="2.20706">
        <ele>170</ele>
        <time>2021-02-25T12:01:03.000Z</time>
      </trkpt>
      <trkpt lat="43.95401" lon="2.20708">
        <ele>170</ele>
        <time>2021-02-25T12:01:04.000Z</time>
      </trkpt>
      <trkpt lat="43.95401" lon="2.20709">
        <ele>170</ele>
        <time>2021-02-25T12:01:05.000Z</time>
      </trkpt>
      <trkpt lat="43.954" lon="2.2071">
        <ele>170</ele>
        <time>2021-02-25T12:01:06.000Z</time>
      </trkpt>
      <trkpt lat="43.954" lon="2.20712">
        <ele>170</ele>
        <time>2021-02-25T12:01:07.000Z</time>
      </trkpt>
      <trkpt lat="43.954" lon="2.20713">
        <ele>170</ele>
        <time>2021-02-25T12:01:08.000Z</time>
      </trkpt>
      <trkpt lat="43.954" lon="2.20714">
        <ele>170</ele>
        <time>2021-02-25T12:01:09.000Z</time>
      </trkpt>
      <trkpt lat="43.95399" lon="2.20716">
        <ele>170</ele>
        <time>2021-02-25T12:01:10.000Z</time>
      </trkpt>
      <trkpt lat="43.95399" lon="2.20717">
        <ele>170</ele>
        <time>2021-02-25T12:01:11.000Z</time>
      </trkpt>
      <trkpt lat="43.95399" lon="2.20718">
        <ele>170</ele>
        <time>2021-02-25T12:01:12.000Z</time>
      </trkpt>
      <trkpt lat="43.95398" lon="2.20719">
        <ele>170</ele>
        <time>2021-02-25T12:01:13.000Z</time>
      </trkpt>
      <trkpt lat="43.95398" lon="2.2072">
        <ele>170</ele>
        <time>2021-02-25T12:01:14.000Z</time>
      </trkpt>
      <trkpt lat="43.95397" lon="2.20721">
        <ele>170</ele>
        <time>2021-02-25T12:01:15.000Z</time>
      </trkpt>
      <trkpt lat="43.95397" lon="2.20721">
        <ele>170</ele>
        <time>2021-02-25T12:01:16.000Z</time>
      </trkpt>
      <trkpt lat="43.95397" lon="2.20722">
        <ele>171</ele>
        <time>2021-02-25T12:01:17.000Z</time>
      </trkpt>
      <trkpt lat="43.95396" lon="2.20723">
        <ele>171</ele>
        <time>2021-02-25T12:01:18.000Z</time>
      </trkpt>
      <trkpt lat="43.95396" lon="2.20723">
        <ele>171</ele>
        <time>2021-02-25T12:01:19.000Z</time>
      </trkpt>
      <trkpt lat="43.95396" lon="2.20724">
        <ele>171</ele>
        <time>2021-02-25T12:01:20.000Z</time>
      </trkpt>
      <trkpt lat="43.95395" lon="2.20725">
        <ele>171</ele>
        <time>2021-02-25T12:01:21.000Z</time>
      </trkpt>
      <trkpt lat="43.95395" lon="2.20726">
        <ele>171</ele>
        <time>2021-02-25T12:01:22.000Z</time>
      </trkpt>
      <trkpt lat="43.95395" lon="2.20727">
        <ele>171</ele>
        <time>2021-02-25T12:01:23.000Z</time>
      </trkpt>
      <trkpt lat="43.95394" lon="2.20728">
        <ele>171</ele>
        <time>2021-02-25T12:01:24.000Z</time>
      </trkpt>
      <trkpt lat="43.95394" lon="2.2073">
        <ele>171</ele>
        <time>2021-02-25T12:01:25.000Z</time>
      </trkpt>
      <trkpt lat="43.95394" lon="2.20731">
        <ele>172</ele>
        <time>2021-02-25T12:01:26.000Z</time>
      </trkpt>
      <trkpt lat="43.95394" lon="2.20732">
        <ele>172</ele>
        <time>2021-02-25T12:01:27.000Z</time>
      </trkpt>
      <trkpt lat="43.95394" lon="2.20733">
        <ele>172</ele>
        <time>2021-02-25T12:01:28.000Z</time>
      </trkpt>
      <trkpt lat="43.95395" lon="2.20734">
        <ele>172</ele>
        <time>2021-02-25T12:01:29.000Z</time>
      </trkpt>
      <trkpt lat="43.95395" lon="2.20736">
        <ele>172</ele>
        <time>2021-02-25T12:01:30.000Z</time>
      </trkpt>
      <trkpt lat="43.95395" lon="2.20737">
        <ele>172</ele>
        <time>2021-02-25T12:01:31.000Z</time>
      </trkpt>
      <trkpt lat="43.95396" lon="2.20738">
        <ele>172</ele>
        <time>2021-02-25T12:01:32.000Z</time>
      </trkpt>
      <trkpt lat="43.95396" lon="2.2074">
        <ele>172</ele>
        <time>2021-02-25T12:01:33.000Z</time>
      </trkpt>
      <trkpt lat="43.95397" lon="2.20742">
        <ele>173</ele>
        <time>2021-02-25T12:01:34.000Z</time>
      </trkpt>
      <trkpt lat="43.95397" lon="2.20743">
        <ele>173</ele>
        <time>2021-02-25T12:01:35.000Z</time>
      </trkpt>
      <trkpt lat="43.95397" lon="2.20745">
        <ele>173</ele>
        <time>2021-02-25T12:01:36.000Z</time>
      </trkpt>
      <trkpt lat="43.95397" lon="2.20746">
        <ele>173</ele>
        <time>2021-02-25T12:01:37.000Z</time>
      </trkpt>
      <trkpt lat="43.95397" lon="2.20748">
        <ele>173</ele>
        <time>2021-02-25T12:01:38.000Z</time>
      </trkpt>
      <trkpt lat="43.95397" lon="2.20749">
        <ele>173</ele>
        <time>2021-02-25T12:01:39.000Z</time>
      </trkpt>
      <trkpt lat="43.95397" lon="2.2075">
        <ele>173</ele>
        <time>2021-02-25T12:01:40.000Z</time>
      </trkpt>
      <trkpt lat="43.95396" lon="2.20752">
        <ele>173</ele>
        <time>2021-02-25T12:01:41.000Z</time>
      </trkpt>
      <trkpt lat="43.95396" lon="2.20753">
        <ele>173</ele>
        <time>2021-02-25T12:01:42.000Z</time>
      </trkpt>
      <trkpt lat="43.95396" lon="2.20754">
        <ele>173</ele>
        <time>2021-02-25T12:01:43.000Z</time>
      </trkpt>
      <trkpt lat="43.95396" lon="2.20755">
        <ele>173</ele>
        <time>2021-02-25T12:01:44.000Z</time>
      </trkpt>
      <trkpt lat="43.95396" lon="2.20756">
        <ele>173</ele>
        <time>2021-02-25T12:01:45.000Z</time>
      </trkpt>
      <trkpt lat="43.95396" lon="2.20757">
        <ele>173</ele>
        <time>2021-02-25T12:01:46.000Z</time>
      </trkpt>
      <trkpt lat="43.95397" lon="2.20759">
        <ele>172</ele>
        <time>2021-02-25T12:01:47.000Z</time>
      </trkpt>
      <trkpt lat="43.95397" lon="2.20761">
        <ele>172</ele>
        <time>2021-02-25T12:01:48.000Z</time>
      </trkpt>
      <trkpt lat="43.95397" lon="2.20763">
        <ele>172</ele>
        <time>2021-02-25T12:01:49.000Z</time>
      </trkpt>
      <trkpt lat="43.95397" lon="2.20765">
        <ele>172</ele>
        <time>2021-02-25T12:01:50.000Z</time>
      </trkpt>
      <trkpt lat="43.95397" lon="2.20766">
        <ele>172</ele>
        <time>2021-02-25T12:01:51.000Z</time>
      </trkpt>
      <trkpt lat="43.95397" lon="2.20767">
        <ele>172</ele>
        <time>2021-02-25T12:01:52.000Z</time>
      </trkpt>
      <trkpt lat="43.95397" lon="2.20768">
        <ele>172</ele>
        <time>2021-02-25T12:01:53.000Z</time>
      </trkpt>
      <trkpt lat="43.95397" lon="2.20769">
        <ele>172</ele>
        <time>2021-02-25T12:01:54.000Z</time>
      </trkpt>
      <trkpt lat="43.95397" lon="2.20771">
        <ele>172</ele>
        <time>2021-02-25T12:01:55.000Z</time>
      </trkpt>
      <trkpt lat="43.95398" lon="2.20772">
        <ele>172</ele>
        <time>2021-02-25T12:01:56.000Z</time>
      </trkpt>
      <trkpt lat="43.95398" lon="2.20773">
        <ele>173</ele>
        <time>2021-02-25T12:01:57.000Z</time>
      </trkpt>
      <trkpt lat="43.95398" lon="2.20775">
        <ele>173</ele>
        <time>2021-02-25T12:01:58.000Z</time>
      </trkpt>
      <trkpt lat="43.95399" lon="2.20776">
        <ele>173</ele>
        <time>2021-02-25T12:01:59.000Z</time>
      </trkpt>
      <trkpt lat="43.95399" lon="2.20777">
        <ele>173</ele>
        <time>2021-02-25T12:02:00.000Z</time>
      </trkpt>
      <trkpt lat="43.95399" lon="2.20778">
        <ele>173</ele>
        <time>2021-02-25T12:02:01.000Z</time>
      </trkpt>
      <trkpt lat="43.95399" lon="2.20778">
        <ele>173</ele>
        <time>2021-02-25T12:02:02.000Z</time>
      </trkpt>
      <trkpt lat="43.95402" lon="2.20781">
        <ele>175</ele>
        <time>2021-02-25T12:02:03.000Z</time>
      </trkpt>
      <trkpt lat="43.95402" lon="2.20782">
        <ele>176</ele>
        <time>2021-02-25T12:02:04.000Z</time>
      </trkpt>
      <trkpt lat="43.95402" lon="2.20783">
        <ele>176</ele>
        <time>2021-02-25T12:02:05.000Z</time>
      </trkpt>
      <trkpt lat="43.95402" lon="2.20784">
        <ele>176</ele>
        <time>2021-02-25T12:02:06.000Z</time>
      </trkpt>
      <trkpt lat="43.95402" lon="2.20784">
        <ele>176</ele>
        <time>2021-02-25T12:02:07.000Z</time>
      </trkpt>
      <trkpt lat="43.95402" lon="2.20785">
        <ele>176</ele>
        <time>2021-02-25T12:02:08.000Z</time>
      </trkpt>
      <trkpt lat="43.95402" lon="2.20785">
        <ele>176</ele>
        <time>2021-02-25T12:02:09.000Z</time>
      </trkpt>
      <trkpt lat="43.95402" lon="2.20785">
        <ele>176</ele>
        <time>2021-02-25T12:02:10.000Z</time>
      </trkpt>
      <trkpt lat="43.95403" lon="2.20787">
        <ele>177</ele>
        <time>2021-02-25T12:02:11.000Z</time>
      </trkpt>
      <trkpt lat="43.95403" lon="2.20788">
        <ele>177</ele>
        <time>2021-02-25T12:02:12.000Z</time>
      </trkpt>
      <trkpt lat="43.95403" lon="2.20789">
        <ele>177</ele>
        <time>2021-02-25T12:02:13.000Z</time>
      </trkpt>
      <trkpt lat="43.95403" lon="2.2079">
        <ele>177</ele>
        <time>2021-02-25T12:02:14.000Z</time>
      </trkpt>
      <trkpt lat="43.95403" lon="2.2079">
        <ele>177</ele>
        <time>2021-02-25T12:02:15.000Z</time>
      </trkpt>
      <trkpt lat="43.95403" lon="2.2079">
        <ele>177</ele>
        <time>2021-02-25T12:02:16.000Z</time>
      </trkpt>
      <trkpt lat="43.95403" lon="2.20791">
        <ele>177</ele>
        <time>2021-02-25T12:02:17.000Z</time>
      </trkpt>
      <trkpt lat="43.95403" lon="2.20791">
        <ele>177</ele>
        <time>2021-02-25T12:02:18.000Z</time>
      </trkpt>
      <trkpt lat="43.95404" lon="2.20793">
        <ele>178</ele>
        <time>2021-02-25T12:02:19.000Z</time>
      </trkpt>
      <trkpt lat="43.95403" lon="2.20794">
        <ele>178</ele>
        <time>2021-02-25T12:02:20.000Z</time>
      </trkpt>
      <trkpt lat="43.95403" lon="2.20795">
        <ele>178</ele>
        <time>2021-02-25T12:02:21.000Z</time>
      </trkpt>
      <trkpt lat="43.95403" lon="2.20796">
        <ele>178</ele>
        <time>2021-02-25T12:02:22.000Z</time>
      </trkpt>
      <trkpt lat="43.95404" lon="2.20798">
        <ele>178</ele>
        <time>2021-02-25T12:02:23.000Z</time>
      </trkpt>
      <trkpt lat="43.95403" lon="2.20799">
        <ele>178</ele>
        <time>2021-02-25T12:02:24.000Z</time>
      </trkpt>
      <trkpt lat="43.95403" lon="2.208">
        <ele>178</ele>
        <time>2021-02-25T12:02:25.000Z</time>
      </trkpt>
      <trkpt lat="43.95403" lon="2.20801">
        <ele>178</ele>
        <time>2021-02-25T12:02:26.000Z</time>
      </trkpt>
      <trkpt lat="43.95403" lon="2.20802">
        <ele>179</ele>
        <time>2021-02-25T12:02:27.000Z</time>
      </trkpt>
      <trkpt lat="43.95403" lon="2.20803">
        <ele>179</ele>
        <time>2021-02-25T12:02:28.000Z</time>
      </trkpt>
      <trkpt lat="43.95403" lon="2.20803">
        <ele>179</ele>
        <time>2021-02-25T12:02:29.000Z</time>
      </trkpt>
      <trkpt lat="43.95403" lon="2.20804">
        <ele>179</ele>
        <time>2021-02-25T12:02:30.000Z</time>
      </trkpt>
      <trkpt lat="43.95403" lon="2.20809">
        <ele>179</ele>
        <time>2021-02-25T12:02:31.000Z</time>
      </trkpt>
      <trkpt lat="43.95403" lon="2.2081">
        <ele>178</ele>
        <time>2021-02-25T12:02:32.000Z</time>
      </trkpt>
      <trkpt lat="43.95403" lon="2.20811">
        <ele>178</ele>
        <time>2021-02-25T12:02:33.000Z</time>
      </trkpt>
      <trkpt lat="43.95402" lon="2.20812">
        <ele>178</ele>
        <time>2021-02-25T12:02:34.000Z</time>
      </trkpt>
      <trkpt lat="43.95402" lon="2.20813">
        <ele>178</ele>
        <time>2021-02-25T12:02:35.000Z</time>
      </trkpt>
      <trkpt lat="43.95401" lon="2.20814">
        <ele>177</ele>
        <time>2021-02-25T12:02:36.000Z</time>
      </trkpt>
      <trkpt lat="43.95401" lon="2.20815">
        <ele>177</ele>
        <time>2021-02-25T12:02:37.000Z</time>
      </trkpt>
      <trkpt lat="43.954" lon="2.20816">
        <ele>177</ele>
        <time>2021-02-25T12:02:38.000Z</time>
      </trkpt>
      <trkpt lat="43.95399" lon="2.20816">
        <ele>176</ele>
        <time>2021-02-25T12:02:39.000Z</time>
      </trkpt>
      <trkpt lat="43.95399" lon="2.20817">
        <ele>176</ele>
        <time>2021-02-25T12:02:40.000Z</time>
      </trkpt>
      <trkpt lat="43.95398" lon="2.20817">
        <ele>176</ele>
        <time>2021-02-25T12:02:41.000Z</time>
      </trkpt>
      <trkpt lat="43.95398" lon="2.20817">
        <ele>175</ele>
        <time>2021-02-25T12:02:42.000Z</time>
      </trkpt>
      <trkpt lat="43.95398" lon="2.20817">
        <ele>175</ele>
        <time>2021-02-25T12:02:43.000Z</time>
      </trkpt>
      <trkpt lat="43.95395" lon="2.20819">
        <ele>173</ele>
        <time>2021-02-25T12:02:44.000Z</time>
      </trkpt>
      <trkpt lat="43.95394" lon="2.2082">
        <ele>173</ele>
        <time>2021-02-25T12:02:45.000Z</time>
      </trkpt>
      <trkpt lat="43.95394" lon="2.2082">
        <ele>173</ele>
        <time>2021-02-25T12:02:46.000Z</time>
      </trkpt>
      <trkpt lat="43.95394" lon="2.2082">
        <ele>173</ele>
        <time>2021-02-25T12:02:47.000Z</time>
      </trkpt>
      <trkpt lat="43.95394" lon="2.20821">
        <ele>173</ele>
        <time>2021-02-25T12:02:48.000Z</time>
      </trkpt>
      <trkpt lat="43.95394" lon="2.20823">
        <ele>173</ele>
        <time>2021-02-25T12:02:49.000Z</time>
      </trkpt>
      <trkpt lat="43.95393" lon="2.20823">
        <ele>173</ele>
        <time>2021-02-25T12:02:50.000Z</time>
      </trkpt>
      <trkpt lat="43.95393" lon="2.20823">
        <ele>173</ele>
        <time>2021-02-25T12:02:51.000Z</time>
      </trkpt>
      <trkpt lat="43.95393" lon="2.20823">
        <ele>173</ele>
        <time>2021-02-25T12:02:52.000Z</time>
      </trkpt>
      <trkpt lat="43.95393" lon="2.20825">
        <ele>172</ele>
        <time>2021-02-25T12:02:53.000Z</time>
      </trkpt>
      <trkpt lat="43.95392" lon="2.20827">
        <ele>172</ele>
        <time>2021-02-25T12:02:54.000Z</time>
      </trkpt>
      <trkpt lat="43.95392" lon="2.20828">
        <ele>172</ele>
        <time>2021-02-25T12:02:55.000Z</time>
      </trkpt>
      <trkpt lat="43.95392" lon="2.20829">
        <ele>172</ele>
        <time>2021-02-25T12:02:56.000Z</time>
      </trkpt>
      <trkpt lat="43.95392" lon="2.20829">
        <ele>172</ele>
        <time>2021-02-25T12:02:57.000Z</time>
      </trkpt>
      <trkpt lat="43.95392" lon="2.20831">
        <ele>172</ele>
        <time>2021-02-25T12:02:58.000Z</time>
      </trkpt>
      <trkpt lat="43.95392" lon="2.20832">
        <ele>172</ele>
        <time>2021-02-25T12:02:59.000Z</time>
      </trkpt>
      <trkpt lat="43.95391" lon="2.20833">
        <ele>172</ele>
        <time>2021-02-25T12:03:00.000Z</time>
      </trkpt>
      <trkpt lat="43.95391" lon="2.20834">
        <ele>172</ele>
        <time>2021-02-25T12:03:01.000Z</time>
      </trkpt>
      <trkpt lat="43.9539" lon="2.20836">
        <ele>172</ele>
        <time>2021-02-25T12:03:02.000Z</time>
      </trkpt>
      <trkpt lat="43.9539" lon="2.20837">
        <ele>172</ele>
        <time>2021-02-25T12:03:03.000Z</time>
      </trkpt>
      <trkpt lat="43.9539" lon="2.20839">
        <ele>172</ele>
        <time>2021-02-25T12:03:04.000Z</time>
      </trkpt>
      <trkpt lat="43.95389" lon="2.2084">
        <ele>172</ele>
        <time>2021-02-25T12:03:05.000Z</time>
      </trkpt>
      <trkpt lat="43.95389" lon="2.20842">
        <ele>172</ele>
        <time>2021-02-25T12:03:06.000Z</time>
      </trkpt>
      <trkpt lat="43.95389" lon="2.20843">
        <ele>172</ele>
        <time>2021-02-25T12:03:07.000Z</time>
      </trkpt>
      <trkpt lat="43.95388" lon="2.20845">
        <ele>172</ele>
        <time>2021-02-25T12:03:08.000Z</time>
      </trkpt>
      <trkpt lat="43.95388" lon="2.20846">
        <ele>172</ele>
        <time>2021-02-25T12:03:09.000Z</time>
      </trkpt>
      <trkpt lat="43.95387" lon="2.20847">
        <ele>172</ele>
        <time>2021-02-25T12:03:10.000Z</time>
      </trkpt>
      <trkpt lat="43.95387" lon="2.20848">
        <ele>172</ele>
        <time>2021-02-25T12:03:11.000Z</time>
      </trkpt>
      <trkpt lat="43.95387" lon="2.2085">
        <ele>172</ele>
        <time>2021-02-25T12:03:12.000Z</time>
      </trkpt>
      <trkpt lat="43.95386" lon="2.20852">
        <ele>172</ele>
        <time>2021-02-25T12:03:13.000Z</time>
      </trkpt>
      <trkpt lat="43.95386" lon="2.20852">
        <ele>172</ele>
        <time>2021-02-25T12:03:14.000Z</time>
      </trkpt>
      <trkpt lat="43.95386" lon="2.20854">
        <ele>173</ele>
        <time>2021-02-25T12:03:15.000Z</time>
      </trkpt>
      <trkpt lat="43.95385" lon="2.20855">
        <ele>173</ele>
        <time>2021-02-25T12:03:16.000Z</time>
      </trkpt>
      <trkpt lat="43.95385" lon="2.20857">
        <ele>172</ele>
        <time>2021-02-25T12:03:17.000Z</time>
      </trkpt>
      <trkpt lat="43.95385" lon="2.20857">
        <ele>172</ele>
        <time>2021-02-25T12:03:18.000Z</time>
      </trkpt>
      <trkpt lat="43.95385" lon="2.20858">
        <ele>172</ele>
        <time>2021-02-25T12:03:19.000Z</time>
      </trkpt>
      <trkpt lat="43.95384" lon="2.2086">
        <ele>172</ele>
        <time>2021-02-25T12:03:20.000Z</time>
      </trkpt>
      <trkpt lat="43.95384" lon="2.20862">
        <ele>172</ele>
        <time>2021-02-25T12:03:21.000Z</time>
      </trkpt>
      <trkpt lat="43.95384" lon="2.20863">
        <ele>172</ele>
        <time>2021-02-25T12:03:22.000Z</time>
      </trkpt>
      <trkpt lat="43.95384" lon="2.20867">
        <ele>172</ele>
        <time>2021-02-25T12:03:23.000Z</time>
      </trkpt>
      <trkpt lat="43.95384" lon="2.20868">
        <ele>172</ele>
        <time>2021-02-25T12:03:24.000Z</time>
      </trkpt>
      <trkpt lat="43.95384" lon="2.2087">
        <ele>172</ele>
        <time>2021-02-25T12:03:25.000Z</time>
      </trkpt>
      <trkpt lat="43.95384" lon="2.20871">
        <ele>172</ele>
        <time>2021-02-25T12:03:26.000Z</time>
      </trkpt>
      <trkpt lat="43.95384" lon="2.20872">
        <ele>172</ele>
        <time>2021-02-25T12:03:27.000Z</time>
      </trkpt>
      <trkpt lat="43.95384" lon="2.20874">
        <ele>172</ele>
        <time>2021-02-25T12:03:28.000Z</time>
      </trkpt>
      <trkpt lat="43.95384" lon="2.20874">
        <ele>172</ele>
        <time>2021-02-25T12:03:29.000Z</time>
      </trkpt>
      <trkpt lat="43.95384" lon="2.20875">
        <ele>172</ele>
        <time>2021-02-25T12:03:30.000Z</time>
      </trkpt>
      <trkpt lat="43.95384" lon="2.20876">
        <ele>172</ele>
        <time>2021-02-25T12:03:31.000Z</time>
      </trkpt>
      <trkpt lat="43.95384" lon="2.20878">
        <ele>172</ele>
        <time>2021-02-25T12:03:32.000Z</time>
      </trkpt>
      <trkpt lat="43.95383" lon="2.20879">
        <ele>172</ele>
        <time>2021-02-25T12:03:33.000Z</time>
      </trkpt>
      <trkpt lat="43.95383" lon="2.20881">
        <ele>171</ele>
        <time>2021-02-25T12:03:34.000Z</time>
      </trkpt>
      <trkpt lat="43.95383" lon="2.20883">
        <ele>171</ele>
        <time>2021-02-25T12:03:35.000Z</time>
      </trkpt>
      <trkpt lat="43.95383" lon="2.20884">
        <ele>171</ele>
        <time>2021-02-25T12:03:36.000Z</time>
      </trkpt>
      <trkpt lat="43.95383" lon="2.20886">
        <ele>171</ele>
        <time>2021-02-25T12:03:37.000Z</time>
      </trkpt>
      <trkpt lat="43.95383" lon="2.20887">
        <ele>171</ele>
        <time>2021-02-25T12:03:38.000Z</time>
      </trkpt>
      <trkpt lat="43.95383" lon="2.20888">
        <ele>172</ele>
        <time>2021-02-25T12:03:39.000Z</time>
      </trkpt>
      <trkpt lat="43.95383" lon="2.2089">
        <ele>172</ele>
        <time>2021-02-25T12:03:40.000Z</time>
      </trkpt>
      <trkpt lat="43.95382" lon="2.20891">
        <ele>172</ele>
        <time>2021-02-25T12:03:41.000Z</time>
      </trkpt>
      <trkpt lat="43.95382" lon="2.20893">
        <ele>172</ele>
        <time>2021-02-25T12:03:42.000Z</time>
      </trkpt>
      <trkpt lat="43.95382" lon="2.20894">
        <ele>172</ele>
        <time>2021-02-25T12:03:43.000Z</time>
      </trkpt>
      <trkpt lat="43.95382" lon="2.20895">
        <ele>172</ele>
        <time>2021-02-25T12:03:44.000Z</time>
      </trkpt>
      <trkpt lat="43.95381" lon="2.20897">
        <ele>172</ele>
        <time>2021-02-25T12:03:45.000Z</time>
      </trkpt>
      <trkpt lat="43.95381" lon="2.20898">
        <ele>172</ele>
        <time>2021-02-25T12:03:46.000Z</time>
      </trkpt>
      <trkpt lat="43.95381" lon="2.20899">
        <ele>172</ele>
        <time>2021-02-25T12:03:47.000Z</time>
      </trkpt>
      <trkpt lat="43.9538" lon="2.209">
        <ele>172</ele>
        <time>2021-02-25T12:03:48.000Z</time>
      </trkpt>
      <trkpt lat="43.9538" lon="2.20901">
        <ele>172</ele>
        <time>2021-02-25T12:03:49.000Z</time>
      </trkpt>
      <trkpt lat="43.95379" lon="2.20903">
        <ele>172</ele>
        <time>2021-02-25T12:03:50.000Z</time>
      </trkpt>
      <trkpt lat="43.95379" lon="2.20904">
        <ele>172</ele>
        <time>2021-02-25T12:03:51.000Z</time>
      </trkpt>
      <trkpt lat="43.95379" lon="2.20905">
        <ele>172</ele>
        <time>2021-02-25T12:03:52.000Z</time>
      </trkpt>
      <trkpt lat="43.95379" lon="2.20906">
        <ele>172</ele>
        <time>2021-02-25T12:03:53.000Z</time>
      </trkpt>
      <trkpt lat="43.95379" lon="2.20908">
        <ele>172</ele>
        <time>2021-02-25T12:03:54.000Z</time>
      </trkpt>
      <trkpt lat="43.95379" lon="2.20909">
        <ele>172</ele>
        <time>2021-02-25T12:03:55.000Z</time>
      </trkpt>
      <trkpt lat="43.95379" lon="2.2091">
        <ele>171</ele>
        <time>2021-02-25T12:03:56.000Z</time>
      </trkpt>
      <trkpt lat="43.95379" lon="2.20912">
        <ele>171</ele>
        <time>2021-02-25T12:03:57.000Z</time>
      </trkpt>
      <trkpt lat="43.95378" lon="2.20913">
        <ele>171</ele>
        <time>2021-02-25T12:03:58.000Z</time>
      </trkpt>
      <trkpt lat="43.95378" lon="2.20914">
        <ele>171</ele>
        <time>2021-02-25T12:03:59.000Z</time>
      </trkpt>
      <trkpt lat="43.95378" lon="2.20916">
        <ele>171</ele>
        <time>2021-02-25T12:04:00.000Z</time>
      </trkpt>
      <trkpt lat="43.95378" lon="2.20917">
        <ele>171</ele>
        <time>2021-02-25T12:04:01.000Z</time>
      </trkpt>
      <trkpt lat="43.95378" lon="2.20919">
        <ele>171</ele>
        <time>2021-02-25T12:04:02.000Z</time>
      </trkpt>
      <trkpt lat="43.95378" lon="2.2092">
        <ele>171</ele>
        <time>2021-02-25T12:04:03.000Z</time>
      </trkpt>
      <trkpt lat="43.95378" lon="2.20922">
        <ele>171</ele>
        <time>2021-02-25T12:04:04.000Z</time>
      </trkpt>
      <trkpt lat="43.95378" lon="2.20923">
        <ele>171</ele>
        <time>2021-02-25T12:04:05.000Z</time>
      </trkpt>
      <trkpt lat="43.95377" lon="2.20924">
        <ele>171</ele>
        <time>2021-02-25T12:04:06.000Z</time>
      </trkpt>
      <trkpt lat="43.95377" lon="2.20926">
        <ele>171</ele>
        <time>2021-02-25T12:04:07.000Z</time>
      </trkpt>
      <trkpt lat="43.95377" lon="2.20927">
        <ele>171</ele>
        <time>2021-02-25T12:04:08.000Z</time>
      </trkpt>
      <trkpt lat="43.95376" lon="2.20929">
        <ele>172</ele>
        <time>2021-02-25T12:04:09.000Z</time>
      </trkpt>
      <trkpt lat="43.95376" lon="2.2093">
        <ele>172</ele>
        <time>2021-02-25T12:04:10.000Z</time>
      </trkpt>
      <trkpt lat="43.95376" lon="2.20932">
        <ele>172</ele>
        <time>2021-02-25T12:04:11.000Z</time>
      </trkpt>
      <trkpt lat="43.95376" lon="2.20933">
        <ele>172</ele>
        <time>2021-02-25T12:04:12.000Z</time>
      </trkpt>
      <trkpt lat="43.95375" lon="2.20935">
        <ele>172</ele>
        <time>2021-02-25T12:04:13.000Z</time>
      </trkpt>
      <trkpt lat="43.95375" lon="2.20936">
        <ele>172</ele>
        <time>2021-02-25T12:04:14.000Z</time>
      </trkpt>
      <trkpt lat="43.95375" lon="2.20937">
        <ele>172</ele>
        <time>2021-02-25T12:04:15.000Z</time>
      </trkpt>
      <trkpt lat="43.95375" lon="2.20939">
        <ele>172</ele>
        <time>2021-02-25T12:04:16.000Z</time>
      </trkpt>
      <trkpt lat="43.95375" lon="2.2094">
        <ele>172</ele>
        <time>2021-02-25T12:04:17.000Z</time>
      </trkpt>
      <trkpt lat="43.95375" lon="2.20942">
        <ele>172</ele>
        <time>2021-02-25T12:04:18.000Z</time>
      </trkpt>
      <trkpt lat="43.95375" lon="2.20943">
        <ele>172</ele>
        <time>2021-02-25T12:04:19.000Z</time>
      </trkpt>
      <trkpt lat="43.95375" lon="2.20945">
        <ele>172</ele>
        <time>2021-02-25T12:04:20.000Z</time>
      </trkpt>
      <trkpt lat="43.95374" lon="2.20947">
        <ele>172</ele>
        <time>2021-02-25T12:04:21.000Z</time>
      </trkpt>
      <trkpt lat="43.95374" lon="2.20948">
        <ele>172</ele>
        <time>2021-02-25T12:04:22.000Z</time>
      </trkpt>
      <trkpt lat="43.95374" lon="2.2095">
        <ele>172</ele>
        <time>2021-02-25T12:04:23.000Z</time>
      </trkpt>
      <trkpt lat="43.95374" lon="2.20952">
        <ele>172</ele>
        <time>2021-02-25T12:04:24.000Z</time>
      </trkpt>
      <trkpt lat="43.95374" lon="2.20953">
        <ele>172</ele>
        <time>2021-02-25T12:04:25.000Z</time>
      </trkpt>
      <trkpt lat="43.95374" lon="2.20955">
        <ele>172</ele>
        <time>2021-02-25T12:04:26.000Z</time>
      </trkpt>
      <trkpt lat="43.95374" lon="2.20956">
        <ele>172</ele>
        <time>2021-02-25T12:04:27.000Z</time>
      </trkpt>
      <trkpt lat="43.95374" lon="2.20958">
        <ele>172</ele>
        <time>2021-02-25T12:04:28.000Z</time>
      </trkpt>
      <trkpt lat="43.95374" lon="2.2096">
        <ele>172</ele>
        <time>2021-02-25T12:04:29.000Z</time>
      </trkpt>
      <trkpt lat="43.95374" lon="2.20962">
        <ele>172</ele>
        <time>2021-02-25T12:04:30.000Z</time>
      </trkpt>
      <trkpt lat="43.95374" lon="2.20964">
        <ele>172</ele>
        <time>2021-02-25T12:04:31.000Z</time>
      </trkpt>
      <trkpt lat="43.95374" lon="2.20966">
        <ele>172</ele>
        <time>2021-02-25T12:04:32.000Z</time>
      </trkpt>
      <trkpt lat="43.95374" lon="2.20968">
        <ele>172</ele>
        <time>2021-02-25T12:04:33.000Z</time>
      </trkpt>
      <trkpt lat="43.95374" lon="2.2097">
        <ele>172</ele>
        <time>2021-02-25T12:04:34.000Z</time>
      </trkpt>
      <trkpt lat="43.95374" lon="2.20971">
        <ele>172</ele>
        <time>2021-02-25T12:04:35.000Z</time>
      </trkpt>
      <trkpt lat="43.95374" lon="2.20973">
        <ele>172</ele>
        <time>2021-02-25T12:04:36.000Z</time>
      </trkpt>
      <trkpt lat="43.95374" lon="2.20975">
        <ele>172</ele>
        <time>2021-02-25T12:04:37.000Z</time>
      </trkpt>
      <trkpt lat="43.95373" lon="2.20976">
        <ele>172</ele>
        <time>2021-02-25T12:04:38.000Z</time>
      </trkpt>
      <trkpt lat="43.95373" lon="2.20978">
        <ele>172</ele>
        <time>2021-02-25T12:04:39.000Z</time>
      </trkpt>
      <trkpt lat="43.95373" lon="2.2098">
        <ele>172</ele>
        <time>2021-02-25T12:04:40.000Z</time>
      </trkpt>
      <trkpt lat="43.95373" lon="2.20982">
        <ele>172</ele>
        <time>2021-02-25T12:04:41.000Z</time>
      </trkpt>
      <trkpt lat="43.95373" lon="2.20984">
        <ele>172</ele>
        <time>2021-02-25T12:04:42.000Z</time>
      </trkpt>
      <trkpt lat="43.95373" lon="2.20986">
        <ele>172</ele>
        <time>2021-02-25T12:04:43.000Z</time>
      </trkpt>
      <trkpt lat="43.95372" lon="2.20987">
        <ele>172</ele>
        <time>2021-02-25T12:04:44.000Z</time>
      </trkpt>
      <trkpt lat="43.95372" lon="2.20989">
        <ele>172</ele>
        <time>2021-02-25T12:04:45.000Z</time>
      </trkpt>
      <trkpt lat="43.95372" lon="2.20991">
        <ele>172</ele>
        <time>2021-02-25T12:04:46.000Z</time>
      </trkpt>
      <trkpt lat="43.95372" lon="2.20992">
        <ele>172</ele>
        <time>2021-02-25T12:04:47.000Z</time>
      </trkpt>
      <trkpt lat="43.95372" lon="2.20993">
        <ele>172</ele>
        <time>2021-02-25T12:04:48.000Z</time>
      </trkpt>
      <trkpt lat="43.95372" lon="2.20994">
        <ele>171</ele>
        <time>2021-02-25T12:04:49.000Z</time>
      </trkpt>
      <trkpt lat="43.95372" lon="2.20994">
        <ele>171</ele>
        <time>2021-02-25T12:04:50.000Z</time>
      </trkpt>
      <trkpt lat="43.95372" lon="2.20994">
        <ele>171</ele>
        <time>2021-02-25T12:04:51.000Z</time>
      </trkpt>
      <trkpt lat="43.95372" lon="2.20994">
        <ele>171</ele>
        <time>2021-02-25T12:04:52.000Z</time>
      </trkpt>
      <trkpt lat="43.95373" lon="2.20998">
        <ele>171</ele>
        <time>2021-02-25T12:04:53.000Z</time>
      </trkpt>
      <trkpt lat="43.95373" lon="2.21">
        <ele>171</ele>
        <time>2021-02-25T12:04:54.000Z</time>
      </trkpt>
      <trkpt lat="43.95373" lon="2.21002">
        <ele>171</ele>
        <time>2021-02-25T12:04:55.000Z</time>
      </trkpt>
      <trkpt lat="43.95373" lon="2.21003">
        <ele>171</ele>
        <time>2021-02-25T12:04:56.000Z</time>
      </trkpt>
      <trkpt lat="43.95373" lon="2.21005">
        <ele>171</ele>
        <time>2021-02-25T12:04:57.000Z</time>
      </trkpt>
      <trkpt lat="43.95373" lon="2.21007">
        <ele>170</ele>
        <time>2021-02-25T12:04:58.000Z</time>
      </trkpt>
      <trkpt lat="43.95373" lon="2.21008">
        <ele>170</ele>
        <time>2021-02-25T12:04:59.000Z</time>
      </trkpt>
      <trkpt lat="43.95373" lon="2.2101">
        <ele>170</ele>
        <time>2021-02-25T12:05:00.000Z</time>
      </trkpt>
      <trkpt lat="43.95373" lon="2.21012">
        <ele>170</ele>
        <time>2021-02-25T12:05:01.000Z</time>
      </trkpt>
      <trkpt lat="43.95373" lon="2.21013">
        <ele>170</ele>
        <time>2021-02-25T12:05:02.000Z</time>
      </trkpt>
      <trkpt lat="43.95373" lon="2.21015">
        <ele>170</ele>
        <time>2021-02-25T12:05:03.000Z</time>
      </trkpt>
      <trkpt lat="43.95373" lon="2.21017">
        <ele>170</ele>
        <time>2021-02-25T12:05:04.000Z</time>
      </trkpt>
      <trkpt lat="43.95373" lon="2.21018">
        <ele>170</ele>
        <time>2021-02-25T12:05:05.000Z</time>
      </trkpt>
      <trkpt lat="43.95373" lon="2.2102">
        <ele>170</ele>
        <time>2021-02-25T12:05:06.000Z</time>
      </trkpt>
      <trkpt lat="43.95374" lon="2.21022">
        <ele>170</ele>
        <time>2021-02-25T12:05:07.000Z</time>
      </trkpt>
      <trkpt lat="43.95374" lon="2.21024">
        <ele>170</ele>
        <time>2021-02-25T12:05:08.000Z</time>
      </trkpt>
      <trkpt lat="43.95374" lon="2.21026">
        <ele>170</ele>
        <time>2021-02-25T12:05:09.000Z</time>
      </trkpt>
      <trkpt lat="43.95374" lon="2.21027">
        <ele>170</ele>
        <time>2021-02-25T12:05:10.000Z</time>
      </trkpt>
      <trkpt lat="43.95374" lon="2.21029">
        <ele>170</ele>
        <time>2021-02-25T12:05:11.000Z</time>
      </trkpt>
      <trkpt lat="43.95374" lon="2.21031">
        <ele>170</ele>
        <time>2021-02-25T12:05:12.000Z</time>
      </trkpt>
      <trkpt lat="43.95375" lon="2.21033">
        <ele>170</ele>
        <time>2021-02-25T12:05:13.000Z</time>
      </trkpt>
      <trkpt lat="43.95375" lon="2.21034">
        <ele>170</ele>
        <time>2021-02-25T12:05:14.000Z</time>
      </trkpt>
      <trkpt lat="43.95375" lon="2.21036">
        <ele>170</ele>
        <time>2021-02-25T12:05:15.000Z</time>
      </trkpt>
      <trkpt lat="43.95375" lon="2.21038">
        <ele>169</ele>
        <time>2021-02-25T12:05:16.000Z</time>
      </trkpt>
      <trkpt lat="43.95375" lon="2.21039">
        <ele>169</ele>
        <time>2021-02-25T12:05:17.000Z</time>
      </trkpt>
      <trkpt lat="43.95376" lon="2.2104">
        <ele>169</ele>
        <time>2021-02-25T12:05:18.000Z</time>
      </trkpt>
      <trkpt lat="43.95376" lon="2.21041">
        <ele>169</ele>
        <time>2021-02-25T12:05:19.000Z</time>
      </trkpt>
      <trkpt lat="43.95377" lon="2.21043">
        <ele>169</ele>
        <time>2021-02-25T12:05:20.000Z</time>
      </trkpt>
      <trkpt lat="43.95377" lon="2.21044">
        <ele>169</ele>
        <time>2021-02-25T12:05:21.000Z</time>
      </trkpt>
      <trkpt lat="43.95378" lon="2.21045">
        <ele>169</ele>
        <time>2021-02-25T12:05:22.000Z</time>
      </trkpt>
      <trkpt lat="43.95378" lon="2.21046">
        <ele>169</ele>
        <time>2021-02-25T12:05:23.000Z</time>
      </trkpt>
      <trkpt lat="43.95379" lon="2.21046">
        <ele>169</ele>
        <time>2021-02-25T12:05:24.000Z</time>
      </trkpt>
      <trkpt lat="43.9538" lon="2.21047">
        <ele>169</ele>
        <time>2021-02-25T12:05:25.000Z</time>
      </trkpt>
      <trkpt lat="43.95381" lon="2.21047">
        <ele>169</ele>
        <time>2021-02-25T12:05:26.000Z</time>
      </trkpt>
      <trkpt lat="43.95382" lon="2.21048">
        <ele>168</ele>
        <time>2021-02-25T12:05:27.000Z</time>
      </trkpt>
      <trkpt lat="43.95383" lon="2.21048">
        <ele>168</ele>
        <time>2021-02-25T12:05:28.000Z</time>
      </trkpt>
      <trkpt lat="43.95384" lon="2.21049">
        <ele>168</ele>
        <time>2021-02-25T12:05:29.000Z</time>
      </trkpt>
      <trkpt lat="43.95384" lon="2.21049">
        <ele>168</ele>
        <time>2021-02-25T12:05:30.000Z</time>
      </trkpt>
      <trkpt lat="43.95385" lon="2.21049">
        <ele>168</ele>
        <time>2021-02-25T12:05:31.000Z</time>
      </trkpt>
      <trkpt lat="43.95386" lon="2.2105">
        <ele>168</ele>
        <time>2021-02-25T12:05:32.000Z</time>
      </trkpt>
      <trkpt lat="43.95387" lon="2.2105">
        <ele>168</ele>
        <time>2021-02-25T12:05:33.000Z</time>
      </trkpt>
      <trkpt lat="43.95388" lon="2.2105">
        <ele>168</ele>
        <time>2021-02-25T12:05:34.000Z</time>
      </trkpt>
      <trkpt lat="43.95389" lon="2.21051">
        <ele>168</ele>
        <time>2021-02-25T12:05:35.000Z</time>
      </trkpt>
      <trkpt lat="43.95389" lon="2.21051">
        <ele>168</ele>
        <time>2021-02-25T12:05:36.000Z</time>
      </trkpt>
      <trkpt lat="43.9539" lon="2.21051">
        <ele>168</ele>
        <time>2021-02-25T12:05:37.000Z</time>
      </trkpt>
      <trkpt lat="43.95391" lon="2.21051">
        <ele>168</ele>
        <time>2021-02-25T12:05:38.000Z</time>
      </trkpt>
      <trkpt lat="43.95392" lon="2.21052">
        <ele>168</ele>
        <time>2021-02-25T12:05:39.000Z</time>
      </trkpt>
      <trkpt lat="43.95393" lon="2.21052">
        <ele>168</ele>
        <time>2021-02-25T12:05:40.000Z</time>
      </trkpt>
      <trkpt lat="43.95394" lon="2.21052">
        <ele>168</ele>
        <time>2021-02-25T12:05:41.000Z</time>
      </trkpt>
      <trkpt lat="43.95395" lon="2.21052">
        <ele>168</ele>
        <time>2021-02-25T12:05:42.000Z</time>
      </trkpt>
      <trkpt lat="43.95396" lon="2.21053">
        <ele>168</ele>
        <time>2021-02-25T12:05:43.000Z</time>
      </trkpt>
      <trkpt lat="43.95396" lon="2.21053">
        <ele>168</ele>
        <time>2021-02-25T12:05:44.000Z</time>
      </trkpt>
      <trkpt lat="43.95397" lon="2.21054">
        <ele>168</ele>
        <time>2021-02-25T12:05:45.000Z</time>
      </trkpt>
      <trkpt lat="43.95398" lon="2.21055">
        <ele>168</ele>
        <time>2021-02-25T12:05:46.000Z</time>
      </trkpt>
      <trkpt lat="43.95398" lon="2.21056">
        <ele>168</ele>
        <time>2021-02-25T12:05:47.000Z</time>
      </trkpt>
      <trkpt lat="43.95399" lon="2.21058">
        <ele>168</ele>
        <time>2021-02-25T12:05:48.000Z</time>
      </trkpt>
      <trkpt lat="43.95399" lon="2.21059">
        <ele>168</ele>
        <time>2021-02-25T12:05:49.000Z</time>
      </trkpt>
      <trkpt lat="43.954" lon="2.2106">
        <ele>168</ele>
        <time>2021-02-25T12:05:50.000Z</time>
      </trkpt>
      <trkpt lat="43.954" lon="2.21061">
        <ele>168</ele>
        <time>2021-02-25T12:05:51.000Z</time>
      </trkpt>
      <trkpt lat="43.95401" lon="2.21063">
        <ele>168</ele>
        <time>2021-02-25T12:05:52.000Z</time>
      </trkpt>
      <trkpt lat="43.95401" lon="2.21064">
        <ele>168</ele>
        <time>2021-02-25T12:05:53.000Z</time>
      </trkpt>
      <trkpt lat="43.95401" lon="2.21065">
        <ele>168</ele>
        <time>2021-02-25T12:05:54.000Z</time>
      </trkpt>
      <trkpt lat="43.95402" lon="2.21066">
        <ele>168</ele>
        <time>2021-02-25T12:05:55.000Z</time>
      </trkpt>
      <trkpt lat="43.95402" lon="2.21068">
        <ele>168</ele>
        <time>2021-02-25T12:05:56.000Z</time>
      </trkpt>
      <trkpt lat="43.95402" lon="2.2107">
        <ele>168</ele>
        <time>2021-02-25T12:05:57.000Z</time>
      </trkpt>
      <trkpt lat="43.95402" lon="2.21071">
        <ele>168</ele>
        <time>2021-02-25T12:05:58.000Z</time>
      </trkpt>
      <trkpt lat="43.95402" lon="2.21073">
        <ele>168</ele>
        <time>2021-02-25T12:05:59.000Z</time>
      </trkpt>
      <trkpt lat="43.95401" lon="2.21074">
        <ele>168</ele>
        <time>2021-02-25T12:06:00.000Z</time>
      </trkpt>
      <trkpt lat="43.95401" lon="2.21075">
        <ele>168</ele>
        <time>2021-02-25T12:06:01.000Z</time>
      </trkpt>
      <trkpt lat="43.95401" lon="2.21077">
        <ele>168</ele>
        <time>2021-02-25T12:06:02.000Z</time>
      </trkpt>
      <trkpt lat="43.95401" lon="2.21078">
        <ele>168</ele>
        <time>2021-02-25T12:06:03.000Z</time>
      </trkpt>
      <trkpt lat="43.95401" lon="2.2108">
        <ele>168</ele>
        <time>2021-02-25T12:06:04.000Z</time>
      </trkpt>
      <trkpt lat="43.95401" lon="2.21081">
        <ele>168</ele>
        <time>2021-02-25T12:06:05.000Z</time>
      </trkpt>
      <trkpt lat="43.954" lon="2.21083">
        <ele>168</ele>
        <time>2021-02-25T12:06:06.000Z</time>
      </trkpt>
      <trkpt lat="43.954" lon="2.21085">
        <ele>168</ele>
        <time>2021-02-25T12:06:07.000Z</time>
      </trkpt>
      <trkpt lat="43.954" lon="2.21086">
        <ele>168</ele>
        <time>2021-02-25T12:06:08.000Z</time>
      </trkpt>
      <trkpt lat="43.954" lon="2.21088">
        <ele>168</ele>
        <time>2021-02-25T12:06:09.000Z</time>
      </trkpt>
      <trkpt lat="43.954" lon="2.21089">
        <ele>168</ele>
        <time>2021-02-25T12:06:10.000Z</time>
      </trkpt>
      <trkpt lat="43.95399" lon="2.21091">
        <ele>168</ele>
        <time>2021-02-25T12:06:11.000Z</time>
      </trkpt>
      <trkpt lat="43.95399" lon="2.21092">
        <ele>168</ele>
        <time>2021-02-25T12:06:12.000Z</time>
      </trkpt>
      <trkpt lat="43.95399" lon="2.21094">
        <ele>168</ele>
        <time>2021-02-25T12:06:13.000Z</time>
      </trkpt>
      <trkpt lat="43.95398" lon="2.21095">
        <ele>168</ele>
        <time>2021-02-25T12:06:14.000Z</time>
      </trkpt>
      <trkpt lat="43.95398" lon="2.21097">
        <ele>169</ele>
        <time>2021-02-25T12:06:15.000Z</time>
      </trkpt>
      <trkpt lat="43.95398" lon="2.21098">
        <ele>169</ele>
        <time>2021-02-25T12:06:16.000Z</time>
      </trkpt>
      <trkpt lat="43.95397" lon="2.211">
        <ele>169</ele>
        <time>2021-02-25T12:06:17.000Z</time>
      </trkpt>
      <trkpt lat="43.95397" lon="2.21102">
        <ele>169</ele>
        <time>2021-02-25T12:06:18.000Z</time>
      </trkpt>
      <trkpt lat="43.95396" lon="2.21103">
        <ele>169</ele>
        <time>2021-02-25T12:06:19.000Z</time>
      </trkpt>
      <trkpt lat="43.95396" lon="2.21105">
        <ele>169</ele>
        <time>2021-02-25T12:06:20.000Z</time>
      </trkpt>
      <trkpt lat="43.95396" lon="2.21107">
        <ele>169</ele>
        <time>2021-02-25T12:06:21.000Z</time>
      </trkpt>
      <trkpt lat="43.95395" lon="2.21109">
        <ele>169</ele>
        <time>2021-02-25T12:06:22.000Z</time>
      </trkpt>
      <trkpt lat="43.95395" lon="2.2111">
        <ele>169</ele>
        <time>2021-02-25T12:06:23.000Z</time>
      </trkpt>
      <trkpt lat="43.95395" lon="2.21111">
        <ele>169</ele>
        <time>2021-02-25T12:06:24.000Z</time>
      </trkpt>
      <trkpt lat="43.95395" lon="2.21112">
        <ele>169</ele>
        <time>2021-02-25T12:06:25.000Z</time>
      </trkpt>
      <trkpt lat="43.95394" lon="2.21114">
        <ele>169</ele>
        <time>2021-02-25T12:06:26.000Z</time>
      </trkpt>
      <trkpt lat="43.95394" lon="2.21115">
        <ele>169</ele>
        <time>2021-02-25T12:06:27.000Z</time>
      </trkpt>
      <trkpt lat="43.95393" lon="2.21117">
        <ele>169</ele>
        <time>2021-02-25T12:06:28.000Z</time>
      </trkpt>
      <trkpt lat="43.95393" lon="2.21118">
        <ele>169</ele>
        <time>2021-02-25T12:06:29.000Z</time>
      </trkpt>
      <trkpt lat="43.95393" lon="2.21119">
        <ele>169</ele>
        <time>2021-02-25T12:06:30.000Z</time>
      </trkpt>
      <trkpt lat="43.95392" lon="2.21121">
        <ele>170</ele>
        <time>2021-02-25T12:06:31.000Z</time>
      </trkpt>
      <trkpt lat="43.95392" lon="2.21122">
        <ele>170</ele>
        <time>2021-02-25T12:06:32.000Z</time>
      </trkpt>
      <trkpt lat="43.95392" lon="2.21123">
        <ele>170</ele>
        <time>2021-02-25T12:06:33.000Z</time>
      </trkpt>
      <trkpt lat="43.95391" lon="2.21125">
        <ele>170</ele>
        <time>2021-02-25T12:06:34.000Z</time>
      </trkpt>
      <trkpt lat="43.95391" lon="2.21127">
        <ele>170</ele>
        <time>2021-02-25T12:06:35.000Z</time>
      </trkpt>
      <trkpt lat="43.95391" lon="2.21128">
        <ele>170</ele>
        <time>2021-02-25T12:06:36.000Z</time>
      </trkpt>
      <trkpt lat="43.95391" lon="2.2113">
        <ele>170</ele>
        <time>2021-02-25T12:06:37.000Z</time>
      </trkpt>
      <trkpt lat="43.95391" lon="2.21131">
        <ele>170</ele>
        <time>2021-02-25T12:06:38.000Z</time>
      </trkpt>
      <trkpt lat="43.95391" lon="2.21132">
        <ele>170</ele>
        <time>2021-02-25T12:06:39.000Z</time>
      </trkpt>
      <trkpt lat="43.95391" lon="2.21134">
        <ele>170</ele>
        <time>2021-02-25T12:06:40.000Z</time>
      </trkpt>
      <trkpt lat="43.95391" lon="2.21135">
        <ele>170</ele>
        <time>2021-02-25T12:06:41.000Z</time>
      </trkpt>
      <trkpt lat="43.95391" lon="2.21137">
        <ele>170</ele>
        <time>2021-02-25T12:06:42.000Z</time>
      </trkpt>
      <trkpt lat="43.95391" lon="2.21138">
        <ele>170</ele>
        <time>2021-02-25T12:06:43.000Z</time>
      </trkpt>
      <trkpt lat="43.95391" lon="2.21139">
        <ele>170</ele>
        <time>2021-02-25T12:06:44.000Z</time>
      </trkpt>
      <trkpt lat="43.95391" lon="2.21141">
        <ele>170</ele>
        <time>2021-02-25T12:06:45.000Z</time>
      </trkpt>
      <trkpt lat="43.9539" lon="2.21142">
        <ele>170</ele>
        <time>2021-02-25T12:06:46.000Z</time>
      </trkpt>
      <trkpt lat="43.9539" lon="2.21143">
        <ele>170</ele>
        <time>2021-02-25T12:06:47.000Z</time>
      </trkpt>
      <trkpt lat="43.9539" lon="2.21145">
        <ele>170</ele>
        <time>2021-02-25T12:06:48.000Z</time>
      </trkpt>
      <trkpt lat="43.9539" lon="2.21146">
        <ele>170</ele>
        <time>2021-02-25T12:06:49.000Z</time>
      </trkpt>
      <trkpt lat="43.9539" lon="2.21148">
        <ele>170</ele>
        <time>2021-02-25T12:06:50.000Z</time>
      </trkpt>
      <trkpt lat="43.9539" lon="2.2115">
        <ele>170</ele>
        <time>2021-02-25T12:06:51.000Z</time>
      </trkpt>
      <trkpt lat="43.9539" lon="2.21151">
        <ele>170</ele>
        <time>2021-02-25T12:06:52.000Z</time>
      </trkpt>
      <trkpt lat="43.9539" lon="2.21153">
        <ele>170</ele>
        <time>2021-02-25T12:06:53.000Z</time>
      </trkpt>
      <trkpt lat="43.95389" lon="2.21154">
        <ele>169</ele>
        <time>2021-02-25T12:06:54.000Z</time>
      </trkpt>
      <trkpt lat="43.95389" lon="2.21156">
        <ele>169</ele>
        <time>2021-02-25T12:06:55.000Z</time>
      </trkpt>
      <trkpt lat="43.95389" lon="2.21158">
        <ele>169</ele>
        <time>2021-02-25T12:06:56.000Z</time>
      </trkpt>
      <trkpt lat="43.95389" lon="2.21159">
        <ele>169</ele>
        <time>2021-02-25T12:06:57.000Z</time>
      </trkpt>
      <trkpt lat="43.95389" lon="2.21161">
        <ele>169</ele>
        <time>2021-02-25T12:06:58.000Z</time>
      </trkpt>
      <trkpt lat="43.95389" lon="2.21162">
        <ele>169</ele>
        <time>2021-02-25T12:06:59.000Z</time>
      </trkpt>
      <trkpt lat="43.9539" lon="2.21163">
        <ele>169</ele>
        <time>2021-02-25T12:07:00.000Z</time>
      </trkpt>
      <trkpt lat="43.9539" lon="2.21165">
        <ele>169</ele>
        <time>2021-02-25T12:07:01.000Z</time>
      </trkpt>
      <trkpt lat="43.95391" lon="2.21166">
        <ele>169</ele>
        <time>2021-02-25T12:07:02.000Z</time>
      </trkpt>
      <trkpt lat="43.95391" lon="2.21168">
        <ele>169</ele>
        <time>2021-02-25T12:07:03.000Z</time>
      </trkpt>
      <trkpt lat="43.95391" lon="2.21169">
        <ele>169</ele>
        <time>2021-02-25T12:07:04.000Z</time>
      </trkpt>
      <trkpt lat="43.95392" lon="2.21171">
        <ele>170</ele>
        <time>2021-02-25T12:07:05.000Z</time>
      </trkpt>
      <trkpt lat="43.95392" lon="2.21173">
        <ele>170</ele>
        <time>2021-02-25T12:07:06.000Z</time>
      </trkpt>
      <trkpt lat="43.95393" lon="2.21174">
        <ele>170</ele>
        <time>2021-02-25T12:07:07.000Z</time>
      </trkpt>
      <trkpt lat="43.95393" lon="2.21176">
        <ele>170</ele>
        <time>2021-02-25T12:07:08.000Z</time>
      </trkpt>
      <trkpt lat="43.95394" lon="2.21178">
        <ele>170</ele>
        <time>2021-02-25T12:07:09.000Z</time>
      </trkpt>
      <trkpt lat="43.95394" lon="2.21179">
        <ele>170</ele>
        <time>2021-02-25T12:07:10.000Z</time>
      </trkpt>
      <trkpt lat="43.95394" lon="2.21181">
        <ele>170</ele>
        <time>2021-02-25T12:07:11.000Z</time>
      </trkpt>
      <trkpt lat="43.95395" lon="2.21182">
        <ele>170</ele>
        <time>2021-02-25T12:07:12.000Z</time>
      </trkpt>
      <trkpt lat="43.95396" lon="2.21184">
        <ele>170</ele>
        <time>2021-02-25T12:07:13.000Z</time>
      </trkpt>
      <trkpt lat="43.95397" lon="2.21185">
        <ele>170</ele>
        <time>2021-02-25T12:07:14.000Z</time>
      </trkpt>
      <trkpt lat="43.95398" lon="2.21187">
        <ele>170</ele>
        <time>2021-02-25T12:07:15.000Z</time>
      </trkpt>
      <trkpt lat="43.95399" lon="2.21188">
        <ele>170</ele>
        <time>2021-02-25T12:07:16.000Z</time>
      </trkpt>
      <trkpt lat="43.954" lon="2.21189">
        <ele>170</ele>
        <time>2021-02-25T12:07:17.000Z</time>
      </trkpt>
      <trkpt lat="43.954" lon="2.2119">
        <ele>169</ele>
        <time>2021-02-25T12:07:18.000Z</time>
      </trkpt>
      <trkpt lat="43.95401" lon="2.21192">
        <ele>169</ele>
        <time>2021-02-25T12:07:19.000Z</time>
      </trkpt>
      <trkpt lat="43.95402" lon="2.21193">
        <ele>169</ele>
        <time>2021-02-25T12:07:20.000Z</time>
      </trkpt>
      <trkpt lat="43.95402" lon="2.21195">
        <ele>169</ele>
        <time>2021-02-25T12:07:21.000Z</time>
      </trkpt>
      <trkpt lat="43.95403" lon="2.21196">
        <ele>169</ele>
        <time>2021-02-25T12:07:22.000Z</time>
      </trkpt>
      <trkpt lat="43.95403" lon="2.21198">
        <ele>169</ele>
        <time>2021-02-25T12:07:23.000Z</time>
      </trkpt>
      <trkpt lat="43.95404" lon="2.212">
        <ele>169</ele>
        <time>2021-02-25T12:07:24.000Z</time>
      </trkpt>
      <trkpt lat="43.95404" lon="2.21202">
        <ele>169</ele>
        <time>2021-02-25T12:07:25.000Z</time>
      </trkpt>
      <trkpt lat="43.95405" lon="2.21204">
        <ele>169</ele>
        <time>2021-02-25T12:07:26.000Z</time>
      </trkpt>
      <trkpt lat="43.95405" lon="2.21205">
        <ele>169</ele>
        <time>2021-02-25T12:07:27.000Z</time>
      </trkpt>
      <trkpt lat="43.95406" lon="2.21207">
        <ele>169</ele>
        <time>2021-02-25T12:07:28.000Z</time>
      </trkpt>
      <trkpt lat="43.95406" lon="2.21208">
        <ele>169</ele>
        <time>2021-02-25T12:07:29.000Z</time>
      </trkpt>
      <trkpt lat="43.95406" lon="2.21209">
        <ele>169</ele>
        <time>2021-02-25T12:07:30.000Z</time>
      </trkpt>
      <trkpt lat="43.95407" lon="2.21211">
        <ele>169</ele>
        <time>2021-02-25T12:07:31.000Z</time>
      </trkpt>
      <trkpt lat="43.95407" lon="2.21213">
        <ele>168</ele>
        <time>2021-02-25T12:07:32.000Z</time>
      </trkpt>
      <trkpt lat="43.95407" lon="2.21215">
        <ele>168</ele>
        <time>2021-02-25T12:07:33.000Z</time>
      </trkpt>
      <trkpt lat="43.95408" lon="2.21216">
        <ele>168</ele>
        <time>2021-02-25T12:07:34.000Z</time>
      </trkpt>
      <trkpt lat="43.95408" lon="2.21218">
        <ele>168</ele>
        <time>2021-02-25T12:07:35.000Z</time>
      </trkpt>
      <trkpt lat="43.95408" lon="2.21219">
        <ele>168</ele>
        <time>2021-02-25T12:07:36.000Z</time>
      </trkpt>
      <trkpt lat="43.95408" lon="2.21221">
        <ele>169</ele>
        <time>2021-02-25T12:07:37.000Z</time>
      </trkpt>
      <trkpt lat="43.95408" lon="2.21223">
        <ele>169</ele>
        <time>2021-02-25T12:07:38.000Z</time>
      </trkpt>
      <trkpt lat="43.95408" lon="2.21225">
        <ele>169</ele>
        <time>2021-02-25T12:07:39.000Z</time>
      </trkpt>
      <trkpt lat="43.95409" lon="2.21226">
        <ele>169</ele>
        <time>2021-02-25T12:07:40.000Z</time>
      </trkpt>
      <trkpt lat="43.95409" lon="2.21228">
        <ele>169</ele>
        <time>2021-02-25T12:07:41.000Z</time>
      </trkpt>
      <trkpt lat="43.9541" lon="2.21229">
        <ele>169</ele>
        <time>2021-02-25T12:07:42.000Z</time>
      </trkpt>
      <trkpt lat="43.9541" lon="2.21231">
        <ele>169</ele>
        <time>2021-02-25T12:07:43.000Z</time>
      </trkpt>
      <trkpt lat="43.95411" lon="2.21232">
        <ele>169</ele>
        <time>2021-02-25T12:07:44.000Z</time>
      </trkpt>
      <trkpt lat="43.95411" lon="2.21234">
        <ele>169</ele>
        <time>2021-02-25T12:07:45.000Z</time>
      </trkpt>
      <trkpt lat="43.95412" lon="2.21236">
        <ele>169</ele>
        <time>2021-02-25T12:07:46.000Z</time>
      </trkpt>
      <trkpt lat="43.95412" lon="2.21237">
        <ele>169</ele>
        <time>2021-02-25T12:07:47.000Z</time>
      </trkpt>
      <trkpt lat="43.95413" lon="2.21239">
        <ele>169</ele>
        <time>2021-02-25T12:07:48.000Z</time>
      </trkpt>
      <trkpt lat="43.95413" lon="2.2124">
        <ele>169</ele>
        <time>2021-02-25T12:07:49.000Z</time>
      </trkpt>
      <trkpt lat="43.95413" lon="2.21242">
        <ele>169</ele>
        <time>2021-02-25T12:07:50.000Z</time>
      </trkpt>
      <trkpt lat="43.95414" lon="2.21244">
        <ele>168</ele>
        <time>2021-02-25T12:07:51.000Z</time>
      </trkpt>
      <trkpt lat="43.95414" lon="2.21245">
        <ele>168</ele>
        <time>2021-02-25T12:07:52.000Z</time>
      </trkpt>
      <trkpt lat="43.95415" lon="2.21247">
        <ele>168</ele>
        <time>2021-02-25T12:07:53.000Z</time>
      </trkpt>
      <trkpt lat="43.95415" lon="2.21248">
        <ele>168</ele>
        <time>2021-02-25T12:07:54.000Z</time>
      </trkpt>
      <trkpt lat="43.95415" lon="2.2125">
        <ele>168</ele>
        <time>2021-02-25T12:07:55.000Z</time>
      </trkpt>
      <trkpt lat="43.95416" lon="2.21252">
        <ele>168</ele>
        <time>2021-02-25T12:07:56.000Z</time>
      </trkpt>
      <trkpt lat="43.95416" lon="2.21253">
        <ele>168</ele>
        <time>2021-02-25T12:07:57.000Z</time>
      </trkpt>
      <trkpt lat="43.95417" lon="2.21255">
        <ele>168</ele>
        <time>2021-02-25T12:07:58.000Z</time>
      </trkpt>
      <trkpt lat="43.95417" lon="2.21256">
        <ele>168</ele>
        <time>2021-02-25T12:07:59.000Z</time>
      </trkpt>
      <trkpt lat="43.95417" lon="2.21258">
        <ele>168</ele>
        <time>2021-02-25T12:08:00.000Z</time>
      </trkpt>
      <trkpt lat="43.95418" lon="2.2126">
        <ele>168</ele>
        <time>2021-02-25T12:08:01.000Z</time>
      </trkpt>
      <trkpt lat="43.95418" lon="2.21261">
        <ele>168</ele>
        <time>2021-02-25T12:08:02.000Z</time>
      </trkpt>
      <trkpt lat="43.95419" lon="2.21263">
        <ele>168</ele>
        <time>2021-02-25T12:08:03.000Z</time>
      </trkpt>
      <trkpt lat="43.95419" lon="2.21264">
        <ele>168</ele>
        <time>2021-02-25T12:08:04.000Z</time>
      </trkpt>
      <trkpt lat="43.9542" lon="2.21266">
        <ele>168</ele>
        <time>2021-02-25T12:08:05.000Z</time>
      </trkpt>
      <trkpt lat="43.9542" lon="2.21268">
        <ele>168</ele>
        <time>2021-02-25T12:08:06.000Z</time>
      </trkpt>
      <trkpt lat="43.95421" lon="2.21269">
        <ele>168</ele>
        <time>2021-02-25T12:08:07.000Z</time>
      </trkpt>
      <trkpt lat="43.95421" lon="2.21271">
        <ele>168</ele>
        <time>2021-02-25T12:08:08.000Z</time>
      </trkpt>
      <trkpt lat="43.95422" lon="2.21273">
        <ele>168</ele>
        <time>2021-02-25T12:08:09.000Z</time>
      </trkpt>
      <trkpt lat="43.95422" lon="2.21274">
        <ele>168</ele>
        <time>2021-02-25T12:08:10.000Z</time>
      </trkpt>
      <trkpt lat="43.95423" lon="2.21276">
        <ele>168</ele>
        <time>2021-02-25T12:08:11.000Z</time>
      </trkpt>
      <trkpt lat="43.95423" lon="2.21277">
        <ele>168</ele>
        <time>2021-02-25T12:08:12.000Z</time>
      </trkpt>
      <trkpt lat="43.95424" lon="2.21279">
        <ele>168</ele>
        <time>2021-02-25T12:08:13.000Z</time>
      </trkpt>
      <trkpt lat="43.95424" lon="2.21281">
        <ele>168</ele>
        <time>2021-02-25T12:08:14.000Z</time>
      </trkpt>
      <trkpt lat="43.95424" lon="2.21283">
        <ele>168</ele>
        <time>2021-02-25T12:08:15.000Z</time>
      </trkpt>
      <trkpt lat="43.95425" lon="2.21285">
        <ele>168</ele>
        <time>2021-02-25T12:08:16.000Z</time>
      </trkpt>
      <trkpt lat="43.95425" lon="2.21286">
        <ele>168</ele>
        <time>2021-02-25T12:08:17.000Z</time>
      </trkpt>
      <trkpt lat="43.95426" lon="2.21287">
        <ele>168</ele>
        <time>2021-02-25T12:08:18.000Z</time>
      </trkpt>
      <trkpt lat="43.95426" lon="2.21289">
        <ele>168</ele>
        <time>2021-02-25T12:08:19.000Z</time>
      </trkpt>
      <trkpt lat="43.95427" lon="2.2129">
        <ele>168</ele>
        <time>2021-02-25T12:08:20.000Z</time>
      </trkpt>
      <trkpt lat="43.95427" lon="2.21292">
        <ele>168</ele>
        <time>2021-02-25T12:08:21.000Z</time>
      </trkpt>
      <trkpt lat="43.95427" lon="2.21293">
        <ele>168</ele>
        <time>2021-02-25T12:08:22.000Z</time>
      </trkpt>
      <trkpt lat="43.95428" lon="2.21295">
        <ele>168</ele>
        <time>2021-02-25T12:08:23.000Z</time>
      </trkpt>
      <trkpt lat="43.95428" lon="2.21296">
        <ele>168</ele>
        <time>2021-02-25T12:08:24.000Z</time>
      </trkpt>
      <trkpt lat="43.95428" lon="2.21298">
        <ele>168</ele>
        <time>2021-02-25T12:08:25.000Z</time>
      </trkpt>
      <trkpt lat="43.95429" lon="2.213">
        <ele>168</ele>
        <time>2021-02-25T12:08:26.000Z</time>
      </trkpt>
      <trkpt lat="43.95429" lon="2.21302">
        <ele>168</ele>
        <time>2021-02-25T12:08:27.000Z</time>
      </trkpt>
      <trkpt lat="43.95429" lon="2.21303">
        <ele>168</ele>
        <time>2021-02-25T12:08:28.000Z</time>
      </trkpt>
      <trkpt lat="43.95429" lon="2.21305">
        <ele>168</ele>
        <time>2021-02-25T12:08:29.000Z</time>
      </trkpt>
      <trkpt lat="43.95429" lon="2.21307">
        <ele>168</ele>
        <time>2021-02-25T12:08:30.000Z</time>
      </trkpt>
      <trkpt lat="43.95429" lon="2.21308">
        <ele>168</ele>
        <time>2021-02-25T12:08:31.000Z</time>
      </trkpt>
      <trkpt lat="43.95429" lon="2.2131">
        <ele>169</ele>
        <time>2021-02-25T12:08:32.000Z</time>
      </trkpt>
      <trkpt lat="43.95429" lon="2.21312">
        <ele>169</ele>
        <time>2021-02-25T12:08:33.000Z</time>
      </trkpt>
      <trkpt lat="43.95428" lon="2.21314">
        <ele>169</ele>
        <time>2021-02-25T12:08:34.000Z</time>
      </trkpt>
      <trkpt lat="43.95429" lon="2.21316">
        <ele>169</ele>
        <time>2021-02-25T12:08:35.000Z</time>
      </trkpt>
      <trkpt lat="43.95429" lon="2.21317">
        <ele>169</ele>
        <time>2021-02-25T12:08:36.000Z</time>
      </trkpt>
      <trkpt lat="43.95429" lon="2.21319">
        <ele>169</ele>
        <time>2021-02-25T12:08:37.000Z</time>
      </trkpt>
      <trkpt lat="43.95429" lon="2.21321">
        <ele>169</ele>
        <time>2021-02-25T12:08:38.000Z</time>
      </trkpt>
      <trkpt lat="43.95429" lon="2.21322">
        <ele>169</ele>
        <time>2021-02-25T12:08:39.000Z</time>
      </trkpt>
      <trkpt lat="43.95429" lon="2.21324">
        <ele>169</ele>
        <time>2021-02-25T12:08:40.000Z</time>
      </trkpt>
      <trkpt lat="43.95429" lon="2.21326">
        <ele>169</ele>
        <time>2021-02-25T12:08:41.000Z</time>
      </trkpt>
      <trkpt lat="43.95429" lon="2.21328">
        <ele>169</ele>
        <time>2021-02-25T12:08:42.000Z</time>
      </trkpt>
      <trkpt lat="43.95429" lon="2.21329">
        <ele>169</ele>
        <time>2021-02-25T12:08:43.000Z</time>
      </trkpt>
      <trkpt lat="43.95429" lon="2.21331">
        <ele>169</ele>
        <time>2021-02-25T12:08:44.000Z</time>
      </trkpt>
      <trkpt lat="43.95429" lon="2.21333">
        <ele>169</ele>
        <time>2021-02-25T12:08:45.000Z</time>
      </trkpt>
      <trkpt lat="43.95429" lon="2.21334">
        <ele>169</ele>
        <time>2021-02-25T12:08:46.000Z</time>
      </trkpt>
      <trkpt lat="43.95429" lon="2.21336">
        <ele>169</ele>
        <time>2021-02-25T12:08:47.000Z</time>
      </trkpt>
      <trkpt lat="43.95429" lon="2.21338">
        <ele>169</ele>
        <time>2021-02-25T12:08:48.000Z</time>
      </trkpt>
      <trkpt lat="43.95429" lon="2.21339">
        <ele>170</ele>
        <time>2021-02-25T12:08:49.000Z</time>
      </trkpt>
      <trkpt lat="43.95429" lon="2.21341">
        <ele>170</ele>
        <time>2021-02-25T12:08:50.000Z</time>
      </trkpt>
      <trkpt lat="43.95429" lon="2.21343">
        <ele>170</ele>
        <time>2021-02-25T12:08:51.000Z</time>
      </trkpt>
      <trkpt lat="43.95429" lon="2.21345">
        <ele>170</ele>
        <time>2021-02-25T12:08:52.000Z</time>
      </trkpt>
      <trkpt lat="43.95429" lon="2.21347">
        <ele>170</ele>
        <time>2021-02-25T12:08:53.000Z</time>
      </trkpt>
      <trkpt lat="43.95429" lon="2.21349">
        <ele>170</ele>
        <time>2021-02-25T12:08:54.000Z</time>
      </trkpt>
      <trkpt lat="43.95429" lon="2.2135">
        <ele>170</ele>
        <time>2021-02-25T12:08:55.000Z</time>
      </trkpt>
      <trkpt lat="43.95428" lon="2.21352">
        <ele>170</ele>
        <time>2021-02-25T12:08:56.000Z</time>
      </trkpt>
      <trkpt lat="43.95428" lon="2.21354">
        <ele>170</ele>
        <time>2021-02-25T12:08:57.000Z</time>
      </trkpt>
      <trkpt lat="43.95428" lon="2.21356">
        <ele>170</ele>
        <time>2021-02-25T12:08:58.000Z</time>
      </trkpt>
      <trkpt lat="43.95428" lon="2.21358">
        <ele>170</ele>
        <time>2021-02-25T12:08:59.000Z</time>
      </trkpt>
      <trkpt lat="43.95428" lon="2.21359">
        <ele>170</ele>
        <time>2021-02-25T12:09:00.000Z</time>
      </trkpt>
      <trkpt lat="43.95428" lon="2.21361">
        <ele>170</ele>
        <time>2021-02-25T12:09:01.000Z</time>
      </trkpt>
      <trkpt lat="43.95428" lon="2.21363">
        <ele>170</ele>
        <time>2021-02-25T12:09:02.000Z</time>
      </trkpt>
      <trkpt lat="43.95428" lon="2.21364">
        <ele>170</ele>
        <time>2021-02-25T12:09:03.000Z</time>
      </trkpt>
      <trkpt lat="43.95428" lon="2.21366">
        <ele>171</ele>
        <time>2021-02-25T12:09:04.000Z</time>
      </trkpt>
      <trkpt lat="43.95428" lon="2.21368">
        <ele>171</ele>
        <time>2021-02-25T12:09:05.000Z</time>
      </trkpt>
      <trkpt lat="43.95428" lon="2.21369">
        <ele>171</ele>
        <time>2021-02-25T12:09:06.000Z</time>
      </trkpt>
      <trkpt lat="43.95428" lon="2.21371">
        <ele>171</ele>
        <time>2021-02-25T12:09:07.000Z</time>
      </trkpt>
      <trkpt lat="43.95428" lon="2.21373">
        <ele>171</ele>
        <time>2021-02-25T12:09:08.000Z</time>
      </trkpt>
      <trkpt lat="43.95428" lon="2.21375">
        <ele>171</ele>
        <time>2021-02-25T12:09:09.000Z</time>
      </trkpt>
      <trkpt lat="43.95428" lon="2.21377">
        <ele>171</ele>
        <time>2021-02-25T12:09:10.000Z</time>
      </trkpt>
      <trkpt lat="43.95428" lon="2.21378">
        <ele>171</ele>
        <time>2021-02-25T12:09:11.000Z</time>
      </trkpt>
      <trkpt lat="43.95428" lon="2.2138">
        <ele>171</ele>
        <time>2021-02-25T12:09:12.000Z</time>
      </trkpt>
      <trkpt lat="43.95429" lon="2.21382">
        <ele>171</ele>
        <time>2021-02-25T12:09:13.000Z</time>
      </trkpt>
      <trkpt lat="43.95429" lon="2.21383">
        <ele>171</ele>
        <time>2021-02-25T12:09:14.000Z</time>
      </trkpt>
      <trkpt lat="43.95429" lon="2.21385">
        <ele>171</ele>
        <time>2021-02-25T12:09:15.000Z</time>
      </trkpt>
      <trkpt lat="43.95429" lon="2.21387">
        <ele>171</ele>
        <time>2021-02-25T12:09:16.000Z</time>
      </trkpt>
      <trkpt lat="43.95429" lon="2.21389">
        <ele>171</ele>
        <time>2021-02-25T12:09:17.000Z</time>
      </trkpt>
      <trkpt lat="43.95429" lon="2.21391">
        <ele>171</ele>
        <time>2021-02-25T12:09:18.000Z</time>
      </trkpt>
      <trkpt lat="43.95429" lon="2.21392">
        <ele>171</ele>
        <time>2021-02-25T12:09:19.000Z</time>
      </trkpt>
      <trkpt lat="43.9543" lon="2.21394">
        <ele>172</ele>
        <time>2021-02-25T12:09:20.000Z</time>
      </trkpt>
      <trkpt lat="43.9543" lon="2.21396">
        <ele>172</ele>
        <time>2021-02-25T12:09:21.000Z</time>
      </trkpt>
      <trkpt lat="43.9543" lon="2.21398">
        <ele>172</ele>
        <time>2021-02-25T12:09:22.000Z</time>
      </trkpt>
      <trkpt lat="43.9543" lon="2.214">
        <ele>172</ele>
        <time>2021-02-25T12:09:23.000Z</time>
      </trkpt>
      <trkpt lat="43.9543" lon="2.21402">
        <ele>172</ele>
        <time>2021-02-25T12:09:24.000Z</time>
      </trkpt>
      <trkpt lat="43.9543" lon="2.21403">
        <ele>172</ele>
        <time>2021-02-25T12:09:25.000Z</time>
      </trkpt>
      <trkpt lat="43.9543" lon="2.21405">
        <ele>172</ele>
        <time>2021-02-25T12:09:26.000Z</time>
      </trkpt>
      <trkpt lat="43.95431" lon="2.21406">
        <ele>172</ele>
        <time>2021-02-25T12:09:27.000Z</time>
      </trkpt>
      <trkpt lat="43.95431" lon="2.21408">
        <ele>172</ele>
        <time>2021-02-25T12:09:28.000Z</time>
      </trkpt>
      <trkpt lat="43.95432" lon="2.2141">
        <ele>172</ele>
        <time>2021-02-25T12:09:29.000Z</time>
      </trkpt>
      <trkpt lat="43.95432" lon="2.21412">
        <ele>172</ele>
        <time>2021-02-25T12:09:30.000Z</time>
      </trkpt>
      <trkpt lat="43.95432" lon="2.21413">
        <ele>172</ele>
        <time>2021-02-25T12:09:31.000Z</time>
      </trkpt>
      <trkpt lat="43.95433" lon="2.21415">
        <ele>172</ele>
        <time>2021-02-25T12:09:32.000Z</time>
      </trkpt>
      <trkpt lat="43.95433" lon="2.21417">
        <ele>172</ele>
        <time>2021-02-25T12:09:33.000Z</time>
      </trkpt>
      <trkpt lat="43.95433" lon="2.21418">
        <ele>172</ele>
        <time>2021-02-25T12:09:34.000Z</time>
      </trkpt>
      <trkpt lat="43.95433" lon="2.2142">
        <ele>172</ele>
        <time>2021-02-25T12:09:35.000Z</time>
      </trkpt>
      <trkpt lat="43.95434" lon="2.21421">
        <ele>172</ele>
        <time>2021-02-25T12:09:36.000Z</time>
      </trkpt>
      <trkpt lat="43.95434" lon="2.21423">
        <ele>172</ele>
        <time>2021-02-25T12:09:37.000Z</time>
      </trkpt>
      <trkpt lat="43.95434" lon="2.21425">
        <ele>172</ele>
        <time>2021-02-25T12:09:38.000Z</time>
      </trkpt>
      <trkpt lat="43.95435" lon="2.21427">
        <ele>172</ele>
        <time>2021-02-25T12:09:39.000Z</time>
      </trkpt>
      <trkpt lat="43.95435" lon="2.21428">
        <ele>172</ele>
        <time>2021-02-25T12:09:40.000Z</time>
      </trkpt>
      <trkpt lat="43.95435" lon="2.2143">
        <ele>172</ele>
        <time>2021-02-25T12:09:41.000Z</time>
      </trkpt>
      <trkpt lat="43.95436" lon="2.21432">
        <ele>172</ele>
        <time>2021-02-25T12:09:42.000Z</time>
      </trkpt>
      <trkpt lat="43.95436" lon="2.21433">
        <ele>172</ele>
        <time>2021-02-25T12:09:43.000Z</time>
      </trkpt>
      <trkpt lat="43.95436" lon="2.21435">
        <ele>172</ele>
        <time>2021-02-25T12:09:44.000Z</time>
      </trkpt>
      <trkpt lat="43.95437" lon="2.21437">
        <ele>172</ele>
        <time>2021-02-25T12:09:45.000Z</time>
      </trkpt>
      <trkpt lat="43.95437" lon="2.21439">
        <ele>172</ele>
        <time>2021-02-25T12:09:46.000Z</time>
      </trkpt>
      <trkpt lat="43.95437" lon="2.21441">
        <ele>172</ele>
        <time>2021-02-25T12:09:47.000Z</time>
      </trkpt>
      <trkpt lat="43.95437" lon="2.21443">
        <ele>172</ele>
        <time>2021-02-25T12:09:48.000Z</time>
      </trkpt>
      <trkpt lat="43.95437" lon="2.21444">
        <ele>172</ele>
        <time>2021-02-25T12:09:49.000Z</time>
      </trkpt>
      <trkpt lat="43.95437" lon="2.21446">
        <ele>172</ele>
        <time>2021-02-25T12:09:50.000Z</time>
      </trkpt>
      <trkpt lat="43.95437" lon="2.21448">
        <ele>172</ele>
        <time>2021-02-25T12:09:51.000Z</time>
      </trkpt>
      <trkpt lat="43.95438" lon="2.21449">
        <ele>172</ele>
        <time>2021-02-25T12:09:52.000Z</time>
      </trkpt>
      <trkpt lat="43.95438" lon="2.21451">
        <ele>172</ele>
        <time>2021-02-25T12:09:53.000Z</time>
      </trkpt>
      <trkpt lat="43.95438" lon="2.21453">
        <ele>172</ele>
        <time>2021-02-25T12:09:54.000Z</time>
      </trkpt>
      <trkpt lat="43.95438" lon="2.21455">
        <ele>172</ele>
        <time>2021-02-25T12:09:55.000Z</time>
      </trkpt>
      <trkpt lat="43.95438" lon="2.21457">
        <ele>172</ele>
        <time>2021-02-25T12:09:56.000Z</time>
      </trkpt>
      <trkpt lat="43.95438" lon="2.21459">
        <ele>172</ele>
        <time>2021-02-25T12:09:57.000Z</time>
      </trkpt>
      <trkpt lat="43.95439" lon="2.2146">
        <ele>172</ele>
        <time>2021-02-25T12:09:58.000Z</time>
      </trkpt>
      <trkpt lat="43.95439" lon="2.21462">
        <ele>172</ele>
        <time>2021-02-25T12:09:59.000Z</time>
      </trkpt>
      <trkpt lat="43.9544" lon="2.21464">
        <ele>172</ele>
        <time>2021-02-25T12:10:00.000Z</time>
      </trkpt>
      <trkpt lat="43.9544" lon="2.21465">
        <ele>172</ele>
        <time>2021-02-25T12:10:01.000Z</time>
      </trkpt>
      <trkpt lat="43.9544" lon="2.21467">
        <ele>171</ele>
        <time>2021-02-25T12:10:02.000Z</time>
      </trkpt>
      <trkpt lat="43.95441" lon="2.21469">
        <ele>171</ele>
        <time>2021-02-25T12:10:03.000Z</time>
      </trkpt>
      <trkpt lat="43.95441" lon="2.21471">
        <ele>171</ele>
        <time>2021-02-25T12:10:04.000Z</time>
      </trkpt>
      <trkpt lat="43.95441" lon="2.21472">
        <ele>171</ele>
        <time>2021-02-25T12:10:05.000Z</time>
      </trkpt>
      <trkpt lat="43.95441" lon="2.21474">
        <ele>171</ele>
        <time>2021-02-25T12:10:06.000Z</time>
      </trkpt>
      <trkpt lat="43.95441" lon="2.21476">
        <ele>171</ele>
        <time>2021-02-25T12:10:07.000Z</time>
      </trkpt>
      <trkpt lat="43.95441" lon="2.21478">
        <ele>171</ele>
        <time>2021-02-25T12:10:08.000Z</time>
      </trkpt>
      <trkpt lat="43.95442" lon="2.2148">
        <ele>171</ele>
        <time>2021-02-25T12:10:09.000Z</time>
      </trkpt>
      <trkpt lat="43.95442" lon="2.21482">
        <ele>171</ele>
        <time>2021-02-25T12:10:10.000Z</time>
      </trkpt>
      <trkpt lat="43.95442" lon="2.21483">
        <ele>170</ele>
        <time>2021-02-25T12:10:11.000Z</time>
      </trkpt>
      <trkpt lat="43.95442" lon="2.21485">
        <ele>170</ele>
        <time>2021-02-25T12:10:12.000Z</time>
      </trkpt>
      <trkpt lat="43.95443" lon="2.21487">
        <ele>170</ele>
        <time>2021-02-25T12:10:13.000Z</time>
      </trkpt>
      <trkpt lat="43.95443" lon="2.21489">
        <ele>170</ele>
        <time>2021-02-25T12:10:14.000Z</time>
      </trkpt>
      <trkpt lat="43.95443" lon="2.21491">
        <ele>170</ele>
        <time>2021-02-25T12:10:15.000Z</time>
      </trkpt>
      <trkpt lat="43.95443" lon="2.21493">
        <ele>170</ele>
        <time>2021-02-25T12:10:16.000Z</time>
      </trkpt>
      <trkpt lat="43.95443" lon="2.21494">
        <ele>170</ele>
        <time>2021-02-25T12:10:17.000Z</time>
      </trkpt>
      <trkpt lat="43.95444" lon="2.21496">
        <ele>170</ele>
        <time>2021-02-25T12:10:18.000Z</time>
      </trkpt>
      <trkpt lat="43.95444" lon="2.21498">
        <ele>170</ele>
        <time>2021-02-25T12:10:19.000Z</time>
      </trkpt>
      <trkpt lat="43.95444" lon="2.215">
        <ele>170</ele>
        <time>2021-02-25T12:10:20.000Z</time>
      </trkpt>
      <trkpt lat="43.95444" lon="2.21502">
        <ele>170</ele>
        <time>2021-02-25T12:10:21.000Z</time>
      </trkpt>
      <trkpt lat="43.95444" lon="2.21504">
        <ele>170</ele>
        <time>2021-02-25T12:10:22.000Z</time>
      </trkpt>
      <trkpt lat="43.95444" lon="2.21505">
        <ele>170</ele>
        <time>2021-02-25T12:10:23.000Z</time>
      </trkpt>
      <trkpt lat="43.95444" lon="2.21507">
        <ele>170</ele>
        <time>2021-02-25T12:10:24.000Z</time>
      </trkpt>
      <trkpt lat="43.95444" lon="2.21509">
        <ele>170</ele>
        <time>2021-02-25T12:10:25.000Z</time>
      </trkpt>
      <trkpt lat="43.95444" lon="2.21511">
        <ele>170</ele>
        <time>2021-02-25T12:10:26.000Z</time>
      </trkpt>
      <trkpt lat="43.95444" lon="2.21512">
        <ele>170</ele>
        <time>2021-02-25T12:10:27.000Z</time>
      </trkpt>
      <trkpt lat="43.95444" lon="2.21514">
        <ele>170</ele>
        <time>2021-02-25T12:10:28.000Z</time>
      </trkpt>
      <trkpt lat="43.95444" lon="2.21516">
        <ele>170</ele>
        <time>2021-02-25T12:10:29.000Z</time>
      </trkpt>
      <trkpt lat="43.95444" lon="2.21517">
        <ele>170</ele>
        <time>2021-02-25T12:10:30.000Z</time>
      </trkpt>
      <trkpt lat="43.95445" lon="2.21519">
        <ele>169</ele>
        <time>2021-02-25T12:10:31.000Z</time>
      </trkpt>
      <trkpt lat="43.95445" lon="2.21521">
        <ele>169</ele>
        <time>2021-02-25T12:10:32.000Z</time>
      </trkpt>
      <trkpt lat="43.95445" lon="2.21523">
        <ele>169</ele>
        <time>2021-02-25T12:10:33.000Z</time>
      </trkpt>
      <trkpt lat="43.95445" lon="2.21524">
        <ele>169</ele>
        <time>2021-02-25T12:10:34.000Z</time>
      </trkpt>
      <trkpt lat="43.95445" lon="2.21526">
        <ele>169</ele>
        <time>2021-02-25T12:10:35.000Z</time>
      </trkpt>
      <trkpt lat="43.95445" lon="2.21528">
        <ele>169</ele>
        <time>2021-02-25T12:10:36.000Z</time>
      </trkpt>
      <trkpt lat="43.95445" lon="2.2153">
        <ele>169</ele>
        <time>2021-02-25T12:10:37.000Z</time>
      </trkpt>
      <trkpt lat="43.95445" lon="2.21532">
        <ele>169</ele>
        <time>2021-02-25T12:10:38.000Z</time>
      </trkpt>
      <trkpt lat="43.95445" lon="2.21534">
        <ele>170</ele>
        <time>2021-02-25T12:10:39.000Z</time>
      </trkpt>
      <trkpt lat="43.95445" lon="2.21536">
        <ele>170</ele>
        <time>2021-02-25T12:10:40.000Z</time>
      </trkpt>
      <trkpt lat="43.95445" lon="2.21538">
        <ele>170</ele>
        <time>2021-02-25T12:10:41.000Z</time>
      </trkpt>
      <trkpt lat="43.95445" lon="2.2154">
        <ele>170</ele>
        <time>2021-02-25T12:10:42.000Z</time>
      </trkpt>
      <trkpt lat="43.95445" lon="2.21541">
        <ele>170</ele>
        <time>2021-02-25T12:10:43.000Z</time>
      </trkpt>
      <trkpt lat="43.95444" lon="2.21543">
        <ele>170</ele>
        <time>2021-02-25T12:10:44.000Z</time>
      </trkpt>
      <trkpt lat="43.95444" lon="2.21545">
        <ele>171</ele>
        <time>2021-02-25T12:10:45.000Z</time>
      </trkpt>
      <trkpt lat="43.95444" lon="2.21547">
        <ele>171</ele>
        <time>2021-02-25T12:10:46.000Z</time>
      </trkpt>
      <trkpt lat="43.95444" lon="2.21549">
        <ele>171</ele>
        <time>2021-02-25T12:10:47.000Z</time>
      </trkpt>
      <trkpt lat="43.95444" lon="2.2155">
        <ele>171</ele>
        <time>2021-02-25T12:10:48.000Z</time>
      </trkpt>
      <trkpt lat="43.95444" lon="2.21552">
        <ele>171</ele>
        <time>2021-02-25T12:10:49.000Z</time>
      </trkpt>
      <trkpt lat="43.95444" lon="2.21554">
        <ele>172</ele>
        <time>2021-02-25T12:10:50.000Z</time>
      </trkpt>
      <trkpt lat="43.95444" lon="2.21556">
        <ele>172</ele>
        <time>2021-02-25T12:10:51.000Z</time>
      </trkpt>
      <trkpt lat="43.95444" lon="2.21557">
        <ele>172</ele>
        <time>2021-02-25T12:10:52.000Z</time>
      </trkpt>
      <trkpt lat="43.95443" lon="2.21559">
        <ele>172</ele>
        <time>2021-02-25T12:10:53.000Z</time>
      </trkpt>
      <trkpt lat="43.95443" lon="2.21561">
        <ele>173</ele>
        <time>2021-02-25T12:10:54.000Z</time>
      </trkpt>
      <trkpt lat="43.95443" lon="2.21563">
        <ele>173</ele>
        <time>2021-02-25T12:10:55.000Z</time>
      </trkpt>
      <trkpt lat="43.95443" lon="2.21565">
        <ele>173</ele>
        <time>2021-02-25T12:10:56.000Z</time>
      </trkpt>
      <trkpt lat="43.95443" lon="2.21567">
        <ele>173</ele>
        <time>2021-02-25T12:10:57.000Z</time>
      </trkpt>
      <trkpt lat="43.95443" lon="2.21568">
        <ele>174</ele>
        <time>2021-02-25T12:10:58.000Z</time>
      </trkpt>
      <trkpt lat="43.95443" lon="2.2157">
        <ele>174</ele>
        <time>2021-02-25T12:10:59.000Z</time>
      </trkpt>
      <trkpt lat="43.95443" lon="2.21571">
        <ele>174</ele>
        <time>2021-02-25T12:11:00.000Z</time>
      </trkpt>
      <trkpt lat="43.95443" lon="2.21573">
        <ele>174</ele>
        <time>2021-02-25T12:11:01.000Z</time>
      </trkpt>
      <trkpt lat="43.95442" lon="2.21575">
        <ele>175</ele>
        <time>2021-02-25T12:11:02.000Z</time>
      </trkpt>
      <trkpt lat="43.95442" lon="2.21577">
        <ele>175</ele>
        <time>2021-02-25T12:11:03.000Z</time>
      </trkpt>
      <trkpt lat="43.95442" lon="2.21579">
        <ele>175</ele>
        <time>2021-02-25T12:11:04.000Z</time>
      </trkpt>
      <trkpt lat="43.95441" lon="2.21581">
        <ele>176</ele>
        <time>2021-02-25T12:11:05.000Z</time>
      </trkpt>
      <trkpt lat="43.95441" lon="2.21582">
        <ele>176</ele>
        <time>2021-02-25T12:11:06.000Z</time>
      </trkpt>
      <trkpt lat="43.95441" lon="2.21584">
        <ele>176</ele>
        <time>2021-02-25T12:11:07.000Z</time>
      </trkpt>
      <trkpt lat="43.95441" lon="2.21586">
        <ele>176</ele>
        <time>2021-02-25T12:11:08.000Z</time>
      </trkpt>
      <trkpt lat="43.95441" lon="2.21588">
        <ele>177</ele>
        <time>2021-02-25T12:11:09.000Z</time>
      </trkpt>
      <trkpt lat="43.95441" lon="2.21589">
        <ele>177</ele>
        <time>2021-02-25T12:11:10.000Z</time>
      </trkpt>
      <trkpt lat="43.95441" lon="2.21591">
        <ele>177</ele>
        <time>2021-02-25T12:11:11.000Z</time>
      </trkpt>
      <trkpt lat="43.9544" lon="2.21593">
        <ele>178</ele>
        <time>2021-02-25T12:11:12.000Z</time>
      </trkpt>
      <trkpt lat="43.9544" lon="2.21595">
        <ele>178</ele>
        <time>2021-02-25T12:11:13.000Z</time>
      </trkpt>
      <trkpt lat="43.9544" lon="2.21597">
        <ele>178</ele>
        <time>2021-02-25T12:11:14.000Z</time>
      </trkpt>
      <trkpt lat="43.9544" lon="2.21599">
        <ele>178</ele>
        <time>2021-02-25T12:11:15.000Z</time>
      </trkpt>
      <trkpt lat="43.9544" lon="2.21601">
        <ele>178</ele>
        <time>2021-02-25T12:11:16.000Z</time>
      </trkpt>
      <trkpt lat="43.95441" lon="2.21602">
        <ele>178</ele>
        <time>2021-02-25T12:11:17.000Z</time>
      </trkpt>
      <trkpt lat="43.95441" lon="2.21604">
        <ele>178</ele>
        <time>2021-02-25T12:11:18.000Z</time>
      </trkpt>
      <trkpt lat="43.95441" lon="2.21606">
        <ele>178</ele>
        <time>2021-02-25T12:11:19.000Z</time>
      </trkpt>
      <trkpt lat="43.95441" lon="2.21608">
        <ele>178</ele>
        <time>2021-02-25T12:11:20.000Z</time>
      </trkpt>
      <trkpt lat="43.95441" lon="2.21609">
        <ele>178</ele>
        <time>2021-02-25T12:11:21.000Z</time>
      </trkpt>
      <trkpt lat="43.95441" lon="2.21611">
        <ele>178</ele>
        <time>2021-02-25T12:11:22.000Z</time>
      </trkpt>
      <trkpt lat="43.95441" lon="2.21613">
        <ele>178</ele>
        <time>2021-02-25T12:11:23.000Z</time>
      </trkpt>
      <trkpt lat="43.95441" lon="2.21614">
        <ele>178</ele>
        <time>2021-02-25T12:11:24.000Z</time>
      </trkpt>
      <trkpt lat="43.95441" lon="2.21616">
        <ele>178</ele>
        <time>2021-02-25T12:11:25.000Z</time>
      </trkpt>
      <trkpt lat="43.95441" lon="2.21618">
        <ele>178</ele>
        <time>2021-02-25T12:11:26.000Z</time>
      </trkpt>
      <trkpt lat="43.95441" lon="2.21619">
        <ele>178</ele>
        <time>2021-02-25T12:11:27.000Z</time>
      </trkpt>
      <trkpt lat="43.95441" lon="2.21621">
        <ele>178</ele>
        <time>2021-02-25T12:11:28.000Z</time>
      </trkpt>
      <trkpt lat="43.95442" lon="2.21623">
        <ele>178</ele>
        <time>2021-02-25T12:11:29.000Z</time>
      </trkpt>
      <trkpt lat="43.95442" lon="2.21625">
        <ele>177</ele>
        <time>2021-02-25T12:11:30.000Z</time>
      </trkpt>
      <trkpt lat="43.95442" lon="2.21627">
        <ele>177</ele>
        <time>2021-02-25T12:11:31.000Z</time>
      </trkpt>
      <trkpt lat="43.95443" lon="2.21628">
        <ele>177</ele>
        <time>2021-02-25T12:11:32.000Z</time>
      </trkpt>
      <trkpt lat="43.95444" lon="2.2163">
        <ele>177</ele>
        <time>2021-02-25T12:11:33.000Z</time>
      </trkpt>
      <trkpt lat="43.95444" lon="2.21632">
        <ele>176</ele>
        <time>2021-02-25T12:11:34.000Z</time>
      </trkpt>
      <trkpt lat="43.95444" lon="2.21633">
        <ele>176</ele>
        <time>2021-02-25T12:11:35.000Z</time>
      </trkpt>
      <trkpt lat="43.95445" lon="2.21635">
        <ele>176</ele>
        <time>2021-02-25T12:11:36.000Z</time>
      </trkpt>
      <trkpt lat="43.95445" lon="2.21637">
        <ele>176</ele>
        <time>2021-02-25T12:11:37.000Z</time>
      </trkpt>
      <trkpt lat="43.95445" lon="2.21639">
        <ele>176</ele>
        <time>2021-02-25T12:11:38.000Z</time>
      </trkpt>
      <trkpt lat="43.95445" lon="2.2164">
        <ele>175</ele>
        <time>2021-02-25T12:11:39.000Z</time>
      </trkpt>
      <trkpt lat="43.95445" lon="2.21642">
        <ele>175</ele>
        <time>2021-02-25T12:11:40.000Z</time>
      </trkpt>
      <trkpt lat="43.95446" lon="2.21644">
        <ele>175</ele>
        <time>2021-02-25T12:11:41.000Z</time>
      </trkpt>
      <trkpt lat="43.95446" lon="2.21645">
        <ele>175</ele>
        <time>2021-02-25T12:11:42.000Z</time>
      </trkpt>
      <trkpt lat="43.95446" lon="2.21647">
        <ele>175</ele>
        <time>2021-02-25T12:11:43.000Z</time>
      </trkpt>
      <trkpt lat="43.95446" lon="2.21649">
        <ele>175</ele>
        <time>2021-02-25T12:11:44.000Z</time>
      </trkpt>
      <trkpt lat="43.95446" lon="2.21651">
        <ele>175</ele>
        <time>2021-02-25T12:11:45.000Z</time>
      </trkpt>
      <trkpt lat="43.95446" lon="2.21653">
        <ele>175</ele>
        <time>2021-02-25T12:11:46.000Z</time>
      </trkpt>
      <trkpt lat="43.95446" lon="2.21655">
        <ele>175</ele>
        <time>2021-02-25T12:11:47.000Z</time>
      </trkpt>
      <trkpt lat="43.95446" lon="2.21656">
        <ele>175</ele>
        <time>2021-02-25T12:11:48.000Z</time>
      </trkpt>
      <trkpt lat="43.95446" lon="2.21658">
        <ele>175</ele>
        <time>2021-02-25T12:11:49.000Z</time>
      </trkpt>
      <trkpt lat="43.95446" lon="2.2166">
        <ele>174</ele>
        <time>2021-02-25T12:11:50.000Z</time>
      </trkpt>
      <trkpt lat="43.95446" lon="2.21661">
        <ele>175</ele>
        <time>2021-02-25T12:11:51.000Z</time>
      </trkpt>
      <trkpt lat="43.95446" lon="2.21663">
        <ele>175</ele>
        <time>2021-02-25T12:11:52.000Z</time>
      </trkpt>
      <trkpt lat="43.95446" lon="2.21664">
        <ele>175</ele>
        <time>2021-02-25T12:11:53.000Z</time>
      </trkpt>
      <trkpt lat="43.95446" lon="2.21666">
        <ele>175</ele>
        <time>2021-02-25T12:11:54.000Z</time>
      </trkpt>
      <trkpt lat="43.95446" lon="2.21668">
        <ele>175</ele>
        <time>2021-02-25T12:11:55.000Z</time>
      </trkpt>
      <trkpt lat="43.95446" lon="2.21669">
        <ele>175</ele>
        <time>2021-02-25T12:11:56.000Z</time>
      </trkpt>
      <trkpt lat="43.95446" lon="2.21671">
        <ele>175</ele>
        <time>2021-02-25T12:11:57.000Z</time>
      </trkpt>
      <trkpt lat="43.95446" lon="2.21672">
        <ele>175</ele>
        <time>2021-02-25T12:11:58.000Z</time>
      </trkpt>
      <trkpt lat="43.95445" lon="2.21674">
        <ele>175</ele>
        <time>2021-02-25T12:11:59.000Z</time>
      </trkpt>
      <trkpt lat="43.95445" lon="2.21676">
        <ele>175</ele>
        <time>2021-02-25T12:12:00.000Z</time>
      </trkpt>
      <trkpt lat="43.95445" lon="2.21678">
        <ele>175</ele>
        <time>2021-02-25T12:12:01.000Z</time>
      </trkpt>
      <trkpt lat="43.95445" lon="2.2168">
        <ele>175</ele>
        <time>2021-02-25T12:12:02.000Z</time>
      </trkpt>
      <trkpt lat="43.95445" lon="2.21682">
        <ele>175</ele>
        <time>2021-02-25T12:12:03.000Z</time>
      </trkpt>
      <trkpt lat="43.95445" lon="2.21683">
        <ele>175</ele>
        <time>2021-02-25T12:12:04.000Z</time>
      </trkpt>
      <trkpt lat="43.95445" lon="2.21685">
        <ele>175</ele>
        <time>2021-02-25T12:12:05.000Z</time>
      </trkpt>
      <trkpt lat="43.95445" lon="2.21687">
        <ele>175</ele>
        <time>2021-02-25T12:12:06.000Z</time>
      </trkpt>
      <trkpt lat="43.95445" lon="2.21689">
        <ele>175</ele>
        <time>2021-02-25T12:12:07.000Z</time>
      </trkpt>
      <trkpt lat="43.95445" lon="2.21691">
        <ele>175</ele>
        <time>2021-02-25T12:12:08.000Z</time>
      </trkpt>
      <trkpt lat="43.95445" lon="2.21693">
        <ele>174</ele>
        <time>2021-02-25T12:12:09.000Z</time>
      </trkpt>
      <trkpt lat="43.95445" lon="2.21694">
        <ele>174</ele>
        <time>2021-02-25T12:12:10.000Z</time>
      </trkpt>
      <trkpt lat="43.95445" lon="2.21696">
        <ele>174</ele>
        <time>2021-02-25T12:12:11.000Z</time>
      </trkpt>
      <trkpt lat="43.95445" lon="2.21698">
        <ele>174</ele>
        <time>2021-02-25T12:12:12.000Z</time>
      </trkpt>
      <trkpt lat="43.95445" lon="2.21699">
        <ele>174</ele>
        <time>2021-02-25T12:12:13.000Z</time>
      </trkpt>
      <trkpt lat="43.95445" lon="2.21701">
        <ele>174</ele>
        <time>2021-02-25T12:12:14.000Z</time>
      </trkpt>
      <trkpt lat="43.95445" lon="2.21703">
        <ele>174</ele>
        <time>2021-02-25T12:12:15.000Z</time>
      </trkpt>
      <trkpt lat="43.95444" lon="2.21705">
        <ele>174</ele>
        <time>2021-02-25T12:12:16.000Z</time>
      </trkpt>
      <trkpt lat="43.95444" lon="2.21707">
        <ele>173</ele>
        <time>2021-02-25T12:12:17.000Z</time>
      </trkpt>
      <trkpt lat="43.95444" lon="2.21709">
        <ele>173</ele>
        <time>2021-02-25T12:12:18.000Z</time>
      </trkpt>
      <trkpt lat="43.95444" lon="2.21711">
        <ele>173</ele>
        <time>2021-02-25T12:12:19.000Z</time>
      </trkpt>
      <trkpt lat="43.95443" lon="2.21712">
        <ele>173</ele>
        <time>2021-02-25T12:12:20.000Z</time>
      </trkpt>
      <trkpt lat="43.95443" lon="2.21714">
        <ele>173</ele>
        <time>2021-02-25T12:12:21.000Z</time>
      </trkpt>
      <trkpt lat="43.95443" lon="2.21716">
        <ele>173</ele>
        <time>2021-02-25T12:12:22.000Z</time>
      </trkpt>
      <trkpt lat="43.95443" lon="2.21718">
        <ele>173</ele>
        <time>2021-02-25T12:12:23.000Z</time>
      </trkpt>
      <trkpt lat="43.95442" lon="2.21719">
        <ele>173</ele>
        <time>2021-02-25T12:12:24.000Z</time>
      </trkpt>
      <trkpt lat="43.95442" lon="2.21721">
        <ele>173</ele>
        <time>2021-02-25T12:12:25.000Z</time>
      </trkpt>
      <trkpt lat="43.95442" lon="2.21723">
        <ele>173</ele>
        <time>2021-02-25T12:12:26.000Z</time>
      </trkpt>
      <trkpt lat="43.95442" lon="2.21725">
        <ele>173</ele>
        <time>2021-02-25T12:12:27.000Z</time>
      </trkpt>
      <trkpt lat="43.95442" lon="2.21726">
        <ele>173</ele>
        <time>2021-02-25T12:12:28.000Z</time>
      </trkpt>
      <trkpt lat="43.95441" lon="2.21728">
        <ele>174</ele>
        <time>2021-02-25T12:12:29.000Z</time>
      </trkpt>
      <trkpt lat="43.95441" lon="2.2173">
        <ele>174</ele>
        <time>2021-02-25T12:12:30.000Z</time>
      </trkpt>
      <trkpt lat="43.9544" lon="2.21732">
        <ele>174</ele>
        <time>2021-02-25T12:12:31.000Z</time>
      </trkpt>
      <trkpt lat="43.9544" lon="2.21733">
        <ele>174</ele>
        <time>2021-02-25T12:12:32.000Z</time>
      </trkpt>
      <trkpt lat="43.9544" lon="2.21735">
        <ele>174</ele>
        <time>2021-02-25T12:12:33.000Z</time>
      </trkpt>
      <trkpt lat="43.95439" lon="2.21736">
        <ele>174</ele>
        <time>2021-02-25T12:12:34.000Z</time>
      </trkpt>
      <trkpt lat="43.95439" lon="2.21738">
        <ele>174</ele>
        <time>2021-02-25T12:12:35.000Z</time>
      </trkpt>
      <trkpt lat="43.95438" lon="2.2174">
        <ele>174</ele>
        <time>2021-02-25T12:12:36.000Z</time>
      </trkpt>
      <trkpt lat="43.95438" lon="2.21742">
        <ele>174</ele>
        <time>2021-02-25T12:12:37.000Z</time>
      </trkpt>
      <trkpt lat="43.95438" lon="2.21743">
        <ele>174</ele>
        <time>2021-02-25T12:12:38.000Z</time>
      </trkpt>
      <trkpt lat="43.95437" lon="2.21744">
        <ele>174</ele>
        <time>2021-02-25T12:12:39.000Z</time>
      </trkpt>
      <trkpt lat="43.95437" lon="2.21746">
        <ele>174</ele>
        <time>2021-02-25T12:12:40.000Z</time>
      </trkpt>
      <trkpt lat="43.95437" lon="2.21747">
        <ele>174</ele>
        <time>2021-02-25T12:12:41.000Z</time>
      </trkpt>
      <trkpt lat="43.95437" lon="2.21749">
        <ele>174</ele>
        <time>2021-02-25T12:12:42.000Z</time>
      </trkpt>
      <trkpt lat="43.95436" lon="2.21751">
        <ele>174</ele>
        <time>2021-02-25T12:12:43.000Z</time>
      </trkpt>
      <trkpt lat="43.95436" lon="2.21753">
        <ele>174</ele>
        <time>2021-02-25T12:12:44.000Z</time>
      </trkpt>
      <trkpt lat="43.95436" lon="2.21754">
        <ele>174</ele>
        <time>2021-02-25T12:12:45.000Z</time>
      </trkpt>
      <trkpt lat="43.95436" lon="2.21756">
        <ele>174</ele>
        <time>2021-02-25T12:12:46.000Z</time>
      </trkpt>
      <trkpt lat="43.95436" lon="2.21757">
        <ele>174</ele>
        <time>2021-02-25T12:12:47.000Z</time>
      </trkpt>
      <trkpt lat="43.95436" lon="2.21759">
        <ele>174</ele>
        <time>2021-02-25T12:12:48.000Z</time>
      </trkpt>
      <trkpt lat="43.95435" lon="2.21761">
        <ele>174</ele>
        <time>2021-02-25T12:12:49.000Z</time>
      </trkpt>
      <trkpt lat="43.95435" lon="2.21762">
        <ele>174</ele>
        <time>2021-02-25T12:12:50.000Z</time>
      </trkpt>
      <trkpt lat="43.95435" lon="2.21764">
        <ele>174</ele>
        <time>2021-02-25T12:12:51.000Z</time>
      </trkpt>
      <trkpt lat="43.95435" lon="2.21766">
        <ele>174</ele>
        <time>2021-02-25T12:12:52.000Z</time>
      </trkpt>
      <trkpt lat="43.95435" lon="2.21767">
        <ele>174</ele>
        <time>2021-02-25T12:12:53.000Z</time>
      </trkpt>
      <trkpt lat="43.95435" lon="2.21769">
        <ele>174</ele>
        <time>2021-02-25T12:12:54.000Z</time>
      </trkpt>
      <trkpt lat="43.95435" lon="2.2177">
        <ele>173</ele>
        <time>2021-02-25T12:12:55.000Z</time>
      </trkpt>
      <trkpt lat="43.95435" lon="2.21772">
        <ele>173</ele>
        <time>2021-02-25T12:12:56.000Z</time>
      </trkpt>
      <trkpt lat="43.95435" lon="2.21774">
        <ele>173</ele>
        <time>2021-02-25T12:12:57.000Z</time>
      </trkpt>
      <trkpt lat="43.95434" lon="2.21775">
        <ele>173</ele>
        <time>2021-02-25T12:12:58.000Z</time>
      </trkpt>
      <trkpt lat="43.95434" lon="2.21777">
        <ele>174</ele>
        <time>2021-02-25T12:12:59.000Z</time>
      </trkpt>
      <trkpt lat="43.95434" lon="2.21778">
        <ele>174</ele>
        <time>2021-02-25T12:13:00.000Z</time>
      </trkpt>
      <trkpt lat="43.95433" lon="2.2178">
        <ele>174</ele>
        <time>2021-02-25T12:13:01.000Z</time>
      </trkpt>
      <trkpt lat="43.95433" lon="2.21781">
        <ele>174</ele>
        <time>2021-02-25T12:13:02.000Z</time>
      </trkpt>
      <trkpt lat="43.95433" lon="2.21783">
        <ele>174</ele>
        <time>2021-02-25T12:13:03.000Z</time>
      </trkpt>
      <trkpt lat="43.95433" lon="2.21785">
        <ele>174</ele>
        <time>2021-02-25T12:13:04.000Z</time>
      </trkpt>
      <trkpt lat="43.95433" lon="2.21786">
        <ele>174</ele>
        <time>2021-02-25T12:13:05.000Z</time>
      </trkpt>
      <trkpt lat="43.95432" lon="2.21788">
        <ele>174</ele>
        <time>2021-02-25T12:13:06.000Z</time>
      </trkpt>
      <trkpt lat="43.95432" lon="2.21789">
        <ele>174</ele>
        <time>2021-02-25T12:13:07.000Z</time>
      </trkpt>
      <trkpt lat="43.95432" lon="2.21791">
        <ele>174</ele>
        <time>2021-02-25T12:13:08.000Z</time>
      </trkpt>
      <trkpt lat="43.95432" lon="2.21793">
        <ele>174</ele>
        <time>2021-02-25T12:13:09.000Z</time>
      </trkpt>
      <trkpt lat="43.95432" lon="2.21795">
        <ele>174</ele>
        <time>2021-02-25T12:13:10.000Z</time>
      </trkpt>
      <trkpt lat="43.95431" lon="2.21796">
        <ele>174</ele>
        <time>2021-02-25T12:13:11.000Z</time>
      </trkpt>
      <trkpt lat="43.95431" lon="2.21798">
        <ele>175</ele>
        <time>2021-02-25T12:13:12.000Z</time>
      </trkpt>
      <trkpt lat="43.95431" lon="2.21799">
        <ele>175</ele>
        <time>2021-02-25T12:13:13.000Z</time>
      </trkpt>
      <trkpt lat="43.95431" lon="2.21801">
        <ele>175</ele>
        <time>2021-02-25T12:13:14.000Z</time>
      </trkpt>
      <trkpt lat="43.95431" lon="2.21803">
        <ele>175</ele>
        <time>2021-02-25T12:13:15.000Z</time>
      </trkpt>
      <trkpt lat="43.9543" lon="2.21805">
        <ele>175</ele>
        <time>2021-02-25T12:13:16.000Z</time>
      </trkpt>
      <trkpt lat="43.9543" lon="2.21806">
        <ele>175</ele>
        <time>2021-02-25T12:13:17.000Z</time>
      </trkpt>
      <trkpt lat="43.9543" lon="2.21808">
        <ele>175</ele>
        <time>2021-02-25T12:13:18.000Z</time>
      </trkpt>
      <trkpt lat="43.95429" lon="2.21809">
        <ele>175</ele>
        <time>2021-02-25T12:13:19.000Z</time>
      </trkpt>
      <trkpt lat="43.95429" lon="2.21811">
        <ele>175</ele>
        <time>2021-02-25T12:13:20.000Z</time>
      </trkpt>
      <trkpt lat="43.95428" lon="2.21813">
        <ele>175</ele>
        <time>2021-02-25T12:13:21.000Z</time>
      </trkpt>
      <trkpt lat="43.95428" lon="2.21814">
        <ele>175</ele>
        <time>2021-02-25T12:13:22.000Z</time>
      </trkpt>
      <trkpt lat="43.95427" lon="2.21817">
        <ele>175</ele>
        <time>2021-02-25T12:13:23.000Z</time>
      </trkpt>
      <trkpt lat="43.95427" lon="2.21818">
        <ele>175</ele>
        <time>2021-02-25T12:13:24.000Z</time>
      </trkpt>
      <trkpt lat="43.95427" lon="2.2182">
        <ele>175</ele>
        <time>2021-02-25T12:13:25.000Z</time>
      </trkpt>
      <trkpt lat="43.95426" lon="2.21821">
        <ele>175</ele>
        <time>2021-02-25T12:13:26.000Z</time>
      </trkpt>
      <trkpt lat="43.95426" lon="2.21823">
        <ele>176</ele>
        <time>2021-02-25T12:13:27.000Z</time>
      </trkpt>
      <trkpt lat="43.95426" lon="2.21824">
        <ele>176</ele>
        <time>2021-02-25T12:13:28.000Z</time>
      </trkpt>
      <trkpt lat="43.95425" lon="2.21826">
        <ele>176</ele>
        <time>2021-02-25T12:13:29.000Z</time>
      </trkpt>
      <trkpt lat="43.95425" lon="2.21828">
        <ele>176</ele>
        <time>2021-02-25T12:13:30.000Z</time>
      </trkpt>
      <trkpt lat="43.95425" lon="2.21829">
        <ele>176</ele>
        <time>2021-02-25T12:13:31.000Z</time>
      </trkpt>
      <trkpt lat="43.95424" lon="2.21831">
        <ele>176</ele>
        <time>2021-02-25T12:13:32.000Z</time>
      </trkpt>
      <trkpt lat="43.95424" lon="2.21832">
        <ele>176</ele>
        <time>2021-02-25T12:13:33.000Z</time>
      </trkpt>
      <trkpt lat="43.95424" lon="2.21833">
        <ele>176</ele>
        <time>2021-02-25T12:13:34.000Z</time>
      </trkpt>
      <trkpt lat="43.95423" lon="2.21834">
        <ele>176</ele>
        <time>2021-02-25T12:13:35.000Z</time>
      </trkpt>
      <trkpt lat="43.95423" lon="2.21836">
        <ele>177</ele>
        <time>2021-02-25T12:13:36.000Z</time>
      </trkpt>
      <trkpt lat="43.95422" lon="2.21838">
        <ele>177</ele>
        <time>2021-02-25T12:13:37.000Z</time>
      </trkpt>
      <trkpt lat="43.95422" lon="2.2184">
        <ele>177</ele>
        <time>2021-02-25T12:13:38.000Z</time>
      </trkpt>
      <trkpt lat="43.95421" lon="2.21842">
        <ele>177</ele>
        <time>2021-02-25T12:13:39.000Z</time>
      </trkpt>
      <trkpt lat="43.95421" lon="2.21843">
        <ele>177</ele>
        <time>2021-02-25T12:13:40.000Z</time>
      </trkpt>
      <trkpt lat="43.95421" lon="2.21845">
        <ele>177</ele>
        <time>2021-02-25T12:13:41.000Z</time>
      </trkpt>
      <trkpt lat="43.95421" lon="2.21846">
        <ele>177</ele>
        <time>2021-02-25T12:13:42.000Z</time>
      </trkpt>
      <trkpt lat="43.95421" lon="2.21848">
        <ele>177</ele>
        <time>2021-02-25T12:13:43.000Z</time>
      </trkpt>
      <trkpt lat="43.95421" lon="2.2185">
        <ele>177</ele>
        <time>2021-02-25T12:13:44.000Z</time>
      </trkpt>
      <trkpt lat="43.95421" lon="2.21852">
        <ele>177</ele>
        <time>2021-02-25T12:13:45.000Z</time>
      </trkpt>
      <trkpt lat="43.95421" lon="2.21853">
        <ele>176</ele>
        <time>2021-02-25T12:13:46.000Z</time>
      </trkpt>
      <trkpt lat="43.95421" lon="2.21855">
        <ele>176</ele>
        <time>2021-02-25T12:13:47.000Z</time>
      </trkpt>
      <trkpt lat="43.9542" lon="2.21857">
        <ele>176</ele>
        <time>2021-02-25T12:13:48.000Z</time>
      </trkpt>
      <trkpt lat="43.9542" lon="2.21858">
        <ele>176</ele>
        <time>2021-02-25T12:13:49.000Z</time>
      </trkpt>
      <trkpt lat="43.9542" lon="2.2186">
        <ele>176</ele>
        <time>2021-02-25T12:13:50.000Z</time>
      </trkpt>
      <trkpt lat="43.9542" lon="2.21862">
        <ele>176</ele>
        <time>2021-02-25T12:13:51.000Z</time>
      </trkpt>
      <trkpt lat="43.9542" lon="2.21864">
        <ele>176</ele>
        <time>2021-02-25T12:13:52.000Z</time>
      </trkpt>
      <trkpt lat="43.95419" lon="2.21865">
        <ele>176</ele>
        <time>2021-02-25T12:13:53.000Z</time>
      </trkpt>
      <trkpt lat="43.95419" lon="2.21867">
        <ele>176</ele>
        <time>2021-02-25T12:13:54.000Z</time>
      </trkpt>
      <trkpt lat="43.9542" lon="2.21868">
        <ele>176</ele>
        <time>2021-02-25T12:13:55.000Z</time>
      </trkpt>
      <trkpt lat="43.9542" lon="2.2187">
        <ele>176</ele>
        <time>2021-02-25T12:13:56.000Z</time>
      </trkpt>
      <trkpt lat="43.9542" lon="2.21872">
        <ele>176</ele>
        <time>2021-02-25T12:13:57.000Z</time>
      </trkpt>
      <trkpt lat="43.9542" lon="2.21874">
        <ele>175</ele>
        <time>2021-02-25T12:13:58.000Z</time>
      </trkpt>
      <trkpt lat="43.95419" lon="2.21876">
        <ele>175</ele>
        <time>2021-02-25T12:13:59.000Z</time>
      </trkpt>
      <trkpt lat="43.95419" lon="2.21877">
        <ele>175</ele>
        <time>2021-02-25T12:14:00.000Z</time>
      </trkpt>
      <trkpt lat="43.95419" lon="2.21879">
        <ele>175</ele>
        <time>2021-02-25T12:14:01.000Z</time>
      </trkpt>
      <trkpt lat="43.95419" lon="2.21881">
        <ele>175</ele>
        <time>2021-02-25T12:14:02.000Z</time>
      </trkpt>
      <trkpt lat="43.95418" lon="2.21882">
        <ele>175</ele>
        <time>2021-02-25T12:14:03.000Z</time>
      </trkpt>
      <trkpt lat="43.95418" lon="2.21884">
        <ele>175</ele>
        <time>2021-02-25T12:14:04.000Z</time>
      </trkpt>
      <trkpt lat="43.95418" lon="2.21886">
        <ele>175</ele>
        <time>2021-02-25T12:14:05.000Z</time>
      </trkpt>
      <trkpt lat="43.95418" lon="2.21888">
        <ele>175</ele>
        <time>2021-02-25T12:14:06.000Z</time>
      </trkpt>
      <trkpt lat="43.95418" lon="2.2189">
        <ele>174</ele>
        <time>2021-02-25T12:14:07.000Z</time>
      </trkpt>
      <trkpt lat="43.95418" lon="2.21892">
        <ele>174</ele>
        <time>2021-02-25T12:14:08.000Z</time>
      </trkpt>
      <trkpt lat="43.95418" lon="2.21893">
        <ele>174</ele>
        <time>2021-02-25T12:14:09.000Z</time>
      </trkpt>
      <trkpt lat="43.95417" lon="2.21895">
        <ele>174</ele>
        <time>2021-02-25T12:14:10.000Z</time>
      </trkpt>
      <trkpt lat="43.95417" lon="2.21896">
        <ele>174</ele>
        <time>2021-02-25T12:14:11.000Z</time>
      </trkpt>
      <trkpt lat="43.95416" lon="2.21898">
        <ele>174</ele>
        <time>2021-02-25T12:14:12.000Z</time>
      </trkpt>
      <trkpt lat="43.95416" lon="2.219">
        <ele>174</ele>
        <time>2021-02-25T12:14:13.000Z</time>
      </trkpt>
      <trkpt lat="43.95416" lon="2.21902">
        <ele>174</ele>
        <time>2021-02-25T12:14:14.000Z</time>
      </trkpt>
      <trkpt lat="43.95415" lon="2.21903">
        <ele>174</ele>
        <time>2021-02-25T12:14:15.000Z</time>
      </trkpt>
      <trkpt lat="43.95415" lon="2.21905">
        <ele>174</ele>
        <time>2021-02-25T12:14:16.000Z</time>
      </trkpt>
      <trkpt lat="43.95414" lon="2.21907">
        <ele>174</ele>
        <time>2021-02-25T12:14:17.000Z</time>
      </trkpt>
      <trkpt lat="43.95414" lon="2.21908">
        <ele>174</ele>
        <time>2021-02-25T12:14:18.000Z</time>
      </trkpt>
      <trkpt lat="43.95413" lon="2.2191">
        <ele>174</ele>
        <time>2021-02-25T12:14:19.000Z</time>
      </trkpt>
      <trkpt lat="43.95413" lon="2.21912">
        <ele>174</ele>
        <time>2021-02-25T12:14:20.000Z</time>
      </trkpt>
      <trkpt lat="43.95412" lon="2.21914">
        <ele>174</ele>
        <time>2021-02-25T12:14:21.000Z</time>
      </trkpt>
      <trkpt lat="43.95412" lon="2.21915">
        <ele>174</ele>
        <time>2021-02-25T12:14:22.000Z</time>
      </trkpt>
      <trkpt lat="43.95412" lon="2.21917">
        <ele>174</ele>
        <time>2021-02-25T12:14:23.000Z</time>
      </trkpt>
      <trkpt lat="43.95411" lon="2.21918">
        <ele>174</ele>
        <time>2021-02-25T12:14:24.000Z</time>
      </trkpt>
      <trkpt lat="43.95411" lon="2.2192">
        <ele>173</ele>
        <time>2021-02-25T12:14:25.000Z</time>
      </trkpt>
      <trkpt lat="43.95411" lon="2.21922">
        <ele>173</ele>
        <time>2021-02-25T12:14:26.000Z</time>
      </trkpt>
      <trkpt lat="43.9541" lon="2.21924">
        <ele>173</ele>
        <time>2021-02-25T12:14:27.000Z</time>
      </trkpt>
      <trkpt lat="43.9541" lon="2.21925">
        <ele>173</ele>
        <time>2021-02-25T12:14:28.000Z</time>
      </trkpt>
      <trkpt lat="43.9541" lon="2.21927">
        <ele>173</ele>
        <time>2021-02-25T12:14:29.000Z</time>
      </trkpt>
      <trkpt lat="43.95409" lon="2.21929">
        <ele>173</ele>
        <time>2021-02-25T12:14:30.000Z</time>
      </trkpt>
      <trkpt lat="43.95409" lon="2.21931">
        <ele>173</ele>
        <time>2021-02-25T12:14:31.000Z</time>
      </trkpt>
      <trkpt lat="43.95409" lon="2.21932">
        <ele>173</ele>
        <time>2021-02-25T12:14:32.000Z</time>
      </trkpt>
      <trkpt lat="43.95408" lon="2.21934">
        <ele>173</ele>
        <time>2021-02-25T12:14:33.000Z</time>
      </trkpt>
      <trkpt lat="43.95408" lon="2.21936">
        <ele>173</ele>
        <time>2021-02-25T12:14:34.000Z</time>
      </trkpt>
      <trkpt lat="43.95407" lon="2.21937">
        <ele>173</ele>
        <time>2021-02-25T12:14:35.000Z</time>
      </trkpt>
      <trkpt lat="43.95406" lon="2.21939">
        <ele>173</ele>
        <time>2021-02-25T12:14:36.000Z</time>
      </trkpt>
      <trkpt lat="43.95406" lon="2.2194">
        <ele>173</ele>
        <time>2021-02-25T12:14:37.000Z</time>
      </trkpt>
      <trkpt lat="43.95405" lon="2.21941">
        <ele>173</ele>
        <time>2021-02-25T12:14:38.000Z</time>
      </trkpt>
      <trkpt lat="43.95405" lon="2.21943">
        <ele>173</ele>
        <time>2021-02-25T12:14:39.000Z</time>
      </trkpt>
      <trkpt lat="43.95404" lon="2.21944">
        <ele>173</ele>
        <time>2021-02-25T12:14:40.000Z</time>
      </trkpt>
      <trkpt lat="43.95403" lon="2.21946">
        <ele>173</ele>
        <time>2021-02-25T12:14:41.000Z</time>
      </trkpt>
      <trkpt lat="43.95402" lon="2.21947">
        <ele>173</ele>
        <time>2021-02-25T12:14:42.000Z</time>
      </trkpt>
      <trkpt lat="43.95402" lon="2.21949">
        <ele>173</ele>
        <time>2021-02-25T12:14:43.000Z</time>
      </trkpt>
      <trkpt lat="43.95401" lon="2.21951">
        <ele>173</ele>
        <time>2021-02-25T12:14:44.000Z</time>
      </trkpt>
      <trkpt lat="43.954" lon="2.21952">
        <ele>173</ele>
        <time>2021-02-25T12:14:45.000Z</time>
      </trkpt>
      <trkpt lat="43.954" lon="2.21953">
        <ele>174</ele>
        <time>2021-02-25T12:14:46.000Z</time>
      </trkpt>
      <trkpt lat="43.95399" lon="2.21955">
        <ele>174</ele>
        <time>2021-02-25T12:14:47.000Z</time>
      </trkpt>
      <trkpt lat="43.95398" lon="2.21957">
        <ele>174</ele>
        <time>2021-02-25T12:14:48.000Z</time>
      </trkpt>
      <trkpt lat="43.95397" lon="2.21959">
        <ele>174</ele>
        <time>2021-02-25T12:14:49.000Z</time>
      </trkpt>
      <trkpt lat="43.95397" lon="2.2196">
        <ele>174</ele>
        <time>2021-02-25T12:14:50.000Z</time>
      </trkpt>
      <trkpt lat="43.95397" lon="2.21962">
        <ele>174</ele>
        <time>2021-02-25T12:14:51.000Z</time>
      </trkpt>
      <trkpt lat="43.95396" lon="2.21963">
        <ele>174</ele>
        <time>2021-02-25T12:14:52.000Z</time>
      </trkpt>
      <trkpt lat="43.95395" lon="2.21964">
        <ele>174</ele>
        <time>2021-02-25T12:14:53.000Z</time>
      </trkpt>
      <trkpt lat="43.95395" lon="2.21966">
        <ele>174</ele>
        <time>2021-02-25T12:14:54.000Z</time>
      </trkpt>
      <trkpt lat="43.95394" lon="2.21967">
        <ele>174</ele>
        <time>2021-02-25T12:14:55.000Z</time>
      </trkpt>
      <trkpt lat="43.95393" lon="2.21969">
        <ele>174</ele>
        <time>2021-02-25T12:14:56.000Z</time>
      </trkpt>
      <trkpt lat="43.95392" lon="2.2197">
        <ele>175</ele>
        <time>2021-02-25T12:14:57.000Z</time>
      </trkpt>
      <trkpt lat="43.95392" lon="2.21971">
        <ele>175</ele>
        <time>2021-02-25T12:14:58.000Z</time>
      </trkpt>
      <trkpt lat="43.95392" lon="2.21973">
        <ele>175</ele>
        <time>2021-02-25T12:14:59.000Z</time>
      </trkpt>
      <trkpt lat="43.95391" lon="2.21974">
        <ele>175</ele>
        <time>2021-02-25T12:15:00.000Z</time>
      </trkpt>
      <trkpt lat="43.95391" lon="2.21975">
        <ele>175</ele>
        <time>2021-02-25T12:15:01.000Z</time>
      </trkpt>
      <trkpt lat="43.9539" lon="2.21977">
        <ele>175</ele>
        <time>2021-02-25T12:15:02.000Z</time>
      </trkpt>
      <trkpt lat="43.95389" lon="2.21979">
        <ele>175</ele>
        <time>2021-02-25T12:15:03.000Z</time>
      </trkpt>
      <trkpt lat="43.95389" lon="2.2198">
        <ele>175</ele>
        <time>2021-02-25T12:15:04.000Z</time>
      </trkpt>
      <trkpt lat="43.95388" lon="2.21982">
        <ele>175</ele>
        <time>2021-02-25T12:15:05.000Z</time>
      </trkpt>
      <trkpt lat="43.95388" lon="2.21984">
        <ele>175</ele>
        <time>2021-02-25T12:15:06.000Z</time>
      </trkpt>
      <trkpt lat="43.95387" lon="2.21985">
        <ele>175</ele>
        <time>2021-02-25T12:15:07.000Z</time>
      </trkpt>
      <trkpt lat="43.95387" lon="2.21987">
        <ele>175</ele>
        <time>2021-02-25T12:15:08.000Z</time>
      </trkpt>
      <trkpt lat="43.95387" lon="2.21989">
        <ele>175</ele>
        <time>2021-02-25T12:15:09.000Z</time>
      </trkpt>
      <trkpt lat="43.95386" lon="2.2199">
        <ele>175</ele>
        <time>2021-02-25T12:15:10.000Z</time>
      </trkpt>
      <trkpt lat="43.95386" lon="2.21992">
        <ele>175</ele>
        <time>2021-02-25T12:15:11.000Z</time>
      </trkpt>
      <trkpt lat="43.95386" lon="2.21994">
        <ele>175</ele>
        <time>2021-02-25T12:15:12.000Z</time>
      </trkpt>
      <trkpt lat="43.95385" lon="2.21995">
        <ele>175</ele>
        <time>2021-02-25T12:15:13.000Z</time>
      </trkpt>
      <trkpt lat="43.95385" lon="2.21996">
        <ele>175</ele>
        <time>2021-02-25T12:15:14.000Z</time>
      </trkpt>
      <trkpt lat="43.95384" lon="2.21998">
        <ele>175</ele>
        <time>2021-02-25T12:15:15.000Z</time>
      </trkpt>
      <trkpt lat="43.95384" lon="2.22">
        <ele>175</ele>
        <time>2021-02-25T12:15:16.000Z</time>
      </trkpt>
      <trkpt lat="43.95383" lon="2.22001">
        <ele>175</ele>
        <time>2021-02-25T12:15:17.000Z</time>
      </trkpt>
      <trkpt lat="43.95382" lon="2.22003">
        <ele>176</ele>
        <time>2021-02-25T12:15:18.000Z</time>
      </trkpt>
      <trkpt lat="43.95382" lon="2.22004">
        <ele>176</ele>
        <time>2021-02-25T12:15:19.000Z</time>
      </trkpt>
      <trkpt lat="43.95381" lon="2.22006">
        <ele>176</ele>
        <time>2021-02-25T12:15:20.000Z</time>
      </trkpt>
      <trkpt lat="43.95381" lon="2.22007">
        <ele>176</ele>
        <time>2021-02-25T12:15:21.000Z</time>
      </trkpt>
      <trkpt lat="43.9538" lon="2.22009">
        <ele>176</ele>
        <time>2021-02-25T12:15:22.000Z</time>
      </trkpt>
      <trkpt lat="43.95379" lon="2.2201">
        <ele>176</ele>
        <time>2021-02-25T12:15:23.000Z</time>
      </trkpt>
      <trkpt lat="43.95379" lon="2.22012">
        <ele>176</ele>
        <time>2021-02-25T12:15:24.000Z</time>
      </trkpt>
      <trkpt lat="43.95378" lon="2.22013">
        <ele>176</ele>
        <time>2021-02-25T12:15:25.000Z</time>
      </trkpt>
      <trkpt lat="43.95378" lon="2.22014">
        <ele>176</ele>
        <time>2021-02-25T12:15:26.000Z</time>
      </trkpt>
      <trkpt lat="43.95377" lon="2.22016">
        <ele>176</ele>
        <time>2021-02-25T12:15:27.000Z</time>
      </trkpt>
      <trkpt lat="43.95377" lon="2.22017">
        <ele>176</ele>
        <time>2021-02-25T12:15:28.000Z</time>
      </trkpt>
      <trkpt lat="43.95376" lon="2.22019">
        <ele>176</ele>
        <time>2021-02-25T12:15:29.000Z</time>
      </trkpt>
      <trkpt lat="43.95376" lon="2.22021">
        <ele>176</ele>
        <time>2021-02-25T12:15:30.000Z</time>
      </trkpt>
      <trkpt lat="43.95375" lon="2.22023">
        <ele>176</ele>
        <time>2021-02-25T12:15:31.000Z</time>
      </trkpt>
      <trkpt lat="43.95374" lon="2.22024">
        <ele>176</ele>
        <time>2021-02-25T12:15:32.000Z</time>
      </trkpt>
      <trkpt lat="43.95374" lon="2.22026">
        <ele>176</ele>
        <time>2021-02-25T12:15:33.000Z</time>
      </trkpt>
      <trkpt lat="43.95373" lon="2.22027">
        <ele>176</ele>
        <time>2021-02-25T12:15:34.000Z</time>
      </trkpt>
      <trkpt lat="43.95372" lon="2.22029">
        <ele>176</ele>
        <time>2021-02-25T12:15:35.000Z</time>
      </trkpt>
      <trkpt lat="43.95372" lon="2.2203">
        <ele>176</ele>
        <time>2021-02-25T12:15:36.000Z</time>
      </trkpt>
      <trkpt lat="43.95371" lon="2.22032">
        <ele>176</ele>
        <time>2021-02-25T12:15:37.000Z</time>
      </trkpt>
      <trkpt lat="43.95371" lon="2.22034">
        <ele>176</ele>
        <time>2021-02-25T12:15:38.000Z</time>
      </trkpt>
      <trkpt lat="43.9537" lon="2.22035">
        <ele>176</ele>
        <time>2021-02-25T12:15:39.000Z</time>
      </trkpt>
      <trkpt lat="43.9537" lon="2.22037">
        <ele>176</ele>
        <time>2021-02-25T12:15:40.000Z</time>
      </trkpt>
      <trkpt lat="43.95369" lon="2.22038">
        <ele>176</ele>
        <time>2021-02-25T12:15:41.000Z</time>
      </trkpt>
      <trkpt lat="43.95369" lon="2.22039">
        <ele>176</ele>
        <time>2021-02-25T12:15:42.000Z</time>
      </trkpt>
      <trkpt lat="43.95368" lon="2.22041">
        <ele>176</ele>
        <time>2021-02-25T12:15:43.000Z</time>
      </trkpt>
      <trkpt lat="43.95368" lon="2.22043">
        <ele>176</ele>
        <time>2021-02-25T12:15:44.000Z</time>
      </trkpt>
      <trkpt lat="43.95368" lon="2.22045">
        <ele>176</ele>
        <time>2021-02-25T12:15:45.000Z</time>
      </trkpt>
      <trkpt lat="43.95367" lon="2.22046">
        <ele>176</ele>
        <time>2021-02-25T12:15:46.000Z</time>
      </trkpt>
      <trkpt lat="43.95367" lon="2.22047">
        <ele>176</ele>
        <time>2021-02-25T12:15:47.000Z</time>
      </trkpt>
      <trkpt lat="43.95367" lon="2.22049">
        <ele>175</ele>
        <time>2021-02-25T12:15:48.000Z</time>
      </trkpt>
      <trkpt lat="43.95366" lon="2.22051">
        <ele>175</ele>
        <time>2021-02-25T12:15:49.000Z</time>
      </trkpt>
      <trkpt lat="43.95366" lon="2.22052">
        <ele>175</ele>
        <time>2021-02-25T12:15:50.000Z</time>
      </trkpt>
      <trkpt lat="43.95365" lon="2.22054">
        <ele>175</ele>
        <time>2021-02-25T12:15:51.000Z</time>
      </trkpt>
      <trkpt lat="43.95365" lon="2.22056">
        <ele>175</ele>
        <time>2021-02-25T12:15:52.000Z</time>
      </trkpt>
      <trkpt lat="43.95364" lon="2.22057">
        <ele>175</ele>
        <time>2021-02-25T12:15:53.000Z</time>
      </trkpt>
      <trkpt lat="43.95364" lon="2.22059">
        <ele>175</ele>
        <time>2021-02-25T12:15:54.000Z</time>
      </trkpt>
      <trkpt lat="43.95363" lon="2.2206">
        <ele>175</ele>
        <time>2021-02-25T12:15:55.000Z</time>
      </trkpt>
      <trkpt lat="43.95363" lon="2.22061">
        <ele>175</ele>
        <time>2021-02-25T12:15:56.000Z</time>
      </trkpt>
      <trkpt lat="43.95363" lon="2.22063">
        <ele>175</ele>
        <time>2021-02-25T12:15:57.000Z</time>
      </trkpt>
      <trkpt lat="43.95362" lon="2.22064">
        <ele>175</ele>
        <time>2021-02-25T12:15:58.000Z</time>
      </trkpt>
      <trkpt lat="43.95362" lon="2.22066">
        <ele>175</ele>
        <time>2021-02-25T12:15:59.000Z</time>
      </trkpt>
      <trkpt lat="43.95362" lon="2.22067">
        <ele>174</ele>
        <time>2021-02-25T12:16:00.000Z</time>
      </trkpt>
      <trkpt lat="43.95361" lon="2.22069">
        <ele>174</ele>
        <time>2021-02-25T12:16:01.000Z</time>
      </trkpt>
      <trkpt lat="43.95361" lon="2.2207">
        <ele>174</ele>
        <time>2021-02-25T12:16:02.000Z</time>
      </trkpt>
      <trkpt lat="43.9536" lon="2.22072">
        <ele>174</ele>
        <time>2021-02-25T12:16:03.000Z</time>
      </trkpt>
      <trkpt lat="43.9536" lon="2.22073">
        <ele>174</ele>
        <time>2021-02-25T12:16:04.000Z</time>
      </trkpt>
      <trkpt lat="43.95359" lon="2.22075">
        <ele>174</ele>
        <time>2021-02-25T12:16:05.000Z</time>
      </trkpt>
      <trkpt lat="43.95359" lon="2.22076">
        <ele>174</ele>
        <time>2021-02-25T12:16:06.000Z</time>
      </trkpt>
      <trkpt lat="43.95358" lon="2.22078">
        <ele>174</ele>
        <time>2021-02-25T12:16:07.000Z</time>
      </trkpt>
      <trkpt lat="43.95358" lon="2.22079">
        <ele>174</ele>
        <time>2021-02-25T12:16:08.000Z</time>
      </trkpt>
      <trkpt lat="43.95358" lon="2.22081">
        <ele>174</ele>
        <time>2021-02-25T12:16:09.000Z</time>
      </trkpt>
      <trkpt lat="43.95358" lon="2.22082">
        <ele>174</ele>
        <time>2021-02-25T12:16:10.000Z</time>
      </trkpt>
      <trkpt lat="43.95358" lon="2.22084">
        <ele>174</ele>
        <time>2021-02-25T12:16:11.000Z</time>
      </trkpt>
      <trkpt lat="43.95358" lon="2.22086">
        <ele>174</ele>
        <time>2021-02-25T12:16:12.000Z</time>
      </trkpt>
      <trkpt lat="43.95358" lon="2.22088">
        <ele>174</ele>
        <time>2021-02-25T12:16:13.000Z</time>
      </trkpt>
      <trkpt lat="43.95359" lon="2.22089">
        <ele>174</ele>
        <time>2021-02-25T12:16:14.000Z</time>
      </trkpt>
      <trkpt lat="43.95359" lon="2.22091">
        <ele>174</ele>
        <time>2021-02-25T12:16:15.000Z</time>
      </trkpt>
      <trkpt lat="43.95358" lon="2.22092">
        <ele>174</ele>
        <time>2021-02-25T12:16:16.000Z</time>
      </trkpt>
      <trkpt lat="43.95358" lon="2.22092">
        <ele>174</ele>
        <time>2021-02-25T12:16:17.000Z</time>
      </trkpt>
      <trkpt lat="43.95358" lon="2.22092">
        <ele>174</ele>
        <time>2021-02-25T12:16:18.000Z</time>
      </trkpt>
      <trkpt lat="43.95358" lon="2.22093">
        <ele>174</ele>
        <time>2021-02-25T12:16:19.000Z</time>
      </trkpt>
      <trkpt lat="43.95358" lon="2.22094">
        <ele>174</ele>
        <time>2021-02-25T12:16:20.000Z</time>
      </trkpt>
      <trkpt lat="43.95358" lon="2.22096">
        <ele>174</ele>
        <time>2021-02-25T12:16:21.000Z</time>
      </trkpt>
      <trkpt lat="43.95358" lon="2.22097">
        <ele>174</ele>
        <time>2021-02-25T12:16:22.000Z</time>
      </trkpt>
      <trkpt lat="43.95359" lon="2.22099">
        <ele>174</ele>
        <time>2021-02-25T12:16:23.000Z</time>
      </trkpt>
      <trkpt lat="43.95359" lon="2.22101">
        <ele>174</ele>
        <time>2021-02-25T12:16:24.000Z</time>
      </trkpt>
      <trkpt lat="43.95359" lon="2.22102">
        <ele>174</ele>
        <time>2021-02-25T12:16:25.000Z</time>
      </trkpt>
      <trkpt lat="43.9536" lon="2.22103">
        <ele>174</ele>
        <time>2021-02-25T12:16:26.000Z</time>
      </trkpt>
      <trkpt lat="43.9536" lon="2.22105">
        <ele>174</ele>
        <time>2021-02-25T12:16:27.000Z</time>
      </trkpt>
      <trkpt lat="43.9536" lon="2.22106">
        <ele>174</ele>
        <time>2021-02-25T12:16:28.000Z</time>
      </trkpt>
      <trkpt lat="43.95361" lon="2.22108">
        <ele>174</ele>
        <time>2021-02-25T12:16:29.000Z</time>
      </trkpt>
      <trkpt lat="43.95361" lon="2.22109">
        <ele>174</ele>
        <time>2021-02-25T12:16:30.000Z</time>
      </trkpt>
      <trkpt lat="43.95361" lon="2.2211">
        <ele>174</ele>
        <time>2021-02-25T12:16:31.000Z</time>
      </trkpt>
      <trkpt lat="43.95362" lon="2.22112">
        <ele>174</ele>
        <time>2021-02-25T12:16:32.000Z</time>
      </trkpt>
      <trkpt lat="43.95362" lon="2.22112">
        <ele>174</ele>
        <time>2021-02-25T12:16:33.000Z</time>
      </trkpt>
      <trkpt lat="43.95362" lon="2.22113">
        <ele>174</ele>
        <time>2021-02-25T12:16:34.000Z</time>
      </trkpt>
      <trkpt lat="43.95362" lon="2.22113">
        <ele>174</ele>
        <time>2021-02-25T12:16:35.000Z</time>
      </trkpt>
      <trkpt lat="43.95362" lon="2.22113">
        <ele>174</ele>
        <time>2021-02-25T12:16:36.000Z</time>
      </trkpt>
      <trkpt lat="43.95363" lon="2.22114">
        <ele>174</ele>
        <time>2021-02-25T12:16:37.000Z</time>
      </trkpt>
      <trkpt lat="43.95363" lon="2.22115">
        <ele>174</ele>
        <time>2021-02-25T12:16:38.000Z</time>
      </trkpt>
      <trkpt lat="43.95364" lon="2.22117">
        <ele>173</ele>
        <time>2021-02-25T12:16:39.000Z</time>
      </trkpt>
      <trkpt lat="43.95365" lon="2.22118">
        <ele>173</ele>
        <time>2021-02-25T12:16:40.000Z</time>
      </trkpt>
      <trkpt lat="43.95366" lon="2.22119">
        <ele>173</ele>
        <time>2021-02-25T12:16:41.000Z</time>
      </trkpt>
      <trkpt lat="43.95367" lon="2.2212">
        <ele>173</ele>
        <time>2021-02-25T12:16:42.000Z</time>
      </trkpt>
      <trkpt lat="43.95368" lon="2.2212">
        <ele>173</ele>
        <time>2021-02-25T12:16:43.000Z</time>
      </trkpt>
      <trkpt lat="43.95369" lon="2.22121">
        <ele>173</ele>
        <time>2021-02-25T12:16:44.000Z</time>
      </trkpt>
      <trkpt lat="43.9537" lon="2.22122">
        <ele>173</ele>
        <time>2021-02-25T12:16:45.000Z</time>
      </trkpt>
      <trkpt lat="43.95372" lon="2.22123">
        <ele>173</ele>
        <time>2021-02-25T12:16:46.000Z</time>
      </trkpt>
      <trkpt lat="43.95373" lon="2.22124">
        <ele>173</ele>
        <time>2021-02-25T12:16:47.000Z</time>
      </trkpt>
      <trkpt lat="43.95374" lon="2.22124">
        <ele>173</ele>
        <time>2021-02-25T12:16:48.000Z</time>
      </trkpt>
      <trkpt lat="43.95375" lon="2.22125">
        <ele>173</ele>
        <time>2021-02-25T12:16:49.000Z</time>
      </trkpt>
      <trkpt lat="43.95376" lon="2.22125">
        <ele>173</ele>
        <time>2021-02-25T12:16:50.000Z</time>
      </trkpt>
      <trkpt lat="43.95377" lon="2.22126">
        <ele>173</ele>
        <time>2021-02-25T12:16:51.000Z</time>
      </trkpt>
      <trkpt lat="43.95378" lon="2.22126">
        <ele>173</ele>
        <time>2021-02-25T12:16:52.000Z</time>
      </trkpt>
      <trkpt lat="43.95379" lon="2.22127">
        <ele>173</ele>
        <time>2021-02-25T12:16:53.000Z</time>
      </trkpt>
      <trkpt lat="43.95379" lon="2.22127">
        <ele>173</ele>
        <time>2021-02-25T12:16:54.000Z</time>
      </trkpt>
      <trkpt lat="43.9538" lon="2.22128">
        <ele>173</ele>
        <time>2021-02-25T12:16:55.000Z</time>
      </trkpt>
      <trkpt lat="43.95381" lon="2.22128">
        <ele>173</ele>
        <time>2021-02-25T12:16:56.000Z</time>
      </trkpt>
      <trkpt lat="43.95382" lon="2.22128">
        <ele>173</ele>
        <time>2021-02-25T12:16:57.000Z</time>
      </trkpt>
      <trkpt lat="43.95383" lon="2.22128">
        <ele>174</ele>
        <time>2021-02-25T12:16:58.000Z</time>
      </trkpt>
      <trkpt lat="43.95384" lon="2.22127">
        <ele>174</ele>
        <time>2021-02-25T12:16:59.000Z</time>
      </trkpt>
      <trkpt lat="43.95385" lon="2.22127">
        <ele>174</ele>
        <time>2021-02-25T12:17:00.000Z</time>
      </trkpt>
      <trkpt lat="43.95387" lon="2.22127">
        <ele>174</ele>
        <time>2021-02-25T12:17:01.000Z</time>
      </trkpt>
      <trkpt lat="43.95388" lon="2.22127">
        <ele>174</ele>
        <time>2021-02-25T12:17:02.000Z</time>
      </trkpt>
      <trkpt lat="43.95389" lon="2.22126">
        <ele>173</ele>
        <time>2021-02-25T12:17:03.000Z</time>
      </trkpt>
      <trkpt lat="43.9539" lon="2.22125">
        <ele>174</ele>
        <time>2021-02-25T12:17:04.000Z</time>
      </trkpt>
      <trkpt lat="43.95391" lon="2.22125">
        <ele>174</ele>
        <time>2021-02-25T12:17:05.000Z</time>
      </trkpt>
      <trkpt lat="43.95392" lon="2.22124">
        <ele>174</ele>
        <time>2021-02-25T12:17:06.000Z</time>
      </trkpt>
      <trkpt lat="43.95393" lon="2.22124">
        <ele>174</ele>
        <time>2021-02-25T12:17:07.000Z</time>
      </trkpt>
      <trkpt lat="43.95394" lon="2.22123">
        <ele>174</ele>
        <time>2021-02-25T12:17:08.000Z</time>
      </trkpt>
      <trkpt lat="43.95395" lon="2.22122">
        <ele>174</ele>
        <time>2021-02-25T12:17:09.000Z</time>
      </trkpt>
      <trkpt lat="43.95396" lon="2.22122">
        <ele>174</ele>
        <time>2021-02-25T12:17:10.000Z</time>
      </trkpt>
      <trkpt lat="43.95397" lon="2.22121">
        <ele>174</ele>
        <time>2021-02-25T12:17:11.000Z</time>
      </trkpt>
      <trkpt lat="43.95398" lon="2.2212">
        <ele>174</ele>
        <time>2021-02-25T12:17:12.000Z</time>
      </trkpt>
      <trkpt lat="43.95399" lon="2.2212">
        <ele>174</ele>
        <time>2021-02-25T12:17:13.000Z</time>
      </trkpt>
      <trkpt lat="43.95399" lon="2.22119">
        <ele>174</ele>
        <time>2021-02-25T12:17:14.000Z</time>
      </trkpt>
      <trkpt lat="43.954" lon="2.22118">
        <ele>173</ele>
        <time>2021-02-25T12:17:15.000Z</time>
      </trkpt>
      <trkpt lat="43.95401" lon="2.22118">
        <ele>173</ele>
        <time>2021-02-25T12:17:16.000Z</time>
      </trkpt>
      <trkpt lat="43.95402" lon="2.22117">
        <ele>173</ele>
        <time>2021-02-25T12:17:17.000Z</time>
      </trkpt>
      <trkpt lat="43.95403" lon="2.22117">
        <ele>173</ele>
        <time>2021-02-25T12:17:18.000Z</time>
      </trkpt>
      <trkpt lat="43.95403" lon="2.22117">
        <ele>173</ele>
        <time>2021-02-25T12:17:19.000Z</time>
      </trkpt>
      <trkpt lat="43.95403" lon="2.22117">
        <ele>173</ele>
        <time>2021-02-25T12:17:20.000Z</time>
      </trkpt>
      <trkpt lat="43.95403" lon="2.22116">
        <ele>173</ele>
        <time>2021-02-25T12:17:21.000Z</time>
      </trkpt>
      <trkpt lat="43.95404" lon="2.22116">
        <ele>173</ele>
        <time>2021-02-25T12:17:22.000Z</time>
      </trkpt>
      <trkpt lat="43.95404" lon="2.22115">
        <ele>173</ele>
        <time>2021-02-25T12:17:23.000Z</time>
      </trkpt>
      <trkpt lat="43.95405" lon="2.22115">
        <ele>173</ele>
        <time>2021-02-25T12:17:24.000Z</time>
      </trkpt>
      <trkpt lat="43.95406" lon="2.22114">
        <ele>173</ele>
        <time>2021-02-25T12:17:25.000Z</time>
      </trkpt>
      <trkpt lat="43.95407" lon="2.22114">
        <ele>172</ele>
        <time>2021-02-25T12:17:26.000Z</time>
      </trkpt>
      <trkpt lat="43.95408" lon="2.22113">
        <ele>172</ele>
        <time>2021-02-25T12:17:27.000Z</time>
      </trkpt>
      <trkpt lat="43.95409" lon="2.22113">
        <ele>172</ele>
        <time>2021-02-25T12:17:28.000Z</time>
      </trkpt>
      <trkpt lat="43.9541" lon="2.22112">
        <ele>172</ele>
        <time>2021-02-25T12:17:29.000Z</time>
      </trkpt>
      <trkpt lat="43.95411" lon="2.22112">
        <ele>172</ele>
        <time>2021-02-25T12:17:30.000Z</time>
      </trkpt>
      <trkpt lat="43.95412" lon="2.22111">
        <ele>172</ele>
        <time>2021-02-25T12:17:31.000Z</time>
      </trkpt>
      <trkpt lat="43.95413" lon="2.22111">
        <ele>172</ele>
        <time>2021-02-25T12:17:32.000Z</time>
      </trkpt>
      <trkpt lat="43.95414" lon="2.22111">
        <ele>172</ele>
        <time>2021-02-25T12:17:33.000Z</time>
      </trkpt>
      <trkpt lat="43.95415" lon="2.22111">
        <ele>172</ele>
        <time>2021-02-25T12:17:34.000Z</time>
      </trkpt>
      <trkpt lat="43.95416" lon="2.2211">
        <ele>172</ele>
        <time>2021-02-25T12:17:35.000Z</time>
      </trkpt>
      <trkpt lat="43.95417" lon="2.2211">
        <ele>172</ele>
        <time>2021-02-25T12:17:36.000Z</time>
      </trkpt>
      <trkpt lat="43.95418" lon="2.2211">
        <ele>172</ele>
        <time>2021-02-25T12:17:37.000Z</time>
      </trkpt>
      <trkpt lat="43.9542" lon="2.22109">
        <ele>172</ele>
        <time>2021-02-25T12:17:38.000Z</time>
      </trkpt>
      <trkpt lat="43.95421" lon="2.22109">
        <ele>172</ele>
        <time>2021-02-25T12:17:39.000Z</time>
      </trkpt>
      <trkpt lat="43.95423" lon="2.22108">
        <ele>172</ele>
        <time>2021-02-25T12:17:40.000Z</time>
      </trkpt>
      <trkpt lat="43.95424" lon="2.22108">
        <ele>172</ele>
        <time>2021-02-25T12:17:41.000Z</time>
      </trkpt>
      <trkpt lat="43.95425" lon="2.22107">
        <ele>173</ele>
        <time>2021-02-25T12:17:42.000Z</time>
      </trkpt>
      <trkpt lat="43.95427" lon="2.22106">
        <ele>173</ele>
        <time>2021-02-25T12:17:43.000Z</time>
      </trkpt>
      <trkpt lat="43.95428" lon="2.22106">
        <ele>173</ele>
        <time>2021-02-25T12:17:44.000Z</time>
      </trkpt>
      <trkpt lat="43.95429" lon="2.22105">
        <ele>173</ele>
        <time>2021-02-25T12:17:45.000Z</time>
      </trkpt>
      <trkpt lat="43.9543" lon="2.22104">
        <ele>173</ele>
        <time>2021-02-25T12:17:46.000Z</time>
      </trkpt>
      <trkpt lat="43.95431" lon="2.22104">
        <ele>173</ele>
        <time>2021-02-25T12:17:47.000Z</time>
      </trkpt>
      <trkpt lat="43.95433" lon="2.22103">
        <ele>173</ele>
        <time>2021-02-25T12:17:48.000Z</time>
      </trkpt>
      <trkpt lat="43.95434" lon="2.22102">
        <ele>173</ele>
        <time>2021-02-25T12:17:49.000Z</time>
      </trkpt>
      <trkpt lat="43.95435" lon="2.22102">
        <ele>174</ele>
        <time>2021-02-25T12:17:50.000Z</time>
      </trkpt>
      <trkpt lat="43.95436" lon="2.22101">
        <ele>174</ele>
        <time>2021-02-25T12:17:51.000Z</time>
      </trkpt>
      <trkpt lat="43.95437" lon="2.22101">
        <ele>174</ele>
        <time>2021-02-25T12:17:52.000Z</time>
      </trkpt>
      <trkpt lat="43.95438" lon="2.221">
        <ele>174</ele>
        <time>2021-02-25T12:17:53.000Z</time>
      </trkpt>
      <trkpt lat="43.9544" lon="2.221">
        <ele>174</ele>
        <time>2021-02-25T12:17:54.000Z</time>
      </trkpt>
      <trkpt lat="43.95441" lon="2.22099">
        <ele>174</ele>
        <time>2021-02-25T12:17:55.000Z</time>
      </trkpt>
      <trkpt lat="43.95442" lon="2.22098">
        <ele>174</ele>
        <time>2021-02-25T12:17:56.000Z</time>
      </trkpt>
      <trkpt lat="43.95443" lon="2.22097">
        <ele>174</ele>
        <time>2021-02-25T12:17:57.000Z</time>
      </trkpt>
      <trkpt lat="43.95445" lon="2.22097">
        <ele>175</ele>
        <time>2021-02-25T12:17:58.000Z</time>
      </trkpt>
      <trkpt lat="43.95446" lon="2.22096">
        <ele>175</ele>
        <time>2021-02-25T12:17:59.000Z</time>
      </trkpt>
      <trkpt lat="43.95447" lon="2.22094">
        <ele>175</ele>
        <time>2021-02-25T12:18:00.000Z</time>
      </trkpt>
      <trkpt lat="43.95449" lon="2.22093">
        <ele>175</ele>
        <time>2021-02-25T12:18:01.000Z</time>
      </trkpt>
      <trkpt lat="43.9545" lon="2.22092">
        <ele>175</ele>
        <time>2021-02-25T12:18:02.000Z</time>
      </trkpt>
      <trkpt lat="43.95451" lon="2.22091">
        <ele>175</ele>
        <time>2021-02-25T12:18:03.000Z</time>
      </trkpt>
      <trkpt lat="43.95452" lon="2.22089">
        <ele>175</ele>
        <time>2021-02-25T12:18:04.000Z</time>
      </trkpt>
      <trkpt lat="43.95454" lon="2.22088">
        <ele>175</ele>
        <time>2021-02-25T12:18:05.000Z</time>
      </trkpt>
      <trkpt lat="43.95455" lon="2.22088">
        <ele>175</ele>
        <time>2021-02-25T12:18:06.000Z</time>
      </trkpt>
      <trkpt lat="43.95456" lon="2.22086">
        <ele>175</ele>
        <time>2021-02-25T12:18:07.000Z</time>
      </trkpt>
      <trkpt lat="43.95457" lon="2.22085">
        <ele>175</ele>
        <time>2021-02-25T12:18:08.000Z</time>
      </trkpt>
      <trkpt lat="43.95458" lon="2.22085">
        <ele>175</ele>
        <time>2021-02-25T12:18:09.000Z</time>
      </trkpt>
      <trkpt lat="43.95459" lon="2.22084">
        <ele>175</ele>
        <time>2021-02-25T12:18:10.000Z</time>
      </trkpt>
      <trkpt lat="43.9546" lon="2.22083">
        <ele>175</ele>
        <time>2021-02-25T12:18:11.000Z</time>
      </trkpt>
      <trkpt lat="43.95461" lon="2.22082">
        <ele>175</ele>
        <time>2021-02-25T12:18:12.000Z</time>
      </trkpt>
      <trkpt lat="43.95462" lon="2.22081">
        <ele>175</ele>
        <time>2021-02-25T12:18:13.000Z</time>
      </trkpt>
      <trkpt lat="43.95464" lon="2.2208">
        <ele>174</ele>
        <time>2021-02-25T12:18:14.000Z</time>
      </trkpt>
      <trkpt lat="43.95465" lon="2.22079">
        <ele>174</ele>
        <time>2021-02-25T12:18:15.000Z</time>
      </trkpt>
      <trkpt lat="43.95466" lon="2.22078">
        <ele>174</ele>
        <time>2021-02-25T12:18:16.000Z</time>
      </trkpt>
      <trkpt lat="43.95467" lon="2.22077">
        <ele>174</ele>
        <time>2021-02-25T12:18:17.000Z</time>
      </trkpt>
      <trkpt lat="43.95468" lon="2.22076">
        <ele>174</ele>
        <time>2021-02-25T12:18:18.000Z</time>
      </trkpt>
      <trkpt lat="43.95469" lon="2.22075">
        <ele>174</ele>
        <time>2021-02-25T12:18:19.000Z</time>
      </trkpt>
      <trkpt lat="43.9547" lon="2.22073">
        <ele>174</ele>
        <time>2021-02-25T12:18:20.000Z</time>
      </trkpt>
      <trkpt lat="43.95471" lon="2.22072">
        <ele>174</ele>
        <time>2021-02-25T12:18:21.000Z</time>
      </trkpt>
      <trkpt lat="43.95472" lon="2.22071">
        <ele>174</ele>
        <time>2021-02-25T12:18:22.000Z</time>
      </trkpt>
      <trkpt lat="43.95473" lon="2.2207">
        <ele>174</ele>
        <time>2021-02-25T12:18:23.000Z</time>
      </trkpt>
      <trkpt lat="43.95474" lon="2.22069">
        <ele>173</ele>
        <time>2021-02-25T12:18:24.000Z</time>
      </trkpt>
      <trkpt lat="43.95475" lon="2.22068">
        <ele>173</ele>
        <time>2021-02-25T12:18:25.000Z</time>
      </trkpt>
      <trkpt lat="43.95477" lon="2.22067">
        <ele>173</ele>
        <time>2021-02-25T12:18:26.000Z</time>
      </trkpt>
      <trkpt lat="43.95478" lon="2.22066">
        <ele>173</ele>
        <time>2021-02-25T12:18:27.000Z</time>
      </trkpt>
      <trkpt lat="43.95479" lon="2.22065">
        <ele>173</ele>
        <time>2021-02-25T12:18:28.000Z</time>
      </trkpt>
      <trkpt lat="43.9548" lon="2.22065">
        <ele>173</ele>
        <time>2021-02-25T12:18:29.000Z</time>
      </trkpt>
      <trkpt lat="43.95482" lon="2.22064">
        <ele>173</ele>
        <time>2021-02-25T12:18:30.000Z</time>
      </trkpt>
      <trkpt lat="43.95483" lon="2.22063">
        <ele>173</ele>
        <time>2021-02-25T12:18:31.000Z</time>
      </trkpt>
      <trkpt lat="43.95484" lon="2.22062">
        <ele>173</ele>
        <time>2021-02-25T12:18:32.000Z</time>
      </trkpt>
      <trkpt lat="43.95485" lon="2.22061">
        <ele>173</ele>
        <time>2021-02-25T12:18:33.000Z</time>
      </trkpt>
      <trkpt lat="43.95486" lon="2.2206">
        <ele>173</ele>
        <time>2021-02-25T12:18:34.000Z</time>
      </trkpt>
      <trkpt lat="43.95488" lon="2.22059">
        <ele>173</ele>
        <time>2021-02-25T12:18:35.000Z</time>
      </trkpt>
      <trkpt lat="43.95489" lon="2.22058">
        <ele>173</ele>
        <time>2021-02-25T12:18:36.000Z</time>
      </trkpt>
      <trkpt lat="43.9549" lon="2.22058">
        <ele>173</ele>
        <time>2021-02-25T12:18:37.000Z</time>
      </trkpt>
      <trkpt lat="43.95491" lon="2.22057">
        <ele>173</ele>
        <time>2021-02-25T12:18:38.000Z</time>
      </trkpt>
      <trkpt lat="43.95492" lon="2.22056">
        <ele>173</ele>
        <time>2021-02-25T12:18:39.000Z</time>
      </trkpt>
      <trkpt lat="43.95493" lon="2.22056">
        <ele>173</ele>
        <time>2021-02-25T12:18:40.000Z</time>
      </trkpt>
      <trkpt lat="43.95495" lon="2.22056">
        <ele>173</ele>
        <time>2021-02-25T12:18:41.000Z</time>
      </trkpt>
      <trkpt lat="43.95496" lon="2.22056">
        <ele>173</ele>
        <time>2021-02-25T12:18:42.000Z</time>
      </trkpt>
      <trkpt lat="43.95497" lon="2.22055">
        <ele>173</ele>
        <time>2021-02-25T12:18:43.000Z</time>
      </trkpt>
      <trkpt lat="43.95498" lon="2.22055">
        <ele>173</ele>
        <time>2021-02-25T12:18:44.000Z</time>
      </trkpt>
      <trkpt lat="43.95499" lon="2.22055">
        <ele>173</ele>
        <time>2021-02-25T12:18:45.000Z</time>
      </trkpt>
      <trkpt lat="43.95501" lon="2.22054">
        <ele>173</ele>
        <time>2021-02-25T12:18:46.000Z</time>
      </trkpt>
      <trkpt lat="43.95502" lon="2.22054">
        <ele>173</ele>
        <time>2021-02-25T12:18:47.000Z</time>
      </trkpt>
      <trkpt lat="43.95503" lon="2.22053">
        <ele>173</ele>
        <time>2021-02-25T12:18:48.000Z</time>
      </trkpt>
      <trkpt lat="43.95504" lon="2.22053">
        <ele>173</ele>
        <time>2021-02-25T12:18:49.000Z</time>
      </trkpt>
      <trkpt lat="43.95506" lon="2.22052">
        <ele>173</ele>
        <time>2021-02-25T12:18:50.000Z</time>
      </trkpt>
      <trkpt lat="43.95507" lon="2.22052">
        <ele>173</ele>
        <time>2021-02-25T12:18:51.000Z</time>
      </trkpt>
      <trkpt lat="43.95508" lon="2.22052">
        <ele>173</ele>
        <time>2021-02-25T12:18:52.000Z</time>
      </trkpt>
      <trkpt lat="43.95509" lon="2.22051">
        <ele>173</ele>
        <time>2021-02-25T12:18:53.000Z</time>
      </trkpt>
      <trkpt lat="43.9551" lon="2.22051">
        <ele>173</ele>
        <time>2021-02-25T12:18:54.000Z</time>
      </trkpt>
      <trkpt lat="43.95512" lon="2.2205">
        <ele>173</ele>
        <time>2021-02-25T12:18:55.000Z</time>
      </trkpt>
      <trkpt lat="43.95513" lon="2.2205">
        <ele>173</ele>
        <time>2021-02-25T12:18:56.000Z</time>
      </trkpt>
      <trkpt lat="43.95515" lon="2.2205">
        <ele>173</ele>
        <time>2021-02-25T12:18:57.000Z</time>
      </trkpt>
      <trkpt lat="43.95516" lon="2.2205">
        <ele>173</ele>
        <time>2021-02-25T12:18:58.000Z</time>
      </trkpt>
      <trkpt lat="43.95517" lon="2.2205">
        <ele>173</ele>
        <time>2021-02-25T12:18:59.000Z</time>
      </trkpt>
      <trkpt lat="43.95518" lon="2.22049">
        <ele>173</ele>
        <time>2021-02-25T12:19:00.000Z</time>
      </trkpt>
      <trkpt lat="43.95519" lon="2.22049">
        <ele>173</ele>
        <time>2021-02-25T12:19:01.000Z</time>
      </trkpt>
      <trkpt lat="43.9552" lon="2.22049">
        <ele>173</ele>
        <time>2021-02-25T12:19:02.000Z</time>
      </trkpt>
      <trkpt lat="43.95522" lon="2.22049">
        <ele>173</ele>
        <time>2021-02-25T12:19:03.000Z</time>
      </trkpt>
      <trkpt lat="43.95523" lon="2.22049">
        <ele>173</ele>
        <time>2021-02-25T12:19:04.000Z</time>
      </trkpt>
      <trkpt lat="43.95524" lon="2.22049">
        <ele>173</ele>
        <time>2021-02-25T12:19:05.000Z</time>
      </trkpt>
      <trkpt lat="43.95525" lon="2.2205">
        <ele>174</ele>
        <time>2021-02-25T12:19:06.000Z</time>
      </trkpt>
      <trkpt lat="43.95526" lon="2.2205">
        <ele>174</ele>
        <time>2021-02-25T12:19:07.000Z</time>
      </trkpt>
      <trkpt lat="43.95527" lon="2.2205">
        <ele>174</ele>
        <time>2021-02-25T12:19:08.000Z</time>
      </trkpt>
      <trkpt lat="43.95528" lon="2.2205">
        <ele>174</ele>
        <time>2021-02-25T12:19:09.000Z</time>
      </trkpt>
      <trkpt lat="43.9553" lon="2.22051">
        <ele>174</ele>
        <time>2021-02-25T12:19:10.000Z</time>
      </trkpt>
      <trkpt lat="43.95531" lon="2.22051">
        <ele>174</ele>
        <time>2021-02-25T12:19:11.000Z</time>
      </trkpt>
      <trkpt lat="43.95532" lon="2.22052">
        <ele>174</ele>
        <time>2021-02-25T12:19:12.000Z</time>
      </trkpt>
      <trkpt lat="43.95534" lon="2.22053">
        <ele>174</ele>
        <time>2021-02-25T12:19:13.000Z</time>
      </trkpt>
      <trkpt lat="43.95535" lon="2.22053">
        <ele>174</ele>
        <time>2021-02-25T12:19:14.000Z</time>
      </trkpt>
      <trkpt lat="43.95536" lon="2.22054">
        <ele>174</ele>
        <time>2021-02-25T12:19:15.000Z</time>
      </trkpt>
      <trkpt lat="43.95536" lon="2.22054">
        <ele>174</ele>
        <time>2021-02-25T12:19:16.000Z</time>
      </trkpt>
      <trkpt lat="43.95537" lon="2.22055">
        <ele>174</ele>
        <time>2021-02-25T12:19:17.000Z</time>
      </trkpt>
      <trkpt lat="43.95539" lon="2.22055">
        <ele>175</ele>
        <time>2021-02-25T12:19:18.000Z</time>
      </trkpt>
      <trkpt lat="43.95539" lon="2.22055">
        <ele>175</ele>
        <time>2021-02-25T12:19:19.000Z</time>
      </trkpt>
      <trkpt lat="43.9554" lon="2.22056">
        <ele>175</ele>
        <time>2021-02-25T12:19:20.000Z</time>
      </trkpt>
      <trkpt lat="43.95541" lon="2.22057">
        <ele>175</ele>
        <time>2021-02-25T12:19:21.000Z</time>
      </trkpt>
      <trkpt lat="43.95542" lon="2.22057">
        <ele>175</ele>
        <time>2021-02-25T12:19:22.000Z</time>
      </trkpt>
      <trkpt lat="43.95543" lon="2.22057">
        <ele>175</ele>
        <time>2021-02-25T12:19:23.000Z</time>
      </trkpt>
      <trkpt lat="43.95545" lon="2.22058">
        <ele>175</ele>
        <time>2021-02-25T12:19:24.000Z</time>
      </trkpt>
      <trkpt lat="43.95546" lon="2.22058">
        <ele>175</ele>
        <time>2021-02-25T12:19:25.000Z</time>
      </trkpt>
      <trkpt lat="43.95547" lon="2.22059">
        <ele>176</ele>
        <time>2021-02-25T12:19:26.000Z</time>
      </trkpt>
      <trkpt lat="43.95548" lon="2.22059">
        <ele>176</ele>
        <time>2021-02-25T12:19:27.000Z</time>
      </trkpt>
      <trkpt lat="43.9555" lon="2.22059">
        <ele>176</ele>
        <time>2021-02-25T12:19:28.000Z</time>
      </trkpt>
      <trkpt lat="43.95551" lon="2.2206">
        <ele>176</ele>
        <time>2021-02-25T12:19:29.000Z</time>
      </trkpt>
      <trkpt lat="43.95552" lon="2.2206">
        <ele>176</ele>
        <time>2021-02-25T12:19:30.000Z</time>
      </trkpt>
      <trkpt lat="43.95553" lon="2.2206">
        <ele>176</ele>
        <time>2021-02-25T12:19:31.000Z</time>
      </trkpt>
      <trkpt lat="43.95555" lon="2.2206">
        <ele>177</ele>
        <time>2021-02-25T12:19:32.000Z</time>
      </trkpt>
      <trkpt lat="43.95556" lon="2.22061">
        <ele>177</ele>
        <time>2021-02-25T12:19:33.000Z</time>
      </trkpt>
      <trkpt lat="43.95557" lon="2.22061">
        <ele>177</ele>
        <time>2021-02-25T12:19:34.000Z</time>
      </trkpt>
      <trkpt lat="43.95559" lon="2.22061">
        <ele>177</ele>
        <time>2021-02-25T12:19:35.000Z</time>
      </trkpt>
      <trkpt lat="43.9556" lon="2.22061">
        <ele>177</ele>
        <time>2021-02-25T12:19:36.000Z</time>
      </trkpt>
      <trkpt lat="43.95561" lon="2.22061">
        <ele>177</ele>
        <time>2021-02-25T12:19:37.000Z</time>
      </trkpt>
      <trkpt lat="43.95562" lon="2.22061">
        <ele>177</ele>
        <time>2021-02-25T12:19:38.000Z</time>
      </trkpt>
      <trkpt lat="43.95563" lon="2.22061">
        <ele>177</ele>
        <time>2021-02-25T12:19:39.000Z</time>
      </trkpt>
      <trkpt lat="43.95564" lon="2.22061">
        <ele>177</ele>
        <time>2021-02-25T12:19:40.000Z</time>
      </trkpt>
      <trkpt lat="43.95566" lon="2.22061">
        <ele>177</ele>
        <time>2021-02-25T12:19:41.000Z</time>
      </trkpt>
      <trkpt lat="43.95567" lon="2.22061">
        <ele>177</ele>
        <time>2021-02-25T12:19:42.000Z</time>
      </trkpt>
      <trkpt lat="43.95569" lon="2.2206">
        <ele>177</ele>
        <time>2021-02-25T12:19:43.000Z</time>
      </trkpt>
      <trkpt lat="43.9557" lon="2.2206">
        <ele>177</ele>
        <time>2021-02-25T12:19:44.000Z</time>
      </trkpt>
      <trkpt lat="43.95571" lon="2.2206">
        <ele>177</ele>
        <time>2021-02-25T12:19:45.000Z</time>
      </trkpt>
      <trkpt lat="43.95572" lon="2.22059">
        <ele>177</ele>
        <time>2021-02-25T12:19:46.000Z</time>
      </trkpt>
      <trkpt lat="43.95573" lon="2.22059">
        <ele>178</ele>
        <time>2021-02-25T12:19:47.000Z</time>
      </trkpt>
      <trkpt lat="43.95574" lon="2.22059">
        <ele>178</ele>
        <time>2021-02-25T12:19:48.000Z</time>
      </trkpt>
      <trkpt lat="43.95575" lon="2.22059">
        <ele>178</ele>
        <time>2021-02-25T12:19:49.000Z</time>
      </trkpt>
      <trkpt lat="43.95576" lon="2.22059">
        <ele>178</ele>
        <time>2021-02-25T12:19:50.000Z</time>
      </trkpt>
      <trkpt lat="43.95577" lon="2.22058">
        <ele>178</ele>
        <time>2021-02-25T12:19:51.000Z</time>
      </trkpt>
      <trkpt lat="43.95579" lon="2.22058">
        <ele>178</ele>
        <time>2021-02-25T12:19:52.000Z</time>
      </trkpt>
      <trkpt lat="43.9558" lon="2.22058">
        <ele>178</ele>
        <time>2021-02-25T12:19:53.000Z</time>
      </trkpt>
      <trkpt lat="43.95581" lon="2.22058">
        <ele>178</ele>
        <time>2021-02-25T12:19:54.000Z</time>
      </trkpt>
      <trkpt lat="43.95582" lon="2.22057">
        <ele>178</ele>
        <time>2021-02-25T12:19:55.000Z</time>
      </trkpt>
      <trkpt lat="43.95583" lon="2.22057">
        <ele>178</ele>
        <time>2021-02-25T12:19:56.000Z</time>
      </trkpt>
      <trkpt lat="43.95584" lon="2.22056">
        <ele>178</ele>
        <time>2021-02-25T12:19:57.000Z</time>
      </trkpt>
      <trkpt lat="43.95585" lon="2.22056">
        <ele>178</ele>
        <time>2021-02-25T12:19:58.000Z</time>
      </trkpt>
      <trkpt lat="43.95587" lon="2.22055">
        <ele>178</ele>
        <time>2021-02-25T12:19:59.000Z</time>
      </trkpt>
      <trkpt lat="43.95588" lon="2.22055">
        <ele>178</ele>
        <time>2021-02-25T12:20:00.000Z</time>
      </trkpt>
      <trkpt lat="43.95589" lon="2.22054">
        <ele>178</ele>
        <time>2021-02-25T12:20:01.000Z</time>
      </trkpt>
      <trkpt lat="43.9559" lon="2.22054">
        <ele>178</ele>
        <time>2021-02-25T12:20:02.000Z</time>
      </trkpt>
      <trkpt lat="43.95591" lon="2.22054">
        <ele>178</ele>
        <time>2021-02-25T12:20:03.000Z</time>
      </trkpt>
      <trkpt lat="43.95592" lon="2.22054">
        <ele>178</ele>
        <time>2021-02-25T12:20:04.000Z</time>
      </trkpt>
      <trkpt lat="43.95593" lon="2.22053">
        <ele>178</ele>
        <time>2021-02-25T12:20:05.000Z</time>
      </trkpt>
      <trkpt lat="43.95594" lon="2.22053">
        <ele>178</ele>
        <time>2021-02-25T12:20:06.000Z</time>
      </trkpt>
      <trkpt lat="43.95595" lon="2.22053">
        <ele>178</ele>
        <time>2021-02-25T12:20:07.000Z</time>
      </trkpt>
      <trkpt lat="43.95596" lon="2.22052">
        <ele>178</ele>
        <time>2021-02-25T12:20:08.000Z</time>
      </trkpt>
      <trkpt lat="43.95597" lon="2.22052">
        <ele>178</ele>
        <time>2021-02-25T12:20:09.000Z</time>
      </trkpt>
      <trkpt lat="43.95598" lon="2.22052">
        <ele>178</ele>
        <time>2021-02-25T12:20:10.000Z</time>
      </trkpt>
      <trkpt lat="43.95599" lon="2.22052">
        <ele>179</ele>
        <time>2021-02-25T12:20:11.000Z</time>
      </trkpt>
      <trkpt lat="43.956" lon="2.22052">
        <ele>179</ele>
        <time>2021-02-25T12:20:12.000Z</time>
      </trkpt>
      <trkpt lat="43.956" lon="2.22052">
        <ele>179</ele>
        <time>2021-02-25T12:20:13.000Z</time>
      </trkpt>
      <trkpt lat="43.95601" lon="2.22053">
        <ele>179</ele>
        <time>2021-02-25T12:20:14.000Z</time>
      </trkpt>
      <trkpt lat="43.95602" lon="2.22053">
        <ele>179</ele>
        <time>2021-02-25T12:20:15.000Z</time>
      </trkpt>
      <trkpt lat="43.95603" lon="2.22053">
        <ele>179</ele>
        <time>2021-02-25T12:20:16.000Z</time>
      </trkpt>
      <trkpt lat="43.95603" lon="2.22053">
        <ele>180</ele>
        <time>2021-02-25T12:20:17.000Z</time>
      </trkpt>
      <trkpt lat="43.95604" lon="2.22053">
        <ele>180</ele>
        <time>2021-02-25T12:20:18.000Z</time>
      </trkpt>
      <trkpt lat="43.95605" lon="2.22052">
        <ele>180</ele>
        <time>2021-02-25T12:20:19.000Z</time>
      </trkpt>
      <trkpt lat="43.95606" lon="2.22052">
        <ele>180</ele>
        <time>2021-02-25T12:20:20.000Z</time>
      </trkpt>
      <trkpt lat="43.95608" lon="2.22052">
        <ele>180</ele>
        <time>2021-02-25T12:20:21.000Z</time>
      </trkpt>
      <trkpt lat="43.95609" lon="2.22052">
        <ele>180</ele>
        <time>2021-02-25T12:20:22.000Z</time>
      </trkpt>
      <trkpt lat="43.9561" lon="2.22052">
        <ele>181</ele>
        <time>2021-02-25T12:20:23.000Z</time>
      </trkpt>
      <trkpt lat="43.95611" lon="2.22052">
        <ele>181</ele>
        <time>2021-02-25T12:20:24.000Z</time>
      </trkpt>
      <trkpt lat="43.95612" lon="2.22052">
        <ele>181</ele>
        <time>2021-02-25T12:20:25.000Z</time>
      </trkpt>
      <trkpt lat="43.95613" lon="2.22051">
        <ele>181</ele>
        <time>2021-02-25T12:20:26.000Z</time>
      </trkpt>
      <trkpt lat="43.95614" lon="2.2205">
        <ele>181</ele>
        <time>2021-02-25T12:20:27.000Z</time>
      </trkpt>
      <trkpt lat="43.95615" lon="2.22049">
        <ele>181</ele>
        <time>2021-02-25T12:20:28.000Z</time>
      </trkpt>
      <trkpt lat="43.95616" lon="2.22048">
        <ele>181</ele>
        <time>2021-02-25T12:20:29.000Z</time>
      </trkpt>
      <trkpt lat="43.95618" lon="2.22047">
        <ele>181</ele>
        <time>2021-02-25T12:20:30.000Z</time>
      </trkpt>
      <trkpt lat="43.95619" lon="2.22046">
        <ele>181</ele>
        <time>2021-02-25T12:20:31.000Z</time>
      </trkpt>
      <trkpt lat="43.9562" lon="2.22046">
        <ele>181</ele>
        <time>2021-02-25T12:20:32.000Z</time>
      </trkpt>
      <trkpt lat="43.95622" lon="2.22045">
        <ele>181</ele>
        <time>2021-02-25T12:20:33.000Z</time>
      </trkpt>
      <trkpt lat="43.95623" lon="2.22044">
        <ele>181</ele>
        <time>2021-02-25T12:20:34.000Z</time>
      </trkpt>
      <trkpt lat="43.95625" lon="2.22042">
        <ele>181</ele>
        <time>2021-02-25T12:20:35.000Z</time>
      </trkpt>
      <trkpt lat="43.95626" lon="2.22042">
        <ele>181</ele>
        <time>2021-02-25T12:20:36.000Z</time>
      </trkpt>
      <trkpt lat="43.95628" lon="2.22041">
        <ele>181</ele>
        <time>2021-02-25T12:20:37.000Z</time>
      </trkpt>
      <trkpt lat="43.95629" lon="2.2204">
        <ele>180</ele>
        <time>2021-02-25T12:20:38.000Z</time>
      </trkpt>
      <trkpt lat="43.9563" lon="2.22039">
        <ele>180</ele>
        <time>2021-02-25T12:20:39.000Z</time>
      </trkpt>
      <trkpt lat="43.95632" lon="2.22038">
        <ele>181</ele>
        <time>2021-02-25T12:20:40.000Z</time>
      </trkpt>
      <trkpt lat="43.95633" lon="2.22037">
        <ele>181</ele>
        <time>2021-02-25T12:20:41.000Z</time>
      </trkpt>
      <trkpt lat="43.95634" lon="2.22036">
        <ele>181</ele>
        <time>2021-02-25T12:20:42.000Z</time>
      </trkpt>
      <trkpt lat="43.95635" lon="2.22035">
        <ele>181</ele>
        <time>2021-02-25T12:20:43.000Z</time>
      </trkpt>
      <trkpt lat="43.95637" lon="2.22035">
        <ele>181</ele>
        <time>2021-02-25T12:20:44.000Z</time>
      </trkpt>
      <trkpt lat="43.95638" lon="2.22034">
        <ele>181</ele>
        <time>2021-02-25T12:20:45.000Z</time>
      </trkpt>
      <trkpt lat="43.95639" lon="2.22033">
        <ele>181</ele>
        <time>2021-02-25T12:20:46.000Z</time>
      </trkpt>
      <trkpt lat="43.9564" lon="2.22033">
        <ele>181</ele>
        <time>2021-02-25T12:20:47.000Z</time>
      </trkpt>
      <trkpt lat="43.95641" lon="2.22032">
        <ele>181</ele>
        <time>2021-02-25T12:20:48.000Z</time>
      </trkpt>
      <trkpt lat="43.95642" lon="2.22031">
        <ele>181</ele>
        <time>2021-02-25T12:20:49.000Z</time>
      </trkpt>
      <trkpt lat="43.95643" lon="2.2203">
        <ele>181</ele>
        <time>2021-02-25T12:20:50.000Z</time>
      </trkpt>
      <trkpt lat="43.95645" lon="2.22029">
        <ele>181</ele>
        <time>2021-02-25T12:20:51.000Z</time>
      </trkpt>
      <trkpt lat="43.95645" lon="2.22029">
        <ele>181</ele>
        <time>2021-02-25T12:20:52.000Z</time>
      </trkpt>
      <trkpt lat="43.95646" lon="2.22028">
        <ele>181</ele>
        <time>2021-02-25T12:20:53.000Z</time>
      </trkpt>
      <trkpt lat="43.95647" lon="2.22028">
        <ele>181</ele>
        <time>2021-02-25T12:20:54.000Z</time>
      </trkpt>
      <trkpt lat="43.95648" lon="2.22028">
        <ele>181</ele>
        <time>2021-02-25T12:20:55.000Z</time>
      </trkpt>
      <trkpt lat="43.95649" lon="2.22027">
        <ele>181</ele>
        <time>2021-02-25T12:20:56.000Z</time>
      </trkpt>
      <trkpt lat="43.95649" lon="2.22027">
        <ele>182</ele>
        <time>2021-02-25T12:20:57.000Z</time>
      </trkpt>
      <trkpt lat="43.9565" lon="2.22027">
        <ele>182</ele>
        <time>2021-02-25T12:20:58.000Z</time>
      </trkpt>
      <trkpt lat="43.95651" lon="2.22027">
        <ele>182</ele>
        <time>2021-02-25T12:20:59.000Z</time>
      </trkpt>
      <trkpt lat="43.95652" lon="2.22027">
        <ele>182</ele>
        <time>2021-02-25T12:21:00.000Z</time>
      </trkpt>
      <trkpt lat="43.95653" lon="2.22027">
        <ele>182</ele>
        <time>2021-02-25T12:21:01.000Z</time>
      </trkpt>
      <trkpt lat="43.95654" lon="2.22028">
        <ele>183</ele>
        <time>2021-02-25T12:21:02.000Z</time>
      </trkpt>
      <trkpt lat="43.95655" lon="2.22028">
        <ele>183</ele>
        <time>2021-02-25T12:21:03.000Z</time>
      </trkpt>
      <trkpt lat="43.95656" lon="2.22029">
        <ele>183</ele>
        <time>2021-02-25T12:21:04.000Z</time>
      </trkpt>
      <trkpt lat="43.95657" lon="2.2203">
        <ele>183</ele>
        <time>2021-02-25T12:21:05.000Z</time>
      </trkpt>
      <trkpt lat="43.95658" lon="2.22031">
        <ele>182</ele>
        <time>2021-02-25T12:21:06.000Z</time>
      </trkpt>
      <trkpt lat="43.95659" lon="2.22032">
        <ele>182</ele>
        <time>2021-02-25T12:21:07.000Z</time>
      </trkpt>
      <trkpt lat="43.9566" lon="2.22033">
        <ele>182</ele>
        <time>2021-02-25T12:21:08.000Z</time>
      </trkpt>
      <trkpt lat="43.95662" lon="2.22034">
        <ele>182</ele>
        <time>2021-02-25T12:21:09.000Z</time>
      </trkpt>
      <trkpt lat="43.95663" lon="2.22035">
        <ele>182</ele>
        <time>2021-02-25T12:21:10.000Z</time>
      </trkpt>
      <trkpt lat="43.95664" lon="2.22036">
        <ele>182</ele>
        <time>2021-02-25T12:21:11.000Z</time>
      </trkpt>
      <trkpt lat="43.95665" lon="2.22037">
        <ele>182</ele>
        <time>2021-02-25T12:21:12.000Z</time>
      </trkpt>
      <trkpt lat="43.95666" lon="2.22038">
        <ele>181</ele>
        <time>2021-02-25T12:21:13.000Z</time>
      </trkpt>
      <trkpt lat="43.95667" lon="2.2204">
        <ele>181</ele>
        <time>2021-02-25T12:21:14.000Z</time>
      </trkpt>
      <trkpt lat="43.95668" lon="2.22041">
        <ele>181</ele>
        <time>2021-02-25T12:21:15.000Z</time>
      </trkpt>
      <trkpt lat="43.95669" lon="2.22042">
        <ele>181</ele>
        <time>2021-02-25T12:21:16.000Z</time>
      </trkpt>
      <trkpt lat="43.9567" lon="2.22043">
        <ele>181</ele>
        <time>2021-02-25T12:21:17.000Z</time>
      </trkpt>
      <trkpt lat="43.95671" lon="2.22044">
        <ele>181</ele>
        <time>2021-02-25T12:21:18.000Z</time>
      </trkpt>
      <trkpt lat="43.95672" lon="2.22045">
        <ele>180</ele>
        <time>2021-02-25T12:21:19.000Z</time>
      </trkpt>
      <trkpt lat="43.95673" lon="2.22047">
        <ele>180</ele>
        <time>2021-02-25T12:21:20.000Z</time>
      </trkpt>
      <trkpt lat="43.95674" lon="2.22048">
        <ele>180</ele>
        <time>2021-02-25T12:21:21.000Z</time>
      </trkpt>
      <trkpt lat="43.95675" lon="2.22049">
        <ele>180</ele>
        <time>2021-02-25T12:21:22.000Z</time>
      </trkpt>
      <trkpt lat="43.95676" lon="2.22051">
        <ele>180</ele>
        <time>2021-02-25T12:21:23.000Z</time>
      </trkpt>
      <trkpt lat="43.95677" lon="2.22052">
        <ele>180</ele>
        <time>2021-02-25T12:21:24.000Z</time>
      </trkpt>
      <trkpt lat="43.95678" lon="2.22053">
        <ele>179</ele>
        <time>2021-02-25T12:21:25.000Z</time>
      </trkpt>
      <trkpt lat="43.9568" lon="2.22054">
        <ele>179</ele>
        <time>2021-02-25T12:21:26.000Z</time>
      </trkpt>
      <trkpt lat="43.95681" lon="2.22055">
        <ele>179</ele>
        <time>2021-02-25T12:21:27.000Z</time>
      </trkpt>
      <trkpt lat="43.95682" lon="2.22056">
        <ele>179</ele>
        <time>2021-02-25T12:21:28.000Z</time>
      </trkpt>
      <trkpt lat="43.95684" lon="2.22057">
        <ele>179</ele>
        <time>2021-02-25T12:21:29.000Z</time>
      </trkpt>
      <trkpt lat="43.95685" lon="2.22058">
        <ele>179</ele>
        <time>2021-02-25T12:21:30.000Z</time>
      </trkpt>
      <trkpt lat="43.95686" lon="2.22059">
        <ele>179</ele>
        <time>2021-02-25T12:21:31.000Z</time>
      </trkpt>
      <trkpt lat="43.95687" lon="2.2206">
        <ele>179</ele>
        <time>2021-02-25T12:21:32.000Z</time>
      </trkpt>
      <trkpt lat="43.95688" lon="2.22061">
        <ele>179</ele>
        <time>2021-02-25T12:21:33.000Z</time>
      </trkpt>
      <trkpt lat="43.95689" lon="2.22063">
        <ele>179</ele>
        <time>2021-02-25T12:21:34.000Z</time>
      </trkpt>
      <trkpt lat="43.9569" lon="2.22064">
        <ele>179</ele>
        <time>2021-02-25T12:21:35.000Z</time>
      </trkpt>
      <trkpt lat="43.95691" lon="2.22066">
        <ele>179</ele>
        <time>2021-02-25T12:21:36.000Z</time>
      </trkpt>
      <trkpt lat="43.95692" lon="2.22067">
        <ele>179</ele>
        <time>2021-02-25T12:21:37.000Z</time>
      </trkpt>
      <trkpt lat="43.95693" lon="2.22069">
        <ele>179</ele>
        <time>2021-02-25T12:21:38.000Z</time>
      </trkpt>
      <trkpt lat="43.95694" lon="2.2207">
        <ele>179</ele>
        <time>2021-02-25T12:21:39.000Z</time>
      </trkpt>
      <trkpt lat="43.95694" lon="2.22071">
        <ele>179</ele>
        <time>2021-02-25T12:21:40.000Z</time>
      </trkpt>
      <trkpt lat="43.95695" lon="2.22073">
        <ele>179</ele>
        <time>2021-02-25T12:21:41.000Z</time>
      </trkpt>
      <trkpt lat="43.95696" lon="2.22074">
        <ele>179</ele>
        <time>2021-02-25T12:21:42.000Z</time>
      </trkpt>
      <trkpt lat="43.95697" lon="2.22075">
        <ele>179</ele>
        <time>2021-02-25T12:21:43.000Z</time>
      </trkpt>
      <trkpt lat="43.95698" lon="2.22077">
        <ele>179</ele>
        <time>2021-02-25T12:21:44.000Z</time>
      </trkpt>
      <trkpt lat="43.95699" lon="2.22078">
        <ele>179</ele>
        <time>2021-02-25T12:21:45.000Z</time>
      </trkpt>
      <trkpt lat="43.957" lon="2.22079">
        <ele>179</ele>
        <time>2021-02-25T12:21:46.000Z</time>
      </trkpt>
      <trkpt lat="43.95701" lon="2.22081">
        <ele>179</ele>
        <time>2021-02-25T12:21:47.000Z</time>
      </trkpt>
      <trkpt lat="43.95702" lon="2.22082">
        <ele>179</ele>
        <time>2021-02-25T12:21:48.000Z</time>
      </trkpt>
      <trkpt lat="43.95702" lon="2.22083">
        <ele>179</ele>
        <time>2021-02-25T12:21:49.000Z</time>
      </trkpt>
      <trkpt lat="43.95703" lon="2.22085">
        <ele>179</ele>
        <time>2021-02-25T12:21:50.000Z</time>
      </trkpt>
      <trkpt lat="43.95704" lon="2.22086">
        <ele>179</ele>
        <time>2021-02-25T12:21:51.000Z</time>
      </trkpt>
      <trkpt lat="43.95705" lon="2.22087">
        <ele>179</ele>
        <time>2021-02-25T12:21:52.000Z</time>
      </trkpt>
      <trkpt lat="43.95706" lon="2.22088">
        <ele>179</ele>
        <time>2021-02-25T12:21:53.000Z</time>
      </trkpt>
      <trkpt lat="43.95707" lon="2.22089">
        <ele>179</ele>
        <time>2021-02-25T12:21:54.000Z</time>
      </trkpt>
      <trkpt lat="43.95708" lon="2.22091">
        <ele>180</ele>
        <time>2021-02-25T12:21:55.000Z</time>
      </trkpt>
      <trkpt lat="43.95709" lon="2.22092">
        <ele>180</ele>
        <time>2021-02-25T12:21:56.000Z</time>
      </trkpt>
      <trkpt lat="43.9571" lon="2.22093">
        <ele>180</ele>
        <time>2021-02-25T12:21:57.000Z</time>
      </trkpt>
      <trkpt lat="43.95711" lon="2.22095">
        <ele>180</ele>
        <time>2021-02-25T12:21:58.000Z</time>
      </trkpt>
      <trkpt lat="43.95711" lon="2.22096">
        <ele>180</ele>
        <time>2021-02-25T12:21:59.000Z</time>
      </trkpt>
      <trkpt lat="43.95712" lon="2.22097">
        <ele>180</ele>
        <time>2021-02-25T12:22:00.000Z</time>
      </trkpt>
      <trkpt lat="43.95713" lon="2.22099">
        <ele>180</ele>
        <time>2021-02-25T12:22:01.000Z</time>
      </trkpt>
      <trkpt lat="43.95714" lon="2.221">
        <ele>180</ele>
        <time>2021-02-25T12:22:02.000Z</time>
      </trkpt>
      <trkpt lat="43.95715" lon="2.22101">
        <ele>180</ele>
        <time>2021-02-25T12:22:03.000Z</time>
      </trkpt>
      <trkpt lat="43.95715" lon="2.22103">
        <ele>180</ele>
        <time>2021-02-25T12:22:04.000Z</time>
      </trkpt>
      <trkpt lat="43.95716" lon="2.22104">
        <ele>180</ele>
        <time>2021-02-25T12:22:05.000Z</time>
      </trkpt>
      <trkpt lat="43.95717" lon="2.22105">
        <ele>180</ele>
        <time>2021-02-25T12:22:06.000Z</time>
      </trkpt>
      <trkpt lat="43.95718" lon="2.22106">
        <ele>179</ele>
        <time>2021-02-25T12:22:07.000Z</time>
      </trkpt>
      <trkpt lat="43.95719" lon="2.22107">
        <ele>179</ele>
        <time>2021-02-25T12:22:08.000Z</time>
      </trkpt>
      <trkpt lat="43.9572" lon="2.22108">
        <ele>179</ele>
        <time>2021-02-25T12:22:09.000Z</time>
      </trkpt>
      <trkpt lat="43.95721" lon="2.2211">
        <ele>179</ele>
        <time>2021-02-25T12:22:10.000Z</time>
      </trkpt>
      <trkpt lat="43.95721" lon="2.22111">
        <ele>179</ele>
        <time>2021-02-25T12:22:11.000Z</time>
      </trkpt>
      <trkpt lat="43.95722" lon="2.22112">
        <ele>179</ele>
        <time>2021-02-25T12:22:12.000Z</time>
      </trkpt>
      <trkpt lat="43.95722" lon="2.22114">
        <ele>179</ele>
        <time>2021-02-25T12:22:13.000Z</time>
      </trkpt>
      <trkpt lat="43.95723" lon="2.22115">
        <ele>179</ele>
        <time>2021-02-25T12:22:14.000Z</time>
      </trkpt>
      <trkpt lat="43.95723" lon="2.22116">
        <ele>179</ele>
        <time>2021-02-25T12:22:15.000Z</time>
      </trkpt>
      <trkpt lat="43.95724" lon="2.22118">
        <ele>179</ele>
        <time>2021-02-25T12:22:16.000Z</time>
      </trkpt>
      <trkpt lat="43.95724" lon="2.22119">
        <ele>179</ele>
        <time>2021-02-25T12:22:17.000Z</time>
      </trkpt>
      <trkpt lat="43.95724" lon="2.2212">
        <ele>179</ele>
        <time>2021-02-25T12:22:18.000Z</time>
      </trkpt>
      <trkpt lat="43.95725" lon="2.22122">
        <ele>179</ele>
        <time>2021-02-25T12:22:19.000Z</time>
      </trkpt>
      <trkpt lat="43.95725" lon="2.22123">
        <ele>179</ele>
        <time>2021-02-25T12:22:20.000Z</time>
      </trkpt>
      <trkpt lat="43.95726" lon="2.22124">
        <ele>179</ele>
        <time>2021-02-25T12:22:21.000Z</time>
      </trkpt>
      <trkpt lat="43.95726" lon="2.22126">
        <ele>179</ele>
        <time>2021-02-25T12:22:22.000Z</time>
      </trkpt>
      <trkpt lat="43.95726" lon="2.22128">
        <ele>179</ele>
        <time>2021-02-25T12:22:23.000Z</time>
      </trkpt>
      <trkpt lat="43.95727" lon="2.22129">
        <ele>179</ele>
        <time>2021-02-25T12:22:24.000Z</time>
      </trkpt>
      <trkpt lat="43.95727" lon="2.22131">
        <ele>179</ele>
        <time>2021-02-25T12:22:25.000Z</time>
      </trkpt>
      <trkpt lat="43.95728" lon="2.22132">
        <ele>179</ele>
        <time>2021-02-25T12:22:26.000Z</time>
      </trkpt>
      <trkpt lat="43.95728" lon="2.22134">
        <ele>179</ele>
        <time>2021-02-25T12:22:27.000Z</time>
      </trkpt>
      <trkpt lat="43.95728" lon="2.22135">
        <ele>179</ele>
        <time>2021-02-25T12:22:28.000Z</time>
      </trkpt>
      <trkpt lat="43.95729" lon="2.22137">
        <ele>179</ele>
        <time>2021-02-25T12:22:29.000Z</time>
      </trkpt>
      <trkpt lat="43.95729" lon="2.22138">
        <ele>179</ele>
        <time>2021-02-25T12:22:30.000Z</time>
      </trkpt>
      <trkpt lat="43.9573" lon="2.2214">
        <ele>179</ele>
        <time>2021-02-25T12:22:31.000Z</time>
      </trkpt>
      <trkpt lat="43.9573" lon="2.22141">
        <ele>179</ele>
        <time>2021-02-25T12:22:32.000Z</time>
      </trkpt>
      <trkpt lat="43.95731" lon="2.22142">
        <ele>179</ele>
        <time>2021-02-25T12:22:33.000Z</time>
      </trkpt>
      <trkpt lat="43.95732" lon="2.22144">
        <ele>179</ele>
        <time>2021-02-25T12:22:34.000Z</time>
      </trkpt>
      <trkpt lat="43.95732" lon="2.22145">
        <ele>179</ele>
        <time>2021-02-25T12:22:35.000Z</time>
      </trkpt>
      <trkpt lat="43.95733" lon="2.22147">
        <ele>179</ele>
        <time>2021-02-25T12:22:36.000Z</time>
      </trkpt>
      <trkpt lat="43.95734" lon="2.22148">
        <ele>179</ele>
        <time>2021-02-25T12:22:37.000Z</time>
      </trkpt>
      <trkpt lat="43.95734" lon="2.2215">
        <ele>179</ele>
        <time>2021-02-25T12:22:38.000Z</time>
      </trkpt>
      <trkpt lat="43.95735" lon="2.22151">
        <ele>179</ele>
        <time>2021-02-25T12:22:39.000Z</time>
      </trkpt>
      <trkpt lat="43.95736" lon="2.22152">
        <ele>179</ele>
        <time>2021-02-25T12:22:40.000Z</time>
      </trkpt>
      <trkpt lat="43.95737" lon="2.22153">
        <ele>179</ele>
        <time>2021-02-25T12:22:41.000Z</time>
      </trkpt>
      <trkpt lat="43.95738" lon="2.22155">
        <ele>179</ele>
        <time>2021-02-25T12:22:42.000Z</time>
      </trkpt>
      <trkpt lat="43.95738" lon="2.22155">
        <ele>179</ele>
        <time>2021-02-25T12:22:43.000Z</time>
      </trkpt>
      <trkpt lat="43.95739" lon="2.22156">
        <ele>179</ele>
        <time>2021-02-25T12:22:44.000Z</time>
      </trkpt>
      <trkpt lat="43.9574" lon="2.22158">
        <ele>179</ele>
        <time>2021-02-25T12:22:45.000Z</time>
      </trkpt>
      <trkpt lat="43.9574" lon="2.22159">
        <ele>180</ele>
        <time>2021-02-25T12:22:46.000Z</time>
      </trkpt>
      <trkpt lat="43.95741" lon="2.2216">
        <ele>180</ele>
        <time>2021-02-25T12:22:47.000Z</time>
      </trkpt>
      <trkpt lat="43.95742" lon="2.22161">
        <ele>180</ele>
        <time>2021-02-25T12:22:48.000Z</time>
      </trkpt>
      <trkpt lat="43.95743" lon="2.22161">
        <ele>180</ele>
        <time>2021-02-25T12:22:49.000Z</time>
      </trkpt>
      <trkpt lat="43.95743" lon="2.22162">
        <ele>180</ele>
        <time>2021-02-25T12:22:50.000Z</time>
      </trkpt>
      <trkpt lat="43.95744" lon="2.22163">
        <ele>181</ele>
        <time>2021-02-25T12:22:51.000Z</time>
      </trkpt>
      <trkpt lat="43.95745" lon="2.22164">
        <ele>181</ele>
        <time>2021-02-25T12:22:52.000Z</time>
      </trkpt>
      <trkpt lat="43.95747" lon="2.22164">
        <ele>181</ele>
        <time>2021-02-25T12:22:53.000Z</time>
      </trkpt>
      <trkpt lat="43.95748" lon="2.22165">
        <ele>181</ele>
        <time>2021-02-25T12:22:54.000Z</time>
      </trkpt>
      <trkpt lat="43.95749" lon="2.22166">
        <ele>181</ele>
        <time>2021-02-25T12:22:55.000Z</time>
      </trkpt>
      <trkpt lat="43.9575" lon="2.22167">
        <ele>181</ele>
        <time>2021-02-25T12:22:56.000Z</time>
      </trkpt>
      <trkpt lat="43.9575" lon="2.22168">
        <ele>181</ele>
        <time>2021-02-25T12:22:57.000Z</time>
      </trkpt>
      <trkpt lat="43.95751" lon="2.22169">
        <ele>181</ele>
        <time>2021-02-25T12:22:58.000Z</time>
      </trkpt>
      <trkpt lat="43.95752" lon="2.2217">
        <ele>181</ele>
        <time>2021-02-25T12:22:59.000Z</time>
      </trkpt>
      <trkpt lat="43.95753" lon="2.22171">
        <ele>182</ele>
        <time>2021-02-25T12:23:00.000Z</time>
      </trkpt>
      <trkpt lat="43.95753" lon="2.22171">
        <ele>182</ele>
        <time>2021-02-25T12:23:01.000Z</time>
      </trkpt>
      <trkpt lat="43.95754" lon="2.22173">
        <ele>182</ele>
        <time>2021-02-25T12:23:02.000Z</time>
      </trkpt>
      <trkpt lat="43.95755" lon="2.22174">
        <ele>182</ele>
        <time>2021-02-25T12:23:03.000Z</time>
      </trkpt>
      <trkpt lat="43.95755" lon="2.22175">
        <ele>182</ele>
        <time>2021-02-25T12:23:04.000Z</time>
      </trkpt>
      <trkpt lat="43.95756" lon="2.22176">
        <ele>182</ele>
        <time>2021-02-25T12:23:05.000Z</time>
      </trkpt>
      <trkpt lat="43.95756" lon="2.22178">
        <ele>182</ele>
        <time>2021-02-25T12:23:06.000Z</time>
      </trkpt>
      <trkpt lat="43.95756" lon="2.22179">
        <ele>182</ele>
        <time>2021-02-25T12:23:07.000Z</time>
      </trkpt>
      <trkpt lat="43.95757" lon="2.2218">
        <ele>182</ele>
        <time>2021-02-25T12:23:08.000Z</time>
      </trkpt>
      <trkpt lat="43.95757" lon="2.22182">
        <ele>182</ele>
        <time>2021-02-25T12:23:09.000Z</time>
      </trkpt>
      <trkpt lat="43.95757" lon="2.22183">
        <ele>182</ele>
        <time>2021-02-25T12:23:10.000Z</time>
      </trkpt>
      <trkpt lat="43.95757" lon="2.22185">
        <ele>182</ele>
        <time>2021-02-25T12:23:11.000Z</time>
      </trkpt>
      <trkpt lat="43.95757" lon="2.22186">
        <ele>182</ele>
        <time>2021-02-25T12:23:12.000Z</time>
      </trkpt>
      <trkpt lat="43.95758" lon="2.22188">
        <ele>182</ele>
        <time>2021-02-25T12:23:13.000Z</time>
      </trkpt>
      <trkpt lat="43.95758" lon="2.22189">
        <ele>182</ele>
        <time>2021-02-25T12:23:14.000Z</time>
      </trkpt>
      <trkpt lat="43.95759" lon="2.2219">
        <ele>182</ele>
        <time>2021-02-25T12:23:15.000Z</time>
      </trkpt>
      <trkpt lat="43.95759" lon="2.22192">
        <ele>182</ele>
        <time>2021-02-25T12:23:16.000Z</time>
      </trkpt>
      <trkpt lat="43.9576" lon="2.22194">
        <ele>182</ele>
        <time>2021-02-25T12:23:17.000Z</time>
      </trkpt>
      <trkpt lat="43.95761" lon="2.22196">
        <ele>182</ele>
        <time>2021-02-25T12:23:18.000Z</time>
      </trkpt>
      <trkpt lat="43.95762" lon="2.22197">
        <ele>182</ele>
        <time>2021-02-25T12:23:19.000Z</time>
      </trkpt>
      <trkpt lat="43.95762" lon="2.22199">
        <ele>183</ele>
        <time>2021-02-25T12:23:20.000Z</time>
      </trkpt>
      <trkpt lat="43.95763" lon="2.222">
        <ele>183</ele>
        <time>2021-02-25T12:23:21.000Z</time>
      </trkpt>
      <trkpt lat="43.95764" lon="2.22201">
        <ele>183</ele>
        <time>2021-02-25T12:23:22.000Z</time>
      </trkpt>
      <trkpt lat="43.95765" lon="2.22202">
        <ele>183</ele>
        <time>2021-02-25T12:23:23.000Z</time>
      </trkpt>
      <trkpt lat="43.95766" lon="2.22204">
        <ele>183</ele>
        <time>2021-02-25T12:23:24.000Z</time>
      </trkpt>
      <trkpt lat="43.95767" lon="2.22205">
        <ele>183</ele>
        <time>2021-02-25T12:23:25.000Z</time>
      </trkpt>
      <trkpt lat="43.95768" lon="2.22206">
        <ele>183</ele>
        <time>2021-02-25T12:23:26.000Z</time>
      </trkpt>
      <trkpt lat="43.95769" lon="2.22207">
        <ele>183</ele>
        <time>2021-02-25T12:23:27.000Z</time>
      </trkpt>
      <trkpt lat="43.9577" lon="2.22208">
        <ele>183</ele>
        <time>2021-02-25T12:23:28.000Z</time>
      </trkpt>
      <trkpt lat="43.95771" lon="2.22209">
        <ele>183</ele>
        <time>2021-02-25T12:23:29.000Z</time>
      </trkpt>
      <trkpt lat="43.95772" lon="2.22211">
        <ele>183</ele>
        <time>2021-02-25T12:23:30.000Z</time>
      </trkpt>
      <trkpt lat="43.95773" lon="2.22212">
        <ele>183</ele>
        <time>2021-02-25T12:23:31.000Z</time>
      </trkpt>
      <trkpt lat="43.95774" lon="2.22213">
        <ele>183</ele>
        <time>2021-02-25T12:23:32.000Z</time>
      </trkpt>
      <trkpt lat="43.95775" lon="2.22215">
        <ele>183</ele>
        <time>2021-02-25T12:23:33.000Z</time>
      </trkpt>
      <trkpt lat="43.95776" lon="2.22216">
        <ele>183</ele>
        <time>2021-02-25T12:23:34.000Z</time>
      </trkpt>
      <trkpt lat="43.95777" lon="2.22217">
        <ele>182</ele>
        <time>2021-02-25T12:23:35.000Z</time>
      </trkpt>
      <trkpt lat="43.95778" lon="2.22219">
        <ele>182</ele>
        <time>2021-02-25T12:23:36.000Z</time>
      </trkpt>
      <trkpt lat="43.95778" lon="2.2222">
        <ele>182</ele>
        <time>2021-02-25T12:23:37.000Z</time>
      </trkpt>
      <trkpt lat="43.95779" lon="2.22221">
        <ele>182</ele>
        <time>2021-02-25T12:23:38.000Z</time>
      </trkpt>
      <trkpt lat="43.9578" lon="2.22222">
        <ele>182</ele>
        <time>2021-02-25T12:23:39.000Z</time>
      </trkpt>
      <trkpt lat="43.95781" lon="2.22223">
        <ele>182</ele>
        <time>2021-02-25T12:23:40.000Z</time>
      </trkpt>
      <trkpt lat="43.95782" lon="2.22224">
        <ele>182</ele>
        <time>2021-02-25T12:23:41.000Z</time>
      </trkpt>
      <trkpt lat="43.95782" lon="2.22225">
        <ele>182</ele>
        <time>2021-02-25T12:23:42.000Z</time>
      </trkpt>
      <trkpt lat="43.95783" lon="2.22226">
        <ele>183</ele>
        <time>2021-02-25T12:23:43.000Z</time>
      </trkpt>
      <trkpt lat="43.95784" lon="2.22227">
        <ele>183</ele>
        <time>2021-02-25T12:23:44.000Z</time>
      </trkpt>
      <trkpt lat="43.95785" lon="2.22228">
        <ele>183</ele>
        <time>2021-02-25T12:23:45.000Z</time>
      </trkpt>
      <trkpt lat="43.95785" lon="2.22229">
        <ele>183</ele>
        <time>2021-02-25T12:23:46.000Z</time>
      </trkpt>
      <trkpt lat="43.95786" lon="2.22229">
        <ele>183</ele>
        <time>2021-02-25T12:23:47.000Z</time>
      </trkpt>
      <trkpt lat="43.95787" lon="2.2223">
        <ele>183</ele>
        <time>2021-02-25T12:23:48.000Z</time>
      </trkpt>
      <trkpt lat="43.95787" lon="2.22231">
        <ele>183</ele>
        <time>2021-02-25T12:23:49.000Z</time>
      </trkpt>
      <trkpt lat="43.95788" lon="2.22232">
        <ele>184</ele>
        <time>2021-02-25T12:23:50.000Z</time>
      </trkpt>
      <trkpt lat="43.95789" lon="2.22232">
        <ele>184</ele>
        <time>2021-02-25T12:23:51.000Z</time>
      </trkpt>
      <trkpt lat="43.9579" lon="2.22233">
        <ele>184</ele>
        <time>2021-02-25T12:23:52.000Z</time>
      </trkpt>
      <trkpt lat="43.95791" lon="2.22233">
        <ele>184</ele>
        <time>2021-02-25T12:23:53.000Z</time>
      </trkpt>
      <trkpt lat="43.95791" lon="2.22233">
        <ele>184</ele>
        <time>2021-02-25T12:23:54.000Z</time>
      </trkpt>
      <trkpt lat="43.95791" lon="2.22233">
        <ele>185</ele>
        <time>2021-02-25T12:23:55.000Z</time>
      </trkpt>
      <trkpt lat="43.95791" lon="2.22233">
        <ele>185</ele>
        <time>2021-02-25T12:23:56.000Z</time>
      </trkpt>
      <trkpt lat="43.95792" lon="2.22233">
        <ele>185</ele>
        <time>2021-02-25T12:23:57.000Z</time>
      </trkpt>
      <trkpt lat="43.95794" lon="2.22233">
        <ele>185</ele>
        <time>2021-02-25T12:23:58.000Z</time>
      </trkpt>
      <trkpt lat="43.95794" lon="2.22233">
        <ele>185</ele>
        <time>2021-02-25T12:23:59.000Z</time>
      </trkpt>
      <trkpt lat="43.95795" lon="2.22234">
        <ele>185</ele>
        <time>2021-02-25T12:24:00.000Z</time>
      </trkpt>
      <trkpt lat="43.95796" lon="2.22234">
        <ele>186</ele>
        <time>2021-02-25T12:24:01.000Z</time>
      </trkpt>
      <trkpt lat="43.95797" lon="2.22234">
        <ele>186</ele>
        <time>2021-02-25T12:24:02.000Z</time>
      </trkpt>
      <trkpt lat="43.95798" lon="2.22234">
        <ele>186</ele>
        <time>2021-02-25T12:24:03.000Z</time>
      </trkpt>
      <trkpt lat="43.95799" lon="2.22234">
        <ele>187</ele>
        <time>2021-02-25T12:24:04.000Z</time>
      </trkpt>
      <trkpt lat="43.958" lon="2.22234">
        <ele>187</ele>
        <time>2021-02-25T12:24:05.000Z</time>
      </trkpt>
      <trkpt lat="43.95801" lon="2.22234">
        <ele>187</ele>
        <time>2021-02-25T12:24:06.000Z</time>
      </trkpt>
      <trkpt lat="43.95803" lon="2.22234">
        <ele>188</ele>
        <time>2021-02-25T12:24:07.000Z</time>
      </trkpt>
      <trkpt lat="43.95804" lon="2.22234">
        <ele>188</ele>
        <time>2021-02-25T12:24:08.000Z</time>
      </trkpt>
      <trkpt lat="43.95805" lon="2.22233">
        <ele>188</ele>
        <time>2021-02-25T12:24:09.000Z</time>
      </trkpt>
      <trkpt lat="43.95806" lon="2.22233">
        <ele>189</ele>
        <time>2021-02-25T12:24:10.000Z</time>
      </trkpt>
      <trkpt lat="43.95807" lon="2.22233">
        <ele>189</ele>
        <time>2021-02-25T12:24:11.000Z</time>
      </trkpt>
      <trkpt lat="43.95808" lon="2.22233">
        <ele>189</ele>
        <time>2021-02-25T12:24:12.000Z</time>
      </trkpt>
      <trkpt lat="43.9581" lon="2.22233">
        <ele>190</ele>
        <time>2021-02-25T12:24:13.000Z</time>
      </trkpt>
      <trkpt lat="43.95811" lon="2.22233">
        <ele>190</ele>
        <time>2021-02-25T12:24:14.000Z</time>
      </trkpt>
      <trkpt lat="43.95812" lon="2.22233">
        <ele>190</ele>
        <time>2021-02-25T12:24:15.000Z</time>
      </trkpt>
      <trkpt lat="43.95813" lon="2.22233">
        <ele>190</ele>
        <time>2021-02-25T12:24:16.000Z</time>
      </trkpt>
      <trkpt lat="43.95814" lon="2.22233">
        <ele>191</ele>
        <time>2021-02-25T12:24:17.000Z</time>
      </trkpt>
      <trkpt lat="43.95816" lon="2.22233">
        <ele>191</ele>
        <time>2021-02-25T12:24:18.000Z</time>
      </trkpt>
      <trkpt lat="43.95817" lon="2.22233">
        <ele>191</ele>
        <time>2021-02-25T12:24:19.000Z</time>
      </trkpt>
      <trkpt lat="43.95818" lon="2.22233">
        <ele>191</ele>
        <time>2021-02-25T12:24:20.000Z</time>
      </trkpt>
      <trkpt lat="43.95819" lon="2.22233">
        <ele>192</ele>
        <time>2021-02-25T12:24:21.000Z</time>
      </trkpt>
      <trkpt lat="43.9582" lon="2.22233">
        <ele>192</ele>
        <time>2021-02-25T12:24:22.000Z</time>
      </trkpt>
      <trkpt lat="43.95821" lon="2.22233">
        <ele>192</ele>
        <time>2021-02-25T12:24:23.000Z</time>
      </trkpt>
      <trkpt lat="43.95822" lon="2.22233">
        <ele>192</ele>
        <time>2021-02-25T12:24:24.000Z</time>
      </trkpt>
      <trkpt lat="43.95824" lon="2.22233">
        <ele>192</ele>
        <time>2021-02-25T12:24:25.000Z</time>
      </trkpt>
      <trkpt lat="43.95825" lon="2.22233">
        <ele>193</ele>
        <time>2021-02-25T12:24:26.000Z</time>
      </trkpt>
      <trkpt lat="43.95826" lon="2.22233">
        <ele>193</ele>
        <time>2021-02-25T12:24:27.000Z</time>
      </trkpt>
      <trkpt lat="43.95827" lon="2.22233">
        <ele>193</ele>
        <time>2021-02-25T12:24:28.000Z</time>
      </trkpt>
      <trkpt lat="43.95829" lon="2.22233">
        <ele>193</ele>
        <time>2021-02-25T12:24:29.000Z</time>
      </trkpt>
      <trkpt lat="43.9583" lon="2.22233">
        <ele>193</ele>
        <time>2021-02-25T12:24:30.000Z</time>
      </trkpt>
      <trkpt lat="43.95831" lon="2.22232">
        <ele>193</ele>
        <time>2021-02-25T12:24:31.000Z</time>
      </trkpt>
      <trkpt lat="43.95833" lon="2.22232">
        <ele>193</ele>
        <time>2021-02-25T12:24:32.000Z</time>
      </trkpt>
      <trkpt lat="43.95834" lon="2.22232">
        <ele>193</ele>
        <time>2021-02-25T12:24:33.000Z</time>
      </trkpt>
      <trkpt lat="43.95835" lon="2.22232">
        <ele>193</ele>
        <time>2021-02-25T12:24:34.000Z</time>
      </trkpt>
      <trkpt lat="43.95837" lon="2.22232">
        <ele>193</ele>
        <time>2021-02-25T12:24:35.000Z</time>
      </trkpt>
      <trkpt lat="43.95838" lon="2.22231">
        <ele>192</ele>
        <time>2021-02-25T12:24:36.000Z</time>
      </trkpt>
      <trkpt lat="43.95839" lon="2.22231">
        <ele>192</ele>
        <time>2021-02-25T12:24:37.000Z</time>
      </trkpt>
      <trkpt lat="43.9584" lon="2.2223">
        <ele>192</ele>
        <time>2021-02-25T12:24:38.000Z</time>
      </trkpt>
      <trkpt lat="43.95841" lon="2.2223">
        <ele>192</ele>
        <time>2021-02-25T12:24:39.000Z</time>
      </trkpt>
      <trkpt lat="43.95842" lon="2.22229">
        <ele>192</ele>
        <time>2021-02-25T12:24:40.000Z</time>
      </trkpt>
      <trkpt lat="43.95843" lon="2.22228">
        <ele>192</ele>
        <time>2021-02-25T12:24:41.000Z</time>
      </trkpt>
      <trkpt lat="43.95844" lon="2.22227">
        <ele>192</ele>
        <time>2021-02-25T12:24:42.000Z</time>
      </trkpt>
      <trkpt lat="43.95845" lon="2.22226">
        <ele>192</ele>
        <time>2021-02-25T12:24:43.000Z</time>
      </trkpt>
      <trkpt lat="43.95846" lon="2.22225">
        <ele>191</ele>
        <time>2021-02-25T12:24:44.000Z</time>
      </trkpt>
      <trkpt lat="43.95847" lon="2.22225">
        <ele>191</ele>
        <time>2021-02-25T12:24:45.000Z</time>
      </trkpt>
      <trkpt lat="43.95848" lon="2.22224">
        <ele>191</ele>
        <time>2021-02-25T12:24:46.000Z</time>
      </trkpt>
      <trkpt lat="43.95849" lon="2.22223">
        <ele>191</ele>
        <time>2021-02-25T12:24:47.000Z</time>
      </trkpt>
      <trkpt lat="43.9585" lon="2.22223">
        <ele>191</ele>
        <time>2021-02-25T12:24:48.000Z</time>
      </trkpt>
      <trkpt lat="43.95851" lon="2.22222">
        <ele>190</ele>
        <time>2021-02-25T12:24:49.000Z</time>
      </trkpt>
      <trkpt lat="43.95851" lon="2.22221">
        <ele>190</ele>
        <time>2021-02-25T12:24:50.000Z</time>
      </trkpt>
      <trkpt lat="43.95852" lon="2.22221">
        <ele>190</ele>
        <time>2021-02-25T12:24:51.000Z</time>
      </trkpt>
      <trkpt lat="43.95853" lon="2.2222">
        <ele>190</ele>
        <time>2021-02-25T12:24:52.000Z</time>
      </trkpt>
      <trkpt lat="43.95854" lon="2.2222">
        <ele>190</ele>
        <time>2021-02-25T12:24:53.000Z</time>
      </trkpt>
      <trkpt lat="43.95855" lon="2.22219">
        <ele>190</ele>
        <time>2021-02-25T12:24:54.000Z</time>
      </trkpt>
      <trkpt lat="43.95856" lon="2.22219">
        <ele>190</ele>
        <time>2021-02-25T12:24:55.000Z</time>
      </trkpt>
      <trkpt lat="43.95857" lon="2.22218">
        <ele>190</ele>
        <time>2021-02-25T12:24:56.000Z</time>
      </trkpt>
      <trkpt lat="43.95858" lon="2.22218">
        <ele>190</ele>
        <time>2021-02-25T12:24:57.000Z</time>
      </trkpt>
      <trkpt lat="43.95859" lon="2.22217">
        <ele>190</ele>
        <time>2021-02-25T12:24:58.000Z</time>
      </trkpt>
      <trkpt lat="43.95859" lon="2.22217">
        <ele>190</ele>
        <time>2021-02-25T12:24:59.000Z</time>
      </trkpt>
      <trkpt lat="43.9586" lon="2.22216">
        <ele>190</ele>
        <time>2021-02-25T12:25:00.000Z</time>
      </trkpt>
      <trkpt lat="43.95861" lon="2.22216">
        <ele>190</ele>
        <time>2021-02-25T12:25:01.000Z</time>
      </trkpt>
      <trkpt lat="43.95862" lon="2.22215">
        <ele>190</ele>
        <time>2021-02-25T12:25:02.000Z</time>
      </trkpt>
      <trkpt lat="43.95863" lon="2.22214">
        <ele>190</ele>
        <time>2021-02-25T12:25:03.000Z</time>
      </trkpt>
      <trkpt lat="43.95864" lon="2.22213">
        <ele>190</ele>
        <time>2021-02-25T12:25:04.000Z</time>
      </trkpt>
      <trkpt lat="43.95865" lon="2.22213">
        <ele>190</ele>
        <time>2021-02-25T12:25:05.000Z</time>
      </trkpt>
      <trkpt lat="43.95866" lon="2.22212">
        <ele>190</ele>
        <time>2021-02-25T12:25:06.000Z</time>
      </trkpt>
      <trkpt lat="43.95866" lon="2.22211">
        <ele>191</ele>
        <time>2021-02-25T12:25:07.000Z</time>
      </trkpt>
      <trkpt lat="43.95867" lon="2.2221">
        <ele>191</ele>
        <time>2021-02-25T12:25:08.000Z</time>
      </trkpt>
      <trkpt lat="43.95868" lon="2.2221">
        <ele>191</ele>
        <time>2021-02-25T12:25:09.000Z</time>
      </trkpt>
      <trkpt lat="43.95869" lon="2.22209">
        <ele>191</ele>
        <time>2021-02-25T12:25:10.000Z</time>
      </trkpt>
      <trkpt lat="43.9587" lon="2.22208">
        <ele>191</ele>
        <time>2021-02-25T12:25:11.000Z</time>
      </trkpt>
      <trkpt lat="43.95871" lon="2.22208">
        <ele>191</ele>
        <time>2021-02-25T12:25:12.000Z</time>
      </trkpt>
      <trkpt lat="43.95872" lon="2.22207">
        <ele>191</ele>
        <time>2021-02-25T12:25:13.000Z</time>
      </trkpt>
      <trkpt lat="43.95873" lon="2.22207">
        <ele>191</ele>
        <time>2021-02-25T12:25:14.000Z</time>
      </trkpt>
      <trkpt lat="43.95873" lon="2.22206">
        <ele>191</ele>
        <time>2021-02-25T12:25:15.000Z</time>
      </trkpt>
      <trkpt lat="43.95874" lon="2.22206">
        <ele>191</ele>
        <time>2021-02-25T12:25:16.000Z</time>
      </trkpt>
      <trkpt lat="43.95875" lon="2.22206">
        <ele>191</ele>
        <time>2021-02-25T12:25:17.000Z</time>
      </trkpt>
      <trkpt lat="43.95875" lon="2.22205">
        <ele>191</ele>
        <time>2021-02-25T12:25:18.000Z</time>
      </trkpt>
      <trkpt lat="43.95876" lon="2.22205">
        <ele>191</ele>
        <time>2021-02-25T12:25:19.000Z</time>
      </trkpt>
      <trkpt lat="43.95877" lon="2.22205">
        <ele>192</ele>
        <time>2021-02-25T12:25:20.000Z</time>
      </trkpt>
      <trkpt lat="43.95877" lon="2.22205">
        <ele>192</ele>
        <time>2021-02-25T12:25:21.000Z</time>
      </trkpt>
      <trkpt lat="43.95881" lon="2.22204">
        <ele>192</ele>
        <time>2021-02-25T12:25:22.000Z</time>
      </trkpt>
      <trkpt lat="43.95881" lon="2.22203">
        <ele>192</ele>
        <time>2021-02-25T12:25:23.000Z</time>
      </trkpt>
      <trkpt lat="43.95882" lon="2.22202">
        <ele>192</ele>
        <time>2021-02-25T12:25:24.000Z</time>
      </trkpt>
      <trkpt lat="43.95883" lon="2.22202">
        <ele>192</ele>
        <time>2021-02-25T12:25:25.000Z</time>
      </trkpt>
      <trkpt lat="43.95884" lon="2.22201">
        <ele>192</ele>
        <time>2021-02-25T12:25:26.000Z</time>
      </trkpt>
      <trkpt lat="43.95885" lon="2.222">
        <ele>192</ele>
        <time>2021-02-25T12:25:27.000Z</time>
      </trkpt>
      <trkpt lat="43.95886" lon="2.222">
        <ele>192</ele>
        <time>2021-02-25T12:25:28.000Z</time>
      </trkpt>
      <trkpt lat="43.95886" lon="2.22199">
        <ele>193</ele>
        <time>2021-02-25T12:25:29.000Z</time>
      </trkpt>
      <trkpt lat="43.95887" lon="2.22199">
        <ele>193</ele>
        <time>2021-02-25T12:25:30.000Z</time>
      </trkpt>
      <trkpt lat="43.95888" lon="2.22199">
        <ele>193</ele>
        <time>2021-02-25T12:25:31.000Z</time>
      </trkpt>
      <trkpt lat="43.9589" lon="2.22199">
        <ele>193</ele>
        <time>2021-02-25T12:25:32.000Z</time>
      </trkpt>
      <trkpt lat="43.95891" lon="2.22199">
        <ele>193</ele>
        <time>2021-02-25T12:25:33.000Z</time>
      </trkpt>
      <trkpt lat="43.95892" lon="2.222">
        <ele>193</ele>
        <time>2021-02-25T12:25:34.000Z</time>
      </trkpt>
      <trkpt lat="43.95893" lon="2.222">
        <ele>193</ele>
        <time>2021-02-25T12:25:35.000Z</time>
      </trkpt>
      <trkpt lat="43.95894" lon="2.222">
        <ele>193</ele>
        <time>2021-02-25T12:25:36.000Z</time>
      </trkpt>
      <trkpt lat="43.95896" lon="2.22201">
        <ele>193</ele>
        <time>2021-02-25T12:25:37.000Z</time>
      </trkpt>
      <trkpt lat="43.95897" lon="2.22201">
        <ele>193</ele>
        <time>2021-02-25T12:25:38.000Z</time>
      </trkpt>
      <trkpt lat="43.95898" lon="2.22201">
        <ele>193</ele>
        <time>2021-02-25T12:25:39.000Z</time>
      </trkpt>
      <trkpt lat="43.95899" lon="2.22202">
        <ele>194</ele>
        <time>2021-02-25T12:25:40.000Z</time>
      </trkpt>
      <trkpt lat="43.959" lon="2.22203">
        <ele>194</ele>
        <time>2021-02-25T12:25:41.000Z</time>
      </trkpt>
      <trkpt lat="43.95901" lon="2.22203">
        <ele>194</ele>
        <time>2021-02-25T12:25:42.000Z</time>
      </trkpt>
      <trkpt lat="43.95901" lon="2.22204">
        <ele>194</ele>
        <time>2021-02-25T12:25:43.000Z</time>
      </trkpt>
      <trkpt lat="43.95902" lon="2.22205">
        <ele>194</ele>
        <time>2021-02-25T12:25:44.000Z</time>
      </trkpt>
      <trkpt lat="43.95904" lon="2.22205">
        <ele>194</ele>
        <time>2021-02-25T12:25:45.000Z</time>
      </trkpt>
      <trkpt lat="43.95905" lon="2.22206">
        <ele>194</ele>
        <time>2021-02-25T12:25:46.000Z</time>
      </trkpt>
      <trkpt lat="43.95906" lon="2.22206">
        <ele>194</ele>
        <time>2021-02-25T12:25:47.000Z</time>
      </trkpt>
      <trkpt lat="43.95907" lon="2.22207">
        <ele>194</ele>
        <time>2021-02-25T12:25:48.000Z</time>
      </trkpt>
      <trkpt lat="43.95908" lon="2.22207">
        <ele>194</ele>
        <time>2021-02-25T12:25:49.000Z</time>
      </trkpt>
      <trkpt lat="43.95909" lon="2.22208">
        <ele>194</ele>
        <time>2021-02-25T12:25:50.000Z</time>
      </trkpt>
      <trkpt lat="43.9591" lon="2.22209">
        <ele>194</ele>
        <time>2021-02-25T12:25:51.000Z</time>
      </trkpt>
      <trkpt lat="43.95911" lon="2.22209">
        <ele>194</ele>
        <time>2021-02-25T12:25:52.000Z</time>
      </trkpt>
      <trkpt lat="43.95912" lon="2.2221">
        <ele>194</ele>
        <time>2021-02-25T12:25:53.000Z</time>
      </trkpt>
      <trkpt lat="43.95913" lon="2.22211">
        <ele>194</ele>
        <time>2021-02-25T12:25:54.000Z</time>
      </trkpt>
      <trkpt lat="43.95914" lon="2.22212">
        <ele>194</ele>
        <time>2021-02-25T12:25:55.000Z</time>
      </trkpt>
      <trkpt lat="43.95915" lon="2.22213">
        <ele>194</ele>
        <time>2021-02-25T12:25:56.000Z</time>
      </trkpt>
      <trkpt lat="43.95916" lon="2.22214">
        <ele>194</ele>
        <time>2021-02-25T12:25:57.000Z</time>
      </trkpt>
      <trkpt lat="43.95918" lon="2.22215">
        <ele>194</ele>
        <time>2021-02-25T12:25:58.000Z</time>
      </trkpt>
      <trkpt lat="43.95919" lon="2.22216">
        <ele>194</ele>
        <time>2021-02-25T12:25:59.000Z</time>
      </trkpt>
      <trkpt lat="43.9592" lon="2.22217">
        <ele>194</ele>
        <time>2021-02-25T12:26:00.000Z</time>
      </trkpt>
      <trkpt lat="43.95921" lon="2.22218">
        <ele>194</ele>
        <time>2021-02-25T12:26:01.000Z</time>
      </trkpt>
      <trkpt lat="43.95922" lon="2.22218">
        <ele>194</ele>
        <time>2021-02-25T12:26:02.000Z</time>
      </trkpt>
      <trkpt lat="43.95923" lon="2.22219">
        <ele>194</ele>
        <time>2021-02-25T12:26:03.000Z</time>
      </trkpt>
      <trkpt lat="43.95924" lon="2.2222">
        <ele>194</ele>
        <time>2021-02-25T12:26:04.000Z</time>
      </trkpt>
      <trkpt lat="43.95925" lon="2.2222">
        <ele>194</ele>
        <time>2021-02-25T12:26:05.000Z</time>
      </trkpt>
      <trkpt lat="43.95926" lon="2.22221">
        <ele>194</ele>
        <time>2021-02-25T12:26:06.000Z</time>
      </trkpt>
      <trkpt lat="43.95926" lon="2.22222">
        <ele>194</ele>
        <time>2021-02-25T12:26:07.000Z</time>
      </trkpt>
      <trkpt lat="43.95927" lon="2.22223">
        <ele>194</ele>
        <time>2021-02-25T12:26:08.000Z</time>
      </trkpt>
      <trkpt lat="43.95928" lon="2.22224">
        <ele>194</ele>
        <time>2021-02-25T12:26:09.000Z</time>
      </trkpt>
      <trkpt lat="43.95928" lon="2.22225">
        <ele>194</ele>
        <time>2021-02-25T12:26:10.000Z</time>
      </trkpt>
      <trkpt lat="43.95929" lon="2.22225">
        <ele>194</ele>
        <time>2021-02-25T12:26:11.000Z</time>
      </trkpt>
      <trkpt lat="43.9593" lon="2.22226">
        <ele>194</ele>
        <time>2021-02-25T12:26:12.000Z</time>
      </trkpt>
      <trkpt lat="43.95931" lon="2.22227">
        <ele>194</ele>
        <time>2021-02-25T12:26:13.000Z</time>
      </trkpt>
      <trkpt lat="43.95931" lon="2.22228">
        <ele>194</ele>
        <time>2021-02-25T12:26:14.000Z</time>
      </trkpt>
      <trkpt lat="43.95932" lon="2.2223">
        <ele>194</ele>
        <time>2021-02-25T12:26:15.000Z</time>
      </trkpt>
      <trkpt lat="43.95933" lon="2.22231">
        <ele>194</ele>
        <time>2021-02-25T12:26:16.000Z</time>
      </trkpt>
      <trkpt lat="43.95933" lon="2.22232">
        <ele>194</ele>
        <time>2021-02-25T12:26:17.000Z</time>
      </trkpt>
      <trkpt lat="43.95934" lon="2.22234">
        <ele>194</ele>
        <time>2021-02-25T12:26:18.000Z</time>
      </trkpt>
      <trkpt lat="43.95934" lon="2.22235">
        <ele>193</ele>
        <time>2021-02-25T12:26:19.000Z</time>
      </trkpt>
      <trkpt lat="43.95935" lon="2.22237">
        <ele>193</ele>
        <time>2021-02-25T12:26:20.000Z</time>
      </trkpt>
      <trkpt lat="43.95935" lon="2.22238">
        <ele>193</ele>
        <time>2021-02-25T12:26:21.000Z</time>
      </trkpt>
      <trkpt lat="43.95936" lon="2.2224">
        <ele>193</ele>
        <time>2021-02-25T12:26:22.000Z</time>
      </trkpt>
      <trkpt lat="43.95936" lon="2.22241">
        <ele>193</ele>
        <time>2021-02-25T12:26:23.000Z</time>
      </trkpt>
      <trkpt lat="43.95937" lon="2.22242">
        <ele>193</ele>
        <time>2021-02-25T12:26:24.000Z</time>
      </trkpt>
      <trkpt lat="43.95937" lon="2.22243">
        <ele>193</ele>
        <time>2021-02-25T12:26:25.000Z</time>
      </trkpt>
      <trkpt lat="43.95938" lon="2.22245">
        <ele>193</ele>
        <time>2021-02-25T12:26:26.000Z</time>
      </trkpt>
      <trkpt lat="43.95939" lon="2.22246">
        <ele>193</ele>
        <time>2021-02-25T12:26:27.000Z</time>
      </trkpt>
      <trkpt lat="43.95939" lon="2.22247">
        <ele>193</ele>
        <time>2021-02-25T12:26:28.000Z</time>
      </trkpt>
      <trkpt lat="43.9594" lon="2.22248">
        <ele>193</ele>
        <time>2021-02-25T12:26:29.000Z</time>
      </trkpt>
      <trkpt lat="43.9594" lon="2.2225">
        <ele>193</ele>
        <time>2021-02-25T12:26:30.000Z</time>
      </trkpt>
      <trkpt lat="43.9594" lon="2.22252">
        <ele>194</ele>
        <time>2021-02-25T12:26:31.000Z</time>
      </trkpt>
      <trkpt lat="43.95941" lon="2.22253">
        <ele>194</ele>
        <time>2021-02-25T12:26:32.000Z</time>
      </trkpt>
      <trkpt lat="43.95941" lon="2.22255">
        <ele>194</ele>
        <time>2021-02-25T12:26:33.000Z</time>
      </trkpt>
      <trkpt lat="43.95941" lon="2.22257">
        <ele>194</ele>
        <time>2021-02-25T12:26:34.000Z</time>
      </trkpt>
      <trkpt lat="43.95941" lon="2.22258">
        <ele>194</ele>
        <time>2021-02-25T12:26:35.000Z</time>
      </trkpt>
      <trkpt lat="43.95942" lon="2.2226">
        <ele>194</ele>
        <time>2021-02-25T12:26:36.000Z</time>
      </trkpt>
      <trkpt lat="43.95942" lon="2.22262">
        <ele>194</ele>
        <time>2021-02-25T12:26:37.000Z</time>
      </trkpt>
      <trkpt lat="43.95942" lon="2.22263">
        <ele>195</ele>
        <time>2021-02-25T12:26:38.000Z</time>
      </trkpt>
      <trkpt lat="43.95942" lon="2.22265">
        <ele>195</ele>
        <time>2021-02-25T12:26:39.000Z</time>
      </trkpt>
      <trkpt lat="43.95942" lon="2.22267">
        <ele>195</ele>
        <time>2021-02-25T12:26:40.000Z</time>
      </trkpt>
      <trkpt lat="43.95943" lon="2.22268">
        <ele>195</ele>
        <time>2021-02-25T12:26:41.000Z</time>
      </trkpt>
      <trkpt lat="43.95943" lon="2.2227">
        <ele>195</ele>
        <time>2021-02-25T12:26:42.000Z</time>
      </trkpt>
      <trkpt lat="43.95943" lon="2.22271">
        <ele>195</ele>
        <time>2021-02-25T12:26:43.000Z</time>
      </trkpt>
      <trkpt lat="43.95943" lon="2.22273">
        <ele>195</ele>
        <time>2021-02-25T12:26:44.000Z</time>
      </trkpt>
      <trkpt lat="43.95943" lon="2.22275">
        <ele>195</ele>
        <time>2021-02-25T12:26:45.000Z</time>
      </trkpt>
      <trkpt lat="43.95944" lon="2.22277">
        <ele>195</ele>
        <time>2021-02-25T12:26:46.000Z</time>
      </trkpt>
      <trkpt lat="43.95944" lon="2.22278">
        <ele>195</ele>
        <time>2021-02-25T12:26:47.000Z</time>
      </trkpt>
      <trkpt lat="43.95944" lon="2.2228">
        <ele>195</ele>
        <time>2021-02-25T12:26:48.000Z</time>
      </trkpt>
      <trkpt lat="43.95945" lon="2.22282">
        <ele>195</ele>
        <time>2021-02-25T12:26:49.000Z</time>
      </trkpt>
      <trkpt lat="43.95945" lon="2.22283">
        <ele>195</ele>
        <time>2021-02-25T12:26:50.000Z</time>
      </trkpt>
      <trkpt lat="43.95945" lon="2.22285">
        <ele>196</ele>
        <time>2021-02-25T12:26:51.000Z</time>
      </trkpt>
      <trkpt lat="43.95945" lon="2.22287">
        <ele>196</ele>
        <time>2021-02-25T12:26:52.000Z</time>
      </trkpt>
      <trkpt lat="43.95945" lon="2.22289">
        <ele>196</ele>
        <time>2021-02-25T12:26:53.000Z</time>
      </trkpt>
      <trkpt lat="43.95945" lon="2.2229">
        <ele>196</ele>
        <time>2021-02-25T12:26:54.000Z</time>
      </trkpt>
      <trkpt lat="43.95945" lon="2.22292">
        <ele>196</ele>
        <time>2021-02-25T12:26:55.000Z</time>
      </trkpt>
      <trkpt lat="43.95945" lon="2.22294">
        <ele>196</ele>
        <time>2021-02-25T12:26:56.000Z</time>
      </trkpt>
      <trkpt lat="43.95945" lon="2.22296">
        <ele>195</ele>
        <time>2021-02-25T12:26:57.000Z</time>
      </trkpt>
      <trkpt lat="43.95945" lon="2.22298">
        <ele>195</ele>
        <time>2021-02-25T12:26:58.000Z</time>
      </trkpt>
      <trkpt lat="43.95945" lon="2.223">
        <ele>195</ele>
        <time>2021-02-25T12:26:59.000Z</time>
      </trkpt>
      <trkpt lat="43.95945" lon="2.22302">
        <ele>195</ele>
        <time>2021-02-25T12:27:00.000Z</time>
      </trkpt>
      <trkpt lat="43.95945" lon="2.22304">
        <ele>195</ele>
        <time>2021-02-25T12:27:01.000Z</time>
      </trkpt>
      <trkpt lat="43.95945" lon="2.22306">
        <ele>195</ele>
        <time>2021-02-25T12:27:02.000Z</time>
      </trkpt>
      <trkpt lat="43.95946" lon="2.22308">
        <ele>195</ele>
        <time>2021-02-25T12:27:03.000Z</time>
      </trkpt>
      <trkpt lat="43.95946" lon="2.22309">
        <ele>195</ele>
        <time>2021-02-25T12:27:04.000Z</time>
      </trkpt>
      <trkpt lat="43.95946" lon="2.22311">
        <ele>195</ele>
        <time>2021-02-25T12:27:05.000Z</time>
      </trkpt>
      <trkpt lat="43.95946" lon="2.22312">
        <ele>195</ele>
        <time>2021-02-25T12:27:06.000Z</time>
      </trkpt>
      <trkpt lat="43.95946" lon="2.22314">
        <ele>195</ele>
        <time>2021-02-25T12:27:07.000Z</time>
      </trkpt>
      <trkpt lat="43.95946" lon="2.22315">
        <ele>194</ele>
        <time>2021-02-25T12:27:08.000Z</time>
      </trkpt>
      <trkpt lat="43.95946" lon="2.22316">
        <ele>194</ele>
        <time>2021-02-25T12:27:09.000Z</time>
      </trkpt>
      <trkpt lat="43.95946" lon="2.22318">
        <ele>194</ele>
        <time>2021-02-25T12:27:10.000Z</time>
      </trkpt>
      <trkpt lat="43.95947" lon="2.22319">
        <ele>194</ele>
        <time>2021-02-25T12:27:11.000Z</time>
      </trkpt>
      <trkpt lat="43.95947" lon="2.2232">
        <ele>194</ele>
        <time>2021-02-25T12:27:12.000Z</time>
      </trkpt>
      <trkpt lat="43.95947" lon="2.22322">
        <ele>194</ele>
        <time>2021-02-25T12:27:13.000Z</time>
      </trkpt>
      <trkpt lat="43.95948" lon="2.22323">
        <ele>194</ele>
        <time>2021-02-25T12:27:14.000Z</time>
      </trkpt>
      <trkpt lat="43.95948" lon="2.22325">
        <ele>194</ele>
        <time>2021-02-25T12:27:15.000Z</time>
      </trkpt>
      <trkpt lat="43.95948" lon="2.22326">
        <ele>194</ele>
        <time>2021-02-25T12:27:16.000Z</time>
      </trkpt>
      <trkpt lat="43.95948" lon="2.22328">
        <ele>194</ele>
        <time>2021-02-25T12:27:17.000Z</time>
      </trkpt>
      <trkpt lat="43.95948" lon="2.22329">
        <ele>194</ele>
        <time>2021-02-25T12:27:18.000Z</time>
      </trkpt>
      <trkpt lat="43.95949" lon="2.22331">
        <ele>194</ele>
        <time>2021-02-25T12:27:19.000Z</time>
      </trkpt>
      <trkpt lat="43.95949" lon="2.22332">
        <ele>194</ele>
        <time>2021-02-25T12:27:20.000Z</time>
      </trkpt>
      <trkpt lat="43.9595" lon="2.22334">
        <ele>194</ele>
        <time>2021-02-25T12:27:21.000Z</time>
      </trkpt>
      <trkpt lat="43.9595" lon="2.22335">
        <ele>194</ele>
        <time>2021-02-25T12:27:22.000Z</time>
      </trkpt>
      <trkpt lat="43.95951" lon="2.22337">
        <ele>194</ele>
        <time>2021-02-25T12:27:23.000Z</time>
      </trkpt>
      <trkpt lat="43.95951" lon="2.22338">
        <ele>194</ele>
        <time>2021-02-25T12:27:24.000Z</time>
      </trkpt>
      <trkpt lat="43.95952" lon="2.22339">
        <ele>194</ele>
        <time>2021-02-25T12:27:25.000Z</time>
      </trkpt>
      <trkpt lat="43.95952" lon="2.2234">
        <ele>194</ele>
        <time>2021-02-25T12:27:26.000Z</time>
      </trkpt>
      <trkpt lat="43.95953" lon="2.22342">
        <ele>194</ele>
        <time>2021-02-25T12:27:27.000Z</time>
      </trkpt>
      <trkpt lat="43.95954" lon="2.22343">
        <ele>194</ele>
        <time>2021-02-25T12:27:28.000Z</time>
      </trkpt>
      <trkpt lat="43.95954" lon="2.22344">
        <ele>194</ele>
        <time>2021-02-25T12:27:29.000Z</time>
      </trkpt>
      <trkpt lat="43.95955" lon="2.22344">
        <ele>195</ele>
        <time>2021-02-25T12:27:30.000Z</time>
      </trkpt>
      <trkpt lat="43.95955" lon="2.22345">
        <ele>195</ele>
        <time>2021-02-25T12:27:31.000Z</time>
      </trkpt>
      <trkpt lat="43.95956" lon="2.22346">
        <ele>195</ele>
        <time>2021-02-25T12:27:32.000Z</time>
      </trkpt>
      <trkpt lat="43.95956" lon="2.22346">
        <ele>195</ele>
        <time>2021-02-25T12:27:33.000Z</time>
      </trkpt>
      <trkpt lat="43.95957" lon="2.22347">
        <ele>195</ele>
        <time>2021-02-25T12:27:34.000Z</time>
      </trkpt>
      <trkpt lat="43.95958" lon="2.22347">
        <ele>196</ele>
        <time>2021-02-25T12:27:35.000Z</time>
      </trkpt>
      <trkpt lat="43.95959" lon="2.22348">
        <ele>196</ele>
        <time>2021-02-25T12:27:36.000Z</time>
      </trkpt>
      <trkpt lat="43.9596" lon="2.22349">
        <ele>196</ele>
        <time>2021-02-25T12:27:37.000Z</time>
      </trkpt>
      <trkpt lat="43.95961" lon="2.22349">
        <ele>196</ele>
        <time>2021-02-25T12:27:38.000Z</time>
      </trkpt>
      <trkpt lat="43.95961" lon="2.2235">
        <ele>197</ele>
        <time>2021-02-25T12:27:39.000Z</time>
      </trkpt>
      <trkpt lat="43.95962" lon="2.2235">
        <ele>197</ele>
        <time>2021-02-25T12:27:40.000Z</time>
      </trkpt>
      <trkpt lat="43.95963" lon="2.2235">
        <ele>197</ele>
        <time>2021-02-25T12:27:41.000Z</time>
      </trkpt>
      <trkpt lat="43.95963" lon="2.2235">
        <ele>197</ele>
        <time>2021-02-25T12:27:42.000Z</time>
      </trkpt>
      <trkpt lat="43.95964" lon="2.2235">
        <ele>197</ele>
        <time>2021-02-25T12:27:43.000Z</time>
      </trkpt>
      <trkpt lat="43.95964" lon="2.22351">
        <ele>198</ele>
        <time>2021-02-25T12:27:44.000Z</time>
      </trkpt>
      <trkpt lat="43.95965" lon="2.22351">
        <ele>198</ele>
        <time>2021-02-25T12:27:45.000Z</time>
      </trkpt>
      <trkpt lat="43.95965" lon="2.22351">
        <ele>198</ele>
        <time>2021-02-25T12:27:46.000Z</time>
      </trkpt>
      <trkpt lat="43.95966" lon="2.22351">
        <ele>198</ele>
        <time>2021-02-25T12:27:47.000Z</time>
      </trkpt>
      <trkpt lat="43.95966" lon="2.22351">
        <ele>198</ele>
        <time>2021-02-25T12:27:48.000Z</time>
      </trkpt>
      <trkpt lat="43.95966" lon="2.22351">
        <ele>199</ele>
        <time>2021-02-25T12:27:49.000Z</time>
      </trkpt>
      <trkpt lat="43.95968" lon="2.22351">
        <ele>199</ele>
        <time>2021-02-25T12:27:50.000Z</time>
      </trkpt>
      <trkpt lat="43.95968" lon="2.22352">
        <ele>199</ele>
        <time>2021-02-25T12:27:51.000Z</time>
      </trkpt>
      <trkpt lat="43.95969" lon="2.22352">
        <ele>200</ele>
        <time>2021-02-25T12:27:52.000Z</time>
      </trkpt>
      <trkpt lat="43.9597" lon="2.22353">
        <ele>200</ele>
        <time>2021-02-25T12:27:53.000Z</time>
      </trkpt>
      <trkpt lat="43.9597" lon="2.22354">
        <ele>200</ele>
        <time>2021-02-25T12:27:54.000Z</time>
      </trkpt>
      <trkpt lat="43.95972" lon="2.22354">
        <ele>200</ele>
        <time>2021-02-25T12:27:55.000Z</time>
      </trkpt>
      <trkpt lat="43.95972" lon="2.22355">
        <ele>200</ele>
        <time>2021-02-25T12:27:56.000Z</time>
      </trkpt>
      <trkpt lat="43.95973" lon="2.22355">
        <ele>200</ele>
        <time>2021-02-25T12:27:57.000Z</time>
      </trkpt>
      <trkpt lat="43.95974" lon="2.22355">
        <ele>200</ele>
        <time>2021-02-25T12:27:58.000Z</time>
      </trkpt>
      <trkpt lat="43.95974" lon="2.22355">
        <ele>200</ele>
        <time>2021-02-25T12:27:59.000Z</time>
      </trkpt>
      <trkpt lat="43.95975" lon="2.22355">
        <ele>200</ele>
        <time>2021-02-25T12:28:00.000Z</time>
      </trkpt>
      <trkpt lat="43.95977" lon="2.22357">
        <ele>200</ele>
        <time>2021-02-25T12:28:01.000Z</time>
      </trkpt>
      <trkpt lat="43.95978" lon="2.22358">
        <ele>200</ele>
        <time>2021-02-25T12:28:02.000Z</time>
      </trkpt>
      <trkpt lat="43.95979" lon="2.22359">
        <ele>199</ele>
        <time>2021-02-25T12:28:03.000Z</time>
      </trkpt>
      <trkpt lat="43.9598" lon="2.2236">
        <ele>199</ele>
        <time>2021-02-25T12:28:04.000Z</time>
      </trkpt>
      <trkpt lat="43.95981" lon="2.2236">
        <ele>199</ele>
        <time>2021-02-25T12:28:05.000Z</time>
      </trkpt>
      <trkpt lat="43.95982" lon="2.22361">
        <ele>199</ele>
        <time>2021-02-25T12:28:06.000Z</time>
      </trkpt>
      <trkpt lat="43.95983" lon="2.22361">
        <ele>199</ele>
        <time>2021-02-25T12:28:07.000Z</time>
      </trkpt>
      <trkpt lat="43.95984" lon="2.22362">
        <ele>199</ele>
        <time>2021-02-25T12:28:08.000Z</time>
      </trkpt>
      <trkpt lat="43.95984" lon="2.22362">
        <ele>199</ele>
        <time>2021-02-25T12:28:09.000Z</time>
      </trkpt>
      <trkpt lat="43.95985" lon="2.22362">
        <ele>199</ele>
        <time>2021-02-25T12:28:10.000Z</time>
      </trkpt>
      <trkpt lat="43.95985" lon="2.22362">
        <ele>199</ele>
        <time>2021-02-25T12:28:11.000Z</time>
      </trkpt>
      <trkpt lat="43.95986" lon="2.22362">
        <ele>199</ele>
        <time>2021-02-25T12:28:12.000Z</time>
      </trkpt>
      <trkpt lat="43.95988" lon="2.22362">
        <ele>199</ele>
        <time>2021-02-25T12:28:13.000Z</time>
      </trkpt>
      <trkpt lat="43.95988" lon="2.22362">
        <ele>199</ele>
        <time>2021-02-25T12:28:14.000Z</time>
      </trkpt>
      <trkpt lat="43.95989" lon="2.22362">
        <ele>199</ele>
        <time>2021-02-25T12:28:15.000Z</time>
      </trkpt>
      <trkpt lat="43.9599" lon="2.22362">
        <ele>199</ele>
        <time>2021-02-25T12:28:16.000Z</time>
      </trkpt>
      <trkpt lat="43.95991" lon="2.22363">
        <ele>199</ele>
        <time>2021-02-25T12:28:17.000Z</time>
      </trkpt>
      <trkpt lat="43.95992" lon="2.22363">
        <ele>199</ele>
        <time>2021-02-25T12:28:18.000Z</time>
      </trkpt>
      <trkpt lat="43.95993" lon="2.22363">
        <ele>199</ele>
        <time>2021-02-25T12:28:19.000Z</time>
      </trkpt>
      <trkpt lat="43.95994" lon="2.22364">
        <ele>199</ele>
        <time>2021-02-25T12:28:20.000Z</time>
      </trkpt>
      <trkpt lat="43.95994" lon="2.22364">
        <ele>199</ele>
        <time>2021-02-25T12:28:21.000Z</time>
      </trkpt>
      <trkpt lat="43.95995" lon="2.22364">
        <ele>199</ele>
        <time>2021-02-25T12:28:22.000Z</time>
      </trkpt>
      <trkpt lat="43.95996" lon="2.22364">
        <ele>199</ele>
        <time>2021-02-25T12:28:23.000Z</time>
      </trkpt>
      <trkpt lat="43.95997" lon="2.22365">
        <ele>199</ele>
        <time>2021-02-25T12:28:24.000Z</time>
      </trkpt>
      <trkpt lat="43.95998" lon="2.22366">
        <ele>199</ele>
        <time>2021-02-25T12:28:25.000Z</time>
      </trkpt>
      <trkpt lat="43.95999" lon="2.22366">
        <ele>199</ele>
        <time>2021-02-25T12:28:26.000Z</time>
      </trkpt>
      <trkpt lat="43.96" lon="2.22367">
        <ele>200</ele>
        <time>2021-02-25T12:28:27.000Z</time>
      </trkpt>
      <trkpt lat="43.96001" lon="2.22368">
        <ele>200</ele>
        <time>2021-02-25T12:28:28.000Z</time>
      </trkpt>
      <trkpt lat="43.96003" lon="2.22368">
        <ele>200</ele>
        <time>2021-02-25T12:28:29.000Z</time>
      </trkpt>
      <trkpt lat="43.96004" lon="2.22369">
        <ele>200</ele>
        <time>2021-02-25T12:28:30.000Z</time>
      </trkpt>
      <trkpt lat="43.96005" lon="2.2237">
        <ele>200</ele>
        <time>2021-02-25T12:28:31.000Z</time>
      </trkpt>
      <trkpt lat="43.96006" lon="2.22371">
        <ele>200</ele>
        <time>2021-02-25T12:28:32.000Z</time>
      </trkpt>
      <trkpt lat="43.96007" lon="2.22371">
        <ele>200</ele>
        <time>2021-02-25T12:28:33.000Z</time>
      </trkpt>
      <trkpt lat="43.96009" lon="2.22372">
        <ele>200</ele>
        <time>2021-02-25T12:28:34.000Z</time>
      </trkpt>
      <trkpt lat="43.9601" lon="2.22373">
        <ele>200</ele>
        <time>2021-02-25T12:28:35.000Z</time>
      </trkpt>
      <trkpt lat="43.9601" lon="2.22373">
        <ele>200</ele>
        <time>2021-02-25T12:28:36.000Z</time>
      </trkpt>
      <trkpt lat="43.96011" lon="2.22373">
        <ele>201</ele>
        <time>2021-02-25T12:28:37.000Z</time>
      </trkpt>
      <trkpt lat="43.96012" lon="2.22374">
        <ele>201</ele>
        <time>2021-02-25T12:28:38.000Z</time>
      </trkpt>
      <trkpt lat="43.96013" lon="2.22374">
        <ele>201</ele>
        <time>2021-02-25T12:28:39.000Z</time>
      </trkpt>
      <trkpt lat="43.96015" lon="2.22374">
        <ele>201</ele>
        <time>2021-02-25T12:28:40.000Z</time>
      </trkpt>
      <trkpt lat="43.96016" lon="2.22375">
        <ele>201</ele>
        <time>2021-02-25T12:28:41.000Z</time>
      </trkpt>
      <trkpt lat="43.96017" lon="2.22375">
        <ele>201</ele>
        <time>2021-02-25T12:28:42.000Z</time>
      </trkpt>
      <trkpt lat="43.96018" lon="2.22375">
        <ele>202</ele>
        <time>2021-02-25T12:28:43.000Z</time>
      </trkpt>
      <trkpt lat="43.96019" lon="2.22376">
        <ele>202</ele>
        <time>2021-02-25T12:28:44.000Z</time>
      </trkpt>
      <trkpt lat="43.9602" lon="2.22377">
        <ele>202</ele>
        <time>2021-02-25T12:28:45.000Z</time>
      </trkpt>
      <trkpt lat="43.96021" lon="2.22377">
        <ele>202</ele>
        <time>2021-02-25T12:28:46.000Z</time>
      </trkpt>
      <trkpt lat="43.96021" lon="2.22378">
        <ele>202</ele>
        <time>2021-02-25T12:28:47.000Z</time>
      </trkpt>
      <trkpt lat="43.96022" lon="2.22378">
        <ele>202</ele>
        <time>2021-02-25T12:28:48.000Z</time>
      </trkpt>
      <trkpt lat="43.96023" lon="2.22379">
        <ele>202</ele>
        <time>2021-02-25T12:28:49.000Z</time>
      </trkpt>
      <trkpt lat="43.96023" lon="2.22379">
        <ele>202</ele>
        <time>2021-02-25T12:28:50.000Z</time>
      </trkpt>
      <trkpt lat="43.96024" lon="2.2238">
        <ele>202</ele>
        <time>2021-02-25T12:28:51.000Z</time>
      </trkpt>
      <trkpt lat="43.96025" lon="2.22381">
        <ele>202</ele>
        <time>2021-02-25T12:28:52.000Z</time>
      </trkpt>
      <trkpt lat="43.96026" lon="2.22382">
        <ele>202</ele>
        <time>2021-02-25T12:28:53.000Z</time>
      </trkpt>
      <trkpt lat="43.96027" lon="2.22383">
        <ele>202</ele>
        <time>2021-02-25T12:28:54.000Z</time>
      </trkpt>
      <trkpt lat="43.96028" lon="2.22384">
        <ele>202</ele>
        <time>2021-02-25T12:28:55.000Z</time>
      </trkpt>
      <trkpt lat="43.96029" lon="2.22384">
        <ele>202</ele>
        <time>2021-02-25T12:28:56.000Z</time>
      </trkpt>
      <trkpt lat="43.9603" lon="2.22385">
        <ele>203</ele>
        <time>2021-02-25T12:28:57.000Z</time>
      </trkpt>
      <trkpt lat="43.96031" lon="2.22386">
        <ele>203</ele>
        <time>2021-02-25T12:28:58.000Z</time>
      </trkpt>
      <trkpt lat="43.96031" lon="2.22387">
        <ele>203</ele>
        <time>2021-02-25T12:28:59.000Z</time>
      </trkpt>
      <trkpt lat="43.96032" lon="2.22388">
        <ele>203</ele>
        <time>2021-02-25T12:29:00.000Z</time>
      </trkpt>
      <trkpt lat="43.96033" lon="2.22389">
        <ele>203</ele>
        <time>2021-02-25T12:29:01.000Z</time>
      </trkpt>
      <trkpt lat="43.96035" lon="2.22391">
        <ele>203</ele>
        <time>2021-02-25T12:29:02.000Z</time>
      </trkpt>
      <trkpt lat="43.96036" lon="2.22392">
        <ele>203</ele>
        <time>2021-02-25T12:29:03.000Z</time>
      </trkpt>
      <trkpt lat="43.96037" lon="2.22393">
        <ele>203</ele>
        <time>2021-02-25T12:29:04.000Z</time>
      </trkpt>
      <trkpt lat="43.96038" lon="2.22394">
        <ele>203</ele>
        <time>2021-02-25T12:29:05.000Z</time>
      </trkpt>
      <trkpt lat="43.9604" lon="2.22395">
        <ele>203</ele>
        <time>2021-02-25T12:29:06.000Z</time>
      </trkpt>
      <trkpt lat="43.96041" lon="2.22396">
        <ele>203</ele>
        <time>2021-02-25T12:29:07.000Z</time>
      </trkpt>
      <trkpt lat="43.96042" lon="2.22397">
        <ele>203</ele>
        <time>2021-02-25T12:29:08.000Z</time>
      </trkpt>
      <trkpt lat="43.96043" lon="2.22398">
        <ele>203</ele>
        <time>2021-02-25T12:29:09.000Z</time>
      </trkpt>
      <trkpt lat="43.96044" lon="2.22399">
        <ele>203</ele>
        <time>2021-02-25T12:29:10.000Z</time>
      </trkpt>
      <trkpt lat="43.96045" lon="2.22399">
        <ele>203</ele>
        <time>2021-02-25T12:29:11.000Z</time>
      </trkpt>
      <trkpt lat="43.96046" lon="2.224">
        <ele>203</ele>
        <time>2021-02-25T12:29:12.000Z</time>
      </trkpt>
      <trkpt lat="43.96047" lon="2.22401">
        <ele>203</ele>
        <time>2021-02-25T12:29:13.000Z</time>
      </trkpt>
      <trkpt lat="43.96048" lon="2.22402">
        <ele>203</ele>
        <time>2021-02-25T12:29:14.000Z</time>
      </trkpt>
      <trkpt lat="43.96049" lon="2.22403">
        <ele>203</ele>
        <time>2021-02-25T12:29:15.000Z</time>
      </trkpt>
      <trkpt lat="43.9605" lon="2.22404">
        <ele>203</ele>
        <time>2021-02-25T12:29:16.000Z</time>
      </trkpt>
      <trkpt lat="43.96051" lon="2.22405">
        <ele>203</ele>
        <time>2021-02-25T12:29:17.000Z</time>
      </trkpt>
      <trkpt lat="43.96052" lon="2.22405">
        <ele>203</ele>
        <time>2021-02-25T12:29:18.000Z</time>
      </trkpt>
      <trkpt lat="43.96053" lon="2.22406">
        <ele>203</ele>
        <time>2021-02-25T12:29:19.000Z</time>
      </trkpt>
      <trkpt lat="43.96054" lon="2.22407">
        <ele>203</ele>
        <time>2021-02-25T12:29:20.000Z</time>
      </trkpt>
      <trkpt lat="43.96055" lon="2.22407">
        <ele>203</ele>
        <time>2021-02-25T12:29:21.000Z</time>
      </trkpt>
      <trkpt lat="43.96056" lon="2.22409">
        <ele>203</ele>
        <time>2021-02-25T12:29:22.000Z</time>
      </trkpt>
      <trkpt lat="43.96056" lon="2.22409">
        <ele>202</ele>
        <time>2021-02-25T12:29:23.000Z</time>
      </trkpt>
      <trkpt lat="43.96057" lon="2.22409">
        <ele>202</ele>
        <time>2021-02-25T12:29:24.000Z</time>
      </trkpt>
      <trkpt lat="43.96057" lon="2.22409">
        <ele>202</ele>
        <time>2021-02-25T12:29:25.000Z</time>
      </trkpt>
      <trkpt lat="43.96057" lon="2.2241">
        <ele>202</ele>
        <time>2021-02-25T12:29:26.000Z</time>
      </trkpt>
      <trkpt lat="43.96058" lon="2.22412">
        <ele>202</ele>
        <time>2021-02-25T12:29:27.000Z</time>
      </trkpt>
      <trkpt lat="43.96059" lon="2.22413">
        <ele>202</ele>
        <time>2021-02-25T12:29:28.000Z</time>
      </trkpt>
      <trkpt lat="43.96059" lon="2.22414">
        <ele>201</ele>
        <time>2021-02-25T12:29:29.000Z</time>
      </trkpt>
      <trkpt lat="43.9606" lon="2.22416">
        <ele>201</ele>
        <time>2021-02-25T12:29:30.000Z</time>
      </trkpt>
      <trkpt lat="43.96061" lon="2.22417">
        <ele>201</ele>
        <time>2021-02-25T12:29:31.000Z</time>
      </trkpt>
      <trkpt lat="43.96062" lon="2.22418">
        <ele>201</ele>
        <time>2021-02-25T12:29:32.000Z</time>
      </trkpt>
      <trkpt lat="43.96063" lon="2.2242">
        <ele>201</ele>
        <time>2021-02-25T12:29:33.000Z</time>
      </trkpt>
      <trkpt lat="43.96064" lon="2.22421">
        <ele>201</ele>
        <time>2021-02-25T12:29:34.000Z</time>
      </trkpt>
      <trkpt lat="43.96065" lon="2.22422">
        <ele>201</ele>
        <time>2021-02-25T12:29:35.000Z</time>
      </trkpt>
      <trkpt lat="43.96066" lon="2.22423">
        <ele>201</ele>
        <time>2021-02-25T12:29:36.000Z</time>
      </trkpt>
      <trkpt lat="43.96066" lon="2.22423">
        <ele>201</ele>
        <time>2021-02-25T12:29:37.000Z</time>
      </trkpt>
      <trkpt lat="43.96067" lon="2.22423">
        <ele>200</ele>
        <time>2021-02-25T12:29:38.000Z</time>
      </trkpt>
      <trkpt lat="43.96068" lon="2.22423">
        <ele>200</ele>
        <time>2021-02-25T12:29:39.000Z</time>
      </trkpt>
      <trkpt lat="43.96069" lon="2.22423">
        <ele>200</ele>
        <time>2021-02-25T12:29:40.000Z</time>
      </trkpt>
      <trkpt lat="43.9607" lon="2.22422">
        <ele>200</ele>
        <time>2021-02-25T12:29:41.000Z</time>
      </trkpt>
      <trkpt lat="43.96071" lon="2.22422">
        <ele>200</ele>
        <time>2021-02-25T12:29:42.000Z</time>
      </trkpt>
      <trkpt lat="43.96072" lon="2.22422">
        <ele>201</ele>
        <time>2021-02-25T12:29:43.000Z</time>
      </trkpt>
      <trkpt lat="43.96073" lon="2.22421">
        <ele>201</ele>
        <time>2021-02-25T12:29:44.000Z</time>
      </trkpt>
      <trkpt lat="43.96074" lon="2.22421">
        <ele>201</ele>
        <time>2021-02-25T12:29:45.000Z</time>
      </trkpt>
      <trkpt lat="43.96075" lon="2.22421">
        <ele>201</ele>
        <time>2021-02-25T12:29:46.000Z</time>
      </trkpt>
      <trkpt lat="43.96075" lon="2.2242">
        <ele>201</ele>
        <time>2021-02-25T12:29:47.000Z</time>
      </trkpt>
      <trkpt lat="43.96076" lon="2.2242">
        <ele>201</ele>
        <time>2021-02-25T12:29:48.000Z</time>
      </trkpt>
      <trkpt lat="43.96078" lon="2.2242">
        <ele>201</ele>
        <time>2021-02-25T12:29:49.000Z</time>
      </trkpt>
      <trkpt lat="43.96079" lon="2.2242">
        <ele>201</ele>
        <time>2021-02-25T12:29:50.000Z</time>
      </trkpt>
      <trkpt lat="43.9608" lon="2.2242">
        <ele>201</ele>
        <time>2021-02-25T12:29:51.000Z</time>
      </trkpt>
      <trkpt lat="43.9608" lon="2.2242">
        <ele>201</ele>
        <time>2021-02-25T12:29:52.000Z</time>
      </trkpt>
      <trkpt lat="43.96081" lon="2.22419">
        <ele>201</ele>
        <time>2021-02-25T12:29:53.000Z</time>
      </trkpt>
      <trkpt lat="43.96082" lon="2.22419">
        <ele>201</ele>
        <time>2021-02-25T12:29:54.000Z</time>
      </trkpt>
      <trkpt lat="43.96083" lon="2.22418">
        <ele>201</ele>
        <time>2021-02-25T12:29:55.000Z</time>
      </trkpt>
      <trkpt lat="43.96083" lon="2.22418">
        <ele>201</ele>
        <time>2021-02-25T12:29:56.000Z</time>
      </trkpt>
      <trkpt lat="43.96084" lon="2.22417">
        <ele>201</ele>
        <time>2021-02-25T12:29:57.000Z</time>
      </trkpt>
      <trkpt lat="43.96085" lon="2.22417">
        <ele>201</ele>
        <time>2021-02-25T12:29:58.000Z</time>
      </trkpt>
      <trkpt lat="43.96086" lon="2.22416">
        <ele>201</ele>
        <time>2021-02-25T12:29:59.000Z</time>
      </trkpt>
      <trkpt lat="43.96086" lon="2.22416">
        <ele>201</ele>
        <time>2021-02-25T12:30:00.000Z</time>
      </trkpt>
      <trkpt lat="43.96087" lon="2.22415">
        <ele>201</ele>
        <time>2021-02-25T12:30:01.000Z</time>
      </trkpt>
      <trkpt lat="43.96087" lon="2.22414">
        <ele>201</ele>
        <time>2021-02-25T12:30:02.000Z</time>
      </trkpt>
      <trkpt lat="43.96088" lon="2.22413">
        <ele>201</ele>
        <time>2021-02-25T12:30:03.000Z</time>
      </trkpt>
      <trkpt lat="43.96088" lon="2.22412">
        <ele>201</ele>
        <time>2021-02-25T12:30:04.000Z</time>
      </trkpt>
      <trkpt lat="43.96089" lon="2.22411">
        <ele>201</ele>
        <time>2021-02-25T12:30:05.000Z</time>
      </trkpt>
      <trkpt lat="43.96089" lon="2.2241">
        <ele>201</ele>
        <time>2021-02-25T12:30:06.000Z</time>
      </trkpt>
      <trkpt lat="43.9609" lon="2.2241">
        <ele>202</ele>
        <time>2021-02-25T12:30:07.000Z</time>
      </trkpt>
      <trkpt lat="43.9609" lon="2.22409">
        <ele>202</ele>
        <time>2021-02-25T12:30:08.000Z</time>
      </trkpt>
      <trkpt lat="43.96091" lon="2.22409">
        <ele>202</ele>
        <time>2021-02-25T12:30:09.000Z</time>
      </trkpt>
      <trkpt lat="43.96091" lon="2.22409">
        <ele>202</ele>
        <time>2021-02-25T12:30:10.000Z</time>
      </trkpt>
      <trkpt lat="43.96092" lon="2.22409">
        <ele>202</ele>
        <time>2021-02-25T12:30:11.000Z</time>
      </trkpt>
      <trkpt lat="43.96093" lon="2.22409">
        <ele>203</ele>
        <time>2021-02-25T12:30:12.000Z</time>
      </trkpt>
      <trkpt lat="43.96093" lon="2.22409">
        <ele>203</ele>
        <time>2021-02-25T12:30:13.000Z</time>
      </trkpt>
      <trkpt lat="43.96093" lon="2.22408">
        <ele>203</ele>
        <time>2021-02-25T12:30:14.000Z</time>
      </trkpt>
      <trkpt lat="43.96094" lon="2.22408">
        <ele>204</ele>
        <time>2021-02-25T12:30:15.000Z</time>
      </trkpt>
      <trkpt lat="43.96094" lon="2.22408">
        <ele>204</ele>
        <time>2021-02-25T12:30:16.000Z</time>
      </trkpt>
      <trkpt lat="43.96095" lon="2.22408">
        <ele>204</ele>
        <time>2021-02-25T12:30:17.000Z</time>
      </trkpt>
      <trkpt lat="43.96095" lon="2.22407">
        <ele>205</ele>
        <time>2021-02-25T12:30:18.000Z</time>
      </trkpt>
      <trkpt lat="43.96096" lon="2.22407">
        <ele>205</ele>
        <time>2021-02-25T12:30:19.000Z</time>
      </trkpt>
      <trkpt lat="43.96096" lon="2.22407">
        <ele>205</ele>
        <time>2021-02-25T12:30:20.000Z</time>
      </trkpt>
      <trkpt lat="43.96097" lon="2.22407">
        <ele>205</ele>
        <time>2021-02-25T12:30:21.000Z</time>
      </trkpt>
      <trkpt lat="43.96098" lon="2.22408">
        <ele>205</ele>
        <time>2021-02-25T12:30:22.000Z</time>
      </trkpt>
      <trkpt lat="43.96099" lon="2.22408">
        <ele>205</ele>
        <time>2021-02-25T12:30:23.000Z</time>
      </trkpt>
      <trkpt lat="43.961" lon="2.22409">
        <ele>205</ele>
        <time>2021-02-25T12:30:24.000Z</time>
      </trkpt>
      <trkpt lat="43.96101" lon="2.22409">
        <ele>205</ele>
        <time>2021-02-25T12:30:25.000Z</time>
      </trkpt>
      <trkpt lat="43.96102" lon="2.2241">
        <ele>205</ele>
        <time>2021-02-25T12:30:26.000Z</time>
      </trkpt>
      <trkpt lat="43.96103" lon="2.2241">
        <ele>206</ele>
        <time>2021-02-25T12:30:27.000Z</time>
      </trkpt>
      <trkpt lat="43.96104" lon="2.22411">
        <ele>206</ele>
        <time>2021-02-25T12:30:28.000Z</time>
      </trkpt>
      <trkpt lat="43.96105" lon="2.22411">
        <ele>206</ele>
        <time>2021-02-25T12:30:29.000Z</time>
      </trkpt>
      <trkpt lat="43.96106" lon="2.22412">
        <ele>206</ele>
        <time>2021-02-25T12:30:30.000Z</time>
      </trkpt>
      <trkpt lat="43.96108" lon="2.22413">
        <ele>206</ele>
        <time>2021-02-25T12:30:31.000Z</time>
      </trkpt>
      <trkpt lat="43.96109" lon="2.22414">
        <ele>206</ele>
        <time>2021-02-25T12:30:32.000Z</time>
      </trkpt>
      <trkpt lat="43.96109" lon="2.22415">
        <ele>206</ele>
        <time>2021-02-25T12:30:33.000Z</time>
      </trkpt>
      <trkpt lat="43.9611" lon="2.22416">
        <ele>206</ele>
        <time>2021-02-25T12:30:34.000Z</time>
      </trkpt>
      <trkpt lat="43.96111" lon="2.22417">
        <ele>205</ele>
        <time>2021-02-25T12:30:35.000Z</time>
      </trkpt>
      <trkpt lat="43.96112" lon="2.22418">
        <ele>205</ele>
        <time>2021-02-25T12:30:36.000Z</time>
      </trkpt>
      <trkpt lat="43.96113" lon="2.22419">
        <ele>205</ele>
        <time>2021-02-25T12:30:37.000Z</time>
      </trkpt>
      <trkpt lat="43.96115" lon="2.2242">
        <ele>205</ele>
        <time>2021-02-25T12:30:38.000Z</time>
      </trkpt>
      <trkpt lat="43.96116" lon="2.22421">
        <ele>205</ele>
        <time>2021-02-25T12:30:39.000Z</time>
      </trkpt>
      <trkpt lat="43.96117" lon="2.22422">
        <ele>205</ele>
        <time>2021-02-25T12:30:40.000Z</time>
      </trkpt>
      <trkpt lat="43.96118" lon="2.22423">
        <ele>204</ele>
        <time>2021-02-25T12:30:41.000Z</time>
      </trkpt>
      <trkpt lat="43.96119" lon="2.22423">
        <ele>204</ele>
        <time>2021-02-25T12:30:42.000Z</time>
      </trkpt>
      <trkpt lat="43.9612" lon="2.22424">
        <ele>204</ele>
        <time>2021-02-25T12:30:43.000Z</time>
      </trkpt>
      <trkpt lat="43.9612" lon="2.22424">
        <ele>204</ele>
        <time>2021-02-25T12:30:44.000Z</time>
      </trkpt>
      <trkpt lat="43.96121" lon="2.22424">
        <ele>204</ele>
        <time>2021-02-25T12:30:45.000Z</time>
      </trkpt>
      <trkpt lat="43.96124" lon="2.22426">
        <ele>204</ele>
        <time>2021-02-25T12:30:46.000Z</time>
      </trkpt>
      <trkpt lat="43.96125" lon="2.22427">
        <ele>204</ele>
        <time>2021-02-25T12:30:47.000Z</time>
      </trkpt>
      <trkpt lat="43.96125" lon="2.22428">
        <ele>204</ele>
        <time>2021-02-25T12:30:48.000Z</time>
      </trkpt>
      <trkpt lat="43.96126" lon="2.22428">
        <ele>204</ele>
        <time>2021-02-25T12:30:49.000Z</time>
      </trkpt>
      <trkpt lat="43.96126" lon="2.22428">
        <ele>204</ele>
        <time>2021-02-25T12:30:50.000Z</time>
      </trkpt>
      <trkpt lat="43.96127" lon="2.22428">
        <ele>204</ele>
        <time>2021-02-25T12:30:51.000Z</time>
      </trkpt>
      <trkpt lat="43.96131" lon="2.22429">
        <ele>205</ele>
        <time>2021-02-25T12:30:52.000Z</time>
      </trkpt>
      <trkpt lat="43.96131" lon="2.22429">
        <ele>205</ele>
        <time>2021-02-25T12:30:53.000Z</time>
      </trkpt>
      <trkpt lat="43.96132" lon="2.2243">
        <ele>205</ele>
        <time>2021-02-25T12:30:54.000Z</time>
      </trkpt>
      <trkpt lat="43.96133" lon="2.2243">
        <ele>205</ele>
        <time>2021-02-25T12:30:55.000Z</time>
      </trkpt>
      <trkpt lat="43.96134" lon="2.22431">
        <ele>205</ele>
        <time>2021-02-25T12:30:56.000Z</time>
      </trkpt>
      <trkpt lat="43.96135" lon="2.22431">
        <ele>205</ele>
        <time>2021-02-25T12:30:57.000Z</time>
      </trkpt>
      <trkpt lat="43.96135" lon="2.22431">
        <ele>205</ele>
        <time>2021-02-25T12:30:58.000Z</time>
      </trkpt>
      <trkpt lat="43.96135" lon="2.22431">
        <ele>205</ele>
        <time>2021-02-25T12:30:59.000Z</time>
      </trkpt>
      <trkpt lat="43.96136" lon="2.22432">
        <ele>206</ele>
        <time>2021-02-25T12:31:00.000Z</time>
      </trkpt>
      <trkpt lat="43.96137" lon="2.22432">
        <ele>206</ele>
        <time>2021-02-25T12:31:01.000Z</time>
      </trkpt>
      <trkpt lat="43.96137" lon="2.22432">
        <ele>206</ele>
        <time>2021-02-25T12:31:02.000Z</time>
      </trkpt>
      <trkpt lat="43.96137" lon="2.22433">
        <ele>206</ele>
        <time>2021-02-25T12:31:03.000Z</time>
      </trkpt>
      <trkpt lat="43.96138" lon="2.22433">
        <ele>206</ele>
        <time>2021-02-25T12:31:04.000Z</time>
      </trkpt>
      <trkpt lat="43.96138" lon="2.22433">
        <ele>206</ele>
        <time>2021-02-25T12:31:05.000Z</time>
      </trkpt>
      <trkpt lat="43.9614" lon="2.22434">
        <ele>206</ele>
        <time>2021-02-25T12:31:06.000Z</time>
      </trkpt>
      <trkpt lat="43.96141" lon="2.22434">
        <ele>207</ele>
        <time>2021-02-25T12:31:07.000Z</time>
      </trkpt>
      <trkpt lat="43.96141" lon="2.22434">
        <ele>207</ele>
        <time>2021-02-25T12:31:08.000Z</time>
      </trkpt>
      <trkpt lat="43.96141" lon="2.22434">
        <ele>207</ele>
        <time>2021-02-25T12:31:09.000Z</time>
      </trkpt>
      <trkpt lat="43.96141" lon="2.22434">
        <ele>207</ele>
        <time>2021-02-25T12:31:10.000Z</time>
      </trkpt>
      <trkpt lat="43.96141" lon="2.22435">
        <ele>207</ele>
        <time>2021-02-25T12:31:11.000Z</time>
      </trkpt>
      <trkpt lat="43.96141" lon="2.22436">
        <ele>207</ele>
        <time>2021-02-25T12:31:12.000Z</time>
      </trkpt>
      <trkpt lat="43.96141" lon="2.22436">
        <ele>207</ele>
        <time>2021-02-25T12:31:13.000Z</time>
      </trkpt>
      <trkpt lat="43.96142" lon="2.22436">
        <ele>207</ele>
        <time>2021-02-25T12:31:14.000Z</time>
      </trkpt>
      <trkpt lat="43.96142" lon="2.22437">
        <ele>207</ele>
        <time>2021-02-25T12:31:15.000Z</time>
      </trkpt>
      <trkpt lat="43.96143" lon="2.22438">
        <ele>207</ele>
        <time>2021-02-25T12:31:16.000Z</time>
      </trkpt>
      <trkpt lat="43.96144" lon="2.22438">
        <ele>207</ele>
        <time>2021-02-25T12:31:17.000Z</time>
      </trkpt>
      <trkpt lat="43.96145" lon="2.22439">
        <ele>207</ele>
        <time>2021-02-25T12:31:18.000Z</time>
      </trkpt>
      <trkpt lat="43.96146" lon="2.22439">
        <ele>207</ele>
        <time>2021-02-25T12:31:19.000Z</time>
      </trkpt>
      <trkpt lat="43.96147" lon="2.2244">
        <ele>206</ele>
        <time>2021-02-25T12:31:20.000Z</time>
      </trkpt>
      <trkpt lat="43.96147" lon="2.22441">
        <ele>206</ele>
        <time>2021-02-25T12:31:21.000Z</time>
      </trkpt>
      <trkpt lat="43.96148" lon="2.22441">
        <ele>206</ele>
        <time>2021-02-25T12:31:22.000Z</time>
      </trkpt>
      <trkpt lat="43.96149" lon="2.22442">
        <ele>206</ele>
        <time>2021-02-25T12:31:23.000Z</time>
      </trkpt>
      <trkpt lat="43.9615" lon="2.22443">
        <ele>207</ele>
        <time>2021-02-25T12:31:24.000Z</time>
      </trkpt>
      <trkpt lat="43.96152" lon="2.22444">
        <ele>207</ele>
        <time>2021-02-25T12:31:25.000Z</time>
      </trkpt>
      <trkpt lat="43.96153" lon="2.22445">
        <ele>207</ele>
        <time>2021-02-25T12:31:26.000Z</time>
      </trkpt>
      <trkpt lat="43.96154" lon="2.22446">
        <ele>207</ele>
        <time>2021-02-25T12:31:27.000Z</time>
      </trkpt>
      <trkpt lat="43.96155" lon="2.22447">
        <ele>207</ele>
        <time>2021-02-25T12:31:28.000Z</time>
      </trkpt>
      <trkpt lat="43.96156" lon="2.22448">
        <ele>207</ele>
        <time>2021-02-25T12:31:29.000Z</time>
      </trkpt>
      <trkpt lat="43.96157" lon="2.22449">
        <ele>206</ele>
        <time>2021-02-25T12:31:30.000Z</time>
      </trkpt>
      <trkpt lat="43.96158" lon="2.22451">
        <ele>206</ele>
        <time>2021-02-25T12:31:31.000Z</time>
      </trkpt>
      <trkpt lat="43.96159" lon="2.22452">
        <ele>206</ele>
        <time>2021-02-25T12:31:32.000Z</time>
      </trkpt>
      <trkpt lat="43.9616" lon="2.22453">
        <ele>206</ele>
        <time>2021-02-25T12:31:33.000Z</time>
      </trkpt>
      <trkpt lat="43.96161" lon="2.22454">
        <ele>206</ele>
        <time>2021-02-25T12:31:34.000Z</time>
      </trkpt>
      <trkpt lat="43.96162" lon="2.22455">
        <ele>205</ele>
        <time>2021-02-25T12:31:35.000Z</time>
      </trkpt>
      <trkpt lat="43.96162" lon="2.22456">
        <ele>205</ele>
        <time>2021-02-25T12:31:36.000Z</time>
      </trkpt>
      <trkpt lat="43.96163" lon="2.22458">
        <ele>205</ele>
        <time>2021-02-25T12:31:37.000Z</time>
      </trkpt>
      <trkpt lat="43.96164" lon="2.22459">
        <ele>204</ele>
        <time>2021-02-25T12:31:38.000Z</time>
      </trkpt>
      <trkpt lat="43.96165" lon="2.22461">
        <ele>204</ele>
        <time>2021-02-25T12:31:39.000Z</time>
      </trkpt>
      <trkpt lat="43.96166" lon="2.22463">
        <ele>204</ele>
        <time>2021-02-25T12:31:40.000Z</time>
      </trkpt>
      <trkpt lat="43.96166" lon="2.22464">
        <ele>203</ele>
        <time>2021-02-25T12:31:41.000Z</time>
      </trkpt>
      <trkpt lat="43.96167" lon="2.22465">
        <ele>203</ele>
        <time>2021-02-25T12:31:42.000Z</time>
      </trkpt>
      <trkpt lat="43.96168" lon="2.22467">
        <ele>203</ele>
        <time>2021-02-25T12:31:43.000Z</time>
      </trkpt>
      <trkpt lat="43.96169" lon="2.22468">
        <ele>203</ele>
        <time>2021-02-25T12:31:44.000Z</time>
      </trkpt>
      <trkpt lat="43.9617" lon="2.22469">
        <ele>203</ele>
        <time>2021-02-25T12:31:45.000Z</time>
      </trkpt>
      <trkpt lat="43.9617" lon="2.22471">
        <ele>202</ele>
        <time>2021-02-25T12:31:46.000Z</time>
      </trkpt>
      <trkpt lat="43.96171" lon="2.22472">
        <ele>202</ele>
        <time>2021-02-25T12:31:47.000Z</time>
      </trkpt>
      <trkpt lat="43.96172" lon="2.22473">
        <ele>202</ele>
        <time>2021-02-25T12:31:48.000Z</time>
      </trkpt>
      <trkpt lat="43.96173" lon="2.22475">
        <ele>202</ele>
        <time>2021-02-25T12:31:49.000Z</time>
      </trkpt>
      <trkpt lat="43.96174" lon="2.22476">
        <ele>202</ele>
        <time>2021-02-25T12:31:50.000Z</time>
      </trkpt>
      <trkpt lat="43.96174" lon="2.22477">
        <ele>202</ele>
        <time>2021-02-25T12:31:51.000Z</time>
      </trkpt>
      <trkpt lat="43.96175" lon="2.22478">
        <ele>202</ele>
        <time>2021-02-25T12:31:52.000Z</time>
      </trkpt>
      <trkpt lat="43.96176" lon="2.2248">
        <ele>201</ele>
        <time>2021-02-25T12:31:53.000Z</time>
      </trkpt>
      <trkpt lat="43.96176" lon="2.22481">
        <ele>201</ele>
        <time>2021-02-25T12:31:54.000Z</time>
      </trkpt>
      <trkpt lat="43.96177" lon="2.22482">
        <ele>201</ele>
        <time>2021-02-25T12:31:55.000Z</time>
      </trkpt>
      <trkpt lat="43.96178" lon="2.22483">
        <ele>201</ele>
        <time>2021-02-25T12:31:56.000Z</time>
      </trkpt>
      <trkpt lat="43.96178" lon="2.22484">
        <ele>201</ele>
        <time>2021-02-25T12:31:57.000Z</time>
      </trkpt>
      <trkpt lat="43.96179" lon="2.22485">
        <ele>201</ele>
        <time>2021-02-25T12:31:58.000Z</time>
      </trkpt>
      <trkpt lat="43.9618" lon="2.22486">
        <ele>201</ele>
        <time>2021-02-25T12:31:59.000Z</time>
      </trkpt>
      <trkpt lat="43.96181" lon="2.22487">
        <ele>201</ele>
        <time>2021-02-25T12:32:00.000Z</time>
      </trkpt>
      <trkpt lat="43.96181" lon="2.22488">
        <ele>201</ele>
        <time>2021-02-25T12:32:01.000Z</time>
      </trkpt>
      <trkpt lat="43.96182" lon="2.22489">
        <ele>201</ele>
        <time>2021-02-25T12:32:02.000Z</time>
      </trkpt>
      <trkpt lat="43.96182" lon="2.2249">
        <ele>201</ele>
        <time>2021-02-25T12:32:03.000Z</time>
      </trkpt>
      <trkpt lat="43.96183" lon="2.22491">
        <ele>201</ele>
        <time>2021-02-25T12:32:04.000Z</time>
      </trkpt>
      <trkpt lat="43.96183" lon="2.22492">
        <ele>201</ele>
        <time>2021-02-25T12:32:05.000Z</time>
      </trkpt>
      <trkpt lat="43.96184" lon="2.22493">
        <ele>201</ele>
        <time>2021-02-25T12:32:06.000Z</time>
      </trkpt>
      <trkpt lat="43.96185" lon="2.22494">
        <ele>201</ele>
        <time>2021-02-25T12:32:07.000Z</time>
      </trkpt>
      <trkpt lat="43.96186" lon="2.22495">
        <ele>201</ele>
        <time>2021-02-25T12:32:08.000Z</time>
      </trkpt>
      <trkpt lat="43.96187" lon="2.22497">
        <ele>201</ele>
        <time>2021-02-25T12:32:09.000Z</time>
      </trkpt>
      <trkpt lat="43.96187" lon="2.22498">
        <ele>201</ele>
        <time>2021-02-25T12:32:10.000Z</time>
      </trkpt>
      <trkpt lat="43.96188" lon="2.22499">
        <ele>201</ele>
        <time>2021-02-25T12:32:11.000Z</time>
      </trkpt>
      <trkpt lat="43.96189" lon="2.225">
        <ele>201</ele>
        <time>2021-02-25T12:32:12.000Z</time>
      </trkpt>
      <trkpt lat="43.9619" lon="2.22501">
        <ele>201</ele>
        <time>2021-02-25T12:32:13.000Z</time>
      </trkpt>
      <trkpt lat="43.96191" lon="2.22502">
        <ele>201</ele>
        <time>2021-02-25T12:32:14.000Z</time>
      </trkpt>
      <trkpt lat="43.96192" lon="2.22503">
        <ele>201</ele>
        <time>2021-02-25T12:32:15.000Z</time>
      </trkpt>
      <trkpt lat="43.96192" lon="2.22504">
        <ele>201</ele>
        <time>2021-02-25T12:32:16.000Z</time>
      </trkpt>
      <trkpt lat="43.96193" lon="2.22505">
        <ele>202</ele>
        <time>2021-02-25T12:32:17.000Z</time>
      </trkpt>
      <trkpt lat="43.96194" lon="2.22506">
        <ele>202</ele>
        <time>2021-02-25T12:32:18.000Z</time>
      </trkpt>
      <trkpt lat="43.96195" lon="2.22507">
        <ele>202</ele>
        <time>2021-02-25T12:32:19.000Z</time>
      </trkpt>
      <trkpt lat="43.96195" lon="2.22509">
        <ele>202</ele>
        <time>2021-02-25T12:32:20.000Z</time>
      </trkpt>
      <trkpt lat="43.96196" lon="2.2251">
        <ele>202</ele>
        <time>2021-02-25T12:32:21.000Z</time>
      </trkpt>
      <trkpt lat="43.96197" lon="2.22511">
        <ele>202</ele>
        <time>2021-02-25T12:32:22.000Z</time>
      </trkpt>
      <trkpt lat="43.96198" lon="2.22512">
        <ele>203</ele>
        <time>2021-02-25T12:32:23.000Z</time>
      </trkpt>
      <trkpt lat="43.96198" lon="2.22513">
        <ele>203</ele>
        <time>2021-02-25T12:32:24.000Z</time>
      </trkpt>
      <trkpt lat="43.96199" lon="2.22514">
        <ele>203</ele>
        <time>2021-02-25T12:32:25.000Z</time>
      </trkpt>
      <trkpt lat="43.96199" lon="2.22516">
        <ele>203</ele>
        <time>2021-02-25T12:32:26.000Z</time>
      </trkpt>
      <trkpt lat="43.96199" lon="2.22517">
        <ele>203</ele>
        <time>2021-02-25T12:32:27.000Z</time>
      </trkpt>
      <trkpt lat="43.962" lon="2.22519">
        <ele>203</ele>
        <time>2021-02-25T12:32:28.000Z</time>
      </trkpt>
      <trkpt lat="43.962" lon="2.2252">
        <ele>203</ele>
        <time>2021-02-25T12:32:29.000Z</time>
      </trkpt>
      <trkpt lat="43.96201" lon="2.22521">
        <ele>202</ele>
        <time>2021-02-25T12:32:30.000Z</time>
      </trkpt>
      <trkpt lat="43.96201" lon="2.22522">
        <ele>202</ele>
        <time>2021-02-25T12:32:31.000Z</time>
      </trkpt>
      <trkpt lat="43.96201" lon="2.22523">
        <ele>203</ele>
        <time>2021-02-25T12:32:32.000Z</time>
      </trkpt>
      <trkpt lat="43.96202" lon="2.22524">
        <ele>203</ele>
        <time>2021-02-25T12:32:33.000Z</time>
      </trkpt>
      <trkpt lat="43.96202" lon="2.22526">
        <ele>203</ele>
        <time>2021-02-25T12:32:34.000Z</time>
      </trkpt>
      <trkpt lat="43.96203" lon="2.22527">
        <ele>203</ele>
        <time>2021-02-25T12:32:35.000Z</time>
      </trkpt>
      <trkpt lat="43.96203" lon="2.22528">
        <ele>203</ele>
        <time>2021-02-25T12:32:36.000Z</time>
      </trkpt>
      <trkpt lat="43.96204" lon="2.22529">
        <ele>203</ele>
        <time>2021-02-25T12:32:37.000Z</time>
      </trkpt>
      <trkpt lat="43.96205" lon="2.2253">
        <ele>203</ele>
        <time>2021-02-25T12:32:38.000Z</time>
      </trkpt>
      <trkpt lat="43.96206" lon="2.22532">
        <ele>203</ele>
        <time>2021-02-25T12:32:39.000Z</time>
      </trkpt>
      <trkpt lat="43.96207" lon="2.22533">
        <ele>203</ele>
        <time>2021-02-25T12:32:40.000Z</time>
      </trkpt>
      <trkpt lat="43.96207" lon="2.22534">
        <ele>203</ele>
        <time>2021-02-25T12:32:41.000Z</time>
      </trkpt>
      <trkpt lat="43.96208" lon="2.22535">
        <ele>203</ele>
        <time>2021-02-25T12:32:42.000Z</time>
      </trkpt>
      <trkpt lat="43.96208" lon="2.22536">
        <ele>203</ele>
        <time>2021-02-25T12:32:43.000Z</time>
      </trkpt>
      <trkpt lat="43.96209" lon="2.22537">
        <ele>203</ele>
        <time>2021-02-25T12:32:44.000Z</time>
      </trkpt>
      <trkpt lat="43.96209" lon="2.22538">
        <ele>204</ele>
        <time>2021-02-25T12:32:45.000Z</time>
      </trkpt>
      <trkpt lat="43.96209" lon="2.22538">
        <ele>204</ele>
        <time>2021-02-25T12:32:46.000Z</time>
      </trkpt>
      <trkpt lat="43.9621" lon="2.2254">
        <ele>204</ele>
        <time>2021-02-25T12:32:47.000Z</time>
      </trkpt>
      <trkpt lat="43.9621" lon="2.22541">
        <ele>204</ele>
        <time>2021-02-25T12:32:48.000Z</time>
      </trkpt>
      <trkpt lat="43.96211" lon="2.22542">
        <ele>204</ele>
        <time>2021-02-25T12:32:49.000Z</time>
      </trkpt>
      <trkpt lat="43.96211" lon="2.22543">
        <ele>204</ele>
        <time>2021-02-25T12:32:50.000Z</time>
      </trkpt>
      <trkpt lat="43.96212" lon="2.22544">
        <ele>204</ele>
        <time>2021-02-25T12:32:51.000Z</time>
      </trkpt>
      <trkpt lat="43.96212" lon="2.22546">
        <ele>204</ele>
        <time>2021-02-25T12:32:52.000Z</time>
      </trkpt>
      <trkpt lat="43.96212" lon="2.22547">
        <ele>204</ele>
        <time>2021-02-25T12:32:53.000Z</time>
      </trkpt>
      <trkpt lat="43.96213" lon="2.22548">
        <ele>204</ele>
        <time>2021-02-25T12:32:54.000Z</time>
      </trkpt>
      <trkpt lat="43.96213" lon="2.22549">
        <ele>204</ele>
        <time>2021-02-25T12:32:55.000Z</time>
      </trkpt>
      <trkpt lat="43.96213" lon="2.2255">
        <ele>204</ele>
        <time>2021-02-25T12:32:56.000Z</time>
      </trkpt>
      <trkpt lat="43.96214" lon="2.22552">
        <ele>204</ele>
        <time>2021-02-25T12:32:57.000Z</time>
      </trkpt>
      <trkpt lat="43.96214" lon="2.22553">
        <ele>204</ele>
        <time>2021-02-25T12:32:58.000Z</time>
      </trkpt>
      <trkpt lat="43.96214" lon="2.22554">
        <ele>205</ele>
        <time>2021-02-25T12:32:59.000Z</time>
      </trkpt>
      <trkpt lat="43.96215" lon="2.22555">
        <ele>205</ele>
        <time>2021-02-25T12:33:00.000Z</time>
      </trkpt>
      <trkpt lat="43.96215" lon="2.22556">
        <ele>205</ele>
        <time>2021-02-25T12:33:01.000Z</time>
      </trkpt>
      <trkpt lat="43.96216" lon="2.22558">
        <ele>205</ele>
        <time>2021-02-25T12:33:02.000Z</time>
      </trkpt>
      <trkpt lat="43.96217" lon="2.22559">
        <ele>206</ele>
        <time>2021-02-25T12:33:03.000Z</time>
      </trkpt>
      <trkpt lat="43.96217" lon="2.22561">
        <ele>206</ele>
        <time>2021-02-25T12:33:04.000Z</time>
      </trkpt>
      <trkpt lat="43.96217" lon="2.22561">
        <ele>206</ele>
        <time>2021-02-25T12:33:05.000Z</time>
      </trkpt>
      <trkpt lat="43.96217" lon="2.22562">
        <ele>206</ele>
        <time>2021-02-25T12:33:06.000Z</time>
      </trkpt>
      <trkpt lat="43.96218" lon="2.22563">
        <ele>206</ele>
        <time>2021-02-25T12:33:07.000Z</time>
      </trkpt>
      <trkpt lat="43.96218" lon="2.22564">
        <ele>206</ele>
        <time>2021-02-25T12:33:08.000Z</time>
      </trkpt>
      <trkpt lat="43.96219" lon="2.22565">
        <ele>206</ele>
        <time>2021-02-25T12:33:09.000Z</time>
      </trkpt>
      <trkpt lat="43.96219" lon="2.22565">
        <ele>207</ele>
        <time>2021-02-25T12:33:10.000Z</time>
      </trkpt>
      <trkpt lat="43.9622" lon="2.22566">
        <ele>207</ele>
        <time>2021-02-25T12:33:11.000Z</time>
      </trkpt>
      <trkpt lat="43.9622" lon="2.22567">
        <ele>207</ele>
        <time>2021-02-25T12:33:12.000Z</time>
      </trkpt>
      <trkpt lat="43.96221" lon="2.22568">
        <ele>207</ele>
        <time>2021-02-25T12:33:13.000Z</time>
      </trkpt>
      <trkpt lat="43.96221" lon="2.2257">
        <ele>207</ele>
        <time>2021-02-25T12:33:14.000Z</time>
      </trkpt>
      <trkpt lat="43.96221" lon="2.2257">
        <ele>207</ele>
        <time>2021-02-25T12:33:15.000Z</time>
      </trkpt>
      <trkpt lat="43.96221" lon="2.22571">
        <ele>207</ele>
        <time>2021-02-25T12:33:16.000Z</time>
      </trkpt>
      <trkpt lat="43.96222" lon="2.22572">
        <ele>207</ele>
        <time>2021-02-25T12:33:17.000Z</time>
      </trkpt>
      <trkpt lat="43.96222" lon="2.22572">
        <ele>207</ele>
        <time>2021-02-25T12:33:18.000Z</time>
      </trkpt>
      <trkpt lat="43.96223" lon="2.22574">
        <ele>207</ele>
        <time>2021-02-25T12:33:19.000Z</time>
      </trkpt>
      <trkpt lat="43.96224" lon="2.22575">
        <ele>207</ele>
        <time>2021-02-25T12:33:20.000Z</time>
      </trkpt>
      <trkpt lat="43.96225" lon="2.22576">
        <ele>207</ele>
        <time>2021-02-25T12:33:21.000Z</time>
      </trkpt>
      <trkpt lat="43.96225" lon="2.22577">
        <ele>207</ele>
        <time>2021-02-25T12:33:22.000Z</time>
      </trkpt>
      <trkpt lat="43.96226" lon="2.22578">
        <ele>206</ele>
        <time>2021-02-25T12:33:23.000Z</time>
      </trkpt>
      <trkpt lat="43.96226" lon="2.22579">
        <ele>206</ele>
        <time>2021-02-25T12:33:24.000Z</time>
      </trkpt>
      <trkpt lat="43.96227" lon="2.2258">
        <ele>206</ele>
        <time>2021-02-25T12:33:25.000Z</time>
      </trkpt>
      <trkpt lat="43.96227" lon="2.2258">
        <ele>206</ele>
        <time>2021-02-25T12:33:26.000Z</time>
      </trkpt>
      <trkpt lat="43.96228" lon="2.2258">
        <ele>206</ele>
        <time>2021-02-25T12:33:27.000Z</time>
      </trkpt>
      <trkpt lat="43.96228" lon="2.22581">
        <ele>206</ele>
        <time>2021-02-25T12:33:28.000Z</time>
      </trkpt>
      <trkpt lat="43.96228" lon="2.22581">
        <ele>206</ele>
        <time>2021-02-25T12:33:29.000Z</time>
      </trkpt>
      <trkpt lat="43.96229" lon="2.22582">
        <ele>206</ele>
        <time>2021-02-25T12:33:30.000Z</time>
      </trkpt>
      <trkpt lat="43.96229" lon="2.22583">
        <ele>206</ele>
        <time>2021-02-25T12:33:31.000Z</time>
      </trkpt>
      <trkpt lat="43.9623" lon="2.22584">
        <ele>206</ele>
        <time>2021-02-25T12:33:32.000Z</time>
      </trkpt>
      <trkpt lat="43.9623" lon="2.22585">
        <ele>205</ele>
        <time>2021-02-25T12:33:33.000Z</time>
      </trkpt>
      <trkpt lat="43.9623" lon="2.22586">
        <ele>205</ele>
        <time>2021-02-25T12:33:34.000Z</time>
      </trkpt>
      <trkpt lat="43.9623" lon="2.22587">
        <ele>205</ele>
        <time>2021-02-25T12:33:35.000Z</time>
      </trkpt>
      <trkpt lat="43.9623" lon="2.22588">
        <ele>206</ele>
        <time>2021-02-25T12:33:36.000Z</time>
      </trkpt>
      <trkpt lat="43.9623" lon="2.22589">
        <ele>206</ele>
        <time>2021-02-25T12:33:37.000Z</time>
      </trkpt>
      <trkpt lat="43.9623" lon="2.2259">
        <ele>206</ele>
        <time>2021-02-25T12:33:38.000Z</time>
      </trkpt>
      <trkpt lat="43.9623" lon="2.22591">
        <ele>206</ele>
        <time>2021-02-25T12:33:39.000Z</time>
      </trkpt>
      <trkpt lat="43.9623" lon="2.22592">
        <ele>206</ele>
        <time>2021-02-25T12:33:40.000Z</time>
      </trkpt>
      <trkpt lat="43.96231" lon="2.22594">
        <ele>206</ele>
        <time>2021-02-25T12:33:41.000Z</time>
      </trkpt>
      <trkpt lat="43.96231" lon="2.22595">
        <ele>206</ele>
        <time>2021-02-25T12:33:42.000Z</time>
      </trkpt>
      <trkpt lat="43.96231" lon="2.22596">
        <ele>206</ele>
        <time>2021-02-25T12:33:43.000Z</time>
      </trkpt>
      <trkpt lat="43.96232" lon="2.22598">
        <ele>206</ele>
        <time>2021-02-25T12:33:44.000Z</time>
      </trkpt>
      <trkpt lat="43.96232" lon="2.22599">
        <ele>206</ele>
        <time>2021-02-25T12:33:45.000Z</time>
      </trkpt>
      <trkpt lat="43.96232" lon="2.226">
        <ele>207</ele>
        <time>2021-02-25T12:33:46.000Z</time>
      </trkpt>
      <trkpt lat="43.96233" lon="2.22601">
        <ele>207</ele>
        <time>2021-02-25T12:33:47.000Z</time>
      </trkpt>
      <trkpt lat="43.96234" lon="2.22603">
        <ele>207</ele>
        <time>2021-02-25T12:33:48.000Z</time>
      </trkpt>
      <trkpt lat="43.96234" lon="2.22605">
        <ele>207</ele>
        <time>2021-02-25T12:33:49.000Z</time>
      </trkpt>
      <trkpt lat="43.96235" lon="2.22606">
        <ele>207</ele>
        <time>2021-02-25T12:33:50.000Z</time>
      </trkpt>
      <trkpt lat="43.96236" lon="2.22608">
        <ele>207</ele>
        <time>2021-02-25T12:33:51.000Z</time>
      </trkpt>
      <trkpt lat="43.96237" lon="2.2261">
        <ele>207</ele>
        <time>2021-02-25T12:33:52.000Z</time>
      </trkpt>
      <trkpt lat="43.96238" lon="2.22612">
        <ele>207</ele>
        <time>2021-02-25T12:33:53.000Z</time>
      </trkpt>
      <trkpt lat="43.96239" lon="2.22614">
        <ele>207</ele>
        <time>2021-02-25T12:33:54.000Z</time>
      </trkpt>
      <trkpt lat="43.9624" lon="2.22616">
        <ele>207</ele>
        <time>2021-02-25T12:33:55.000Z</time>
      </trkpt>
      <trkpt lat="43.96241" lon="2.22617">
        <ele>207</ele>
        <time>2021-02-25T12:33:56.000Z</time>
      </trkpt>
      <trkpt lat="43.96242" lon="2.22619">
        <ele>207</ele>
        <time>2021-02-25T12:33:57.000Z</time>
      </trkpt>
      <trkpt lat="43.96242" lon="2.2262">
        <ele>207</ele>
        <time>2021-02-25T12:33:58.000Z</time>
      </trkpt>
      <trkpt lat="43.96243" lon="2.22622">
        <ele>207</ele>
        <time>2021-02-25T12:33:59.000Z</time>
      </trkpt>
      <trkpt lat="43.96244" lon="2.22623">
        <ele>207</ele>
        <time>2021-02-25T12:34:00.000Z</time>
      </trkpt>
      <trkpt lat="43.96245" lon="2.22625">
        <ele>207</ele>
        <time>2021-02-25T12:34:01.000Z</time>
      </trkpt>
      <trkpt lat="43.96245" lon="2.22627">
        <ele>207</ele>
        <time>2021-02-25T12:34:02.000Z</time>
      </trkpt>
      <trkpt lat="43.96245" lon="2.22629">
        <ele>207</ele>
        <time>2021-02-25T12:34:03.000Z</time>
      </trkpt>
      <trkpt lat="43.96246" lon="2.22631">
        <ele>207</ele>
        <time>2021-02-25T12:34:04.000Z</time>
      </trkpt>
      <trkpt lat="43.96246" lon="2.22633">
        <ele>207</ele>
        <time>2021-02-25T12:34:05.000Z</time>
      </trkpt>
      <trkpt lat="43.96247" lon="2.22634">
        <ele>207</ele>
        <time>2021-02-25T12:34:06.000Z</time>
      </trkpt>
      <trkpt lat="43.96247" lon="2.22636">
        <ele>207</ele>
        <time>2021-02-25T12:34:07.000Z</time>
      </trkpt>
      <trkpt lat="43.96247" lon="2.22637">
        <ele>207</ele>
        <time>2021-02-25T12:34:08.000Z</time>
      </trkpt>
      <trkpt lat="43.96247" lon="2.22639">
        <ele>207</ele>
        <time>2021-02-25T12:34:09.000Z</time>
      </trkpt>
      <trkpt lat="43.96247" lon="2.22641">
        <ele>207</ele>
        <time>2021-02-25T12:34:10.000Z</time>
      </trkpt>
      <trkpt lat="43.96248" lon="2.22643">
        <ele>207</ele>
        <time>2021-02-25T12:34:11.000Z</time>
      </trkpt>
      <trkpt lat="43.96248" lon="2.22644">
        <ele>207</ele>
        <time>2021-02-25T12:34:12.000Z</time>
      </trkpt>
      <trkpt lat="43.96249" lon="2.22646">
        <ele>207</ele>
        <time>2021-02-25T12:34:13.000Z</time>
      </trkpt>
      <trkpt lat="43.9625" lon="2.22647">
        <ele>207</ele>
        <time>2021-02-25T12:34:14.000Z</time>
      </trkpt>
      <trkpt lat="43.96251" lon="2.22648">
        <ele>207</ele>
        <time>2021-02-25T12:34:15.000Z</time>
      </trkpt>
      <trkpt lat="43.96252" lon="2.22649">
        <ele>208</ele>
        <time>2021-02-25T12:34:16.000Z</time>
      </trkpt>
      <trkpt lat="43.96253" lon="2.2265">
        <ele>208</ele>
        <time>2021-02-25T12:34:17.000Z</time>
      </trkpt>
      <trkpt lat="43.96254" lon="2.22652">
        <ele>208</ele>
        <time>2021-02-25T12:34:18.000Z</time>
      </trkpt>
      <trkpt lat="43.96254" lon="2.22654">
        <ele>208</ele>
        <time>2021-02-25T12:34:19.000Z</time>
      </trkpt>
      <trkpt lat="43.96254" lon="2.22655">
        <ele>208</ele>
        <time>2021-02-25T12:34:20.000Z</time>
      </trkpt>
      <trkpt lat="43.96255" lon="2.22657">
        <ele>208</ele>
        <time>2021-02-25T12:34:21.000Z</time>
      </trkpt>
      <trkpt lat="43.96255" lon="2.22659">
        <ele>208</ele>
        <time>2021-02-25T12:34:22.000Z</time>
      </trkpt>
      <trkpt lat="43.96256" lon="2.22661">
        <ele>209</ele>
        <time>2021-02-25T12:34:23.000Z</time>
      </trkpt>
      <trkpt lat="43.96256" lon="2.22663">
        <ele>209</ele>
        <time>2021-02-25T12:34:24.000Z</time>
      </trkpt>
      <trkpt lat="43.96257" lon="2.22664">
        <ele>209</ele>
        <time>2021-02-25T12:34:25.000Z</time>
      </trkpt>
      <trkpt lat="43.96258" lon="2.22665">
        <ele>209</ele>
        <time>2021-02-25T12:34:26.000Z</time>
      </trkpt>
      <trkpt lat="43.96259" lon="2.22667">
        <ele>209</ele>
        <time>2021-02-25T12:34:27.000Z</time>
      </trkpt>
      <trkpt lat="43.96259" lon="2.22668">
        <ele>209</ele>
        <time>2021-02-25T12:34:28.000Z</time>
      </trkpt>
      <trkpt lat="43.9626" lon="2.22669">
        <ele>209</ele>
        <time>2021-02-25T12:34:29.000Z</time>
      </trkpt>
      <trkpt lat="43.96261" lon="2.2267">
        <ele>209</ele>
        <time>2021-02-25T12:34:30.000Z</time>
      </trkpt>
      <trkpt lat="43.96262" lon="2.22671">
        <ele>209</ele>
        <time>2021-02-25T12:34:31.000Z</time>
      </trkpt>
      <trkpt lat="43.96262" lon="2.22673">
        <ele>209</ele>
        <time>2021-02-25T12:34:32.000Z</time>
      </trkpt>
      <trkpt lat="43.96263" lon="2.22675">
        <ele>209</ele>
        <time>2021-02-25T12:34:33.000Z</time>
      </trkpt>
      <trkpt lat="43.96264" lon="2.22676">
        <ele>209</ele>
        <time>2021-02-25T12:34:34.000Z</time>
      </trkpt>
      <trkpt lat="43.96265" lon="2.22677">
        <ele>209</ele>
        <time>2021-02-25T12:34:35.000Z</time>
      </trkpt>
      <trkpt lat="43.96265" lon="2.22678">
        <ele>210</ele>
        <time>2021-02-25T12:34:36.000Z</time>
      </trkpt>
      <trkpt lat="43.96266" lon="2.2268">
        <ele>210</ele>
        <time>2021-02-25T12:34:37.000Z</time>
      </trkpt>
      <trkpt lat="43.96267" lon="2.22681">
        <ele>210</ele>
        <time>2021-02-25T12:34:38.000Z</time>
      </trkpt>
      <trkpt lat="43.96267" lon="2.22682">
        <ele>210</ele>
        <time>2021-02-25T12:34:39.000Z</time>
      </trkpt>
      <trkpt lat="43.96268" lon="2.22684">
        <ele>210</ele>
        <time>2021-02-25T12:34:40.000Z</time>
      </trkpt>
      <trkpt lat="43.96269" lon="2.22685">
        <ele>210</ele>
        <time>2021-02-25T12:34:41.000Z</time>
      </trkpt>
      <trkpt lat="43.9627" lon="2.22686">
        <ele>210</ele>
        <time>2021-02-25T12:34:42.000Z</time>
      </trkpt>
      <trkpt lat="43.96271" lon="2.22687">
        <ele>209</ele>
        <time>2021-02-25T12:34:43.000Z</time>
      </trkpt>
      <trkpt lat="43.96272" lon="2.22688">
        <ele>209</ele>
        <time>2021-02-25T12:34:44.000Z</time>
      </trkpt>
      <trkpt lat="43.96272" lon="2.22689">
        <ele>209</ele>
        <time>2021-02-25T12:34:45.000Z</time>
      </trkpt>
      <trkpt lat="43.96273" lon="2.2269">
        <ele>209</ele>
        <time>2021-02-25T12:34:46.000Z</time>
      </trkpt>
      <trkpt lat="43.96274" lon="2.22691">
        <ele>209</ele>
        <time>2021-02-25T12:34:47.000Z</time>
      </trkpt>
      <trkpt lat="43.96275" lon="2.22692">
        <ele>209</ele>
        <time>2021-02-25T12:34:48.000Z</time>
      </trkpt>
      <trkpt lat="43.96276" lon="2.22694">
        <ele>209</ele>
        <time>2021-02-25T12:34:49.000Z</time>
      </trkpt>
      <trkpt lat="43.96277" lon="2.22695">
        <ele>209</ele>
        <time>2021-02-25T12:34:50.000Z</time>
      </trkpt>
      <trkpt lat="43.96278" lon="2.22696">
        <ele>209</ele>
        <time>2021-02-25T12:34:51.000Z</time>
      </trkpt>
      <trkpt lat="43.96279" lon="2.22698">
        <ele>208</ele>
        <time>2021-02-25T12:34:52.000Z</time>
      </trkpt>
      <trkpt lat="43.96279" lon="2.22699">
        <ele>208</ele>
        <time>2021-02-25T12:34:53.000Z</time>
      </trkpt>
      <trkpt lat="43.9628" lon="2.227">
        <ele>208</ele>
        <time>2021-02-25T12:34:54.000Z</time>
      </trkpt>
      <trkpt lat="43.9628" lon="2.22701">
        <ele>208</ele>
        <time>2021-02-25T12:34:55.000Z</time>
      </trkpt>
      <trkpt lat="43.9628" lon="2.22702">
        <ele>208</ele>
        <time>2021-02-25T12:34:56.000Z</time>
      </trkpt>
      <trkpt lat="43.96281" lon="2.22703">
        <ele>208</ele>
        <time>2021-02-25T12:34:57.000Z</time>
      </trkpt>
      <trkpt lat="43.96281" lon="2.22704">
        <ele>208</ele>
        <time>2021-02-25T12:34:58.000Z</time>
      </trkpt>
      <trkpt lat="43.96282" lon="2.22705">
        <ele>208</ele>
        <time>2021-02-25T12:34:59.000Z</time>
      </trkpt>
      <trkpt lat="43.96283" lon="2.22705">
        <ele>208</ele>
        <time>2021-02-25T12:35:00.000Z</time>
      </trkpt>
      <trkpt lat="43.96284" lon="2.22706">
        <ele>208</ele>
        <time>2021-02-25T12:35:01.000Z</time>
      </trkpt>
      <trkpt lat="43.96285" lon="2.22707">
        <ele>209</ele>
        <time>2021-02-25T12:35:02.000Z</time>
      </trkpt>
      <trkpt lat="43.96285" lon="2.22707">
        <ele>209</ele>
        <time>2021-02-25T12:35:03.000Z</time>
      </trkpt>
      <trkpt lat="43.96286" lon="2.22708">
        <ele>209</ele>
        <time>2021-02-25T12:35:04.000Z</time>
      </trkpt>
      <trkpt lat="43.96287" lon="2.22709">
        <ele>209</ele>
        <time>2021-02-25T12:35:05.000Z</time>
      </trkpt>
      <trkpt lat="43.96288" lon="2.2271">
        <ele>209</ele>
        <time>2021-02-25T12:35:06.000Z</time>
      </trkpt>
      <trkpt lat="43.96288" lon="2.22711">
        <ele>209</ele>
        <time>2021-02-25T12:35:07.000Z</time>
      </trkpt>
      <trkpt lat="43.96289" lon="2.22712">
        <ele>209</ele>
        <time>2021-02-25T12:35:08.000Z</time>
      </trkpt>
      <trkpt lat="43.9629" lon="2.22712">
        <ele>209</ele>
        <time>2021-02-25T12:35:09.000Z</time>
      </trkpt>
      <trkpt lat="43.9629" lon="2.22713">
        <ele>209</ele>
        <time>2021-02-25T12:35:10.000Z</time>
      </trkpt>
      <trkpt lat="43.96291" lon="2.22713">
        <ele>210</ele>
        <time>2021-02-25T12:35:11.000Z</time>
      </trkpt>
      <trkpt lat="43.96291" lon="2.22714">
        <ele>210</ele>
        <time>2021-02-25T12:35:12.000Z</time>
      </trkpt>
      <trkpt lat="43.96292" lon="2.22715">
        <ele>210</ele>
        <time>2021-02-25T12:35:13.000Z</time>
      </trkpt>
      <trkpt lat="43.96293" lon="2.22715">
        <ele>210</ele>
        <time>2021-02-25T12:35:14.000Z</time>
      </trkpt>
      <trkpt lat="43.96294" lon="2.22716">
        <ele>210</ele>
        <time>2021-02-25T12:35:15.000Z</time>
      </trkpt>
      <trkpt lat="43.96295" lon="2.22717">
        <ele>211</ele>
        <time>2021-02-25T12:35:16.000Z</time>
      </trkpt>
      <trkpt lat="43.96295" lon="2.22718">
        <ele>211</ele>
        <time>2021-02-25T12:35:17.000Z</time>
      </trkpt>
      <trkpt lat="43.96296" lon="2.22718">
        <ele>211</ele>
        <time>2021-02-25T12:35:18.000Z</time>
      </trkpt>
      <trkpt lat="43.96297" lon="2.22719">
        <ele>211</ele>
        <time>2021-02-25T12:35:19.000Z</time>
      </trkpt>
      <trkpt lat="43.96298" lon="2.22719">
        <ele>211</ele>
        <time>2021-02-25T12:35:20.000Z</time>
      </trkpt>
      <trkpt lat="43.96299" lon="2.2272">
        <ele>212</ele>
        <time>2021-02-25T12:35:21.000Z</time>
      </trkpt>
      <trkpt lat="43.96299" lon="2.22721">
        <ele>212</ele>
        <time>2021-02-25T12:35:22.000Z</time>
      </trkpt>
      <trkpt lat="43.963" lon="2.22722">
        <ele>212</ele>
        <time>2021-02-25T12:35:23.000Z</time>
      </trkpt>
      <trkpt lat="43.963" lon="2.22722">
        <ele>212</ele>
        <time>2021-02-25T12:35:24.000Z</time>
      </trkpt>
      <trkpt lat="43.96301" lon="2.22722">
        <ele>213</ele>
        <time>2021-02-25T12:35:25.000Z</time>
      </trkpt>
      <trkpt lat="43.96302" lon="2.22723">
        <ele>213</ele>
        <time>2021-02-25T12:35:26.000Z</time>
      </trkpt>
      <trkpt lat="43.96302" lon="2.22724">
        <ele>213</ele>
        <time>2021-02-25T12:35:27.000Z</time>
      </trkpt>
      <trkpt lat="43.96303" lon="2.22724">
        <ele>213</ele>
        <time>2021-02-25T12:35:28.000Z</time>
      </trkpt>
      <trkpt lat="43.96304" lon="2.22725">
        <ele>213</ele>
        <time>2021-02-25T12:35:29.000Z</time>
      </trkpt>
      <trkpt lat="43.96304" lon="2.22726">
        <ele>214</ele>
        <time>2021-02-25T12:35:30.000Z</time>
      </trkpt>
      <trkpt lat="43.96305" lon="2.22726">
        <ele>214</ele>
        <time>2021-02-25T12:35:31.000Z</time>
      </trkpt>
      <trkpt lat="43.96306" lon="2.22727">
        <ele>214</ele>
        <time>2021-02-25T12:35:32.000Z</time>
      </trkpt>
      <trkpt lat="43.96306" lon="2.22728">
        <ele>214</ele>
        <time>2021-02-25T12:35:33.000Z</time>
      </trkpt>
      <trkpt lat="43.96307" lon="2.22728">
        <ele>214</ele>
        <time>2021-02-25T12:35:34.000Z</time>
      </trkpt>
      <trkpt lat="43.96308" lon="2.22729">
        <ele>214</ele>
        <time>2021-02-25T12:35:35.000Z</time>
      </trkpt>
      <trkpt lat="43.96309" lon="2.2273">
        <ele>214</ele>
        <time>2021-02-25T12:35:36.000Z</time>
      </trkpt>
      <trkpt lat="43.9631" lon="2.22731">
        <ele>214</ele>
        <time>2021-02-25T12:35:37.000Z</time>
      </trkpt>
      <trkpt lat="43.96311" lon="2.22731">
        <ele>215</ele>
        <time>2021-02-25T12:35:38.000Z</time>
      </trkpt>
      <trkpt lat="43.96312" lon="2.22732">
        <ele>215</ele>
        <time>2021-02-25T12:35:39.000Z</time>
      </trkpt>
      <trkpt lat="43.96312" lon="2.22732">
        <ele>215</ele>
        <time>2021-02-25T12:35:40.000Z</time>
      </trkpt>
      <trkpt lat="43.96313" lon="2.22732">
        <ele>215</ele>
        <time>2021-02-25T12:35:41.000Z</time>
      </trkpt>
      <trkpt lat="43.96314" lon="2.22732">
        <ele>215</ele>
        <time>2021-02-25T12:35:42.000Z</time>
      </trkpt>
      <trkpt lat="43.96314" lon="2.22733">
        <ele>215</ele>
        <time>2021-02-25T12:35:43.000Z</time>
      </trkpt>
      <trkpt lat="43.96315" lon="2.22733">
        <ele>216</ele>
        <time>2021-02-25T12:35:44.000Z</time>
      </trkpt>
      <trkpt lat="43.96316" lon="2.22733">
        <ele>216</ele>
        <time>2021-02-25T12:35:45.000Z</time>
      </trkpt>
      <trkpt lat="43.96316" lon="2.22733">
        <ele>216</ele>
        <time>2021-02-25T12:35:46.000Z</time>
      </trkpt>
      <trkpt lat="43.96317" lon="2.22734">
        <ele>216</ele>
        <time>2021-02-25T12:35:47.000Z</time>
      </trkpt>
      <trkpt lat="43.96318" lon="2.22735">
        <ele>217</ele>
        <time>2021-02-25T12:35:48.000Z</time>
      </trkpt>
      <trkpt lat="43.96319" lon="2.22736">
        <ele>217</ele>
        <time>2021-02-25T12:35:49.000Z</time>
      </trkpt>
      <trkpt lat="43.9632" lon="2.22737">
        <ele>217</ele>
        <time>2021-02-25T12:35:50.000Z</time>
      </trkpt>
      <trkpt lat="43.96321" lon="2.22738">
        <ele>217</ele>
        <time>2021-02-25T12:35:51.000Z</time>
      </trkpt>
      <trkpt lat="43.96322" lon="2.22739">
        <ele>218</ele>
        <time>2021-02-25T12:35:52.000Z</time>
      </trkpt>
      <trkpt lat="43.96323" lon="2.2274">
        <ele>218</ele>
        <time>2021-02-25T12:35:53.000Z</time>
      </trkpt>
      <trkpt lat="43.96324" lon="2.22742">
        <ele>218</ele>
        <time>2021-02-25T12:35:54.000Z</time>
      </trkpt>
      <trkpt lat="43.96324" lon="2.22743">
        <ele>218</ele>
        <time>2021-02-25T12:35:55.000Z</time>
      </trkpt>
      <trkpt lat="43.96325" lon="2.22744">
        <ele>218</ele>
        <time>2021-02-25T12:35:56.000Z</time>
      </trkpt>
      <trkpt lat="43.96325" lon="2.22745">
        <ele>219</ele>
        <time>2021-02-25T12:35:57.000Z</time>
      </trkpt>
      <trkpt lat="43.96326" lon="2.22746">
        <ele>219</ele>
        <time>2021-02-25T12:35:58.000Z</time>
      </trkpt>
      <trkpt lat="43.96326" lon="2.22747">
        <ele>219</ele>
        <time>2021-02-25T12:35:59.000Z</time>
      </trkpt>
      <trkpt lat="43.96326" lon="2.22748">
        <ele>219</ele>
        <time>2021-02-25T12:36:00.000Z</time>
      </trkpt>
      <trkpt lat="43.96327" lon="2.22749">
        <ele>219</ele>
        <time>2021-02-25T12:36:01.000Z</time>
      </trkpt>
      <trkpt lat="43.96327" lon="2.2275">
        <ele>220</ele>
        <time>2021-02-25T12:36:02.000Z</time>
      </trkpt>
      <trkpt lat="43.96327" lon="2.22751">
        <ele>220</ele>
        <time>2021-02-25T12:36:03.000Z</time>
      </trkpt>
      <trkpt lat="43.96327" lon="2.22752">
        <ele>220</ele>
        <time>2021-02-25T12:36:04.000Z</time>
      </trkpt>
      <trkpt lat="43.96327" lon="2.22753">
        <ele>220</ele>
        <time>2021-02-25T12:36:05.000Z</time>
      </trkpt>
      <trkpt lat="43.96327" lon="2.22754">
        <ele>220</ele>
        <time>2021-02-25T12:36:06.000Z</time>
      </trkpt>
      <trkpt lat="43.96327" lon="2.22755">
        <ele>221</ele>
        <time>2021-02-25T12:36:07.000Z</time>
      </trkpt>
      <trkpt lat="43.96328" lon="2.22756">
        <ele>221</ele>
        <time>2021-02-25T12:36:08.000Z</time>
      </trkpt>
      <trkpt lat="43.96328" lon="2.22758">
        <ele>221</ele>
        <time>2021-02-25T12:36:09.000Z</time>
      </trkpt>
      <trkpt lat="43.96329" lon="2.22759">
        <ele>221</ele>
        <time>2021-02-25T12:36:10.000Z</time>
      </trkpt>
      <trkpt lat="43.96329" lon="2.2276">
        <ele>221</ele>
        <time>2021-02-25T12:36:11.000Z</time>
      </trkpt>
      <trkpt lat="43.9633" lon="2.22761">
        <ele>222</ele>
        <time>2021-02-25T12:36:12.000Z</time>
      </trkpt>
      <trkpt lat="43.9633" lon="2.22762">
        <ele>222</ele>
        <time>2021-02-25T12:36:13.000Z</time>
      </trkpt>
      <trkpt lat="43.96331" lon="2.22763">
        <ele>222</ele>
        <time>2021-02-25T12:36:14.000Z</time>
      </trkpt>
      <trkpt lat="43.96332" lon="2.22764">
        <ele>222</ele>
        <time>2021-02-25T12:36:15.000Z</time>
      </trkpt>
      <trkpt lat="43.96332" lon="2.22765">
        <ele>222</ele>
        <time>2021-02-25T12:36:16.000Z</time>
      </trkpt>
      <trkpt lat="43.96332" lon="2.22766">
        <ele>223</ele>
        <time>2021-02-25T12:36:17.000Z</time>
      </trkpt>
      <trkpt lat="43.96332" lon="2.22767">
        <ele>223</ele>
        <time>2021-02-25T12:36:18.000Z</time>
      </trkpt>
      <trkpt lat="43.96333" lon="2.22768">
        <ele>223</ele>
        <time>2021-02-25T12:36:19.000Z</time>
      </trkpt>
      <trkpt lat="43.96332" lon="2.22769">
        <ele>223</ele>
        <time>2021-02-25T12:36:20.000Z</time>
      </trkpt>
      <trkpt lat="43.96332" lon="2.22771">
        <ele>223</ele>
        <time>2021-02-25T12:36:21.000Z</time>
      </trkpt>
      <trkpt lat="43.96332" lon="2.22771">
        <ele>223</ele>
        <time>2021-02-25T12:36:22.000Z</time>
      </trkpt>
      <trkpt lat="43.96332" lon="2.22772">
        <ele>224</ele>
        <time>2021-02-25T12:36:23.000Z</time>
      </trkpt>
      <trkpt lat="43.96332" lon="2.22773">
        <ele>224</ele>
        <time>2021-02-25T12:36:24.000Z</time>
      </trkpt>
      <trkpt lat="43.96332" lon="2.22774">
        <ele>224</ele>
        <time>2021-02-25T12:36:25.000Z</time>
      </trkpt>
      <trkpt lat="43.96331" lon="2.22775">
        <ele>224</ele>
        <time>2021-02-25T12:36:26.000Z</time>
      </trkpt>
      <trkpt lat="43.9633" lon="2.22776">
        <ele>224</ele>
        <time>2021-02-25T12:36:27.000Z</time>
      </trkpt>
      <trkpt lat="43.96329" lon="2.22777">
        <ele>224</ele>
        <time>2021-02-25T12:36:28.000Z</time>
      </trkpt>
      <trkpt lat="43.96329" lon="2.22778">
        <ele>224</ele>
        <time>2021-02-25T12:36:29.000Z</time>
      </trkpt>
      <trkpt lat="43.96329" lon="2.2278">
        <ele>224</ele>
        <time>2021-02-25T12:36:30.000Z</time>
      </trkpt>
      <trkpt lat="43.96328" lon="2.22781">
        <ele>225</ele>
        <time>2021-02-25T12:36:31.000Z</time>
      </trkpt>
      <trkpt lat="43.96328" lon="2.22782">
        <ele>225</ele>
        <time>2021-02-25T12:36:32.000Z</time>
      </trkpt>
      <trkpt lat="43.96328" lon="2.22783">
        <ele>225</ele>
        <time>2021-02-25T12:36:33.000Z</time>
      </trkpt>
      <trkpt lat="43.96328" lon="2.22783">
        <ele>225</ele>
        <time>2021-02-25T12:36:34.000Z</time>
      </trkpt>
      <trkpt lat="43.96328" lon="2.22784">
        <ele>225</ele>
        <time>2021-02-25T12:36:35.000Z</time>
      </trkpt>
      <trkpt lat="43.96329" lon="2.22785">
        <ele>225</ele>
        <time>2021-02-25T12:36:36.000Z</time>
      </trkpt>
      <trkpt lat="43.96328" lon="2.22787">
        <ele>225</ele>
        <time>2021-02-25T12:36:37.000Z</time>
      </trkpt>
      <trkpt lat="43.96328" lon="2.22788">
        <ele>225</ele>
        <time>2021-02-25T12:36:38.000Z</time>
      </trkpt>
      <trkpt lat="43.96328" lon="2.22789">
        <ele>225</ele>
        <time>2021-02-25T12:36:39.000Z</time>
      </trkpt>
      <trkpt lat="43.96328" lon="2.22791">
        <ele>225</ele>
        <time>2021-02-25T12:36:40.000Z</time>
      </trkpt>
      <trkpt lat="43.96328" lon="2.22792">
        <ele>225</ele>
        <time>2021-02-25T12:36:41.000Z</time>
      </trkpt>
      <trkpt lat="43.96327" lon="2.22793">
        <ele>225</ele>
        <time>2021-02-25T12:36:42.000Z</time>
      </trkpt>
      <trkpt lat="43.96327" lon="2.22794">
        <ele>225</ele>
        <time>2021-02-25T12:36:43.000Z</time>
      </trkpt>
      <trkpt lat="43.96327" lon="2.22795">
        <ele>225</ele>
        <time>2021-02-25T12:36:44.000Z</time>
      </trkpt>
      <trkpt lat="43.96327" lon="2.22796">
        <ele>225</ele>
        <time>2021-02-25T12:36:45.000Z</time>
      </trkpt>
      <trkpt lat="43.96327" lon="2.22796">
        <ele>225</ele>
        <time>2021-02-25T12:36:46.000Z</time>
      </trkpt>
      <trkpt lat="43.96328" lon="2.22797">
        <ele>225</ele>
        <time>2021-02-25T12:36:47.000Z</time>
      </trkpt>
      <trkpt lat="43.96328" lon="2.22798">
        <ele>225</ele>
        <time>2021-02-25T12:36:48.000Z</time>
      </trkpt>
      <trkpt lat="43.96329" lon="2.22799">
        <ele>225</ele>
        <time>2021-02-25T12:36:49.000Z</time>
      </trkpt>
      <trkpt lat="43.9633" lon="2.228">
        <ele>225</ele>
        <time>2021-02-25T12:36:50.000Z</time>
      </trkpt>
      <trkpt lat="43.96331" lon="2.22802">
        <ele>225</ele>
        <time>2021-02-25T12:36:51.000Z</time>
      </trkpt>
      <trkpt lat="43.96332" lon="2.22804">
        <ele>225</ele>
        <time>2021-02-25T12:36:52.000Z</time>
      </trkpt>
      <trkpt lat="43.96332" lon="2.22805">
        <ele>225</ele>
        <time>2021-02-25T12:36:53.000Z</time>
      </trkpt>
      <trkpt lat="43.96333" lon="2.22806">
        <ele>225</ele>
        <time>2021-02-25T12:36:54.000Z</time>
      </trkpt>
      <trkpt lat="43.96333" lon="2.22808">
        <ele>225</ele>
        <time>2021-02-25T12:36:55.000Z</time>
      </trkpt>
      <trkpt lat="43.96334" lon="2.22809">
        <ele>225</ele>
        <time>2021-02-25T12:36:56.000Z</time>
      </trkpt>
      <trkpt lat="43.96335" lon="2.2281">
        <ele>225</ele>
        <time>2021-02-25T12:36:57.000Z</time>
      </trkpt>
      <trkpt lat="43.96335" lon="2.22811">
        <ele>225</ele>
        <time>2021-02-25T12:36:58.000Z</time>
      </trkpt>
      <trkpt lat="43.96336" lon="2.22813">
        <ele>224</ele>
        <time>2021-02-25T12:36:59.000Z</time>
      </trkpt>
      <trkpt lat="43.96337" lon="2.22814">
        <ele>224</ele>
        <time>2021-02-25T12:37:00.000Z</time>
      </trkpt>
      <trkpt lat="43.96338" lon="2.22816">
        <ele>224</ele>
        <time>2021-02-25T12:37:01.000Z</time>
      </trkpt>
      <trkpt lat="43.96338" lon="2.22817">
        <ele>224</ele>
        <time>2021-02-25T12:37:02.000Z</time>
      </trkpt>
      <trkpt lat="43.96339" lon="2.22819">
        <ele>224</ele>
        <time>2021-02-25T12:37:03.000Z</time>
      </trkpt>
      <trkpt lat="43.96339" lon="2.2282">
        <ele>224</ele>
        <time>2021-02-25T12:37:04.000Z</time>
      </trkpt>
      <trkpt lat="43.9634" lon="2.22822">
        <ele>224</ele>
        <time>2021-02-25T12:37:05.000Z</time>
      </trkpt>
      <trkpt lat="43.9634" lon="2.22824">
        <ele>224</ele>
        <time>2021-02-25T12:37:06.000Z</time>
      </trkpt>
      <trkpt lat="43.96341" lon="2.22825">
        <ele>223</ele>
        <time>2021-02-25T12:37:07.000Z</time>
      </trkpt>
      <trkpt lat="43.96341" lon="2.22827">
        <ele>223</ele>
        <time>2021-02-25T12:37:08.000Z</time>
      </trkpt>
      <trkpt lat="43.96342" lon="2.22828">
        <ele>223</ele>
        <time>2021-02-25T12:37:09.000Z</time>
      </trkpt>
      <trkpt lat="43.96342" lon="2.2283">
        <ele>222</ele>
        <time>2021-02-25T12:37:10.000Z</time>
      </trkpt>
      <trkpt lat="43.96343" lon="2.22831">
        <ele>222</ele>
        <time>2021-02-25T12:37:11.000Z</time>
      </trkpt>
      <trkpt lat="43.96344" lon="2.22832">
        <ele>222</ele>
        <time>2021-02-25T12:37:12.000Z</time>
      </trkpt>
      <trkpt lat="43.96344" lon="2.22834">
        <ele>222</ele>
        <time>2021-02-25T12:37:13.000Z</time>
      </trkpt>
      <trkpt lat="43.96344" lon="2.22835">
        <ele>222</ele>
        <time>2021-02-25T12:37:14.000Z</time>
      </trkpt>
      <trkpt lat="43.96344" lon="2.22837">
        <ele>221</ele>
        <time>2021-02-25T12:37:15.000Z</time>
      </trkpt>
      <trkpt lat="43.96345" lon="2.22839">
        <ele>221</ele>
        <time>2021-02-25T12:37:16.000Z</time>
      </trkpt>
      <trkpt lat="43.96345" lon="2.2284">
        <ele>221</ele>
        <time>2021-02-25T12:37:17.000Z</time>
      </trkpt>
      <trkpt lat="43.96345" lon="2.22842">
        <ele>220</ele>
        <time>2021-02-25T12:37:18.000Z</time>
      </trkpt>
      <trkpt lat="43.96344" lon="2.22843">
        <ele>220</ele>
        <time>2021-02-25T12:37:19.000Z</time>
      </trkpt>
      <trkpt lat="43.96344" lon="2.22845">
        <ele>220</ele>
        <time>2021-02-25T12:37:20.000Z</time>
      </trkpt>
      <trkpt lat="43.96344" lon="2.22846">
        <ele>219</ele>
        <time>2021-02-25T12:37:21.000Z</time>
      </trkpt>
      <trkpt lat="43.96344" lon="2.22848">
        <ele>219</ele>
        <time>2021-02-25T12:37:22.000Z</time>
      </trkpt>
      <trkpt lat="43.96344" lon="2.22849">
        <ele>219</ele>
        <time>2021-02-25T12:37:23.000Z</time>
      </trkpt>
      <trkpt lat="43.96345" lon="2.22851">
        <ele>219</ele>
        <time>2021-02-25T12:37:24.000Z</time>
      </trkpt>
      <trkpt lat="43.96345" lon="2.22853">
        <ele>218</ele>
        <time>2021-02-25T12:37:25.000Z</time>
      </trkpt>
      <trkpt lat="43.96345" lon="2.22854">
        <ele>218</ele>
        <time>2021-02-25T12:37:26.000Z</time>
      </trkpt>
      <trkpt lat="43.96345" lon="2.22856">
        <ele>218</ele>
        <time>2021-02-25T12:37:27.000Z</time>
      </trkpt>
      <trkpt lat="43.96345" lon="2.22858">
        <ele>218</ele>
        <time>2021-02-25T12:37:28.000Z</time>
      </trkpt>
      <trkpt lat="43.96345" lon="2.22859">
        <ele>217</ele>
        <time>2021-02-25T12:37:29.000Z</time>
      </trkpt>
      <trkpt lat="43.96345" lon="2.22861">
        <ele>217</ele>
        <time>2021-02-25T12:37:30.000Z</time>
      </trkpt>
      <trkpt lat="43.96346" lon="2.22863">
        <ele>217</ele>
        <time>2021-02-25T12:37:31.000Z</time>
      </trkpt>
      <trkpt lat="43.96346" lon="2.22864">
        <ele>217</ele>
        <time>2021-02-25T12:37:32.000Z</time>
      </trkpt>
      <trkpt lat="43.96346" lon="2.22866">
        <ele>217</ele>
        <time>2021-02-25T12:37:33.000Z</time>
      </trkpt>
      <trkpt lat="43.96346" lon="2.22867">
        <ele>217</ele>
        <time>2021-02-25T12:37:34.000Z</time>
      </trkpt>
      <trkpt lat="43.96346" lon="2.22869">
        <ele>217</ele>
        <time>2021-02-25T12:37:35.000Z</time>
      </trkpt>
      <trkpt lat="43.96347" lon="2.2287">
        <ele>216</ele>
        <time>2021-02-25T12:37:36.000Z</time>
      </trkpt>
      <trkpt lat="43.96347" lon="2.22872">
        <ele>216</ele>
        <time>2021-02-25T12:37:37.000Z</time>
      </trkpt>
      <trkpt lat="43.96347" lon="2.22873">
        <ele>216</ele>
        <time>2021-02-25T12:37:38.000Z</time>
      </trkpt>
      <trkpt lat="43.96348" lon="2.22875">
        <ele>216</ele>
        <time>2021-02-25T12:37:39.000Z</time>
      </trkpt>
      <trkpt lat="43.96348" lon="2.22876">
        <ele>216</ele>
        <time>2021-02-25T12:37:40.000Z</time>
      </trkpt>
      <trkpt lat="43.96349" lon="2.22877">
        <ele>216</ele>
        <time>2021-02-25T12:37:41.000Z</time>
      </trkpt>
      <trkpt lat="43.96349" lon="2.22879">
        <ele>216</ele>
        <time>2021-02-25T12:37:42.000Z</time>
      </trkpt>
      <trkpt lat="43.9635" lon="2.22881">
        <ele>216</ele>
        <time>2021-02-25T12:37:43.000Z</time>
      </trkpt>
      <trkpt lat="43.9635" lon="2.22882">
        <ele>216</ele>
        <time>2021-02-25T12:37:44.000Z</time>
      </trkpt>
      <trkpt lat="43.9635" lon="2.22884">
        <ele>216</ele>
        <time>2021-02-25T12:37:45.000Z</time>
      </trkpt>
      <trkpt lat="43.9635" lon="2.22885">
        <ele>216</ele>
        <time>2021-02-25T12:37:46.000Z</time>
      </trkpt>
      <trkpt lat="43.9635" lon="2.22887">
        <ele>216</ele>
        <time>2021-02-25T12:37:47.000Z</time>
      </trkpt>
      <trkpt lat="43.96349" lon="2.22888">
        <ele>215</ele>
        <time>2021-02-25T12:37:48.000Z</time>
      </trkpt>
      <trkpt lat="43.96349" lon="2.22889">
        <ele>215</ele>
        <time>2021-02-25T12:37:49.000Z</time>
      </trkpt>
      <trkpt lat="43.96348" lon="2.22891">
        <ele>215</ele>
        <time>2021-02-25T12:37:50.000Z</time>
      </trkpt>
      <trkpt lat="43.96348" lon="2.22892">
        <ele>215</ele>
        <time>2021-02-25T12:37:51.000Z</time>
      </trkpt>
      <trkpt lat="43.96348" lon="2.22893">
        <ele>215</ele>
        <time>2021-02-25T12:37:52.000Z</time>
      </trkpt>
      <trkpt lat="43.96347" lon="2.22895">
        <ele>214</ele>
        <time>2021-02-25T12:37:53.000Z</time>
      </trkpt>
      <trkpt lat="43.96348" lon="2.22896">
        <ele>214</ele>
        <time>2021-02-25T12:37:54.000Z</time>
      </trkpt>
      <trkpt lat="43.96348" lon="2.22897">
        <ele>214</ele>
        <time>2021-02-25T12:37:55.000Z</time>
      </trkpt>
      <trkpt lat="43.96348" lon="2.22897">
        <ele>214</ele>
        <time>2021-02-25T12:37:56.000Z</time>
      </trkpt>
      <trkpt lat="43.96348" lon="2.22897">
        <ele>214</ele>
        <time>2021-02-25T12:37:57.000Z</time>
      </trkpt>
      <trkpt lat="43.9635" lon="2.22907">
        <ele>213</ele>
        <time>2021-02-25T12:37:58.000Z</time>
      </trkpt>
      <trkpt lat="43.96351" lon="2.22907">
        <ele>213</ele>
        <time>2021-02-25T12:37:59.000Z</time>
      </trkpt>
      <trkpt lat="43.96351" lon="2.22907">
        <ele>213</ele>
        <time>2021-02-25T12:38:00.000Z</time>
      </trkpt>
      <trkpt lat="43.96352" lon="2.22908">
        <ele>214</ele>
        <time>2021-02-25T12:38:01.000Z</time>
      </trkpt>
      <trkpt lat="43.96353" lon="2.22908">
        <ele>214</ele>
        <time>2021-02-25T12:38:02.000Z</time>
      </trkpt>
      <trkpt lat="43.96354" lon="2.22909">
        <ele>214</ele>
        <time>2021-02-25T12:38:03.000Z</time>
      </trkpt>
      <trkpt lat="43.96354" lon="2.2291">
        <ele>214</ele>
        <time>2021-02-25T12:38:04.000Z</time>
      </trkpt>
      <trkpt lat="43.96355" lon="2.22912">
        <ele>214</ele>
        <time>2021-02-25T12:38:05.000Z</time>
      </trkpt>
      <trkpt lat="43.96355" lon="2.22913">
        <ele>214</ele>
        <time>2021-02-25T12:38:06.000Z</time>
      </trkpt>
      <trkpt lat="43.96355" lon="2.22914">
        <ele>213</ele>
        <time>2021-02-25T12:38:07.000Z</time>
      </trkpt>
      <trkpt lat="43.96355" lon="2.22915">
        <ele>213</ele>
        <time>2021-02-25T12:38:08.000Z</time>
      </trkpt>
      <trkpt lat="43.96355" lon="2.22917">
        <ele>213</ele>
        <time>2021-02-25T12:38:09.000Z</time>
      </trkpt>
      <trkpt lat="43.96356" lon="2.22918">
        <ele>213</ele>
        <time>2021-02-25T12:38:10.000Z</time>
      </trkpt>
      <trkpt lat="43.96356" lon="2.2292">
        <ele>213</ele>
        <time>2021-02-25T12:38:11.000Z</time>
      </trkpt>
      <trkpt lat="43.96357" lon="2.22921">
        <ele>213</ele>
        <time>2021-02-25T12:38:12.000Z</time>
      </trkpt>
      <trkpt lat="43.96358" lon="2.22922">
        <ele>213</ele>
        <time>2021-02-25T12:38:13.000Z</time>
      </trkpt>
      <trkpt lat="43.96358" lon="2.22923">
        <ele>212</ele>
        <time>2021-02-25T12:38:14.000Z</time>
      </trkpt>
      <trkpt lat="43.96359" lon="2.22924">
        <ele>212</ele>
        <time>2021-02-25T12:38:15.000Z</time>
      </trkpt>
      <trkpt lat="43.9636" lon="2.22925">
        <ele>212</ele>
        <time>2021-02-25T12:38:16.000Z</time>
      </trkpt>
      <trkpt lat="43.9636" lon="2.22927">
        <ele>212</ele>
        <time>2021-02-25T12:38:17.000Z</time>
      </trkpt>
      <trkpt lat="43.96361" lon="2.22928">
        <ele>212</ele>
        <time>2021-02-25T12:38:18.000Z</time>
      </trkpt>
      <trkpt lat="43.96362" lon="2.22929">
        <ele>212</ele>
        <time>2021-02-25T12:38:19.000Z</time>
      </trkpt>
      <trkpt lat="43.96362" lon="2.22929">
        <ele>212</ele>
        <time>2021-02-25T12:38:20.000Z</time>
      </trkpt>
      <trkpt lat="43.96363" lon="2.2293">
        <ele>212</ele>
        <time>2021-02-25T12:38:21.000Z</time>
      </trkpt>
      <trkpt lat="43.96364" lon="2.22931">
        <ele>212</ele>
        <time>2021-02-25T12:38:22.000Z</time>
      </trkpt>
      <trkpt lat="43.96365" lon="2.22932">
        <ele>212</ele>
        <time>2021-02-25T12:38:23.000Z</time>
      </trkpt>
      <trkpt lat="43.96366" lon="2.22932">
        <ele>212</ele>
        <time>2021-02-25T12:38:24.000Z</time>
      </trkpt>
      <trkpt lat="43.96366" lon="2.22933">
        <ele>213</ele>
        <time>2021-02-25T12:38:25.000Z</time>
      </trkpt>
      <trkpt lat="43.96367" lon="2.22934">
        <ele>213</ele>
        <time>2021-02-25T12:38:26.000Z</time>
      </trkpt>
      <trkpt lat="43.96368" lon="2.22935">
        <ele>213</ele>
        <time>2021-02-25T12:38:27.000Z</time>
      </trkpt>
      <trkpt lat="43.96368" lon="2.22935">
        <ele>213</ele>
        <time>2021-02-25T12:38:28.000Z</time>
      </trkpt>
      <trkpt lat="43.96369" lon="2.22936">
        <ele>213</ele>
        <time>2021-02-25T12:38:29.000Z</time>
      </trkpt>
      <trkpt lat="43.9637" lon="2.22936">
        <ele>213</ele>
        <time>2021-02-25T12:38:30.000Z</time>
      </trkpt>
      <trkpt lat="43.9637" lon="2.22937">
        <ele>213</ele>
        <time>2021-02-25T12:38:31.000Z</time>
      </trkpt>
      <trkpt lat="43.9637" lon="2.22938">
        <ele>213</ele>
        <time>2021-02-25T12:38:32.000Z</time>
      </trkpt>
      <trkpt lat="43.96371" lon="2.22939">
        <ele>213</ele>
        <time>2021-02-25T12:38:33.000Z</time>
      </trkpt>
      <trkpt lat="43.96371" lon="2.22939">
        <ele>213</ele>
        <time>2021-02-25T12:38:34.000Z</time>
      </trkpt>
      <trkpt lat="43.96371" lon="2.2294">
        <ele>213</ele>
        <time>2021-02-25T12:38:35.000Z</time>
      </trkpt>
      <trkpt lat="43.96371" lon="2.2294">
        <ele>212</ele>
        <time>2021-02-25T12:38:36.000Z</time>
      </trkpt>
      <trkpt lat="43.96371" lon="2.22941">
        <ele>212</ele>
        <time>2021-02-25T12:38:37.000Z</time>
      </trkpt>
      <trkpt lat="43.96371" lon="2.22941">
        <ele>212</ele>
        <time>2021-02-25T12:38:38.000Z</time>
      </trkpt>
      <trkpt lat="43.96372" lon="2.22942">
        <ele>212</ele>
        <time>2021-02-25T12:38:39.000Z</time>
      </trkpt>
      <trkpt lat="43.96373" lon="2.22943">
        <ele>212</ele>
        <time>2021-02-25T12:38:40.000Z</time>
      </trkpt>
      <trkpt lat="43.96373" lon="2.22943">
        <ele>212</ele>
        <time>2021-02-25T12:38:41.000Z</time>
      </trkpt>
      <trkpt lat="43.96373" lon="2.22944">
        <ele>212</ele>
        <time>2021-02-25T12:38:42.000Z</time>
      </trkpt>
      <trkpt lat="43.96374" lon="2.22944">
        <ele>212</ele>
        <time>2021-02-25T12:38:43.000Z</time>
      </trkpt>
      <trkpt lat="43.96375" lon="2.22944">
        <ele>212</ele>
        <time>2021-02-25T12:38:44.000Z</time>
      </trkpt>
      <trkpt lat="43.96375" lon="2.22944">
        <ele>212</ele>
        <time>2021-02-25T12:38:45.000Z</time>
      </trkpt>
      <trkpt lat="43.96375" lon="2.22945">
        <ele>212</ele>
        <time>2021-02-25T12:38:46.000Z</time>
      </trkpt>
      <trkpt lat="43.96376" lon="2.22945">
        <ele>212</ele>
        <time>2021-02-25T12:38:47.000Z</time>
      </trkpt>
      <trkpt lat="43.96376" lon="2.22946">
        <ele>212</ele>
        <time>2021-02-25T12:38:48.000Z</time>
      </trkpt>
      <trkpt lat="43.96377" lon="2.22946">
        <ele>212</ele>
        <time>2021-02-25T12:38:49.000Z</time>
      </trkpt>
      <trkpt lat="43.96377" lon="2.22947">
        <ele>212</ele>
        <time>2021-02-25T12:38:50.000Z</time>
      </trkpt>
      <trkpt lat="43.96377" lon="2.22947">
        <ele>212</ele>
        <time>2021-02-25T12:38:51.000Z</time>
      </trkpt>
      <trkpt lat="43.96377" lon="2.22947">
        <ele>212</ele>
        <time>2021-02-25T12:38:52.000Z</time>
      </trkpt>
      <trkpt lat="43.96377" lon="2.22947">
        <ele>212</ele>
        <time>2021-02-25T12:38:53.000Z</time>
      </trkpt>
      <trkpt lat="43.96378" lon="2.22949">
        <ele>212</ele>
        <time>2021-02-25T12:38:54.000Z</time>
      </trkpt>
      <trkpt lat="43.96378" lon="2.22949">
        <ele>212</ele>
        <time>2021-02-25T12:38:55.000Z</time>
      </trkpt>
      <trkpt lat="43.96378" lon="2.2295">
        <ele>212</ele>
        <time>2021-02-25T12:38:56.000Z</time>
      </trkpt>
      <trkpt lat="43.96379" lon="2.22951">
        <ele>212</ele>
        <time>2021-02-25T12:38:57.000Z</time>
      </trkpt>
      <trkpt lat="43.96379" lon="2.22951">
        <ele>212</ele>
        <time>2021-02-25T12:38:58.000Z</time>
      </trkpt>
      <trkpt lat="43.96379" lon="2.22951">
        <ele>212</ele>
        <time>2021-02-25T12:38:59.000Z</time>
      </trkpt>
      <trkpt lat="43.96378" lon="2.22951">
        <ele>212</ele>
        <time>2021-02-25T12:39:00.000Z</time>
      </trkpt>
      <trkpt lat="43.96379" lon="2.22952">
        <ele>212</ele>
        <time>2021-02-25T12:39:01.000Z</time>
      </trkpt>
      <trkpt lat="43.96379" lon="2.22955">
        <ele>212</ele>
        <time>2021-02-25T12:39:02.000Z</time>
      </trkpt>
      <trkpt lat="43.96379" lon="2.22955">
        <ele>212</ele>
        <time>2021-02-25T12:39:03.000Z</time>
      </trkpt>
      <trkpt lat="43.9638" lon="2.22956">
        <ele>212</ele>
        <time>2021-02-25T12:39:04.000Z</time>
      </trkpt>
      <trkpt lat="43.96381" lon="2.22958">
        <ele>213</ele>
        <time>2021-02-25T12:39:05.000Z</time>
      </trkpt>
      <trkpt lat="43.96381" lon="2.22958">
        <ele>213</ele>
        <time>2021-02-25T12:39:06.000Z</time>
      </trkpt>
      <trkpt lat="43.96382" lon="2.22959">
        <ele>213</ele>
        <time>2021-02-25T12:39:07.000Z</time>
      </trkpt>
      <trkpt lat="43.96383" lon="2.2296">
        <ele>213</ele>
        <time>2021-02-25T12:39:08.000Z</time>
      </trkpt>
      <trkpt lat="43.96383" lon="2.2296">
        <ele>214</ele>
        <time>2021-02-25T12:39:09.000Z</time>
      </trkpt>
      <trkpt lat="43.96384" lon="2.2296">
        <ele>214</ele>
        <time>2021-02-25T12:39:10.000Z</time>
      </trkpt>
      <trkpt lat="43.96384" lon="2.2296">
        <ele>214</ele>
        <time>2021-02-25T12:39:11.000Z</time>
      </trkpt>
      <trkpt lat="43.96385" lon="2.2296">
        <ele>214</ele>
        <time>2021-02-25T12:39:12.000Z</time>
      </trkpt>
      <trkpt lat="43.96385" lon="2.22961">
        <ele>214</ele>
        <time>2021-02-25T12:39:13.000Z</time>
      </trkpt>
      <trkpt lat="43.96386" lon="2.22961">
        <ele>214</ele>
        <time>2021-02-25T12:39:14.000Z</time>
      </trkpt>
      <trkpt lat="43.96386" lon="2.22961">
        <ele>214</ele>
        <time>2021-02-25T12:39:15.000Z</time>
      </trkpt>
      <trkpt lat="43.96387" lon="2.22961">
        <ele>214</ele>
        <time>2021-02-25T12:39:16.000Z</time>
      </trkpt>
      <trkpt lat="43.96388" lon="2.22961">
        <ele>215</ele>
        <time>2021-02-25T12:39:17.000Z</time>
      </trkpt>
      <trkpt lat="43.96389" lon="2.22962">
        <ele>215</ele>
        <time>2021-02-25T12:39:18.000Z</time>
      </trkpt>
      <trkpt lat="43.9639" lon="2.22962">
        <ele>215</ele>
        <time>2021-02-25T12:39:19.000Z</time>
      </trkpt>
      <trkpt lat="43.96391" lon="2.22962">
        <ele>215</ele>
        <time>2021-02-25T12:39:20.000Z</time>
      </trkpt>
      <trkpt lat="43.96391" lon="2.22963">
        <ele>215</ele>
        <time>2021-02-25T12:39:21.000Z</time>
      </trkpt>
      <trkpt lat="43.96392" lon="2.22963">
        <ele>215</ele>
        <time>2021-02-25T12:39:22.000Z</time>
      </trkpt>
      <trkpt lat="43.96393" lon="2.22964">
        <ele>215</ele>
        <time>2021-02-25T12:39:23.000Z</time>
      </trkpt>
      <trkpt lat="43.96394" lon="2.22964">
        <ele>215</ele>
        <time>2021-02-25T12:39:24.000Z</time>
      </trkpt>
      <trkpt lat="43.96394" lon="2.22965">
        <ele>215</ele>
        <time>2021-02-25T12:39:25.000Z</time>
      </trkpt>
      <trkpt lat="43.96395" lon="2.22965">
        <ele>216</ele>
        <time>2021-02-25T12:39:26.000Z</time>
      </trkpt>
      <trkpt lat="43.96395" lon="2.22966">
        <ele>216</ele>
        <time>2021-02-25T12:39:27.000Z</time>
      </trkpt>
      <trkpt lat="43.96396" lon="2.22966">
        <ele>216</ele>
        <time>2021-02-25T12:39:28.000Z</time>
      </trkpt>
      <trkpt lat="43.96396" lon="2.22966">
        <ele>216</ele>
        <time>2021-02-25T12:39:29.000Z</time>
      </trkpt>
      <trkpt lat="43.96396" lon="2.22966">
        <ele>216</ele>
        <time>2021-02-25T12:39:30.000Z</time>
      </trkpt>
      <trkpt lat="43.96396" lon="2.22967">
        <ele>217</ele>
        <time>2021-02-25T12:39:31.000Z</time>
      </trkpt>
      <trkpt lat="43.96397" lon="2.22967">
        <ele>217</ele>
        <time>2021-02-25T12:39:32.000Z</time>
      </trkpt>
      <trkpt lat="43.96397" lon="2.22967">
        <ele>217</ele>
        <time>2021-02-25T12:39:33.000Z</time>
      </trkpt>
      <trkpt lat="43.96398" lon="2.22972">
        <ele>219</ele>
        <time>2021-02-25T12:39:34.000Z</time>
      </trkpt>
      <trkpt lat="43.96398" lon="2.22973">
        <ele>219</ele>
        <time>2021-02-25T12:39:35.000Z</time>
      </trkpt>
      <trkpt lat="43.96399" lon="2.22973">
        <ele>219</ele>
        <time>2021-02-25T12:39:36.000Z</time>
      </trkpt>
      <trkpt lat="43.96399" lon="2.22974">
        <ele>219</ele>
        <time>2021-02-25T12:39:37.000Z</time>
      </trkpt>
      <trkpt lat="43.964" lon="2.22974">
        <ele>219</ele>
        <time>2021-02-25T12:39:38.000Z</time>
      </trkpt>
      <trkpt lat="43.964" lon="2.22975">
        <ele>219</ele>
        <time>2021-02-25T12:39:39.000Z</time>
      </trkpt>
      <trkpt lat="43.96401" lon="2.22976">
        <ele>220</ele>
        <time>2021-02-25T12:39:40.000Z</time>
      </trkpt>
      <trkpt lat="43.96402" lon="2.22977">
        <ele>220</ele>
        <time>2021-02-25T12:39:41.000Z</time>
      </trkpt>
      <trkpt lat="43.96403" lon="2.22979">
        <ele>220</ele>
        <time>2021-02-25T12:39:42.000Z</time>
      </trkpt>
      <trkpt lat="43.96404" lon="2.2298">
        <ele>220</ele>
        <time>2021-02-25T12:39:43.000Z</time>
      </trkpt>
      <trkpt lat="43.96405" lon="2.22981">
        <ele>220</ele>
        <time>2021-02-25T12:39:44.000Z</time>
      </trkpt>
      <trkpt lat="43.96406" lon="2.22983">
        <ele>220</ele>
        <time>2021-02-25T12:39:45.000Z</time>
      </trkpt>
      <trkpt lat="43.96408" lon="2.22984">
        <ele>220</ele>
        <time>2021-02-25T12:39:46.000Z</time>
      </trkpt>
      <trkpt lat="43.96408" lon="2.22985">
        <ele>220</ele>
        <time>2021-02-25T12:39:47.000Z</time>
      </trkpt>
      <trkpt lat="43.9641" lon="2.22986">
        <ele>220</ele>
        <time>2021-02-25T12:39:48.000Z</time>
      </trkpt>
      <trkpt lat="43.96411" lon="2.22987">
        <ele>219</ele>
        <time>2021-02-25T12:39:49.000Z</time>
      </trkpt>
      <trkpt lat="43.96412" lon="2.22989">
        <ele>219</ele>
        <time>2021-02-25T12:39:50.000Z</time>
      </trkpt>
      <trkpt lat="43.96413" lon="2.2299">
        <ele>219</ele>
        <time>2021-02-25T12:39:51.000Z</time>
      </trkpt>
      <trkpt lat="43.96414" lon="2.22992">
        <ele>219</ele>
        <time>2021-02-25T12:39:52.000Z</time>
      </trkpt>
      <trkpt lat="43.96415" lon="2.22993">
        <ele>219</ele>
        <time>2021-02-25T12:39:53.000Z</time>
      </trkpt>
      <trkpt lat="43.96416" lon="2.22995">
        <ele>219</ele>
        <time>2021-02-25T12:39:54.000Z</time>
      </trkpt>
      <trkpt lat="43.96417" lon="2.22996">
        <ele>218</ele>
        <time>2021-02-25T12:39:55.000Z</time>
      </trkpt>
      <trkpt lat="43.96418" lon="2.22998">
        <ele>218</ele>
        <time>2021-02-25T12:39:56.000Z</time>
      </trkpt>
      <trkpt lat="43.96419" lon="2.22999">
        <ele>218</ele>
        <time>2021-02-25T12:39:57.000Z</time>
      </trkpt>
      <trkpt lat="43.9642" lon="2.23">
        <ele>218</ele>
        <time>2021-02-25T12:39:58.000Z</time>
      </trkpt>
      <trkpt lat="43.9642" lon="2.23001">
        <ele>217</ele>
        <time>2021-02-25T12:39:59.000Z</time>
      </trkpt>
      <trkpt lat="43.96421" lon="2.23002">
        <ele>217</ele>
        <time>2021-02-25T12:40:00.000Z</time>
      </trkpt>
      <trkpt lat="43.96422" lon="2.23003">
        <ele>217</ele>
        <time>2021-02-25T12:40:01.000Z</time>
      </trkpt>
      <trkpt lat="43.96423" lon="2.23004">
        <ele>217</ele>
        <time>2021-02-25T12:40:02.000Z</time>
      </trkpt>
      <trkpt lat="43.96424" lon="2.23005">
        <ele>217</ele>
        <time>2021-02-25T12:40:03.000Z</time>
      </trkpt>
      <trkpt lat="43.96425" lon="2.23007">
        <ele>216</ele>
        <time>2021-02-25T12:40:04.000Z</time>
      </trkpt>
      <trkpt lat="43.96426" lon="2.23008">
        <ele>216</ele>
        <time>2021-02-25T12:40:05.000Z</time>
      </trkpt>
      <trkpt lat="43.96427" lon="2.23009">
        <ele>216</ele>
        <time>2021-02-25T12:40:06.000Z</time>
      </trkpt>
      <trkpt lat="43.96428" lon="2.2301">
        <ele>216</ele>
        <time>2021-02-25T12:40:07.000Z</time>
      </trkpt>
      <trkpt lat="43.96428" lon="2.23011">
        <ele>216</ele>
        <time>2021-02-25T12:40:08.000Z</time>
      </trkpt>
      <trkpt lat="43.96429" lon="2.23012">
        <ele>216</ele>
        <time>2021-02-25T12:40:09.000Z</time>
      </trkpt>
      <trkpt lat="43.9643" lon="2.23012">
        <ele>216</ele>
        <time>2021-02-25T12:40:10.000Z</time>
      </trkpt>
      <trkpt lat="43.96431" lon="2.23013">
        <ele>216</ele>
        <time>2021-02-25T12:40:11.000Z</time>
      </trkpt>
      <trkpt lat="43.96433" lon="2.23014">
        <ele>216</ele>
        <time>2021-02-25T12:40:12.000Z</time>
      </trkpt>
      <trkpt lat="43.96434" lon="2.23014">
        <ele>216</ele>
        <time>2021-02-25T12:40:13.000Z</time>
      </trkpt>
      <trkpt lat="43.96435" lon="2.23015">
        <ele>216</ele>
        <time>2021-02-25T12:40:14.000Z</time>
      </trkpt>
      <trkpt lat="43.96436" lon="2.23016">
        <ele>216</ele>
        <time>2021-02-25T12:40:15.000Z</time>
      </trkpt>
      <trkpt lat="43.96436" lon="2.23018">
        <ele>216</ele>
        <time>2021-02-25T12:40:16.000Z</time>
      </trkpt>
      <trkpt lat="43.96437" lon="2.23019">
        <ele>216</ele>
        <time>2021-02-25T12:40:17.000Z</time>
      </trkpt>
      <trkpt lat="43.96438" lon="2.2302">
        <ele>216</ele>
        <time>2021-02-25T12:40:18.000Z</time>
      </trkpt>
      <trkpt lat="43.96439" lon="2.23021">
        <ele>216</ele>
        <time>2021-02-25T12:40:19.000Z</time>
      </trkpt>
      <trkpt lat="43.9644" lon="2.23022">
        <ele>217</ele>
        <time>2021-02-25T12:40:20.000Z</time>
      </trkpt>
      <trkpt lat="43.96441" lon="2.23023">
        <ele>217</ele>
        <time>2021-02-25T12:40:21.000Z</time>
      </trkpt>
      <trkpt lat="43.96442" lon="2.23024">
        <ele>217</ele>
        <time>2021-02-25T12:40:22.000Z</time>
      </trkpt>
      <trkpt lat="43.96443" lon="2.23025">
        <ele>217</ele>
        <time>2021-02-25T12:40:23.000Z</time>
      </trkpt>
      <trkpt lat="43.96444" lon="2.23026">
        <ele>217</ele>
        <time>2021-02-25T12:40:24.000Z</time>
      </trkpt>
      <trkpt lat="43.96445" lon="2.23027">
        <ele>217</ele>
        <time>2021-02-25T12:40:25.000Z</time>
      </trkpt>
      <trkpt lat="43.96446" lon="2.23028">
        <ele>217</ele>
        <time>2021-02-25T12:40:26.000Z</time>
      </trkpt>
      <trkpt lat="43.96447" lon="2.23029">
        <ele>217</ele>
        <time>2021-02-25T12:40:27.000Z</time>
      </trkpt>
      <trkpt lat="43.96448" lon="2.2303">
        <ele>217</ele>
        <time>2021-02-25T12:40:28.000Z</time>
      </trkpt>
      <trkpt lat="43.96449" lon="2.23032">
        <ele>217</ele>
        <time>2021-02-25T12:40:29.000Z</time>
      </trkpt>
      <trkpt lat="43.9645" lon="2.23033">
        <ele>216</ele>
        <time>2021-02-25T12:40:30.000Z</time>
      </trkpt>
      <trkpt lat="43.9645" lon="2.23034">
        <ele>216</ele>
        <time>2021-02-25T12:40:31.000Z</time>
      </trkpt>
      <trkpt lat="43.96451" lon="2.23036">
        <ele>216</ele>
        <time>2021-02-25T12:40:32.000Z</time>
      </trkpt>
      <trkpt lat="43.96452" lon="2.23037">
        <ele>216</ele>
        <time>2021-02-25T12:40:33.000Z</time>
      </trkpt>
      <trkpt lat="43.96453" lon="2.23038">
        <ele>216</ele>
        <time>2021-02-25T12:40:34.000Z</time>
      </trkpt>
      <trkpt lat="43.96454" lon="2.23039">
        <ele>216</ele>
        <time>2021-02-25T12:40:35.000Z</time>
      </trkpt>
      <trkpt lat="43.96454" lon="2.2304">
        <ele>216</ele>
        <time>2021-02-25T12:40:36.000Z</time>
      </trkpt>
      <trkpt lat="43.96455" lon="2.23041">
        <ele>216</ele>
        <time>2021-02-25T12:40:37.000Z</time>
      </trkpt>
      <trkpt lat="43.96456" lon="2.23042">
        <ele>216</ele>
        <time>2021-02-25T12:40:38.000Z</time>
      </trkpt>
      <trkpt lat="43.96457" lon="2.23044">
        <ele>216</ele>
        <time>2021-02-25T12:40:39.000Z</time>
      </trkpt>
      <trkpt lat="43.96458" lon="2.23045">
        <ele>216</ele>
        <time>2021-02-25T12:40:40.000Z</time>
      </trkpt>
      <trkpt lat="43.96458" lon="2.23046">
        <ele>216</ele>
        <time>2021-02-25T12:40:41.000Z</time>
      </trkpt>
      <trkpt lat="43.96459" lon="2.23048">
        <ele>216</ele>
        <time>2021-02-25T12:40:42.000Z</time>
      </trkpt>
      <trkpt lat="43.9646" lon="2.23049">
        <ele>216</ele>
        <time>2021-02-25T12:40:43.000Z</time>
      </trkpt>
      <trkpt lat="43.9646" lon="2.2305">
        <ele>216</ele>
        <time>2021-02-25T12:40:44.000Z</time>
      </trkpt>
      <trkpt lat="43.96461" lon="2.23051">
        <ele>216</ele>
        <time>2021-02-25T12:40:45.000Z</time>
      </trkpt>
      <trkpt lat="43.96462" lon="2.23052">
        <ele>216</ele>
        <time>2021-02-25T12:40:46.000Z</time>
      </trkpt>
      <trkpt lat="43.96463" lon="2.23053">
        <ele>216</ele>
        <time>2021-02-25T12:40:47.000Z</time>
      </trkpt>
      <trkpt lat="43.96463" lon="2.23054">
        <ele>217</ele>
        <time>2021-02-25T12:40:48.000Z</time>
      </trkpt>
      <trkpt lat="43.96463" lon="2.23054">
        <ele>217</ele>
        <time>2021-02-25T12:40:49.000Z</time>
      </trkpt>
      <trkpt lat="43.96464" lon="2.23055">
        <ele>217</ele>
        <time>2021-02-25T12:40:50.000Z</time>
      </trkpt>
      <trkpt lat="43.96465" lon="2.23056">
        <ele>217</ele>
        <time>2021-02-25T12:40:51.000Z</time>
      </trkpt>
      <trkpt lat="43.96466" lon="2.23056">
        <ele>217</ele>
        <time>2021-02-25T12:40:52.000Z</time>
      </trkpt>
      <trkpt lat="43.96466" lon="2.23057">
        <ele>218</ele>
        <time>2021-02-25T12:40:53.000Z</time>
      </trkpt>
      <trkpt lat="43.96467" lon="2.23058">
        <ele>218</ele>
        <time>2021-02-25T12:40:54.000Z</time>
      </trkpt>
      <trkpt lat="43.96468" lon="2.23058">
        <ele>218</ele>
        <time>2021-02-25T12:40:55.000Z</time>
      </trkpt>
      <trkpt lat="43.96468" lon="2.23059">
        <ele>218</ele>
        <time>2021-02-25T12:40:56.000Z</time>
      </trkpt>
      <trkpt lat="43.96469" lon="2.2306">
        <ele>219</ele>
        <time>2021-02-25T12:40:57.000Z</time>
      </trkpt>
      <trkpt lat="43.9647" lon="2.2306">
        <ele>219</ele>
        <time>2021-02-25T12:40:58.000Z</time>
      </trkpt>
      <trkpt lat="43.9647" lon="2.23061">
        <ele>219</ele>
        <time>2021-02-25T12:40:59.000Z</time>
      </trkpt>
      <trkpt lat="43.96471" lon="2.23062">
        <ele>220</ele>
        <time>2021-02-25T12:41:00.000Z</time>
      </trkpt>
      <trkpt lat="43.96472" lon="2.23062">
        <ele>220</ele>
        <time>2021-02-25T12:41:01.000Z</time>
      </trkpt>
      <trkpt lat="43.96472" lon="2.23063">
        <ele>220</ele>
        <time>2021-02-25T12:41:02.000Z</time>
      </trkpt>
      <trkpt lat="43.96473" lon="2.23064">
        <ele>220</ele>
        <time>2021-02-25T12:41:03.000Z</time>
      </trkpt>
      <trkpt lat="43.96474" lon="2.23065">
        <ele>220</ele>
        <time>2021-02-25T12:41:04.000Z</time>
      </trkpt>
      <trkpt lat="43.96474" lon="2.23065">
        <ele>221</ele>
        <time>2021-02-25T12:41:05.000Z</time>
      </trkpt>
      <trkpt lat="43.96475" lon="2.23066">
        <ele>221</ele>
        <time>2021-02-25T12:41:06.000Z</time>
      </trkpt>
      <trkpt lat="43.96475" lon="2.23067">
        <ele>221</ele>
        <time>2021-02-25T12:41:07.000Z</time>
      </trkpt>
      <trkpt lat="43.96476" lon="2.23067">
        <ele>221</ele>
        <time>2021-02-25T12:41:08.000Z</time>
      </trkpt>
      <trkpt lat="43.96476" lon="2.23068">
        <ele>221</ele>
        <time>2021-02-25T12:41:09.000Z</time>
      </trkpt>
      <trkpt lat="43.96477" lon="2.23069">
        <ele>222</ele>
        <time>2021-02-25T12:41:10.000Z</time>
      </trkpt>
      <trkpt lat="43.96478" lon="2.23069">
        <ele>222</ele>
        <time>2021-02-25T12:41:11.000Z</time>
      </trkpt>
      <trkpt lat="43.96479" lon="2.2307">
        <ele>222</ele>
        <time>2021-02-25T12:41:12.000Z</time>
      </trkpt>
      <trkpt lat="43.96479" lon="2.23071">
        <ele>222</ele>
        <time>2021-02-25T12:41:13.000Z</time>
      </trkpt>
      <trkpt lat="43.9648" lon="2.23072">
        <ele>222</ele>
        <time>2021-02-25T12:41:14.000Z</time>
      </trkpt>
      <trkpt lat="43.96481" lon="2.23072">
        <ele>222</ele>
        <time>2021-02-25T12:41:15.000Z</time>
      </trkpt>
      <trkpt lat="43.96481" lon="2.23073">
        <ele>222</ele>
        <time>2021-02-25T12:41:16.000Z</time>
      </trkpt>
      <trkpt lat="43.96482" lon="2.23074">
        <ele>222</ele>
        <time>2021-02-25T12:41:17.000Z</time>
      </trkpt>
      <trkpt lat="43.96483" lon="2.23075">
        <ele>223</ele>
        <time>2021-02-25T12:41:18.000Z</time>
      </trkpt>
      <trkpt lat="43.96484" lon="2.23076">
        <ele>223</ele>
        <time>2021-02-25T12:41:19.000Z</time>
      </trkpt>
      <trkpt lat="43.96485" lon="2.23077">
        <ele>223</ele>
        <time>2021-02-25T12:41:20.000Z</time>
      </trkpt>
      <trkpt lat="43.96486" lon="2.23078">
        <ele>223</ele>
        <time>2021-02-25T12:41:21.000Z</time>
      </trkpt>
      <trkpt lat="43.96486" lon="2.23079">
        <ele>223</ele>
        <time>2021-02-25T12:41:22.000Z</time>
      </trkpt>
      <trkpt lat="43.96488" lon="2.2308">
        <ele>223</ele>
        <time>2021-02-25T12:41:23.000Z</time>
      </trkpt>
      <trkpt lat="43.96489" lon="2.23081">
        <ele>223</ele>
        <time>2021-02-25T12:41:24.000Z</time>
      </trkpt>
      <trkpt lat="43.9649" lon="2.23082">
        <ele>224</ele>
        <time>2021-02-25T12:41:25.000Z</time>
      </trkpt>
      <trkpt lat="43.96491" lon="2.23084">
        <ele>224</ele>
        <time>2021-02-25T12:41:26.000Z</time>
      </trkpt>
      <trkpt lat="43.96492" lon="2.23085">
        <ele>224</ele>
        <time>2021-02-25T12:41:27.000Z</time>
      </trkpt>
      <trkpt lat="43.96493" lon="2.23086">
        <ele>224</ele>
        <time>2021-02-25T12:41:28.000Z</time>
      </trkpt>
      <trkpt lat="43.96494" lon="2.23086">
        <ele>224</ele>
        <time>2021-02-25T12:41:29.000Z</time>
      </trkpt>
      <trkpt lat="43.96495" lon="2.23087">
        <ele>224</ele>
        <time>2021-02-25T12:41:30.000Z</time>
      </trkpt>
      <trkpt lat="43.96496" lon="2.23088">
        <ele>224</ele>
        <time>2021-02-25T12:41:31.000Z</time>
      </trkpt>
      <trkpt lat="43.96497" lon="2.23089">
        <ele>224</ele>
        <time>2021-02-25T12:41:32.000Z</time>
      </trkpt>
      <trkpt lat="43.96498" lon="2.2309">
        <ele>224</ele>
        <time>2021-02-25T12:41:33.000Z</time>
      </trkpt>
      <trkpt lat="43.96499" lon="2.23091">
        <ele>224</ele>
        <time>2021-02-25T12:41:34.000Z</time>
      </trkpt>
      <trkpt lat="43.965" lon="2.23092">
        <ele>224</ele>
        <time>2021-02-25T12:41:35.000Z</time>
      </trkpt>
      <trkpt lat="43.96501" lon="2.23093">
        <ele>224</ele>
        <time>2021-02-25T12:41:36.000Z</time>
      </trkpt>
      <trkpt lat="43.96502" lon="2.23095">
        <ele>224</ele>
        <time>2021-02-25T12:41:37.000Z</time>
      </trkpt>
      <trkpt lat="43.96503" lon="2.23096">
        <ele>224</ele>
        <time>2021-02-25T12:41:38.000Z</time>
      </trkpt>
      <trkpt lat="43.96504" lon="2.23097">
        <ele>224</ele>
        <time>2021-02-25T12:41:39.000Z</time>
      </trkpt>
      <trkpt lat="43.96505" lon="2.23099">
        <ele>224</ele>
        <time>2021-02-25T12:41:40.000Z</time>
      </trkpt>
      <trkpt lat="43.96506" lon="2.231">
        <ele>223</ele>
        <time>2021-02-25T12:41:41.000Z</time>
      </trkpt>
      <trkpt lat="43.96507" lon="2.23101">
        <ele>223</ele>
        <time>2021-02-25T12:41:42.000Z</time>
      </trkpt>
      <trkpt lat="43.96508" lon="2.23102">
        <ele>223</ele>
        <time>2021-02-25T12:41:43.000Z</time>
      </trkpt>
      <trkpt lat="43.96509" lon="2.23104">
        <ele>223</ele>
        <time>2021-02-25T12:41:44.000Z</time>
      </trkpt>
      <trkpt lat="43.96509" lon="2.23105">
        <ele>223</ele>
        <time>2021-02-25T12:41:45.000Z</time>
      </trkpt>
      <trkpt lat="43.9651" lon="2.23105">
        <ele>223</ele>
        <time>2021-02-25T12:41:46.000Z</time>
      </trkpt>
      <trkpt lat="43.96511" lon="2.23106">
        <ele>223</ele>
        <time>2021-02-25T12:41:47.000Z</time>
      </trkpt>
      <trkpt lat="43.96511" lon="2.23108">
        <ele>223</ele>
        <time>2021-02-25T12:41:48.000Z</time>
      </trkpt>
      <trkpt lat="43.96512" lon="2.23109">
        <ele>223</ele>
        <time>2021-02-25T12:41:49.000Z</time>
      </trkpt>
      <trkpt lat="43.96513" lon="2.2311">
        <ele>223</ele>
        <time>2021-02-25T12:41:50.000Z</time>
      </trkpt>
      <trkpt lat="43.96514" lon="2.23111">
        <ele>223</ele>
        <time>2021-02-25T12:41:51.000Z</time>
      </trkpt>
      <trkpt lat="43.96515" lon="2.23113">
        <ele>223</ele>
        <time>2021-02-25T12:41:52.000Z</time>
      </trkpt>
      <trkpt lat="43.96515" lon="2.23114">
        <ele>223</ele>
        <time>2021-02-25T12:41:53.000Z</time>
      </trkpt>
      <trkpt lat="43.96516" lon="2.23116">
        <ele>223</ele>
        <time>2021-02-25T12:41:54.000Z</time>
      </trkpt>
      <trkpt lat="43.96516" lon="2.23117">
        <ele>223</ele>
        <time>2021-02-25T12:41:55.000Z</time>
      </trkpt>
      <trkpt lat="43.96516" lon="2.23119">
        <ele>223</ele>
        <time>2021-02-25T12:41:56.000Z</time>
      </trkpt>
      <trkpt lat="43.96517" lon="2.2312">
        <ele>223</ele>
        <time>2021-02-25T12:41:57.000Z</time>
      </trkpt>
      <trkpt lat="43.96517" lon="2.23121">
        <ele>223</ele>
        <time>2021-02-25T12:41:58.000Z</time>
      </trkpt>
      <trkpt lat="43.96517" lon="2.23122">
        <ele>223</ele>
        <time>2021-02-25T12:41:59.000Z</time>
      </trkpt>
      <trkpt lat="43.96517" lon="2.23123">
        <ele>223</ele>
        <time>2021-02-25T12:42:00.000Z</time>
      </trkpt>
      <trkpt lat="43.96517" lon="2.23124">
        <ele>223</ele>
        <time>2021-02-25T12:42:01.000Z</time>
      </trkpt>
      <trkpt lat="43.96517" lon="2.23125">
        <ele>223</ele>
        <time>2021-02-25T12:42:02.000Z</time>
      </trkpt>
      <trkpt lat="43.96518" lon="2.23126">
        <ele>223</ele>
        <time>2021-02-25T12:42:03.000Z</time>
      </trkpt>
      <trkpt lat="43.96518" lon="2.23127">
        <ele>223</ele>
        <time>2021-02-25T12:42:04.000Z</time>
      </trkpt>
      <trkpt lat="43.96518" lon="2.23128">
        <ele>224</ele>
        <time>2021-02-25T12:42:05.000Z</time>
      </trkpt>
      <trkpt lat="43.96518" lon="2.23129">
        <ele>224</ele>
        <time>2021-02-25T12:42:06.000Z</time>
      </trkpt>
      <trkpt lat="43.96519" lon="2.2313">
        <ele>224</ele>
        <time>2021-02-25T12:42:07.000Z</time>
      </trkpt>
      <trkpt lat="43.96519" lon="2.23131">
        <ele>224</ele>
        <time>2021-02-25T12:42:08.000Z</time>
      </trkpt>
      <trkpt lat="43.9652" lon="2.23133">
        <ele>224</ele>
        <time>2021-02-25T12:42:09.000Z</time>
      </trkpt>
      <trkpt lat="43.9652" lon="2.23134">
        <ele>224</ele>
        <time>2021-02-25T12:42:10.000Z</time>
      </trkpt>
      <trkpt lat="43.9652" lon="2.23135">
        <ele>224</ele>
        <time>2021-02-25T12:42:11.000Z</time>
      </trkpt>
      <trkpt lat="43.96521" lon="2.23136">
        <ele>225</ele>
        <time>2021-02-25T12:42:12.000Z</time>
      </trkpt>
      <trkpt lat="43.96521" lon="2.23137">
        <ele>225</ele>
        <time>2021-02-25T12:42:13.000Z</time>
      </trkpt>
      <trkpt lat="43.96521" lon="2.23138">
        <ele>225</ele>
        <time>2021-02-25T12:42:14.000Z</time>
      </trkpt>
      <trkpt lat="43.96521" lon="2.23139">
        <ele>225</ele>
        <time>2021-02-25T12:42:15.000Z</time>
      </trkpt>
      <trkpt lat="43.96521" lon="2.2314">
        <ele>225</ele>
        <time>2021-02-25T12:42:16.000Z</time>
      </trkpt>
      <trkpt lat="43.96521" lon="2.23141">
        <ele>225</ele>
        <time>2021-02-25T12:42:17.000Z</time>
      </trkpt>
      <trkpt lat="43.96521" lon="2.23142">
        <ele>225</ele>
        <time>2021-02-25T12:42:18.000Z</time>
      </trkpt>
      <trkpt lat="43.96522" lon="2.23143">
        <ele>226</ele>
        <time>2021-02-25T12:42:19.000Z</time>
      </trkpt>
      <trkpt lat="43.96522" lon="2.23144">
        <ele>226</ele>
        <time>2021-02-25T12:42:20.000Z</time>
      </trkpt>
      <trkpt lat="43.96522" lon="2.23144">
        <ele>226</ele>
        <time>2021-02-25T12:42:21.000Z</time>
      </trkpt>
      <trkpt lat="43.96524" lon="2.23146">
        <ele>226</ele>
        <time>2021-02-25T12:42:22.000Z</time>
      </trkpt>
      <trkpt lat="43.96524" lon="2.23146">
        <ele>226</ele>
        <time>2021-02-25T12:42:23.000Z</time>
      </trkpt>
      <trkpt lat="43.96525" lon="2.23146">
        <ele>226</ele>
        <time>2021-02-25T12:42:24.000Z</time>
      </trkpt>
      <trkpt lat="43.96525" lon="2.23146">
        <ele>226</ele>
        <time>2021-02-25T12:42:25.000Z</time>
      </trkpt>
      <trkpt lat="43.96525" lon="2.23146">
        <ele>227</ele>
        <time>2021-02-25T12:42:26.000Z</time>
      </trkpt>
      <trkpt lat="43.96526" lon="2.23146">
        <ele>227</ele>
        <time>2021-02-25T12:42:27.000Z</time>
      </trkpt>
      <trkpt lat="43.96527" lon="2.23146">
        <ele>227</ele>
        <time>2021-02-25T12:42:28.000Z</time>
      </trkpt>
      <trkpt lat="43.96528" lon="2.23146">
        <ele>227</ele>
        <time>2021-02-25T12:42:29.000Z</time>
      </trkpt>
      <trkpt lat="43.96529" lon="2.23146">
        <ele>228</ele>
        <time>2021-02-25T12:42:30.000Z</time>
      </trkpt>
      <trkpt lat="43.9653" lon="2.23147">
        <ele>228</ele>
        <time>2021-02-25T12:42:31.000Z</time>
      </trkpt>
      <trkpt lat="43.96531" lon="2.23147">
        <ele>228</ele>
        <time>2021-02-25T12:42:32.000Z</time>
      </trkpt>
      <trkpt lat="43.96532" lon="2.23148">
        <ele>228</ele>
        <time>2021-02-25T12:42:33.000Z</time>
      </trkpt>
      <trkpt lat="43.96533" lon="2.23149">
        <ele>229</ele>
        <time>2021-02-25T12:42:34.000Z</time>
      </trkpt>
      <trkpt lat="43.96535" lon="2.23149">
        <ele>229</ele>
        <time>2021-02-25T12:42:35.000Z</time>
      </trkpt>
      <trkpt lat="43.96536" lon="2.2315">
        <ele>229</ele>
        <time>2021-02-25T12:42:36.000Z</time>
      </trkpt>
      <trkpt lat="43.96537" lon="2.2315">
        <ele>229</ele>
        <time>2021-02-25T12:42:37.000Z</time>
      </trkpt>
      <trkpt lat="43.96539" lon="2.23151">
        <ele>230</ele>
        <time>2021-02-25T12:42:38.000Z</time>
      </trkpt>
      <trkpt lat="43.9654" lon="2.23151">
        <ele>230</ele>
        <time>2021-02-25T12:42:39.000Z</time>
      </trkpt>
      <trkpt lat="43.96542" lon="2.23152">
        <ele>230</ele>
        <time>2021-02-25T12:42:40.000Z</time>
      </trkpt>
      <trkpt lat="43.96543" lon="2.23152">
        <ele>230</ele>
        <time>2021-02-25T12:42:41.000Z</time>
      </trkpt>
      <trkpt lat="43.96544" lon="2.23152">
        <ele>230</ele>
        <time>2021-02-25T12:42:42.000Z</time>
      </trkpt>
      <trkpt lat="43.96545" lon="2.23152">
        <ele>231</ele>
        <time>2021-02-25T12:42:43.000Z</time>
      </trkpt>
      <trkpt lat="43.96546" lon="2.23152">
        <ele>231</ele>
        <time>2021-02-25T12:42:44.000Z</time>
      </trkpt>
      <trkpt lat="43.96547" lon="2.23152">
        <ele>231</ele>
        <time>2021-02-25T12:42:45.000Z</time>
      </trkpt>
      <trkpt lat="43.96549" lon="2.23152">
        <ele>231</ele>
        <time>2021-02-25T12:42:46.000Z</time>
      </trkpt>
      <trkpt lat="43.9655" lon="2.23152">
        <ele>231</ele>
        <time>2021-02-25T12:42:47.000Z</time>
      </trkpt>
      <trkpt lat="43.96551" lon="2.23152">
        <ele>232</ele>
        <time>2021-02-25T12:42:48.000Z</time>
      </trkpt>
      <trkpt lat="43.96552" lon="2.23152">
        <ele>232</ele>
        <time>2021-02-25T12:42:49.000Z</time>
      </trkpt>
      <trkpt lat="43.96553" lon="2.23152">
        <ele>232</ele>
        <time>2021-02-25T12:42:50.000Z</time>
      </trkpt>
      <trkpt lat="43.96554" lon="2.23153">
        <ele>232</ele>
        <time>2021-02-25T12:42:51.000Z</time>
      </trkpt>
      <trkpt lat="43.96555" lon="2.23153">
        <ele>232</ele>
        <time>2021-02-25T12:42:52.000Z</time>
      </trkpt>
      <trkpt lat="43.96556" lon="2.23153">
        <ele>232</ele>
        <time>2021-02-25T12:42:53.000Z</time>
      </trkpt>
      <trkpt lat="43.96557" lon="2.23153">
        <ele>233</ele>
        <time>2021-02-25T12:42:54.000Z</time>
      </trkpt>
      <trkpt lat="43.96558" lon="2.23153">
        <ele>233</ele>
        <time>2021-02-25T12:42:55.000Z</time>
      </trkpt>
      <trkpt lat="43.96559" lon="2.23152">
        <ele>233</ele>
        <time>2021-02-25T12:42:56.000Z</time>
      </trkpt>
      <trkpt lat="43.9656" lon="2.23152">
        <ele>233</ele>
        <time>2021-02-25T12:42:57.000Z</time>
      </trkpt>
      <trkpt lat="43.96561" lon="2.23152">
        <ele>233</ele>
        <time>2021-02-25T12:42:58.000Z</time>
      </trkpt>
      <trkpt lat="43.96561" lon="2.23152">
        <ele>233</ele>
        <time>2021-02-25T12:42:59.000Z</time>
      </trkpt>
      <trkpt lat="43.96562" lon="2.23152">
        <ele>234</ele>
        <time>2021-02-25T12:43:00.000Z</time>
      </trkpt>
      <trkpt lat="43.96563" lon="2.23152">
        <ele>234</ele>
        <time>2021-02-25T12:43:01.000Z</time>
      </trkpt>
      <trkpt lat="43.96564" lon="2.23151">
        <ele>234</ele>
        <time>2021-02-25T12:43:02.000Z</time>
      </trkpt>
      <trkpt lat="43.96565" lon="2.23152">
        <ele>234</ele>
        <time>2021-02-25T12:43:03.000Z</time>
      </trkpt>
      <trkpt lat="43.96566" lon="2.23152">
        <ele>234</ele>
        <time>2021-02-25T12:43:04.000Z</time>
      </trkpt>
      <trkpt lat="43.96567" lon="2.23152">
        <ele>234</ele>
        <time>2021-02-25T12:43:05.000Z</time>
      </trkpt>
      <trkpt lat="43.96568" lon="2.23153">
        <ele>235</ele>
        <time>2021-02-25T12:43:06.000Z</time>
      </trkpt>
      <trkpt lat="43.96569" lon="2.23153">
        <ele>235</ele>
        <time>2021-02-25T12:43:07.000Z</time>
      </trkpt>
      <trkpt lat="43.9657" lon="2.23154">
        <ele>235</ele>
        <time>2021-02-25T12:43:08.000Z</time>
      </trkpt>
      <trkpt lat="43.96571" lon="2.23154">
        <ele>235</ele>
        <time>2021-02-25T12:43:09.000Z</time>
      </trkpt>
      <trkpt lat="43.96572" lon="2.23155">
        <ele>235</ele>
        <time>2021-02-25T12:43:10.000Z</time>
      </trkpt>
      <trkpt lat="43.96573" lon="2.23155">
        <ele>235</ele>
        <time>2021-02-25T12:43:11.000Z</time>
      </trkpt>
      <trkpt lat="43.96574" lon="2.23156">
        <ele>235</ele>
        <time>2021-02-25T12:43:12.000Z</time>
      </trkpt>
      <trkpt lat="43.96575" lon="2.23156">
        <ele>235</ele>
        <time>2021-02-25T12:43:13.000Z</time>
      </trkpt>
      <trkpt lat="43.96576" lon="2.23156">
        <ele>235</ele>
        <time>2021-02-25T12:43:14.000Z</time>
      </trkpt>
      <trkpt lat="43.96577" lon="2.23157">
        <ele>235</ele>
        <time>2021-02-25T12:43:15.000Z</time>
      </trkpt>
      <trkpt lat="43.96578" lon="2.23158">
        <ele>236</ele>
        <time>2021-02-25T12:43:16.000Z</time>
      </trkpt>
      <trkpt lat="43.96579" lon="2.23159">
        <ele>236</ele>
        <time>2021-02-25T12:43:17.000Z</time>
      </trkpt>
      <trkpt lat="43.9658" lon="2.2316">
        <ele>236</ele>
        <time>2021-02-25T12:43:18.000Z</time>
      </trkpt>
      <trkpt lat="43.96581" lon="2.23161">
        <ele>236</ele>
        <time>2021-02-25T12:43:19.000Z</time>
      </trkpt>
      <trkpt lat="43.96582" lon="2.23163">
        <ele>236</ele>
        <time>2021-02-25T12:43:20.000Z</time>
      </trkpt>
      <trkpt lat="43.96583" lon="2.23164">
        <ele>236</ele>
        <time>2021-02-25T12:43:21.000Z</time>
      </trkpt>
      <trkpt lat="43.96583" lon="2.23164">
        <ele>236</ele>
        <time>2021-02-25T12:43:22.000Z</time>
      </trkpt>
      <trkpt lat="43.96584" lon="2.23165">
        <ele>237</ele>
        <time>2021-02-25T12:43:23.000Z</time>
      </trkpt>
      <trkpt lat="43.96585" lon="2.23166">
        <ele>237</ele>
        <time>2021-02-25T12:43:24.000Z</time>
      </trkpt>
      <trkpt lat="43.96586" lon="2.23167">
        <ele>237</ele>
        <time>2021-02-25T12:43:25.000Z</time>
      </trkpt>
      <trkpt lat="43.96586" lon="2.23168">
        <ele>237</ele>
        <time>2021-02-25T12:43:26.000Z</time>
      </trkpt>
      <trkpt lat="43.96587" lon="2.23169">
        <ele>237</ele>
        <time>2021-02-25T12:43:27.000Z</time>
      </trkpt>
      <trkpt lat="43.96588" lon="2.23169">
        <ele>237</ele>
        <time>2021-02-25T12:43:28.000Z</time>
      </trkpt>
      <trkpt lat="43.96588" lon="2.23169">
        <ele>237</ele>
        <time>2021-02-25T12:43:29.000Z</time>
      </trkpt>
      <trkpt lat="43.96589" lon="2.2317">
        <ele>238</ele>
        <time>2021-02-25T12:43:30.000Z</time>
      </trkpt>
      <trkpt lat="43.9659" lon="2.2317">
        <ele>238</ele>
        <time>2021-02-25T12:43:31.000Z</time>
      </trkpt>
      <trkpt lat="43.96591" lon="2.2317">
        <ele>238</ele>
        <time>2021-02-25T12:43:32.000Z</time>
      </trkpt>
      <trkpt lat="43.96592" lon="2.2317">
        <ele>238</ele>
        <time>2021-02-25T12:43:33.000Z</time>
      </trkpt>
      <trkpt lat="43.96593" lon="2.2317">
        <ele>239</ele>
        <time>2021-02-25T12:43:34.000Z</time>
      </trkpt>
      <trkpt lat="43.96594" lon="2.23171">
        <ele>239</ele>
        <time>2021-02-25T12:43:35.000Z</time>
      </trkpt>
      <trkpt lat="43.96594" lon="2.23171">
        <ele>239</ele>
        <time>2021-02-25T12:43:36.000Z</time>
      </trkpt>
      <trkpt lat="43.96595" lon="2.23171">
        <ele>239</ele>
        <time>2021-02-25T12:43:37.000Z</time>
      </trkpt>
      <trkpt lat="43.96596" lon="2.23171">
        <ele>239</ele>
        <time>2021-02-25T12:43:38.000Z</time>
      </trkpt>
      <trkpt lat="43.96597" lon="2.23171">
        <ele>240</ele>
        <time>2021-02-25T12:43:39.000Z</time>
      </trkpt>
      <trkpt lat="43.96598" lon="2.23171">
        <ele>240</ele>
        <time>2021-02-25T12:43:40.000Z</time>
      </trkpt>
      <trkpt lat="43.96599" lon="2.23171">
        <ele>240</ele>
        <time>2021-02-25T12:43:41.000Z</time>
      </trkpt>
      <trkpt lat="43.96599" lon="2.23171">
        <ele>240</ele>
        <time>2021-02-25T12:43:42.000Z</time>
      </trkpt>
      <trkpt lat="43.966" lon="2.23171">
        <ele>240</ele>
        <time>2021-02-25T12:43:43.000Z</time>
      </trkpt>
      <trkpt lat="43.96601" lon="2.23171">
        <ele>240</ele>
        <time>2021-02-25T12:43:44.000Z</time>
      </trkpt>
      <trkpt lat="43.96602" lon="2.23171">
        <ele>240</ele>
        <time>2021-02-25T12:43:45.000Z</time>
      </trkpt>
      <trkpt lat="43.96603" lon="2.23171">
        <ele>240</ele>
        <time>2021-02-25T12:43:46.000Z</time>
      </trkpt>
      <trkpt lat="43.96603" lon="2.23171">
        <ele>240</ele>
        <time>2021-02-25T12:43:47.000Z</time>
      </trkpt>
      <trkpt lat="43.96604" lon="2.23171">
        <ele>241</ele>
        <time>2021-02-25T12:43:48.000Z</time>
      </trkpt>
      <trkpt lat="43.96605" lon="2.23171">
        <ele>241</ele>
        <time>2021-02-25T12:43:49.000Z</time>
      </trkpt>
      <trkpt lat="43.96607" lon="2.23171">
        <ele>241</ele>
        <time>2021-02-25T12:43:50.000Z</time>
      </trkpt>
      <trkpt lat="43.96608" lon="2.23172">
        <ele>241</ele>
        <time>2021-02-25T12:43:51.000Z</time>
      </trkpt>
      <trkpt lat="43.96608" lon="2.23172">
        <ele>241</ele>
        <time>2021-02-25T12:43:52.000Z</time>
      </trkpt>
      <trkpt lat="43.9661" lon="2.23172">
        <ele>241</ele>
        <time>2021-02-25T12:43:53.000Z</time>
      </trkpt>
      <trkpt lat="43.96611" lon="2.23172">
        <ele>241</ele>
        <time>2021-02-25T12:43:54.000Z</time>
      </trkpt>
      <trkpt lat="43.96611" lon="2.23172">
        <ele>241</ele>
        <time>2021-02-25T12:43:55.000Z</time>
      </trkpt>
      <trkpt lat="43.96612" lon="2.23172">
        <ele>241</ele>
        <time>2021-02-25T12:43:56.000Z</time>
      </trkpt>
      <trkpt lat="43.96613" lon="2.23172">
        <ele>241</ele>
        <time>2021-02-25T12:43:57.000Z</time>
      </trkpt>
      <trkpt lat="43.96614" lon="2.23172">
        <ele>241</ele>
        <time>2021-02-25T12:43:58.000Z</time>
      </trkpt>
      <trkpt lat="43.96615" lon="2.23172">
        <ele>240</ele>
        <time>2021-02-25T12:43:59.000Z</time>
      </trkpt>
      <trkpt lat="43.96616" lon="2.23173">
        <ele>240</ele>
        <time>2021-02-25T12:44:00.000Z</time>
      </trkpt>
      <trkpt lat="43.96617" lon="2.23173">
        <ele>240</ele>
        <time>2021-02-25T12:44:01.000Z</time>
      </trkpt>
      <trkpt lat="43.96618" lon="2.23173">
        <ele>240</ele>
        <time>2021-02-25T12:44:02.000Z</time>
      </trkpt>
      <trkpt lat="43.9662" lon="2.23173">
        <ele>240</ele>
        <time>2021-02-25T12:44:03.000Z</time>
      </trkpt>
      <trkpt lat="43.96621" lon="2.23173">
        <ele>240</ele>
        <time>2021-02-25T12:44:04.000Z</time>
      </trkpt>
      <trkpt lat="43.96621" lon="2.23173">
        <ele>240</ele>
        <time>2021-02-25T12:44:05.000Z</time>
      </trkpt>
      <trkpt lat="43.96622" lon="2.23173">
        <ele>240</ele>
        <time>2021-02-25T12:44:06.000Z</time>
      </trkpt>
      <trkpt lat="43.96623" lon="2.23173">
        <ele>240</ele>
        <time>2021-02-25T12:44:07.000Z</time>
      </trkpt>
      <trkpt lat="43.96625" lon="2.23173">
        <ele>239</ele>
        <time>2021-02-25T12:44:08.000Z</time>
      </trkpt>
      <trkpt lat="43.96626" lon="2.23174">
        <ele>239</ele>
        <time>2021-02-25T12:44:09.000Z</time>
      </trkpt>
      <trkpt lat="43.96627" lon="2.23174">
        <ele>239</ele>
        <time>2021-02-25T12:44:10.000Z</time>
      </trkpt>
      <trkpt lat="43.96628" lon="2.23174">
        <ele>239</ele>
        <time>2021-02-25T12:44:11.000Z</time>
      </trkpt>
      <trkpt lat="43.96629" lon="2.23174">
        <ele>239</ele>
        <time>2021-02-25T12:44:12.000Z</time>
      </trkpt>
      <trkpt lat="43.9663" lon="2.23174">
        <ele>239</ele>
        <time>2021-02-25T12:44:13.000Z</time>
      </trkpt>
      <trkpt lat="43.96631" lon="2.23174">
        <ele>239</ele>
        <time>2021-02-25T12:44:14.000Z</time>
      </trkpt>
      <trkpt lat="43.96632" lon="2.23174">
        <ele>239</ele>
        <time>2021-02-25T12:44:15.000Z</time>
      </trkpt>
      <trkpt lat="43.96633" lon="2.23174">
        <ele>239</ele>
        <time>2021-02-25T12:44:16.000Z</time>
      </trkpt>
      <trkpt lat="43.96634" lon="2.23175">
        <ele>239</ele>
        <time>2021-02-25T12:44:17.000Z</time>
      </trkpt>
      <trkpt lat="43.96635" lon="2.23175">
        <ele>239</ele>
        <time>2021-02-25T12:44:18.000Z</time>
      </trkpt>
      <trkpt lat="43.96636" lon="2.23175">
        <ele>238</ele>
        <time>2021-02-25T12:44:19.000Z</time>
      </trkpt>
      <trkpt lat="43.96637" lon="2.23175">
        <ele>238</ele>
        <time>2021-02-25T12:44:20.000Z</time>
      </trkpt>
      <trkpt lat="43.96638" lon="2.23176">
        <ele>238</ele>
        <time>2021-02-25T12:44:21.000Z</time>
      </trkpt>
      <trkpt lat="43.96638" lon="2.23176">
        <ele>238</ele>
        <time>2021-02-25T12:44:22.000Z</time>
      </trkpt>
      <trkpt lat="43.96639" lon="2.23177">
        <ele>238</ele>
        <time>2021-02-25T12:44:23.000Z</time>
      </trkpt>
      <trkpt lat="43.9664" lon="2.23177">
        <ele>238</ele>
        <time>2021-02-25T12:44:24.000Z</time>
      </trkpt>
      <trkpt lat="43.96641" lon="2.23178">
        <ele>238</ele>
        <time>2021-02-25T12:44:25.000Z</time>
      </trkpt>
      <trkpt lat="43.96642" lon="2.23178">
        <ele>237</ele>
        <time>2021-02-25T12:44:26.000Z</time>
      </trkpt>
      <trkpt lat="43.96643" lon="2.23178">
        <ele>237</ele>
        <time>2021-02-25T12:44:27.000Z</time>
      </trkpt>
      <trkpt lat="43.96643" lon="2.23178">
        <ele>237</ele>
        <time>2021-02-25T12:44:28.000Z</time>
      </trkpt>
      <trkpt lat="43.96644" lon="2.23179">
        <ele>237</ele>
        <time>2021-02-25T12:44:29.000Z</time>
      </trkpt>
      <trkpt lat="43.96644" lon="2.23178">
        <ele>236</ele>
        <time>2021-02-25T12:44:30.000Z</time>
      </trkpt>
      <trkpt lat="43.96646" lon="2.23179">
        <ele>236</ele>
        <time>2021-02-25T12:44:31.000Z</time>
      </trkpt>
      <trkpt lat="43.96647" lon="2.2318">
        <ele>236</ele>
        <time>2021-02-25T12:44:32.000Z</time>
      </trkpt>
      <trkpt lat="43.96648" lon="2.2318">
        <ele>236</ele>
        <time>2021-02-25T12:44:33.000Z</time>
      </trkpt>
      <trkpt lat="43.96649" lon="2.2318">
        <ele>236</ele>
        <time>2021-02-25T12:44:34.000Z</time>
      </trkpt>
      <trkpt lat="43.9665" lon="2.2318">
        <ele>236</ele>
        <time>2021-02-25T12:44:35.000Z</time>
      </trkpt>
      <trkpt lat="43.96651" lon="2.23181">
        <ele>236</ele>
        <time>2021-02-25T12:44:36.000Z</time>
      </trkpt>
      <trkpt lat="43.96653" lon="2.23181">
        <ele>236</ele>
        <time>2021-02-25T12:44:37.000Z</time>
      </trkpt>
      <trkpt lat="43.96654" lon="2.23181">
        <ele>236</ele>
        <time>2021-02-25T12:44:38.000Z</time>
      </trkpt>
      <trkpt lat="43.96656" lon="2.23181">
        <ele>236</ele>
        <time>2021-02-25T12:44:39.000Z</time>
      </trkpt>
      <trkpt lat="43.96657" lon="2.23181">
        <ele>236</ele>
        <time>2021-02-25T12:44:40.000Z</time>
      </trkpt>
      <trkpt lat="43.96658" lon="2.23181">
        <ele>236</ele>
        <time>2021-02-25T12:44:41.000Z</time>
      </trkpt>
      <trkpt lat="43.96659" lon="2.23182">
        <ele>235</ele>
        <time>2021-02-25T12:44:42.000Z</time>
      </trkpt>
      <trkpt lat="43.9666" lon="2.23182">
        <ele>235</ele>
        <time>2021-02-25T12:44:43.000Z</time>
      </trkpt>
      <trkpt lat="43.96661" lon="2.23183">
        <ele>235</ele>
        <time>2021-02-25T12:44:44.000Z</time>
      </trkpt>
      <trkpt lat="43.96662" lon="2.23183">
        <ele>235</ele>
        <time>2021-02-25T12:44:45.000Z</time>
      </trkpt>
      <trkpt lat="43.96662" lon="2.23184">
        <ele>235</ele>
        <time>2021-02-25T12:44:46.000Z</time>
      </trkpt>
      <trkpt lat="43.96663" lon="2.23185">
        <ele>236</ele>
        <time>2021-02-25T12:44:47.000Z</time>
      </trkpt>
      <trkpt lat="43.96664" lon="2.23185">
        <ele>236</ele>
        <time>2021-02-25T12:44:48.000Z</time>
      </trkpt>
      <trkpt lat="43.96664" lon="2.23185">
        <ele>236</ele>
        <time>2021-02-25T12:44:49.000Z</time>
      </trkpt>
      <trkpt lat="43.96665" lon="2.23186">
        <ele>236</ele>
        <time>2021-02-25T12:44:50.000Z</time>
      </trkpt>
      <trkpt lat="43.96665" lon="2.23186">
        <ele>236</ele>
        <time>2021-02-25T12:44:51.000Z</time>
      </trkpt>
      <trkpt lat="43.96666" lon="2.23187">
        <ele>236</ele>
        <time>2021-02-25T12:44:52.000Z</time>
      </trkpt>
      <trkpt lat="43.96667" lon="2.23188">
        <ele>236</ele>
        <time>2021-02-25T12:44:53.000Z</time>
      </trkpt>
      <trkpt lat="43.96668" lon="2.23189">
        <ele>236</ele>
        <time>2021-02-25T12:44:54.000Z</time>
      </trkpt>
      <trkpt lat="43.96669" lon="2.2319">
        <ele>236</ele>
        <time>2021-02-25T12:44:55.000Z</time>
      </trkpt>
      <trkpt lat="43.9667" lon="2.23191">
        <ele>236</ele>
        <time>2021-02-25T12:44:56.000Z</time>
      </trkpt>
      <trkpt lat="43.9667" lon="2.23192">
        <ele>236</ele>
        <time>2021-02-25T12:44:57.000Z</time>
      </trkpt>
      <trkpt lat="43.96671" lon="2.23193">
        <ele>236</ele>
        <time>2021-02-25T12:44:58.000Z</time>
      </trkpt>
      <trkpt lat="43.96672" lon="2.23194">
        <ele>236</ele>
        <time>2021-02-25T12:44:59.000Z</time>
      </trkpt>
      <trkpt lat="43.96673" lon="2.23195">
        <ele>236</ele>
        <time>2021-02-25T12:45:00.000Z</time>
      </trkpt>
      <trkpt lat="43.96673" lon="2.23196">
        <ele>236</ele>
        <time>2021-02-25T12:45:01.000Z</time>
      </trkpt>
      <trkpt lat="43.96674" lon="2.23197">
        <ele>237</ele>
        <time>2021-02-25T12:45:02.000Z</time>
      </trkpt>
      <trkpt lat="43.96674" lon="2.23199">
        <ele>237</ele>
        <time>2021-02-25T12:45:03.000Z</time>
      </trkpt>
      <trkpt lat="43.96674" lon="2.23201">
        <ele>237</ele>
        <time>2021-02-25T12:45:04.000Z</time>
      </trkpt>
      <trkpt lat="43.96674" lon="2.23202">
        <ele>237</ele>
        <time>2021-02-25T12:45:05.000Z</time>
      </trkpt>
      <trkpt lat="43.96674" lon="2.23204">
        <ele>237</ele>
        <time>2021-02-25T12:45:06.000Z</time>
      </trkpt>
      <trkpt lat="43.96673" lon="2.23205">
        <ele>236</ele>
        <time>2021-02-25T12:45:07.000Z</time>
      </trkpt>
      <trkpt lat="43.96673" lon="2.23206">
        <ele>236</ele>
        <time>2021-02-25T12:45:08.000Z</time>
      </trkpt>
      <trkpt lat="43.96673" lon="2.23207">
        <ele>236</ele>
        <time>2021-02-25T12:45:09.000Z</time>
      </trkpt>
      <trkpt lat="43.96672" lon="2.23208">
        <ele>236</ele>
        <time>2021-02-25T12:45:10.000Z</time>
      </trkpt>
      <trkpt lat="43.96671" lon="2.2321">
        <ele>235</ele>
        <time>2021-02-25T12:45:11.000Z</time>
      </trkpt>
      <trkpt lat="43.96671" lon="2.23211">
        <ele>235</ele>
        <time>2021-02-25T12:45:12.000Z</time>
      </trkpt>
      <trkpt lat="43.9667" lon="2.23212">
        <ele>235</ele>
        <time>2021-02-25T12:45:13.000Z</time>
      </trkpt>
      <trkpt lat="43.9667" lon="2.23213">
        <ele>235</ele>
        <time>2021-02-25T12:45:14.000Z</time>
      </trkpt>
      <trkpt lat="43.9667" lon="2.23215">
        <ele>234</ele>
        <time>2021-02-25T12:45:15.000Z</time>
      </trkpt>
      <trkpt lat="43.96669" lon="2.23217">
        <ele>234</ele>
        <time>2021-02-25T12:45:16.000Z</time>
      </trkpt>
      <trkpt lat="43.96669" lon="2.23218">
        <ele>234</ele>
        <time>2021-02-25T12:45:17.000Z</time>
      </trkpt>
      <trkpt lat="43.96669" lon="2.2322">
        <ele>234</ele>
        <time>2021-02-25T12:45:18.000Z</time>
      </trkpt>
      <trkpt lat="43.96668" lon="2.23221">
        <ele>234</ele>
        <time>2021-02-25T12:45:19.000Z</time>
      </trkpt>
      <trkpt lat="43.96668" lon="2.23222">
        <ele>233</ele>
        <time>2021-02-25T12:45:20.000Z</time>
      </trkpt>
      <trkpt lat="43.96667" lon="2.23223">
        <ele>233</ele>
        <time>2021-02-25T12:45:21.000Z</time>
      </trkpt>
      <trkpt lat="43.96667" lon="2.23224">
        <ele>233</ele>
        <time>2021-02-25T12:45:22.000Z</time>
      </trkpt>
      <trkpt lat="43.96667" lon="2.23225">
        <ele>233</ele>
        <time>2021-02-25T12:45:23.000Z</time>
      </trkpt>
      <trkpt lat="43.96666" lon="2.23226">
        <ele>233</ele>
        <time>2021-02-25T12:45:24.000Z</time>
      </trkpt>
      <trkpt lat="43.96666" lon="2.23228">
        <ele>232</ele>
        <time>2021-02-25T12:45:25.000Z</time>
      </trkpt>
      <trkpt lat="43.96665" lon="2.23228">
        <ele>232</ele>
        <time>2021-02-25T12:45:26.000Z</time>
      </trkpt>
      <trkpt lat="43.96664" lon="2.23229">
        <ele>232</ele>
        <time>2021-02-25T12:45:27.000Z</time>
      </trkpt>
      <trkpt lat="43.96664" lon="2.2323">
        <ele>232</ele>
        <time>2021-02-25T12:45:28.000Z</time>
      </trkpt>
      <trkpt lat="43.96663" lon="2.23231">
        <ele>232</ele>
        <time>2021-02-25T12:45:29.000Z</time>
      </trkpt>
      <trkpt lat="43.96662" lon="2.23232">
        <ele>232</ele>
        <time>2021-02-25T12:45:30.000Z</time>
      </trkpt>
      <trkpt lat="43.96662" lon="2.23233">
        <ele>232</ele>
        <time>2021-02-25T12:45:31.000Z</time>
      </trkpt>
      <trkpt lat="43.96661" lon="2.23234">
        <ele>231</ele>
        <time>2021-02-25T12:45:32.000Z</time>
      </trkpt>
      <trkpt lat="43.96661" lon="2.23236">
        <ele>231</ele>
        <time>2021-02-25T12:45:33.000Z</time>
      </trkpt>
      <trkpt lat="43.96662" lon="2.23237">
        <ele>231</ele>
        <time>2021-02-25T12:45:34.000Z</time>
      </trkpt>
      <trkpt lat="43.96662" lon="2.23238">
        <ele>231</ele>
        <time>2021-02-25T12:45:35.000Z</time>
      </trkpt>
      <trkpt lat="43.96662" lon="2.23239">
        <ele>230</ele>
        <time>2021-02-25T12:45:36.000Z</time>
      </trkpt>
      <trkpt lat="43.96662" lon="2.2324">
        <ele>230</ele>
        <time>2021-02-25T12:45:37.000Z</time>
      </trkpt>
      <trkpt lat="43.96663" lon="2.23241">
        <ele>230</ele>
        <time>2021-02-25T12:45:38.000Z</time>
      </trkpt>
      <trkpt lat="43.96664" lon="2.23241">
        <ele>230</ele>
        <time>2021-02-25T12:45:39.000Z</time>
      </trkpt>
      <trkpt lat="43.96665" lon="2.23241">
        <ele>230</ele>
        <time>2021-02-25T12:45:40.000Z</time>
      </trkpt>
      <trkpt lat="43.96665" lon="2.2324">
        <ele>229</ele>
        <time>2021-02-25T12:45:41.000Z</time>
      </trkpt>
      <trkpt lat="43.96666" lon="2.2324">
        <ele>229</ele>
        <time>2021-02-25T12:45:42.000Z</time>
      </trkpt>
      <trkpt lat="43.96667" lon="2.23239">
        <ele>229</ele>
        <time>2021-02-25T12:45:43.000Z</time>
      </trkpt>
      <trkpt lat="43.96667" lon="2.23238">
        <ele>229</ele>
        <time>2021-02-25T12:45:44.000Z</time>
      </trkpt>
      <trkpt lat="43.96668" lon="2.23238">
        <ele>229</ele>
        <time>2021-02-25T12:45:45.000Z</time>
      </trkpt>
      <trkpt lat="43.96669" lon="2.23237">
        <ele>228</ele>
        <time>2021-02-25T12:45:46.000Z</time>
      </trkpt>
      <trkpt lat="43.9667" lon="2.23236">
        <ele>228</ele>
        <time>2021-02-25T12:45:47.000Z</time>
      </trkpt>
      <trkpt lat="43.9667" lon="2.23235">
        <ele>228</ele>
        <time>2021-02-25T12:45:48.000Z</time>
      </trkpt>
      <trkpt lat="43.96671" lon="2.23234">
        <ele>228</ele>
        <time>2021-02-25T12:45:49.000Z</time>
      </trkpt>
      <trkpt lat="43.96671" lon="2.23234">
        <ele>228</ele>
        <time>2021-02-25T12:45:50.000Z</time>
      </trkpt>
      <trkpt lat="43.96672" lon="2.23234">
        <ele>228</ele>
        <time>2021-02-25T12:45:51.000Z</time>
      </trkpt>
      <trkpt lat="43.96673" lon="2.23234">
        <ele>227</ele>
        <time>2021-02-25T12:45:52.000Z</time>
      </trkpt>
      <trkpt lat="43.96673" lon="2.23234">
        <ele>227</ele>
        <time>2021-02-25T12:45:53.000Z</time>
      </trkpt>
      <trkpt lat="43.96674" lon="2.23234">
        <ele>227</ele>
        <time>2021-02-25T12:45:54.000Z</time>
      </trkpt>
      <trkpt lat="43.96675" lon="2.23234">
        <ele>227</ele>
        <time>2021-02-25T12:45:55.000Z</time>
      </trkpt>
      <trkpt lat="43.96676" lon="2.23234">
        <ele>227</ele>
        <time>2021-02-25T12:45:56.000Z</time>
      </trkpt>
      <trkpt lat="43.96677" lon="2.23233">
        <ele>227</ele>
        <time>2021-02-25T12:45:57.000Z</time>
      </trkpt>
      <trkpt lat="43.96678" lon="2.23233">
        <ele>228</ele>
        <time>2021-02-25T12:45:58.000Z</time>
      </trkpt>
      <trkpt lat="43.96679" lon="2.23233">
        <ele>228</ele>
        <time>2021-02-25T12:45:59.000Z</time>
      </trkpt>
      <trkpt lat="43.96679" lon="2.23233">
        <ele>228</ele>
        <time>2021-02-25T12:46:00.000Z</time>
      </trkpt>
      <trkpt lat="43.9668" lon="2.23232">
        <ele>228</ele>
        <time>2021-02-25T12:46:01.000Z</time>
      </trkpt>
      <trkpt lat="43.96681" lon="2.23232">
        <ele>228</ele>
        <time>2021-02-25T12:46:02.000Z</time>
      </trkpt>
      <trkpt lat="43.96681" lon="2.23231">
        <ele>228</ele>
        <time>2021-02-25T12:46:03.000Z</time>
      </trkpt>
      <trkpt lat="43.96682" lon="2.23231">
        <ele>228</ele>
        <time>2021-02-25T12:46:04.000Z</time>
      </trkpt>
      <trkpt lat="43.96683" lon="2.2323">
        <ele>228</ele>
        <time>2021-02-25T12:46:05.000Z</time>
      </trkpt>
      <trkpt lat="43.96684" lon="2.23229">
        <ele>228</ele>
        <time>2021-02-25T12:46:06.000Z</time>
      </trkpt>
      <trkpt lat="43.96685" lon="2.23229">
        <ele>228</ele>
        <time>2021-02-25T12:46:07.000Z</time>
      </trkpt>
      <trkpt lat="43.96686" lon="2.23228">
        <ele>228</ele>
        <time>2021-02-25T12:46:08.000Z</time>
      </trkpt>
      <trkpt lat="43.96687" lon="2.23228">
        <ele>228</ele>
        <time>2021-02-25T12:46:09.000Z</time>
      </trkpt>
      <trkpt lat="43.96688" lon="2.23227">
        <ele>228</ele>
        <time>2021-02-25T12:46:10.000Z</time>
      </trkpt>
      <trkpt lat="43.96689" lon="2.23227">
        <ele>228</ele>
        <time>2021-02-25T12:46:11.000Z</time>
      </trkpt>
      <trkpt lat="43.9669" lon="2.23227">
        <ele>228</ele>
        <time>2021-02-25T12:46:12.000Z</time>
      </trkpt>
      <trkpt lat="43.96691" lon="2.23226">
        <ele>228</ele>
        <time>2021-02-25T12:46:13.000Z</time>
      </trkpt>
      <trkpt lat="43.96691" lon="2.23226">
        <ele>229</ele>
        <time>2021-02-25T12:46:14.000Z</time>
      </trkpt>
      <trkpt lat="43.96692" lon="2.23226">
        <ele>229</ele>
        <time>2021-02-25T12:46:15.000Z</time>
      </trkpt>
      <trkpt lat="43.96693" lon="2.23225">
        <ele>229</ele>
        <time>2021-02-25T12:46:16.000Z</time>
      </trkpt>
      <trkpt lat="43.96694" lon="2.23225">
        <ele>229</ele>
        <time>2021-02-25T12:46:17.000Z</time>
      </trkpt>
      <trkpt lat="43.96694" lon="2.23224">
        <ele>229</ele>
        <time>2021-02-25T12:46:18.000Z</time>
      </trkpt>
      <trkpt lat="43.96695" lon="2.23224">
        <ele>229</ele>
        <time>2021-02-25T12:46:19.000Z</time>
      </trkpt>
      <trkpt lat="43.96696" lon="2.23225">
        <ele>229</ele>
        <time>2021-02-25T12:46:20.000Z</time>
      </trkpt>
      <trkpt lat="43.96697" lon="2.23225">
        <ele>229</ele>
        <time>2021-02-25T12:46:21.000Z</time>
      </trkpt>
      <trkpt lat="43.96698" lon="2.23226">
        <ele>229</ele>
        <time>2021-02-25T12:46:22.000Z</time>
      </trkpt>
      <trkpt lat="43.96699" lon="2.23226">
        <ele>229</ele>
        <time>2021-02-25T12:46:23.000Z</time>
      </trkpt>
      <trkpt lat="43.967" lon="2.23227">
        <ele>230</ele>
        <time>2021-02-25T12:46:24.000Z</time>
      </trkpt>
      <trkpt lat="43.967" lon="2.23227">
        <ele>230</ele>
        <time>2021-02-25T12:46:25.000Z</time>
      </trkpt>
      <trkpt lat="43.96701" lon="2.23228">
        <ele>230</ele>
        <time>2021-02-25T12:46:26.000Z</time>
      </trkpt>
      <trkpt lat="43.96701" lon="2.23228">
        <ele>230</ele>
        <time>2021-02-25T12:46:27.000Z</time>
      </trkpt>
      <trkpt lat="43.96702" lon="2.23228">
        <ele>230</ele>
        <time>2021-02-25T12:46:28.000Z</time>
      </trkpt>
      <trkpt lat="43.96703" lon="2.23229">
        <ele>231</ele>
        <time>2021-02-25T12:46:29.000Z</time>
      </trkpt>
      <trkpt lat="43.96704" lon="2.23229">
        <ele>231</ele>
        <time>2021-02-25T12:46:30.000Z</time>
      </trkpt>
      <trkpt lat="43.96705" lon="2.2323">
        <ele>231</ele>
        <time>2021-02-25T12:46:31.000Z</time>
      </trkpt>
      <trkpt lat="43.96706" lon="2.2323">
        <ele>231</ele>
        <time>2021-02-25T12:46:32.000Z</time>
      </trkpt>
      <trkpt lat="43.96707" lon="2.2323">
        <ele>232</ele>
        <time>2021-02-25T12:46:33.000Z</time>
      </trkpt>
      <trkpt lat="43.96708" lon="2.23231">
        <ele>232</ele>
        <time>2021-02-25T12:46:34.000Z</time>
      </trkpt>
      <trkpt lat="43.96709" lon="2.23231">
        <ele>232</ele>
        <time>2021-02-25T12:46:35.000Z</time>
      </trkpt>
      <trkpt lat="43.96711" lon="2.23231">
        <ele>232</ele>
        <time>2021-02-25T12:46:36.000Z</time>
      </trkpt>
      <trkpt lat="43.96712" lon="2.23232">
        <ele>232</ele>
        <time>2021-02-25T12:46:37.000Z</time>
      </trkpt>
      <trkpt lat="43.96713" lon="2.23231">
        <ele>232</ele>
        <time>2021-02-25T12:46:38.000Z</time>
      </trkpt>
      <trkpt lat="43.96714" lon="2.23231">
        <ele>232</ele>
        <time>2021-02-25T12:46:39.000Z</time>
      </trkpt>
      <trkpt lat="43.96715" lon="2.23231">
        <ele>232</ele>
        <time>2021-02-25T12:46:40.000Z</time>
      </trkpt>
      <trkpt lat="43.96716" lon="2.23231">
        <ele>233</ele>
        <time>2021-02-25T12:46:41.000Z</time>
      </trkpt>
      <trkpt lat="43.96718" lon="2.23231">
        <ele>233</ele>
        <time>2021-02-25T12:46:42.000Z</time>
      </trkpt>
      <trkpt lat="43.96719" lon="2.23231">
        <ele>233</ele>
        <time>2021-02-25T12:46:43.000Z</time>
      </trkpt>
      <trkpt lat="43.9672" lon="2.23231">
        <ele>233</ele>
        <time>2021-02-25T12:46:44.000Z</time>
      </trkpt>
      <trkpt lat="43.96721" lon="2.23231">
        <ele>233</ele>
        <time>2021-02-25T12:46:45.000Z</time>
      </trkpt>
      <trkpt lat="43.96722" lon="2.23231">
        <ele>233</ele>
        <time>2021-02-25T12:46:46.000Z</time>
      </trkpt>
      <trkpt lat="43.96723" lon="2.23231">
        <ele>233</ele>
        <time>2021-02-25T12:46:47.000Z</time>
      </trkpt>
      <trkpt lat="43.96724" lon="2.2323">
        <ele>233</ele>
        <time>2021-02-25T12:46:48.000Z</time>
      </trkpt>
      <trkpt lat="43.96725" lon="2.23229">
        <ele>233</ele>
        <time>2021-02-25T12:46:49.000Z</time>
      </trkpt>
      <trkpt lat="43.96726" lon="2.23229">
        <ele>233</ele>
        <time>2021-02-25T12:46:50.000Z</time>
      </trkpt>
      <trkpt lat="43.96727" lon="2.23228">
        <ele>233</ele>
        <time>2021-02-25T12:46:51.000Z</time>
      </trkpt>
      <trkpt lat="43.96728" lon="2.23227">
        <ele>233</ele>
        <time>2021-02-25T12:46:52.000Z</time>
      </trkpt>
      <trkpt lat="43.96729" lon="2.23226">
        <ele>233</ele>
        <time>2021-02-25T12:46:53.000Z</time>
      </trkpt>
      <trkpt lat="43.96731" lon="2.23225">
        <ele>233</ele>
        <time>2021-02-25T12:46:54.000Z</time>
      </trkpt>
      <trkpt lat="43.96732" lon="2.23223">
        <ele>233</ele>
        <time>2021-02-25T12:46:55.000Z</time>
      </trkpt>
      <trkpt lat="43.96733" lon="2.23222">
        <ele>233</ele>
        <time>2021-02-25T12:46:56.000Z</time>
      </trkpt>
      <trkpt lat="43.96733" lon="2.23221">
        <ele>233</ele>
        <time>2021-02-25T12:46:57.000Z</time>
      </trkpt>
      <trkpt lat="43.96734" lon="2.2322">
        <ele>233</ele>
        <time>2021-02-25T12:46:58.000Z</time>
      </trkpt>
      <trkpt lat="43.96735" lon="2.23219">
        <ele>233</ele>
        <time>2021-02-25T12:46:59.000Z</time>
      </trkpt>
      <trkpt lat="43.96736" lon="2.23218">
        <ele>233</ele>
        <time>2021-02-25T12:47:00.000Z</time>
      </trkpt>
      <trkpt lat="43.96737" lon="2.23218">
        <ele>233</ele>
        <time>2021-02-25T12:47:01.000Z</time>
      </trkpt>
      <trkpt lat="43.96738" lon="2.23217">
        <ele>233</ele>
        <time>2021-02-25T12:47:02.000Z</time>
      </trkpt>
      <trkpt lat="43.96739" lon="2.23216">
        <ele>233</ele>
        <time>2021-02-25T12:47:03.000Z</time>
      </trkpt>
      <trkpt lat="43.96739" lon="2.23215">
        <ele>233</ele>
        <time>2021-02-25T12:47:04.000Z</time>
      </trkpt>
      <trkpt lat="43.9674" lon="2.23214">
        <ele>233</ele>
        <time>2021-02-25T12:47:05.000Z</time>
      </trkpt>
      <trkpt lat="43.9674" lon="2.23213">
        <ele>233</ele>
        <time>2021-02-25T12:47:06.000Z</time>
      </trkpt>
      <trkpt lat="43.96741" lon="2.23213">
        <ele>233</ele>
        <time>2021-02-25T12:47:07.000Z</time>
      </trkpt>
      <trkpt lat="43.96741" lon="2.23212">
        <ele>233</ele>
        <time>2021-02-25T12:47:08.000Z</time>
      </trkpt>
      <trkpt lat="43.96742" lon="2.23211">
        <ele>233</ele>
        <time>2021-02-25T12:47:09.000Z</time>
      </trkpt>
      <trkpt lat="43.96743" lon="2.2321">
        <ele>233</ele>
        <time>2021-02-25T12:47:10.000Z</time>
      </trkpt>
      <trkpt lat="43.96744" lon="2.23209">
        <ele>233</ele>
        <time>2021-02-25T12:47:11.000Z</time>
      </trkpt>
      <trkpt lat="43.96744" lon="2.23208">
        <ele>233</ele>
        <time>2021-02-25T12:47:12.000Z</time>
      </trkpt>
      <trkpt lat="43.96745" lon="2.23207">
        <ele>233</ele>
        <time>2021-02-25T12:47:13.000Z</time>
      </trkpt>
      <trkpt lat="43.96746" lon="2.23206">
        <ele>232</ele>
        <time>2021-02-25T12:47:14.000Z</time>
      </trkpt>
      <trkpt lat="43.96747" lon="2.23205">
        <ele>232</ele>
        <time>2021-02-25T12:47:15.000Z</time>
      </trkpt>
      <trkpt lat="43.96747" lon="2.23205">
        <ele>232</ele>
        <time>2021-02-25T12:47:16.000Z</time>
      </trkpt>
      <trkpt lat="43.96748" lon="2.23204">
        <ele>232</ele>
        <time>2021-02-25T12:47:17.000Z</time>
      </trkpt>
      <trkpt lat="43.96749" lon="2.23203">
        <ele>232</ele>
        <time>2021-02-25T12:47:18.000Z</time>
      </trkpt>
      <trkpt lat="43.9675" lon="2.23202">
        <ele>232</ele>
        <time>2021-02-25T12:47:19.000Z</time>
      </trkpt>
      <trkpt lat="43.96751" lon="2.23202">
        <ele>232</ele>
        <time>2021-02-25T12:47:20.000Z</time>
      </trkpt>
      <trkpt lat="43.96752" lon="2.23201">
        <ele>231</ele>
        <time>2021-02-25T12:47:21.000Z</time>
      </trkpt>
      <trkpt lat="43.96753" lon="2.232">
        <ele>231</ele>
        <time>2021-02-25T12:47:22.000Z</time>
      </trkpt>
      <trkpt lat="43.96754" lon="2.232">
        <ele>231</ele>
        <time>2021-02-25T12:47:23.000Z</time>
      </trkpt>
      <trkpt lat="43.96756" lon="2.23199">
        <ele>231</ele>
        <time>2021-02-25T12:47:24.000Z</time>
      </trkpt>
      <trkpt lat="43.96757" lon="2.23199">
        <ele>231</ele>
        <time>2021-02-25T12:47:25.000Z</time>
      </trkpt>
      <trkpt lat="43.96758" lon="2.23198">
        <ele>231</ele>
        <time>2021-02-25T12:47:26.000Z</time>
      </trkpt>
      <trkpt lat="43.96759" lon="2.23197">
        <ele>231</ele>
        <time>2021-02-25T12:47:27.000Z</time>
      </trkpt>
      <trkpt lat="43.9676" lon="2.23197">
        <ele>231</ele>
        <time>2021-02-25T12:47:28.000Z</time>
      </trkpt>
      <trkpt lat="43.96761" lon="2.23197">
        <ele>231</ele>
        <time>2021-02-25T12:47:29.000Z</time>
      </trkpt>
      <trkpt lat="43.96762" lon="2.23196">
        <ele>231</ele>
        <time>2021-02-25T12:47:30.000Z</time>
      </trkpt>
      <trkpt lat="43.96763" lon="2.23196">
        <ele>231</ele>
        <time>2021-02-25T12:47:31.000Z</time>
      </trkpt>
      <trkpt lat="43.96765" lon="2.23195">
        <ele>231</ele>
        <time>2021-02-25T12:47:32.000Z</time>
      </trkpt>
      <trkpt lat="43.96766" lon="2.23194">
        <ele>231</ele>
        <time>2021-02-25T12:47:33.000Z</time>
      </trkpt>
      <trkpt lat="43.96766" lon="2.23194">
        <ele>231</ele>
        <time>2021-02-25T12:47:34.000Z</time>
      </trkpt>
      <trkpt lat="43.96767" lon="2.23193">
        <ele>231</ele>
        <time>2021-02-25T12:47:35.000Z</time>
      </trkpt>
      <trkpt lat="43.96768" lon="2.23193">
        <ele>231</ele>
        <time>2021-02-25T12:47:36.000Z</time>
      </trkpt>
      <trkpt lat="43.96769" lon="2.23193">
        <ele>231</ele>
        <time>2021-02-25T12:47:37.000Z</time>
      </trkpt>
      <trkpt lat="43.96769" lon="2.23192">
        <ele>231</ele>
        <time>2021-02-25T12:47:38.000Z</time>
      </trkpt>
      <trkpt lat="43.9677" lon="2.23192">
        <ele>231</ele>
        <time>2021-02-25T12:47:39.000Z</time>
      </trkpt>
      <trkpt lat="43.96771" lon="2.23192">
        <ele>231</ele>
        <time>2021-02-25T12:47:40.000Z</time>
      </trkpt>
      <trkpt lat="43.96772" lon="2.23191">
        <ele>231</ele>
        <time>2021-02-25T12:47:41.000Z</time>
      </trkpt>
      <trkpt lat="43.96772" lon="2.23191">
        <ele>231</ele>
        <time>2021-02-25T12:47:42.000Z</time>
      </trkpt>
      <trkpt lat="43.96773" lon="2.23191">
        <ele>231</ele>
        <time>2021-02-25T12:47:43.000Z</time>
      </trkpt>
      <trkpt lat="43.96774" lon="2.23191">
        <ele>231</ele>
        <time>2021-02-25T12:47:44.000Z</time>
      </trkpt>
      <trkpt lat="43.96775" lon="2.23191">
        <ele>230</ele>
        <time>2021-02-25T12:47:45.000Z</time>
      </trkpt>
      <trkpt lat="43.96775" lon="2.23191">
        <ele>230</ele>
        <time>2021-02-25T12:47:46.000Z</time>
      </trkpt>
      <trkpt lat="43.96776" lon="2.23191">
        <ele>230</ele>
        <time>2021-02-25T12:47:47.000Z</time>
      </trkpt>
      <trkpt lat="43.96777" lon="2.23191">
        <ele>230</ele>
        <time>2021-02-25T12:47:48.000Z</time>
      </trkpt>
      <trkpt lat="43.96778" lon="2.23191">
        <ele>230</ele>
        <time>2021-02-25T12:47:49.000Z</time>
      </trkpt>
      <trkpt lat="43.96778" lon="2.23191">
        <ele>230</ele>
        <time>2021-02-25T12:47:50.000Z</time>
      </trkpt>
      <trkpt lat="43.9678" lon="2.23192">
        <ele>230</ele>
        <time>2021-02-25T12:47:51.000Z</time>
      </trkpt>
      <trkpt lat="43.9678" lon="2.23192">
        <ele>230</ele>
        <time>2021-02-25T12:47:52.000Z</time>
      </trkpt>
      <trkpt lat="43.96781" lon="2.23193">
        <ele>230</ele>
        <time>2021-02-25T12:47:53.000Z</time>
      </trkpt>
      <trkpt lat="43.96782" lon="2.23194">
        <ele>230</ele>
        <time>2021-02-25T12:47:54.000Z</time>
      </trkpt>
      <trkpt lat="43.96783" lon="2.23194">
        <ele>230</ele>
        <time>2021-02-25T12:47:55.000Z</time>
      </trkpt>
      <trkpt lat="43.96784" lon="2.23195">
        <ele>230</ele>
        <time>2021-02-25T12:47:56.000Z</time>
      </trkpt>
      <trkpt lat="43.96785" lon="2.23195">
        <ele>231</ele>
        <time>2021-02-25T12:47:57.000Z</time>
      </trkpt>
      <trkpt lat="43.96786" lon="2.23196">
        <ele>231</ele>
        <time>2021-02-25T12:47:58.000Z</time>
      </trkpt>
      <trkpt lat="43.96787" lon="2.23197">
        <ele>231</ele>
        <time>2021-02-25T12:47:59.000Z</time>
      </trkpt>
      <trkpt lat="43.96788" lon="2.23197">
        <ele>231</ele>
        <time>2021-02-25T12:48:00.000Z</time>
      </trkpt>
      <trkpt lat="43.96789" lon="2.23198">
        <ele>231</ele>
        <time>2021-02-25T12:48:01.000Z</time>
      </trkpt>
      <trkpt lat="43.96791" lon="2.23199">
        <ele>231</ele>
        <time>2021-02-25T12:48:02.000Z</time>
      </trkpt>
      <trkpt lat="43.96792" lon="2.232">
        <ele>231</ele>
        <time>2021-02-25T12:48:03.000Z</time>
      </trkpt>
      <trkpt lat="43.96793" lon="2.232">
        <ele>231</ele>
        <time>2021-02-25T12:48:04.000Z</time>
      </trkpt>
      <trkpt lat="43.96794" lon="2.23201">
        <ele>232</ele>
        <time>2021-02-25T12:48:05.000Z</time>
      </trkpt>
      <trkpt lat="43.96795" lon="2.23201">
        <ele>232</ele>
        <time>2021-02-25T12:48:06.000Z</time>
      </trkpt>
      <trkpt lat="43.96796" lon="2.23202">
        <ele>232</ele>
        <time>2021-02-25T12:48:07.000Z</time>
      </trkpt>
      <trkpt lat="43.96798" lon="2.23203">
        <ele>232</ele>
        <time>2021-02-25T12:48:08.000Z</time>
      </trkpt>
      <trkpt lat="43.96799" lon="2.23203">
        <ele>232</ele>
        <time>2021-02-25T12:48:09.000Z</time>
      </trkpt>
      <trkpt lat="43.968" lon="2.23204">
        <ele>232</ele>
        <time>2021-02-25T12:48:10.000Z</time>
      </trkpt>
      <trkpt lat="43.96802" lon="2.23204">
        <ele>232</ele>
        <time>2021-02-25T12:48:11.000Z</time>
      </trkpt>
      <trkpt lat="43.96803" lon="2.23205">
        <ele>232</ele>
        <time>2021-02-25T12:48:12.000Z</time>
      </trkpt>
      <trkpt lat="43.96804" lon="2.23206">
        <ele>233</ele>
        <time>2021-02-25T12:48:13.000Z</time>
      </trkpt>
      <trkpt lat="43.96805" lon="2.23206">
        <ele>233</ele>
        <time>2021-02-25T12:48:14.000Z</time>
      </trkpt>
      <trkpt lat="43.96807" lon="2.23207">
        <ele>233</ele>
        <time>2021-02-25T12:48:15.000Z</time>
      </trkpt>
      <trkpt lat="43.96808" lon="2.23208">
        <ele>233</ele>
        <time>2021-02-25T12:48:16.000Z</time>
      </trkpt>
      <trkpt lat="43.96809" lon="2.23209">
        <ele>233</ele>
        <time>2021-02-25T12:48:17.000Z</time>
      </trkpt>
      <trkpt lat="43.9681" lon="2.2321">
        <ele>232</ele>
        <time>2021-02-25T12:48:18.000Z</time>
      </trkpt>
      <trkpt lat="43.96811" lon="2.2321">
        <ele>232</ele>
        <time>2021-02-25T12:48:19.000Z</time>
      </trkpt>
      <trkpt lat="43.96812" lon="2.23211">
        <ele>232</ele>
        <time>2021-02-25T12:48:20.000Z</time>
      </trkpt>
      <trkpt lat="43.96813" lon="2.23211">
        <ele>232</ele>
        <time>2021-02-25T12:48:21.000Z</time>
      </trkpt>
      <trkpt lat="43.96814" lon="2.23212">
        <ele>232</ele>
        <time>2021-02-25T12:48:22.000Z</time>
      </trkpt>
      <trkpt lat="43.96814" lon="2.23212">
        <ele>232</ele>
        <time>2021-02-25T12:48:23.000Z</time>
      </trkpt>
      <trkpt lat="43.96815" lon="2.23213">
        <ele>231</ele>
        <time>2021-02-25T12:48:24.000Z</time>
      </trkpt>
      <trkpt lat="43.96816" lon="2.23213">
        <ele>231</ele>
        <time>2021-02-25T12:48:25.000Z</time>
      </trkpt>
      <trkpt lat="43.96817" lon="2.23214">
        <ele>231</ele>
        <time>2021-02-25T12:48:26.000Z</time>
      </trkpt>
      <trkpt lat="43.96817" lon="2.23215">
        <ele>231</ele>
        <time>2021-02-25T12:48:27.000Z</time>
      </trkpt>
      <trkpt lat="43.96818" lon="2.23216">
        <ele>230</ele>
        <time>2021-02-25T12:48:28.000Z</time>
      </trkpt>
      <trkpt lat="43.96819" lon="2.23217">
        <ele>230</ele>
        <time>2021-02-25T12:48:29.000Z</time>
      </trkpt>
      <trkpt lat="43.9682" lon="2.23218">
        <ele>229</ele>
        <time>2021-02-25T12:48:30.000Z</time>
      </trkpt>
      <trkpt lat="43.9682" lon="2.23218">
        <ele>229</ele>
        <time>2021-02-25T12:48:31.000Z</time>
      </trkpt>
      <trkpt lat="43.9682" lon="2.23218">
        <ele>229</ele>
        <time>2021-02-25T12:48:32.000Z</time>
      </trkpt>
      <trkpt lat="43.96821" lon="2.23218">
        <ele>228</ele>
        <time>2021-02-25T12:48:33.000Z</time>
      </trkpt>
      <trkpt lat="43.96821" lon="2.23219">
        <ele>228</ele>
        <time>2021-02-25T12:48:34.000Z</time>
      </trkpt>
      <trkpt lat="43.96825" lon="2.23225">
        <ele>226</ele>
        <time>2021-02-25T12:48:35.000Z</time>
      </trkpt>
      <trkpt lat="43.96825" lon="2.23225">
        <ele>226</ele>
        <time>2021-02-25T12:48:36.000Z</time>
      </trkpt>
      <trkpt lat="43.96826" lon="2.23226">
        <ele>226</ele>
        <time>2021-02-25T12:48:37.000Z</time>
      </trkpt>
      <trkpt lat="43.96827" lon="2.23227">
        <ele>226</ele>
        <time>2021-02-25T12:48:38.000Z</time>
      </trkpt>
      <trkpt lat="43.96828" lon="2.23228">
        <ele>226</ele>
        <time>2021-02-25T12:48:39.000Z</time>
      </trkpt>
      <trkpt lat="43.96828" lon="2.2323">
        <ele>226</ele>
        <time>2021-02-25T12:48:40.000Z</time>
      </trkpt>
      <trkpt lat="43.96829" lon="2.23231">
        <ele>226</ele>
        <time>2021-02-25T12:48:41.000Z</time>
      </trkpt>
      <trkpt lat="43.96829" lon="2.23232">
        <ele>226</ele>
        <time>2021-02-25T12:48:42.000Z</time>
      </trkpt>
      <trkpt lat="43.9683" lon="2.23234">
        <ele>226</ele>
        <time>2021-02-25T12:48:43.000Z</time>
      </trkpt>
      <trkpt lat="43.9683" lon="2.23235">
        <ele>226</ele>
        <time>2021-02-25T12:48:44.000Z</time>
      </trkpt>
      <trkpt lat="43.96831" lon="2.23236">
        <ele>226</ele>
        <time>2021-02-25T12:48:45.000Z</time>
      </trkpt>
      <trkpt lat="43.96832" lon="2.23237">
        <ele>226</ele>
        <time>2021-02-25T12:48:46.000Z</time>
      </trkpt>
      <trkpt lat="43.96833" lon="2.23239">
        <ele>226</ele>
        <time>2021-02-25T12:48:47.000Z</time>
      </trkpt>
      <trkpt lat="43.96834" lon="2.2324">
        <ele>226</ele>
        <time>2021-02-25T12:48:48.000Z</time>
      </trkpt>
      <trkpt lat="43.96835" lon="2.23241">
        <ele>226</ele>
        <time>2021-02-25T12:48:49.000Z</time>
      </trkpt>
      <trkpt lat="43.96835" lon="2.23242">
        <ele>226</ele>
        <time>2021-02-25T12:48:50.000Z</time>
      </trkpt>
      <trkpt lat="43.96836" lon="2.23242">
        <ele>226</ele>
        <time>2021-02-25T12:48:51.000Z</time>
      </trkpt>
      <trkpt lat="43.96836" lon="2.23242">
        <ele>226</ele>
        <time>2021-02-25T12:48:52.000Z</time>
      </trkpt>
      <trkpt lat="43.96836" lon="2.23242">
        <ele>226</ele>
        <time>2021-02-25T12:48:53.000Z</time>
      </trkpt>
      <trkpt lat="43.96836" lon="2.23243">
        <ele>226</ele>
        <time>2021-02-25T12:48:54.000Z</time>
      </trkpt>
      <trkpt lat="43.96838" lon="2.23248">
        <ele>229</ele>
        <time>2021-02-25T12:48:55.000Z</time>
      </trkpt>
      <trkpt lat="43.96838" lon="2.23249">
        <ele>229</ele>
        <time>2021-02-25T12:48:56.000Z</time>
      </trkpt>
      <trkpt lat="43.96839" lon="2.23249">
        <ele>229</ele>
        <time>2021-02-25T12:48:57.000Z</time>
      </trkpt>
      <trkpt lat="43.96839" lon="2.2325">
        <ele>229</ele>
        <time>2021-02-25T12:48:58.000Z</time>
      </trkpt>
      <trkpt lat="43.9684" lon="2.23251">
        <ele>229</ele>
        <time>2021-02-25T12:48:59.000Z</time>
      </trkpt>
      <trkpt lat="43.9684" lon="2.23252">
        <ele>229</ele>
        <time>2021-02-25T12:49:00.000Z</time>
      </trkpt>
      <trkpt lat="43.96841" lon="2.23253">
        <ele>229</ele>
        <time>2021-02-25T12:49:01.000Z</time>
      </trkpt>
      <trkpt lat="43.96841" lon="2.23254">
        <ele>229</ele>
        <time>2021-02-25T12:49:02.000Z</time>
      </trkpt>
      <trkpt lat="43.96842" lon="2.23255">
        <ele>229</ele>
        <time>2021-02-25T12:49:03.000Z</time>
      </trkpt>
      <trkpt lat="43.96843" lon="2.23256">
        <ele>230</ele>
        <time>2021-02-25T12:49:04.000Z</time>
      </trkpt>
      <trkpt lat="43.96844" lon="2.23257">
        <ele>230</ele>
        <time>2021-02-25T12:49:05.000Z</time>
      </trkpt>
      <trkpt lat="43.96845" lon="2.23257">
        <ele>230</ele>
        <time>2021-02-25T12:49:06.000Z</time>
      </trkpt>
      <trkpt lat="43.96846" lon="2.23258">
        <ele>230</ele>
        <time>2021-02-25T12:49:07.000Z</time>
      </trkpt>
      <trkpt lat="43.96847" lon="2.23259">
        <ele>230</ele>
        <time>2021-02-25T12:49:08.000Z</time>
      </trkpt>
      <trkpt lat="43.96848" lon="2.23259">
        <ele>230</ele>
        <time>2021-02-25T12:49:09.000Z</time>
      </trkpt>
      <trkpt lat="43.96849" lon="2.2326">
        <ele>231</ele>
        <time>2021-02-25T12:49:10.000Z</time>
      </trkpt>
      <trkpt lat="43.9685" lon="2.23261">
        <ele>231</ele>
        <time>2021-02-25T12:49:11.000Z</time>
      </trkpt>
      <trkpt lat="43.9685" lon="2.23262">
        <ele>231</ele>
        <time>2021-02-25T12:49:12.000Z</time>
      </trkpt>
      <trkpt lat="43.9685" lon="2.23262">
        <ele>231</ele>
        <time>2021-02-25T12:49:13.000Z</time>
      </trkpt>
      <trkpt lat="43.96851" lon="2.23263">
        <ele>231</ele>
        <time>2021-02-25T12:49:14.000Z</time>
      </trkpt>
      <trkpt lat="43.96851" lon="2.23263">
        <ele>232</ele>
        <time>2021-02-25T12:49:15.000Z</time>
      </trkpt>
      <trkpt lat="43.96851" lon="2.23263">
        <ele>232</ele>
        <time>2021-02-25T12:49:16.000Z</time>
      </trkpt>
      <trkpt lat="43.96851" lon="2.23262">
        <ele>232</ele>
        <time>2021-02-25T12:49:17.000Z</time>
      </trkpt>
      <trkpt lat="43.96853" lon="2.23265">
        <ele>233</ele>
        <time>2021-02-25T12:49:18.000Z</time>
      </trkpt>
      <trkpt lat="43.96854" lon="2.23265">
        <ele>233</ele>
        <time>2021-02-25T12:49:19.000Z</time>
      </trkpt>
      <trkpt lat="43.96854" lon="2.23266">
        <ele>233</ele>
        <time>2021-02-25T12:49:20.000Z</time>
      </trkpt>
      <trkpt lat="43.96855" lon="2.23266">
        <ele>233</ele>
        <time>2021-02-25T12:49:21.000Z</time>
      </trkpt>
      <trkpt lat="43.96855" lon="2.23267">
        <ele>233</ele>
        <time>2021-02-25T12:49:22.000Z</time>
      </trkpt>
      <trkpt lat="43.96856" lon="2.23268">
        <ele>233</ele>
        <time>2021-02-25T12:49:23.000Z</time>
      </trkpt>
      <trkpt lat="43.96857" lon="2.23269">
        <ele>234</ele>
        <time>2021-02-25T12:49:24.000Z</time>
      </trkpt>
      <trkpt lat="43.96857" lon="2.23269">
        <ele>234</ele>
        <time>2021-02-25T12:49:25.000Z</time>
      </trkpt>
      <trkpt lat="43.96857" lon="2.2327">
        <ele>234</ele>
        <time>2021-02-25T12:49:26.000Z</time>
      </trkpt>
      <trkpt lat="43.96857" lon="2.2327">
        <ele>234</ele>
        <time>2021-02-25T12:49:27.000Z</time>
      </trkpt>
      <trkpt lat="43.96857" lon="2.23269">
        <ele>234</ele>
        <time>2021-02-25T12:49:28.000Z</time>
      </trkpt>
      <trkpt lat="43.96857" lon="2.23269">
        <ele>234</ele>
        <time>2021-02-25T12:49:29.000Z</time>
      </trkpt>
      <trkpt lat="43.96858" lon="2.23271">
        <ele>236</ele>
        <time>2021-02-25T12:49:30.000Z</time>
      </trkpt>
      <trkpt lat="43.96859" lon="2.23271">
        <ele>236</ele>
        <time>2021-02-25T12:49:31.000Z</time>
      </trkpt>
      <trkpt lat="43.9686" lon="2.23271">
        <ele>237</ele>
        <time>2021-02-25T12:49:32.000Z</time>
      </trkpt>
      <trkpt lat="43.96861" lon="2.23272">
        <ele>237</ele>
        <time>2021-02-25T12:49:33.000Z</time>
      </trkpt>
      <trkpt lat="43.96861" lon="2.23272">
        <ele>237</ele>
        <time>2021-02-25T12:49:34.000Z</time>
      </trkpt>
      <trkpt lat="43.96862" lon="2.23272">
        <ele>237</ele>
        <time>2021-02-25T12:49:35.000Z</time>
      </trkpt>
      <trkpt lat="43.96862" lon="2.23273">
        <ele>237</ele>
        <time>2021-02-25T12:49:36.000Z</time>
      </trkpt>
      <trkpt lat="43.96863" lon="2.23273">
        <ele>238</ele>
        <time>2021-02-25T12:49:37.000Z</time>
      </trkpt>
      <trkpt lat="43.96864" lon="2.23273">
        <ele>238</ele>
        <time>2021-02-25T12:49:38.000Z</time>
      </trkpt>
      <trkpt lat="43.96865" lon="2.23273">
        <ele>238</ele>
        <time>2021-02-25T12:49:39.000Z</time>
      </trkpt>
      <trkpt lat="43.96865" lon="2.23273">
        <ele>238</ele>
        <time>2021-02-25T12:49:40.000Z</time>
      </trkpt>
      <trkpt lat="43.96866" lon="2.23273">
        <ele>238</ele>
        <time>2021-02-25T12:49:41.000Z</time>
      </trkpt>
      <trkpt lat="43.96867" lon="2.23273">
        <ele>239</ele>
        <time>2021-02-25T12:49:42.000Z</time>
      </trkpt>
      <trkpt lat="43.96868" lon="2.23273">
        <ele>239</ele>
        <time>2021-02-25T12:49:43.000Z</time>
      </trkpt>
      <trkpt lat="43.96868" lon="2.23273">
        <ele>239</ele>
        <time>2021-02-25T12:49:44.000Z</time>
      </trkpt>
      <trkpt lat="43.96869" lon="2.23273">
        <ele>239</ele>
        <time>2021-02-25T12:49:45.000Z</time>
      </trkpt>
      <trkpt lat="43.96869" lon="2.23273">
        <ele>239</ele>
        <time>2021-02-25T12:49:46.000Z</time>
      </trkpt>
      <trkpt lat="43.96871" lon="2.23274">
        <ele>240</ele>
        <time>2021-02-25T12:49:47.000Z</time>
      </trkpt>
      <trkpt lat="43.96872" lon="2.23274">
        <ele>240</ele>
        <time>2021-02-25T12:49:48.000Z</time>
      </trkpt>
      <trkpt lat="43.96872" lon="2.23275">
        <ele>240</ele>
        <time>2021-02-25T12:49:49.000Z</time>
      </trkpt>
      <trkpt lat="43.96873" lon="2.23275">
        <ele>240</ele>
        <time>2021-02-25T12:49:50.000Z</time>
      </trkpt>
      <trkpt lat="43.96874" lon="2.23275">
        <ele>240</ele>
        <time>2021-02-25T12:49:51.000Z</time>
      </trkpt>
      <trkpt lat="43.96875" lon="2.23275">
        <ele>240</ele>
        <time>2021-02-25T12:49:52.000Z</time>
      </trkpt>
      <trkpt lat="43.96876" lon="2.23275">
        <ele>240</ele>
        <time>2021-02-25T12:49:53.000Z</time>
      </trkpt>
      <trkpt lat="43.96877" lon="2.23274">
        <ele>240</ele>
        <time>2021-02-25T12:49:54.000Z</time>
      </trkpt>
      <trkpt lat="43.96878" lon="2.23274">
        <ele>240</ele>
        <time>2021-02-25T12:49:55.000Z</time>
      </trkpt>
      <trkpt lat="43.96879" lon="2.23274">
        <ele>241</ele>
        <time>2021-02-25T12:49:56.000Z</time>
      </trkpt>
      <trkpt lat="43.9688" lon="2.23274">
        <ele>241</ele>
        <time>2021-02-25T12:49:57.000Z</time>
      </trkpt>
      <trkpt lat="43.96881" lon="2.23274">
        <ele>241</ele>
        <time>2021-02-25T12:49:58.000Z</time>
      </trkpt>
      <trkpt lat="43.96882" lon="2.23274">
        <ele>241</ele>
        <time>2021-02-25T12:49:59.000Z</time>
      </trkpt>
      <trkpt lat="43.96883" lon="2.23274">
        <ele>241</ele>
        <time>2021-02-25T12:50:00.000Z</time>
      </trkpt>
      <trkpt lat="43.96883" lon="2.23274">
        <ele>241</ele>
        <time>2021-02-25T12:50:01.000Z</time>
      </trkpt>
      <trkpt lat="43.96884" lon="2.23274">
        <ele>241</ele>
        <time>2021-02-25T12:50:02.000Z</time>
      </trkpt>
      <trkpt lat="43.96884" lon="2.23274">
        <ele>241</ele>
        <time>2021-02-25T12:50:03.000Z</time>
      </trkpt>
      <trkpt lat="43.96885" lon="2.23273">
        <ele>241</ele>
        <time>2021-02-25T12:50:04.000Z</time>
      </trkpt>
      <trkpt lat="43.96886" lon="2.23273">
        <ele>241</ele>
        <time>2021-02-25T12:50:05.000Z</time>
      </trkpt>
      <trkpt lat="43.96887" lon="2.23273">
        <ele>241</ele>
        <time>2021-02-25T12:50:06.000Z</time>
      </trkpt>
      <trkpt lat="43.96887" lon="2.23273">
        <ele>241</ele>
        <time>2021-02-25T12:50:07.000Z</time>
      </trkpt>
      <trkpt lat="43.96888" lon="2.23273">
        <ele>242</ele>
        <time>2021-02-25T12:50:08.000Z</time>
      </trkpt>
      <trkpt lat="43.96889" lon="2.23273">
        <ele>242</ele>
        <time>2021-02-25T12:50:09.000Z</time>
      </trkpt>
      <trkpt lat="43.9689" lon="2.23273">
        <ele>242</ele>
        <time>2021-02-25T12:50:10.000Z</time>
      </trkpt>
      <trkpt lat="43.9689" lon="2.23273">
        <ele>242</ele>
        <time>2021-02-25T12:50:11.000Z</time>
      </trkpt>
      <trkpt lat="43.9689" lon="2.23273">
        <ele>242</ele>
        <time>2021-02-25T12:50:12.000Z</time>
      </trkpt>
      <trkpt lat="43.9689" lon="2.23273">
        <ele>242</ele>
        <time>2021-02-25T12:50:13.000Z</time>
      </trkpt>
      <trkpt lat="43.96894" lon="2.23272">
        <ele>243</ele>
        <time>2021-02-25T12:50:14.000Z</time>
      </trkpt>
      <trkpt lat="43.96894" lon="2.23272">
        <ele>243</ele>
        <time>2021-02-25T12:50:15.000Z</time>
      </trkpt>
      <trkpt lat="43.96895" lon="2.23272">
        <ele>243</ele>
        <time>2021-02-25T12:50:16.000Z</time>
      </trkpt>
      <trkpt lat="43.96896" lon="2.23272">
        <ele>243</ele>
        <time>2021-02-25T12:50:17.000Z</time>
      </trkpt>
      <trkpt lat="43.96897" lon="2.23271">
        <ele>243</ele>
        <time>2021-02-25T12:50:18.000Z</time>
      </trkpt>
      <trkpt lat="43.96897" lon="2.23271">
        <ele>242</ele>
        <time>2021-02-25T12:50:19.000Z</time>
      </trkpt>
      <trkpt lat="43.96898" lon="2.2327">
        <ele>242</ele>
        <time>2021-02-25T12:50:20.000Z</time>
      </trkpt>
      <trkpt lat="43.96899" lon="2.2327">
        <ele>243</ele>
        <time>2021-02-25T12:50:21.000Z</time>
      </trkpt>
      <trkpt lat="43.969" lon="2.2327">
        <ele>243</ele>
        <time>2021-02-25T12:50:22.000Z</time>
      </trkpt>
      <trkpt lat="43.96901" lon="2.2327">
        <ele>243</ele>
        <time>2021-02-25T12:50:23.000Z</time>
      </trkpt>
      <trkpt lat="43.96902" lon="2.23269">
        <ele>243</ele>
        <time>2021-02-25T12:50:24.000Z</time>
      </trkpt>
      <trkpt lat="43.96903" lon="2.23268">
        <ele>243</ele>
        <time>2021-02-25T12:50:25.000Z</time>
      </trkpt>
      <trkpt lat="43.96904" lon="2.23268">
        <ele>243</ele>
        <time>2021-02-25T12:50:26.000Z</time>
      </trkpt>
      <trkpt lat="43.96905" lon="2.23268">
        <ele>243</ele>
        <time>2021-02-25T12:50:27.000Z</time>
      </trkpt>
      <trkpt lat="43.96906" lon="2.23267">
        <ele>243</ele>
        <time>2021-02-25T12:50:28.000Z</time>
      </trkpt>
      <trkpt lat="43.96907" lon="2.23267">
        <ele>243</ele>
        <time>2021-02-25T12:50:29.000Z</time>
      </trkpt>
      <trkpt lat="43.96908" lon="2.23267">
        <ele>243</ele>
        <time>2021-02-25T12:50:30.000Z</time>
      </trkpt>
      <trkpt lat="43.96908" lon="2.23267">
        <ele>243</ele>
        <time>2021-02-25T12:50:31.000Z</time>
      </trkpt>
      <trkpt lat="43.96909" lon="2.23266">
        <ele>243</ele>
        <time>2021-02-25T12:50:32.000Z</time>
      </trkpt>
      <trkpt lat="43.9691" lon="2.23266">
        <ele>243</ele>
        <time>2021-02-25T12:50:33.000Z</time>
      </trkpt>
      <trkpt lat="43.96911" lon="2.23266">
        <ele>243</ele>
        <time>2021-02-25T12:50:34.000Z</time>
      </trkpt>
      <trkpt lat="43.96911" lon="2.23266">
        <ele>243</ele>
        <time>2021-02-25T12:50:35.000Z</time>
      </trkpt>
      <trkpt lat="43.96912" lon="2.23266">
        <ele>243</ele>
        <time>2021-02-25T12:50:36.000Z</time>
      </trkpt>
      <trkpt lat="43.96913" lon="2.23266">
        <ele>243</ele>
        <time>2021-02-25T12:50:37.000Z</time>
      </trkpt>
      <trkpt lat="43.96914" lon="2.23266">
        <ele>243</ele>
        <time>2021-02-25T12:50:38.000Z</time>
      </trkpt>
      <trkpt lat="43.96915" lon="2.23266">
        <ele>243</ele>
        <time>2021-02-25T12:50:39.000Z</time>
      </trkpt>
      <trkpt lat="43.96916" lon="2.23266">
        <ele>243</ele>
        <time>2021-02-25T12:50:40.000Z</time>
      </trkpt>
      <trkpt lat="43.96917" lon="2.23267">
        <ele>243</ele>
        <time>2021-02-25T12:50:41.000Z</time>
      </trkpt>
      <trkpt lat="43.96918" lon="2.23267">
        <ele>242</ele>
        <time>2021-02-25T12:50:42.000Z</time>
      </trkpt>
      <trkpt lat="43.96919" lon="2.23267">
        <ele>242</ele>
        <time>2021-02-25T12:50:43.000Z</time>
      </trkpt>
      <trkpt lat="43.96919" lon="2.23268">
        <ele>242</ele>
        <time>2021-02-25T12:50:44.000Z</time>
      </trkpt>
      <trkpt lat="43.96919" lon="2.23268">
        <ele>242</ele>
        <time>2021-02-25T12:50:45.000Z</time>
      </trkpt>
      <trkpt lat="43.96919" lon="2.23268">
        <ele>242</ele>
        <time>2021-02-25T12:50:46.000Z</time>
      </trkpt>
      <trkpt lat="43.96928" lon="2.23273">
        <ele>231</ele>
        <time>2021-02-25T12:50:47.000Z</time>
      </trkpt>
      <trkpt lat="43.96929" lon="2.23273">
        <ele>231</ele>
        <time>2021-02-25T12:50:48.000Z</time>
      </trkpt>
      <trkpt lat="43.96929" lon="2.23273">
        <ele>231</ele>
        <time>2021-02-25T12:50:49.000Z</time>
      </trkpt>
      <trkpt lat="43.9693" lon="2.23273">
        <ele>232</ele>
        <time>2021-02-25T12:50:50.000Z</time>
      </trkpt>
      <trkpt lat="43.96931" lon="2.23273">
        <ele>232</ele>
        <time>2021-02-25T12:50:51.000Z</time>
      </trkpt>
      <trkpt lat="43.96932" lon="2.23273">
        <ele>232</ele>
        <time>2021-02-25T12:50:52.000Z</time>
      </trkpt>
      <trkpt lat="43.96933" lon="2.23273">
        <ele>232</ele>
        <time>2021-02-25T12:50:53.000Z</time>
      </trkpt>
      <trkpt lat="43.96934" lon="2.23273">
        <ele>232</ele>
        <time>2021-02-25T12:50:54.000Z</time>
      </trkpt>
      <trkpt lat="43.96935" lon="2.23274">
        <ele>232</ele>
        <time>2021-02-25T12:50:55.000Z</time>
      </trkpt>
      <trkpt lat="43.96936" lon="2.23274">
        <ele>232</ele>
        <time>2021-02-25T12:50:56.000Z</time>
      </trkpt>
      <trkpt lat="43.96936" lon="2.23274">
        <ele>232</ele>
        <time>2021-02-25T12:50:57.000Z</time>
      </trkpt>
      <trkpt lat="43.96937" lon="2.23273">
        <ele>232</ele>
        <time>2021-02-25T12:50:58.000Z</time>
      </trkpt>
      <trkpt lat="43.96938" lon="2.23273">
        <ele>232</ele>
        <time>2021-02-25T12:50:59.000Z</time>
      </trkpt>
      <trkpt lat="43.96938" lon="2.23273">
        <ele>232</ele>
        <time>2021-02-25T12:51:00.000Z</time>
      </trkpt>
      <trkpt lat="43.96939" lon="2.23273">
        <ele>232</ele>
        <time>2021-02-25T12:51:01.000Z</time>
      </trkpt>
      <trkpt lat="43.9694" lon="2.23273">
        <ele>232</ele>
        <time>2021-02-25T12:51:02.000Z</time>
      </trkpt>
      <trkpt lat="43.96941" lon="2.23273">
        <ele>232</ele>
        <time>2021-02-25T12:51:03.000Z</time>
      </trkpt>
      <trkpt lat="43.96942" lon="2.23273">
        <ele>232</ele>
        <time>2021-02-25T12:51:04.000Z</time>
      </trkpt>
      <trkpt lat="43.96943" lon="2.23273">
        <ele>232</ele>
        <time>2021-02-25T12:51:05.000Z</time>
      </trkpt>
      <trkpt lat="43.96944" lon="2.23274">
        <ele>232</ele>
        <time>2021-02-25T12:51:06.000Z</time>
      </trkpt>
      <trkpt lat="43.96945" lon="2.23274">
        <ele>232</ele>
        <time>2021-02-25T12:51:07.000Z</time>
      </trkpt>
      <trkpt lat="43.96946" lon="2.23275">
        <ele>232</ele>
        <time>2021-02-25T12:51:08.000Z</time>
      </trkpt>
      <trkpt lat="43.96947" lon="2.23275">
        <ele>232</ele>
        <time>2021-02-25T12:51:09.000Z</time>
      </trkpt>
      <trkpt lat="43.96947" lon="2.23275">
        <ele>232</ele>
        <time>2021-02-25T12:51:10.000Z</time>
      </trkpt>
      <trkpt lat="43.96948" lon="2.23275">
        <ele>232</ele>
        <time>2021-02-25T12:51:11.000Z</time>
      </trkpt>
      <trkpt lat="43.96948" lon="2.23274">
        <ele>232</ele>
        <time>2021-02-25T12:51:12.000Z</time>
      </trkpt>
      <trkpt lat="43.96949" lon="2.23274">
        <ele>232</ele>
        <time>2021-02-25T12:51:13.000Z</time>
      </trkpt>
      <trkpt lat="43.96949" lon="2.23273">
        <ele>232</ele>
        <time>2021-02-25T12:51:14.000Z</time>
      </trkpt>
      <trkpt lat="43.9695" lon="2.23272">
        <ele>232</ele>
        <time>2021-02-25T12:51:15.000Z</time>
      </trkpt>
      <trkpt lat="43.96951" lon="2.23272">
        <ele>232</ele>
        <time>2021-02-25T12:51:16.000Z</time>
      </trkpt>
      <trkpt lat="43.96952" lon="2.23272">
        <ele>233</ele>
        <time>2021-02-25T12:51:17.000Z</time>
      </trkpt>
      <trkpt lat="43.96954" lon="2.23273">
        <ele>233</ele>
        <time>2021-02-25T12:51:18.000Z</time>
      </trkpt>
      <trkpt lat="43.96954" lon="2.23272">
        <ele>233</ele>
        <time>2021-02-25T12:51:19.000Z</time>
      </trkpt>
      <trkpt lat="43.96955" lon="2.23272">
        <ele>233</ele>
        <time>2021-02-25T12:51:20.000Z</time>
      </trkpt>
      <trkpt lat="43.96956" lon="2.23272">
        <ele>233</ele>
        <time>2021-02-25T12:51:21.000Z</time>
      </trkpt>
      <trkpt lat="43.96956" lon="2.23272">
        <ele>233</ele>
        <time>2021-02-25T12:51:22.000Z</time>
      </trkpt>
      <trkpt lat="43.96957" lon="2.23272">
        <ele>233</ele>
        <time>2021-02-25T12:51:23.000Z</time>
      </trkpt>
      <trkpt lat="43.96957" lon="2.23272">
        <ele>233</ele>
        <time>2021-02-25T12:51:24.000Z</time>
      </trkpt>
      <trkpt lat="43.96962" lon="2.2327">
        <ele>235</ele>
        <time>2021-02-25T12:51:25.000Z</time>
      </trkpt>
      <trkpt lat="43.96963" lon="2.2327">
        <ele>235</ele>
        <time>2021-02-25T12:51:26.000Z</time>
      </trkpt>
      <trkpt lat="43.96963" lon="2.2327">
        <ele>235</ele>
        <time>2021-02-25T12:51:27.000Z</time>
      </trkpt>
      <trkpt lat="43.96964" lon="2.2327">
        <ele>235</ele>
        <time>2021-02-25T12:51:28.000Z</time>
      </trkpt>
      <trkpt lat="43.96964" lon="2.2327">
        <ele>235</ele>
        <time>2021-02-25T12:51:29.000Z</time>
      </trkpt>
      <trkpt lat="43.96964" lon="2.2327">
        <ele>235</ele>
        <time>2021-02-25T12:51:30.000Z</time>
      </trkpt>
      <trkpt lat="43.96969" lon="2.23275">
        <ele>238</ele>
        <time>2021-02-25T12:51:31.000Z</time>
      </trkpt>
      <trkpt lat="43.9697" lon="2.23275">
        <ele>238</ele>
        <time>2021-02-25T12:51:32.000Z</time>
      </trkpt>
      <trkpt lat="43.9697" lon="2.23276">
        <ele>238</ele>
        <time>2021-02-25T12:51:33.000Z</time>
      </trkpt>
      <trkpt lat="43.96971" lon="2.23276">
        <ele>239</ele>
        <time>2021-02-25T12:51:34.000Z</time>
      </trkpt>
      <trkpt lat="43.96971" lon="2.23276">
        <ele>239</ele>
        <time>2021-02-25T12:51:35.000Z</time>
      </trkpt>
      <trkpt lat="43.96972" lon="2.23277">
        <ele>239</ele>
        <time>2021-02-25T12:51:36.000Z</time>
      </trkpt>
      <trkpt lat="43.96973" lon="2.23277">
        <ele>239</ele>
        <time>2021-02-25T12:51:37.000Z</time>
      </trkpt>
      <trkpt lat="43.96973" lon="2.23278">
        <ele>239</ele>
        <time>2021-02-25T12:51:38.000Z</time>
      </trkpt>
      <trkpt lat="43.96974" lon="2.23278">
        <ele>239</ele>
        <time>2021-02-25T12:51:39.000Z</time>
      </trkpt>
      <trkpt lat="43.96974" lon="2.23278">
        <ele>239</ele>
        <time>2021-02-25T12:51:40.000Z</time>
      </trkpt>
      <trkpt lat="43.96975" lon="2.23278">
        <ele>239</ele>
        <time>2021-02-25T12:51:41.000Z</time>
      </trkpt>
      <trkpt lat="43.96975" lon="2.23278">
        <ele>240</ele>
        <time>2021-02-25T12:51:42.000Z</time>
      </trkpt>
      <trkpt lat="43.96977" lon="2.2328">
        <ele>240</ele>
        <time>2021-02-25T12:51:43.000Z</time>
      </trkpt>
      <trkpt lat="43.96978" lon="2.23282">
        <ele>240</ele>
        <time>2021-02-25T12:51:44.000Z</time>
      </trkpt>
      <trkpt lat="43.96978" lon="2.23283">
        <ele>240</ele>
        <time>2021-02-25T12:51:45.000Z</time>
      </trkpt>
      <trkpt lat="43.96979" lon="2.23284">
        <ele>241</ele>
        <time>2021-02-25T12:51:46.000Z</time>
      </trkpt>
      <trkpt lat="43.96979" lon="2.23285">
        <ele>241</ele>
        <time>2021-02-25T12:51:47.000Z</time>
      </trkpt>
      <trkpt lat="43.9698" lon="2.23286">
        <ele>241</ele>
        <time>2021-02-25T12:51:48.000Z</time>
      </trkpt>
      <trkpt lat="43.9698" lon="2.23286">
        <ele>241</ele>
        <time>2021-02-25T12:51:49.000Z</time>
      </trkpt>
      <trkpt lat="43.9698" lon="2.23287">
        <ele>241</ele>
        <time>2021-02-25T12:51:50.000Z</time>
      </trkpt>
      <trkpt lat="43.96981" lon="2.23288">
        <ele>241</ele>
        <time>2021-02-25T12:51:51.000Z</time>
      </trkpt>
      <trkpt lat="43.96982" lon="2.2329">
        <ele>241</ele>
        <time>2021-02-25T12:51:52.000Z</time>
      </trkpt>
      <trkpt lat="43.96983" lon="2.23291">
        <ele>241</ele>
        <time>2021-02-25T12:51:53.000Z</time>
      </trkpt>
      <trkpt lat="43.96985" lon="2.23292">
        <ele>241</ele>
        <time>2021-02-25T12:51:54.000Z</time>
      </trkpt>
      <trkpt lat="43.96986" lon="2.23293">
        <ele>241</ele>
        <time>2021-02-25T12:51:55.000Z</time>
      </trkpt>
      <trkpt lat="43.96988" lon="2.23294">
        <ele>241</ele>
        <time>2021-02-25T12:51:56.000Z</time>
      </trkpt>
      <trkpt lat="43.96989" lon="2.23295">
        <ele>241</ele>
        <time>2021-02-25T12:51:57.000Z</time>
      </trkpt>
      <trkpt lat="43.9699" lon="2.23296">
        <ele>241</ele>
        <time>2021-02-25T12:51:58.000Z</time>
      </trkpt>
      <trkpt lat="43.96991" lon="2.23297">
        <ele>240</ele>
        <time>2021-02-25T12:51:59.000Z</time>
      </trkpt>
      <trkpt lat="43.96992" lon="2.23297">
        <ele>240</ele>
        <time>2021-02-25T12:52:00.000Z</time>
      </trkpt>
      <trkpt lat="43.96993" lon="2.23298">
        <ele>240</ele>
        <time>2021-02-25T12:52:01.000Z</time>
      </trkpt>
      <trkpt lat="43.96994" lon="2.23298">
        <ele>240</ele>
        <time>2021-02-25T12:52:02.000Z</time>
      </trkpt>
      <trkpt lat="43.96995" lon="2.23299">
        <ele>240</ele>
        <time>2021-02-25T12:52:03.000Z</time>
      </trkpt>
      <trkpt lat="43.96996" lon="2.233">
        <ele>240</ele>
        <time>2021-02-25T12:52:04.000Z</time>
      </trkpt>
      <trkpt lat="43.96997" lon="2.233">
        <ele>240</ele>
        <time>2021-02-25T12:52:05.000Z</time>
      </trkpt>
      <trkpt lat="43.96997" lon="2.23301">
        <ele>240</ele>
        <time>2021-02-25T12:52:06.000Z</time>
      </trkpt>
      <trkpt lat="43.96997" lon="2.23301">
        <ele>240</ele>
        <time>2021-02-25T12:52:07.000Z</time>
      </trkpt>
      <trkpt lat="43.96998" lon="2.23302">
        <ele>240</ele>
        <time>2021-02-25T12:52:08.000Z</time>
      </trkpt>
      <trkpt lat="43.96998" lon="2.23303">
        <ele>240</ele>
        <time>2021-02-25T12:52:09.000Z</time>
      </trkpt>
      <trkpt lat="43.96998" lon="2.23303">
        <ele>240</ele>
        <time>2021-02-25T12:52:10.000Z</time>
      </trkpt>
      <trkpt lat="43.97001" lon="2.23305">
        <ele>240</ele>
        <time>2021-02-25T12:52:11.000Z</time>
      </trkpt>
      <trkpt lat="43.97001" lon="2.23306">
        <ele>240</ele>
        <time>2021-02-25T12:52:12.000Z</time>
      </trkpt>
      <trkpt lat="43.97002" lon="2.23307">
        <ele>240</ele>
        <time>2021-02-25T12:52:13.000Z</time>
      </trkpt>
      <trkpt lat="43.97003" lon="2.23308">
        <ele>240</ele>
        <time>2021-02-25T12:52:14.000Z</time>
      </trkpt>
      <trkpt lat="43.97004" lon="2.23309">
        <ele>240</ele>
        <time>2021-02-25T12:52:15.000Z</time>
      </trkpt>
      <trkpt lat="43.97004" lon="2.2331">
        <ele>240</ele>
        <time>2021-02-25T12:52:16.000Z</time>
      </trkpt>
      <trkpt lat="43.97005" lon="2.23312">
        <ele>240</ele>
        <time>2021-02-25T12:52:17.000Z</time>
      </trkpt>
      <trkpt lat="43.97005" lon="2.23313">
        <ele>240</ele>
        <time>2021-02-25T12:52:18.000Z</time>
      </trkpt>
      <trkpt lat="43.97005" lon="2.23314">
        <ele>240</ele>
        <time>2021-02-25T12:52:19.000Z</time>
      </trkpt>
      <trkpt lat="43.97005" lon="2.23316">
        <ele>240</ele>
        <time>2021-02-25T12:52:20.000Z</time>
      </trkpt>
      <trkpt lat="43.97005" lon="2.23317">
        <ele>240</ele>
        <time>2021-02-25T12:52:21.000Z</time>
      </trkpt>
      <trkpt lat="43.97006" lon="2.23319">
        <ele>239</ele>
        <time>2021-02-25T12:52:22.000Z</time>
      </trkpt>
      <trkpt lat="43.97006" lon="2.23321">
        <ele>239</ele>
        <time>2021-02-25T12:52:23.000Z</time>
      </trkpt>
      <trkpt lat="43.97007" lon="2.23322">
        <ele>239</ele>
        <time>2021-02-25T12:52:24.000Z</time>
      </trkpt>
      <trkpt lat="43.97007" lon="2.23323">
        <ele>239</ele>
        <time>2021-02-25T12:52:25.000Z</time>
      </trkpt>
      <trkpt lat="43.97008" lon="2.23323">
        <ele>239</ele>
        <time>2021-02-25T12:52:26.000Z</time>
      </trkpt>
      <trkpt lat="43.97009" lon="2.23324">
        <ele>239</ele>
        <time>2021-02-25T12:52:27.000Z</time>
      </trkpt>
      <trkpt lat="43.97009" lon="2.23325">
        <ele>238</ele>
        <time>2021-02-25T12:52:28.000Z</time>
      </trkpt>
      <trkpt lat="43.9701" lon="2.23325">
        <ele>238</ele>
        <time>2021-02-25T12:52:29.000Z</time>
      </trkpt>
      <trkpt lat="43.97012" lon="2.23329">
        <ele>238</ele>
        <time>2021-02-25T12:52:30.000Z</time>
      </trkpt>
      <trkpt lat="43.97013" lon="2.23329">
        <ele>238</ele>
        <time>2021-02-25T12:52:31.000Z</time>
      </trkpt>
      <trkpt lat="43.97013" lon="2.2333">
        <ele>238</ele>
        <time>2021-02-25T12:52:32.000Z</time>
      </trkpt>
      <trkpt lat="43.97013" lon="2.2333">
        <ele>238</ele>
        <time>2021-02-25T12:52:33.000Z</time>
      </trkpt>
      <trkpt lat="43.97014" lon="2.23331">
        <ele>238</ele>
        <time>2021-02-25T12:52:34.000Z</time>
      </trkpt>
      <trkpt lat="43.97014" lon="2.23332">
        <ele>238</ele>
        <time>2021-02-25T12:52:35.000Z</time>
      </trkpt>
      <trkpt lat="43.97014" lon="2.23333">
        <ele>238</ele>
        <time>2021-02-25T12:52:36.000Z</time>
      </trkpt>
      <trkpt lat="43.97015" lon="2.23334">
        <ele>238</ele>
        <time>2021-02-25T12:52:37.000Z</time>
      </trkpt>
      <trkpt lat="43.97015" lon="2.23335">
        <ele>238</ele>
        <time>2021-02-25T12:52:38.000Z</time>
      </trkpt>
      <trkpt lat="43.97016" lon="2.23335">
        <ele>237</ele>
        <time>2021-02-25T12:52:39.000Z</time>
      </trkpt>
      <trkpt lat="43.97016" lon="2.23335">
        <ele>237</ele>
        <time>2021-02-25T12:52:40.000Z</time>
      </trkpt>
      <trkpt lat="43.97016" lon="2.23335">
        <ele>237</ele>
        <time>2021-02-25T12:52:41.000Z</time>
      </trkpt>
      <trkpt lat="43.97016" lon="2.23336">
        <ele>237</ele>
        <time>2021-02-25T12:52:42.000Z</time>
      </trkpt>
      <trkpt lat="43.97015" lon="2.2334">
        <ele>238</ele>
        <time>2021-02-25T12:52:43.000Z</time>
      </trkpt>
      <trkpt lat="43.97015" lon="2.2334">
        <ele>238</ele>
        <time>2021-02-25T12:52:44.000Z</time>
      </trkpt>
      <trkpt lat="43.97015" lon="2.23341">
        <ele>239</ele>
        <time>2021-02-25T12:52:45.000Z</time>
      </trkpt>
      <trkpt lat="43.97015" lon="2.23342">
        <ele>239</ele>
        <time>2021-02-25T12:52:46.000Z</time>
      </trkpt>
      <trkpt lat="43.97015" lon="2.23343">
        <ele>239</ele>
        <time>2021-02-25T12:52:47.000Z</time>
      </trkpt>
      <trkpt lat="43.97015" lon="2.23343">
        <ele>239</ele>
        <time>2021-02-25T12:52:48.000Z</time>
      </trkpt>
      <trkpt lat="43.97015" lon="2.23344">
        <ele>239</ele>
        <time>2021-02-25T12:52:49.000Z</time>
      </trkpt>
      <trkpt lat="43.97015" lon="2.23344">
        <ele>239</ele>
        <time>2021-02-25T12:52:50.000Z</time>
      </trkpt>
      <trkpt lat="43.97015" lon="2.23345">
        <ele>239</ele>
        <time>2021-02-25T12:52:51.000Z</time>
      </trkpt>
      <trkpt lat="43.97015" lon="2.23346">
        <ele>240</ele>
        <time>2021-02-25T12:52:52.000Z</time>
      </trkpt>
      <trkpt lat="43.97015" lon="2.23346">
        <ele>240</ele>
        <time>2021-02-25T12:52:53.000Z</time>
      </trkpt>
      <trkpt lat="43.97015" lon="2.23347">
        <ele>240</ele>
        <time>2021-02-25T12:52:54.000Z</time>
      </trkpt>
      <trkpt lat="43.97015" lon="2.23348">
        <ele>240</ele>
        <time>2021-02-25T12:52:55.000Z</time>
      </trkpt>
      <trkpt lat="43.97016" lon="2.23348">
        <ele>240</ele>
        <time>2021-02-25T12:52:56.000Z</time>
      </trkpt>
      <trkpt lat="43.97017" lon="2.23349">
        <ele>240</ele>
        <time>2021-02-25T12:52:57.000Z</time>
      </trkpt>
      <trkpt lat="43.97017" lon="2.23349">
        <ele>240</ele>
        <time>2021-02-25T12:52:58.000Z</time>
      </trkpt>
      <trkpt lat="43.97018" lon="2.2335">
        <ele>240</ele>
        <time>2021-02-25T12:52:59.000Z</time>
      </trkpt>
      <trkpt lat="43.97018" lon="2.2335">
        <ele>240</ele>
        <time>2021-02-25T12:53:00.000Z</time>
      </trkpt>
      <trkpt lat="43.97019" lon="2.23351">
        <ele>240</ele>
        <time>2021-02-25T12:53:01.000Z</time>
      </trkpt>
      <trkpt lat="43.9702" lon="2.23351">
        <ele>240</ele>
        <time>2021-02-25T12:53:02.000Z</time>
      </trkpt>
      <trkpt lat="43.97021" lon="2.23351">
        <ele>240</ele>
        <time>2021-02-25T12:53:03.000Z</time>
      </trkpt>
      <trkpt lat="43.97022" lon="2.23352">
        <ele>240</ele>
        <time>2021-02-25T12:53:04.000Z</time>
      </trkpt>
      <trkpt lat="43.97023" lon="2.23353">
        <ele>240</ele>
        <time>2021-02-25T12:53:05.000Z</time>
      </trkpt>
      <trkpt lat="43.97023" lon="2.23353">
        <ele>240</ele>
        <time>2021-02-25T12:53:06.000Z</time>
      </trkpt>
      <trkpt lat="43.97024" lon="2.23353">
        <ele>240</ele>
        <time>2021-02-25T12:53:07.000Z</time>
      </trkpt>
      <trkpt lat="43.97024" lon="2.23354">
        <ele>240</ele>
        <time>2021-02-25T12:53:08.000Z</time>
      </trkpt>
      <trkpt lat="43.97025" lon="2.23354">
        <ele>240</ele>
        <time>2021-02-25T12:53:09.000Z</time>
      </trkpt>
      <trkpt lat="43.97026" lon="2.23355">
        <ele>240</ele>
        <time>2021-02-25T12:53:10.000Z</time>
      </trkpt>
      <trkpt lat="43.97027" lon="2.23355">
        <ele>240</ele>
        <time>2021-02-25T12:53:11.000Z</time>
      </trkpt>
      <trkpt lat="43.97028" lon="2.23356">
        <ele>241</ele>
        <time>2021-02-25T12:53:12.000Z</time>
      </trkpt>
      <trkpt lat="43.97029" lon="2.23357">
        <ele>241</ele>
        <time>2021-02-25T12:53:13.000Z</time>
      </trkpt>
      <trkpt lat="43.9703" lon="2.23357">
        <ele>241</ele>
        <time>2021-02-25T12:53:14.000Z</time>
      </trkpt>
      <trkpt lat="43.97031" lon="2.23358">
        <ele>241</ele>
        <time>2021-02-25T12:53:15.000Z</time>
      </trkpt>
      <trkpt lat="43.97032" lon="2.23359">
        <ele>241</ele>
        <time>2021-02-25T12:53:16.000Z</time>
      </trkpt>
      <trkpt lat="43.97033" lon="2.23359">
        <ele>242</ele>
        <time>2021-02-25T12:53:17.000Z</time>
      </trkpt>
      <trkpt lat="43.97033" lon="2.2336">
        <ele>242</ele>
        <time>2021-02-25T12:53:18.000Z</time>
      </trkpt>
      <trkpt lat="43.97034" lon="2.2336">
        <ele>242</ele>
        <time>2021-02-25T12:53:19.000Z</time>
      </trkpt>
      <trkpt lat="43.97035" lon="2.23361">
        <ele>242</ele>
        <time>2021-02-25T12:53:20.000Z</time>
      </trkpt>
      <trkpt lat="43.97035" lon="2.23362">
        <ele>242</ele>
        <time>2021-02-25T12:53:21.000Z</time>
      </trkpt>
      <trkpt lat="43.97036" lon="2.23362">
        <ele>242</ele>
        <time>2021-02-25T12:53:22.000Z</time>
      </trkpt>
      <trkpt lat="43.97036" lon="2.23363">
        <ele>243</ele>
        <time>2021-02-25T12:53:23.000Z</time>
      </trkpt>
      <trkpt lat="43.97037" lon="2.23364">
        <ele>243</ele>
        <time>2021-02-25T12:53:24.000Z</time>
      </trkpt>
      <trkpt lat="43.97038" lon="2.23365">
        <ele>243</ele>
        <time>2021-02-25T12:53:25.000Z</time>
      </trkpt>
      <trkpt lat="43.97039" lon="2.23365">
        <ele>243</ele>
        <time>2021-02-25T12:53:26.000Z</time>
      </trkpt>
      <trkpt lat="43.97039" lon="2.23366">
        <ele>243</ele>
        <time>2021-02-25T12:53:27.000Z</time>
      </trkpt>
      <trkpt lat="43.9704" lon="2.23366">
        <ele>244</ele>
        <time>2021-02-25T12:53:28.000Z</time>
      </trkpt>
      <trkpt lat="43.97041" lon="2.23366">
        <ele>244</ele>
        <time>2021-02-25T12:53:29.000Z</time>
      </trkpt>
      <trkpt lat="43.97041" lon="2.23367">
        <ele>244</ele>
        <time>2021-02-25T12:53:30.000Z</time>
      </trkpt>
      <trkpt lat="43.97042" lon="2.23368">
        <ele>244</ele>
        <time>2021-02-25T12:53:31.000Z</time>
      </trkpt>
      <trkpt lat="43.97042" lon="2.23368">
        <ele>244</ele>
        <time>2021-02-25T12:53:32.000Z</time>
      </trkpt>
      <trkpt lat="43.97043" lon="2.23369">
        <ele>244</ele>
        <time>2021-02-25T12:53:33.000Z</time>
      </trkpt>
      <trkpt lat="43.97044" lon="2.2337">
        <ele>245</ele>
        <time>2021-02-25T12:53:34.000Z</time>
      </trkpt>
      <trkpt lat="43.97044" lon="2.23371">
        <ele>245</ele>
        <time>2021-02-25T12:53:35.000Z</time>
      </trkpt>
      <trkpt lat="43.97045" lon="2.23372">
        <ele>245</ele>
        <time>2021-02-25T12:53:36.000Z</time>
      </trkpt>
      <trkpt lat="43.97046" lon="2.23372">
        <ele>245</ele>
        <time>2021-02-25T12:53:37.000Z</time>
      </trkpt>
      <trkpt lat="43.97047" lon="2.23373">
        <ele>245</ele>
        <time>2021-02-25T12:53:38.000Z</time>
      </trkpt>
      <trkpt lat="43.97047" lon="2.23374">
        <ele>246</ele>
        <time>2021-02-25T12:53:39.000Z</time>
      </trkpt>
      <trkpt lat="43.97048" lon="2.23375">
        <ele>246</ele>
        <time>2021-02-25T12:53:40.000Z</time>
      </trkpt>
      <trkpt lat="43.97049" lon="2.23375">
        <ele>246</ele>
        <time>2021-02-25T12:53:41.000Z</time>
      </trkpt>
      <trkpt lat="43.9705" lon="2.23376">
        <ele>246</ele>
        <time>2021-02-25T12:53:42.000Z</time>
      </trkpt>
      <trkpt lat="43.97051" lon="2.23377">
        <ele>246</ele>
        <time>2021-02-25T12:53:43.000Z</time>
      </trkpt>
      <trkpt lat="43.97051" lon="2.23377">
        <ele>246</ele>
        <time>2021-02-25T12:53:44.000Z</time>
      </trkpt>
      <trkpt lat="43.97052" lon="2.23378">
        <ele>246</ele>
        <time>2021-02-25T12:53:45.000Z</time>
      </trkpt>
      <trkpt lat="43.97053" lon="2.23378">
        <ele>246</ele>
        <time>2021-02-25T12:53:46.000Z</time>
      </trkpt>
      <trkpt lat="43.97054" lon="2.23379">
        <ele>247</ele>
        <time>2021-02-25T12:53:47.000Z</time>
      </trkpt>
      <trkpt lat="43.97054" lon="2.23379">
        <ele>247</ele>
        <time>2021-02-25T12:53:48.000Z</time>
      </trkpt>
      <trkpt lat="43.97055" lon="2.23379">
        <ele>247</ele>
        <time>2021-02-25T12:53:49.000Z</time>
      </trkpt>
      <trkpt lat="43.97056" lon="2.2338">
        <ele>247</ele>
        <time>2021-02-25T12:53:50.000Z</time>
      </trkpt>
      <trkpt lat="43.97057" lon="2.23381">
        <ele>247</ele>
        <time>2021-02-25T12:53:51.000Z</time>
      </trkpt>
      <trkpt lat="43.97058" lon="2.23381">
        <ele>247</ele>
        <time>2021-02-25T12:53:52.000Z</time>
      </trkpt>
      <trkpt lat="43.97058" lon="2.23382">
        <ele>247</ele>
        <time>2021-02-25T12:53:53.000Z</time>
      </trkpt>
      <trkpt lat="43.97059" lon="2.23383">
        <ele>248</ele>
        <time>2021-02-25T12:53:54.000Z</time>
      </trkpt>
      <trkpt lat="43.9706" lon="2.23384">
        <ele>248</ele>
        <time>2021-02-25T12:53:55.000Z</time>
      </trkpt>
      <trkpt lat="43.97062" lon="2.23385">
        <ele>248</ele>
        <time>2021-02-25T12:53:56.000Z</time>
      </trkpt>
      <trkpt lat="43.97063" lon="2.23386">
        <ele>248</ele>
        <time>2021-02-25T12:53:57.000Z</time>
      </trkpt>
      <trkpt lat="43.97065" lon="2.23386">
        <ele>248</ele>
        <time>2021-02-25T12:53:58.000Z</time>
      </trkpt>
      <trkpt lat="43.97066" lon="2.23387">
        <ele>248</ele>
        <time>2021-02-25T12:53:59.000Z</time>
      </trkpt>
      <trkpt lat="43.97067" lon="2.23387">
        <ele>248</ele>
        <time>2021-02-25T12:54:00.000Z</time>
      </trkpt>
      <trkpt lat="43.97068" lon="2.23388">
        <ele>248</ele>
        <time>2021-02-25T12:54:01.000Z</time>
      </trkpt>
      <trkpt lat="43.97069" lon="2.23388">
        <ele>248</ele>
        <time>2021-02-25T12:54:02.000Z</time>
      </trkpt>
      <trkpt lat="43.9707" lon="2.23389">
        <ele>249</ele>
        <time>2021-02-25T12:54:03.000Z</time>
      </trkpt>
      <trkpt lat="43.97072" lon="2.23389">
        <ele>249</ele>
        <time>2021-02-25T12:54:04.000Z</time>
      </trkpt>
      <trkpt lat="43.97073" lon="2.2339">
        <ele>249</ele>
        <time>2021-02-25T12:54:05.000Z</time>
      </trkpt>
      <trkpt lat="43.97074" lon="2.2339">
        <ele>249</ele>
        <time>2021-02-25T12:54:06.000Z</time>
      </trkpt>
      <trkpt lat="43.97075" lon="2.23391">
        <ele>249</ele>
        <time>2021-02-25T12:54:07.000Z</time>
      </trkpt>
      <trkpt lat="43.97076" lon="2.23391">
        <ele>249</ele>
        <time>2021-02-25T12:54:08.000Z</time>
      </trkpt>
      <trkpt lat="43.97077" lon="2.23392">
        <ele>249</ele>
        <time>2021-02-25T12:54:09.000Z</time>
      </trkpt>
      <trkpt lat="43.97078" lon="2.23392">
        <ele>249</ele>
        <time>2021-02-25T12:54:10.000Z</time>
      </trkpt>
      <trkpt lat="43.97079" lon="2.23392">
        <ele>249</ele>
        <time>2021-02-25T12:54:11.000Z</time>
      </trkpt>
      <trkpt lat="43.9708" lon="2.23393">
        <ele>249</ele>
        <time>2021-02-25T12:54:12.000Z</time>
      </trkpt>
      <trkpt lat="43.97081" lon="2.23393">
        <ele>250</ele>
        <time>2021-02-25T12:54:13.000Z</time>
      </trkpt>
      <trkpt lat="43.97082" lon="2.23394">
        <ele>250</ele>
        <time>2021-02-25T12:54:14.000Z</time>
      </trkpt>
      <trkpt lat="43.97083" lon="2.23394">
        <ele>250</ele>
        <time>2021-02-25T12:54:15.000Z</time>
      </trkpt>
      <trkpt lat="43.97085" lon="2.23395">
        <ele>250</ele>
        <time>2021-02-25T12:54:16.000Z</time>
      </trkpt>
      <trkpt lat="43.97086" lon="2.23395">
        <ele>250</ele>
        <time>2021-02-25T12:54:17.000Z</time>
      </trkpt>
      <trkpt lat="43.97087" lon="2.23396">
        <ele>250</ele>
        <time>2021-02-25T12:54:18.000Z</time>
      </trkpt>
      <trkpt lat="43.97088" lon="2.23396">
        <ele>251</ele>
        <time>2021-02-25T12:54:19.000Z</time>
      </trkpt>
      <trkpt lat="43.97089" lon="2.23396">
        <ele>251</ele>
        <time>2021-02-25T12:54:20.000Z</time>
      </trkpt>
      <trkpt lat="43.9709" lon="2.23397">
        <ele>251</ele>
        <time>2021-02-25T12:54:21.000Z</time>
      </trkpt>
      <trkpt lat="43.97091" lon="2.23397">
        <ele>251</ele>
        <time>2021-02-25T12:54:22.000Z</time>
      </trkpt>
      <trkpt lat="43.97092" lon="2.23398">
        <ele>251</ele>
        <time>2021-02-25T12:54:23.000Z</time>
      </trkpt>
      <trkpt lat="43.97092" lon="2.23398">
        <ele>251</ele>
        <time>2021-02-25T12:54:24.000Z</time>
      </trkpt>
      <trkpt lat="43.97093" lon="2.23398">
        <ele>251</ele>
        <time>2021-02-25T12:54:25.000Z</time>
      </trkpt>
      <trkpt lat="43.97093" lon="2.23398">
        <ele>251</ele>
        <time>2021-02-25T12:54:26.000Z</time>
      </trkpt>
      <trkpt lat="43.97093" lon="2.23398">
        <ele>251</ele>
        <time>2021-02-25T12:54:27.000Z</time>
      </trkpt>
      <trkpt lat="43.97095" lon="2.23398">
        <ele>251</ele>
        <time>2021-02-25T12:54:28.000Z</time>
      </trkpt>
      <trkpt lat="43.97096" lon="2.23398">
        <ele>252</ele>
        <time>2021-02-25T12:54:29.000Z</time>
      </trkpt>
      <trkpt lat="43.97097" lon="2.23398">
        <ele>252</ele>
        <time>2021-02-25T12:54:30.000Z</time>
      </trkpt>
      <trkpt lat="43.97099" lon="2.23398">
        <ele>252</ele>
        <time>2021-02-25T12:54:31.000Z</time>
      </trkpt>
      <trkpt lat="43.971" lon="2.23398">
        <ele>252</ele>
        <time>2021-02-25T12:54:32.000Z</time>
      </trkpt>
      <trkpt lat="43.97102" lon="2.23399">
        <ele>252</ele>
        <time>2021-02-25T12:54:33.000Z</time>
      </trkpt>
      <trkpt lat="43.97103" lon="2.23399">
        <ele>252</ele>
        <time>2021-02-25T12:54:34.000Z</time>
      </trkpt>
      <trkpt lat="43.97105" lon="2.23398">
        <ele>252</ele>
        <time>2021-02-25T12:54:35.000Z</time>
      </trkpt>
      <trkpt lat="43.97107" lon="2.23398">
        <ele>252</ele>
        <time>2021-02-25T12:54:36.000Z</time>
      </trkpt>
      <trkpt lat="43.97108" lon="2.23398">
        <ele>252</ele>
        <time>2021-02-25T12:54:37.000Z</time>
      </trkpt>
      <trkpt lat="43.9711" lon="2.23398">
        <ele>251</ele>
        <time>2021-02-25T12:54:38.000Z</time>
      </trkpt>
      <trkpt lat="43.97112" lon="2.23398">
        <ele>251</ele>
        <time>2021-02-25T12:54:39.000Z</time>
      </trkpt>
      <trkpt lat="43.97113" lon="2.23398">
        <ele>251</ele>
        <time>2021-02-25T12:54:40.000Z</time>
      </trkpt>
      <trkpt lat="43.97115" lon="2.23398">
        <ele>251</ele>
        <time>2021-02-25T12:54:41.000Z</time>
      </trkpt>
      <trkpt lat="43.97116" lon="2.23398">
        <ele>251</ele>
        <time>2021-02-25T12:54:42.000Z</time>
      </trkpt>
      <trkpt lat="43.97117" lon="2.23398">
        <ele>251</ele>
        <time>2021-02-25T12:54:43.000Z</time>
      </trkpt>
      <trkpt lat="43.97119" lon="2.23399">
        <ele>251</ele>
        <time>2021-02-25T12:54:44.000Z</time>
      </trkpt>
      <trkpt lat="43.9712" lon="2.23399">
        <ele>250</ele>
        <time>2021-02-25T12:54:45.000Z</time>
      </trkpt>
      <trkpt lat="43.97121" lon="2.23399">
        <ele>250</ele>
        <time>2021-02-25T12:54:46.000Z</time>
      </trkpt>
      <trkpt lat="43.97123" lon="2.234">
        <ele>250</ele>
        <time>2021-02-25T12:54:47.000Z</time>
      </trkpt>
      <trkpt lat="43.97124" lon="2.23401">
        <ele>250</ele>
        <time>2021-02-25T12:54:48.000Z</time>
      </trkpt>
      <trkpt lat="43.97125" lon="2.23401">
        <ele>250</ele>
        <time>2021-02-25T12:54:49.000Z</time>
      </trkpt>
      <trkpt lat="43.97127" lon="2.23401">
        <ele>250</ele>
        <time>2021-02-25T12:54:50.000Z</time>
      </trkpt>
      <trkpt lat="43.97128" lon="2.23402">
        <ele>250</ele>
        <time>2021-02-25T12:54:51.000Z</time>
      </trkpt>
      <trkpt lat="43.9713" lon="2.23402">
        <ele>250</ele>
        <time>2021-02-25T12:54:52.000Z</time>
      </trkpt>
      <trkpt lat="43.97131" lon="2.23402">
        <ele>250</ele>
        <time>2021-02-25T12:54:53.000Z</time>
      </trkpt>
      <trkpt lat="43.97132" lon="2.23403">
        <ele>250</ele>
        <time>2021-02-25T12:54:54.000Z</time>
      </trkpt>
      <trkpt lat="43.97134" lon="2.23403">
        <ele>250</ele>
        <time>2021-02-25T12:54:55.000Z</time>
      </trkpt>
      <trkpt lat="43.97135" lon="2.23403">
        <ele>250</ele>
        <time>2021-02-25T12:54:56.000Z</time>
      </trkpt>
      <trkpt lat="43.97136" lon="2.23404">
        <ele>250</ele>
        <time>2021-02-25T12:54:57.000Z</time>
      </trkpt>
      <trkpt lat="43.97138" lon="2.23404">
        <ele>250</ele>
        <time>2021-02-25T12:54:58.000Z</time>
      </trkpt>
      <trkpt lat="43.97139" lon="2.23405">
        <ele>250</ele>
        <time>2021-02-25T12:54:59.000Z</time>
      </trkpt>
      <trkpt lat="43.9714" lon="2.23405">
        <ele>250</ele>
        <time>2021-02-25T12:55:00.000Z</time>
      </trkpt>
      <trkpt lat="43.97141" lon="2.23406">
        <ele>250</ele>
        <time>2021-02-25T12:55:01.000Z</time>
      </trkpt>
      <trkpt lat="43.97142" lon="2.23406">
        <ele>250</ele>
        <time>2021-02-25T12:55:02.000Z</time>
      </trkpt>
      <trkpt lat="43.97142" lon="2.23406">
        <ele>250</ele>
        <time>2021-02-25T12:55:03.000Z</time>
      </trkpt>
      <trkpt lat="43.97143" lon="2.23406">
        <ele>250</ele>
        <time>2021-02-25T12:55:04.000Z</time>
      </trkpt>
      <trkpt lat="43.97143" lon="2.23406">
        <ele>250</ele>
        <time>2021-02-25T12:55:05.000Z</time>
      </trkpt>
      <trkpt lat="43.97143" lon="2.23406">
        <ele>250</ele>
        <time>2021-02-25T12:55:06.000Z</time>
      </trkpt>
      <trkpt lat="43.97144" lon="2.23407">
        <ele>250</ele>
        <time>2021-02-25T12:55:07.000Z</time>
      </trkpt>
      <trkpt lat="43.97145" lon="2.23407">
        <ele>250</ele>
        <time>2021-02-25T12:55:08.000Z</time>
      </trkpt>
      <trkpt lat="43.97146" lon="2.23408">
        <ele>250</ele>
        <time>2021-02-25T12:55:09.000Z</time>
      </trkpt>
      <trkpt lat="43.97146" lon="2.23408">
        <ele>250</ele>
        <time>2021-02-25T12:55:10.000Z</time>
      </trkpt>
      <trkpt lat="43.97146" lon="2.23409">
        <ele>250</ele>
        <time>2021-02-25T12:55:11.000Z</time>
      </trkpt>
      <trkpt lat="43.97147" lon="2.23409">
        <ele>250</ele>
        <time>2021-02-25T12:55:12.000Z</time>
      </trkpt>
      <trkpt lat="43.97147" lon="2.23409">
        <ele>250</ele>
        <time>2021-02-25T12:55:13.000Z</time>
      </trkpt>
      <trkpt lat="43.97148" lon="2.2341">
        <ele>250</ele>
        <time>2021-02-25T12:55:14.000Z</time>
      </trkpt>
      <trkpt lat="43.97149" lon="2.23411">
        <ele>250</ele>
        <time>2021-02-25T12:55:15.000Z</time>
      </trkpt>
      <trkpt lat="43.97149" lon="2.23411">
        <ele>249</ele>
        <time>2021-02-25T12:55:16.000Z</time>
      </trkpt>
      <trkpt lat="43.9715" lon="2.23412">
        <ele>249</ele>
        <time>2021-02-25T12:55:17.000Z</time>
      </trkpt>
      <trkpt lat="43.97151" lon="2.23413">
        <ele>249</ele>
        <time>2021-02-25T12:55:18.000Z</time>
      </trkpt>
      <trkpt lat="43.97152" lon="2.23414">
        <ele>249</ele>
        <time>2021-02-25T12:55:19.000Z</time>
      </trkpt>
      <trkpt lat="43.97153" lon="2.23415">
        <ele>248</ele>
        <time>2021-02-25T12:55:20.000Z</time>
      </trkpt>
      <trkpt lat="43.97153" lon="2.23415">
        <ele>248</ele>
        <time>2021-02-25T12:55:21.000Z</time>
      </trkpt>
      <trkpt lat="43.97154" lon="2.23416">
        <ele>248</ele>
        <time>2021-02-25T12:55:22.000Z</time>
      </trkpt>
      <trkpt lat="43.97154" lon="2.23418">
        <ele>247</ele>
        <time>2021-02-25T12:55:23.000Z</time>
      </trkpt>
      <trkpt lat="43.97155" lon="2.23419">
        <ele>247</ele>
        <time>2021-02-25T12:55:24.000Z</time>
      </trkpt>
      <trkpt lat="43.97155" lon="2.2342">
        <ele>247</ele>
        <time>2021-02-25T12:55:25.000Z</time>
      </trkpt>
      <trkpt lat="43.97156" lon="2.23421">
        <ele>246</ele>
        <time>2021-02-25T12:55:26.000Z</time>
      </trkpt>
      <trkpt lat="43.97157" lon="2.23423">
        <ele>246</ele>
        <time>2021-02-25T12:55:27.000Z</time>
      </trkpt>
      <trkpt lat="43.97157" lon="2.23424">
        <ele>246</ele>
        <time>2021-02-25T12:55:28.000Z</time>
      </trkpt>
      <trkpt lat="43.97158" lon="2.23426">
        <ele>245</ele>
        <time>2021-02-25T12:55:29.000Z</time>
      </trkpt>
      <trkpt lat="43.97159" lon="2.23427">
        <ele>245</ele>
        <time>2021-02-25T12:55:30.000Z</time>
      </trkpt>
      <trkpt lat="43.9716" lon="2.23429">
        <ele>245</ele>
        <time>2021-02-25T12:55:31.000Z</time>
      </trkpt>
      <trkpt lat="43.97161" lon="2.2343">
        <ele>244</ele>
        <time>2021-02-25T12:55:32.000Z</time>
      </trkpt>
      <trkpt lat="43.97162" lon="2.23432">
        <ele>244</ele>
        <time>2021-02-25T12:55:33.000Z</time>
      </trkpt>
      <trkpt lat="43.97163" lon="2.23433">
        <ele>244</ele>
        <time>2021-02-25T12:55:34.000Z</time>
      </trkpt>
      <trkpt lat="43.97163" lon="2.23435">
        <ele>244</ele>
        <time>2021-02-25T12:55:35.000Z</time>
      </trkpt>
      <trkpt lat="43.97164" lon="2.23436">
        <ele>243</ele>
        <time>2021-02-25T12:55:36.000Z</time>
      </trkpt>
      <trkpt lat="43.97165" lon="2.23438">
        <ele>243</ele>
        <time>2021-02-25T12:55:37.000Z</time>
      </trkpt>
      <trkpt lat="43.97166" lon="2.23439">
        <ele>243</ele>
        <time>2021-02-25T12:55:38.000Z</time>
      </trkpt>
      <trkpt lat="43.97166" lon="2.23441">
        <ele>242</ele>
        <time>2021-02-25T12:55:39.000Z</time>
      </trkpt>
      <trkpt lat="43.97166" lon="2.23442">
        <ele>242</ele>
        <time>2021-02-25T12:55:40.000Z</time>
      </trkpt>
      <trkpt lat="43.97167" lon="2.23443">
        <ele>242</ele>
        <time>2021-02-25T12:55:41.000Z</time>
      </trkpt>
      <trkpt lat="43.97167" lon="2.23445">
        <ele>242</ele>
        <time>2021-02-25T12:55:42.000Z</time>
      </trkpt>
      <trkpt lat="43.97167" lon="2.23446">
        <ele>242</ele>
        <time>2021-02-25T12:55:43.000Z</time>
      </trkpt>
      <trkpt lat="43.97167" lon="2.23447">
        <ele>241</ele>
        <time>2021-02-25T12:55:44.000Z</time>
      </trkpt>
      <trkpt lat="43.97168" lon="2.23448">
        <ele>241</ele>
        <time>2021-02-25T12:55:45.000Z</time>
      </trkpt>
      <trkpt lat="43.97168" lon="2.23449">
        <ele>241</ele>
        <time>2021-02-25T12:55:46.000Z</time>
      </trkpt>
      <trkpt lat="43.97168" lon="2.2345">
        <ele>241</ele>
        <time>2021-02-25T12:55:47.000Z</time>
      </trkpt>
      <trkpt lat="43.97169" lon="2.23451">
        <ele>240</ele>
        <time>2021-02-25T12:55:48.000Z</time>
      </trkpt>
      <trkpt lat="43.97169" lon="2.23452">
        <ele>240</ele>
        <time>2021-02-25T12:55:49.000Z</time>
      </trkpt>
      <trkpt lat="43.97169" lon="2.23453">
        <ele>240</ele>
        <time>2021-02-25T12:55:50.000Z</time>
      </trkpt>
      <trkpt lat="43.97169" lon="2.23454">
        <ele>240</ele>
        <time>2021-02-25T12:55:51.000Z</time>
      </trkpt>
      <trkpt lat="43.9717" lon="2.23454">
        <ele>239</ele>
        <time>2021-02-25T12:55:52.000Z</time>
      </trkpt>
      <trkpt lat="43.97169" lon="2.2346">
        <ele>236</ele>
        <time>2021-02-25T12:55:53.000Z</time>
      </trkpt>
      <trkpt lat="43.97169" lon="2.23461">
        <ele>236</ele>
        <time>2021-02-25T12:55:54.000Z</time>
      </trkpt>
      <trkpt lat="43.9717" lon="2.23461">
        <ele>236</ele>
        <time>2021-02-25T12:55:55.000Z</time>
      </trkpt>
      <trkpt lat="43.97169" lon="2.23461">
        <ele>236</ele>
        <time>2021-02-25T12:55:56.000Z</time>
      </trkpt>
      <trkpt lat="43.97169" lon="2.23462">
        <ele>236</ele>
        <time>2021-02-25T12:55:57.000Z</time>
      </trkpt>
      <trkpt lat="43.9717" lon="2.23464">
        <ele>235</ele>
        <time>2021-02-25T12:55:58.000Z</time>
      </trkpt>
      <trkpt lat="43.9717" lon="2.23465">
        <ele>235</ele>
        <time>2021-02-25T12:55:59.000Z</time>
      </trkpt>
      <trkpt lat="43.9717" lon="2.23469">
        <ele>235</ele>
        <time>2021-02-25T12:56:00.000Z</time>
      </trkpt>
      <trkpt lat="43.9717" lon="2.23471">
        <ele>235</ele>
        <time>2021-02-25T12:56:01.000Z</time>
      </trkpt>
      <trkpt lat="43.97171" lon="2.23473">
        <ele>234</ele>
        <time>2021-02-25T12:56:02.000Z</time>
      </trkpt>
      <trkpt lat="43.97171" lon="2.23475">
        <ele>234</ele>
        <time>2021-02-25T12:56:03.000Z</time>
      </trkpt>
      <trkpt lat="43.97172" lon="2.23476">
        <ele>234</ele>
        <time>2021-02-25T12:56:04.000Z</time>
      </trkpt>
      <trkpt lat="43.97172" lon="2.23478">
        <ele>233</ele>
        <time>2021-02-25T12:56:05.000Z</time>
      </trkpt>
      <trkpt lat="43.97173" lon="2.2348">
        <ele>233</ele>
        <time>2021-02-25T12:56:06.000Z</time>
      </trkpt>
      <trkpt lat="43.97174" lon="2.23481">
        <ele>233</ele>
        <time>2021-02-25T12:56:07.000Z</time>
      </trkpt>
      <trkpt lat="43.97174" lon="2.23483">
        <ele>233</ele>
        <time>2021-02-25T12:56:08.000Z</time>
      </trkpt>
      <trkpt lat="43.97175" lon="2.23484">
        <ele>233</ele>
        <time>2021-02-25T12:56:09.000Z</time>
      </trkpt>
      <trkpt lat="43.97176" lon="2.23486">
        <ele>233</ele>
        <time>2021-02-25T12:56:10.000Z</time>
      </trkpt>
      <trkpt lat="43.97177" lon="2.23488">
        <ele>233</ele>
        <time>2021-02-25T12:56:11.000Z</time>
      </trkpt>
      <trkpt lat="43.97177" lon="2.23489">
        <ele>233</ele>
        <time>2021-02-25T12:56:12.000Z</time>
      </trkpt>
      <trkpt lat="43.97178" lon="2.23491">
        <ele>233</ele>
        <time>2021-02-25T12:56:13.000Z</time>
      </trkpt>
      <trkpt lat="43.97179" lon="2.23492">
        <ele>233</ele>
        <time>2021-02-25T12:56:14.000Z</time>
      </trkpt>
      <trkpt lat="43.9718" lon="2.23493">
        <ele>233</ele>
        <time>2021-02-25T12:56:15.000Z</time>
      </trkpt>
      <trkpt lat="43.9718" lon="2.23495">
        <ele>233</ele>
        <time>2021-02-25T12:56:16.000Z</time>
      </trkpt>
      <trkpt lat="43.97181" lon="2.23497">
        <ele>233</ele>
        <time>2021-02-25T12:56:17.000Z</time>
      </trkpt>
      <trkpt lat="43.97182" lon="2.23498">
        <ele>232</ele>
        <time>2021-02-25T12:56:18.000Z</time>
      </trkpt>
      <trkpt lat="43.97184" lon="2.235">
        <ele>232</ele>
        <time>2021-02-25T12:56:19.000Z</time>
      </trkpt>
      <trkpt lat="43.97185" lon="2.23501">
        <ele>232</ele>
        <time>2021-02-25T12:56:20.000Z</time>
      </trkpt>
      <trkpt lat="43.97185" lon="2.23502">
        <ele>232</ele>
        <time>2021-02-25T12:56:21.000Z</time>
      </trkpt>
      <trkpt lat="43.97186" lon="2.23504">
        <ele>232</ele>
        <time>2021-02-25T12:56:22.000Z</time>
      </trkpt>
      <trkpt lat="43.97186" lon="2.23505">
        <ele>232</ele>
        <time>2021-02-25T12:56:23.000Z</time>
      </trkpt>
      <trkpt lat="43.97186" lon="2.23506">
        <ele>232</ele>
        <time>2021-02-25T12:56:24.000Z</time>
      </trkpt>
      <trkpt lat="43.97187" lon="2.23508">
        <ele>232</ele>
        <time>2021-02-25T12:56:25.000Z</time>
      </trkpt>
      <trkpt lat="43.97188" lon="2.2351">
        <ele>232</ele>
        <time>2021-02-25T12:56:26.000Z</time>
      </trkpt>
      <trkpt lat="43.97189" lon="2.23511">
        <ele>232</ele>
        <time>2021-02-25T12:56:27.000Z</time>
      </trkpt>
      <trkpt lat="43.97189" lon="2.23512">
        <ele>233</ele>
        <time>2021-02-25T12:56:28.000Z</time>
      </trkpt>
      <trkpt lat="43.9719" lon="2.23514">
        <ele>233</ele>
        <time>2021-02-25T12:56:29.000Z</time>
      </trkpt>
      <trkpt lat="43.9719" lon="2.23516">
        <ele>233</ele>
        <time>2021-02-25T12:56:30.000Z</time>
      </trkpt>
      <trkpt lat="43.97191" lon="2.23518">
        <ele>233</ele>
        <time>2021-02-25T12:56:31.000Z</time>
      </trkpt>
      <trkpt lat="43.97191" lon="2.23519">
        <ele>233</ele>
        <time>2021-02-25T12:56:32.000Z</time>
      </trkpt>
      <trkpt lat="43.97192" lon="2.2352">
        <ele>233</ele>
        <time>2021-02-25T12:56:33.000Z</time>
      </trkpt>
      <trkpt lat="43.97192" lon="2.23521">
        <ele>234</ele>
        <time>2021-02-25T12:56:34.000Z</time>
      </trkpt>
      <trkpt lat="43.97193" lon="2.23523">
        <ele>234</ele>
        <time>2021-02-25T12:56:35.000Z</time>
      </trkpt>
      <trkpt lat="43.97193" lon="2.23524">
        <ele>234</ele>
        <time>2021-02-25T12:56:36.000Z</time>
      </trkpt>
      <trkpt lat="43.97194" lon="2.23526">
        <ele>234</ele>
        <time>2021-02-25T12:56:37.000Z</time>
      </trkpt>
      <trkpt lat="43.97194" lon="2.23527">
        <ele>234</ele>
        <time>2021-02-25T12:56:38.000Z</time>
      </trkpt>
      <trkpt lat="43.97195" lon="2.23528">
        <ele>235</ele>
        <time>2021-02-25T12:56:39.000Z</time>
      </trkpt>
      <trkpt lat="43.97195" lon="2.23529">
        <ele>235</ele>
        <time>2021-02-25T12:56:40.000Z</time>
      </trkpt>
      <trkpt lat="43.97195" lon="2.2353">
        <ele>235</ele>
        <time>2021-02-25T12:56:41.000Z</time>
      </trkpt>
      <trkpt lat="43.97196" lon="2.23531">
        <ele>235</ele>
        <time>2021-02-25T12:56:42.000Z</time>
      </trkpt>
      <trkpt lat="43.97197" lon="2.23532">
        <ele>235</ele>
        <time>2021-02-25T12:56:43.000Z</time>
      </trkpt>
      <trkpt lat="43.97198" lon="2.23533">
        <ele>236</ele>
        <time>2021-02-25T12:56:44.000Z</time>
      </trkpt>
      <trkpt lat="43.97198" lon="2.23534">
        <ele>236</ele>
        <time>2021-02-25T12:56:45.000Z</time>
      </trkpt>
      <trkpt lat="43.97199" lon="2.23535">
        <ele>236</ele>
        <time>2021-02-25T12:56:46.000Z</time>
      </trkpt>
      <trkpt lat="43.972" lon="2.23536">
        <ele>237</ele>
        <time>2021-02-25T12:56:47.000Z</time>
      </trkpt>
      <trkpt lat="43.972" lon="2.23537">
        <ele>237</ele>
        <time>2021-02-25T12:56:48.000Z</time>
      </trkpt>
      <trkpt lat="43.97201" lon="2.23538">
        <ele>238</ele>
        <time>2021-02-25T12:56:49.000Z</time>
      </trkpt>
      <trkpt lat="43.97202" lon="2.23539">
        <ele>238</ele>
        <time>2021-02-25T12:56:50.000Z</time>
      </trkpt>
      <trkpt lat="43.97203" lon="2.2354">
        <ele>238</ele>
        <time>2021-02-25T12:56:51.000Z</time>
      </trkpt>
      <trkpt lat="43.97203" lon="2.23541">
        <ele>239</ele>
        <time>2021-02-25T12:56:52.000Z</time>
      </trkpt>
      <trkpt lat="43.97204" lon="2.23542">
        <ele>239</ele>
        <time>2021-02-25T12:56:53.000Z</time>
      </trkpt>
      <trkpt lat="43.97205" lon="2.23544">
        <ele>239</ele>
        <time>2021-02-25T12:56:54.000Z</time>
      </trkpt>
      <trkpt lat="43.97206" lon="2.23545">
        <ele>239</ele>
        <time>2021-02-25T12:56:55.000Z</time>
      </trkpt>
      <trkpt lat="43.97206" lon="2.23546">
        <ele>240</ele>
        <time>2021-02-25T12:56:56.000Z</time>
      </trkpt>
      <trkpt lat="43.97207" lon="2.23547">
        <ele>240</ele>
        <time>2021-02-25T12:56:57.000Z</time>
      </trkpt>
      <trkpt lat="43.97207" lon="2.23548">
        <ele>240</ele>
        <time>2021-02-25T12:56:58.000Z</time>
      </trkpt>
      <trkpt lat="43.97208" lon="2.23549">
        <ele>240</ele>
        <time>2021-02-25T12:56:59.000Z</time>
      </trkpt>
      <trkpt lat="43.97208" lon="2.2355">
        <ele>241</ele>
        <time>2021-02-25T12:57:00.000Z</time>
      </trkpt>
      <trkpt lat="43.97208" lon="2.23551">
        <ele>241</ele>
        <time>2021-02-25T12:57:01.000Z</time>
      </trkpt>
      <trkpt lat="43.97209" lon="2.23551">
        <ele>241</ele>
        <time>2021-02-25T12:57:02.000Z</time>
      </trkpt>
      <trkpt lat="43.97209" lon="2.23552">
        <ele>241</ele>
        <time>2021-02-25T12:57:03.000Z</time>
      </trkpt>
      <trkpt lat="43.9721" lon="2.23553">
        <ele>241</ele>
        <time>2021-02-25T12:57:04.000Z</time>
      </trkpt>
      <trkpt lat="43.9721" lon="2.23555">
        <ele>241</ele>
        <time>2021-02-25T12:57:05.000Z</time>
      </trkpt>
      <trkpt lat="43.9721" lon="2.23556">
        <ele>242</ele>
        <time>2021-02-25T12:57:06.000Z</time>
      </trkpt>
      <trkpt lat="43.97209" lon="2.23557">
        <ele>241</ele>
        <time>2021-02-25T12:57:07.000Z</time>
      </trkpt>
      <trkpt lat="43.97207" lon="2.23559">
        <ele>241</ele>
        <time>2021-02-25T12:57:08.000Z</time>
      </trkpt>
      <trkpt lat="43.97206" lon="2.2356">
        <ele>241</ele>
        <time>2021-02-25T12:57:09.000Z</time>
      </trkpt>
      <trkpt lat="43.97206" lon="2.23562">
        <ele>241</ele>
        <time>2021-02-25T12:57:10.000Z</time>
      </trkpt>
      <trkpt lat="43.97205" lon="2.23563">
        <ele>241</ele>
        <time>2021-02-25T12:57:11.000Z</time>
      </trkpt>
      <trkpt lat="43.97204" lon="2.23565">
        <ele>241</ele>
        <time>2021-02-25T12:57:12.000Z</time>
      </trkpt>
      <trkpt lat="43.97203" lon="2.23566">
        <ele>241</ele>
        <time>2021-02-25T12:57:13.000Z</time>
      </trkpt>
      <trkpt lat="43.97203" lon="2.23568">
        <ele>241</ele>
        <time>2021-02-25T12:57:14.000Z</time>
      </trkpt>
      <trkpt lat="43.97202" lon="2.2357">
        <ele>241</ele>
        <time>2021-02-25T12:57:15.000Z</time>
      </trkpt>
      <trkpt lat="43.97202" lon="2.23571">
        <ele>240</ele>
        <time>2021-02-25T12:57:16.000Z</time>
      </trkpt>
      <trkpt lat="43.97202" lon="2.23573">
        <ele>240</ele>
        <time>2021-02-25T12:57:17.000Z</time>
      </trkpt>
      <trkpt lat="43.97201" lon="2.23574">
        <ele>240</ele>
        <time>2021-02-25T12:57:18.000Z</time>
      </trkpt>
      <trkpt lat="43.97201" lon="2.23576">
        <ele>240</ele>
        <time>2021-02-25T12:57:19.000Z</time>
      </trkpt>
      <trkpt lat="43.97201" lon="2.23577">
        <ele>240</ele>
        <time>2021-02-25T12:57:20.000Z</time>
      </trkpt>
      <trkpt lat="43.97201" lon="2.23579">
        <ele>240</ele>
        <time>2021-02-25T12:57:21.000Z</time>
      </trkpt>
      <trkpt lat="43.972" lon="2.2358">
        <ele>239</ele>
        <time>2021-02-25T12:57:22.000Z</time>
      </trkpt>
      <trkpt lat="43.972" lon="2.23582">
        <ele>239</ele>
        <time>2021-02-25T12:57:23.000Z</time>
      </trkpt>
      <trkpt lat="43.97199" lon="2.23584">
        <ele>239</ele>
        <time>2021-02-25T12:57:24.000Z</time>
      </trkpt>
      <trkpt lat="43.97199" lon="2.23585">
        <ele>239</ele>
        <time>2021-02-25T12:57:25.000Z</time>
      </trkpt>
      <trkpt lat="43.97199" lon="2.23587">
        <ele>239</ele>
        <time>2021-02-25T12:57:26.000Z</time>
      </trkpt>
      <trkpt lat="43.972" lon="2.23588">
        <ele>238</ele>
        <time>2021-02-25T12:57:27.000Z</time>
      </trkpt>
      <trkpt lat="43.972" lon="2.2359">
        <ele>238</ele>
        <time>2021-02-25T12:57:28.000Z</time>
      </trkpt>
      <trkpt lat="43.97201" lon="2.23592">
        <ele>238</ele>
        <time>2021-02-25T12:57:29.000Z</time>
      </trkpt>
      <trkpt lat="43.97201" lon="2.23593">
        <ele>238</ele>
        <time>2021-02-25T12:57:30.000Z</time>
      </trkpt>
      <trkpt lat="43.97202" lon="2.23595">
        <ele>238</ele>
        <time>2021-02-25T12:57:31.000Z</time>
      </trkpt>
      <trkpt lat="43.97203" lon="2.23596">
        <ele>238</ele>
        <time>2021-02-25T12:57:32.000Z</time>
      </trkpt>
      <trkpt lat="43.97203" lon="2.23598">
        <ele>238</ele>
        <time>2021-02-25T12:57:33.000Z</time>
      </trkpt>
      <trkpt lat="43.97204" lon="2.23599">
        <ele>238</ele>
        <time>2021-02-25T12:57:34.000Z</time>
      </trkpt>
      <trkpt lat="43.97205" lon="2.23601">
        <ele>238</ele>
        <time>2021-02-25T12:57:35.000Z</time>
      </trkpt>
      <trkpt lat="43.97206" lon="2.23602">
        <ele>238</ele>
        <time>2021-02-25T12:57:36.000Z</time>
      </trkpt>
      <trkpt lat="43.97207" lon="2.23604">
        <ele>238</ele>
        <time>2021-02-25T12:57:37.000Z</time>
      </trkpt>
      <trkpt lat="43.97209" lon="2.23605">
        <ele>238</ele>
        <time>2021-02-25T12:57:38.000Z</time>
      </trkpt>
      <trkpt lat="43.9721" lon="2.23606">
        <ele>238</ele>
        <time>2021-02-25T12:57:39.000Z</time>
      </trkpt>
      <trkpt lat="43.97211" lon="2.23607">
        <ele>239</ele>
        <time>2021-02-25T12:57:40.000Z</time>
      </trkpt>
      <trkpt lat="43.97212" lon="2.23609">
        <ele>239</ele>
        <time>2021-02-25T12:57:41.000Z</time>
      </trkpt>
      <trkpt lat="43.97214" lon="2.2361">
        <ele>239</ele>
        <time>2021-02-25T12:57:42.000Z</time>
      </trkpt>
      <trkpt lat="43.97214" lon="2.23611">
        <ele>239</ele>
        <time>2021-02-25T12:57:43.000Z</time>
      </trkpt>
      <trkpt lat="43.97215" lon="2.23613">
        <ele>239</ele>
        <time>2021-02-25T12:57:44.000Z</time>
      </trkpt>
      <trkpt lat="43.97216" lon="2.23614">
        <ele>240</ele>
        <time>2021-02-25T12:57:45.000Z</time>
      </trkpt>
      <trkpt lat="43.97216" lon="2.23615">
        <ele>240</ele>
        <time>2021-02-25T12:57:46.000Z</time>
      </trkpt>
      <trkpt lat="43.97217" lon="2.23616">
        <ele>240</ele>
        <time>2021-02-25T12:57:47.000Z</time>
      </trkpt>
      <trkpt lat="43.97218" lon="2.23617">
        <ele>240</ele>
        <time>2021-02-25T12:57:48.000Z</time>
      </trkpt>
      <trkpt lat="43.97219" lon="2.23619">
        <ele>240</ele>
        <time>2021-02-25T12:57:49.000Z</time>
      </trkpt>
      <trkpt lat="43.9722" lon="2.2362">
        <ele>241</ele>
        <time>2021-02-25T12:57:50.000Z</time>
      </trkpt>
      <trkpt lat="43.97221" lon="2.23621">
        <ele>241</ele>
        <time>2021-02-25T12:57:51.000Z</time>
      </trkpt>
      <trkpt lat="43.97221" lon="2.23622">
        <ele>241</ele>
        <time>2021-02-25T12:57:52.000Z</time>
      </trkpt>
      <trkpt lat="43.97222" lon="2.23623">
        <ele>241</ele>
        <time>2021-02-25T12:57:53.000Z</time>
      </trkpt>
      <trkpt lat="43.97223" lon="2.23624">
        <ele>241</ele>
        <time>2021-02-25T12:57:54.000Z</time>
      </trkpt>
      <trkpt lat="43.97224" lon="2.23625">
        <ele>242</ele>
        <time>2021-02-25T12:57:55.000Z</time>
      </trkpt>
      <trkpt lat="43.97224" lon="2.23626">
        <ele>242</ele>
        <time>2021-02-25T12:57:56.000Z</time>
      </trkpt>
      <trkpt lat="43.97225" lon="2.23627">
        <ele>242</ele>
        <time>2021-02-25T12:57:57.000Z</time>
      </trkpt>
      <trkpt lat="43.97226" lon="2.23628">
        <ele>242</ele>
        <time>2021-02-25T12:57:58.000Z</time>
      </trkpt>
      <trkpt lat="43.97227" lon="2.23629">
        <ele>243</ele>
        <time>2021-02-25T12:57:59.000Z</time>
      </trkpt>
      <trkpt lat="43.97228" lon="2.23629">
        <ele>243</ele>
        <time>2021-02-25T12:58:00.000Z</time>
      </trkpt>
      <trkpt lat="43.97229" lon="2.2363">
        <ele>243</ele>
        <time>2021-02-25T12:58:01.000Z</time>
      </trkpt>
      <trkpt lat="43.9723" lon="2.23631">
        <ele>243</ele>
        <time>2021-02-25T12:58:02.000Z</time>
      </trkpt>
      <trkpt lat="43.97231" lon="2.23632">
        <ele>243</ele>
        <time>2021-02-25T12:58:03.000Z</time>
      </trkpt>
      <trkpt lat="43.97232" lon="2.23633">
        <ele>244</ele>
        <time>2021-02-25T12:58:04.000Z</time>
      </trkpt>
      <trkpt lat="43.97233" lon="2.23633">
        <ele>244</ele>
        <time>2021-02-25T12:58:05.000Z</time>
      </trkpt>
      <trkpt lat="43.97234" lon="2.23633">
        <ele>244</ele>
        <time>2021-02-25T12:58:06.000Z</time>
      </trkpt>
      <trkpt lat="43.97235" lon="2.23633">
        <ele>245</ele>
        <time>2021-02-25T12:58:07.000Z</time>
      </trkpt>
      <trkpt lat="43.97236" lon="2.23633">
        <ele>245</ele>
        <time>2021-02-25T12:58:08.000Z</time>
      </trkpt>
      <trkpt lat="43.97237" lon="2.23633">
        <ele>245</ele>
        <time>2021-02-25T12:58:09.000Z</time>
      </trkpt>
      <trkpt lat="43.97238" lon="2.23633">
        <ele>245</ele>
        <time>2021-02-25T12:58:10.000Z</time>
      </trkpt>
      <trkpt lat="43.97239" lon="2.23633">
        <ele>246</ele>
        <time>2021-02-25T12:58:11.000Z</time>
      </trkpt>
      <trkpt lat="43.9724" lon="2.23634">
        <ele>246</ele>
        <time>2021-02-25T12:58:12.000Z</time>
      </trkpt>
      <trkpt lat="43.97241" lon="2.23634">
        <ele>246</ele>
        <time>2021-02-25T12:58:13.000Z</time>
      </trkpt>
      <trkpt lat="43.97242" lon="2.23635">
        <ele>247</ele>
        <time>2021-02-25T12:58:14.000Z</time>
      </trkpt>
      <trkpt lat="43.97243" lon="2.23635">
        <ele>247</ele>
        <time>2021-02-25T12:58:15.000Z</time>
      </trkpt>
      <trkpt lat="43.97244" lon="2.23636">
        <ele>247</ele>
        <time>2021-02-25T12:58:16.000Z</time>
      </trkpt>
      <trkpt lat="43.97245" lon="2.23636">
        <ele>247</ele>
        <time>2021-02-25T12:58:17.000Z</time>
      </trkpt>
      <trkpt lat="43.97246" lon="2.23637">
        <ele>247</ele>
        <time>2021-02-25T12:58:18.000Z</time>
      </trkpt>
      <trkpt lat="43.97247" lon="2.23637">
        <ele>248</ele>
        <time>2021-02-25T12:58:19.000Z</time>
      </trkpt>
      <trkpt lat="43.97248" lon="2.23638">
        <ele>248</ele>
        <time>2021-02-25T12:58:20.000Z</time>
      </trkpt>
      <trkpt lat="43.97249" lon="2.23638">
        <ele>248</ele>
        <time>2021-02-25T12:58:21.000Z</time>
      </trkpt>
      <trkpt lat="43.9725" lon="2.23639">
        <ele>248</ele>
        <time>2021-02-25T12:58:22.000Z</time>
      </trkpt>
      <trkpt lat="43.97251" lon="2.23639">
        <ele>248</ele>
        <time>2021-02-25T12:58:23.000Z</time>
      </trkpt>
      <trkpt lat="43.97252" lon="2.2364">
        <ele>248</ele>
        <time>2021-02-25T12:58:24.000Z</time>
      </trkpt>
      <trkpt lat="43.97253" lon="2.2364">
        <ele>249</ele>
        <time>2021-02-25T12:58:25.000Z</time>
      </trkpt>
      <trkpt lat="43.97253" lon="2.23641">
        <ele>249</ele>
        <time>2021-02-25T12:58:26.000Z</time>
      </trkpt>
      <trkpt lat="43.97254" lon="2.23641">
        <ele>249</ele>
        <time>2021-02-25T12:58:27.000Z</time>
      </trkpt>
      <trkpt lat="43.97255" lon="2.23642">
        <ele>249</ele>
        <time>2021-02-25T12:58:28.000Z</time>
      </trkpt>
      <trkpt lat="43.97256" lon="2.23643">
        <ele>249</ele>
        <time>2021-02-25T12:58:29.000Z</time>
      </trkpt>
      <trkpt lat="43.97257" lon="2.23643">
        <ele>249</ele>
        <time>2021-02-25T12:58:30.000Z</time>
      </trkpt>
      <trkpt lat="43.97258" lon="2.23643">
        <ele>249</ele>
        <time>2021-02-25T12:58:31.000Z</time>
      </trkpt>
      <trkpt lat="43.97259" lon="2.23643">
        <ele>249</ele>
        <time>2021-02-25T12:58:32.000Z</time>
      </trkpt>
      <trkpt lat="43.9726" lon="2.23643">
        <ele>249</ele>
        <time>2021-02-25T12:58:33.000Z</time>
      </trkpt>
      <trkpt lat="43.97261" lon="2.23643">
        <ele>250</ele>
        <time>2021-02-25T12:58:34.000Z</time>
      </trkpt>
      <trkpt lat="43.97262" lon="2.23643">
        <ele>250</ele>
        <time>2021-02-25T12:58:35.000Z</time>
      </trkpt>
      <trkpt lat="43.97263" lon="2.23642">
        <ele>250</ele>
        <time>2021-02-25T12:58:36.000Z</time>
      </trkpt>
      <trkpt lat="43.97264" lon="2.23642">
        <ele>250</ele>
        <time>2021-02-25T12:58:37.000Z</time>
      </trkpt>
      <trkpt lat="43.97265" lon="2.23641">
        <ele>250</ele>
        <time>2021-02-25T12:58:38.000Z</time>
      </trkpt>
      <trkpt lat="43.97265" lon="2.2364">
        <ele>250</ele>
        <time>2021-02-25T12:58:39.000Z</time>
      </trkpt>
      <trkpt lat="43.97265" lon="2.23639">
        <ele>250</ele>
        <time>2021-02-25T12:58:40.000Z</time>
      </trkpt>
      <trkpt lat="43.97265" lon="2.23639">
        <ele>250</ele>
        <time>2021-02-25T12:58:41.000Z</time>
      </trkpt>
      <trkpt lat="43.97266" lon="2.23638">
        <ele>250</ele>
        <time>2021-02-25T12:58:42.000Z</time>
      </trkpt>
      <trkpt lat="43.97266" lon="2.23638">
        <ele>250</ele>
        <time>2021-02-25T12:58:43.000Z</time>
      </trkpt>
      <trkpt lat="43.97266" lon="2.23638">
        <ele>250</ele>
        <time>2021-02-25T12:58:44.000Z</time>
      </trkpt>
      <trkpt lat="43.97266" lon="2.23638">
        <ele>250</ele>
        <time>2021-02-25T12:58:45.000Z</time>
      </trkpt>
      <trkpt lat="43.97267" lon="2.23638">
        <ele>250</ele>
        <time>2021-02-25T12:58:46.000Z</time>
      </trkpt>
      <trkpt lat="43.97268" lon="2.23639">
        <ele>250</ele>
        <time>2021-02-25T12:58:47.000Z</time>
      </trkpt>
      <trkpt lat="43.97269" lon="2.23639">
        <ele>250</ele>
        <time>2021-02-25T12:58:48.000Z</time>
      </trkpt>
      <trkpt lat="43.9727" lon="2.2364">
        <ele>250</ele>
        <time>2021-02-25T12:58:49.000Z</time>
      </trkpt>
      <trkpt lat="43.9727" lon="2.2364">
        <ele>250</ele>
        <time>2021-02-25T12:58:50.000Z</time>
      </trkpt>
      <trkpt lat="43.97271" lon="2.2364">
        <ele>250</ele>
        <time>2021-02-25T12:58:51.000Z</time>
      </trkpt>
      <trkpt lat="43.97272" lon="2.23639">
        <ele>249</ele>
        <time>2021-02-25T12:58:52.000Z</time>
      </trkpt>
      <trkpt lat="43.97273" lon="2.23639">
        <ele>249</ele>
        <time>2021-02-25T12:58:53.000Z</time>
      </trkpt>
      <trkpt lat="43.97274" lon="2.23638">
        <ele>249</ele>
        <time>2021-02-25T12:58:54.000Z</time>
      </trkpt>
      <trkpt lat="43.97274" lon="2.23638">
        <ele>249</ele>
        <time>2021-02-25T12:58:55.000Z</time>
      </trkpt>
      <trkpt lat="43.97275" lon="2.23638">
        <ele>249</ele>
        <time>2021-02-25T12:58:56.000Z</time>
      </trkpt>
      <trkpt lat="43.97276" lon="2.23638">
        <ele>249</ele>
        <time>2021-02-25T12:58:57.000Z</time>
      </trkpt>
      <trkpt lat="43.97277" lon="2.23639">
        <ele>249</ele>
        <time>2021-02-25T12:58:58.000Z</time>
      </trkpt>
      <trkpt lat="43.97278" lon="2.2364">
        <ele>248</ele>
        <time>2021-02-25T12:58:59.000Z</time>
      </trkpt>
      <trkpt lat="43.97279" lon="2.23641">
        <ele>248</ele>
        <time>2021-02-25T12:59:00.000Z</time>
      </trkpt>
      <trkpt lat="43.97281" lon="2.23642">
        <ele>247</ele>
        <time>2021-02-25T12:59:01.000Z</time>
      </trkpt>
      <trkpt lat="43.97282" lon="2.23643">
        <ele>247</ele>
        <time>2021-02-25T12:59:02.000Z</time>
      </trkpt>
      <trkpt lat="43.97283" lon="2.23644">
        <ele>246</ele>
        <time>2021-02-25T12:59:03.000Z</time>
      </trkpt>
      <trkpt lat="43.97284" lon="2.23645">
        <ele>246</ele>
        <time>2021-02-25T12:59:04.000Z</time>
      </trkpt>
      <trkpt lat="43.97286" lon="2.23645">
        <ele>245</ele>
        <time>2021-02-25T12:59:05.000Z</time>
      </trkpt>
      <trkpt lat="43.97287" lon="2.23646">
        <ele>245</ele>
        <time>2021-02-25T12:59:06.000Z</time>
      </trkpt>
      <trkpt lat="43.97288" lon="2.23646">
        <ele>245</ele>
        <time>2021-02-25T12:59:07.000Z</time>
      </trkpt>
      <trkpt lat="43.9729" lon="2.23647">
        <ele>244</ele>
        <time>2021-02-25T12:59:08.000Z</time>
      </trkpt>
      <trkpt lat="43.97291" lon="2.23647">
        <ele>244</ele>
        <time>2021-02-25T12:59:09.000Z</time>
      </trkpt>
      <trkpt lat="43.97292" lon="2.23648">
        <ele>244</ele>
        <time>2021-02-25T12:59:10.000Z</time>
      </trkpt>
      <trkpt lat="43.97293" lon="2.23649">
        <ele>244</ele>
        <time>2021-02-25T12:59:11.000Z</time>
      </trkpt>
      <trkpt lat="43.97294" lon="2.2365">
        <ele>243</ele>
        <time>2021-02-25T12:59:12.000Z</time>
      </trkpt>
      <trkpt lat="43.97295" lon="2.23651">
        <ele>243</ele>
        <time>2021-02-25T12:59:13.000Z</time>
      </trkpt>
      <trkpt lat="43.97296" lon="2.23652">
        <ele>243</ele>
        <time>2021-02-25T12:59:14.000Z</time>
      </trkpt>
      <trkpt lat="43.97296" lon="2.23653">
        <ele>243</ele>
        <time>2021-02-25T12:59:15.000Z</time>
      </trkpt>
      <trkpt lat="43.97296" lon="2.23654">
        <ele>243</ele>
        <time>2021-02-25T12:59:16.000Z</time>
      </trkpt>
      <trkpt lat="43.97297" lon="2.23656">
        <ele>242</ele>
        <time>2021-02-25T12:59:17.000Z</time>
      </trkpt>
      <trkpt lat="43.97297" lon="2.23657">
        <ele>242</ele>
        <time>2021-02-25T12:59:18.000Z</time>
      </trkpt>
      <trkpt lat="43.97298" lon="2.23658">
        <ele>242</ele>
        <time>2021-02-25T12:59:19.000Z</time>
      </trkpt>
      <trkpt lat="43.97299" lon="2.23659">
        <ele>242</ele>
        <time>2021-02-25T12:59:20.000Z</time>
      </trkpt>
      <trkpt lat="43.973" lon="2.23659">
        <ele>242</ele>
        <time>2021-02-25T12:59:21.000Z</time>
      </trkpt>
      <trkpt lat="43.97301" lon="2.2366">
        <ele>241</ele>
        <time>2021-02-25T12:59:22.000Z</time>
      </trkpt>
      <trkpt lat="43.97302" lon="2.2366">
        <ele>241</ele>
        <time>2021-02-25T12:59:23.000Z</time>
      </trkpt>
      <trkpt lat="43.97304" lon="2.23661">
        <ele>241</ele>
        <time>2021-02-25T12:59:24.000Z</time>
      </trkpt>
      <trkpt lat="43.97305" lon="2.23662">
        <ele>241</ele>
        <time>2021-02-25T12:59:25.000Z</time>
      </trkpt>
      <trkpt lat="43.97306" lon="2.23662">
        <ele>241</ele>
        <time>2021-02-25T12:59:26.000Z</time>
      </trkpt>
      <trkpt lat="43.97307" lon="2.23663">
        <ele>241</ele>
        <time>2021-02-25T12:59:27.000Z</time>
      </trkpt>
      <trkpt lat="43.97308" lon="2.23664">
        <ele>241</ele>
        <time>2021-02-25T12:59:28.000Z</time>
      </trkpt>
      <trkpt lat="43.97309" lon="2.23664">
        <ele>241</ele>
        <time>2021-02-25T12:59:29.000Z</time>
      </trkpt>
      <trkpt lat="43.9731" lon="2.23665">
        <ele>241</ele>
        <time>2021-02-25T12:59:30.000Z</time>
      </trkpt>
      <trkpt lat="43.97311" lon="2.23666">
        <ele>241</ele>
        <time>2021-02-25T12:59:31.000Z</time>
      </trkpt>
      <trkpt lat="43.97312" lon="2.23667">
        <ele>241</ele>
        <time>2021-02-25T12:59:32.000Z</time>
      </trkpt>
      <trkpt lat="43.97313" lon="2.23667">
        <ele>241</ele>
        <time>2021-02-25T12:59:33.000Z</time>
      </trkpt>
      <trkpt lat="43.97313" lon="2.23668">
        <ele>241</ele>
        <time>2021-02-25T12:59:34.000Z</time>
      </trkpt>
      <trkpt lat="43.97314" lon="2.23669">
        <ele>241</ele>
        <time>2021-02-25T12:59:35.000Z</time>
      </trkpt>
      <trkpt lat="43.97315" lon="2.23669">
        <ele>241</ele>
        <time>2021-02-25T12:59:36.000Z</time>
      </trkpt>
      <trkpt lat="43.97316" lon="2.2367">
        <ele>241</ele>
        <time>2021-02-25T12:59:37.000Z</time>
      </trkpt>
      <trkpt lat="43.97317" lon="2.23671">
        <ele>241</ele>
        <time>2021-02-25T12:59:38.000Z</time>
      </trkpt>
      <trkpt lat="43.97318" lon="2.23672">
        <ele>241</ele>
        <time>2021-02-25T12:59:39.000Z</time>
      </trkpt>
      <trkpt lat="43.97319" lon="2.23672">
        <ele>241</ele>
        <time>2021-02-25T12:59:40.000Z</time>
      </trkpt>
      <trkpt lat="43.9732" lon="2.23673">
        <ele>241</ele>
        <time>2021-02-25T12:59:41.000Z</time>
      </trkpt>
      <trkpt lat="43.9732" lon="2.23675">
        <ele>241</ele>
        <time>2021-02-25T12:59:42.000Z</time>
      </trkpt>
      <trkpt lat="43.9732" lon="2.23676">
        <ele>241</ele>
        <time>2021-02-25T12:59:43.000Z</time>
      </trkpt>
      <trkpt lat="43.9732" lon="2.23677">
        <ele>241</ele>
        <time>2021-02-25T12:59:44.000Z</time>
      </trkpt>
      <trkpt lat="43.9732" lon="2.23678">
        <ele>241</ele>
        <time>2021-02-25T12:59:45.000Z</time>
      </trkpt>
      <trkpt lat="43.9732" lon="2.23679">
        <ele>241</ele>
        <time>2021-02-25T12:59:46.000Z</time>
      </trkpt>
      <trkpt lat="43.9732" lon="2.2368">
        <ele>241</ele>
        <time>2021-02-25T12:59:47.000Z</time>
      </trkpt>
      <trkpt lat="43.9732" lon="2.23682">
        <ele>242</ele>
        <time>2021-02-25T12:59:48.000Z</time>
      </trkpt>
      <trkpt lat="43.9732" lon="2.23683">
        <ele>241</ele>
        <time>2021-02-25T12:59:49.000Z</time>
      </trkpt>
      <trkpt lat="43.9732" lon="2.23684">
        <ele>241</ele>
        <time>2021-02-25T12:59:50.000Z</time>
      </trkpt>
      <trkpt lat="43.9732" lon="2.23685">
        <ele>241</ele>
        <time>2021-02-25T12:59:51.000Z</time>
      </trkpt>
      <trkpt lat="43.97321" lon="2.23686">
        <ele>241</ele>
        <time>2021-02-25T12:59:52.000Z</time>
      </trkpt>
      <trkpt lat="43.97321" lon="2.23687">
        <ele>241</ele>
        <time>2021-02-25T12:59:53.000Z</time>
      </trkpt>
      <trkpt lat="43.97321" lon="2.23688">
        <ele>241</ele>
        <time>2021-02-25T12:59:54.000Z</time>
      </trkpt>
      <trkpt lat="43.97322" lon="2.23689">
        <ele>241</ele>
        <time>2021-02-25T12:59:55.000Z</time>
      </trkpt>
      <trkpt lat="43.97322" lon="2.23689">
        <ele>241</ele>
        <time>2021-02-25T12:59:56.000Z</time>
      </trkpt>
      <trkpt lat="43.97323" lon="2.23689">
        <ele>241</ele>
        <time>2021-02-25T12:59:57.000Z</time>
      </trkpt>
      <trkpt lat="43.97323" lon="2.2369">
        <ele>241</ele>
        <time>2021-02-25T12:59:58.000Z</time>
      </trkpt>
      <trkpt lat="43.97324" lon="2.2369">
        <ele>241</ele>
        <time>2021-02-25T12:59:59.000Z</time>
      </trkpt>
      <trkpt lat="43.97325" lon="2.23691">
        <ele>241</ele>
        <time>2021-02-25T13:00:00.000Z</time>
      </trkpt>
      <trkpt lat="43.97326" lon="2.23692">
        <ele>241</ele>
        <time>2021-02-25T13:00:01.000Z</time>
      </trkpt>
      <trkpt lat="43.97327" lon="2.23693">
        <ele>241</ele>
        <time>2021-02-25T13:00:02.000Z</time>
      </trkpt>
      <trkpt lat="43.97327" lon="2.23695">
        <ele>241</ele>
        <time>2021-02-25T13:00:03.000Z</time>
      </trkpt>
      <trkpt lat="43.97328" lon="2.23696">
        <ele>240</ele>
        <time>2021-02-25T13:00:04.000Z</time>
      </trkpt>
      <trkpt lat="43.97328" lon="2.23697">
        <ele>240</ele>
        <time>2021-02-25T13:00:05.000Z</time>
      </trkpt>
      <trkpt lat="43.97329" lon="2.23699">
        <ele>240</ele>
        <time>2021-02-25T13:00:06.000Z</time>
      </trkpt>
      <trkpt lat="43.97329" lon="2.237">
        <ele>240</ele>
        <time>2021-02-25T13:00:07.000Z</time>
      </trkpt>
      <trkpt lat="43.97329" lon="2.23701">
        <ele>241</ele>
        <time>2021-02-25T13:00:08.000Z</time>
      </trkpt>
      <trkpt lat="43.97329" lon="2.23703">
        <ele>241</ele>
        <time>2021-02-25T13:00:09.000Z</time>
      </trkpt>
      <trkpt lat="43.97329" lon="2.23704">
        <ele>241</ele>
        <time>2021-02-25T13:00:10.000Z</time>
      </trkpt>
      <trkpt lat="43.97329" lon="2.23705">
        <ele>241</ele>
        <time>2021-02-25T13:00:11.000Z</time>
      </trkpt>
      <trkpt lat="43.97329" lon="2.23706">
        <ele>241</ele>
        <time>2021-02-25T13:00:12.000Z</time>
      </trkpt>
      <trkpt lat="43.97329" lon="2.23706">
        <ele>241</ele>
        <time>2021-02-25T13:00:13.000Z</time>
      </trkpt>
      <trkpt lat="43.97329" lon="2.23706">
        <ele>241</ele>
        <time>2021-02-25T13:00:14.000Z</time>
      </trkpt>
      <trkpt lat="43.97329" lon="2.23707">
        <ele>241</ele>
        <time>2021-02-25T13:00:15.000Z</time>
      </trkpt>
      <trkpt lat="43.9733" lon="2.23709">
        <ele>241</ele>
        <time>2021-02-25T13:00:16.000Z</time>
      </trkpt>
      <trkpt lat="43.9733" lon="2.23709">
        <ele>241</ele>
        <time>2021-02-25T13:00:17.000Z</time>
      </trkpt>
      <trkpt lat="43.97331" lon="2.2371">
        <ele>241</ele>
        <time>2021-02-25T13:00:18.000Z</time>
      </trkpt>
      <trkpt lat="43.97332" lon="2.2371">
        <ele>241</ele>
        <time>2021-02-25T13:00:19.000Z</time>
      </trkpt>
      <trkpt lat="43.97332" lon="2.23711">
        <ele>241</ele>
        <time>2021-02-25T13:00:20.000Z</time>
      </trkpt>
      <trkpt lat="43.97333" lon="2.23711">
        <ele>241</ele>
        <time>2021-02-25T13:00:21.000Z</time>
      </trkpt>
      <trkpt lat="43.97333" lon="2.23711">
        <ele>241</ele>
        <time>2021-02-25T13:00:22.000Z</time>
      </trkpt>
      <trkpt lat="43.97333" lon="2.23712">
        <ele>241</ele>
        <time>2021-02-25T13:00:23.000Z</time>
      </trkpt>
      <trkpt lat="43.97334" lon="2.23712">
        <ele>241</ele>
        <time>2021-02-25T13:00:24.000Z</time>
      </trkpt>
      <trkpt lat="43.97334" lon="2.23712">
        <ele>241</ele>
        <time>2021-02-25T13:00:25.000Z</time>
      </trkpt>
      <trkpt lat="43.97335" lon="2.23713">
        <ele>241</ele>
        <time>2021-02-25T13:00:26.000Z</time>
      </trkpt>
      <trkpt lat="43.97336" lon="2.23714">
        <ele>241</ele>
        <time>2021-02-25T13:00:27.000Z</time>
      </trkpt>
      <trkpt lat="43.97336" lon="2.23714">
        <ele>241</ele>
        <time>2021-02-25T13:00:28.000Z</time>
      </trkpt>
      <trkpt lat="43.97337" lon="2.23715">
        <ele>241</ele>
        <time>2021-02-25T13:00:29.000Z</time>
      </trkpt>
      <trkpt lat="43.97338" lon="2.23716">
        <ele>241</ele>
        <time>2021-02-25T13:00:30.000Z</time>
      </trkpt>
      <trkpt lat="43.97338" lon="2.23717">
        <ele>241</ele>
        <time>2021-02-25T13:00:31.000Z</time>
      </trkpt>
      <trkpt lat="43.97339" lon="2.23717">
        <ele>241</ele>
        <time>2021-02-25T13:00:32.000Z</time>
      </trkpt>
      <trkpt lat="43.9734" lon="2.23718">
        <ele>241</ele>
        <time>2021-02-25T13:00:33.000Z</time>
      </trkpt>
      <trkpt lat="43.97341" lon="2.23719">
        <ele>241</ele>
        <time>2021-02-25T13:00:34.000Z</time>
      </trkpt>
      <trkpt lat="43.97342" lon="2.2372">
        <ele>241</ele>
        <time>2021-02-25T13:00:35.000Z</time>
      </trkpt>
      <trkpt lat="43.97343" lon="2.23721">
        <ele>241</ele>
        <time>2021-02-25T13:00:36.000Z</time>
      </trkpt>
      <trkpt lat="43.97343" lon="2.23722">
        <ele>241</ele>
        <time>2021-02-25T13:00:37.000Z</time>
      </trkpt>
      <trkpt lat="43.97344" lon="2.23723">
        <ele>241</ele>
        <time>2021-02-25T13:00:38.000Z</time>
      </trkpt>
      <trkpt lat="43.97344" lon="2.23724">
        <ele>241</ele>
        <time>2021-02-25T13:00:39.000Z</time>
      </trkpt>
      <trkpt lat="43.97345" lon="2.23725">
        <ele>242</ele>
        <time>2021-02-25T13:04:33.823Z</time>
      </trkpt>
      <trkpt lat="43.97345" lon="2.23725">
        <ele>242</ele>
        <time>2021-02-25T13:04:34.823Z</time>
      </trkpt>
      <trkpt lat="43.97346" lon="2.23726">
        <ele>242</ele>
        <time>2021-02-25T13:04:35.823Z</time>
      </trkpt>
      <trkpt lat="43.97347" lon="2.23727">
        <ele>242</ele>
        <time>2021-02-25T13:04:36.823Z</time>
      </trkpt>
      <trkpt lat="43.97347" lon="2.23728">
        <ele>242</ele>
        <time>2021-02-25T13:04:37.823Z</time>
      </trkpt>
      <trkpt lat="43.97348" lon="2.23729">
        <ele>242</ele>
        <time>2021-02-25T13:04:38.823Z</time>
      </trkpt>
      <trkpt lat="43.97348" lon="2.2373">
        <ele>242</ele>
        <time>2021-02-25T13:04:39.823Z</time>
      </trkpt>
      <trkpt lat="43.97349" lon="2.23731">
        <ele>242</ele>
        <time>2021-02-25T13:04:40.823Z</time>
      </trkpt>
      <trkpt lat="43.97349" lon="2.23732">
        <ele>242</ele>
        <time>2021-02-25T13:04:41.823Z</time>
      </trkpt>
      <trkpt lat="43.97349" lon="2.23733">
        <ele>242</ele>
        <time>2021-02-25T13:04:42.823Z</time>
      </trkpt>
      <trkpt lat="43.9735" lon="2.23733">
        <ele>242</ele>
        <time>2021-02-25T13:04:43.823Z</time>
      </trkpt>
      <trkpt lat="43.9735" lon="2.23734">
        <ele>243</ele>
        <time>2021-02-25T13:04:44.823Z</time>
      </trkpt>
      <trkpt lat="43.9735" lon="2.23735">
        <ele>243</ele>
        <time>2021-02-25T13:04:45.823Z</time>
      </trkpt>
      <trkpt lat="43.97351" lon="2.23736">
        <ele>243</ele>
        <time>2021-02-25T13:04:46.823Z</time>
      </trkpt>
      <trkpt lat="43.97351" lon="2.23736">
        <ele>243</ele>
        <time>2021-02-25T13:04:47.823Z</time>
      </trkpt>
      <trkpt lat="43.97352" lon="2.23737">
        <ele>243</ele>
        <time>2021-02-25T13:04:48.823Z</time>
      </trkpt>
      <trkpt lat="43.97352" lon="2.23737">
        <ele>243</ele>
        <time>2021-02-25T13:04:49.823Z</time>
      </trkpt>
      <trkpt lat="43.97352" lon="2.23738">
        <ele>243</ele>
        <time>2021-02-25T13:04:50.823Z</time>
      </trkpt>
      <trkpt lat="43.97352" lon="2.23739">
        <ele>243</ele>
        <time>2021-02-25T13:04:51.823Z</time>
      </trkpt>
      <trkpt lat="43.97353" lon="2.2374">
        <ele>243</ele>
        <time>2021-02-25T13:04:52.823Z</time>
      </trkpt>
      <trkpt lat="43.97353" lon="2.2374">
        <ele>243</ele>
        <time>2021-02-25T13:04:53.823Z</time>
      </trkpt>
      <trkpt lat="43.97353" lon="2.23741">
        <ele>243</ele>
        <time>2021-02-25T13:04:54.823Z</time>
      </trkpt>
      <trkpt lat="43.97353" lon="2.23742">
        <ele>243</ele>
        <time>2021-02-25T13:04:55.823Z</time>
      </trkpt>
      <trkpt lat="43.97354" lon="2.23743">
        <ele>243</ele>
        <time>2021-02-25T13:04:56.823Z</time>
      </trkpt>
      <trkpt lat="43.97354" lon="2.23743">
        <ele>243</ele>
        <time>2021-02-25T13:04:57.823Z</time>
      </trkpt>
      <trkpt lat="43.97354" lon="2.23743">
        <ele>243</ele>
        <time>2021-02-25T13:04:58.823Z</time>
      </trkpt>
      <trkpt lat="43.97354" lon="2.23743">
        <ele>243</ele>
        <time>2021-02-25T13:04:59.823Z</time>
      </trkpt>
      <trkpt lat="43.97354" lon="2.23743">
        <ele>243</ele>
        <time>2021-02-25T13:05:00.823Z</time>
      </trkpt>
      <trkpt lat="43.97355" lon="2.23745">
        <ele>243</ele>
        <time>2021-02-25T13:05:01.823Z</time>
      </trkpt>
      <trkpt lat="43.97355" lon="2.23745">
        <ele>243</ele>
        <time>2021-02-25T13:05:02.823Z</time>
      </trkpt>
      <trkpt lat="43.97355" lon="2.23745">
        <ele>243</ele>
        <time>2021-02-25T13:05:03.823Z</time>
      </trkpt>
      <trkpt lat="43.97355" lon="2.23745">
        <ele>243</ele>
        <time>2021-02-25T13:05:04.823Z</time>
      </trkpt>
      <trkpt lat="43.97355" lon="2.23745">
        <ele>243</ele>
        <time>2021-02-25T13:05:05.823Z</time>
      </trkpt>
      <trkpt lat="43.97357" lon="2.23747">
        <ele>244</ele>
        <time>2021-02-25T13:05:06.823Z</time>
      </trkpt>
      <trkpt lat="43.97357" lon="2.23748">
        <ele>244</ele>
        <time>2021-02-25T13:05:07.823Z</time>
      </trkpt>
      <trkpt lat="43.97358" lon="2.23748">
        <ele>244</ele>
        <time>2021-02-25T13:05:08.823Z</time>
      </trkpt>
      <trkpt lat="43.97358" lon="2.23749">
        <ele>244</ele>
        <time>2021-02-25T13:05:09.823Z</time>
      </trkpt>
      <trkpt lat="43.97359" lon="2.23749">
        <ele>244</ele>
        <time>2021-02-25T13:05:10.823Z</time>
      </trkpt>
      <trkpt lat="43.97359" lon="2.2375">
        <ele>244</ele>
        <time>2021-02-25T13:05:11.823Z</time>
      </trkpt>
      <trkpt lat="43.9736" lon="2.2375">
        <ele>244</ele>
        <time>2021-02-25T13:05:12.823Z</time>
      </trkpt>
      <trkpt lat="43.9736" lon="2.2375">
        <ele>244</ele>
        <time>2021-02-25T13:05:13.823Z</time>
      </trkpt>
      <trkpt lat="43.97361" lon="2.2375">
        <ele>244</ele>
        <time>2021-02-25T13:05:14.823Z</time>
      </trkpt>
      <trkpt lat="43.97361" lon="2.2375">
        <ele>244</ele>
        <time>2021-02-25T13:05:15.823Z</time>
      </trkpt>
      <trkpt lat="43.97362" lon="2.2375">
        <ele>244</ele>
        <time>2021-02-25T13:05:16.823Z</time>
      </trkpt>
      <trkpt lat="43.97362" lon="2.2375">
        <ele>244</ele>
        <time>2021-02-25T13:05:17.823Z</time>
      </trkpt>
      <trkpt lat="43.97363" lon="2.23751">
        <ele>244</ele>
        <time>2021-02-25T13:05:18.823Z</time>
      </trkpt>
      <trkpt lat="43.97364" lon="2.23751">
        <ele>244</ele>
        <time>2021-02-25T13:05:19.823Z</time>
      </trkpt>
      <trkpt lat="43.97365" lon="2.23751">
        <ele>244</ele>
        <time>2021-02-25T13:05:20.823Z</time>
      </trkpt>
      <trkpt lat="43.97366" lon="2.23751">
        <ele>244</ele>
        <time>2021-02-25T13:05:21.823Z</time>
      </trkpt>
      <trkpt lat="43.97366" lon="2.23752">
        <ele>244</ele>
        <time>2021-02-25T13:05:22.823Z</time>
      </trkpt>
      <trkpt lat="43.97367" lon="2.23752">
        <ele>244</ele>
        <time>2021-02-25T13:05:23.823Z</time>
      </trkpt>
      <trkpt lat="43.97368" lon="2.23753">
        <ele>244</ele>
        <time>2021-02-25T13:05:24.823Z</time>
      </trkpt>
      <trkpt lat="43.97369" lon="2.23753">
        <ele>244</ele>
        <time>2021-02-25T13:05:25.823Z</time>
      </trkpt>
      <trkpt lat="43.97369" lon="2.23753">
        <ele>244</ele>
        <time>2021-02-25T13:05:26.823Z</time>
      </trkpt>
      <trkpt lat="43.9737" lon="2.23754">
        <ele>244</ele>
        <time>2021-02-25T13:05:27.823Z</time>
      </trkpt>
      <trkpt lat="43.97371" lon="2.23754">
        <ele>244</ele>
        <time>2021-02-25T13:05:28.823Z</time>
      </trkpt>
      <trkpt lat="43.97372" lon="2.23754">
        <ele>244</ele>
        <time>2021-02-25T13:05:29.823Z</time>
      </trkpt>
      <trkpt lat="43.97373" lon="2.23755">
        <ele>244</ele>
        <time>2021-02-25T13:05:30.823Z</time>
      </trkpt>
      <trkpt lat="43.97373" lon="2.23755">
        <ele>244</ele>
        <time>2021-02-25T13:05:31.823Z</time>
      </trkpt>
      <trkpt lat="43.97374" lon="2.23755">
        <ele>244</ele>
        <time>2021-02-25T13:05:32.823Z</time>
      </trkpt>
      <trkpt lat="43.97375" lon="2.23756">
        <ele>244</ele>
        <time>2021-02-25T13:05:33.823Z</time>
      </trkpt>
      <trkpt lat="43.97375" lon="2.23756">
        <ele>244</ele>
        <time>2021-02-25T13:05:34.823Z</time>
      </trkpt>
      <trkpt lat="43.97376" lon="2.23756">
        <ele>244</ele>
        <time>2021-02-25T13:05:35.823Z</time>
      </trkpt>
      <trkpt lat="43.97377" lon="2.23756">
        <ele>244</ele>
        <time>2021-02-25T13:05:36.823Z</time>
      </trkpt>
      <trkpt lat="43.97378" lon="2.23756">
        <ele>244</ele>
        <time>2021-02-25T13:05:37.823Z</time>
      </trkpt>
      <trkpt lat="43.97379" lon="2.23756">
        <ele>244</ele>
        <time>2021-02-25T13:05:38.823Z</time>
      </trkpt>
      <trkpt lat="43.9738" lon="2.23756">
        <ele>244</ele>
        <time>2021-02-25T13:05:39.823Z</time>
      </trkpt>
      <trkpt lat="43.97381" lon="2.23756">
        <ele>244</ele>
        <time>2021-02-25T13:05:40.823Z</time>
      </trkpt>
      <trkpt lat="43.97381" lon="2.23756">
        <ele>244</ele>
        <time>2021-02-25T13:05:41.823Z</time>
      </trkpt>
      <trkpt lat="43.97381" lon="2.23756">
        <ele>244</ele>
        <time>2021-02-25T13:05:42.823Z</time>
      </trkpt>
      <trkpt lat="43.97381" lon="2.23756">
        <ele>244</ele>
        <time>2021-02-25T13:05:43.823Z</time>
      </trkpt>
      <trkpt lat="43.97381" lon="2.23756">
        <ele>244</ele>
        <time>2021-02-25T13:05:44.823Z</time>
      </trkpt>
      <trkpt lat="43.97382" lon="2.23756">
        <ele>245</ele>
        <time>2021-02-25T13:05:45.823Z</time>
      </trkpt>
      <trkpt lat="43.97382" lon="2.23755">
        <ele>245</ele>
        <time>2021-02-25T13:05:46.823Z</time>
      </trkpt>
      <trkpt lat="43.97383" lon="2.23755">
        <ele>245</ele>
        <time>2021-02-25T13:05:47.823Z</time>
      </trkpt>
      <trkpt lat="43.97384" lon="2.23755">
        <ele>245</ele>
        <time>2021-02-25T13:05:48.823Z</time>
      </trkpt>
      <trkpt lat="43.97385" lon="2.23755">
        <ele>245</ele>
        <time>2021-02-25T13:05:49.823Z</time>
      </trkpt>
      <trkpt lat="43.97386" lon="2.23754">
        <ele>245</ele>
        <time>2021-02-25T13:05:50.823Z</time>
      </trkpt>
      <trkpt lat="43.97387" lon="2.23754">
        <ele>245</ele>
        <time>2021-02-25T13:05:51.823Z</time>
      </trkpt>
      <trkpt lat="43.97388" lon="2.23753">
        <ele>245</ele>
        <time>2021-02-25T13:05:52.823Z</time>
      </trkpt>
      <trkpt lat="43.97389" lon="2.23753">
        <ele>245</ele>
        <time>2021-02-25T13:05:53.823Z</time>
      </trkpt>
      <trkpt lat="43.9739" lon="2.23753">
        <ele>245</ele>
        <time>2021-02-25T13:05:54.823Z</time>
      </trkpt>
      <trkpt lat="43.97391" lon="2.23752">
        <ele>245</ele>
        <time>2021-02-25T13:05:55.823Z</time>
      </trkpt>
      <trkpt lat="43.97392" lon="2.23751">
        <ele>245</ele>
        <time>2021-02-25T13:06:17.835Z</time>
      </trkpt>
      <trkpt lat="43.97393" lon="2.23751">
        <ele>245</ele>
        <time>2021-02-25T13:06:18.835Z</time>
      </trkpt>
      <trkpt lat="43.97394" lon="2.2375">
        <ele>245</ele>
        <time>2021-02-25T13:06:19.835Z</time>
      </trkpt>
      <trkpt lat="43.97395" lon="2.23749">
        <ele>245</ele>
        <time>2021-02-25T13:06:20.835Z</time>
      </trkpt>
      <trkpt lat="43.97396" lon="2.23749">
        <ele>245</ele>
        <time>2021-02-25T13:06:21.835Z</time>
      </trkpt>
      <trkpt lat="43.97397" lon="2.23748">
        <ele>245</ele>
        <time>2021-02-25T13:06:22.835Z</time>
      </trkpt>
      <trkpt lat="43.97398" lon="2.23748">
        <ele>245</ele>
        <time>2021-02-25T13:06:23.835Z</time>
      </trkpt>
      <trkpt lat="43.97399" lon="2.23747">
        <ele>244</ele>
        <time>2021-02-25T13:06:24.835Z</time>
      </trkpt>
      <trkpt lat="43.974" lon="2.23746">
        <ele>244</ele>
        <time>2021-02-25T13:06:35.846Z</time>
      </trkpt>
      <trkpt lat="43.97401" lon="2.23745">
        <ele>244</ele>
        <time>2021-02-25T13:06:36.846Z</time>
      </trkpt>
      <trkpt lat="43.97402" lon="2.23745">
        <ele>244</ele>
        <time>2021-02-25T13:06:37.846Z</time>
      </trkpt>
      <trkpt lat="43.97402" lon="2.23744">
        <ele>244</ele>
        <time>2021-02-25T13:06:38.846Z</time>
      </trkpt>
      <trkpt lat="43.97403" lon="2.23743">
        <ele>244</ele>
        <time>2021-02-25T13:06:39.846Z</time>
      </trkpt>
      <trkpt lat="43.97404" lon="2.23742">
        <ele>244</ele>
        <time>2021-02-25T13:06:40.846Z</time>
      </trkpt>
      <trkpt lat="43.97405" lon="2.23741">
        <ele>244</ele>
        <time>2021-02-25T13:06:41.846Z</time>
      </trkpt>
      <trkpt lat="43.97406" lon="2.2374">
        <ele>244</ele>
        <time>2021-02-25T13:06:42.846Z</time>
      </trkpt>
      <trkpt lat="43.97407" lon="2.2374">
        <ele>244</ele>
        <time>2021-02-25T13:06:46.090Z</time>
      </trkpt>
      <trkpt lat="43.97408" lon="2.23739">
        <ele>244</ele>
        <time>2021-02-25T13:06:47.090Z</time>
      </trkpt>
      <trkpt lat="43.97409" lon="2.23739">
        <ele>244</ele>
        <time>2021-02-25T13:06:48.090Z</time>
      </trkpt>
      <trkpt lat="43.9741" lon="2.23739">
        <ele>244</ele>
        <time>2021-02-25T13:06:49.090Z</time>
      </trkpt>
      <trkpt lat="43.97411" lon="2.23739">
        <ele>244</ele>
        <time>2021-02-25T13:06:50.090Z</time>
      </trkpt>
      <trkpt lat="43.97412" lon="2.23739">
        <ele>244</ele>
        <time>2021-02-25T13:06:51.090Z</time>
      </trkpt>
      <trkpt lat="43.97413" lon="2.2374">
        <ele>244</ele>
        <time>2021-02-25T13:06:52.090Z</time>
      </trkpt>
      <trkpt lat="43.97414" lon="2.2374">
        <ele>244</ele>
        <time>2021-02-25T13:06:53.090Z</time>
      </trkpt>
      <trkpt lat="43.97415" lon="2.2374">
        <ele>244</ele>
        <time>2021-02-25T13:06:54.090Z</time>
      </trkpt>
      <trkpt lat="43.97416" lon="2.2374">
        <ele>244</ele>
        <time>2021-02-25T13:06:55.090Z</time>
      </trkpt>
      <trkpt lat="43.97417" lon="2.2374">
        <ele>244</ele>
        <time>2021-02-25T13:06:56.090Z</time>
      </trkpt>
      <trkpt lat="43.97418" lon="2.2374">
        <ele>244</ele>
        <time>2021-02-25T13:06:57.090Z</time>
      </trkpt>
      <trkpt lat="43.97419" lon="2.23739">
        <ele>244</ele>
        <time>2021-02-25T13:07:21.099Z</time>
      </trkpt>
      <trkpt lat="43.97419" lon="2.23739">
        <ele>244</ele>
        <time>2021-02-25T13:07:22.099Z</time>
      </trkpt>
      <trkpt lat="43.9742" lon="2.23739">
        <ele>244</ele>
        <time>2021-02-25T13:07:23.099Z</time>
      </trkpt>
      <trkpt lat="43.97421" lon="2.23738">
        <ele>244</ele>
        <time>2021-02-25T13:07:24.099Z</time>
      </trkpt>
      <trkpt lat="43.97422" lon="2.23738">
        <ele>244</ele>
        <time>2021-02-25T13:07:25.099Z</time>
      </trkpt>
      <trkpt lat="43.97422" lon="2.23737">
        <ele>244</ele>
        <time>2021-02-25T13:07:26.099Z</time>
      </trkpt>
      <trkpt lat="43.97423" lon="2.23737">
        <ele>244</ele>
        <time>2021-02-25T13:07:27.099Z</time>
      </trkpt>
      <trkpt lat="43.97424" lon="2.23737">
        <ele>244</ele>
        <time>2021-02-25T13:07:28.099Z</time>
      </trkpt>
      <trkpt lat="43.97425" lon="2.23737">
        <ele>244</ele>
        <time>2021-02-25T13:07:29.099Z</time>
      </trkpt>
      <trkpt lat="43.97426" lon="2.23738">
        <ele>244</ele>
        <time>2021-02-25T13:07:30.099Z</time>
      </trkpt>
      <trkpt lat="43.97427" lon="2.23738">
        <ele>244</ele>
        <time>2021-02-25T13:07:31.099Z</time>
      </trkpt>
      <trkpt lat="43.97428" lon="2.23738">
        <ele>244</ele>
        <time>2021-02-25T13:07:32.099Z</time>
      </trkpt>
      <trkpt lat="43.97429" lon="2.23739">
        <ele>244</ele>
        <time>2021-02-25T13:07:33.099Z</time>
      </trkpt>
      <trkpt lat="43.9743" lon="2.23739">
        <ele>244</ele>
        <time>2021-02-25T13:07:45.109Z</time>
      </trkpt>
      <trkpt lat="43.97431" lon="2.2374">
        <ele>245</ele>
        <time>2021-02-25T13:07:46.109Z</time>
      </trkpt>
      <trkpt lat="43.97431" lon="2.2374">
        <ele>245</ele>
        <time>2021-02-25T13:07:47.109Z</time>
      </trkpt>
      <trkpt lat="43.97432" lon="2.23741">
        <ele>245</ele>
        <time>2021-02-25T13:07:48.109Z</time>
      </trkpt>
      <trkpt lat="43.97434" lon="2.23742">
        <ele>245</ele>
        <time>2021-02-25T13:07:49.109Z</time>
      </trkpt>
      <trkpt lat="43.97435" lon="2.23743">
        <ele>245</ele>
        <time>2021-02-25T13:07:52.351Z</time>
      </trkpt>
      <trkpt lat="43.97436" lon="2.23744">
        <ele>245</ele>
        <time>2021-02-25T13:07:53.351Z</time>
      </trkpt>
      <trkpt lat="43.97437" lon="2.23746">
        <ele>245</ele>
        <time>2021-02-25T13:07:54.351Z</time>
      </trkpt>
      <trkpt lat="43.97438" lon="2.23747">
        <ele>246</ele>
        <time>2021-02-25T13:07:55.351Z</time>
      </trkpt>
      <trkpt lat="43.97438" lon="2.23748">
        <ele>246</ele>
        <time>2021-02-25T13:08:05.355Z</time>
      </trkpt>
      <trkpt lat="43.97439" lon="2.23748">
        <ele>246</ele>
        <time>2021-02-25T13:08:06.355Z</time>
      </trkpt>
      <trkpt lat="43.9744" lon="2.23749">
        <ele>246</ele>
        <time>2021-02-25T13:08:07.355Z</time>
      </trkpt>
      <trkpt lat="43.97441" lon="2.2375">
        <ele>246</ele>
        <time>2021-02-25T13:08:08.355Z</time>
      </trkpt>
      <trkpt lat="43.97442" lon="2.2375">
        <ele>246</ele>
        <time>2021-02-25T13:08:09.355Z</time>
      </trkpt>
      <trkpt lat="43.97443" lon="2.23751">
        <ele>247</ele>
        <time>2021-02-25T13:08:10.355Z</time>
      </trkpt>
      <trkpt lat="43.97444" lon="2.23751">
        <ele>247</ele>
        <time>2021-02-25T13:08:11.355Z</time>
      </trkpt>
      <trkpt lat="43.97444" lon="2.2375">
        <ele>247</ele>
        <time>2021-02-25T13:08:12.355Z</time>
      </trkpt>
      <trkpt lat="43.97445" lon="2.2375">
        <ele>247</ele>
        <time>2021-02-25T13:08:13.355Z</time>
      </trkpt>
      <trkpt lat="43.97446" lon="2.2375">
        <ele>247</ele>
        <time>2021-02-25T13:08:14.355Z</time>
      </trkpt>
      <trkpt lat="43.97447" lon="2.23749">
        <ele>247</ele>
        <time>2021-02-25T13:08:15.355Z</time>
      </trkpt>
      <trkpt lat="43.97447" lon="2.23749">
        <ele>247</ele>
        <time>2021-02-25T13:08:16.355Z</time>
      </trkpt>
      <trkpt lat="43.97448" lon="2.2375">
        <ele>248</ele>
        <time>2021-02-25T13:08:17.355Z</time>
      </trkpt>
      <trkpt lat="43.97449" lon="2.23751">
        <ele>248</ele>
        <time>2021-02-25T13:08:18.355Z</time>
      </trkpt>
      <trkpt lat="43.97449" lon="2.23751">
        <ele>248</ele>
        <time>2021-02-25T13:08:19.355Z</time>
      </trkpt>
      <trkpt lat="43.9745" lon="2.23752">
        <ele>248</ele>
        <time>2021-02-25T13:08:20.355Z</time>
      </trkpt>
      <trkpt lat="43.97451" lon="2.23753">
        <ele>248</ele>
        <time>2021-02-25T13:08:21.355Z</time>
      </trkpt>
      <trkpt lat="43.97453" lon="2.23754">
        <ele>248</ele>
        <time>2021-02-25T13:08:22.355Z</time>
      </trkpt>
      <trkpt lat="43.97454" lon="2.23754">
        <ele>249</ele>
        <time>2021-02-25T13:08:23.355Z</time>
      </trkpt>
      <trkpt lat="43.97455" lon="2.23755">
        <ele>249</ele>
        <time>2021-02-25T13:08:24.355Z</time>
      </trkpt>
      <trkpt lat="43.97456" lon="2.23755">
        <ele>249</ele>
        <time>2021-02-25T13:08:25.355Z</time>
      </trkpt>
      <trkpt lat="43.97456" lon="2.23755">
        <ele>249</ele>
        <time>2021-02-25T13:08:26.355Z</time>
      </trkpt>
      <trkpt lat="43.97457" lon="2.23756">
        <ele>249</ele>
        <time>2021-02-25T13:08:27.355Z</time>
      </trkpt>
      <trkpt lat="43.97457" lon="2.23756">
        <ele>250</ele>
        <time>2021-02-25T13:08:28.355Z</time>
      </trkpt>
      <trkpt lat="43.97458" lon="2.23756">
        <ele>250</ele>
        <time>2021-02-25T13:08:29.355Z</time>
      </trkpt>
      <trkpt lat="43.97459" lon="2.23757">
        <ele>250</ele>
        <time>2021-02-25T13:08:30.355Z</time>
      </trkpt>
      <trkpt lat="43.9746" lon="2.23757">
        <ele>250</ele>
        <time>2021-02-25T13:08:31.355Z</time>
      </trkpt>
      <trkpt lat="43.97461" lon="2.23758">
        <ele>250</ele>
        <time>2021-02-25T13:08:32.355Z</time>
      </trkpt>
      <trkpt lat="43.97462" lon="2.23758">
        <ele>250</ele>
        <time>2021-02-25T13:08:33.355Z</time>
      </trkpt>
      <trkpt lat="43.97463" lon="2.23759">
        <ele>250</ele>
        <time>2021-02-25T13:08:34.355Z</time>
      </trkpt>
      <trkpt lat="43.97464" lon="2.23759">
        <ele>251</ele>
        <time>2021-02-25T13:08:35.355Z</time>
      </trkpt>
      <trkpt lat="43.97465" lon="2.2376">
        <ele>251</ele>
        <time>2021-02-25T13:08:36.355Z</time>
      </trkpt>
      <trkpt lat="43.97466" lon="2.2376">
        <ele>251</ele>
        <time>2021-02-25T13:08:37.355Z</time>
      </trkpt>
      <trkpt lat="43.97467" lon="2.23761">
        <ele>251</ele>
        <time>2021-02-25T13:08:38.355Z</time>
      </trkpt>
      <trkpt lat="43.97468" lon="2.23761">
        <ele>251</ele>
        <time>2021-02-25T13:08:39.355Z</time>
      </trkpt>
      <trkpt lat="43.9747" lon="2.23762">
        <ele>251</ele>
        <time>2021-02-25T13:08:40.355Z</time>
      </trkpt>
      <trkpt lat="43.97471" lon="2.23762">
        <ele>251</ele>
        <time>2021-02-25T13:08:41.355Z</time>
      </trkpt>
      <trkpt lat="43.97473" lon="2.23763">
        <ele>252</ele>
        <time>2021-02-25T13:08:42.355Z</time>
      </trkpt>
      <trkpt lat="43.97474" lon="2.23763">
        <ele>252</ele>
        <time>2021-02-25T13:08:43.355Z</time>
      </trkpt>
      <trkpt lat="43.97474" lon="2.23764">
        <ele>252</ele>
        <time>2021-02-25T13:08:44.355Z</time>
      </trkpt>
      <trkpt lat="43.97475" lon="2.23765">
        <ele>252</ele>
        <time>2021-02-25T13:08:45.355Z</time>
      </trkpt>
      <trkpt lat="43.97476" lon="2.23766">
        <ele>252</ele>
        <time>2021-02-25T13:08:46.355Z</time>
      </trkpt>
      <trkpt lat="43.97476" lon="2.23767">
        <ele>252</ele>
        <time>2021-02-25T13:08:47.355Z</time>
      </trkpt>
      <trkpt lat="43.97477" lon="2.23767">
        <ele>253</ele>
        <time>2021-02-25T13:08:48.355Z</time>
      </trkpt>
      <trkpt lat="43.97477" lon="2.23768">
        <ele>253</ele>
        <time>2021-02-25T13:08:49.355Z</time>
      </trkpt>
      <trkpt lat="43.97478" lon="2.23768">
        <ele>253</ele>
        <time>2021-02-25T13:08:50.355Z</time>
      </trkpt>
      <trkpt lat="43.97479" lon="2.23769">
        <ele>253</ele>
        <time>2021-02-25T13:08:51.355Z</time>
      </trkpt>
      <trkpt lat="43.97479" lon="2.23769">
        <ele>253</ele>
        <time>2021-02-25T13:08:52.355Z</time>
      </trkpt>
      <trkpt lat="43.9748" lon="2.23769">
        <ele>254</ele>
        <time>2021-02-25T13:08:53.355Z</time>
      </trkpt>
      <trkpt lat="43.97481" lon="2.2377">
        <ele>254</ele>
        <time>2021-02-25T13:08:54.355Z</time>
      </trkpt>
      <trkpt lat="43.97481" lon="2.2377">
        <ele>254</ele>
        <time>2021-02-25T13:08:55.355Z</time>
      </trkpt>
      <trkpt lat="43.97482" lon="2.23771">
        <ele>254</ele>
        <time>2021-02-25T13:08:56.355Z</time>
      </trkpt>
      <trkpt lat="43.97482" lon="2.23772">
        <ele>255</ele>
        <time>2021-02-25T13:08:57.355Z</time>
      </trkpt>
      <trkpt lat="43.97483" lon="2.23773">
        <ele>255</ele>
        <time>2021-02-25T13:08:58.355Z</time>
      </trkpt>
      <trkpt lat="43.97484" lon="2.23774">
        <ele>255</ele>
        <time>2021-02-25T13:08:59.355Z</time>
      </trkpt>
      <trkpt lat="43.97484" lon="2.23774">
        <ele>255</ele>
        <time>2021-02-25T13:09:00.355Z</time>
      </trkpt>
      <trkpt lat="43.97485" lon="2.23775">
        <ele>256</ele>
        <time>2021-02-25T13:09:01.355Z</time>
      </trkpt>
      <trkpt lat="43.97486" lon="2.23776">
        <ele>256</ele>
        <time>2021-02-25T13:09:02.355Z</time>
      </trkpt>
      <trkpt lat="43.97487" lon="2.23777">
        <ele>256</ele>
        <time>2021-02-25T13:09:03.355Z</time>
      </trkpt>
      <trkpt lat="43.97487" lon="2.23777">
        <ele>256</ele>
        <time>2021-02-25T13:09:04.355Z</time>
      </trkpt>
      <trkpt lat="43.97488" lon="2.23778">
        <ele>256</ele>
        <time>2021-02-25T13:09:05.355Z</time>
      </trkpt>
      <trkpt lat="43.97489" lon="2.23778">
        <ele>257</ele>
        <time>2021-02-25T13:09:06.355Z</time>
      </trkpt>
      <trkpt lat="43.97489" lon="2.23779">
        <ele>257</ele>
        <time>2021-02-25T13:09:07.355Z</time>
      </trkpt>
      <trkpt lat="43.9749" lon="2.23779">
        <ele>257</ele>
        <time>2021-02-25T13:09:08.355Z</time>
      </trkpt>
      <trkpt lat="43.9749" lon="2.23778">
        <ele>257</ele>
        <time>2021-02-25T13:09:09.355Z</time>
      </trkpt>
      <trkpt lat="43.97491" lon="2.23778">
        <ele>257</ele>
        <time>2021-02-25T13:09:10.355Z</time>
      </trkpt>
      <trkpt lat="43.97491" lon="2.23777">
        <ele>257</ele>
        <time>2021-02-25T13:09:11.355Z</time>
      </trkpt>
      <trkpt lat="43.97492" lon="2.23777">
        <ele>257</ele>
        <time>2021-02-25T13:09:12.355Z</time>
      </trkpt>
      <trkpt lat="43.97493" lon="2.23777">
        <ele>256</ele>
        <time>2021-02-25T13:09:13.355Z</time>
      </trkpt>
      <trkpt lat="43.97494" lon="2.23777">
        <ele>256</ele>
        <time>2021-02-25T13:09:14.355Z</time>
      </trkpt>
      <trkpt lat="43.97494" lon="2.23776">
        <ele>256</ele>
        <time>2021-02-25T13:09:15.355Z</time>
      </trkpt>
      <trkpt lat="43.97495" lon="2.23776">
        <ele>256</ele>
        <time>2021-02-25T13:09:16.355Z</time>
      </trkpt>
      <trkpt lat="43.97495" lon="2.23775">
        <ele>256</ele>
        <time>2021-02-25T13:09:17.355Z</time>
      </trkpt>
      <trkpt lat="43.97496" lon="2.23774">
        <ele>256</ele>
        <time>2021-02-25T13:09:18.355Z</time>
      </trkpt>
      <trkpt lat="43.97496" lon="2.23774">
        <ele>256</ele>
        <time>2021-02-25T13:09:19.355Z</time>
      </trkpt>
      <trkpt lat="43.97497" lon="2.23773">
        <ele>255</ele>
        <time>2021-02-25T13:09:20.355Z</time>
      </trkpt>
      <trkpt lat="43.97498" lon="2.23773">
        <ele>255</ele>
        <time>2021-02-25T13:09:21.355Z</time>
      </trkpt>
      <trkpt lat="43.97498" lon="2.23774">
        <ele>255</ele>
        <time>2021-02-25T13:09:22.355Z</time>
      </trkpt>
      <trkpt lat="43.97499" lon="2.23774">
        <ele>255</ele>
        <time>2021-02-25T13:09:23.355Z</time>
      </trkpt>
      <trkpt lat="43.97499" lon="2.23775">
        <ele>255</ele>
        <time>2021-02-25T13:09:24.355Z</time>
      </trkpt>
      <trkpt lat="43.975" lon="2.23776">
        <ele>255</ele>
        <time>2021-02-25T13:09:25.355Z</time>
      </trkpt>
      <trkpt lat="43.97501" lon="2.23776">
        <ele>255</ele>
        <time>2021-02-25T13:09:26.355Z</time>
      </trkpt>
      <trkpt lat="43.97502" lon="2.23776">
        <ele>255</ele>
        <time>2021-02-25T13:09:27.355Z</time>
      </trkpt>
      <trkpt lat="43.97503" lon="2.23777">
        <ele>255</ele>
        <time>2021-02-25T13:09:28.355Z</time>
      </trkpt>
      <trkpt lat="43.97504" lon="2.23777">
        <ele>255</ele>
        <time>2021-02-25T13:09:29.355Z</time>
      </trkpt>
      <trkpt lat="43.97505" lon="2.23778">
        <ele>255</ele>
        <time>2021-02-25T13:09:30.355Z</time>
      </trkpt>
      <trkpt lat="43.97506" lon="2.23779">
        <ele>255</ele>
        <time>2021-02-25T13:09:31.355Z</time>
      </trkpt>
      <trkpt lat="43.97507" lon="2.2378">
        <ele>255</ele>
        <time>2021-02-25T13:09:32.355Z</time>
      </trkpt>
      <trkpt lat="43.97508" lon="2.2378">
        <ele>255</ele>
        <time>2021-02-25T13:09:33.355Z</time>
      </trkpt>
      <trkpt lat="43.97509" lon="2.2378">
        <ele>255</ele>
        <time>2021-02-25T13:09:34.355Z</time>
      </trkpt>
      <trkpt lat="43.9751" lon="2.23781">
        <ele>255</ele>
        <time>2021-02-25T13:09:35.355Z</time>
      </trkpt>
      <trkpt lat="43.9751" lon="2.23781">
        <ele>255</ele>
        <time>2021-02-25T13:09:36.355Z</time>
      </trkpt>
      <trkpt lat="43.97511" lon="2.23781">
        <ele>255</ele>
        <time>2021-02-25T13:09:37.355Z</time>
      </trkpt>
      <trkpt lat="43.97512" lon="2.23781">
        <ele>255</ele>
        <time>2021-02-25T13:09:38.355Z</time>
      </trkpt>
      <trkpt lat="43.97513" lon="2.23781">
        <ele>255</ele>
        <time>2021-02-25T13:09:39.355Z</time>
      </trkpt>
      <trkpt lat="43.97514" lon="2.23782">
        <ele>255</ele>
        <time>2021-02-25T13:09:40.355Z</time>
      </trkpt>
      <trkpt lat="43.97514" lon="2.23782">
        <ele>255</ele>
        <time>2021-02-25T13:09:41.355Z</time>
      </trkpt>
      <trkpt lat="43.97514" lon="2.23783">
        <ele>255</ele>
        <time>2021-02-25T13:09:42.355Z</time>
      </trkpt>
      <trkpt lat="43.97515" lon="2.23783">
        <ele>255</ele>
        <time>2021-02-25T13:09:43.355Z</time>
      </trkpt>
      <trkpt lat="43.97515" lon="2.23783">
        <ele>255</ele>
        <time>2021-02-25T13:09:44.355Z</time>
      </trkpt>
      <trkpt lat="43.97517" lon="2.23787">
        <ele>256</ele>
        <time>2021-02-25T13:09:45.355Z</time>
      </trkpt>
      <trkpt lat="43.97517" lon="2.23788">
        <ele>256</ele>
        <time>2021-02-25T13:09:46.355Z</time>
      </trkpt>
      <trkpt lat="43.97518" lon="2.2379">
        <ele>256</ele>
        <time>2021-02-25T13:09:47.355Z</time>
      </trkpt>
      <trkpt lat="43.97518" lon="2.23791">
        <ele>256</ele>
        <time>2021-02-25T13:09:48.355Z</time>
      </trkpt>
      <trkpt lat="43.97518" lon="2.23793">
        <ele>256</ele>
        <time>2021-02-25T13:09:49.355Z</time>
      </trkpt>
      <trkpt lat="43.97518" lon="2.23794">
        <ele>256</ele>
        <time>2021-02-25T13:09:50.355Z</time>
      </trkpt>
      <trkpt lat="43.97519" lon="2.23794">
        <ele>257</ele>
        <time>2021-02-25T13:09:51.355Z</time>
      </trkpt>
      <trkpt lat="43.9752" lon="2.23795">
        <ele>257</ele>
        <time>2021-02-25T13:09:52.355Z</time>
      </trkpt>
      <trkpt lat="43.97521" lon="2.23796">
        <ele>257</ele>
        <time>2021-02-25T13:09:53.355Z</time>
      </trkpt>
      <trkpt lat="43.97522" lon="2.23797">
        <ele>257</ele>
        <time>2021-02-25T13:09:54.355Z</time>
      </trkpt>
      <trkpt lat="43.97522" lon="2.23798">
        <ele>257</ele>
        <time>2021-02-25T13:09:55.355Z</time>
      </trkpt>
      <trkpt lat="43.97523" lon="2.23799">
        <ele>257</ele>
        <time>2021-02-25T13:09:56.355Z</time>
      </trkpt>
      <trkpt lat="43.97524" lon="2.238">
        <ele>257</ele>
        <time>2021-02-25T13:09:57.355Z</time>
      </trkpt>
      <trkpt lat="43.97525" lon="2.238">
        <ele>257</ele>
        <time>2021-02-25T13:09:58.355Z</time>
      </trkpt>
      <trkpt lat="43.97526" lon="2.23801">
        <ele>257</ele>
        <time>2021-02-25T13:09:59.355Z</time>
      </trkpt>
      <trkpt lat="43.97526" lon="2.23801">
        <ele>257</ele>
        <time>2021-02-25T13:10:00.355Z</time>
      </trkpt>
      <trkpt lat="43.97527" lon="2.23801">
        <ele>257</ele>
        <time>2021-02-25T13:10:01.355Z</time>
      </trkpt>
      <trkpt lat="43.97528" lon="2.23801">
        <ele>256</ele>
        <time>2021-02-25T13:10:02.355Z</time>
      </trkpt>
      <trkpt lat="43.97529" lon="2.23801">
        <ele>256</ele>
        <time>2021-02-25T13:10:03.355Z</time>
      </trkpt>
      <trkpt lat="43.97529" lon="2.23802">
        <ele>256</ele>
        <time>2021-02-25T13:10:04.355Z</time>
      </trkpt>
      <trkpt lat="43.9753" lon="2.23802">
        <ele>256</ele>
        <time>2021-02-25T13:10:07.599Z</time>
      </trkpt>
      <trkpt lat="43.9753" lon="2.23802">
        <ele>255</ele>
        <time>2021-02-25T13:10:08.599Z</time>
      </trkpt>
      <trkpt lat="43.97533" lon="2.23801">
        <ele>254</ele>
        <time>2021-02-25T13:10:09.599Z</time>
      </trkpt>
      <trkpt lat="43.97533" lon="2.23801">
        <ele>254</ele>
        <time>2021-02-25T13:10:10.599Z</time>
      </trkpt>
      <trkpt lat="43.97533" lon="2.23801">
        <ele>254</ele>
        <time>2021-02-25T13:10:11.599Z</time>
      </trkpt>
      <trkpt lat="43.97534" lon="2.23801">
        <ele>254</ele>
        <time>2021-02-25T13:10:12.599Z</time>
      </trkpt>
      <trkpt lat="43.97532" lon="2.23802">
        <ele>253</ele>
        <time>2021-02-25T13:10:13.599Z</time>
      </trkpt>
      <trkpt lat="43.97532" lon="2.23803">
        <ele>253</ele>
        <time>2021-02-25T13:10:14.599Z</time>
      </trkpt>
      <trkpt lat="43.97532" lon="2.23804">
        <ele>253</ele>
        <time>2021-02-25T13:10:15.599Z</time>
      </trkpt>
      <trkpt lat="43.97532" lon="2.23805">
        <ele>253</ele>
        <time>2021-02-25T13:10:16.599Z</time>
      </trkpt>
      <trkpt lat="43.97532" lon="2.23806">
        <ele>253</ele>
        <time>2021-02-25T13:10:17.599Z</time>
      </trkpt>
      <trkpt lat="43.97533" lon="2.23806">
        <ele>253</ele>
        <time>2021-02-25T13:10:18.599Z</time>
      </trkpt>
      <trkpt lat="43.97533" lon="2.23806">
        <ele>253</ele>
        <time>2021-02-25T13:10:19.599Z</time>
      </trkpt>
      <trkpt lat="43.97534" lon="2.23806">
        <ele>253</ele>
        <time>2021-02-25T13:10:20.599Z</time>
      </trkpt>
      <trkpt lat="43.97534" lon="2.23806">
        <ele>253</ele>
        <time>2021-02-25T13:10:21.599Z</time>
      </trkpt>
      <trkpt lat="43.97535" lon="2.23806">
        <ele>253</ele>
        <time>2021-02-25T13:10:22.599Z</time>
      </trkpt>
      <trkpt lat="43.97535" lon="2.23807">
        <ele>253</ele>
        <time>2021-02-25T13:10:23.599Z</time>
      </trkpt>
      <trkpt lat="43.97536" lon="2.23807">
        <ele>253</ele>
        <time>2021-02-25T13:10:24.599Z</time>
      </trkpt>
      <trkpt lat="43.97537" lon="2.23807">
        <ele>253</ele>
        <time>2021-02-25T13:10:25.599Z</time>
      </trkpt>
      <trkpt lat="43.97537" lon="2.23807">
        <ele>253</ele>
        <time>2021-02-25T13:10:26.599Z</time>
      </trkpt>
      <trkpt lat="43.97538" lon="2.23808">
        <ele>253</ele>
        <time>2021-02-25T13:10:27.599Z</time>
      </trkpt>
      <trkpt lat="43.97539" lon="2.23807">
        <ele>253</ele>
        <time>2021-02-25T13:10:28.599Z</time>
      </trkpt>
      <trkpt lat="43.97538" lon="2.23807">
        <ele>252</ele>
        <time>2021-02-25T13:10:29.599Z</time>
      </trkpt>
      <trkpt lat="43.97538" lon="2.23806">
        <ele>252</ele>
        <time>2021-02-25T13:10:30.599Z</time>
      </trkpt>
      <trkpt lat="43.97538" lon="2.23805">
        <ele>252</ele>
        <time>2021-02-25T13:10:31.599Z</time>
      </trkpt>
      <trkpt lat="43.97539" lon="2.23806">
        <ele>252</ele>
        <time>2021-02-25T13:10:32.599Z</time>
      </trkpt>
      <trkpt lat="43.97539" lon="2.23806">
        <ele>252</ele>
        <time>2021-02-25T13:10:33.599Z</time>
      </trkpt>
      <trkpt lat="43.97539" lon="2.23807">
        <ele>252</ele>
        <time>2021-02-25T13:10:34.599Z</time>
      </trkpt>
      <trkpt lat="43.9754" lon="2.23807">
        <ele>252</ele>
        <time>2021-02-25T13:10:35.599Z</time>
      </trkpt>
      <trkpt lat="43.9754" lon="2.23808">
        <ele>252</ele>
        <time>2021-02-25T13:10:36.599Z</time>
      </trkpt>
      <trkpt lat="43.97541" lon="2.23809">
        <ele>252</ele>
        <time>2021-02-25T13:10:37.599Z</time>
      </trkpt>
      <trkpt lat="43.97542" lon="2.2381">
        <ele>252</ele>
        <time>2021-02-25T13:10:38.599Z</time>
      </trkpt>
      <trkpt lat="43.97543" lon="2.23811">
        <ele>253</ele>
        <time>2021-02-25T13:10:39.599Z</time>
      </trkpt>
      <trkpt lat="43.97544" lon="2.23812">
        <ele>253</ele>
        <time>2021-02-25T13:10:40.599Z</time>
      </trkpt>
      <trkpt lat="43.97545" lon="2.23812">
        <ele>253</ele>
        <time>2021-02-25T13:10:41.599Z</time>
      </trkpt>
      <trkpt lat="43.97546" lon="2.23813">
        <ele>253</ele>
        <time>2021-02-25T13:10:42.599Z</time>
      </trkpt>
      <trkpt lat="43.97547" lon="2.23814">
        <ele>253</ele>
        <time>2021-02-25T13:10:43.599Z</time>
      </trkpt>
      <trkpt lat="43.97548" lon="2.23815">
        <ele>254</ele>
        <time>2021-02-25T13:10:44.599Z</time>
      </trkpt>
      <trkpt lat="43.97548" lon="2.23816">
        <ele>254</ele>
        <time>2021-02-25T13:10:45.599Z</time>
      </trkpt>
      <trkpt lat="43.97549" lon="2.23817">
        <ele>254</ele>
        <time>2021-02-25T13:10:46.599Z</time>
      </trkpt>
      <trkpt lat="43.9755" lon="2.23818">
        <ele>254</ele>
        <time>2021-02-25T13:10:47.599Z</time>
      </trkpt>
      <trkpt lat="43.9755" lon="2.23818">
        <ele>254</ele>
        <time>2021-02-25T13:10:48.599Z</time>
      </trkpt>
      <trkpt lat="43.97551" lon="2.23819">
        <ele>255</ele>
        <time>2021-02-25T13:10:49.599Z</time>
      </trkpt>
      <trkpt lat="43.97552" lon="2.2382">
        <ele>255</ele>
        <time>2021-02-25T13:10:50.599Z</time>
      </trkpt>
      <trkpt lat="43.97553" lon="2.23821">
        <ele>255</ele>
        <time>2021-02-25T13:10:51.599Z</time>
      </trkpt>
      <trkpt lat="43.97553" lon="2.23821">
        <ele>255</ele>
        <time>2021-02-25T13:10:52.599Z</time>
      </trkpt>
      <trkpt lat="43.97554" lon="2.23822">
        <ele>255</ele>
        <time>2021-02-25T13:10:53.599Z</time>
      </trkpt>
      <trkpt lat="43.97555" lon="2.23823">
        <ele>255</ele>
        <time>2021-02-25T13:10:54.599Z</time>
      </trkpt>
      <trkpt lat="43.97555" lon="2.23823">
        <ele>256</ele>
        <time>2021-02-25T13:10:55.599Z</time>
      </trkpt>
      <trkpt lat="43.97556" lon="2.23823">
        <ele>256</ele>
        <time>2021-02-25T13:10:56.599Z</time>
      </trkpt>
      <trkpt lat="43.97556" lon="2.23823">
        <ele>256</ele>
        <time>2021-02-25T13:10:57.599Z</time>
      </trkpt>
      <trkpt lat="43.97557" lon="2.23823">
        <ele>256</ele>
        <time>2021-02-25T13:10:58.599Z</time>
      </trkpt>
      <trkpt lat="43.97558" lon="2.23823">
        <ele>257</ele>
        <time>2021-02-25T13:10:59.599Z</time>
      </trkpt>
      <trkpt lat="43.97559" lon="2.23824">
        <ele>257</ele>
        <time>2021-02-25T13:11:00.599Z</time>
      </trkpt>
      <trkpt lat="43.9756" lon="2.23824">
        <ele>257</ele>
        <time>2021-02-25T13:11:01.599Z</time>
      </trkpt>
      <trkpt lat="43.9756" lon="2.23825">
        <ele>257</ele>
        <time>2021-02-25T13:11:02.599Z</time>
      </trkpt>
      <trkpt lat="43.9756" lon="2.23825">
        <ele>257</ele>
        <time>2021-02-25T13:11:03.599Z</time>
      </trkpt>
      <trkpt lat="43.97561" lon="2.23825">
        <ele>257</ele>
        <time>2021-02-25T13:11:04.599Z</time>
      </trkpt>
      <trkpt lat="43.97561" lon="2.23826">
        <ele>257</ele>
        <time>2021-02-25T13:11:05.599Z</time>
      </trkpt>
      <trkpt lat="43.97561" lon="2.23827">
        <ele>258</ele>
        <time>2021-02-25T13:11:06.599Z</time>
      </trkpt>
      <trkpt lat="43.97562" lon="2.23828">
        <ele>258</ele>
        <time>2021-02-25T13:11:07.599Z</time>
      </trkpt>
      <trkpt lat="43.97563" lon="2.23829">
        <ele>258</ele>
        <time>2021-02-25T13:11:08.599Z</time>
      </trkpt>
      <trkpt lat="43.97563" lon="2.2383">
        <ele>258</ele>
        <time>2021-02-25T13:11:09.599Z</time>
      </trkpt>
      <trkpt lat="43.97564" lon="2.23831">
        <ele>258</ele>
        <time>2021-02-25T13:11:10.599Z</time>
      </trkpt>
      <trkpt lat="43.97565" lon="2.23832">
        <ele>258</ele>
        <time>2021-02-25T13:11:11.599Z</time>
      </trkpt>
      <trkpt lat="43.97566" lon="2.23832">
        <ele>258</ele>
        <time>2021-02-25T13:11:12.599Z</time>
      </trkpt>
      <trkpt lat="43.97567" lon="2.23833">
        <ele>258</ele>
        <time>2021-02-25T13:11:13.599Z</time>
      </trkpt>
      <trkpt lat="43.97568" lon="2.23834">
        <ele>258</ele>
        <time>2021-02-25T13:11:14.599Z</time>
      </trkpt>
      <trkpt lat="43.97569" lon="2.23835">
        <ele>258</ele>
        <time>2021-02-25T13:11:15.599Z</time>
      </trkpt>
      <trkpt lat="43.9757" lon="2.23836">
        <ele>258</ele>
        <time>2021-02-25T13:11:16.599Z</time>
      </trkpt>
      <trkpt lat="43.97571" lon="2.23837">
        <ele>258</ele>
        <time>2021-02-25T13:11:17.599Z</time>
      </trkpt>
      <trkpt lat="43.97572" lon="2.23838">
        <ele>258</ele>
        <time>2021-02-25T13:11:18.599Z</time>
      </trkpt>
      <trkpt lat="43.97574" lon="2.23839">
        <ele>258</ele>
        <time>2021-02-25T13:11:19.599Z</time>
      </trkpt>
      <trkpt lat="43.97575" lon="2.2384">
        <ele>258</ele>
        <time>2021-02-25T13:11:20.599Z</time>
      </trkpt>
      <trkpt lat="43.97575" lon="2.23841">
        <ele>258</ele>
        <time>2021-02-25T13:11:21.599Z</time>
      </trkpt>
      <trkpt lat="43.97576" lon="2.23842">
        <ele>259</ele>
        <time>2021-02-25T13:11:22.599Z</time>
      </trkpt>
      <trkpt lat="43.97577" lon="2.23843">
        <ele>259</ele>
        <time>2021-02-25T13:11:23.599Z</time>
      </trkpt>
      <trkpt lat="43.97578" lon="2.23844">
        <ele>259</ele>
        <time>2021-02-25T13:11:24.599Z</time>
      </trkpt>
      <trkpt lat="43.97578" lon="2.23845">
        <ele>259</ele>
        <time>2021-02-25T13:11:25.599Z</time>
      </trkpt>
      <trkpt lat="43.97579" lon="2.23845">
        <ele>259</ele>
        <time>2021-02-25T13:11:26.599Z</time>
      </trkpt>
      <trkpt lat="43.9758" lon="2.23846">
        <ele>259</ele>
        <time>2021-02-25T13:11:27.599Z</time>
      </trkpt>
      <trkpt lat="43.9758" lon="2.23847">
        <ele>259</ele>
        <time>2021-02-25T13:11:28.599Z</time>
      </trkpt>
      <trkpt lat="43.97581" lon="2.23848">
        <ele>259</ele>
        <time>2021-02-25T13:11:29.599Z</time>
      </trkpt>
      <trkpt lat="43.97582" lon="2.23849">
        <ele>259</ele>
        <time>2021-02-25T13:11:30.599Z</time>
      </trkpt>
      <trkpt lat="43.97583" lon="2.2385">
        <ele>259</ele>
        <time>2021-02-25T13:11:31.599Z</time>
      </trkpt>
      <trkpt lat="43.97584" lon="2.23851">
        <ele>259</ele>
        <time>2021-02-25T13:11:32.599Z</time>
      </trkpt>
      <trkpt lat="43.97585" lon="2.23852">
        <ele>259</ele>
        <time>2021-02-25T13:11:33.599Z</time>
      </trkpt>
      <trkpt lat="43.97586" lon="2.23853">
        <ele>259</ele>
        <time>2021-02-25T13:11:34.599Z</time>
      </trkpt>
      <trkpt lat="43.97587" lon="2.23854">
        <ele>259</ele>
        <time>2021-02-25T13:11:35.599Z</time>
      </trkpt>
      <trkpt lat="43.97588" lon="2.23855">
        <ele>259</ele>
        <time>2021-02-25T13:11:36.599Z</time>
      </trkpt>
      <trkpt lat="43.97589" lon="2.23856">
        <ele>259</ele>
        <time>2021-02-25T13:11:37.599Z</time>
      </trkpt>
      <trkpt lat="43.9759" lon="2.23857">
        <ele>259</ele>
        <time>2021-02-25T13:11:38.599Z</time>
      </trkpt>
      <trkpt lat="43.9759" lon="2.23857">
        <ele>259</ele>
        <time>2021-02-25T13:11:39.599Z</time>
      </trkpt>
      <trkpt lat="43.97591" lon="2.23858">
        <ele>259</ele>
        <time>2021-02-25T13:11:40.599Z</time>
      </trkpt>
      <trkpt lat="43.97592" lon="2.23858">
        <ele>260</ele>
        <time>2021-02-25T13:11:41.599Z</time>
      </trkpt>
      <trkpt lat="43.97593" lon="2.23859">
        <ele>260</ele>
        <time>2021-02-25T13:11:42.599Z</time>
      </trkpt>
      <trkpt lat="43.97594" lon="2.2386">
        <ele>260</ele>
        <time>2021-02-25T13:11:43.599Z</time>
      </trkpt>
      <trkpt lat="43.97595" lon="2.2386">
        <ele>260</ele>
        <time>2021-02-25T13:11:44.599Z</time>
      </trkpt>
      <trkpt lat="43.97595" lon="2.2386">
        <ele>260</ele>
        <time>2021-02-25T13:11:45.599Z</time>
      </trkpt>
      <trkpt lat="43.97596" lon="2.23861">
        <ele>260</ele>
        <time>2021-02-25T13:11:46.599Z</time>
      </trkpt>
      <trkpt lat="43.97597" lon="2.23861">
        <ele>260</ele>
        <time>2021-02-25T13:11:47.599Z</time>
      </trkpt>
      <trkpt lat="43.97598" lon="2.23861">
        <ele>260</ele>
        <time>2021-02-25T13:11:48.599Z</time>
      </trkpt>
      <trkpt lat="43.97599" lon="2.23861">
        <ele>260</ele>
        <time>2021-02-25T13:11:49.599Z</time>
      </trkpt>
      <trkpt lat="43.976" lon="2.23862">
        <ele>260</ele>
        <time>2021-02-25T13:11:50.599Z</time>
      </trkpt>
      <trkpt lat="43.97601" lon="2.23862">
        <ele>260</ele>
        <time>2021-02-25T13:11:51.599Z</time>
      </trkpt>
      <trkpt lat="43.97602" lon="2.23862">
        <ele>260</ele>
        <time>2021-02-25T13:11:52.599Z</time>
      </trkpt>
      <trkpt lat="43.97603" lon="2.23861">
        <ele>260</ele>
        <time>2021-02-25T13:11:53.599Z</time>
      </trkpt>
      <trkpt lat="43.97604" lon="2.23861">
        <ele>260</ele>
        <time>2021-02-25T13:11:54.599Z</time>
      </trkpt>
      <trkpt lat="43.97604" lon="2.23861">
        <ele>260</ele>
        <time>2021-02-25T13:11:55.599Z</time>
      </trkpt>
      <trkpt lat="43.97605" lon="2.23861">
        <ele>260</ele>
        <time>2021-02-25T13:11:56.599Z</time>
      </trkpt>
      <trkpt lat="43.97606" lon="2.23861">
        <ele>260</ele>
        <time>2021-02-25T13:11:57.599Z</time>
      </trkpt>
      <trkpt lat="43.97608" lon="2.23862">
        <ele>260</ele>
        <time>2021-02-25T13:11:58.599Z</time>
      </trkpt>
      <trkpt lat="43.97609" lon="2.23863">
        <ele>260</ele>
        <time>2021-02-25T13:11:59.599Z</time>
      </trkpt>
      <trkpt lat="43.9761" lon="2.23864">
        <ele>260</ele>
        <time>2021-02-25T13:12:00.599Z</time>
      </trkpt>
      <trkpt lat="43.97611" lon="2.23864">
        <ele>260</ele>
        <time>2021-02-25T13:12:01.599Z</time>
      </trkpt>
      <trkpt lat="43.97612" lon="2.23865">
        <ele>260</ele>
        <time>2021-02-25T13:12:02.599Z</time>
      </trkpt>
      <trkpt lat="43.97613" lon="2.23866">
        <ele>260</ele>
        <time>2021-02-25T13:12:03.599Z</time>
      </trkpt>
      <trkpt lat="43.97613" lon="2.23868">
        <ele>260</ele>
        <time>2021-02-25T13:12:04.599Z</time>
      </trkpt>
      <trkpt lat="43.97614" lon="2.23869">
        <ele>260</ele>
        <time>2021-02-25T13:12:05.599Z</time>
      </trkpt>
      <trkpt lat="43.97615" lon="2.2387">
        <ele>260</ele>
        <time>2021-02-25T13:12:06.599Z</time>
      </trkpt>
      <trkpt lat="43.97616" lon="2.23872">
        <ele>260</ele>
        <time>2021-02-25T13:12:07.599Z</time>
      </trkpt>
      <trkpt lat="43.97617" lon="2.23873">
        <ele>260</ele>
        <time>2021-02-25T13:12:08.599Z</time>
      </trkpt>
      <trkpt lat="43.97618" lon="2.23873">
        <ele>260</ele>
        <time>2021-02-25T13:12:09.599Z</time>
      </trkpt>
      <trkpt lat="43.97619" lon="2.23874">
        <ele>261</ele>
        <time>2021-02-25T13:12:10.599Z</time>
      </trkpt>
      <trkpt lat="43.9762" lon="2.23874">
        <ele>261</ele>
        <time>2021-02-25T13:12:11.599Z</time>
      </trkpt>
      <trkpt lat="43.97621" lon="2.23875">
        <ele>261</ele>
        <time>2021-02-25T13:12:12.599Z</time>
      </trkpt>
      <trkpt lat="43.97622" lon="2.23875">
        <ele>261</ele>
        <time>2021-02-25T13:12:13.599Z</time>
      </trkpt>
      <trkpt lat="43.97623" lon="2.23876">
        <ele>261</ele>
        <time>2021-02-25T13:12:14.599Z</time>
      </trkpt>
      <trkpt lat="43.97624" lon="2.23877">
        <ele>261</ele>
        <time>2021-02-25T13:12:15.599Z</time>
      </trkpt>
      <trkpt lat="43.97625" lon="2.23877">
        <ele>261</ele>
        <time>2021-02-25T13:12:16.599Z</time>
      </trkpt>
      <trkpt lat="43.97626" lon="2.23878">
        <ele>261</ele>
        <time>2021-02-25T13:12:17.599Z</time>
      </trkpt>
      <trkpt lat="43.97627" lon="2.23879">
        <ele>261</ele>
        <time>2021-02-25T13:12:18.599Z</time>
      </trkpt>
      <trkpt lat="43.97628" lon="2.23879">
        <ele>261</ele>
        <time>2021-02-25T13:12:19.599Z</time>
      </trkpt>
      <trkpt lat="43.97629" lon="2.23879">
        <ele>261</ele>
        <time>2021-02-25T13:12:20.599Z</time>
      </trkpt>
      <trkpt lat="43.9763" lon="2.2388">
        <ele>261</ele>
        <time>2021-02-25T13:12:21.599Z</time>
      </trkpt>
      <trkpt lat="43.97631" lon="2.23881">
        <ele>261</ele>
        <time>2021-02-25T13:12:22.599Z</time>
      </trkpt>
      <trkpt lat="43.97632" lon="2.23881">
        <ele>261</ele>
        <time>2021-02-25T13:12:23.599Z</time>
      </trkpt>
      <trkpt lat="43.97632" lon="2.23882">
        <ele>261</ele>
        <time>2021-02-25T13:12:24.599Z</time>
      </trkpt>
      <trkpt lat="43.97633" lon="2.23883">
        <ele>261</ele>
        <time>2021-02-25T13:12:25.599Z</time>
      </trkpt>
      <trkpt lat="43.97634" lon="2.23883">
        <ele>261</ele>
        <time>2021-02-25T13:12:26.599Z</time>
      </trkpt>
      <trkpt lat="43.97636" lon="2.23884">
        <ele>261</ele>
        <time>2021-02-25T13:12:27.599Z</time>
      </trkpt>
      <trkpt lat="43.97637" lon="2.23885">
        <ele>260</ele>
        <time>2021-02-25T13:12:28.599Z</time>
      </trkpt>
      <trkpt lat="43.97638" lon="2.23886">
        <ele>260</ele>
        <time>2021-02-25T13:12:29.599Z</time>
      </trkpt>
      <trkpt lat="43.97639" lon="2.23887">
        <ele>261</ele>
        <time>2021-02-25T13:12:30.599Z</time>
      </trkpt>
      <trkpt lat="43.9764" lon="2.23888">
        <ele>261</ele>
        <time>2021-02-25T13:12:31.599Z</time>
      </trkpt>
      <trkpt lat="43.97642" lon="2.23889">
        <ele>261</ele>
        <time>2021-02-25T13:12:32.599Z</time>
      </trkpt>
      <trkpt lat="43.97643" lon="2.23889">
        <ele>261</ele>
        <time>2021-02-25T13:12:33.599Z</time>
      </trkpt>
      <trkpt lat="43.97644" lon="2.2389">
        <ele>261</ele>
        <time>2021-02-25T13:12:34.599Z</time>
      </trkpt>
      <trkpt lat="43.97645" lon="2.23891">
        <ele>261</ele>
        <time>2021-02-25T13:12:35.599Z</time>
      </trkpt>
      <trkpt lat="43.97646" lon="2.23892">
        <ele>261</ele>
        <time>2021-02-25T13:12:36.599Z</time>
      </trkpt>
      <trkpt lat="43.97647" lon="2.23893">
        <ele>261</ele>
        <time>2021-02-25T13:12:37.599Z</time>
      </trkpt>
      <trkpt lat="43.97648" lon="2.23894">
        <ele>261</ele>
        <time>2021-02-25T13:12:38.599Z</time>
      </trkpt>
      <trkpt lat="43.97649" lon="2.23895">
        <ele>261</ele>
        <time>2021-02-25T13:12:39.599Z</time>
      </trkpt>
      <trkpt lat="43.9765" lon="2.23896">
        <ele>261</ele>
        <time>2021-02-25T13:12:40.599Z</time>
      </trkpt>
      <trkpt lat="43.97651" lon="2.23897">
        <ele>261</ele>
        <time>2021-02-25T13:12:41.599Z</time>
      </trkpt>
      <trkpt lat="43.97652" lon="2.23898">
        <ele>261</ele>
        <time>2021-02-25T13:12:42.599Z</time>
      </trkpt>
      <trkpt lat="43.97652" lon="2.23899">
        <ele>261</ele>
        <time>2021-02-25T13:12:43.599Z</time>
      </trkpt>
      <trkpt lat="43.97653" lon="2.23901">
        <ele>261</ele>
        <time>2021-02-25T13:12:44.599Z</time>
      </trkpt>
      <trkpt lat="43.97654" lon="2.23902">
        <ele>261</ele>
        <time>2021-02-25T13:12:45.599Z</time>
      </trkpt>
      <trkpt lat="43.97655" lon="2.23903">
        <ele>261</ele>
        <time>2021-02-25T13:12:46.599Z</time>
      </trkpt>
      <trkpt lat="43.97655" lon="2.23905">
        <ele>262</ele>
        <time>2021-02-25T13:12:47.599Z</time>
      </trkpt>
      <trkpt lat="43.97656" lon="2.23906">
        <ele>262</ele>
        <time>2021-02-25T13:12:48.599Z</time>
      </trkpt>
      <trkpt lat="43.97657" lon="2.23907">
        <ele>262</ele>
        <time>2021-02-25T13:12:49.599Z</time>
      </trkpt>
      <trkpt lat="43.97658" lon="2.23908">
        <ele>262</ele>
        <time>2021-02-25T13:12:50.599Z</time>
      </trkpt>
      <trkpt lat="43.97659" lon="2.23909">
        <ele>262</ele>
        <time>2021-02-25T13:12:51.599Z</time>
      </trkpt>
      <trkpt lat="43.9766" lon="2.2391">
        <ele>262</ele>
        <time>2021-02-25T13:12:52.599Z</time>
      </trkpt>
      <trkpt lat="43.97661" lon="2.23911">
        <ele>262</ele>
        <time>2021-02-25T13:12:53.599Z</time>
      </trkpt>
      <trkpt lat="43.97662" lon="2.23912">
        <ele>262</ele>
        <time>2021-02-25T13:12:54.599Z</time>
      </trkpt>
      <trkpt lat="43.97663" lon="2.23913">
        <ele>262</ele>
        <time>2021-02-25T13:12:55.599Z</time>
      </trkpt>
      <trkpt lat="43.97664" lon="2.23914">
        <ele>262</ele>
        <time>2021-02-25T13:12:56.599Z</time>
      </trkpt>
      <trkpt lat="43.97665" lon="2.23916">
        <ele>262</ele>
        <time>2021-02-25T13:12:57.599Z</time>
      </trkpt>
      <trkpt lat="43.97666" lon="2.23917">
        <ele>262</ele>
        <time>2021-02-25T13:12:58.599Z</time>
      </trkpt>
      <trkpt lat="43.97667" lon="2.23918">
        <ele>262</ele>
        <time>2021-02-25T13:12:59.599Z</time>
      </trkpt>
      <trkpt lat="43.97668" lon="2.23919">
        <ele>262</ele>
        <time>2021-02-25T13:13:00.599Z</time>
      </trkpt>
      <trkpt lat="43.97669" lon="2.2392">
        <ele>262</ele>
        <time>2021-02-25T13:13:01.599Z</time>
      </trkpt>
      <trkpt lat="43.9767" lon="2.23921">
        <ele>262</ele>
        <time>2021-02-25T13:13:02.599Z</time>
      </trkpt>
      <trkpt lat="43.97671" lon="2.23922">
        <ele>262</ele>
        <time>2021-02-25T13:13:03.599Z</time>
      </trkpt>
      <trkpt lat="43.97672" lon="2.23923">
        <ele>262</ele>
        <time>2021-02-25T13:13:04.599Z</time>
      </trkpt>
      <trkpt lat="43.97673" lon="2.23925">
        <ele>262</ele>
        <time>2021-02-25T13:13:05.599Z</time>
      </trkpt>
      <trkpt lat="43.97674" lon="2.23926">
        <ele>262</ele>
        <time>2021-02-25T13:13:06.599Z</time>
      </trkpt>
      <trkpt lat="43.97675" lon="2.23927">
        <ele>262</ele>
        <time>2021-02-25T13:13:07.599Z</time>
      </trkpt>
      <trkpt lat="43.97675" lon="2.23928">
        <ele>262</ele>
        <time>2021-02-25T13:13:08.599Z</time>
      </trkpt>
      <trkpt lat="43.97676" lon="2.23929">
        <ele>262</ele>
        <time>2021-02-25T13:13:09.599Z</time>
      </trkpt>
      <trkpt lat="43.97677" lon="2.2393">
        <ele>262</ele>
        <time>2021-02-25T13:13:10.599Z</time>
      </trkpt>
      <trkpt lat="43.97678" lon="2.23932">
        <ele>262</ele>
        <time>2021-02-25T13:13:11.599Z</time>
      </trkpt>
      <trkpt lat="43.97679" lon="2.23933">
        <ele>262</ele>
        <time>2021-02-25T13:13:12.599Z</time>
      </trkpt>
      <trkpt lat="43.9768" lon="2.23933">
        <ele>262</ele>
        <time>2021-02-25T13:13:13.599Z</time>
      </trkpt>
      <trkpt lat="43.97681" lon="2.23934">
        <ele>262</ele>
        <time>2021-02-25T13:13:14.599Z</time>
      </trkpt>
      <trkpt lat="43.97682" lon="2.23935">
        <ele>262</ele>
        <time>2021-02-25T13:13:15.599Z</time>
      </trkpt>
      <trkpt lat="43.97683" lon="2.23936">
        <ele>262</ele>
        <time>2021-02-25T13:13:16.599Z</time>
      </trkpt>
      <trkpt lat="43.97684" lon="2.23937">
        <ele>262</ele>
        <time>2021-02-25T13:13:17.599Z</time>
      </trkpt>
      <trkpt lat="43.97685" lon="2.23938">
        <ele>262</ele>
        <time>2021-02-25T13:13:18.599Z</time>
      </trkpt>
      <trkpt lat="43.97686" lon="2.23938">
        <ele>262</ele>
        <time>2021-02-25T13:13:19.599Z</time>
      </trkpt>
      <trkpt lat="43.97687" lon="2.23939">
        <ele>262</ele>
        <time>2021-02-25T13:13:20.599Z</time>
      </trkpt>
      <trkpt lat="43.97688" lon="2.2394">
        <ele>262</ele>
        <time>2021-02-25T13:13:21.599Z</time>
      </trkpt>
      <trkpt lat="43.97688" lon="2.23941">
        <ele>262</ele>
        <time>2021-02-25T13:13:22.599Z</time>
      </trkpt>
      <trkpt lat="43.97689" lon="2.23942">
        <ele>262</ele>
        <time>2021-02-25T13:13:23.599Z</time>
      </trkpt>
      <trkpt lat="43.9769" lon="2.23943">
        <ele>262</ele>
        <time>2021-02-25T13:13:24.599Z</time>
      </trkpt>
      <trkpt lat="43.97691" lon="2.23944">
        <ele>262</ele>
        <time>2021-02-25T13:13:25.599Z</time>
      </trkpt>
      <trkpt lat="43.97691" lon="2.23945">
        <ele>262</ele>
        <time>2021-02-25T13:13:26.599Z</time>
      </trkpt>
      <trkpt lat="43.97693" lon="2.23946">
        <ele>262</ele>
        <time>2021-02-25T13:13:27.599Z</time>
      </trkpt>
      <trkpt lat="43.97694" lon="2.23947">
        <ele>262</ele>
        <time>2021-02-25T13:13:28.599Z</time>
      </trkpt>
      <trkpt lat="43.97695" lon="2.23948">
        <ele>263</ele>
        <time>2021-02-25T13:13:29.599Z</time>
      </trkpt>
      <trkpt lat="43.97696" lon="2.2395">
        <ele>263</ele>
        <time>2021-02-25T13:13:30.599Z</time>
      </trkpt>
      <trkpt lat="43.97698" lon="2.23951">
        <ele>263</ele>
        <time>2021-02-25T13:13:31.599Z</time>
      </trkpt>
      <trkpt lat="43.97699" lon="2.23953">
        <ele>263</ele>
        <time>2021-02-25T13:13:32.599Z</time>
      </trkpt>
      <trkpt lat="43.977" lon="2.23954">
        <ele>263</ele>
        <time>2021-02-25T13:13:33.599Z</time>
      </trkpt>
      <trkpt lat="43.97701" lon="2.23955">
        <ele>263</ele>
        <time>2021-02-25T13:13:34.599Z</time>
      </trkpt>
      <trkpt lat="43.97702" lon="2.23956">
        <ele>263</ele>
        <time>2021-02-25T13:13:35.599Z</time>
      </trkpt>
      <trkpt lat="43.97704" lon="2.23957">
        <ele>263</ele>
        <time>2021-02-25T13:13:36.599Z</time>
      </trkpt>
      <trkpt lat="43.97705" lon="2.23958">
        <ele>263</ele>
        <time>2021-02-25T13:13:37.599Z</time>
      </trkpt>
      <trkpt lat="43.97705" lon="2.23959">
        <ele>263</ele>
        <time>2021-02-25T13:13:38.599Z</time>
      </trkpt>
      <trkpt lat="43.97707" lon="2.2396">
        <ele>263</ele>
        <time>2021-02-25T13:13:39.599Z</time>
      </trkpt>
      <trkpt lat="43.97707" lon="2.23961">
        <ele>263</ele>
        <time>2021-02-25T13:13:40.599Z</time>
      </trkpt>
      <trkpt lat="43.97708" lon="2.23961">
        <ele>263</ele>
        <time>2021-02-25T13:13:41.599Z</time>
      </trkpt>
      <trkpt lat="43.97709" lon="2.23962">
        <ele>263</ele>
        <time>2021-02-25T13:13:42.599Z</time>
      </trkpt>
      <trkpt lat="43.9771" lon="2.23963">
        <ele>263</ele>
        <time>2021-02-25T13:13:43.599Z</time>
      </trkpt>
      <trkpt lat="43.97711" lon="2.23964">
        <ele>263</ele>
        <time>2021-02-25T13:13:44.599Z</time>
      </trkpt>
      <trkpt lat="43.97711" lon="2.23964">
        <ele>263</ele>
        <time>2021-02-25T13:13:45.599Z</time>
      </trkpt>
      <trkpt lat="43.97712" lon="2.23965">
        <ele>263</ele>
        <time>2021-02-25T13:13:46.599Z</time>
      </trkpt>
      <trkpt lat="43.97713" lon="2.23965">
        <ele>262</ele>
        <time>2021-02-25T13:13:47.599Z</time>
      </trkpt>
      <trkpt lat="43.97714" lon="2.23966">
        <ele>262</ele>
        <time>2021-02-25T13:13:48.599Z</time>
      </trkpt>
      <trkpt lat="43.97714" lon="2.23967">
        <ele>262</ele>
        <time>2021-02-25T13:13:49.599Z</time>
      </trkpt>
      <trkpt lat="43.97715" lon="2.23967">
        <ele>262</ele>
        <time>2021-02-25T13:13:50.599Z</time>
      </trkpt>
      <trkpt lat="43.97716" lon="2.23968">
        <ele>262</ele>
        <time>2021-02-25T13:13:51.599Z</time>
      </trkpt>
      <trkpt lat="43.97717" lon="2.23968">
        <ele>262</ele>
        <time>2021-02-25T13:13:52.599Z</time>
      </trkpt>
      <trkpt lat="43.97717" lon="2.23969">
        <ele>262</ele>
        <time>2021-02-25T13:13:53.599Z</time>
      </trkpt>
      <trkpt lat="43.97718" lon="2.2397">
        <ele>262</ele>
        <time>2021-02-25T13:13:54.599Z</time>
      </trkpt>
      <trkpt lat="43.97719" lon="2.2397">
        <ele>262</ele>
        <time>2021-02-25T13:13:55.599Z</time>
      </trkpt>
      <trkpt lat="43.9772" lon="2.23971">
        <ele>262</ele>
        <time>2021-02-25T13:13:56.599Z</time>
      </trkpt>
      <trkpt lat="43.9772" lon="2.23971">
        <ele>262</ele>
        <time>2021-02-25T13:13:57.599Z</time>
      </trkpt>
      <trkpt lat="43.97721" lon="2.23971">
        <ele>262</ele>
        <time>2021-02-25T13:13:58.599Z</time>
      </trkpt>
      <trkpt lat="43.97722" lon="2.23972">
        <ele>262</ele>
        <time>2021-02-25T13:13:59.599Z</time>
      </trkpt>
      <trkpt lat="43.97723" lon="2.23972">
        <ele>262</ele>
        <time>2021-02-25T13:14:00.599Z</time>
      </trkpt>
      <trkpt lat="43.97724" lon="2.23972">
        <ele>262</ele>
        <time>2021-02-25T13:14:01.599Z</time>
      </trkpt>
      <trkpt lat="43.97725" lon="2.23972">
        <ele>262</ele>
        <time>2021-02-25T13:14:02.599Z</time>
      </trkpt>
      <trkpt lat="43.97725" lon="2.23972">
        <ele>262</ele>
        <time>2021-02-25T13:14:03.599Z</time>
      </trkpt>
      <trkpt lat="43.97726" lon="2.23972">
        <ele>262</ele>
        <time>2021-02-25T13:14:04.599Z</time>
      </trkpt>
      <trkpt lat="43.97727" lon="2.23972">
        <ele>262</ele>
        <time>2021-02-25T13:14:05.599Z</time>
      </trkpt>
      <trkpt lat="43.97727" lon="2.23972">
        <ele>261</ele>
        <time>2021-02-25T13:14:06.599Z</time>
      </trkpt>
      <trkpt lat="43.97728" lon="2.23972">
        <ele>261</ele>
        <time>2021-02-25T13:14:07.599Z</time>
      </trkpt>
      <trkpt lat="43.97729" lon="2.23971">
        <ele>261</ele>
        <time>2021-02-25T13:14:08.599Z</time>
      </trkpt>
      <trkpt lat="43.97729" lon="2.23971">
        <ele>261</ele>
        <time>2021-02-25T13:14:09.599Z</time>
      </trkpt>
      <trkpt lat="43.9773" lon="2.23971">
        <ele>261</ele>
        <time>2021-02-25T13:14:10.599Z</time>
      </trkpt>
      <trkpt lat="43.9773" lon="2.23971">
        <ele>261</ele>
        <time>2021-02-25T13:14:11.599Z</time>
      </trkpt>
      <trkpt lat="43.97731" lon="2.2397">
        <ele>261</ele>
        <time>2021-02-25T13:14:12.599Z</time>
      </trkpt>
      <trkpt lat="43.97732" lon="2.2397">
        <ele>261</ele>
        <time>2021-02-25T13:14:13.599Z</time>
      </trkpt>
      <trkpt lat="43.97733" lon="2.2397">
        <ele>260</ele>
        <time>2021-02-25T13:14:14.599Z</time>
      </trkpt>
      <trkpt lat="43.97734" lon="2.23969">
        <ele>260</ele>
        <time>2021-02-25T13:14:15.599Z</time>
      </trkpt>
      <trkpt lat="43.97734" lon="2.23968">
        <ele>260</ele>
        <time>2021-02-25T13:14:16.599Z</time>
      </trkpt>
      <trkpt lat="43.97735" lon="2.23968">
        <ele>260</ele>
        <time>2021-02-25T13:14:17.599Z</time>
      </trkpt>
      <trkpt lat="43.97736" lon="2.23967">
        <ele>260</ele>
        <time>2021-02-25T13:14:18.599Z</time>
      </trkpt>
      <trkpt lat="43.97737" lon="2.23967">
        <ele>259</ele>
        <time>2021-02-25T13:14:19.599Z</time>
      </trkpt>
      <trkpt lat="43.97738" lon="2.23966">
        <ele>259</ele>
        <time>2021-02-25T13:14:20.599Z</time>
      </trkpt>
      <trkpt lat="43.97739" lon="2.23966">
        <ele>259</ele>
        <time>2021-02-25T13:14:21.599Z</time>
      </trkpt>
      <trkpt lat="43.9774" lon="2.23966">
        <ele>259</ele>
        <time>2021-02-25T13:14:22.599Z</time>
      </trkpt>
      <trkpt lat="43.97741" lon="2.23966">
        <ele>259</ele>
        <time>2021-02-25T13:14:23.599Z</time>
      </trkpt>
      <trkpt lat="43.97741" lon="2.23966">
        <ele>258</ele>
        <time>2021-02-25T13:14:24.599Z</time>
      </trkpt>
      <trkpt lat="43.97742" lon="2.23965">
        <ele>258</ele>
        <time>2021-02-25T13:14:25.599Z</time>
      </trkpt>
      <trkpt lat="43.97743" lon="2.23965">
        <ele>258</ele>
        <time>2021-02-25T13:14:26.599Z</time>
      </trkpt>
      <trkpt lat="43.97744" lon="2.23965">
        <ele>258</ele>
        <time>2021-02-25T13:14:27.599Z</time>
      </trkpt>
      <trkpt lat="43.97744" lon="2.23965">
        <ele>257</ele>
        <time>2021-02-25T13:14:28.599Z</time>
      </trkpt>
      <trkpt lat="43.97745" lon="2.23964">
        <ele>257</ele>
        <time>2021-02-25T13:14:29.599Z</time>
      </trkpt>
      <trkpt lat="43.97746" lon="2.23964">
        <ele>257</ele>
        <time>2021-02-25T13:14:30.599Z</time>
      </trkpt>
      <trkpt lat="43.97746" lon="2.23964">
        <ele>257</ele>
        <time>2021-02-25T13:14:31.599Z</time>
      </trkpt>
      <trkpt lat="43.97746" lon="2.23963">
        <ele>257</ele>
        <time>2021-02-25T13:14:32.599Z</time>
      </trkpt>
      <trkpt lat="43.97746" lon="2.23963">
        <ele>256</ele>
        <time>2021-02-25T13:14:33.599Z</time>
      </trkpt>
      <trkpt lat="43.97746" lon="2.23963">
        <ele>256</ele>
        <time>2021-02-25T13:14:34.599Z</time>
      </trkpt>
      <trkpt lat="43.97746" lon="2.23963">
        <ele>256</ele>
        <time>2021-02-25T13:14:35.599Z</time>
      </trkpt>
      <trkpt lat="43.97748" lon="2.23961">
        <ele>256</ele>
        <time>2021-02-25T13:14:36.599Z</time>
      </trkpt>
      <trkpt lat="43.97748" lon="2.2396">
        <ele>256</ele>
        <time>2021-02-25T13:14:37.599Z</time>
      </trkpt>
      <trkpt lat="43.97749" lon="2.2396">
        <ele>255</ele>
        <time>2021-02-25T13:14:38.599Z</time>
      </trkpt>
      <trkpt lat="43.97749" lon="2.2396">
        <ele>255</ele>
        <time>2021-02-25T13:14:39.599Z</time>
      </trkpt>
      <trkpt lat="43.9775" lon="2.2396">
        <ele>255</ele>
        <time>2021-02-25T13:14:40.599Z</time>
      </trkpt>
      <trkpt lat="43.9775" lon="2.2396">
        <ele>255</ele>
        <time>2021-02-25T13:14:41.599Z</time>
      </trkpt>
      <trkpt lat="43.97751" lon="2.2396">
        <ele>255</ele>
        <time>2021-02-25T13:14:42.599Z</time>
      </trkpt>
      <trkpt lat="43.97752" lon="2.2396">
        <ele>255</ele>
        <time>2021-02-25T13:14:43.599Z</time>
      </trkpt>
      <trkpt lat="43.97752" lon="2.2396">
        <ele>255</ele>
        <time>2021-02-25T13:14:44.599Z</time>
      </trkpt>
      <trkpt lat="43.97753" lon="2.2396">
        <ele>255</ele>
        <time>2021-02-25T13:14:45.599Z</time>
      </trkpt>
      <trkpt lat="43.97754" lon="2.2396">
        <ele>255</ele>
        <time>2021-02-25T13:14:46.599Z</time>
      </trkpt>
      <trkpt lat="43.97755" lon="2.2396">
        <ele>255</ele>
        <time>2021-02-25T13:14:47.599Z</time>
      </trkpt>
      <trkpt lat="43.97756" lon="2.2396">
        <ele>255</ele>
        <time>2021-02-25T13:14:48.599Z</time>
      </trkpt>
      <trkpt lat="43.97756" lon="2.2396">
        <ele>255</ele>
        <time>2021-02-25T13:14:49.599Z</time>
      </trkpt>
      <trkpt lat="43.97757" lon="2.2396">
        <ele>255</ele>
        <time>2021-02-25T13:14:50.599Z</time>
      </trkpt>
      <trkpt lat="43.97758" lon="2.2396">
        <ele>255</ele>
        <time>2021-02-25T13:14:51.599Z</time>
      </trkpt>
      <trkpt lat="43.97759" lon="2.2396">
        <ele>255</ele>
        <time>2021-02-25T13:14:52.599Z</time>
      </trkpt>
      <trkpt lat="43.9776" lon="2.2396">
        <ele>255</ele>
        <time>2021-02-25T13:14:53.599Z</time>
      </trkpt>
      <trkpt lat="43.97761" lon="2.2396">
        <ele>255</ele>
        <time>2021-02-25T13:14:54.599Z</time>
      </trkpt>
      <trkpt lat="43.97762" lon="2.2396">
        <ele>255</ele>
        <time>2021-02-25T13:14:55.599Z</time>
      </trkpt>
      <trkpt lat="43.97763" lon="2.2396">
        <ele>255</ele>
        <time>2021-02-25T13:14:56.599Z</time>
      </trkpt>
      <trkpt lat="43.97764" lon="2.2396">
        <ele>255</ele>
        <time>2021-02-25T13:14:57.599Z</time>
      </trkpt>
      <trkpt lat="43.97764" lon="2.2396">
        <ele>255</ele>
        <time>2021-02-25T13:14:58.599Z</time>
      </trkpt>
      <trkpt lat="43.97765" lon="2.2396">
        <ele>255</ele>
        <time>2021-02-25T13:14:59.599Z</time>
      </trkpt>
      <trkpt lat="43.97766" lon="2.2396">
        <ele>255</ele>
        <time>2021-02-25T13:15:00.599Z</time>
      </trkpt>
      <trkpt lat="43.97766" lon="2.23961">
        <ele>255</ele>
        <time>2021-02-25T13:15:01.599Z</time>
      </trkpt>
      <trkpt lat="43.97767" lon="2.23961">
        <ele>256</ele>
        <time>2021-02-25T13:15:02.599Z</time>
      </trkpt>
      <trkpt lat="43.97768" lon="2.23962">
        <ele>256</ele>
        <time>2021-02-25T13:15:03.599Z</time>
      </trkpt>
      <trkpt lat="43.97768" lon="2.23963">
        <ele>256</ele>
        <time>2021-02-25T13:15:04.599Z</time>
      </trkpt>
      <trkpt lat="43.97769" lon="2.23963">
        <ele>256</ele>
        <time>2021-02-25T13:15:05.599Z</time>
      </trkpt>
      <trkpt lat="43.9777" lon="2.23964">
        <ele>256</ele>
        <time>2021-02-25T13:15:06.599Z</time>
      </trkpt>
      <trkpt lat="43.9777" lon="2.23965">
        <ele>256</ele>
        <time>2021-02-25T13:15:07.599Z</time>
      </trkpt>
      <trkpt lat="43.97771" lon="2.23965">
        <ele>256</ele>
        <time>2021-02-25T13:15:08.599Z</time>
      </trkpt>
      <trkpt lat="43.97772" lon="2.23966">
        <ele>257</ele>
        <time>2021-02-25T13:15:09.599Z</time>
      </trkpt>
      <trkpt lat="43.97772" lon="2.23966">
        <ele>257</ele>
        <time>2021-02-25T13:15:10.599Z</time>
      </trkpt>
      <trkpt lat="43.97773" lon="2.23967">
        <ele>257</ele>
        <time>2021-02-25T13:15:11.599Z</time>
      </trkpt>
      <trkpt lat="43.97774" lon="2.23968">
        <ele>257</ele>
        <time>2021-02-25T13:15:12.599Z</time>
      </trkpt>
      <trkpt lat="43.97775" lon="2.23968">
        <ele>257</ele>
        <time>2021-02-25T13:15:13.599Z</time>
      </trkpt>
      <trkpt lat="43.97775" lon="2.23968">
        <ele>257</ele>
        <time>2021-02-25T13:15:14.599Z</time>
      </trkpt>
      <trkpt lat="43.97776" lon="2.23969">
        <ele>257</ele>
        <time>2021-02-25T13:15:15.599Z</time>
      </trkpt>
      <trkpt lat="43.97777" lon="2.23969">
        <ele>257</ele>
        <time>2021-02-25T13:15:16.599Z</time>
      </trkpt>
      <trkpt lat="43.97778" lon="2.2397">
        <ele>257</ele>
        <time>2021-02-25T13:15:17.599Z</time>
      </trkpt>
      <trkpt lat="43.97779" lon="2.2397">
        <ele>257</ele>
        <time>2021-02-25T13:15:18.599Z</time>
      </trkpt>
      <trkpt lat="43.9778" lon="2.23971">
        <ele>258</ele>
        <time>2021-02-25T13:15:19.599Z</time>
      </trkpt>
      <trkpt lat="43.97781" lon="2.23973">
        <ele>258</ele>
        <time>2021-02-25T13:15:20.599Z</time>
      </trkpt>
      <trkpt lat="43.97782" lon="2.23974">
        <ele>258</ele>
        <time>2021-02-25T13:15:21.599Z</time>
      </trkpt>
      <trkpt lat="43.97783" lon="2.23974">
        <ele>258</ele>
        <time>2021-02-25T13:15:22.599Z</time>
      </trkpt>
      <trkpt lat="43.97784" lon="2.23975">
        <ele>258</ele>
        <time>2021-02-25T13:15:23.599Z</time>
      </trkpt>
      <trkpt lat="43.97785" lon="2.23976">
        <ele>258</ele>
        <time>2021-02-25T13:15:24.599Z</time>
      </trkpt>
      <trkpt lat="43.97786" lon="2.23976">
        <ele>258</ele>
        <time>2021-02-25T13:15:25.599Z</time>
      </trkpt>
      <trkpt lat="43.97787" lon="2.23977">
        <ele>258</ele>
        <time>2021-02-25T13:15:26.599Z</time>
      </trkpt>
      <trkpt lat="43.97787" lon="2.23977">
        <ele>258</ele>
        <time>2021-02-25T13:15:27.599Z</time>
      </trkpt>
      <trkpt lat="43.97788" lon="2.23978">
        <ele>259</ele>
        <time>2021-02-25T13:15:28.599Z</time>
      </trkpt>
      <trkpt lat="43.97789" lon="2.23978">
        <ele>259</ele>
        <time>2021-02-25T13:15:29.599Z</time>
      </trkpt>
      <trkpt lat="43.9779" lon="2.23978">
        <ele>259</ele>
        <time>2021-02-25T13:15:30.599Z</time>
      </trkpt>
      <trkpt lat="43.9779" lon="2.23979">
        <ele>259</ele>
        <time>2021-02-25T13:15:31.599Z</time>
      </trkpt>
      <trkpt lat="43.97791" lon="2.23979">
        <ele>259</ele>
        <time>2021-02-25T13:15:32.599Z</time>
      </trkpt>
      <trkpt lat="43.97792" lon="2.23979">
        <ele>259</ele>
        <time>2021-02-25T13:15:33.599Z</time>
      </trkpt>
      <trkpt lat="43.97793" lon="2.2398">
        <ele>260</ele>
        <time>2021-02-25T13:15:34.599Z</time>
      </trkpt>
      <trkpt lat="43.97794" lon="2.2398">
        <ele>260</ele>
        <time>2021-02-25T13:15:35.599Z</time>
      </trkpt>
      <trkpt lat="43.97795" lon="2.23981">
        <ele>260</ele>
        <time>2021-02-25T13:15:36.599Z</time>
      </trkpt>
      <trkpt lat="43.97796" lon="2.23981">
        <ele>260</ele>
        <time>2021-02-25T13:15:37.599Z</time>
      </trkpt>
      <trkpt lat="43.97797" lon="2.23981">
        <ele>260</ele>
        <time>2021-02-25T13:15:38.599Z</time>
      </trkpt>
      <trkpt lat="43.97798" lon="2.23982">
        <ele>260</ele>
        <time>2021-02-25T13:15:39.599Z</time>
      </trkpt>
      <trkpt lat="43.97799" lon="2.23983">
        <ele>260</ele>
        <time>2021-02-25T13:15:40.599Z</time>
      </trkpt>
      <trkpt lat="43.978" lon="2.23983">
        <ele>260</ele>
        <time>2021-02-25T13:15:41.599Z</time>
      </trkpt>
      <trkpt lat="43.97801" lon="2.23984">
        <ele>260</ele>
        <time>2021-02-25T13:15:42.599Z</time>
      </trkpt>
      <trkpt lat="43.97802" lon="2.23984">
        <ele>260</ele>
        <time>2021-02-25T13:15:43.599Z</time>
      </trkpt>
      <trkpt lat="43.97803" lon="2.23985">
        <ele>260</ele>
        <time>2021-02-25T13:15:44.599Z</time>
      </trkpt>
      <trkpt lat="43.97803" lon="2.23985">
        <ele>260</ele>
        <time>2021-02-25T13:15:45.599Z</time>
      </trkpt>
      <trkpt lat="43.97804" lon="2.23986">
        <ele>260</ele>
        <time>2021-02-25T13:15:46.599Z</time>
      </trkpt>
      <trkpt lat="43.97805" lon="2.23987">
        <ele>260</ele>
        <time>2021-02-25T13:15:47.599Z</time>
      </trkpt>
      <trkpt lat="43.97806" lon="2.23987">
        <ele>260</ele>
        <time>2021-02-25T13:15:48.599Z</time>
      </trkpt>
      <trkpt lat="43.97807" lon="2.23988">
        <ele>260</ele>
        <time>2021-02-25T13:15:49.599Z</time>
      </trkpt>
      <trkpt lat="43.97808" lon="2.23988">
        <ele>260</ele>
        <time>2021-02-25T13:15:50.599Z</time>
      </trkpt>
      <trkpt lat="43.97809" lon="2.23989">
        <ele>260</ele>
        <time>2021-02-25T13:15:51.599Z</time>
      </trkpt>
      <trkpt lat="43.9781" lon="2.23989">
        <ele>260</ele>
        <time>2021-02-25T13:15:52.599Z</time>
      </trkpt>
      <trkpt lat="43.97811" lon="2.23989">
        <ele>260</ele>
        <time>2021-02-25T13:15:53.599Z</time>
      </trkpt>
      <trkpt lat="43.97812" lon="2.23989">
        <ele>260</ele>
        <time>2021-02-25T13:15:54.599Z</time>
      </trkpt>
      <trkpt lat="43.97813" lon="2.2399">
        <ele>260</ele>
        <time>2021-02-25T13:15:55.599Z</time>
      </trkpt>
      <trkpt lat="43.97814" lon="2.2399">
        <ele>260</ele>
        <time>2021-02-25T13:15:56.599Z</time>
      </trkpt>
      <trkpt lat="43.97815" lon="2.2399">
        <ele>260</ele>
        <time>2021-02-25T13:15:57.599Z</time>
      </trkpt>
      <trkpt lat="43.97816" lon="2.23991">
        <ele>260</ele>
        <time>2021-02-25T13:15:58.599Z</time>
      </trkpt>
      <trkpt lat="43.97816" lon="2.23991">
        <ele>260</ele>
        <time>2021-02-25T13:15:59.599Z</time>
      </trkpt>
      <trkpt lat="43.97817" lon="2.23992">
        <ele>260</ele>
        <time>2021-02-25T13:16:00.599Z</time>
      </trkpt>
      <trkpt lat="43.97818" lon="2.23992">
        <ele>260</ele>
        <time>2021-02-25T13:16:01.599Z</time>
      </trkpt>
      <trkpt lat="43.97819" lon="2.23993">
        <ele>260</ele>
        <time>2021-02-25T13:16:02.599Z</time>
      </trkpt>
      <trkpt lat="43.9782" lon="2.23993">
        <ele>260</ele>
        <time>2021-02-25T13:16:03.599Z</time>
      </trkpt>
      <trkpt lat="43.97821" lon="2.23993">
        <ele>260</ele>
        <time>2021-02-25T13:16:04.599Z</time>
      </trkpt>
      <trkpt lat="43.97823" lon="2.23994">
        <ele>260</ele>
        <time>2021-02-25T13:16:05.599Z</time>
      </trkpt>
      <trkpt lat="43.97824" lon="2.23995">
        <ele>260</ele>
        <time>2021-02-25T13:16:06.599Z</time>
      </trkpt>
      <trkpt lat="43.97825" lon="2.23995">
        <ele>260</ele>
        <time>2021-02-25T13:16:07.599Z</time>
      </trkpt>
      <trkpt lat="43.97826" lon="2.23995">
        <ele>261</ele>
        <time>2021-02-25T13:16:08.599Z</time>
      </trkpt>
      <trkpt lat="43.97827" lon="2.23996">
        <ele>261</ele>
        <time>2021-02-25T13:16:09.599Z</time>
      </trkpt>
      <trkpt lat="43.97828" lon="2.23997">
        <ele>261</ele>
        <time>2021-02-25T13:16:10.599Z</time>
      </trkpt>
      <trkpt lat="43.97829" lon="2.23997">
        <ele>261</ele>
        <time>2021-02-25T13:16:11.599Z</time>
      </trkpt>
      <trkpt lat="43.97829" lon="2.23997">
        <ele>261</ele>
        <time>2021-02-25T13:16:12.599Z</time>
      </trkpt>
      <trkpt lat="43.9783" lon="2.23998">
        <ele>261</ele>
        <time>2021-02-25T13:16:13.599Z</time>
      </trkpt>
      <trkpt lat="43.97831" lon="2.23998">
        <ele>261</ele>
        <time>2021-02-25T13:16:14.599Z</time>
      </trkpt>
      <trkpt lat="43.97832" lon="2.23998">
        <ele>261</ele>
        <time>2021-02-25T13:16:15.599Z</time>
      </trkpt>
      <trkpt lat="43.97833" lon="2.23998">
        <ele>261</ele>
        <time>2021-02-25T13:16:16.599Z</time>
      </trkpt>
      <trkpt lat="43.97834" lon="2.23999">
        <ele>261</ele>
        <time>2021-02-25T13:16:17.599Z</time>
      </trkpt>
      <trkpt lat="43.97835" lon="2.24">
        <ele>261</ele>
        <time>2021-02-25T13:16:18.599Z</time>
      </trkpt>
      <trkpt lat="43.97836" lon="2.24">
        <ele>261</ele>
        <time>2021-02-25T13:16:19.599Z</time>
      </trkpt>
      <trkpt lat="43.97837" lon="2.24001">
        <ele>261</ele>
        <time>2021-02-25T13:16:20.599Z</time>
      </trkpt>
      <trkpt lat="43.97838" lon="2.24001">
        <ele>261</ele>
        <time>2021-02-25T13:16:21.599Z</time>
      </trkpt>
      <trkpt lat="43.97839" lon="2.24002">
        <ele>261</ele>
        <time>2021-02-25T13:16:22.599Z</time>
      </trkpt>
      <trkpt lat="43.9784" lon="2.24003">
        <ele>261</ele>
        <time>2021-02-25T13:16:23.599Z</time>
      </trkpt>
      <trkpt lat="43.97841" lon="2.24004">
        <ele>261</ele>
        <time>2021-02-25T13:16:24.599Z</time>
      </trkpt>
      <trkpt lat="43.97842" lon="2.24004">
        <ele>261</ele>
        <time>2021-02-25T13:16:25.599Z</time>
      </trkpt>
      <trkpt lat="43.97843" lon="2.24005">
        <ele>261</ele>
        <time>2021-02-25T13:16:26.599Z</time>
      </trkpt>
      <trkpt lat="43.97844" lon="2.24006">
        <ele>261</ele>
        <time>2021-02-25T13:16:27.599Z</time>
      </trkpt>
      <trkpt lat="43.97845" lon="2.24007">
        <ele>261</ele>
        <time>2021-02-25T13:16:28.599Z</time>
      </trkpt>
      <trkpt lat="43.97846" lon="2.24007">
        <ele>262</ele>
        <time>2021-02-25T13:16:29.599Z</time>
      </trkpt>
      <trkpt lat="43.97847" lon="2.24008">
        <ele>262</ele>
        <time>2021-02-25T13:16:30.599Z</time>
      </trkpt>
      <trkpt lat="43.97848" lon="2.24008">
        <ele>262</ele>
        <time>2021-02-25T13:16:31.599Z</time>
      </trkpt>
      <trkpt lat="43.97849" lon="2.24009">
        <ele>262</ele>
        <time>2021-02-25T13:16:32.599Z</time>
      </trkpt>
      <trkpt lat="43.9785" lon="2.24009">
        <ele>262</ele>
        <time>2021-02-25T13:16:33.599Z</time>
      </trkpt>
      <trkpt lat="43.97851" lon="2.2401">
        <ele>262</ele>
        <time>2021-02-25T13:16:34.599Z</time>
      </trkpt>
      <trkpt lat="43.97851" lon="2.2401">
        <ele>262</ele>
        <time>2021-02-25T13:16:35.599Z</time>
      </trkpt>
      <trkpt lat="43.97852" lon="2.2401">
        <ele>262</ele>
        <time>2021-02-25T13:16:36.599Z</time>
      </trkpt>
      <trkpt lat="43.97853" lon="2.24011">
        <ele>262</ele>
        <time>2021-02-25T13:16:37.599Z</time>
      </trkpt>
      <trkpt lat="43.97854" lon="2.24011">
        <ele>262</ele>
        <time>2021-02-25T13:16:38.599Z</time>
      </trkpt>
      <trkpt lat="43.97854" lon="2.24011">
        <ele>262</ele>
        <time>2021-02-25T13:16:39.599Z</time>
      </trkpt>
      <trkpt lat="43.97855" lon="2.24011">
        <ele>262</ele>
        <time>2021-02-25T13:16:40.599Z</time>
      </trkpt>
      <trkpt lat="43.97855" lon="2.24011">
        <ele>262</ele>
        <time>2021-02-25T13:16:41.599Z</time>
      </trkpt>
      <trkpt lat="43.97856" lon="2.24012">
        <ele>262</ele>
        <time>2021-02-25T13:16:42.599Z</time>
      </trkpt>
      <trkpt lat="43.97857" lon="2.24012">
        <ele>262</ele>
        <time>2021-02-25T13:16:43.599Z</time>
      </trkpt>
      <trkpt lat="43.97858" lon="2.24012">
        <ele>262</ele>
        <time>2021-02-25T13:16:44.599Z</time>
      </trkpt>
      <trkpt lat="43.97859" lon="2.24013">
        <ele>262</ele>
        <time>2021-02-25T13:16:45.599Z</time>
      </trkpt>
      <trkpt lat="43.9786" lon="2.24013">
        <ele>262</ele>
        <time>2021-02-25T13:16:46.599Z</time>
      </trkpt>
      <trkpt lat="43.97861" lon="2.24014">
        <ele>262</ele>
        <time>2021-02-25T13:16:47.599Z</time>
      </trkpt>
      <trkpt lat="43.97862" lon="2.24014">
        <ele>262</ele>
        <time>2021-02-25T13:16:48.599Z</time>
      </trkpt>
      <trkpt lat="43.97863" lon="2.24014">
        <ele>262</ele>
        <time>2021-02-25T13:16:49.599Z</time>
      </trkpt>
      <trkpt lat="43.97864" lon="2.24015">
        <ele>262</ele>
        <time>2021-02-25T13:16:50.599Z</time>
      </trkpt>
      <trkpt lat="43.97865" lon="2.24015">
        <ele>262</ele>
        <time>2021-02-25T13:16:51.599Z</time>
      </trkpt>
      <trkpt lat="43.97866" lon="2.24015">
        <ele>262</ele>
        <time>2021-02-25T13:16:52.599Z</time>
      </trkpt>
      <trkpt lat="43.97867" lon="2.24016">
        <ele>262</ele>
        <time>2021-02-25T13:16:53.599Z</time>
      </trkpt>
      <trkpt lat="43.97868" lon="2.24016">
        <ele>262</ele>
        <time>2021-02-25T13:16:54.599Z</time>
      </trkpt>
      <trkpt lat="43.97869" lon="2.24016">
        <ele>262</ele>
        <time>2021-02-25T13:16:55.599Z</time>
      </trkpt>
      <trkpt lat="43.9787" lon="2.24017">
        <ele>262</ele>
        <time>2021-02-25T13:16:56.599Z</time>
      </trkpt>
      <trkpt lat="43.97871" lon="2.24017">
        <ele>262</ele>
        <time>2021-02-25T13:16:57.599Z</time>
      </trkpt>
      <trkpt lat="43.97872" lon="2.24018">
        <ele>262</ele>
        <time>2021-02-25T13:16:58.599Z</time>
      </trkpt>
      <trkpt lat="43.97873" lon="2.24019">
        <ele>262</ele>
        <time>2021-02-25T13:16:59.599Z</time>
      </trkpt>
      <trkpt lat="43.97874" lon="2.24019">
        <ele>262</ele>
        <time>2021-02-25T13:17:00.599Z</time>
      </trkpt>
      <trkpt lat="43.97876" lon="2.2402">
        <ele>262</ele>
        <time>2021-02-25T13:17:01.599Z</time>
      </trkpt>
      <trkpt lat="43.97877" lon="2.2402">
        <ele>262</ele>
        <time>2021-02-25T13:17:02.599Z</time>
      </trkpt>
      <trkpt lat="43.97878" lon="2.24021">
        <ele>262</ele>
        <time>2021-02-25T13:17:03.599Z</time>
      </trkpt>
      <trkpt lat="43.97879" lon="2.24021">
        <ele>262</ele>
        <time>2021-02-25T13:17:04.599Z</time>
      </trkpt>
      <trkpt lat="43.97879" lon="2.24022">
        <ele>262</ele>
        <time>2021-02-25T13:17:05.599Z</time>
      </trkpt>
      <trkpt lat="43.97881" lon="2.24023">
        <ele>262</ele>
        <time>2021-02-25T13:17:06.599Z</time>
      </trkpt>
      <trkpt lat="43.97881" lon="2.24023">
        <ele>263</ele>
        <time>2021-02-25T13:17:07.599Z</time>
      </trkpt>
      <trkpt lat="43.97882" lon="2.24024">
        <ele>263</ele>
        <time>2021-02-25T13:17:08.599Z</time>
      </trkpt>
      <trkpt lat="43.97883" lon="2.24025">
        <ele>263</ele>
        <time>2021-02-25T13:17:09.599Z</time>
      </trkpt>
      <trkpt lat="43.97884" lon="2.24025">
        <ele>263</ele>
        <time>2021-02-25T13:17:10.599Z</time>
      </trkpt>
      <trkpt lat="43.97885" lon="2.24026">
        <ele>263</ele>
        <time>2021-02-25T13:17:11.599Z</time>
      </trkpt>
      <trkpt lat="43.97886" lon="2.24027">
        <ele>263</ele>
        <time>2021-02-25T13:17:12.599Z</time>
      </trkpt>
      <trkpt lat="43.97887" lon="2.24027">
        <ele>263</ele>
        <time>2021-02-25T13:17:13.599Z</time>
      </trkpt>
      <trkpt lat="43.97888" lon="2.24028">
        <ele>263</ele>
        <time>2021-02-25T13:17:14.599Z</time>
      </trkpt>
      <trkpt lat="43.97889" lon="2.24028">
        <ele>263</ele>
        <time>2021-02-25T13:17:15.599Z</time>
      </trkpt>
      <trkpt lat="43.97891" lon="2.24029">
        <ele>263</ele>
        <time>2021-02-25T13:17:16.599Z</time>
      </trkpt>
      <trkpt lat="43.97892" lon="2.2403">
        <ele>264</ele>
        <time>2021-02-25T13:17:17.599Z</time>
      </trkpt>
      <trkpt lat="43.97893" lon="2.24031">
        <ele>264</ele>
        <time>2021-02-25T13:17:18.599Z</time>
      </trkpt>
      <trkpt lat="43.97893" lon="2.24032">
        <ele>264</ele>
        <time>2021-02-25T13:17:19.599Z</time>
      </trkpt>
      <trkpt lat="43.97894" lon="2.24033">
        <ele>264</ele>
        <time>2021-02-25T13:17:20.599Z</time>
      </trkpt>
      <trkpt lat="43.97895" lon="2.24034">
        <ele>264</ele>
        <time>2021-02-25T13:17:21.599Z</time>
      </trkpt>
      <trkpt lat="43.97896" lon="2.24034">
        <ele>264</ele>
        <time>2021-02-25T13:17:22.599Z</time>
      </trkpt>
      <trkpt lat="43.97898" lon="2.24035">
        <ele>264</ele>
        <time>2021-02-25T13:17:23.599Z</time>
      </trkpt>
      <trkpt lat="43.97899" lon="2.24036">
        <ele>264</ele>
        <time>2021-02-25T13:17:24.599Z</time>
      </trkpt>
      <trkpt lat="43.979" lon="2.24036">
        <ele>265</ele>
        <time>2021-02-25T13:17:25.599Z</time>
      </trkpt>
      <trkpt lat="43.97901" lon="2.24037">
        <ele>265</ele>
        <time>2021-02-25T13:17:26.599Z</time>
      </trkpt>
      <trkpt lat="43.97902" lon="2.24038">
        <ele>265</ele>
        <time>2021-02-25T13:17:27.599Z</time>
      </trkpt>
      <trkpt lat="43.97902" lon="2.24039">
        <ele>265</ele>
        <time>2021-02-25T13:17:28.599Z</time>
      </trkpt>
      <trkpt lat="43.97903" lon="2.2404">
        <ele>265</ele>
        <time>2021-02-25T13:17:29.599Z</time>
      </trkpt>
      <trkpt lat="43.97904" lon="2.24041">
        <ele>265</ele>
        <time>2021-02-25T13:17:30.599Z</time>
      </trkpt>
      <trkpt lat="43.97905" lon="2.24042">
        <ele>265</ele>
        <time>2021-02-25T13:17:31.599Z</time>
      </trkpt>
      <trkpt lat="43.97906" lon="2.24043">
        <ele>265</ele>
        <time>2021-02-25T13:17:32.599Z</time>
      </trkpt>
      <trkpt lat="43.97907" lon="2.24044">
        <ele>265</ele>
        <time>2021-02-25T13:17:33.599Z</time>
      </trkpt>
      <trkpt lat="43.97908" lon="2.24045">
        <ele>265</ele>
        <time>2021-02-25T13:17:34.599Z</time>
      </trkpt>
      <trkpt lat="43.97909" lon="2.24046">
        <ele>265</ele>
        <time>2021-02-25T13:17:35.599Z</time>
      </trkpt>
      <trkpt lat="43.9791" lon="2.24047">
        <ele>265</ele>
        <time>2021-02-25T13:17:36.599Z</time>
      </trkpt>
      <trkpt lat="43.97911" lon="2.24047">
        <ele>265</ele>
        <time>2021-02-25T13:17:37.599Z</time>
      </trkpt>
      <trkpt lat="43.97912" lon="2.24048">
        <ele>265</ele>
        <time>2021-02-25T13:17:38.599Z</time>
      </trkpt>
      <trkpt lat="43.97913" lon="2.24049">
        <ele>265</ele>
        <time>2021-02-25T13:17:39.599Z</time>
      </trkpt>
      <trkpt lat="43.97914" lon="2.2405">
        <ele>265</ele>
        <time>2021-02-25T13:17:40.599Z</time>
      </trkpt>
      <trkpt lat="43.97915" lon="2.24051">
        <ele>265</ele>
        <time>2021-02-25T13:17:41.599Z</time>
      </trkpt>
      <trkpt lat="43.97916" lon="2.24052">
        <ele>265</ele>
        <time>2021-02-25T13:17:42.599Z</time>
      </trkpt>
      <trkpt lat="43.97917" lon="2.24053">
        <ele>266</ele>
        <time>2021-02-25T13:17:43.599Z</time>
      </trkpt>
      <trkpt lat="43.97917" lon="2.24054">
        <ele>266</ele>
        <time>2021-02-25T13:17:44.599Z</time>
      </trkpt>
      <trkpt lat="43.97918" lon="2.24055">
        <ele>266</ele>
        <time>2021-02-25T13:17:45.599Z</time>
      </trkpt>
      <trkpt lat="43.9792" lon="2.24056">
        <ele>266</ele>
        <time>2021-02-25T13:17:46.599Z</time>
      </trkpt>
      <trkpt lat="43.97921" lon="2.24057">
        <ele>266</ele>
        <time>2021-02-25T13:17:47.599Z</time>
      </trkpt>
      <trkpt lat="43.97922" lon="2.24059">
        <ele>266</ele>
        <time>2021-02-25T13:17:48.599Z</time>
      </trkpt>
      <trkpt lat="43.97923" lon="2.2406">
        <ele>266</ele>
        <time>2021-02-25T13:17:49.599Z</time>
      </trkpt>
      <trkpt lat="43.97924" lon="2.24061">
        <ele>266</ele>
        <time>2021-02-25T13:17:50.599Z</time>
      </trkpt>
      <trkpt lat="43.97925" lon="2.24061">
        <ele>267</ele>
        <time>2021-02-25T13:17:51.599Z</time>
      </trkpt>
      <trkpt lat="43.97925" lon="2.24062">
        <ele>267</ele>
        <time>2021-02-25T13:17:52.599Z</time>
      </trkpt>
      <trkpt lat="43.97926" lon="2.24063">
        <ele>267</ele>
        <time>2021-02-25T13:17:53.599Z</time>
      </trkpt>
      <trkpt lat="43.97927" lon="2.24064">
        <ele>267</ele>
        <time>2021-02-25T13:17:54.599Z</time>
      </trkpt>
      <trkpt lat="43.97928" lon="2.24065">
        <ele>267</ele>
        <time>2021-02-25T13:17:55.599Z</time>
      </trkpt>
      <trkpt lat="43.97929" lon="2.24066">
        <ele>267</ele>
        <time>2021-02-25T13:17:56.599Z</time>
      </trkpt>
      <trkpt lat="43.9793" lon="2.24066">
        <ele>267</ele>
        <time>2021-02-25T13:17:57.599Z</time>
      </trkpt>
      <trkpt lat="43.9793" lon="2.24067">
        <ele>267</ele>
        <time>2021-02-25T13:17:58.599Z</time>
      </trkpt>
      <trkpt lat="43.97931" lon="2.24068">
        <ele>268</ele>
        <time>2021-02-25T13:17:59.599Z</time>
      </trkpt>
      <trkpt lat="43.97932" lon="2.24069">
        <ele>268</ele>
        <time>2021-02-25T13:18:00.599Z</time>
      </trkpt>
      <trkpt lat="43.97932" lon="2.2407">
        <ele>268</ele>
        <time>2021-02-25T13:18:01.599Z</time>
      </trkpt>
      <trkpt lat="43.97933" lon="2.2407">
        <ele>268</ele>
        <time>2021-02-25T13:18:02.599Z</time>
      </trkpt>
      <trkpt lat="43.97933" lon="2.24071">
        <ele>268</ele>
        <time>2021-02-25T13:18:03.599Z</time>
      </trkpt>
      <trkpt lat="43.97934" lon="2.24072">
        <ele>268</ele>
        <time>2021-02-25T13:18:04.599Z</time>
      </trkpt>
      <trkpt lat="43.97935" lon="2.24073">
        <ele>268</ele>
        <time>2021-02-25T13:18:05.599Z</time>
      </trkpt>
      <trkpt lat="43.97935" lon="2.24074">
        <ele>268</ele>
        <time>2021-02-25T13:18:06.599Z</time>
      </trkpt>
      <trkpt lat="43.97936" lon="2.24074">
        <ele>269</ele>
        <time>2021-02-25T13:18:07.599Z</time>
      </trkpt>
      <trkpt lat="43.97937" lon="2.24075">
        <ele>269</ele>
        <time>2021-02-25T13:18:08.599Z</time>
      </trkpt>
      <trkpt lat="43.97937" lon="2.24076">
        <ele>269</ele>
        <time>2021-02-25T13:18:09.599Z</time>
      </trkpt>
      <trkpt lat="43.97938" lon="2.24076">
        <ele>269</ele>
        <time>2021-02-25T13:18:10.599Z</time>
      </trkpt>
      <trkpt lat="43.97938" lon="2.24077">
        <ele>269</ele>
        <time>2021-02-25T13:18:11.599Z</time>
      </trkpt>
      <trkpt lat="43.97939" lon="2.24077">
        <ele>269</ele>
        <time>2021-02-25T13:18:12.599Z</time>
      </trkpt>
      <trkpt lat="43.9794" lon="2.24078">
        <ele>269</ele>
        <time>2021-02-25T13:18:13.599Z</time>
      </trkpt>
      <trkpt lat="43.9794" lon="2.24079">
        <ele>269</ele>
        <time>2021-02-25T13:18:14.599Z</time>
      </trkpt>
      <trkpt lat="43.97941" lon="2.2408">
        <ele>269</ele>
        <time>2021-02-25T13:18:15.599Z</time>
      </trkpt>
      <trkpt lat="43.97942" lon="2.24081">
        <ele>269</ele>
        <time>2021-02-25T13:18:16.599Z</time>
      </trkpt>
      <trkpt lat="43.97943" lon="2.24082">
        <ele>270</ele>
        <time>2021-02-25T13:18:17.599Z</time>
      </trkpt>
      <trkpt lat="43.97944" lon="2.24083">
        <ele>270</ele>
        <time>2021-02-25T13:18:18.599Z</time>
      </trkpt>
      <trkpt lat="43.97945" lon="2.24084">
        <ele>269</ele>
        <time>2021-02-25T13:18:19.599Z</time>
      </trkpt>
      <trkpt lat="43.97945" lon="2.24085">
        <ele>269</ele>
        <time>2021-02-25T13:18:20.599Z</time>
      </trkpt>
      <trkpt lat="43.97946" lon="2.24086">
        <ele>269</ele>
        <time>2021-02-25T13:18:21.599Z</time>
      </trkpt>
      <trkpt lat="43.97946" lon="2.24087">
        <ele>269</ele>
        <time>2021-02-25T13:18:22.599Z</time>
      </trkpt>
      <trkpt lat="43.97947" lon="2.24088">
        <ele>269</ele>
        <time>2021-02-25T13:18:23.599Z</time>
      </trkpt>
      <trkpt lat="43.97948" lon="2.24089">
        <ele>269</ele>
        <time>2021-02-25T13:18:24.599Z</time>
      </trkpt>
      <trkpt lat="43.97948" lon="2.2409">
        <ele>269</ele>
        <time>2021-02-25T13:18:25.599Z</time>
      </trkpt>
      <trkpt lat="43.97949" lon="2.24091">
        <ele>269</ele>
        <time>2021-02-25T13:18:26.599Z</time>
      </trkpt>
      <trkpt lat="43.9795" lon="2.24092">
        <ele>269</ele>
        <time>2021-02-25T13:18:27.599Z</time>
      </trkpt>
      <trkpt lat="43.97951" lon="2.24093">
        <ele>268</ele>
        <time>2021-02-25T13:18:28.599Z</time>
      </trkpt>
      <trkpt lat="43.97952" lon="2.24094">
        <ele>268</ele>
        <time>2021-02-25T13:18:29.599Z</time>
      </trkpt>
      <trkpt lat="43.97952" lon="2.24095">
        <ele>268</ele>
        <time>2021-02-25T13:18:30.599Z</time>
      </trkpt>
      <trkpt lat="43.97953" lon="2.24096">
        <ele>268</ele>
        <time>2021-02-25T13:18:31.599Z</time>
      </trkpt>
      <trkpt lat="43.97954" lon="2.24097">
        <ele>268</ele>
        <time>2021-02-25T13:18:32.599Z</time>
      </trkpt>
      <trkpt lat="43.97955" lon="2.24098">
        <ele>268</ele>
        <time>2021-02-25T13:18:33.599Z</time>
      </trkpt>
      <trkpt lat="43.97956" lon="2.241">
        <ele>268</ele>
        <time>2021-02-25T13:18:34.599Z</time>
      </trkpt>
      <trkpt lat="43.97957" lon="2.24101">
        <ele>268</ele>
        <time>2021-02-25T13:18:35.599Z</time>
      </trkpt>
      <trkpt lat="43.97958" lon="2.24102">
        <ele>267</ele>
        <time>2021-02-25T13:18:36.599Z</time>
      </trkpt>
      <trkpt lat="43.97959" lon="2.24103">
        <ele>267</ele>
        <time>2021-02-25T13:18:37.599Z</time>
      </trkpt>
      <trkpt lat="43.97961" lon="2.24104">
        <ele>267</ele>
        <time>2021-02-25T13:18:38.599Z</time>
      </trkpt>
      <trkpt lat="43.97962" lon="2.24105">
        <ele>267</ele>
        <time>2021-02-25T13:18:39.599Z</time>
      </trkpt>
      <trkpt lat="43.97963" lon="2.24106">
        <ele>266</ele>
        <time>2021-02-25T13:18:40.599Z</time>
      </trkpt>
      <trkpt lat="43.97964" lon="2.24107">
        <ele>266</ele>
        <time>2021-02-25T13:18:41.599Z</time>
      </trkpt>
      <trkpt lat="43.97965" lon="2.24108">
        <ele>266</ele>
        <time>2021-02-25T13:18:42.599Z</time>
      </trkpt>
      <trkpt lat="43.97967" lon="2.2411">
        <ele>265</ele>
        <time>2021-02-25T13:18:43.599Z</time>
      </trkpt>
      <trkpt lat="43.97968" lon="2.24111">
        <ele>265</ele>
        <time>2021-02-25T13:18:44.599Z</time>
      </trkpt>
      <trkpt lat="43.97969" lon="2.24113">
        <ele>264</ele>
        <time>2021-02-25T13:18:45.599Z</time>
      </trkpt>
      <trkpt lat="43.9797" lon="2.24114">
        <ele>264</ele>
        <time>2021-02-25T13:18:46.599Z</time>
      </trkpt>
      <trkpt lat="43.97971" lon="2.24116">
        <ele>263</ele>
        <time>2021-02-25T13:18:47.599Z</time>
      </trkpt>
      <trkpt lat="43.97972" lon="2.24117">
        <ele>263</ele>
        <time>2021-02-25T13:18:48.599Z</time>
      </trkpt>
      <trkpt lat="43.97974" lon="2.24119">
        <ele>263</ele>
        <time>2021-02-25T13:18:49.599Z</time>
      </trkpt>
      <trkpt lat="43.97975" lon="2.2412">
        <ele>262</ele>
        <time>2021-02-25T13:18:50.599Z</time>
      </trkpt>
      <trkpt lat="43.97976" lon="2.24122">
        <ele>262</ele>
        <time>2021-02-25T13:18:51.599Z</time>
      </trkpt>
      <trkpt lat="43.97977" lon="2.24123">
        <ele>261</ele>
        <time>2021-02-25T13:18:52.599Z</time>
      </trkpt>
      <trkpt lat="43.97978" lon="2.24125">
        <ele>261</ele>
        <time>2021-02-25T13:18:53.599Z</time>
      </trkpt>
      <trkpt lat="43.97979" lon="2.24126">
        <ele>261</ele>
        <time>2021-02-25T13:18:54.599Z</time>
      </trkpt>
      <trkpt lat="43.9798" lon="2.24127">
        <ele>261</ele>
        <time>2021-02-25T13:18:55.599Z</time>
      </trkpt>
      <trkpt lat="43.97981" lon="2.24128">
        <ele>260</ele>
        <time>2021-02-25T13:18:56.599Z</time>
      </trkpt>
      <trkpt lat="43.97982" lon="2.24129">
        <ele>260</ele>
        <time>2021-02-25T13:18:57.599Z</time>
      </trkpt>
      <trkpt lat="43.97983" lon="2.2413">
        <ele>260</ele>
        <time>2021-02-25T13:18:58.599Z</time>
      </trkpt>
      <trkpt lat="43.97984" lon="2.24132">
        <ele>260</ele>
        <time>2021-02-25T13:18:59.599Z</time>
      </trkpt>
      <trkpt lat="43.97985" lon="2.24133">
        <ele>259</ele>
        <time>2021-02-25T13:19:00.599Z</time>
      </trkpt>
      <trkpt lat="43.97986" lon="2.24134">
        <ele>259</ele>
        <time>2021-02-25T13:19:01.599Z</time>
      </trkpt>
      <trkpt lat="43.97987" lon="2.24135">
        <ele>259</ele>
        <time>2021-02-25T13:19:02.599Z</time>
      </trkpt>
      <trkpt lat="43.97988" lon="2.24137">
        <ele>259</ele>
        <time>2021-02-25T13:19:03.599Z</time>
      </trkpt>
      <trkpt lat="43.97988" lon="2.24138">
        <ele>259</ele>
        <time>2021-02-25T13:19:04.599Z</time>
      </trkpt>
      <trkpt lat="43.97989" lon="2.2414">
        <ele>259</ele>
        <time>2021-02-25T13:19:05.599Z</time>
      </trkpt>
      <trkpt lat="43.97989" lon="2.24141">
        <ele>259</ele>
        <time>2021-02-25T13:19:06.599Z</time>
      </trkpt>
      <trkpt lat="43.97989" lon="2.24143">
        <ele>259</ele>
        <time>2021-02-25T13:19:07.599Z</time>
      </trkpt>
      <trkpt lat="43.9799" lon="2.24145">
        <ele>259</ele>
        <time>2021-02-25T13:19:08.599Z</time>
      </trkpt>
      <trkpt lat="43.9799" lon="2.24146">
        <ele>259</ele>
        <time>2021-02-25T13:19:09.599Z</time>
      </trkpt>
      <trkpt lat="43.97991" lon="2.24147">
        <ele>259</ele>
        <time>2021-02-25T13:19:10.599Z</time>
      </trkpt>
      <trkpt lat="43.97991" lon="2.24149">
        <ele>259</ele>
        <time>2021-02-25T13:19:11.599Z</time>
      </trkpt>
      <trkpt lat="43.97991" lon="2.2415">
        <ele>259</ele>
        <time>2021-02-25T13:19:12.599Z</time>
      </trkpt>
      <trkpt lat="43.97991" lon="2.24151">
        <ele>259</ele>
        <time>2021-02-25T13:19:13.599Z</time>
      </trkpt>
      <trkpt lat="43.97991" lon="2.24152">
        <ele>259</ele>
        <time>2021-02-25T13:19:14.599Z</time>
      </trkpt>
      <trkpt lat="43.9799" lon="2.24154">
        <ele>259</ele>
        <time>2021-02-25T13:19:15.599Z</time>
      </trkpt>
      <trkpt lat="43.9799" lon="2.24155">
        <ele>259</ele>
        <time>2021-02-25T13:19:16.599Z</time>
      </trkpt>
      <trkpt lat="43.97989" lon="2.24157">
        <ele>259</ele>
        <time>2021-02-25T13:19:17.599Z</time>
      </trkpt>
      <trkpt lat="43.97989" lon="2.24158">
        <ele>259</ele>
        <time>2021-02-25T13:19:18.599Z</time>
      </trkpt>
      <trkpt lat="43.97988" lon="2.24159">
        <ele>259</ele>
        <time>2021-02-25T13:19:19.599Z</time>
      </trkpt>
      <trkpt lat="43.97988" lon="2.2416">
        <ele>259</ele>
        <time>2021-02-25T13:19:20.599Z</time>
      </trkpt>
      <trkpt lat="43.97987" lon="2.24161">
        <ele>259</ele>
        <time>2021-02-25T13:19:21.599Z</time>
      </trkpt>
      <trkpt lat="43.97986" lon="2.24162">
        <ele>259</ele>
        <time>2021-02-25T13:19:22.599Z</time>
      </trkpt>
      <trkpt lat="43.97985" lon="2.24163">
        <ele>259</ele>
        <time>2021-02-25T13:19:23.599Z</time>
      </trkpt>
      <trkpt lat="43.97985" lon="2.24164">
        <ele>259</ele>
        <time>2021-02-25T13:19:24.599Z</time>
      </trkpt>
      <trkpt lat="43.97984" lon="2.24165">
        <ele>259</ele>
        <time>2021-02-25T13:19:25.599Z</time>
      </trkpt>
      <trkpt lat="43.97983" lon="2.24167">
        <ele>259</ele>
        <time>2021-02-25T13:19:26.599Z</time>
      </trkpt>
      <trkpt lat="43.97983" lon="2.24168">
        <ele>259</ele>
        <time>2021-02-25T13:19:27.599Z</time>
      </trkpt>
      <trkpt lat="43.97982" lon="2.2417">
        <ele>259</ele>
        <time>2021-02-25T13:19:28.599Z</time>
      </trkpt>
      <trkpt lat="43.97982" lon="2.24171">
        <ele>259</ele>
        <time>2021-02-25T13:19:29.599Z</time>
      </trkpt>
      <trkpt lat="43.97981" lon="2.24172">
        <ele>259</ele>
        <time>2021-02-25T13:19:30.599Z</time>
      </trkpt>
      <trkpt lat="43.97981" lon="2.24174">
        <ele>258</ele>
        <time>2021-02-25T13:19:31.599Z</time>
      </trkpt>
      <trkpt lat="43.97981" lon="2.24175">
        <ele>259</ele>
        <time>2021-02-25T13:19:32.599Z</time>
      </trkpt>
      <trkpt lat="43.97981" lon="2.24177">
        <ele>259</ele>
        <time>2021-02-25T13:19:33.599Z</time>
      </trkpt>
      <trkpt lat="43.9798" lon="2.24178">
        <ele>259</ele>
        <time>2021-02-25T13:19:34.599Z</time>
      </trkpt>
      <trkpt lat="43.9798" lon="2.24179">
        <ele>259</ele>
        <time>2021-02-25T13:19:35.599Z</time>
      </trkpt>
      <trkpt lat="43.9798" lon="2.2418">
        <ele>259</ele>
        <time>2021-02-25T13:19:36.599Z</time>
      </trkpt>
      <trkpt lat="43.9798" lon="2.24182">
        <ele>259</ele>
        <time>2021-02-25T13:19:37.599Z</time>
      </trkpt>
      <trkpt lat="43.97979" lon="2.24183">
        <ele>259</ele>
        <time>2021-02-25T13:19:38.599Z</time>
      </trkpt>
      <trkpt lat="43.97979" lon="2.24184">
        <ele>259</ele>
        <time>2021-02-25T13:19:39.599Z</time>
      </trkpt>
      <trkpt lat="43.97979" lon="2.24185">
        <ele>259</ele>
        <time>2021-02-25T13:19:40.599Z</time>
      </trkpt>
      <trkpt lat="43.97978" lon="2.24186">
        <ele>259</ele>
        <time>2021-02-25T13:19:41.599Z</time>
      </trkpt>
      <trkpt lat="43.97978" lon="2.24187">
        <ele>259</ele>
        <time>2021-02-25T13:19:42.599Z</time>
      </trkpt>
      <trkpt lat="43.97977" lon="2.24188">
        <ele>259</ele>
        <time>2021-02-25T13:19:43.599Z</time>
      </trkpt>
      <trkpt lat="43.97977" lon="2.24189">
        <ele>259</ele>
        <time>2021-02-25T13:19:44.599Z</time>
      </trkpt>
      <trkpt lat="43.97976" lon="2.2419">
        <ele>259</ele>
        <time>2021-02-25T13:19:45.599Z</time>
      </trkpt>
      <trkpt lat="43.97976" lon="2.24191">
        <ele>259</ele>
        <time>2021-02-25T13:19:46.599Z</time>
      </trkpt>
      <trkpt lat="43.97975" lon="2.24192">
        <ele>259</ele>
        <time>2021-02-25T13:19:47.599Z</time>
      </trkpt>
      <trkpt lat="43.97975" lon="2.24193">
        <ele>259</ele>
        <time>2021-02-25T13:19:48.599Z</time>
      </trkpt>
      <trkpt lat="43.97975" lon="2.24194">
        <ele>259</ele>
        <time>2021-02-25T13:19:49.599Z</time>
      </trkpt>
      <trkpt lat="43.97975" lon="2.24195">
        <ele>259</ele>
        <time>2021-02-25T13:19:50.599Z</time>
      </trkpt>
      <trkpt lat="43.97974" lon="2.24198">
        <ele>260</ele>
        <time>2021-02-25T13:19:51.599Z</time>
      </trkpt>
      <trkpt lat="43.97973" lon="2.24199">
        <ele>260</ele>
        <time>2021-02-25T13:19:52.599Z</time>
      </trkpt>
      <trkpt lat="43.97973" lon="2.242">
        <ele>260</ele>
        <time>2021-02-25T13:19:53.599Z</time>
      </trkpt>
      <trkpt lat="43.97972" lon="2.24201">
        <ele>260</ele>
        <time>2021-02-25T13:19:54.599Z</time>
      </trkpt>
      <trkpt lat="43.97971" lon="2.24203">
        <ele>261</ele>
        <time>2021-02-25T13:19:55.599Z</time>
      </trkpt>
      <trkpt lat="43.9797" lon="2.24204">
        <ele>261</ele>
        <time>2021-02-25T13:19:56.599Z</time>
      </trkpt>
      <trkpt lat="43.9797" lon="2.24205">
        <ele>261</ele>
        <time>2021-02-25T13:19:57.599Z</time>
      </trkpt>
      <trkpt lat="43.97969" lon="2.24207">
        <ele>261</ele>
        <time>2021-02-25T13:19:58.599Z</time>
      </trkpt>
      <trkpt lat="43.97968" lon="2.24208">
        <ele>261</ele>
        <time>2021-02-25T13:19:59.599Z</time>
      </trkpt>
      <trkpt lat="43.97968" lon="2.24209">
        <ele>261</ele>
        <time>2021-02-25T13:20:00.599Z</time>
      </trkpt>
      <trkpt lat="43.97968" lon="2.24211">
        <ele>261</ele>
        <time>2021-02-25T13:20:01.599Z</time>
      </trkpt>
      <trkpt lat="43.97968" lon="2.24212">
        <ele>261</ele>
        <time>2021-02-25T13:20:02.599Z</time>
      </trkpt>
      <trkpt lat="43.97968" lon="2.24213">
        <ele>261</ele>
        <time>2021-02-25T13:20:03.599Z</time>
      </trkpt>
      <trkpt lat="43.97968" lon="2.24215">
        <ele>261</ele>
        <time>2021-02-25T13:20:04.599Z</time>
      </trkpt>
      <trkpt lat="43.97968" lon="2.24216">
        <ele>261</ele>
        <time>2021-02-25T13:20:05.599Z</time>
      </trkpt>
      <trkpt lat="43.97968" lon="2.24218">
        <ele>261</ele>
        <time>2021-02-25T13:20:06.599Z</time>
      </trkpt>
      <trkpt lat="43.97968" lon="2.2422">
        <ele>261</ele>
        <time>2021-02-25T13:20:07.599Z</time>
      </trkpt>
      <trkpt lat="43.97969" lon="2.24222">
        <ele>261</ele>
        <time>2021-02-25T13:20:08.599Z</time>
      </trkpt>
      <trkpt lat="43.97969" lon="2.24224">
        <ele>261</ele>
        <time>2021-02-25T13:20:09.599Z</time>
      </trkpt>
      <trkpt lat="43.97969" lon="2.24226">
        <ele>261</ele>
        <time>2021-02-25T13:20:10.599Z</time>
      </trkpt>
      <trkpt lat="43.97969" lon="2.24227">
        <ele>261</ele>
        <time>2021-02-25T13:20:11.599Z</time>
      </trkpt>
      <trkpt lat="43.9797" lon="2.24229">
        <ele>261</ele>
        <time>2021-02-25T13:20:12.599Z</time>
      </trkpt>
      <trkpt lat="43.9797" lon="2.24231">
        <ele>261</ele>
        <time>2021-02-25T13:20:13.599Z</time>
      </trkpt>
      <trkpt lat="43.9797" lon="2.24232">
        <ele>262</ele>
        <time>2021-02-25T13:20:14.599Z</time>
      </trkpt>
      <trkpt lat="43.97971" lon="2.24234">
        <ele>262</ele>
        <time>2021-02-25T13:20:15.599Z</time>
      </trkpt>
      <trkpt lat="43.97971" lon="2.24235">
        <ele>262</ele>
        <time>2021-02-25T13:20:16.599Z</time>
      </trkpt>
      <trkpt lat="43.97971" lon="2.24235">
        <ele>262</ele>
        <time>2021-02-25T13:20:17.599Z</time>
      </trkpt>
      <trkpt lat="43.97972" lon="2.24236">
        <ele>262</ele>
        <time>2021-02-25T13:20:18.599Z</time>
      </trkpt>
      <trkpt lat="43.97972" lon="2.24237">
        <ele>262</ele>
        <time>2021-02-25T13:20:19.599Z</time>
      </trkpt>
      <trkpt lat="43.97971" lon="2.24241">
        <ele>262</ele>
        <time>2021-02-25T13:20:20.599Z</time>
      </trkpt>
      <trkpt lat="43.97971" lon="2.24242">
        <ele>262</ele>
        <time>2021-02-25T13:20:21.599Z</time>
      </trkpt>
      <trkpt lat="43.97971" lon="2.24243">
        <ele>262</ele>
        <time>2021-02-25T13:20:22.599Z</time>
      </trkpt>
      <trkpt lat="43.9797" lon="2.24245">
        <ele>262</ele>
        <time>2021-02-25T13:20:23.599Z</time>
      </trkpt>
      <trkpt lat="43.9797" lon="2.24246">
        <ele>261</ele>
        <time>2021-02-25T13:20:24.599Z</time>
      </trkpt>
      <trkpt lat="43.9797" lon="2.24248">
        <ele>261</ele>
        <time>2021-02-25T13:20:25.599Z</time>
      </trkpt>
      <trkpt lat="43.97969" lon="2.24249">
        <ele>261</ele>
        <time>2021-02-25T13:20:26.599Z</time>
      </trkpt>
      <trkpt lat="43.97969" lon="2.2425">
        <ele>261</ele>
        <time>2021-02-25T13:20:27.599Z</time>
      </trkpt>
      <trkpt lat="43.97969" lon="2.24252">
        <ele>261</ele>
        <time>2021-02-25T13:20:28.599Z</time>
      </trkpt>
      <trkpt lat="43.97968" lon="2.24253">
        <ele>261</ele>
        <time>2021-02-25T13:20:29.599Z</time>
      </trkpt>
      <trkpt lat="43.97968" lon="2.24254">
        <ele>261</ele>
        <time>2021-02-25T13:20:30.599Z</time>
      </trkpt>
      <trkpt lat="43.97968" lon="2.24254">
        <ele>261</ele>
        <time>2021-02-25T13:20:31.599Z</time>
      </trkpt>
      <trkpt lat="43.97967" lon="2.24254">
        <ele>261</ele>
        <time>2021-02-25T13:20:32.599Z</time>
      </trkpt>
      <trkpt lat="43.97967" lon="2.24255">
        <ele>261</ele>
        <time>2021-02-25T13:20:33.599Z</time>
      </trkpt>
      <trkpt lat="43.97967" lon="2.24257">
        <ele>260</ele>
        <time>2021-02-25T13:20:34.599Z</time>
      </trkpt>
      <trkpt lat="43.97967" lon="2.24257">
        <ele>260</ele>
        <time>2021-02-25T13:20:35.599Z</time>
      </trkpt>
      <trkpt lat="43.97965" lon="2.24261">
        <ele>261</ele>
        <time>2021-02-25T13:20:36.599Z</time>
      </trkpt>
      <trkpt lat="43.97965" lon="2.24262">
        <ele>261</ele>
        <time>2021-02-25T13:20:37.599Z</time>
      </trkpt>
      <trkpt lat="43.97964" lon="2.24263">
        <ele>260</ele>
        <time>2021-02-25T13:20:38.599Z</time>
      </trkpt>
      <trkpt lat="43.97964" lon="2.24265">
        <ele>260</ele>
        <time>2021-02-25T13:20:39.599Z</time>
      </trkpt>
      <trkpt lat="43.97964" lon="2.24266">
        <ele>260</ele>
        <time>2021-02-25T13:20:40.599Z</time>
      </trkpt>
      <trkpt lat="43.97965" lon="2.24267">
        <ele>260</ele>
        <time>2021-02-25T13:20:41.599Z</time>
      </trkpt>
      <trkpt lat="43.97965" lon="2.24268">
        <ele>260</ele>
        <time>2021-02-25T13:20:42.599Z</time>
      </trkpt>
      <trkpt lat="43.97964" lon="2.2427">
        <ele>260</ele>
        <time>2021-02-25T13:20:43.599Z</time>
      </trkpt>
      <trkpt lat="43.97964" lon="2.24271">
        <ele>260</ele>
        <time>2021-02-25T13:20:44.599Z</time>
      </trkpt>
      <trkpt lat="43.97964" lon="2.24272">
        <ele>260</ele>
        <time>2021-02-25T13:20:45.599Z</time>
      </trkpt>
      <trkpt lat="43.97964" lon="2.24274">
        <ele>260</ele>
        <time>2021-02-25T13:20:46.599Z</time>
      </trkpt>
      <trkpt lat="43.97963" lon="2.24275">
        <ele>260</ele>
        <time>2021-02-25T13:20:47.599Z</time>
      </trkpt>
      <trkpt lat="43.97963" lon="2.24277">
        <ele>260</ele>
        <time>2021-02-25T13:20:48.599Z</time>
      </trkpt>
      <trkpt lat="43.97962" lon="2.24278">
        <ele>260</ele>
        <time>2021-02-25T13:20:49.599Z</time>
      </trkpt>
      <trkpt lat="43.97962" lon="2.24279">
        <ele>260</ele>
        <time>2021-02-25T13:20:50.599Z</time>
      </trkpt>
      <trkpt lat="43.97961" lon="2.2428">
        <ele>260</ele>
        <time>2021-02-25T13:20:51.599Z</time>
      </trkpt>
      <trkpt lat="43.97961" lon="2.24282">
        <ele>260</ele>
        <time>2021-02-25T13:20:52.599Z</time>
      </trkpt>
      <trkpt lat="43.9796" lon="2.24283">
        <ele>260</ele>
        <time>2021-02-25T13:20:53.599Z</time>
      </trkpt>
      <trkpt lat="43.9796" lon="2.24284">
        <ele>260</ele>
        <time>2021-02-25T13:20:54.599Z</time>
      </trkpt>
      <trkpt lat="43.9796" lon="2.24285">
        <ele>260</ele>
        <time>2021-02-25T13:20:55.599Z</time>
      </trkpt>
      <trkpt lat="43.97959" lon="2.24287">
        <ele>260</ele>
        <time>2021-02-25T13:20:56.599Z</time>
      </trkpt>
      <trkpt lat="43.97959" lon="2.24288">
        <ele>260</ele>
        <time>2021-02-25T13:20:57.599Z</time>
      </trkpt>
      <trkpt lat="43.97958" lon="2.24289">
        <ele>260</ele>
        <time>2021-02-25T13:20:58.599Z</time>
      </trkpt>
      <trkpt lat="43.97958" lon="2.24291">
        <ele>260</ele>
        <time>2021-02-25T13:20:59.599Z</time>
      </trkpt>
      <trkpt lat="43.97957" lon="2.24292">
        <ele>260</ele>
        <time>2021-02-25T13:21:00.599Z</time>
      </trkpt>
      <trkpt lat="43.97957" lon="2.24294">
        <ele>260</ele>
        <time>2021-02-25T13:21:01.599Z</time>
      </trkpt>
      <trkpt lat="43.97957" lon="2.24295">
        <ele>259</ele>
        <time>2021-02-25T13:21:02.599Z</time>
      </trkpt>
      <trkpt lat="43.97957" lon="2.24297">
        <ele>259</ele>
        <time>2021-02-25T13:21:03.599Z</time>
      </trkpt>
      <trkpt lat="43.97957" lon="2.24298">
        <ele>259</ele>
        <time>2021-02-25T13:21:04.599Z</time>
      </trkpt>
      <trkpt lat="43.97957" lon="2.243">
        <ele>259</ele>
        <time>2021-02-25T13:21:05.599Z</time>
      </trkpt>
      <trkpt lat="43.97957" lon="2.24301">
        <ele>258</ele>
        <time>2021-02-25T13:21:06.599Z</time>
      </trkpt>
      <trkpt lat="43.97957" lon="2.24303">
        <ele>258</ele>
        <time>2021-02-25T13:21:07.599Z</time>
      </trkpt>
      <trkpt lat="43.97957" lon="2.24304">
        <ele>258</ele>
        <time>2021-02-25T13:21:08.599Z</time>
      </trkpt>
      <trkpt lat="43.97957" lon="2.24305">
        <ele>258</ele>
        <time>2021-02-25T13:21:09.599Z</time>
      </trkpt>
      <trkpt lat="43.97958" lon="2.24307">
        <ele>258</ele>
        <time>2021-02-25T13:21:10.599Z</time>
      </trkpt>
      <trkpt lat="43.97958" lon="2.24307">
        <ele>257</ele>
        <time>2021-02-25T13:21:11.599Z</time>
      </trkpt>
      <trkpt lat="43.97958" lon="2.24307">
        <ele>257</ele>
        <time>2021-02-25T13:21:12.599Z</time>
      </trkpt>
      <trkpt lat="43.97958" lon="2.24308">
        <ele>257</ele>
        <time>2021-02-25T13:21:13.599Z</time>
      </trkpt>
      <trkpt lat="43.97958" lon="2.24308">
        <ele>257</ele>
        <time>2021-02-25T13:21:14.599Z</time>
      </trkpt>
      <trkpt lat="43.97957" lon="2.24309">
        <ele>257</ele>
        <time>2021-02-25T13:21:15.599Z</time>
      </trkpt>
      <trkpt lat="43.97957" lon="2.2431">
        <ele>257</ele>
        <time>2021-02-25T13:21:16.599Z</time>
      </trkpt>
      <trkpt lat="43.97957" lon="2.24312">
        <ele>257</ele>
        <time>2021-02-25T13:21:17.599Z</time>
      </trkpt>
      <trkpt lat="43.97957" lon="2.24313">
        <ele>257</ele>
        <time>2021-02-25T13:21:18.599Z</time>
      </trkpt>
      <trkpt lat="43.97957" lon="2.24314">
        <ele>257</ele>
        <time>2021-02-25T13:21:19.599Z</time>
      </trkpt>
      <trkpt lat="43.97957" lon="2.24315">
        <ele>257</ele>
        <time>2021-02-25T13:21:20.599Z</time>
      </trkpt>
      <trkpt lat="43.97956" lon="2.24316">
        <ele>256</ele>
        <time>2021-02-25T13:21:21.599Z</time>
      </trkpt>
      <trkpt lat="43.97955" lon="2.24317">
        <ele>256</ele>
        <time>2021-02-25T13:21:22.599Z</time>
      </trkpt>
      <trkpt lat="43.97955" lon="2.24318">
        <ele>256</ele>
        <time>2021-02-25T13:21:23.599Z</time>
      </trkpt>
      <trkpt lat="43.97954" lon="2.24319">
        <ele>256</ele>
        <time>2021-02-25T13:21:24.599Z</time>
      </trkpt>
      <trkpt lat="43.97954" lon="2.2432">
        <ele>256</ele>
        <time>2021-02-25T13:21:25.599Z</time>
      </trkpt>
      <trkpt lat="43.97953" lon="2.24321">
        <ele>256</ele>
        <time>2021-02-25T13:21:26.599Z</time>
      </trkpt>
      <trkpt lat="43.97953" lon="2.24322">
        <ele>256</ele>
        <time>2021-02-25T13:21:27.599Z</time>
      </trkpt>
      <trkpt lat="43.97952" lon="2.24323">
        <ele>256</ele>
        <time>2021-02-25T13:21:28.599Z</time>
      </trkpt>
      <trkpt lat="43.97952" lon="2.24323">
        <ele>256</ele>
        <time>2021-02-25T13:21:29.599Z</time>
      </trkpt>
      <trkpt lat="43.97951" lon="2.24324">
        <ele>256</ele>
        <time>2021-02-25T13:21:30.599Z</time>
      </trkpt>
      <trkpt lat="43.97951" lon="2.24325">
        <ele>256</ele>
        <time>2021-02-25T13:21:31.599Z</time>
      </trkpt>
      <trkpt lat="43.97951" lon="2.24326">
        <ele>256</ele>
        <time>2021-02-25T13:21:32.599Z</time>
      </trkpt>
      <trkpt lat="43.9795" lon="2.24327">
        <ele>256</ele>
        <time>2021-02-25T13:21:33.599Z</time>
      </trkpt>
      <trkpt lat="43.9795" lon="2.24328">
        <ele>257</ele>
        <time>2021-02-25T13:21:34.599Z</time>
      </trkpt>
      <trkpt lat="43.97949" lon="2.24328">
        <ele>257</ele>
        <time>2021-02-25T13:21:35.599Z</time>
      </trkpt>
      <trkpt lat="43.97949" lon="2.24329">
        <ele>257</ele>
        <time>2021-02-25T13:21:36.599Z</time>
      </trkpt>
      <trkpt lat="43.97948" lon="2.24329">
        <ele>257</ele>
        <time>2021-02-25T13:21:37.599Z</time>
      </trkpt>
      <trkpt lat="43.97948" lon="2.24329">
        <ele>257</ele>
        <time>2021-02-25T13:21:38.599Z</time>
      </trkpt>
      <trkpt lat="43.97948" lon="2.2433">
        <ele>258</ele>
        <time>2021-02-25T13:21:39.599Z</time>
      </trkpt>
      <trkpt lat="43.97948" lon="2.2433">
        <ele>258</ele>
        <time>2021-02-25T13:21:40.599Z</time>
      </trkpt>
      <trkpt lat="43.97953" lon="2.24332">
        <ele>263</ele>
        <time>2021-02-25T13:21:41.599Z</time>
      </trkpt>
      <trkpt lat="43.97953" lon="2.24332">
        <ele>263</ele>
        <time>2021-02-25T13:21:42.599Z</time>
      </trkpt>
      <trkpt lat="43.97953" lon="2.24332">
        <ele>263</ele>
        <time>2021-02-25T13:21:43.599Z</time>
      </trkpt>
      <trkpt lat="43.97953" lon="2.24332">
        <ele>263</ele>
        <time>2021-02-25T13:21:44.599Z</time>
      </trkpt>
      <trkpt lat="43.97953" lon="2.24332">
        <ele>263</ele>
        <time>2021-02-25T13:21:45.599Z</time>
      </trkpt>
      <trkpt lat="43.97953" lon="2.24334">
        <ele>263</ele>
        <time>2021-02-25T13:21:46.599Z</time>
      </trkpt>
      <trkpt lat="43.97953" lon="2.24334">
        <ele>264</ele>
        <time>2021-02-25T13:21:47.599Z</time>
      </trkpt>
      <trkpt lat="43.97952" lon="2.24334">
        <ele>264</ele>
        <time>2021-02-25T13:21:48.599Z</time>
      </trkpt>
      <trkpt lat="43.97946" lon="2.24328">
        <ele>270</ele>
        <time>2021-02-25T13:21:49.599Z</time>
      </trkpt>
      <trkpt lat="43.97946" lon="2.24327">
        <ele>271</ele>
        <time>2021-02-25T13:21:50.599Z</time>
      </trkpt>
      <trkpt lat="43.97946" lon="2.24326">
        <ele>271</ele>
        <time>2021-02-25T13:21:51.599Z</time>
      </trkpt>
      <trkpt lat="43.97946" lon="2.24326">
        <ele>271</ele>
        <time>2021-02-25T13:21:52.599Z</time>
      </trkpt>
      <trkpt lat="43.97946" lon="2.24326">
        <ele>271</ele>
        <time>2021-02-25T13:21:53.599Z</time>
      </trkpt>
      <trkpt lat="43.97946" lon="2.24326">
        <ele>271</ele>
        <time>2021-02-25T13:21:54.599Z</time>
      </trkpt>
      <trkpt lat="43.97946" lon="2.24326">
        <ele>271</ele>
        <time>2021-02-25T13:21:55.599Z</time>
      </trkpt>
      <trkpt lat="43.97946" lon="2.24325">
        <ele>271</ele>
        <time>2021-02-25T13:21:56.599Z</time>
      </trkpt>
      <trkpt lat="43.97946" lon="2.24324">
        <ele>272</ele>
        <time>2021-02-25T13:21:57.599Z</time>
      </trkpt>
      <trkpt lat="43.97947" lon="2.24323">
        <ele>272</ele>
        <time>2021-02-25T13:21:58.599Z</time>
      </trkpt>
      <trkpt lat="43.97947" lon="2.24323">
        <ele>272</ele>
        <time>2021-02-25T13:21:59.599Z</time>
      </trkpt>
      <trkpt lat="43.97948" lon="2.24322">
        <ele>272</ele>
        <time>2021-02-25T13:22:00.599Z</time>
      </trkpt>
      <trkpt lat="43.97948" lon="2.24321">
        <ele>272</ele>
        <time>2021-02-25T13:22:01.599Z</time>
      </trkpt>
      <trkpt lat="43.97948" lon="2.24321">
        <ele>272</ele>
        <time>2021-02-25T13:22:02.599Z</time>
      </trkpt>
      <trkpt lat="43.97949" lon="2.2432">
        <ele>272</ele>
        <time>2021-02-25T13:22:03.599Z</time>
      </trkpt>
      <trkpt lat="43.97949" lon="2.2432">
        <ele>272</ele>
        <time>2021-02-25T13:22:04.599Z</time>
      </trkpt>
      <trkpt lat="43.97949" lon="2.24319">
        <ele>272</ele>
        <time>2021-02-25T13:22:05.599Z</time>
      </trkpt>
      <trkpt lat="43.9795" lon="2.24318">
        <ele>272</ele>
        <time>2021-02-25T13:22:06.599Z</time>
      </trkpt>
      <trkpt lat="43.9795" lon="2.24317">
        <ele>272</ele>
        <time>2021-02-25T13:22:07.599Z</time>
      </trkpt>
      <trkpt lat="43.9795" lon="2.24316">
        <ele>271</ele>
        <time>2021-02-25T13:22:08.599Z</time>
      </trkpt>
      <trkpt lat="43.9795" lon="2.24315">
        <ele>271</ele>
        <time>2021-02-25T13:22:09.599Z</time>
      </trkpt>
      <trkpt lat="43.9795" lon="2.24314">
        <ele>271</ele>
        <time>2021-02-25T13:22:10.599Z</time>
      </trkpt>
      <trkpt lat="43.9795" lon="2.24313">
        <ele>271</ele>
        <time>2021-02-25T13:22:11.599Z</time>
      </trkpt>
      <trkpt lat="43.9795" lon="2.24312">
        <ele>271</ele>
        <time>2021-02-25T13:22:12.599Z</time>
      </trkpt>
      <trkpt lat="43.9795" lon="2.24311">
        <ele>271</ele>
        <time>2021-02-25T13:22:13.599Z</time>
      </trkpt>
      <trkpt lat="43.9795" lon="2.2431">
        <ele>271</ele>
        <time>2021-02-25T13:22:14.599Z</time>
      </trkpt>
      <trkpt lat="43.9795" lon="2.24309">
        <ele>270</ele>
        <time>2021-02-25T13:22:15.599Z</time>
      </trkpt>
      <trkpt lat="43.9795" lon="2.24308">
        <ele>270</ele>
        <time>2021-02-25T13:22:16.599Z</time>
      </trkpt>
      <trkpt lat="43.9795" lon="2.24306">
        <ele>270</ele>
        <time>2021-02-25T13:22:17.599Z</time>
      </trkpt>
      <trkpt lat="43.9795" lon="2.24305">
        <ele>270</ele>
        <time>2021-02-25T13:22:18.599Z</time>
      </trkpt>
      <trkpt lat="43.9795" lon="2.24304">
        <ele>270</ele>
        <time>2021-02-25T13:22:19.599Z</time>
      </trkpt>
      <trkpt lat="43.9795" lon="2.24303">
        <ele>270</ele>
        <time>2021-02-25T13:22:20.599Z</time>
      </trkpt>
      <trkpt lat="43.9795" lon="2.24302">
        <ele>270</ele>
        <time>2021-02-25T13:22:21.599Z</time>
      </trkpt>
      <trkpt lat="43.9795" lon="2.243">
        <ele>270</ele>
        <time>2021-02-25T13:22:22.599Z</time>
      </trkpt>
      <trkpt lat="43.9795" lon="2.24299">
        <ele>270</ele>
        <time>2021-02-25T13:22:23.599Z</time>
      </trkpt>
      <trkpt lat="43.9795" lon="2.24298">
        <ele>270</ele>
        <time>2021-02-25T13:22:24.599Z</time>
      </trkpt>
      <trkpt lat="43.9795" lon="2.24297">
        <ele>270</ele>
        <time>2021-02-25T13:22:25.599Z</time>
      </trkpt>
      <trkpt lat="43.97951" lon="2.24296">
        <ele>270</ele>
        <time>2021-02-25T13:22:26.599Z</time>
      </trkpt>
      <trkpt lat="43.97951" lon="2.24295">
        <ele>270</ele>
        <time>2021-02-25T13:22:27.599Z</time>
      </trkpt>
      <trkpt lat="43.97951" lon="2.24294">
        <ele>270</ele>
        <time>2021-02-25T13:22:28.599Z</time>
      </trkpt>
      <trkpt lat="43.97951" lon="2.24293">
        <ele>270</ele>
        <time>2021-02-25T13:22:29.599Z</time>
      </trkpt>
      <trkpt lat="43.97952" lon="2.24291">
        <ele>270</ele>
        <time>2021-02-25T13:22:30.599Z</time>
      </trkpt>
      <trkpt lat="43.97952" lon="2.2429">
        <ele>269</ele>
        <time>2021-02-25T13:22:31.599Z</time>
      </trkpt>
      <trkpt lat="43.97952" lon="2.24289">
        <ele>269</ele>
        <time>2021-02-25T13:22:32.599Z</time>
      </trkpt>
      <trkpt lat="43.97953" lon="2.24288">
        <ele>269</ele>
        <time>2021-02-25T13:22:33.599Z</time>
      </trkpt>
      <trkpt lat="43.97953" lon="2.24286">
        <ele>269</ele>
        <time>2021-02-25T13:22:34.599Z</time>
      </trkpt>
      <trkpt lat="43.97954" lon="2.24285">
        <ele>269</ele>
        <time>2021-02-25T13:22:35.599Z</time>
      </trkpt>
      <trkpt lat="43.97955" lon="2.24284">
        <ele>269</ele>
        <time>2021-02-25T13:22:36.599Z</time>
      </trkpt>
      <trkpt lat="43.97955" lon="2.24283">
        <ele>269</ele>
        <time>2021-02-25T13:22:37.599Z</time>
      </trkpt>
      <trkpt lat="43.97955" lon="2.24281">
        <ele>268</ele>
        <time>2021-02-25T13:22:38.599Z</time>
      </trkpt>
      <trkpt lat="43.97956" lon="2.2428">
        <ele>268</ele>
        <time>2021-02-25T13:22:39.599Z</time>
      </trkpt>
      <trkpt lat="43.97956" lon="2.24278">
        <ele>268</ele>
        <time>2021-02-25T13:22:40.599Z</time>
      </trkpt>
      <trkpt lat="43.97956" lon="2.24277">
        <ele>268</ele>
        <time>2021-02-25T13:22:41.599Z</time>
      </trkpt>
      <trkpt lat="43.97956" lon="2.24275">
        <ele>268</ele>
        <time>2021-02-25T13:22:42.599Z</time>
      </trkpt>
      <trkpt lat="43.97956" lon="2.24274">
        <ele>268</ele>
        <time>2021-02-25T13:22:43.599Z</time>
      </trkpt>
      <trkpt lat="43.97957" lon="2.24273">
        <ele>268</ele>
        <time>2021-02-25T13:22:44.599Z</time>
      </trkpt>
      <trkpt lat="43.97957" lon="2.24271">
        <ele>268</ele>
        <time>2021-02-25T13:22:45.599Z</time>
      </trkpt>
      <trkpt lat="43.97957" lon="2.2427">
        <ele>267</ele>
        <time>2021-02-25T13:22:46.599Z</time>
      </trkpt>
      <trkpt lat="43.97957" lon="2.24268">
        <ele>267</ele>
        <time>2021-02-25T13:22:47.599Z</time>
      </trkpt>
      <trkpt lat="43.97958" lon="2.24267">
        <ele>267</ele>
        <time>2021-02-25T13:22:48.599Z</time>
      </trkpt>
      <trkpt lat="43.97958" lon="2.24265">
        <ele>267</ele>
        <time>2021-02-25T13:22:49.599Z</time>
      </trkpt>
      <trkpt lat="43.97959" lon="2.24264">
        <ele>267</ele>
        <time>2021-02-25T13:22:50.599Z</time>
      </trkpt>
      <trkpt lat="43.97959" lon="2.24262">
        <ele>267</ele>
        <time>2021-02-25T13:22:51.599Z</time>
      </trkpt>
      <trkpt lat="43.9796" lon="2.24261">
        <ele>266</ele>
        <time>2021-02-25T13:22:52.599Z</time>
      </trkpt>
      <trkpt lat="43.9796" lon="2.2426">
        <ele>266</ele>
        <time>2021-02-25T13:22:53.599Z</time>
      </trkpt>
      <trkpt lat="43.97961" lon="2.24259">
        <ele>266</ele>
        <time>2021-02-25T13:22:54.599Z</time>
      </trkpt>
      <trkpt lat="43.97961" lon="2.24257">
        <ele>266</ele>
        <time>2021-02-25T13:22:55.599Z</time>
      </trkpt>
      <trkpt lat="43.97962" lon="2.24256">
        <ele>266</ele>
        <time>2021-02-25T13:22:56.599Z</time>
      </trkpt>
      <trkpt lat="43.97962" lon="2.24254">
        <ele>266</ele>
        <time>2021-02-25T13:22:57.599Z</time>
      </trkpt>
      <trkpt lat="43.97962" lon="2.24253">
        <ele>266</ele>
        <time>2021-02-25T13:22:58.599Z</time>
      </trkpt>
      <trkpt lat="43.97962" lon="2.24251">
        <ele>265</ele>
        <time>2021-02-25T13:22:59.599Z</time>
      </trkpt>
      <trkpt lat="43.97962" lon="2.24249">
        <ele>265</ele>
        <time>2021-02-25T13:23:00.599Z</time>
      </trkpt>
      <trkpt lat="43.97962" lon="2.24248">
        <ele>265</ele>
        <time>2021-02-25T13:23:01.599Z</time>
      </trkpt>
      <trkpt lat="43.97962" lon="2.24246">
        <ele>265</ele>
        <time>2021-02-25T13:23:02.599Z</time>
      </trkpt>
      <trkpt lat="43.97962" lon="2.24245">
        <ele>265</ele>
        <time>2021-02-25T13:23:03.599Z</time>
      </trkpt>
      <trkpt lat="43.97962" lon="2.24243">
        <ele>265</ele>
        <time>2021-02-25T13:23:04.599Z</time>
      </trkpt>
      <trkpt lat="43.97962" lon="2.24242">
        <ele>265</ele>
        <time>2021-02-25T13:23:05.599Z</time>
      </trkpt>
      <trkpt lat="43.97962" lon="2.24241">
        <ele>265</ele>
        <time>2021-02-25T13:23:06.599Z</time>
      </trkpt>
      <trkpt lat="43.97962" lon="2.2424">
        <ele>265</ele>
        <time>2021-02-25T13:23:07.599Z</time>
      </trkpt>
      <trkpt lat="43.97962" lon="2.24239">
        <ele>265</ele>
        <time>2021-02-25T13:23:08.599Z</time>
      </trkpt>
      <trkpt lat="43.97962" lon="2.24238">
        <ele>265</ele>
        <time>2021-02-25T13:23:09.599Z</time>
      </trkpt>
      <trkpt lat="43.97961" lon="2.24238">
        <ele>265</ele>
        <time>2021-02-25T13:23:10.599Z</time>
      </trkpt>
      <trkpt lat="43.97961" lon="2.24237">
        <ele>265</ele>
        <time>2021-02-25T13:23:11.599Z</time>
      </trkpt>
      <trkpt lat="43.97961" lon="2.24236">
        <ele>265</ele>
        <time>2021-02-25T13:23:12.599Z</time>
      </trkpt>
      <trkpt lat="43.97961" lon="2.24235">
        <ele>266</ele>
        <time>2021-02-25T13:23:13.599Z</time>
      </trkpt>
      <trkpt lat="43.9796" lon="2.24235">
        <ele>266</ele>
        <time>2021-02-25T13:23:14.599Z</time>
      </trkpt>
      <trkpt lat="43.9796" lon="2.24234">
        <ele>266</ele>
        <time>2021-02-25T13:23:15.599Z</time>
      </trkpt>
      <trkpt lat="43.9796" lon="2.24233">
        <ele>266</ele>
        <time>2021-02-25T13:23:16.599Z</time>
      </trkpt>
      <trkpt lat="43.9796" lon="2.24232">
        <ele>266</ele>
        <time>2021-02-25T13:23:17.599Z</time>
      </trkpt>
      <trkpt lat="43.9796" lon="2.24232">
        <ele>266</ele>
        <time>2021-02-25T13:23:18.599Z</time>
      </trkpt>
      <trkpt lat="43.9796" lon="2.24231">
        <ele>266</ele>
        <time>2021-02-25T13:23:19.599Z</time>
      </trkpt>
      <trkpt lat="43.9796" lon="2.2423">
        <ele>266</ele>
        <time>2021-02-25T13:23:20.599Z</time>
      </trkpt>
      <trkpt lat="43.97961" lon="2.24229">
        <ele>266</ele>
        <time>2021-02-25T13:23:21.599Z</time>
      </trkpt>
      <trkpt lat="43.97961" lon="2.24228">
        <ele>267</ele>
        <time>2021-02-25T13:23:22.599Z</time>
      </trkpt>
      <trkpt lat="43.97961" lon="2.24227">
        <ele>267</ele>
        <time>2021-02-25T13:23:23.599Z</time>
      </trkpt>
      <trkpt lat="43.97962" lon="2.24226">
        <ele>267</ele>
        <time>2021-02-25T13:23:24.599Z</time>
      </trkpt>
      <trkpt lat="43.97962" lon="2.24225">
        <ele>266</ele>
        <time>2021-02-25T13:23:25.599Z</time>
      </trkpt>
      <trkpt lat="43.97962" lon="2.24224">
        <ele>266</ele>
        <time>2021-02-25T13:23:26.599Z</time>
      </trkpt>
      <trkpt lat="43.97962" lon="2.24222">
        <ele>266</ele>
        <time>2021-02-25T13:23:27.599Z</time>
      </trkpt>
      <trkpt lat="43.97962" lon="2.24221">
        <ele>266</ele>
        <time>2021-02-25T13:23:28.599Z</time>
      </trkpt>
      <trkpt lat="43.97962" lon="2.2422">
        <ele>267</ele>
        <time>2021-02-25T13:23:29.599Z</time>
      </trkpt>
      <trkpt lat="43.97963" lon="2.24218">
        <ele>266</ele>
        <time>2021-02-25T13:23:30.599Z</time>
      </trkpt>
      <trkpt lat="43.97963" lon="2.24217">
        <ele>266</ele>
        <time>2021-02-25T13:23:31.599Z</time>
      </trkpt>
      <trkpt lat="43.97963" lon="2.24216">
        <ele>266</ele>
        <time>2021-02-25T13:23:32.599Z</time>
      </trkpt>
      <trkpt lat="43.97964" lon="2.24215">
        <ele>266</ele>
        <time>2021-02-25T13:23:33.599Z</time>
      </trkpt>
      <trkpt lat="43.97964" lon="2.24213">
        <ele>266</ele>
        <time>2021-02-25T13:23:34.599Z</time>
      </trkpt>
      <trkpt lat="43.97964" lon="2.24212">
        <ele>266</ele>
        <time>2021-02-25T13:23:35.599Z</time>
      </trkpt>
      <trkpt lat="43.97964" lon="2.24211">
        <ele>266</ele>
        <time>2021-02-25T13:23:36.599Z</time>
      </trkpt>
      <trkpt lat="43.97965" lon="2.24209">
        <ele>266</ele>
        <time>2021-02-25T13:23:37.599Z</time>
      </trkpt>
      <trkpt lat="43.97965" lon="2.24208">
        <ele>266</ele>
        <time>2021-02-25T13:23:38.599Z</time>
      </trkpt>
      <trkpt lat="43.97965" lon="2.24207">
        <ele>267</ele>
        <time>2021-02-25T13:23:39.599Z</time>
      </trkpt>
      <trkpt lat="43.97965" lon="2.24206">
        <ele>267</ele>
        <time>2021-02-25T13:23:40.599Z</time>
      </trkpt>
      <trkpt lat="43.97966" lon="2.24205">
        <ele>267</ele>
        <time>2021-02-25T13:23:41.599Z</time>
      </trkpt>
      <trkpt lat="43.97966" lon="2.24204">
        <ele>267</ele>
        <time>2021-02-25T13:23:42.599Z</time>
      </trkpt>
      <trkpt lat="43.97966" lon="2.24203">
        <ele>267</ele>
        <time>2021-02-25T13:23:43.599Z</time>
      </trkpt>
      <trkpt lat="43.97966" lon="2.24202">
        <ele>267</ele>
        <time>2021-02-25T13:23:44.599Z</time>
      </trkpt>
      <trkpt lat="43.97966" lon="2.24201">
        <ele>267</ele>
        <time>2021-02-25T13:23:45.599Z</time>
      </trkpt>
      <trkpt lat="43.97967" lon="2.24199">
        <ele>267</ele>
        <time>2021-02-25T13:23:46.599Z</time>
      </trkpt>
      <trkpt lat="43.97967" lon="2.24198">
        <ele>267</ele>
        <time>2021-02-25T13:23:47.599Z</time>
      </trkpt>
      <trkpt lat="43.97967" lon="2.24197">
        <ele>267</ele>
        <time>2021-02-25T13:23:48.599Z</time>
      </trkpt>
      <trkpt lat="43.97968" lon="2.24196">
        <ele>267</ele>
        <time>2021-02-25T13:23:49.599Z</time>
      </trkpt>
      <trkpt lat="43.97968" lon="2.24194">
        <ele>267</ele>
        <time>2021-02-25T13:23:50.599Z</time>
      </trkpt>
      <trkpt lat="43.97969" lon="2.24193">
        <ele>267</ele>
        <time>2021-02-25T13:23:51.599Z</time>
      </trkpt>
      <trkpt lat="43.97969" lon="2.24191">
        <ele>267</ele>
        <time>2021-02-25T13:23:52.599Z</time>
      </trkpt>
      <trkpt lat="43.97969" lon="2.2419">
        <ele>267</ele>
        <time>2021-02-25T13:23:53.599Z</time>
      </trkpt>
      <trkpt lat="43.9797" lon="2.24189">
        <ele>267</ele>
        <time>2021-02-25T13:23:54.599Z</time>
      </trkpt>
      <trkpt lat="43.9797" lon="2.24187">
        <ele>267</ele>
        <time>2021-02-25T13:23:55.599Z</time>
      </trkpt>
      <trkpt lat="43.9797" lon="2.24186">
        <ele>267</ele>
        <time>2021-02-25T13:23:56.599Z</time>
      </trkpt>
      <trkpt lat="43.9797" lon="2.24184">
        <ele>267</ele>
        <time>2021-02-25T13:23:57.599Z</time>
      </trkpt>
      <trkpt lat="43.9797" lon="2.24182">
        <ele>267</ele>
        <time>2021-02-25T13:23:58.599Z</time>
      </trkpt>
      <trkpt lat="43.97971" lon="2.24181">
        <ele>267</ele>
        <time>2021-02-25T13:23:59.599Z</time>
      </trkpt>
      <trkpt lat="43.97971" lon="2.24179">
        <ele>266</ele>
        <time>2021-02-25T13:24:00.599Z</time>
      </trkpt>
      <trkpt lat="43.97971" lon="2.24178">
        <ele>266</ele>
        <time>2021-02-25T13:24:01.599Z</time>
      </trkpt>
      <trkpt lat="43.97971" lon="2.24176">
        <ele>266</ele>
        <time>2021-02-25T13:24:02.599Z</time>
      </trkpt>
      <trkpt lat="43.97971" lon="2.24175">
        <ele>266</ele>
        <time>2021-02-25T13:24:03.599Z</time>
      </trkpt>
      <trkpt lat="43.97971" lon="2.24174">
        <ele>266</ele>
        <time>2021-02-25T13:24:04.599Z</time>
      </trkpt>
      <trkpt lat="43.97971" lon="2.24173">
        <ele>266</ele>
        <time>2021-02-25T13:24:05.599Z</time>
      </trkpt>
      <trkpt lat="43.97971" lon="2.24172">
        <ele>265</ele>
        <time>2021-02-25T13:24:06.599Z</time>
      </trkpt>
      <trkpt lat="43.97971" lon="2.24171">
        <ele>265</ele>
        <time>2021-02-25T13:24:07.599Z</time>
      </trkpt>
      <trkpt lat="43.97972" lon="2.2417">
        <ele>265</ele>
        <time>2021-02-25T13:24:08.599Z</time>
      </trkpt>
      <trkpt lat="43.97972" lon="2.24168">
        <ele>265</ele>
        <time>2021-02-25T13:24:09.599Z</time>
      </trkpt>
      <trkpt lat="43.97972" lon="2.24167">
        <ele>265</ele>
        <time>2021-02-25T13:24:10.599Z</time>
      </trkpt>
      <trkpt lat="43.97973" lon="2.24165">
        <ele>264</ele>
        <time>2021-02-25T13:24:11.599Z</time>
      </trkpt>
      <trkpt lat="43.97973" lon="2.24163">
        <ele>264</ele>
        <time>2021-02-25T13:24:12.599Z</time>
      </trkpt>
      <trkpt lat="43.97974" lon="2.24162">
        <ele>264</ele>
        <time>2021-02-25T13:24:13.599Z</time>
      </trkpt>
      <trkpt lat="43.97974" lon="2.2416">
        <ele>264</ele>
        <time>2021-02-25T13:24:14.599Z</time>
      </trkpt>
      <trkpt lat="43.97974" lon="2.24158">
        <ele>263</ele>
        <time>2021-02-25T13:24:15.599Z</time>
      </trkpt>
      <trkpt lat="43.97973" lon="2.24157">
        <ele>263</ele>
        <time>2021-02-25T13:24:16.599Z</time>
      </trkpt>
      <trkpt lat="43.97973" lon="2.24155">
        <ele>263</ele>
        <time>2021-02-25T13:24:17.599Z</time>
      </trkpt>
      <trkpt lat="43.97973" lon="2.24154">
        <ele>263</ele>
        <time>2021-02-25T13:24:18.599Z</time>
      </trkpt>
      <trkpt lat="43.97973" lon="2.24152">
        <ele>263</ele>
        <time>2021-02-25T13:24:19.599Z</time>
      </trkpt>
      <trkpt lat="43.97973" lon="2.24151">
        <ele>263</ele>
        <time>2021-02-25T13:24:20.599Z</time>
      </trkpt>
      <trkpt lat="43.97972" lon="2.24149">
        <ele>263</ele>
        <time>2021-02-25T13:24:21.599Z</time>
      </trkpt>
      <trkpt lat="43.97972" lon="2.24148">
        <ele>263</ele>
        <time>2021-02-25T13:24:22.599Z</time>
      </trkpt>
      <trkpt lat="43.97972" lon="2.24146">
        <ele>263</ele>
        <time>2021-02-25T13:24:23.599Z</time>
      </trkpt>
      <trkpt lat="43.97972" lon="2.24145">
        <ele>263</ele>
        <time>2021-02-25T13:24:24.599Z</time>
      </trkpt>
      <trkpt lat="43.97972" lon="2.24144">
        <ele>263</ele>
        <time>2021-02-25T13:24:25.599Z</time>
      </trkpt>
      <trkpt lat="43.97971" lon="2.24143">
        <ele>263</ele>
        <time>2021-02-25T13:24:26.599Z</time>
      </trkpt>
      <trkpt lat="43.97971" lon="2.24141">
        <ele>263</ele>
        <time>2021-02-25T13:24:27.599Z</time>
      </trkpt>
      <trkpt lat="43.9797" lon="2.2414">
        <ele>263</ele>
        <time>2021-02-25T13:24:28.599Z</time>
      </trkpt>
      <trkpt lat="43.9797" lon="2.24138">
        <ele>263</ele>
        <time>2021-02-25T13:24:29.599Z</time>
      </trkpt>
      <trkpt lat="43.97969" lon="2.24137">
        <ele>263</ele>
        <time>2021-02-25T13:24:30.599Z</time>
      </trkpt>
      <trkpt lat="43.97969" lon="2.24136">
        <ele>263</ele>
        <time>2021-02-25T13:24:31.599Z</time>
      </trkpt>
      <trkpt lat="43.97969" lon="2.24134">
        <ele>263</ele>
        <time>2021-02-25T13:24:32.599Z</time>
      </trkpt>
      <trkpt lat="43.97968" lon="2.24133">
        <ele>262</ele>
        <time>2021-02-25T13:24:33.599Z</time>
      </trkpt>
      <trkpt lat="43.97968" lon="2.24132">
        <ele>262</ele>
        <time>2021-02-25T13:24:34.599Z</time>
      </trkpt>
      <trkpt lat="43.97968" lon="2.24131">
        <ele>262</ele>
        <time>2021-02-25T13:24:35.599Z</time>
      </trkpt>
      <trkpt lat="43.97968" lon="2.2413">
        <ele>262</ele>
        <time>2021-02-25T13:24:36.599Z</time>
      </trkpt>
      <trkpt lat="43.97968" lon="2.24129">
        <ele>262</ele>
        <time>2021-02-25T13:24:37.599Z</time>
      </trkpt>
      <trkpt lat="43.97968" lon="2.24128">
        <ele>262</ele>
        <time>2021-02-25T13:24:38.599Z</time>
      </trkpt>
      <trkpt lat="43.97967" lon="2.24127">
        <ele>262</ele>
        <time>2021-02-25T13:24:39.599Z</time>
      </trkpt>
      <trkpt lat="43.97967" lon="2.24125">
        <ele>262</ele>
        <time>2021-02-25T13:24:40.599Z</time>
      </trkpt>
      <trkpt lat="43.97967" lon="2.24124">
        <ele>262</ele>
        <time>2021-02-25T13:24:41.599Z</time>
      </trkpt>
      <trkpt lat="43.97967" lon="2.24122">
        <ele>261</ele>
        <time>2021-02-25T13:24:42.599Z</time>
      </trkpt>
      <trkpt lat="43.97966" lon="2.24121">
        <ele>261</ele>
        <time>2021-02-25T13:24:43.599Z</time>
      </trkpt>
      <trkpt lat="43.97966" lon="2.2412">
        <ele>261</ele>
        <time>2021-02-25T13:24:44.599Z</time>
      </trkpt>
      <trkpt lat="43.97965" lon="2.24119">
        <ele>261</ele>
        <time>2021-02-25T13:24:45.599Z</time>
      </trkpt>
      <trkpt lat="43.97965" lon="2.24118">
        <ele>261</ele>
        <time>2021-02-25T13:24:46.599Z</time>
      </trkpt>
      <trkpt lat="43.97964" lon="2.24117">
        <ele>261</ele>
        <time>2021-02-25T13:24:47.599Z</time>
      </trkpt>
      <trkpt lat="43.97963" lon="2.24116">
        <ele>261</ele>
        <time>2021-02-25T13:24:48.599Z</time>
      </trkpt>
      <trkpt lat="43.97962" lon="2.24115">
        <ele>261</ele>
        <time>2021-02-25T13:24:49.599Z</time>
      </trkpt>
      <trkpt lat="43.97962" lon="2.24115">
        <ele>261</ele>
        <time>2021-02-25T13:24:50.599Z</time>
      </trkpt>
      <trkpt lat="43.97961" lon="2.24114">
        <ele>261</ele>
        <time>2021-02-25T13:24:51.599Z</time>
      </trkpt>
      <trkpt lat="43.9796" lon="2.24113">
        <ele>261</ele>
        <time>2021-02-25T13:24:52.599Z</time>
      </trkpt>
      <trkpt lat="43.97959" lon="2.24112">
        <ele>261</ele>
        <time>2021-02-25T13:24:53.599Z</time>
      </trkpt>
      <trkpt lat="43.97959" lon="2.24112">
        <ele>261</ele>
        <time>2021-02-25T13:24:54.599Z</time>
      </trkpt>
      <trkpt lat="43.97958" lon="2.24111">
        <ele>261</ele>
        <time>2021-02-25T13:24:55.599Z</time>
      </trkpt>
      <trkpt lat="43.97957" lon="2.24111">
        <ele>261</ele>
        <time>2021-02-25T13:24:56.599Z</time>
      </trkpt>
      <trkpt lat="43.97956" lon="2.2411">
        <ele>261</ele>
        <time>2021-02-25T13:24:57.599Z</time>
      </trkpt>
      <trkpt lat="43.97955" lon="2.24109">
        <ele>261</ele>
        <time>2021-02-25T13:24:58.599Z</time>
      </trkpt>
      <trkpt lat="43.97955" lon="2.24109">
        <ele>261</ele>
        <time>2021-02-25T13:24:59.599Z</time>
      </trkpt>
      <trkpt lat="43.97954" lon="2.24108">
        <ele>261</ele>
        <time>2021-02-25T13:25:00.599Z</time>
      </trkpt>
      <trkpt lat="43.97953" lon="2.24107">
        <ele>261</ele>
        <time>2021-02-25T13:25:01.599Z</time>
      </trkpt>
      <trkpt lat="43.97952" lon="2.24107">
        <ele>261</ele>
        <time>2021-02-25T13:25:02.599Z</time>
      </trkpt>
      <trkpt lat="43.97951" lon="2.24106">
        <ele>261</ele>
        <time>2021-02-25T13:25:03.599Z</time>
      </trkpt>
      <trkpt lat="43.97951" lon="2.24105">
        <ele>261</ele>
        <time>2021-02-25T13:25:04.599Z</time>
      </trkpt>
      <trkpt lat="43.9795" lon="2.24104">
        <ele>261</ele>
        <time>2021-02-25T13:25:05.599Z</time>
      </trkpt>
      <trkpt lat="43.97949" lon="2.24103">
        <ele>261</ele>
        <time>2021-02-25T13:25:06.599Z</time>
      </trkpt>
      <trkpt lat="43.97948" lon="2.24102">
        <ele>261</ele>
        <time>2021-02-25T13:25:07.599Z</time>
      </trkpt>
      <trkpt lat="43.97948" lon="2.24101">
        <ele>261</ele>
        <time>2021-02-25T13:25:08.599Z</time>
      </trkpt>
      <trkpt lat="43.97947" lon="2.241">
        <ele>261</ele>
        <time>2021-02-25T13:25:09.599Z</time>
      </trkpt>
      <trkpt lat="43.97946" lon="2.24099">
        <ele>261</ele>
        <time>2021-02-25T13:25:10.599Z</time>
      </trkpt>
      <trkpt lat="43.97946" lon="2.24098">
        <ele>261</ele>
        <time>2021-02-25T13:25:11.599Z</time>
      </trkpt>
      <trkpt lat="43.97945" lon="2.24097">
        <ele>261</ele>
        <time>2021-02-25T13:25:12.599Z</time>
      </trkpt>
      <trkpt lat="43.97944" lon="2.24096">
        <ele>261</ele>
        <time>2021-02-25T13:25:13.599Z</time>
      </trkpt>
      <trkpt lat="43.97943" lon="2.24095">
        <ele>261</ele>
        <time>2021-02-25T13:25:14.599Z</time>
      </trkpt>
      <trkpt lat="43.97943" lon="2.24094">
        <ele>261</ele>
        <time>2021-02-25T13:25:15.599Z</time>
      </trkpt>
      <trkpt lat="43.97942" lon="2.24093">
        <ele>261</ele>
        <time>2021-02-25T13:25:16.599Z</time>
      </trkpt>
      <trkpt lat="43.97941" lon="2.24092">
        <ele>261</ele>
        <time>2021-02-25T13:25:17.599Z</time>
      </trkpt>
      <trkpt lat="43.9794" lon="2.24091">
        <ele>261</ele>
        <time>2021-02-25T13:25:18.599Z</time>
      </trkpt>
      <trkpt lat="43.97939" lon="2.2409">
        <ele>261</ele>
        <time>2021-02-25T13:25:19.599Z</time>
      </trkpt>
      <trkpt lat="43.97938" lon="2.24089">
        <ele>261</ele>
        <time>2021-02-25T13:25:20.599Z</time>
      </trkpt>
      <trkpt lat="43.97937" lon="2.24089">
        <ele>261</ele>
        <time>2021-02-25T13:25:21.599Z</time>
      </trkpt>
      <trkpt lat="43.97936" lon="2.24088">
        <ele>262</ele>
        <time>2021-02-25T13:25:22.599Z</time>
      </trkpt>
      <trkpt lat="43.97935" lon="2.24088">
        <ele>262</ele>
        <time>2021-02-25T13:25:23.599Z</time>
      </trkpt>
      <trkpt lat="43.97934" lon="2.24088">
        <ele>262</ele>
        <time>2021-02-25T13:25:24.599Z</time>
      </trkpt>
      <trkpt lat="43.97933" lon="2.24087">
        <ele>262</ele>
        <time>2021-02-25T13:25:25.599Z</time>
      </trkpt>
      <trkpt lat="43.97932" lon="2.24087">
        <ele>262</ele>
        <time>2021-02-25T13:25:26.599Z</time>
      </trkpt>
      <trkpt lat="43.97932" lon="2.24086">
        <ele>262</ele>
        <time>2021-02-25T13:25:27.599Z</time>
      </trkpt>
      <trkpt lat="43.97931" lon="2.24085">
        <ele>262</ele>
        <time>2021-02-25T13:25:28.599Z</time>
      </trkpt>
      <trkpt lat="43.9793" lon="2.24084">
        <ele>262</ele>
        <time>2021-02-25T13:25:29.599Z</time>
      </trkpt>
      <trkpt lat="43.97929" lon="2.24083">
        <ele>262</ele>
        <time>2021-02-25T13:25:30.599Z</time>
      </trkpt>
      <trkpt lat="43.97929" lon="2.24082">
        <ele>262</ele>
        <time>2021-02-25T13:25:31.599Z</time>
      </trkpt>
      <trkpt lat="43.97928" lon="2.24081">
        <ele>262</ele>
        <time>2021-02-25T13:25:32.599Z</time>
      </trkpt>
      <trkpt lat="43.97927" lon="2.2408">
        <ele>262</ele>
        <time>2021-02-25T13:25:33.599Z</time>
      </trkpt>
      <trkpt lat="43.97926" lon="2.24079">
        <ele>262</ele>
        <time>2021-02-25T13:25:34.599Z</time>
      </trkpt>
      <trkpt lat="43.97925" lon="2.24079">
        <ele>262</ele>
        <time>2021-02-25T13:25:35.599Z</time>
      </trkpt>
      <trkpt lat="43.97924" lon="2.24078">
        <ele>262</ele>
        <time>2021-02-25T13:25:36.599Z</time>
      </trkpt>
      <trkpt lat="43.97924" lon="2.24077">
        <ele>262</ele>
        <time>2021-02-25T13:25:37.599Z</time>
      </trkpt>
      <trkpt lat="43.97923" lon="2.24076">
        <ele>262</ele>
        <time>2021-02-25T13:25:38.599Z</time>
      </trkpt>
      <trkpt lat="43.97922" lon="2.24076">
        <ele>263</ele>
        <time>2021-02-25T13:25:39.599Z</time>
      </trkpt>
      <trkpt lat="43.97921" lon="2.24075">
        <ele>263</ele>
        <time>2021-02-25T13:25:40.599Z</time>
      </trkpt>
      <trkpt lat="43.9792" lon="2.24074">
        <ele>263</ele>
        <time>2021-02-25T13:25:41.599Z</time>
      </trkpt>
      <trkpt lat="43.9792" lon="2.24073">
        <ele>262</ele>
        <time>2021-02-25T13:25:42.599Z</time>
      </trkpt>
      <trkpt lat="43.97919" lon="2.24072">
        <ele>262</ele>
        <time>2021-02-25T13:25:43.599Z</time>
      </trkpt>
      <trkpt lat="43.97918" lon="2.24071">
        <ele>262</ele>
        <time>2021-02-25T13:25:44.599Z</time>
      </trkpt>
      <trkpt lat="43.97917" lon="2.2407">
        <ele>262</ele>
        <time>2021-02-25T13:25:45.599Z</time>
      </trkpt>
      <trkpt lat="43.97916" lon="2.24068">
        <ele>262</ele>
        <time>2021-02-25T13:25:46.599Z</time>
      </trkpt>
      <trkpt lat="43.97916" lon="2.24067">
        <ele>262</ele>
        <time>2021-02-25T13:25:47.599Z</time>
      </trkpt>
      <trkpt lat="43.97915" lon="2.24066">
        <ele>262</ele>
        <time>2021-02-25T13:25:48.599Z</time>
      </trkpt>
      <trkpt lat="43.97914" lon="2.24065">
        <ele>262</ele>
        <time>2021-02-25T13:25:49.599Z</time>
      </trkpt>
      <trkpt lat="43.97913" lon="2.24065">
        <ele>263</ele>
        <time>2021-02-25T13:25:50.599Z</time>
      </trkpt>
      <trkpt lat="43.97913" lon="2.24064">
        <ele>263</ele>
        <time>2021-02-25T13:25:51.599Z</time>
      </trkpt>
      <trkpt lat="43.97912" lon="2.24064">
        <ele>263</ele>
        <time>2021-02-25T13:25:52.599Z</time>
      </trkpt>
      <trkpt lat="43.97911" lon="2.24063">
        <ele>263</ele>
        <time>2021-02-25T13:25:53.599Z</time>
      </trkpt>
      <trkpt lat="43.9791" lon="2.24062">
        <ele>263</ele>
        <time>2021-02-25T13:25:54.599Z</time>
      </trkpt>
      <trkpt lat="43.97909" lon="2.24061">
        <ele>263</ele>
        <time>2021-02-25T13:25:55.599Z</time>
      </trkpt>
      <trkpt lat="43.97908" lon="2.2406">
        <ele>263</ele>
        <time>2021-02-25T13:25:56.599Z</time>
      </trkpt>
      <trkpt lat="43.97907" lon="2.24059">
        <ele>263</ele>
        <time>2021-02-25T13:25:57.599Z</time>
      </trkpt>
      <trkpt lat="43.97907" lon="2.24058">
        <ele>263</ele>
        <time>2021-02-25T13:25:58.599Z</time>
      </trkpt>
      <trkpt lat="43.97906" lon="2.24057">
        <ele>263</ele>
        <time>2021-02-25T13:25:59.599Z</time>
      </trkpt>
      <trkpt lat="43.97906" lon="2.24056">
        <ele>263</ele>
        <time>2021-02-25T13:26:00.599Z</time>
      </trkpt>
      <trkpt lat="43.97905" lon="2.24055">
        <ele>263</ele>
        <time>2021-02-25T13:26:01.599Z</time>
      </trkpt>
      <trkpt lat="43.97905" lon="2.24054">
        <ele>263</ele>
        <time>2021-02-25T13:26:02.599Z</time>
      </trkpt>
      <trkpt lat="43.97904" lon="2.24053">
        <ele>263</ele>
        <time>2021-02-25T13:26:03.599Z</time>
      </trkpt>
      <trkpt lat="43.97903" lon="2.24053">
        <ele>263</ele>
        <time>2021-02-25T13:26:04.599Z</time>
      </trkpt>
      <trkpt lat="43.97902" lon="2.24052">
        <ele>263</ele>
        <time>2021-02-25T13:26:05.599Z</time>
      </trkpt>
      <trkpt lat="43.97901" lon="2.24051">
        <ele>263</ele>
        <time>2021-02-25T13:26:06.599Z</time>
      </trkpt>
      <trkpt lat="43.979" lon="2.2405">
        <ele>263</ele>
        <time>2021-02-25T13:26:07.599Z</time>
      </trkpt>
      <trkpt lat="43.979" lon="2.24049">
        <ele>263</ele>
        <time>2021-02-25T13:26:08.599Z</time>
      </trkpt>
      <trkpt lat="43.97899" lon="2.24048">
        <ele>263</ele>
        <time>2021-02-25T13:26:09.599Z</time>
      </trkpt>
      <trkpt lat="43.97898" lon="2.24048">
        <ele>264</ele>
        <time>2021-02-25T13:26:10.599Z</time>
      </trkpt>
      <trkpt lat="43.97896" lon="2.24047">
        <ele>264</ele>
        <time>2021-02-25T13:26:11.599Z</time>
      </trkpt>
      <trkpt lat="43.97895" lon="2.24046">
        <ele>264</ele>
        <time>2021-02-25T13:26:12.599Z</time>
      </trkpt>
      <trkpt lat="43.97894" lon="2.24046">
        <ele>264</ele>
        <time>2021-02-25T13:26:13.599Z</time>
      </trkpt>
      <trkpt lat="43.97893" lon="2.24045">
        <ele>264</ele>
        <time>2021-02-25T13:26:14.599Z</time>
      </trkpt>
      <trkpt lat="43.97892" lon="2.24045">
        <ele>264</ele>
        <time>2021-02-25T13:26:15.599Z</time>
      </trkpt>
      <trkpt lat="43.97891" lon="2.24044">
        <ele>264</ele>
        <time>2021-02-25T13:26:16.599Z</time>
      </trkpt>
      <trkpt lat="43.9789" lon="2.24044">
        <ele>264</ele>
        <time>2021-02-25T13:26:17.599Z</time>
      </trkpt>
      <trkpt lat="43.97889" lon="2.24043">
        <ele>264</ele>
        <time>2021-02-25T13:26:18.599Z</time>
      </trkpt>
      <trkpt lat="43.97888" lon="2.24043">
        <ele>264</ele>
        <time>2021-02-25T13:26:19.599Z</time>
      </trkpt>
      <trkpt lat="43.97887" lon="2.24042">
        <ele>264</ele>
        <time>2021-02-25T13:26:20.599Z</time>
      </trkpt>
      <trkpt lat="43.97886" lon="2.24041">
        <ele>264</ele>
        <time>2021-02-25T13:26:21.599Z</time>
      </trkpt>
      <trkpt lat="43.97885" lon="2.2404">
        <ele>264</ele>
        <time>2021-02-25T13:26:22.599Z</time>
      </trkpt>
      <trkpt lat="43.97884" lon="2.2404">
        <ele>264</ele>
        <time>2021-02-25T13:26:23.599Z</time>
      </trkpt>
      <trkpt lat="43.97883" lon="2.24039">
        <ele>264</ele>
        <time>2021-02-25T13:26:24.599Z</time>
      </trkpt>
      <trkpt lat="43.97882" lon="2.24038">
        <ele>264</ele>
        <time>2021-02-25T13:26:25.599Z</time>
      </trkpt>
      <trkpt lat="43.97881" lon="2.24038">
        <ele>264</ele>
        <time>2021-02-25T13:26:26.599Z</time>
      </trkpt>
      <trkpt lat="43.97879" lon="2.24037">
        <ele>264</ele>
        <time>2021-02-25T13:26:27.599Z</time>
      </trkpt>
      <trkpt lat="43.97878" lon="2.24036">
        <ele>264</ele>
        <time>2021-02-25T13:26:28.599Z</time>
      </trkpt>
      <trkpt lat="43.97877" lon="2.24036">
        <ele>264</ele>
        <time>2021-02-25T13:26:29.599Z</time>
      </trkpt>
      <trkpt lat="43.97876" lon="2.24035">
        <ele>265</ele>
        <time>2021-02-25T13:26:30.599Z</time>
      </trkpt>
      <trkpt lat="43.97875" lon="2.24035">
        <ele>265</ele>
        <time>2021-02-25T13:26:31.599Z</time>
      </trkpt>
      <trkpt lat="43.97874" lon="2.24034">
        <ele>265</ele>
        <time>2021-02-25T13:26:32.599Z</time>
      </trkpt>
      <trkpt lat="43.97873" lon="2.24034">
        <ele>265</ele>
        <time>2021-02-25T13:26:33.599Z</time>
      </trkpt>
      <trkpt lat="43.97872" lon="2.24033">
        <ele>265</ele>
        <time>2021-02-25T13:26:34.599Z</time>
      </trkpt>
      <trkpt lat="43.97871" lon="2.24032">
        <ele>265</ele>
        <time>2021-02-25T13:26:35.599Z</time>
      </trkpt>
      <trkpt lat="43.9787" lon="2.24032">
        <ele>265</ele>
        <time>2021-02-25T13:26:36.599Z</time>
      </trkpt>
      <trkpt lat="43.97869" lon="2.24031">
        <ele>265</ele>
        <time>2021-02-25T13:26:37.599Z</time>
      </trkpt>
      <trkpt lat="43.97868" lon="2.2403">
        <ele>265</ele>
        <time>2021-02-25T13:26:38.599Z</time>
      </trkpt>
      <trkpt lat="43.97866" lon="2.24029">
        <ele>265</ele>
        <time>2021-02-25T13:26:39.599Z</time>
      </trkpt>
      <trkpt lat="43.97865" lon="2.24029">
        <ele>266</ele>
        <time>2021-02-25T13:26:40.599Z</time>
      </trkpt>
      <trkpt lat="43.97864" lon="2.24028">
        <ele>266</ele>
        <time>2021-02-25T13:26:41.599Z</time>
      </trkpt>
      <trkpt lat="43.97863" lon="2.24028">
        <ele>266</ele>
        <time>2021-02-25T13:26:42.599Z</time>
      </trkpt>
      <trkpt lat="43.97863" lon="2.24027">
        <ele>266</ele>
        <time>2021-02-25T13:26:43.599Z</time>
      </trkpt>
      <trkpt lat="43.97862" lon="2.24027">
        <ele>266</ele>
        <time>2021-02-25T13:26:44.599Z</time>
      </trkpt>
      <trkpt lat="43.9786" lon="2.24026">
        <ele>266</ele>
        <time>2021-02-25T13:26:45.599Z</time>
      </trkpt>
      <trkpt lat="43.9786" lon="2.24026">
        <ele>266</ele>
        <time>2021-02-25T13:26:46.599Z</time>
      </trkpt>
      <trkpt lat="43.97859" lon="2.24025">
        <ele>266</ele>
        <time>2021-02-25T13:26:47.599Z</time>
      </trkpt>
      <trkpt lat="43.97858" lon="2.24025">
        <ele>266</ele>
        <time>2021-02-25T13:26:48.599Z</time>
      </trkpt>
      <trkpt lat="43.97857" lon="2.24025">
        <ele>266</ele>
        <time>2021-02-25T13:26:49.599Z</time>
      </trkpt>
      <trkpt lat="43.97856" lon="2.24025">
        <ele>266</ele>
        <time>2021-02-25T13:26:50.599Z</time>
      </trkpt>
      <trkpt lat="43.97855" lon="2.24025">
        <ele>267</ele>
        <time>2021-02-25T13:26:51.599Z</time>
      </trkpt>
      <trkpt lat="43.97855" lon="2.24024">
        <ele>267</ele>
        <time>2021-02-25T13:26:52.599Z</time>
      </trkpt>
      <trkpt lat="43.97854" lon="2.24024">
        <ele>267</ele>
        <time>2021-02-25T13:26:53.599Z</time>
      </trkpt>
      <trkpt lat="43.97853" lon="2.24024">
        <ele>267</ele>
        <time>2021-02-25T13:26:54.599Z</time>
      </trkpt>
      <trkpt lat="43.97852" lon="2.24024">
        <ele>267</ele>
        <time>2021-02-25T13:26:55.599Z</time>
      </trkpt>
      <trkpt lat="43.97851" lon="2.24023">
        <ele>267</ele>
        <time>2021-02-25T13:26:56.599Z</time>
      </trkpt>
      <trkpt lat="43.9785" lon="2.24023">
        <ele>267</ele>
        <time>2021-02-25T13:26:57.599Z</time>
      </trkpt>
      <trkpt lat="43.97849" lon="2.24022">
        <ele>268</ele>
        <time>2021-02-25T13:26:58.599Z</time>
      </trkpt>
      <trkpt lat="43.97848" lon="2.24022">
        <ele>268</ele>
        <time>2021-02-25T13:26:59.599Z</time>
      </trkpt>
      <trkpt lat="43.97847" lon="2.24021">
        <ele>268</ele>
        <time>2021-02-25T13:27:00.599Z</time>
      </trkpt>
      <trkpt lat="43.97846" lon="2.24021">
        <ele>268</ele>
        <time>2021-02-25T13:27:01.599Z</time>
      </trkpt>
      <trkpt lat="43.97845" lon="2.2402">
        <ele>268</ele>
        <time>2021-02-25T13:27:02.599Z</time>
      </trkpt>
      <trkpt lat="43.97845" lon="2.2402">
        <ele>268</ele>
        <time>2021-02-25T13:27:03.599Z</time>
      </trkpt>
      <trkpt lat="43.97844" lon="2.24019">
        <ele>268</ele>
        <time>2021-02-25T13:27:04.599Z</time>
      </trkpt>
      <trkpt lat="43.97843" lon="2.24019">
        <ele>268</ele>
        <time>2021-02-25T13:27:05.599Z</time>
      </trkpt>
      <trkpt lat="43.97841" lon="2.24019">
        <ele>268</ele>
        <time>2021-02-25T13:27:06.599Z</time>
      </trkpt>
      <trkpt lat="43.9784" lon="2.24018">
        <ele>268</ele>
        <time>2021-02-25T13:27:07.599Z</time>
      </trkpt>
      <trkpt lat="43.97839" lon="2.24017">
        <ele>268</ele>
        <time>2021-02-25T13:27:08.599Z</time>
      </trkpt>
      <trkpt lat="43.97839" lon="2.24017">
        <ele>269</ele>
        <time>2021-02-25T13:27:09.599Z</time>
      </trkpt>
      <trkpt lat="43.97838" lon="2.24016">
        <ele>269</ele>
        <time>2021-02-25T13:27:10.599Z</time>
      </trkpt>
      <trkpt lat="43.97837" lon="2.24015">
        <ele>269</ele>
        <time>2021-02-25T13:27:11.599Z</time>
      </trkpt>
      <trkpt lat="43.97836" lon="2.24014">
        <ele>269</ele>
        <time>2021-02-25T13:27:12.599Z</time>
      </trkpt>
      <trkpt lat="43.97835" lon="2.24013">
        <ele>269</ele>
        <time>2021-02-25T13:27:13.599Z</time>
      </trkpt>
      <trkpt lat="43.97834" lon="2.24013">
        <ele>269</ele>
        <time>2021-02-25T13:27:14.599Z</time>
      </trkpt>
      <trkpt lat="43.97833" lon="2.24012">
        <ele>269</ele>
        <time>2021-02-25T13:27:15.599Z</time>
      </trkpt>
      <trkpt lat="43.97832" lon="2.24011">
        <ele>270</ele>
        <time>2021-02-25T13:27:16.599Z</time>
      </trkpt>
      <trkpt lat="43.97831" lon="2.24011">
        <ele>270</ele>
        <time>2021-02-25T13:27:17.599Z</time>
      </trkpt>
      <trkpt lat="43.9783" lon="2.2401">
        <ele>270</ele>
        <time>2021-02-25T13:27:18.599Z</time>
      </trkpt>
      <trkpt lat="43.97829" lon="2.2401">
        <ele>270</ele>
        <time>2021-02-25T13:27:19.599Z</time>
      </trkpt>
      <trkpt lat="43.97828" lon="2.24009">
        <ele>270</ele>
        <time>2021-02-25T13:27:20.599Z</time>
      </trkpt>
      <trkpt lat="43.97827" lon="2.24008">
        <ele>270</ele>
        <time>2021-02-25T13:27:21.599Z</time>
      </trkpt>
      <trkpt lat="43.97826" lon="2.24008">
        <ele>270</ele>
        <time>2021-02-25T13:27:22.599Z</time>
      </trkpt>
      <trkpt lat="43.97826" lon="2.24008">
        <ele>270</ele>
        <time>2021-02-25T13:27:23.599Z</time>
      </trkpt>
      <trkpt lat="43.97825" lon="2.24007">
        <ele>270</ele>
        <time>2021-02-25T13:27:24.599Z</time>
      </trkpt>
      <trkpt lat="43.97825" lon="2.24007">
        <ele>271</ele>
        <time>2021-02-25T13:27:25.599Z</time>
      </trkpt>
      <trkpt lat="43.97824" lon="2.24007">
        <ele>271</ele>
        <time>2021-02-25T13:27:26.599Z</time>
      </trkpt>
      <trkpt lat="43.97823" lon="2.24006">
        <ele>271</ele>
        <time>2021-02-25T13:27:27.599Z</time>
      </trkpt>
      <trkpt lat="43.97822" lon="2.24005">
        <ele>271</ele>
        <time>2021-02-25T13:27:28.599Z</time>
      </trkpt>
      <trkpt lat="43.97821" lon="2.24004">
        <ele>271</ele>
        <time>2021-02-25T13:27:29.599Z</time>
      </trkpt>
      <trkpt lat="43.97819" lon="2.24003">
        <ele>271</ele>
        <time>2021-02-25T13:27:30.599Z</time>
      </trkpt>
      <trkpt lat="43.97818" lon="2.24003">
        <ele>271</ele>
        <time>2021-02-25T13:27:31.599Z</time>
      </trkpt>
      <trkpt lat="43.97817" lon="2.24002">
        <ele>271</ele>
        <time>2021-02-25T13:27:32.599Z</time>
      </trkpt>
      <trkpt lat="43.97816" lon="2.24002">
        <ele>271</ele>
        <time>2021-02-25T13:27:33.599Z</time>
      </trkpt>
      <trkpt lat="43.97815" lon="2.24001">
        <ele>271</ele>
        <time>2021-02-25T13:27:34.599Z</time>
      </trkpt>
      <trkpt lat="43.97814" lon="2.24001">
        <ele>271</ele>
        <time>2021-02-25T13:27:35.599Z</time>
      </trkpt>
      <trkpt lat="43.97813" lon="2.24001">
        <ele>271</ele>
        <time>2021-02-25T13:27:36.599Z</time>
      </trkpt>
      <trkpt lat="43.97812" lon="2.24">
        <ele>271</ele>
        <time>2021-02-25T13:27:37.599Z</time>
      </trkpt>
      <trkpt lat="43.9781" lon="2.24">
        <ele>271</ele>
        <time>2021-02-25T13:27:38.599Z</time>
      </trkpt>
      <trkpt lat="43.97809" lon="2.23999">
        <ele>271</ele>
        <time>2021-02-25T13:27:39.599Z</time>
      </trkpt>
      <trkpt lat="43.97808" lon="2.23999">
        <ele>271</ele>
        <time>2021-02-25T13:27:40.599Z</time>
      </trkpt>
      <trkpt lat="43.97806" lon="2.23998">
        <ele>271</ele>
        <time>2021-02-25T13:27:41.599Z</time>
      </trkpt>
      <trkpt lat="43.97805" lon="2.23998">
        <ele>271</ele>
        <time>2021-02-25T13:27:42.599Z</time>
      </trkpt>
      <trkpt lat="43.97804" lon="2.23997">
        <ele>271</ele>
        <time>2021-02-25T13:27:43.599Z</time>
      </trkpt>
      <trkpt lat="43.97803" lon="2.23997">
        <ele>271</ele>
        <time>2021-02-25T13:27:44.599Z</time>
      </trkpt>
      <trkpt lat="43.97802" lon="2.23996">
        <ele>271</ele>
        <time>2021-02-25T13:27:45.599Z</time>
      </trkpt>
      <trkpt lat="43.97801" lon="2.23995">
        <ele>272</ele>
        <time>2021-02-25T13:27:46.599Z</time>
      </trkpt>
      <trkpt lat="43.978" lon="2.23994">
        <ele>272</ele>
        <time>2021-02-25T13:27:47.599Z</time>
      </trkpt>
      <trkpt lat="43.97799" lon="2.23994">
        <ele>272</ele>
        <time>2021-02-25T13:27:48.599Z</time>
      </trkpt>
      <trkpt lat="43.97798" lon="2.23994">
        <ele>272</ele>
        <time>2021-02-25T13:27:49.599Z</time>
      </trkpt>
      <trkpt lat="43.97797" lon="2.23993">
        <ele>272</ele>
        <time>2021-02-25T13:27:50.599Z</time>
      </trkpt>
      <trkpt lat="43.97796" lon="2.23992">
        <ele>272</ele>
        <time>2021-02-25T13:27:51.599Z</time>
      </trkpt>
      <trkpt lat="43.97795" lon="2.23992">
        <ele>272</ele>
        <time>2021-02-25T13:27:52.599Z</time>
      </trkpt>
      <trkpt lat="43.97793" lon="2.23992">
        <ele>272</ele>
        <time>2021-02-25T13:27:53.599Z</time>
      </trkpt>
      <trkpt lat="43.97792" lon="2.23992">
        <ele>272</ele>
        <time>2021-02-25T13:27:54.599Z</time>
      </trkpt>
      <trkpt lat="43.97792" lon="2.23992">
        <ele>272</ele>
        <time>2021-02-25T13:27:55.599Z</time>
      </trkpt>
      <trkpt lat="43.97791" lon="2.23991">
        <ele>272</ele>
        <time>2021-02-25T13:27:56.599Z</time>
      </trkpt>
      <trkpt lat="43.9779" lon="2.23991">
        <ele>272</ele>
        <time>2021-02-25T13:27:57.599Z</time>
      </trkpt>
      <trkpt lat="43.97789" lon="2.23991">
        <ele>272</ele>
        <time>2021-02-25T13:27:58.599Z</time>
      </trkpt>
      <trkpt lat="43.97788" lon="2.2399">
        <ele>272</ele>
        <time>2021-02-25T13:27:59.599Z</time>
      </trkpt>
      <trkpt lat="43.97787" lon="2.2399">
        <ele>272</ele>
        <time>2021-02-25T13:28:00.599Z</time>
      </trkpt>
      <trkpt lat="43.97787" lon="2.23989">
        <ele>272</ele>
        <time>2021-02-25T13:28:01.599Z</time>
      </trkpt>
      <trkpt lat="43.97786" lon="2.23989">
        <ele>272</ele>
        <time>2021-02-25T13:28:02.599Z</time>
      </trkpt>
      <trkpt lat="43.97785" lon="2.23988">
        <ele>272</ele>
        <time>2021-02-25T13:28:03.599Z</time>
      </trkpt>
      <trkpt lat="43.97785" lon="2.23988">
        <ele>272</ele>
        <time>2021-02-25T13:28:04.599Z</time>
      </trkpt>
      <trkpt lat="43.97785" lon="2.23988">
        <ele>272</ele>
        <time>2021-02-25T13:28:05.599Z</time>
      </trkpt>
      <trkpt lat="43.97784" lon="2.23987">
        <ele>272</ele>
        <time>2021-02-25T13:28:06.599Z</time>
      </trkpt>
      <trkpt lat="43.97782" lon="2.23986">
        <ele>272</ele>
        <time>2021-02-25T13:28:07.599Z</time>
      </trkpt>
      <trkpt lat="43.97781" lon="2.23985">
        <ele>272</ele>
        <time>2021-02-25T13:28:08.599Z</time>
      </trkpt>
      <trkpt lat="43.9778" lon="2.23984">
        <ele>271</ele>
        <time>2021-02-25T13:28:09.599Z</time>
      </trkpt>
      <trkpt lat="43.97779" lon="2.23984">
        <ele>272</ele>
        <time>2021-02-25T13:28:10.599Z</time>
      </trkpt>
      <trkpt lat="43.97778" lon="2.23983">
        <ele>271</ele>
        <time>2021-02-25T13:28:11.599Z</time>
      </trkpt>
      <trkpt lat="43.97777" lon="2.23983">
        <ele>272</ele>
        <time>2021-02-25T13:28:12.599Z</time>
      </trkpt>
      <trkpt lat="43.97776" lon="2.23982">
        <ele>271</ele>
        <time>2021-02-25T13:28:13.599Z</time>
      </trkpt>
      <trkpt lat="43.97775" lon="2.23982">
        <ele>271</ele>
        <time>2021-02-25T13:28:14.599Z</time>
      </trkpt>
      <trkpt lat="43.97775" lon="2.23981">
        <ele>271</ele>
        <time>2021-02-25T13:28:15.599Z</time>
      </trkpt>
      <trkpt lat="43.97774" lon="2.23981">
        <ele>271</ele>
        <time>2021-02-25T13:28:16.599Z</time>
      </trkpt>
      <trkpt lat="43.97774" lon="2.2398">
        <ele>271</ele>
        <time>2021-02-25T13:28:17.599Z</time>
      </trkpt>
      <trkpt lat="43.97773" lon="2.23979">
        <ele>271</ele>
        <time>2021-02-25T13:28:18.599Z</time>
      </trkpt>
      <trkpt lat="43.97773" lon="2.23978">
        <ele>271</ele>
        <time>2021-02-25T13:28:19.599Z</time>
      </trkpt>
      <trkpt lat="43.97772" lon="2.23977">
        <ele>270</ele>
        <time>2021-02-25T13:28:20.599Z</time>
      </trkpt>
      <trkpt lat="43.97771" lon="2.23976">
        <ele>270</ele>
        <time>2021-02-25T13:28:21.599Z</time>
      </trkpt>
      <trkpt lat="43.97771" lon="2.23975">
        <ele>270</ele>
        <time>2021-02-25T13:28:22.599Z</time>
      </trkpt>
      <trkpt lat="43.9777" lon="2.23974">
        <ele>269</ele>
        <time>2021-02-25T13:28:23.599Z</time>
      </trkpt>
      <trkpt lat="43.97769" lon="2.23973">
        <ele>269</ele>
        <time>2021-02-25T13:28:24.599Z</time>
      </trkpt>
      <trkpt lat="43.97768" lon="2.23973">
        <ele>269</ele>
        <time>2021-02-25T13:28:25.599Z</time>
      </trkpt>
      <trkpt lat="43.97767" lon="2.23972">
        <ele>268</ele>
        <time>2021-02-25T13:28:26.599Z</time>
      </trkpt>
      <trkpt lat="43.97766" lon="2.23972">
        <ele>268</ele>
        <time>2021-02-25T13:28:27.599Z</time>
      </trkpt>
      <trkpt lat="43.97765" lon="2.23972">
        <ele>268</ele>
        <time>2021-02-25T13:28:28.599Z</time>
      </trkpt>
      <trkpt lat="43.97764" lon="2.23972">
        <ele>268</ele>
        <time>2021-02-25T13:28:29.599Z</time>
      </trkpt>
      <trkpt lat="43.97763" lon="2.23973">
        <ele>268</ele>
        <time>2021-02-25T13:28:30.599Z</time>
      </trkpt>
      <trkpt lat="43.97762" lon="2.23973">
        <ele>268</ele>
        <time>2021-02-25T13:28:31.599Z</time>
      </trkpt>
      <trkpt lat="43.97761" lon="2.23973">
        <ele>267</ele>
        <time>2021-02-25T13:28:32.599Z</time>
      </trkpt>
      <trkpt lat="43.9776" lon="2.23973">
        <ele>267</ele>
        <time>2021-02-25T13:28:33.599Z</time>
      </trkpt>
      <trkpt lat="43.97759" lon="2.23973">
        <ele>267</ele>
        <time>2021-02-25T13:28:34.599Z</time>
      </trkpt>
      <trkpt lat="43.97757" lon="2.23973">
        <ele>267</ele>
        <time>2021-02-25T13:28:35.599Z</time>
      </trkpt>
      <trkpt lat="43.97756" lon="2.23973">
        <ele>267</ele>
        <time>2021-02-25T13:28:36.599Z</time>
      </trkpt>
      <trkpt lat="43.97756" lon="2.23973">
        <ele>267</ele>
        <time>2021-02-25T13:28:37.599Z</time>
      </trkpt>
      <trkpt lat="43.97755" lon="2.23972">
        <ele>267</ele>
        <time>2021-02-25T13:28:38.599Z</time>
      </trkpt>
      <trkpt lat="43.97754" lon="2.23972">
        <ele>267</ele>
        <time>2021-02-25T13:28:39.599Z</time>
      </trkpt>
      <trkpt lat="43.97754" lon="2.23972">
        <ele>267</ele>
        <time>2021-02-25T13:28:40.599Z</time>
      </trkpt>
      <trkpt lat="43.97753" lon="2.23972">
        <ele>267</ele>
        <time>2021-02-25T13:28:41.599Z</time>
      </trkpt>
      <trkpt lat="43.97752" lon="2.23971">
        <ele>267</ele>
        <time>2021-02-25T13:28:42.599Z</time>
      </trkpt>
      <trkpt lat="43.97752" lon="2.23971">
        <ele>266</ele>
        <time>2021-02-25T13:28:43.599Z</time>
      </trkpt>
      <trkpt lat="43.97751" lon="2.23971">
        <ele>266</ele>
        <time>2021-02-25T13:28:44.599Z</time>
      </trkpt>
      <trkpt lat="43.97751" lon="2.23971">
        <ele>266</ele>
        <time>2021-02-25T13:28:45.599Z</time>
      </trkpt>
      <trkpt lat="43.9775" lon="2.23971">
        <ele>266</ele>
        <time>2021-02-25T13:28:46.599Z</time>
      </trkpt>
      <trkpt lat="43.97746" lon="2.23972">
        <ele>266</ele>
        <time>2021-02-25T13:28:47.599Z</time>
      </trkpt>
      <trkpt lat="43.97745" lon="2.23972">
        <ele>266</ele>
        <time>2021-02-25T13:28:48.599Z</time>
      </trkpt>
      <trkpt lat="43.97744" lon="2.23972">
        <ele>266</ele>
        <time>2021-02-25T13:28:49.599Z</time>
      </trkpt>
      <trkpt lat="43.97743" lon="2.23973">
        <ele>266</ele>
        <time>2021-02-25T13:28:50.599Z</time>
      </trkpt>
      <trkpt lat="43.97742" lon="2.23973">
        <ele>266</ele>
        <time>2021-02-25T13:28:51.599Z</time>
      </trkpt>
      <trkpt lat="43.97741" lon="2.23972">
        <ele>266</ele>
        <time>2021-02-25T13:28:52.599Z</time>
      </trkpt>
      <trkpt lat="43.9774" lon="2.23972">
        <ele>266</ele>
        <time>2021-02-25T13:28:53.599Z</time>
      </trkpt>
      <trkpt lat="43.97739" lon="2.23972">
        <ele>266</ele>
        <time>2021-02-25T13:28:54.599Z</time>
      </trkpt>
      <trkpt lat="43.97738" lon="2.23973">
        <ele>266</ele>
        <time>2021-02-25T13:28:55.599Z</time>
      </trkpt>
      <trkpt lat="43.97737" lon="2.23973">
        <ele>266</ele>
        <time>2021-02-25T13:28:56.599Z</time>
      </trkpt>
      <trkpt lat="43.97736" lon="2.23973">
        <ele>266</ele>
        <time>2021-02-25T13:28:57.599Z</time>
      </trkpt>
      <trkpt lat="43.97735" lon="2.23974">
        <ele>266</ele>
        <time>2021-02-25T13:28:58.599Z</time>
      </trkpt>
      <trkpt lat="43.97733" lon="2.23974">
        <ele>266</ele>
        <time>2021-02-25T13:28:59.599Z</time>
      </trkpt>
      <trkpt lat="43.97732" lon="2.23974">
        <ele>266</ele>
        <time>2021-02-25T13:29:00.599Z</time>
      </trkpt>
      <trkpt lat="43.97731" lon="2.23975">
        <ele>266</ele>
        <time>2021-02-25T13:29:01.599Z</time>
      </trkpt>
      <trkpt lat="43.97731" lon="2.23975">
        <ele>266</ele>
        <time>2021-02-25T13:29:02.599Z</time>
      </trkpt>
      <trkpt lat="43.9773" lon="2.23976">
        <ele>266</ele>
        <time>2021-02-25T13:29:03.599Z</time>
      </trkpt>
      <trkpt lat="43.97729" lon="2.23976">
        <ele>266</ele>
        <time>2021-02-25T13:29:04.599Z</time>
      </trkpt>
      <trkpt lat="43.97728" lon="2.23977">
        <ele>266</ele>
        <time>2021-02-25T13:29:05.599Z</time>
      </trkpt>
      <trkpt lat="43.97727" lon="2.23978">
        <ele>266</ele>
        <time>2021-02-25T13:29:06.599Z</time>
      </trkpt>
      <trkpt lat="43.97726" lon="2.23978">
        <ele>266</ele>
        <time>2021-02-25T13:29:07.599Z</time>
      </trkpt>
      <trkpt lat="43.97725" lon="2.23979">
        <ele>266</ele>
        <time>2021-02-25T13:29:08.599Z</time>
      </trkpt>
      <trkpt lat="43.97724" lon="2.23979">
        <ele>266</ele>
        <time>2021-02-25T13:29:09.599Z</time>
      </trkpt>
      <trkpt lat="43.97722" lon="2.23979">
        <ele>266</ele>
        <time>2021-02-25T13:29:10.599Z</time>
      </trkpt>
      <trkpt lat="43.97721" lon="2.23979">
        <ele>266</ele>
        <time>2021-02-25T13:29:11.599Z</time>
      </trkpt>
      <trkpt lat="43.9772" lon="2.23979">
        <ele>266</ele>
        <time>2021-02-25T13:29:15.600Z</time>
      </trkpt>
      <trkpt lat="43.97719" lon="2.2398">
        <ele>266</ele>
        <time>2021-02-25T13:29:16.600Z</time>
      </trkpt>
      <trkpt lat="43.97717" lon="2.2398">
        <ele>266</ele>
        <time>2021-02-25T13:29:17.600Z</time>
      </trkpt>
      <trkpt lat="43.97716" lon="2.2398">
        <ele>266</ele>
        <time>2021-02-25T13:29:18.600Z</time>
      </trkpt>
      <trkpt lat="43.97715" lon="2.2398">
        <ele>266</ele>
        <time>2021-02-25T13:29:19.600Z</time>
      </trkpt>
      <trkpt lat="43.97714" lon="2.23981">
        <ele>267</ele>
        <time>2021-02-25T13:29:20.600Z</time>
      </trkpt>
      <trkpt lat="43.97712" lon="2.23981">
        <ele>267</ele>
        <time>2021-02-25T13:29:21.600Z</time>
      </trkpt>
      <trkpt lat="43.97711" lon="2.23981">
        <ele>267</ele>
        <time>2021-02-25T13:29:22.600Z</time>
      </trkpt>
      <trkpt lat="43.9771" lon="2.23981">
        <ele>267</ele>
        <time>2021-02-25T13:29:23.600Z</time>
      </trkpt>
      <trkpt lat="43.97708" lon="2.23981">
        <ele>268</ele>
        <time>2021-02-25T13:29:24.600Z</time>
      </trkpt>
      <trkpt lat="43.97707" lon="2.23981">
        <ele>268</ele>
        <time>2021-02-25T13:29:25.600Z</time>
      </trkpt>
      <trkpt lat="43.97706" lon="2.23981">
        <ele>268</ele>
        <time>2021-02-25T13:29:26.600Z</time>
      </trkpt>
      <trkpt lat="43.97704" lon="2.2398">
        <ele>269</ele>
        <time>2021-02-25T13:29:27.600Z</time>
      </trkpt>
      <trkpt lat="43.97703" lon="2.2398">
        <ele>269</ele>
        <time>2021-02-25T13:29:28.600Z</time>
      </trkpt>
      <trkpt lat="43.97702" lon="2.23979">
        <ele>269</ele>
        <time>2021-02-25T13:29:29.600Z</time>
      </trkpt>
      <trkpt lat="43.97701" lon="2.23979">
        <ele>270</ele>
        <time>2021-02-25T13:29:30.600Z</time>
      </trkpt>
      <trkpt lat="43.97699" lon="2.23979">
        <ele>270</ele>
        <time>2021-02-25T13:29:31.600Z</time>
      </trkpt>
      <trkpt lat="43.97698" lon="2.23979">
        <ele>270</ele>
        <time>2021-02-25T13:29:32.600Z</time>
      </trkpt>
      <trkpt lat="43.97697" lon="2.23978">
        <ele>271</ele>
        <time>2021-02-25T13:29:33.600Z</time>
      </trkpt>
      <trkpt lat="43.97695" lon="2.23978">
        <ele>271</ele>
        <time>2021-02-25T13:29:34.600Z</time>
      </trkpt>
      <trkpt lat="43.97694" lon="2.23977">
        <ele>271</ele>
        <time>2021-02-25T13:29:35.600Z</time>
      </trkpt>
      <trkpt lat="43.97693" lon="2.23976">
        <ele>271</ele>
        <time>2021-02-25T13:29:36.600Z</time>
      </trkpt>
      <trkpt lat="43.97692" lon="2.23976">
        <ele>272</ele>
        <time>2021-02-25T13:29:37.600Z</time>
      </trkpt>
      <trkpt lat="43.97691" lon="2.23975">
        <ele>272</ele>
        <time>2021-02-25T13:29:38.600Z</time>
      </trkpt>
      <trkpt lat="43.9769" lon="2.23974">
        <ele>272</ele>
        <time>2021-02-25T13:29:39.600Z</time>
      </trkpt>
      <trkpt lat="43.97689" lon="2.23972">
        <ele>272</ele>
        <time>2021-02-25T13:29:40.600Z</time>
      </trkpt>
      <trkpt lat="43.97688" lon="2.23971">
        <ele>272</ele>
        <time>2021-02-25T13:29:41.600Z</time>
      </trkpt>
      <trkpt lat="43.97687" lon="2.2397">
        <ele>272</ele>
        <time>2021-02-25T13:29:42.600Z</time>
      </trkpt>
      <trkpt lat="43.97687" lon="2.23969">
        <ele>272</ele>
        <time>2021-02-25T13:29:43.600Z</time>
      </trkpt>
      <trkpt lat="43.97686" lon="2.23967">
        <ele>272</ele>
        <time>2021-02-25T13:29:44.600Z</time>
      </trkpt>
      <trkpt lat="43.97686" lon="2.23966">
        <ele>272</ele>
        <time>2021-02-25T13:29:45.600Z</time>
      </trkpt>
      <trkpt lat="43.97685" lon="2.23965">
        <ele>272</ele>
        <time>2021-02-25T13:29:46.600Z</time>
      </trkpt>
      <trkpt lat="43.97684" lon="2.23963">
        <ele>271</ele>
        <time>2021-02-25T13:29:47.600Z</time>
      </trkpt>
      <trkpt lat="43.97684" lon="2.23962">
        <ele>271</ele>
        <time>2021-02-25T13:29:48.600Z</time>
      </trkpt>
      <trkpt lat="43.97684" lon="2.2396">
        <ele>271</ele>
        <time>2021-02-25T13:29:49.600Z</time>
      </trkpt>
      <trkpt lat="43.97683" lon="2.23959">
        <ele>271</ele>
        <time>2021-02-25T13:29:50.600Z</time>
      </trkpt>
      <trkpt lat="43.97682" lon="2.23957">
        <ele>271</ele>
        <time>2021-02-25T13:29:51.600Z</time>
      </trkpt>
      <trkpt lat="43.97682" lon="2.23956">
        <ele>271</ele>
        <time>2021-02-25T13:29:52.600Z</time>
      </trkpt>
      <trkpt lat="43.97681" lon="2.23955">
        <ele>271</ele>
        <time>2021-02-25T13:29:53.600Z</time>
      </trkpt>
      <trkpt lat="43.9768" lon="2.23953">
        <ele>271</ele>
        <time>2021-02-25T13:29:54.600Z</time>
      </trkpt>
      <trkpt lat="43.97679" lon="2.23952">
        <ele>270</ele>
        <time>2021-02-25T13:29:55.600Z</time>
      </trkpt>
      <trkpt lat="43.97679" lon="2.23951">
        <ele>270</ele>
        <time>2021-02-25T13:29:56.600Z</time>
      </trkpt>
      <trkpt lat="43.97678" lon="2.2395">
        <ele>270</ele>
        <time>2021-02-25T13:29:57.600Z</time>
      </trkpt>
      <trkpt lat="43.97677" lon="2.23949">
        <ele>270</ele>
        <time>2021-02-25T13:29:58.600Z</time>
      </trkpt>
      <trkpt lat="43.97677" lon="2.23948">
        <ele>270</ele>
        <time>2021-02-25T13:29:59.600Z</time>
      </trkpt>
      <trkpt lat="43.97676" lon="2.23948">
        <ele>270</ele>
        <time>2021-02-25T13:30:00.600Z</time>
      </trkpt>
      <trkpt lat="43.97675" lon="2.23947">
        <ele>270</ele>
        <time>2021-02-25T13:30:01.600Z</time>
      </trkpt>
      <trkpt lat="43.97674" lon="2.23946">
        <ele>270</ele>
        <time>2021-02-25T13:30:02.600Z</time>
      </trkpt>
      <trkpt lat="43.97673" lon="2.23945">
        <ele>270</ele>
        <time>2021-02-25T13:30:03.600Z</time>
      </trkpt>
      <trkpt lat="43.97672" lon="2.23944">
        <ele>269</ele>
        <time>2021-02-25T13:30:04.600Z</time>
      </trkpt>
      <trkpt lat="43.97672" lon="2.23943">
        <ele>269</ele>
        <time>2021-02-25T13:30:05.600Z</time>
      </trkpt>
      <trkpt lat="43.97671" lon="2.23942">
        <ele>269</ele>
        <time>2021-02-25T13:30:06.600Z</time>
      </trkpt>
      <trkpt lat="43.9767" lon="2.23941">
        <ele>269</ele>
        <time>2021-02-25T13:30:07.600Z</time>
      </trkpt>
      <trkpt lat="43.97669" lon="2.2394">
        <ele>269</ele>
        <time>2021-02-25T13:30:08.600Z</time>
      </trkpt>
      <trkpt lat="43.97669" lon="2.23939">
        <ele>269</ele>
        <time>2021-02-25T13:30:09.600Z</time>
      </trkpt>
      <trkpt lat="43.97668" lon="2.23938">
        <ele>269</ele>
        <time>2021-02-25T13:30:10.600Z</time>
      </trkpt>
      <trkpt lat="43.97667" lon="2.23937">
        <ele>269</ele>
        <time>2021-02-25T13:30:11.600Z</time>
      </trkpt>
      <trkpt lat="43.97667" lon="2.23936">
        <ele>269</ele>
        <time>2021-02-25T13:30:12.600Z</time>
      </trkpt>
      <trkpt lat="43.97666" lon="2.23935">
        <ele>269</ele>
        <time>2021-02-25T13:30:13.600Z</time>
      </trkpt>
      <trkpt lat="43.97665" lon="2.23934">
        <ele>269</ele>
        <time>2021-02-25T13:30:14.600Z</time>
      </trkpt>
      <trkpt lat="43.97665" lon="2.23933">
        <ele>269</ele>
        <time>2021-02-25T13:30:15.600Z</time>
      </trkpt>
      <trkpt lat="43.97664" lon="2.23933">
        <ele>269</ele>
        <time>2021-02-25T13:30:16.600Z</time>
      </trkpt>
      <trkpt lat="43.97663" lon="2.23932">
        <ele>269</ele>
        <time>2021-02-25T13:30:17.600Z</time>
      </trkpt>
      <trkpt lat="43.97662" lon="2.23931">
        <ele>269</ele>
        <time>2021-02-25T13:30:18.600Z</time>
      </trkpt>
      <trkpt lat="43.97662" lon="2.2393">
        <ele>269</ele>
        <time>2021-02-25T13:30:19.600Z</time>
      </trkpt>
      <trkpt lat="43.97661" lon="2.23929">
        <ele>269</ele>
        <time>2021-02-25T13:30:20.600Z</time>
      </trkpt>
      <trkpt lat="43.9766" lon="2.23928">
        <ele>269</ele>
        <time>2021-02-25T13:30:21.600Z</time>
      </trkpt>
      <trkpt lat="43.97659" lon="2.23927">
        <ele>269</ele>
        <time>2021-02-25T13:30:22.600Z</time>
      </trkpt>
      <trkpt lat="43.97658" lon="2.23926">
        <ele>269</ele>
        <time>2021-02-25T13:30:23.600Z</time>
      </trkpt>
      <trkpt lat="43.97657" lon="2.23925">
        <ele>269</ele>
        <time>2021-02-25T13:30:24.600Z</time>
      </trkpt>
      <trkpt lat="43.97657" lon="2.23924">
        <ele>269</ele>
        <time>2021-02-25T13:30:25.600Z</time>
      </trkpt>
      <trkpt lat="43.97655" lon="2.23923">
        <ele>269</ele>
        <time>2021-02-25T13:30:26.600Z</time>
      </trkpt>
      <trkpt lat="43.97654" lon="2.23922">
        <ele>269</ele>
        <time>2021-02-25T13:30:27.600Z</time>
      </trkpt>
      <trkpt lat="43.97653" lon="2.23922">
        <ele>269</ele>
        <time>2021-02-25T13:30:28.600Z</time>
      </trkpt>
      <trkpt lat="43.97652" lon="2.23921">
        <ele>269</ele>
        <time>2021-02-25T13:30:29.600Z</time>
      </trkpt>
      <trkpt lat="43.97651" lon="2.2392">
        <ele>269</ele>
        <time>2021-02-25T13:30:30.600Z</time>
      </trkpt>
      <trkpt lat="43.9765" lon="2.2392">
        <ele>269</ele>
        <time>2021-02-25T13:30:31.600Z</time>
      </trkpt>
      <trkpt lat="43.9765" lon="2.23919">
        <ele>269</ele>
        <time>2021-02-25T13:30:32.600Z</time>
      </trkpt>
      <trkpt lat="43.97649" lon="2.23918">
        <ele>269</ele>
        <time>2021-02-25T13:30:33.600Z</time>
      </trkpt>
      <trkpt lat="43.97648" lon="2.23917">
        <ele>269</ele>
        <time>2021-02-25T13:30:34.600Z</time>
      </trkpt>
      <trkpt lat="43.97647" lon="2.23917">
        <ele>269</ele>
        <time>2021-02-25T13:30:35.600Z</time>
      </trkpt>
      <trkpt lat="43.97647" lon="2.23916">
        <ele>269</ele>
        <time>2021-02-25T13:30:36.600Z</time>
      </trkpt>
      <trkpt lat="43.97646" lon="2.23915">
        <ele>269</ele>
        <time>2021-02-25T13:30:37.600Z</time>
      </trkpt>
      <trkpt lat="43.97645" lon="2.23913">
        <ele>269</ele>
        <time>2021-02-25T13:30:38.600Z</time>
      </trkpt>
      <trkpt lat="43.97644" lon="2.23912">
        <ele>270</ele>
        <time>2021-02-25T13:30:44.610Z</time>
      </trkpt>
      <trkpt lat="43.97643" lon="2.23911">
        <ele>269</ele>
        <time>2021-02-25T13:30:45.610Z</time>
      </trkpt>
      <trkpt lat="43.97643" lon="2.2391">
        <ele>269</ele>
        <time>2021-02-25T13:30:46.610Z</time>
      </trkpt>
      <trkpt lat="43.97642" lon="2.23909">
        <ele>269</ele>
        <time>2021-02-25T13:30:47.610Z</time>
      </trkpt>
      <trkpt lat="43.97641" lon="2.23908">
        <ele>269</ele>
        <time>2021-02-25T13:30:48.610Z</time>
      </trkpt>
      <trkpt lat="43.97641" lon="2.23907">
        <ele>269</ele>
        <time>2021-02-25T13:30:49.610Z</time>
      </trkpt>
      <trkpt lat="43.9764" lon="2.23907">
        <ele>268</ele>
        <time>2021-02-25T13:30:50.610Z</time>
      </trkpt>
      <trkpt lat="43.9764" lon="2.23906">
        <ele>268</ele>
        <time>2021-02-25T13:30:51.610Z</time>
      </trkpt>
      <trkpt lat="43.97639" lon="2.23906">
        <ele>267</ele>
        <time>2021-02-25T13:30:52.610Z</time>
      </trkpt>
      <trkpt lat="43.97639" lon="2.23906">
        <ele>267</ele>
        <time>2021-02-25T13:30:53.610Z</time>
      </trkpt>
      <trkpt lat="43.97638" lon="2.23905">
        <ele>267</ele>
        <time>2021-02-25T13:30:54.610Z</time>
      </trkpt>
      <trkpt lat="43.97637" lon="2.23904">
        <ele>266</ele>
        <time>2021-02-25T13:30:55.610Z</time>
      </trkpt>
      <trkpt lat="43.97636" lon="2.23903">
        <ele>266</ele>
        <time>2021-02-25T13:30:56.610Z</time>
      </trkpt>
      <trkpt lat="43.97635" lon="2.23902">
        <ele>266</ele>
        <time>2021-02-25T13:30:57.610Z</time>
      </trkpt>
      <trkpt lat="43.97634" lon="2.23901">
        <ele>265</ele>
        <time>2021-02-25T13:30:58.610Z</time>
      </trkpt>
      <trkpt lat="43.97632" lon="2.239">
        <ele>265</ele>
        <time>2021-02-25T13:30:59.610Z</time>
      </trkpt>
      <trkpt lat="43.97631" lon="2.23899">
        <ele>264</ele>
        <time>2021-02-25T13:31:00.610Z</time>
      </trkpt>
      <trkpt lat="43.97629" lon="2.23899">
        <ele>264</ele>
        <time>2021-02-25T13:31:01.610Z</time>
      </trkpt>
      <trkpt lat="43.97628" lon="2.23898">
        <ele>263</ele>
        <time>2021-02-25T13:31:02.610Z</time>
      </trkpt>
      <trkpt lat="43.97626" lon="2.23898">
        <ele>263</ele>
        <time>2021-02-25T13:31:03.610Z</time>
      </trkpt>
      <trkpt lat="43.97625" lon="2.23898">
        <ele>263</ele>
        <time>2021-02-25T13:31:04.610Z</time>
      </trkpt>
      <trkpt lat="43.97625" lon="2.23897">
        <ele>262</ele>
        <time>2021-02-25T13:31:05.610Z</time>
      </trkpt>
      <trkpt lat="43.97624" lon="2.23897">
        <ele>262</ele>
        <time>2021-02-25T13:31:06.610Z</time>
      </trkpt>
      <trkpt lat="43.97623" lon="2.23896">
        <ele>262</ele>
        <time>2021-02-25T13:31:07.610Z</time>
      </trkpt>
      <trkpt lat="43.97622" lon="2.23896">
        <ele>261</ele>
        <time>2021-02-25T13:31:08.610Z</time>
      </trkpt>
      <trkpt lat="43.97621" lon="2.23895">
        <ele>261</ele>
        <time>2021-02-25T13:31:09.610Z</time>
      </trkpt>
      <trkpt lat="43.97621" lon="2.23895">
        <ele>261</ele>
        <time>2021-02-25T13:31:10.610Z</time>
      </trkpt>
      <trkpt lat="43.97621" lon="2.23894">
        <ele>261</ele>
        <time>2021-02-25T13:31:11.610Z</time>
      </trkpt>
      <trkpt lat="43.97621" lon="2.23894">
        <ele>261</ele>
        <time>2021-02-25T13:31:12.610Z</time>
      </trkpt>
      <trkpt lat="43.97621" lon="2.23894">
        <ele>260</ele>
        <time>2021-02-25T13:31:13.610Z</time>
      </trkpt>
      <trkpt lat="43.97621" lon="2.2389">
        <ele>258</ele>
        <time>2021-02-25T13:31:14.610Z</time>
      </trkpt>
      <trkpt lat="43.9762" lon="2.23889">
        <ele>258</ele>
        <time>2021-02-25T13:31:15.610Z</time>
      </trkpt>
      <trkpt lat="43.9762" lon="2.23888">
        <ele>258</ele>
        <time>2021-02-25T13:31:16.610Z</time>
      </trkpt>
      <trkpt lat="43.9762" lon="2.23887">
        <ele>257</ele>
        <time>2021-02-25T13:31:17.610Z</time>
      </trkpt>
      <trkpt lat="43.97619" lon="2.23886">
        <ele>257</ele>
        <time>2021-02-25T13:31:18.610Z</time>
      </trkpt>
      <trkpt lat="43.97619" lon="2.23885">
        <ele>257</ele>
        <time>2021-02-25T13:31:19.610Z</time>
      </trkpt>
      <trkpt lat="43.97618" lon="2.23884">
        <ele>257</ele>
        <time>2021-02-25T13:31:20.610Z</time>
      </trkpt>
      <trkpt lat="43.97618" lon="2.23883">
        <ele>257</ele>
        <time>2021-02-25T13:31:21.610Z</time>
      </trkpt>
      <trkpt lat="43.97617" lon="2.23882">
        <ele>257</ele>
        <time>2021-02-25T13:31:22.610Z</time>
      </trkpt>
      <trkpt lat="43.97616" lon="2.23881">
        <ele>256</ele>
        <time>2021-02-25T13:31:23.610Z</time>
      </trkpt>
      <trkpt lat="43.97615" lon="2.2388">
        <ele>256</ele>
        <time>2021-02-25T13:31:24.610Z</time>
      </trkpt>
      <trkpt lat="43.97614" lon="2.2388">
        <ele>256</ele>
        <time>2021-02-25T13:31:25.610Z</time>
      </trkpt>
      <trkpt lat="43.97614" lon="2.23879">
        <ele>256</ele>
        <time>2021-02-25T13:31:26.610Z</time>
      </trkpt>
      <trkpt lat="43.97613" lon="2.23879">
        <ele>256</ele>
        <time>2021-02-25T13:31:27.610Z</time>
      </trkpt>
      <trkpt lat="43.97611" lon="2.23879">
        <ele>256</ele>
        <time>2021-02-25T13:31:28.610Z</time>
      </trkpt>
      <trkpt lat="43.9761" lon="2.23878">
        <ele>256</ele>
        <time>2021-02-25T13:31:29.610Z</time>
      </trkpt>
      <trkpt lat="43.97609" lon="2.23878">
        <ele>256</ele>
        <time>2021-02-25T13:31:30.610Z</time>
      </trkpt>
      <trkpt lat="43.97608" lon="2.23878">
        <ele>256</ele>
        <time>2021-02-25T13:31:31.610Z</time>
      </trkpt>
      <trkpt lat="43.97607" lon="2.23878">
        <ele>256</ele>
        <time>2021-02-25T13:31:32.610Z</time>
      </trkpt>
      <trkpt lat="43.97606" lon="2.23878">
        <ele>256</ele>
        <time>2021-02-25T13:31:33.610Z</time>
      </trkpt>
      <trkpt lat="43.97605" lon="2.23877">
        <ele>256</ele>
        <time>2021-02-25T13:31:34.610Z</time>
      </trkpt>
      <trkpt lat="43.97604" lon="2.23877">
        <ele>256</ele>
        <time>2021-02-25T13:31:35.610Z</time>
      </trkpt>
      <trkpt lat="43.97603" lon="2.23877">
        <ele>256</ele>
        <time>2021-02-25T13:31:36.610Z</time>
      </trkpt>
      <trkpt lat="43.97601" lon="2.23877">
        <ele>256</ele>
        <time>2021-02-25T13:31:37.610Z</time>
      </trkpt>
      <trkpt lat="43.976" lon="2.23876">
        <ele>256</ele>
        <time>2021-02-25T13:31:38.610Z</time>
      </trkpt>
      <trkpt lat="43.97599" lon="2.23876">
        <ele>257</ele>
        <time>2021-02-25T13:31:39.610Z</time>
      </trkpt>
      <trkpt lat="43.97598" lon="2.23875">
        <ele>257</ele>
        <time>2021-02-25T13:31:40.610Z</time>
      </trkpt>
      <trkpt lat="43.97597" lon="2.23875">
        <ele>257</ele>
        <time>2021-02-25T13:31:41.610Z</time>
      </trkpt>
      <trkpt lat="43.97595" lon="2.23875">
        <ele>257</ele>
        <time>2021-02-25T13:31:42.610Z</time>
      </trkpt>
      <trkpt lat="43.97594" lon="2.23875">
        <ele>257</ele>
        <time>2021-02-25T13:31:43.610Z</time>
      </trkpt>
      <trkpt lat="43.97593" lon="2.23874">
        <ele>257</ele>
        <time>2021-02-25T13:31:44.610Z</time>
      </trkpt>
      <trkpt lat="43.97592" lon="2.23874">
        <ele>257</ele>
        <time>2021-02-25T13:31:45.610Z</time>
      </trkpt>
      <trkpt lat="43.97591" lon="2.23873">
        <ele>257</ele>
        <time>2021-02-25T13:31:46.610Z</time>
      </trkpt>
      <trkpt lat="43.9759" lon="2.23872">
        <ele>257</ele>
        <time>2021-02-25T13:31:47.610Z</time>
      </trkpt>
      <trkpt lat="43.97589" lon="2.23871">
        <ele>257</ele>
        <time>2021-02-25T13:31:48.610Z</time>
      </trkpt>
      <trkpt lat="43.97588" lon="2.23871">
        <ele>257</ele>
        <time>2021-02-25T13:31:49.610Z</time>
      </trkpt>
      <trkpt lat="43.97587" lon="2.2387">
        <ele>257</ele>
        <time>2021-02-25T13:31:50.610Z</time>
      </trkpt>
      <trkpt lat="43.97586" lon="2.23869">
        <ele>257</ele>
        <time>2021-02-25T13:31:51.610Z</time>
      </trkpt>
      <trkpt lat="43.97585" lon="2.23868">
        <ele>257</ele>
        <time>2021-02-25T13:31:52.610Z</time>
      </trkpt>
      <trkpt lat="43.97584" lon="2.23867">
        <ele>257</ele>
        <time>2021-02-25T13:31:53.610Z</time>
      </trkpt>
      <trkpt lat="43.97583" lon="2.23866">
        <ele>257</ele>
        <time>2021-02-25T13:31:54.610Z</time>
      </trkpt>
      <trkpt lat="43.97582" lon="2.23865">
        <ele>257</ele>
        <time>2021-02-25T13:31:55.610Z</time>
      </trkpt>
      <trkpt lat="43.97581" lon="2.23865">
        <ele>257</ele>
        <time>2021-02-25T13:31:56.610Z</time>
      </trkpt>
      <trkpt lat="43.9758" lon="2.23864">
        <ele>258</ele>
        <time>2021-02-25T13:31:57.610Z</time>
      </trkpt>
      <trkpt lat="43.97579" lon="2.23863">
        <ele>258</ele>
        <time>2021-02-25T13:31:58.610Z</time>
      </trkpt>
      <trkpt lat="43.97578" lon="2.23862">
        <ele>258</ele>
        <time>2021-02-25T13:31:59.610Z</time>
      </trkpt>
      <trkpt lat="43.97577" lon="2.23861">
        <ele>258</ele>
        <time>2021-02-25T13:32:00.610Z</time>
      </trkpt>
      <trkpt lat="43.97576" lon="2.23861">
        <ele>258</ele>
        <time>2021-02-25T13:32:01.610Z</time>
      </trkpt>
      <trkpt lat="43.97575" lon="2.2386">
        <ele>258</ele>
        <time>2021-02-25T13:32:02.610Z</time>
      </trkpt>
      <trkpt lat="43.97574" lon="2.23859">
        <ele>258</ele>
        <time>2021-02-25T13:32:03.610Z</time>
      </trkpt>
      <trkpt lat="43.97573" lon="2.23858">
        <ele>258</ele>
        <time>2021-02-25T13:32:04.610Z</time>
      </trkpt>
      <trkpt lat="43.97572" lon="2.23857">
        <ele>258</ele>
        <time>2021-02-25T13:32:05.610Z</time>
      </trkpt>
      <trkpt lat="43.97571" lon="2.23856">
        <ele>258</ele>
        <time>2021-02-25T13:32:06.610Z</time>
      </trkpt>
      <trkpt lat="43.9757" lon="2.23855">
        <ele>258</ele>
        <time>2021-02-25T13:32:07.610Z</time>
      </trkpt>
      <trkpt lat="43.97569" lon="2.23854">
        <ele>258</ele>
        <time>2021-02-25T13:32:08.610Z</time>
      </trkpt>
      <trkpt lat="43.97569" lon="2.23853">
        <ele>258</ele>
        <time>2021-02-25T13:32:09.610Z</time>
      </trkpt>
      <trkpt lat="43.97568" lon="2.23852">
        <ele>258</ele>
        <time>2021-02-25T13:32:10.610Z</time>
      </trkpt>
      <trkpt lat="43.97567" lon="2.23851">
        <ele>258</ele>
        <time>2021-02-25T13:32:11.610Z</time>
      </trkpt>
      <trkpt lat="43.97566" lon="2.2385">
        <ele>258</ele>
        <time>2021-02-25T13:32:12.610Z</time>
      </trkpt>
      <trkpt lat="43.97566" lon="2.23849">
        <ele>258</ele>
        <time>2021-02-25T13:32:13.610Z</time>
      </trkpt>
      <trkpt lat="43.97565" lon="2.23848">
        <ele>259</ele>
        <time>2021-02-25T13:32:14.610Z</time>
      </trkpt>
      <trkpt lat="43.97564" lon="2.23846">
        <ele>259</ele>
        <time>2021-02-25T13:32:15.610Z</time>
      </trkpt>
      <trkpt lat="43.97563" lon="2.23845">
        <ele>259</ele>
        <time>2021-02-25T13:32:16.610Z</time>
      </trkpt>
      <trkpt lat="43.97564" lon="2.23844">
        <ele>259</ele>
        <time>2021-02-25T13:32:17.610Z</time>
      </trkpt>
      <trkpt lat="43.97564" lon="2.23843">
        <ele>259</ele>
        <time>2021-02-25T13:32:18.610Z</time>
      </trkpt>
      <trkpt lat="43.97564" lon="2.23842">
        <ele>259</ele>
        <time>2021-02-25T13:32:19.610Z</time>
      </trkpt>
      <trkpt lat="43.97564" lon="2.23841">
        <ele>259</ele>
        <time>2021-02-25T13:32:20.610Z</time>
      </trkpt>
      <trkpt lat="43.97563" lon="2.23841">
        <ele>259</ele>
        <time>2021-02-25T13:32:21.610Z</time>
      </trkpt>
      <trkpt lat="43.97562" lon="2.2384">
        <ele>259</ele>
        <time>2021-02-25T13:32:22.610Z</time>
      </trkpt>
      <trkpt lat="43.97562" lon="2.2384">
        <ele>258</ele>
        <time>2021-02-25T13:32:23.610Z</time>
      </trkpt>
      <trkpt lat="43.97561" lon="2.23839">
        <ele>258</ele>
        <time>2021-02-25T13:32:24.610Z</time>
      </trkpt>
      <trkpt lat="43.9756" lon="2.23839">
        <ele>258</ele>
        <time>2021-02-25T13:32:25.610Z</time>
      </trkpt>
      <trkpt lat="43.97559" lon="2.23839">
        <ele>258</ele>
        <time>2021-02-25T13:32:26.610Z</time>
      </trkpt>
      <trkpt lat="43.97558" lon="2.23838">
        <ele>258</ele>
        <time>2021-02-25T13:32:27.610Z</time>
      </trkpt>
      <trkpt lat="43.97557" lon="2.23838">
        <ele>258</ele>
        <time>2021-02-25T13:32:28.610Z</time>
      </trkpt>
      <trkpt lat="43.97556" lon="2.23837">
        <ele>258</ele>
        <time>2021-02-25T13:32:29.610Z</time>
      </trkpt>
      <trkpt lat="43.97555" lon="2.23836">
        <ele>258</ele>
        <time>2021-02-25T13:32:30.610Z</time>
      </trkpt>
      <trkpt lat="43.97553" lon="2.23835">
        <ele>258</ele>
        <time>2021-02-25T13:32:31.610Z</time>
      </trkpt>
      <trkpt lat="43.97552" lon="2.23834">
        <ele>258</ele>
        <time>2021-02-25T13:32:32.610Z</time>
      </trkpt>
      <trkpt lat="43.97551" lon="2.23833">
        <ele>258</ele>
        <time>2021-02-25T13:32:33.610Z</time>
      </trkpt>
      <trkpt lat="43.9755" lon="2.23833">
        <ele>258</ele>
        <time>2021-02-25T13:32:34.610Z</time>
      </trkpt>
      <trkpt lat="43.9755" lon="2.23832">
        <ele>258</ele>
        <time>2021-02-25T13:32:35.610Z</time>
      </trkpt>
      <trkpt lat="43.97549" lon="2.23831">
        <ele>258</ele>
        <time>2021-02-25T13:32:36.610Z</time>
      </trkpt>
      <trkpt lat="43.97548" lon="2.23831">
        <ele>258</ele>
        <time>2021-02-25T13:32:37.610Z</time>
      </trkpt>
      <trkpt lat="43.97547" lon="2.2383">
        <ele>259</ele>
        <time>2021-02-25T13:32:38.610Z</time>
      </trkpt>
      <trkpt lat="43.97546" lon="2.23829">
        <ele>259</ele>
        <time>2021-02-25T13:32:39.610Z</time>
      </trkpt>
      <trkpt lat="43.97545" lon="2.23829">
        <ele>259</ele>
        <time>2021-02-25T13:32:40.610Z</time>
      </trkpt>
      <trkpt lat="43.97544" lon="2.23828">
        <ele>259</ele>
        <time>2021-02-25T13:32:41.610Z</time>
      </trkpt>
      <trkpt lat="43.97544" lon="2.23828">
        <ele>259</ele>
        <time>2021-02-25T13:32:42.610Z</time>
      </trkpt>
      <trkpt lat="43.97543" lon="2.23827">
        <ele>259</ele>
        <time>2021-02-25T13:32:43.610Z</time>
      </trkpt>
      <trkpt lat="43.97542" lon="2.23826">
        <ele>260</ele>
        <time>2021-02-25T13:32:44.610Z</time>
      </trkpt>
      <trkpt lat="43.97541" lon="2.23826">
        <ele>260</ele>
        <time>2021-02-25T13:32:45.610Z</time>
      </trkpt>
      <trkpt lat="43.97541" lon="2.23825">
        <ele>260</ele>
        <time>2021-02-25T13:32:46.610Z</time>
      </trkpt>
      <trkpt lat="43.97541" lon="2.23825">
        <ele>260</ele>
        <time>2021-02-25T13:32:47.610Z</time>
      </trkpt>
      <trkpt lat="43.9754" lon="2.23825">
        <ele>260</ele>
        <time>2021-02-25T13:32:48.610Z</time>
      </trkpt>
      <trkpt lat="43.9754" lon="2.23825">
        <ele>261</ele>
        <time>2021-02-25T13:32:49.610Z</time>
      </trkpt>
      <trkpt lat="43.97539" lon="2.23824">
        <ele>261</ele>
        <time>2021-02-25T13:32:50.610Z</time>
      </trkpt>
      <trkpt lat="43.97539" lon="2.23824">
        <ele>261</ele>
        <time>2021-02-25T13:32:51.610Z</time>
      </trkpt>
      <trkpt lat="43.97538" lon="2.23824">
        <ele>261</ele>
        <time>2021-02-25T13:32:52.610Z</time>
      </trkpt>
      <trkpt lat="43.97538" lon="2.23823">
        <ele>261</ele>
        <time>2021-02-25T13:32:53.610Z</time>
      </trkpt>
      <trkpt lat="43.97537" lon="2.23823">
        <ele>261</ele>
        <time>2021-02-25T13:32:54.610Z</time>
      </trkpt>
      <trkpt lat="43.97537" lon="2.23823">
        <ele>261</ele>
        <time>2021-02-25T13:32:55.610Z</time>
      </trkpt>
      <trkpt lat="43.97533" lon="2.23822">
        <ele>262</ele>
        <time>2021-02-25T13:32:56.610Z</time>
      </trkpt>
      <trkpt lat="43.97533" lon="2.23821">
        <ele>262</ele>
        <time>2021-02-25T13:32:57.610Z</time>
      </trkpt>
      <trkpt lat="43.97532" lon="2.23821">
        <ele>262</ele>
        <time>2021-02-25T13:32:58.610Z</time>
      </trkpt>
      <trkpt lat="43.97531" lon="2.2382">
        <ele>262</ele>
        <time>2021-02-25T13:32:59.610Z</time>
      </trkpt>
      <trkpt lat="43.97531" lon="2.23818">
        <ele>261</ele>
        <time>2021-02-25T13:33:00.610Z</time>
      </trkpt>
      <trkpt lat="43.9753" lon="2.23817">
        <ele>261</ele>
        <time>2021-02-25T13:33:01.610Z</time>
      </trkpt>
      <trkpt lat="43.9753" lon="2.23815">
        <ele>261</ele>
        <time>2021-02-25T13:33:02.610Z</time>
      </trkpt>
      <trkpt lat="43.97529" lon="2.23814">
        <ele>260</ele>
        <time>2021-02-25T13:33:03.610Z</time>
      </trkpt>
      <trkpt lat="43.97529" lon="2.23813">
        <ele>260</ele>
        <time>2021-02-25T13:33:04.610Z</time>
      </trkpt>
      <trkpt lat="43.97528" lon="2.23813">
        <ele>260</ele>
        <time>2021-02-25T13:33:05.610Z</time>
      </trkpt>
      <trkpt lat="43.97528" lon="2.23812">
        <ele>260</ele>
        <time>2021-02-25T13:33:06.610Z</time>
      </trkpt>
      <trkpt lat="43.97527" lon="2.23812">
        <ele>259</ele>
        <time>2021-02-25T13:33:07.610Z</time>
      </trkpt>
      <trkpt lat="43.97527" lon="2.23811">
        <ele>259</ele>
        <time>2021-02-25T13:33:08.610Z</time>
      </trkpt>
      <trkpt lat="43.97527" lon="2.23811">
        <ele>259</ele>
        <time>2021-02-25T13:33:09.610Z</time>
      </trkpt>
      <trkpt lat="43.97526" lon="2.23811">
        <ele>259</ele>
        <time>2021-02-25T13:33:10.610Z</time>
      </trkpt>
      <trkpt lat="43.97526" lon="2.2381">
        <ele>259</ele>
        <time>2021-02-25T13:33:11.610Z</time>
      </trkpt>
      <trkpt lat="43.97525" lon="2.2381">
        <ele>259</ele>
        <time>2021-02-25T13:33:14.854Z</time>
      </trkpt>
      <trkpt lat="43.97525" lon="2.2381">
        <ele>259</ele>
        <time>2021-02-25T13:33:15.854Z</time>
      </trkpt>
      <trkpt lat="43.97525" lon="2.23809">
        <ele>259</ele>
        <time>2021-02-25T13:33:16.854Z</time>
      </trkpt>
      <trkpt lat="43.97522" lon="2.23808">
        <ele>258</ele>
        <time>2021-02-25T13:33:17.854Z</time>
      </trkpt>
      <trkpt lat="43.97522" lon="2.23808">
        <ele>258</ele>
        <time>2021-02-25T13:33:18.854Z</time>
      </trkpt>
      <trkpt lat="43.97521" lon="2.23808">
        <ele>258</ele>
        <time>2021-02-25T13:33:19.854Z</time>
      </trkpt>
      <trkpt lat="43.97521" lon="2.23807">
        <ele>258</ele>
        <time>2021-02-25T13:33:20.854Z</time>
      </trkpt>
      <trkpt lat="43.97521" lon="2.23807">
        <ele>258</ele>
        <time>2021-02-25T13:33:21.854Z</time>
      </trkpt>
      <trkpt lat="43.9752" lon="2.23807">
        <ele>258</ele>
        <time>2021-02-25T13:33:22.854Z</time>
      </trkpt>
      <trkpt lat="43.9752" lon="2.23806">
        <ele>258</ele>
        <time>2021-02-25T13:33:23.854Z</time>
      </trkpt>
      <trkpt lat="43.97519" lon="2.23805">
        <ele>258</ele>
        <time>2021-02-25T13:33:24.854Z</time>
      </trkpt>
      <trkpt lat="43.97519" lon="2.23804">
        <ele>257</ele>
        <time>2021-02-25T13:33:28.100Z</time>
      </trkpt>
      <trkpt lat="43.97519" lon="2.23803">
        <ele>257</ele>
        <time>2021-02-25T13:33:29.100Z</time>
      </trkpt>
      <trkpt lat="43.97519" lon="2.23802">
        <ele>257</ele>
        <time>2021-02-25T13:33:30.100Z</time>
      </trkpt>
      <trkpt lat="43.9752" lon="2.23801">
        <ele>257</ele>
        <time>2021-02-25T13:33:31.100Z</time>
      </trkpt>
      <trkpt lat="43.9752" lon="2.238">
        <ele>257</ele>
        <time>2021-02-25T13:33:32.100Z</time>
      </trkpt>
      <trkpt lat="43.97521" lon="2.23799">
        <ele>257</ele>
        <time>2021-02-25T13:33:33.100Z</time>
      </trkpt>
      <trkpt lat="43.97521" lon="2.23798">
        <ele>257</ele>
        <time>2021-02-25T13:33:34.100Z</time>
      </trkpt>
      <trkpt lat="43.97521" lon="2.23798">
        <ele>257</ele>
        <time>2021-02-25T13:33:35.100Z</time>
      </trkpt>
      <trkpt lat="43.9752" lon="2.23797">
        <ele>257</ele>
        <time>2021-02-25T13:33:36.100Z</time>
      </trkpt>
      <trkpt lat="43.9752" lon="2.23796">
        <ele>257</ele>
        <time>2021-02-25T13:33:37.100Z</time>
      </trkpt>
      <trkpt lat="43.97519" lon="2.23796">
        <ele>257</ele>
        <time>2021-02-25T13:33:38.100Z</time>
      </trkpt>
      <trkpt lat="43.97518" lon="2.23796">
        <ele>257</ele>
        <time>2021-02-25T13:33:39.100Z</time>
      </trkpt>
      <trkpt lat="43.97518" lon="2.23796">
        <ele>257</ele>
        <time>2021-02-25T13:33:42.345Z</time>
      </trkpt>
      <trkpt lat="43.97517" lon="2.23795">
        <ele>257</ele>
        <time>2021-02-25T13:33:43.345Z</time>
      </trkpt>
      <trkpt lat="43.97516" lon="2.23795">
        <ele>257</ele>
        <time>2021-02-25T13:33:44.345Z</time>
      </trkpt>
      <trkpt lat="43.97515" lon="2.23795">
        <ele>257</ele>
        <time>2021-02-25T13:33:45.345Z</time>
      </trkpt>
      <trkpt lat="43.97514" lon="2.23795">
        <ele>257</ele>
        <time>2021-02-25T13:33:46.345Z</time>
      </trkpt>
      <trkpt lat="43.97514" lon="2.23794">
        <ele>257</ele>
        <time>2021-02-25T13:33:47.345Z</time>
      </trkpt>
      <trkpt lat="43.97513" lon="2.23794">
        <ele>257</ele>
        <time>2021-02-25T13:33:48.345Z</time>
      </trkpt>
      <trkpt lat="43.97512" lon="2.23793">
        <ele>257</ele>
        <time>2021-02-25T13:33:49.345Z</time>
      </trkpt>
      <trkpt lat="43.97511" lon="2.23793">
        <ele>257</ele>
        <time>2021-02-25T13:33:50.345Z</time>
      </trkpt>
      <trkpt lat="43.9751" lon="2.23793">
        <ele>257</ele>
        <time>2021-02-25T13:33:51.345Z</time>
      </trkpt>
      <trkpt lat="43.97509" lon="2.23792">
        <ele>257</ele>
        <time>2021-02-25T13:33:52.345Z</time>
      </trkpt>
      <trkpt lat="43.97507" lon="2.23792">
        <ele>257</ele>
        <time>2021-02-25T13:33:53.345Z</time>
      </trkpt>
      <trkpt lat="43.97505" lon="2.23792">
        <ele>257</ele>
        <time>2021-02-25T13:33:54.345Z</time>
      </trkpt>
      <trkpt lat="43.97504" lon="2.23791">
        <ele>257</ele>
        <time>2021-02-25T13:33:55.345Z</time>
      </trkpt>
      <trkpt lat="43.97503" lon="2.23791">
        <ele>257</ele>
        <time>2021-02-25T13:33:56.345Z</time>
      </trkpt>
      <trkpt lat="43.97502" lon="2.2379">
        <ele>257</ele>
        <time>2021-02-25T13:33:57.345Z</time>
      </trkpt>
      <trkpt lat="43.97501" lon="2.2379">
        <ele>258</ele>
        <time>2021-02-25T13:33:58.345Z</time>
      </trkpt>
      <trkpt lat="43.975" lon="2.23791">
        <ele>258</ele>
        <time>2021-02-25T13:33:59.345Z</time>
      </trkpt>
      <trkpt lat="43.975" lon="2.23791">
        <ele>258</ele>
        <time>2021-02-25T13:34:00.345Z</time>
      </trkpt>
      <trkpt lat="43.97499" lon="2.23791">
        <ele>258</ele>
        <time>2021-02-25T13:34:01.345Z</time>
      </trkpt>
      <trkpt lat="43.97498" lon="2.23792">
        <ele>258</ele>
        <time>2021-02-25T13:34:02.345Z</time>
      </trkpt>
      <trkpt lat="43.97497" lon="2.23792">
        <ele>258</ele>
        <time>2021-02-25T13:34:03.345Z</time>
      </trkpt>
      <trkpt lat="43.97496" lon="2.23792">
        <ele>258</ele>
        <time>2021-02-25T13:34:04.345Z</time>
      </trkpt>
      <trkpt lat="43.97495" lon="2.23792">
        <ele>258</ele>
        <time>2021-02-25T13:34:05.345Z</time>
      </trkpt>
      <trkpt lat="43.97494" lon="2.23793">
        <ele>259</ele>
        <time>2021-02-25T13:34:06.345Z</time>
      </trkpt>
      <trkpt lat="43.97493" lon="2.23793">
        <ele>259</ele>
        <time>2021-02-25T13:34:07.345Z</time>
      </trkpt>
      <trkpt lat="43.97493" lon="2.23794">
        <ele>259</ele>
        <time>2021-02-25T13:34:08.345Z</time>
      </trkpt>
      <trkpt lat="43.97492" lon="2.23795">
        <ele>259</ele>
        <time>2021-02-25T13:34:09.345Z</time>
      </trkpt>
      <trkpt lat="43.97491" lon="2.23795">
        <ele>259</ele>
        <time>2021-02-25T13:34:10.345Z</time>
      </trkpt>
      <trkpt lat="43.97491" lon="2.23796">
        <ele>260</ele>
        <time>2021-02-25T13:34:11.345Z</time>
      </trkpt>
      <trkpt lat="43.9749" lon="2.23796">
        <ele>260</ele>
        <time>2021-02-25T13:34:12.345Z</time>
      </trkpt>
      <trkpt lat="43.97488" lon="2.23796">
        <ele>260</ele>
        <time>2021-02-25T13:34:13.345Z</time>
      </trkpt>
      <trkpt lat="43.97487" lon="2.23795">
        <ele>260</ele>
        <time>2021-02-25T13:34:14.345Z</time>
      </trkpt>
      <trkpt lat="43.97486" lon="2.23795">
        <ele>260</ele>
        <time>2021-02-25T13:34:15.345Z</time>
      </trkpt>
      <trkpt lat="43.97485" lon="2.23794">
        <ele>260</ele>
        <time>2021-02-25T13:34:16.345Z</time>
      </trkpt>
      <trkpt lat="43.97483" lon="2.23793">
        <ele>260</ele>
        <time>2021-02-25T13:34:17.345Z</time>
      </trkpt>
      <trkpt lat="43.97482" lon="2.23793">
        <ele>260</ele>
        <time>2021-02-25T13:34:18.345Z</time>
      </trkpt>
      <trkpt lat="43.97481" lon="2.23792">
        <ele>260</ele>
        <time>2021-02-25T13:34:19.345Z</time>
      </trkpt>
      <trkpt lat="43.97481" lon="2.23791">
        <ele>260</ele>
        <time>2021-02-25T13:34:20.345Z</time>
      </trkpt>
      <trkpt lat="43.9748" lon="2.23789">
        <ele>260</ele>
        <time>2021-02-25T13:34:21.345Z</time>
      </trkpt>
      <trkpt lat="43.97479" lon="2.23788">
        <ele>260</ele>
        <time>2021-02-25T13:34:22.345Z</time>
      </trkpt>
      <trkpt lat="43.97478" lon="2.23788">
        <ele>260</ele>
        <time>2021-02-25T13:34:23.345Z</time>
      </trkpt>
      <trkpt lat="43.97477" lon="2.23788">
        <ele>260</ele>
        <time>2021-02-25T13:34:24.345Z</time>
      </trkpt>
      <trkpt lat="43.97475" lon="2.23787">
        <ele>260</ele>
        <time>2021-02-25T13:34:25.345Z</time>
      </trkpt>
      <trkpt lat="43.97474" lon="2.23787">
        <ele>260</ele>
        <time>2021-02-25T13:34:26.345Z</time>
      </trkpt>
      <trkpt lat="43.97473" lon="2.23786">
        <ele>260</ele>
        <time>2021-02-25T13:34:27.345Z</time>
      </trkpt>
      <trkpt lat="43.97472" lon="2.23785">
        <ele>260</ele>
        <time>2021-02-25T13:34:28.345Z</time>
      </trkpt>
      <trkpt lat="43.97471" lon="2.23784">
        <ele>260</ele>
        <time>2021-02-25T13:34:29.345Z</time>
      </trkpt>
      <trkpt lat="43.9747" lon="2.23783">
        <ele>260</ele>
        <time>2021-02-25T13:34:30.345Z</time>
      </trkpt>
      <trkpt lat="43.97469" lon="2.23782">
        <ele>260</ele>
        <time>2021-02-25T13:34:31.345Z</time>
      </trkpt>
      <trkpt lat="43.97469" lon="2.23781">
        <ele>260</ele>
        <time>2021-02-25T13:34:32.345Z</time>
      </trkpt>
      <trkpt lat="43.97468" lon="2.2378">
        <ele>260</ele>
        <time>2021-02-25T13:34:33.345Z</time>
      </trkpt>
      <trkpt lat="43.97467" lon="2.23779">
        <ele>260</ele>
        <time>2021-02-25T13:34:34.345Z</time>
      </trkpt>
      <trkpt lat="43.97466" lon="2.23778">
        <ele>260</ele>
        <time>2021-02-25T13:34:35.345Z</time>
      </trkpt>
      <trkpt lat="43.97465" lon="2.23778">
        <ele>261</ele>
        <time>2021-02-25T13:34:36.345Z</time>
      </trkpt>
      <trkpt lat="43.97464" lon="2.23777">
        <ele>261</ele>
        <time>2021-02-25T13:34:37.345Z</time>
      </trkpt>
      <trkpt lat="43.97463" lon="2.23777">
        <ele>261</ele>
        <time>2021-02-25T13:34:38.345Z</time>
      </trkpt>
      <trkpt lat="43.97462" lon="2.23776">
        <ele>261</ele>
        <time>2021-02-25T13:34:39.345Z</time>
      </trkpt>
      <trkpt lat="43.97461" lon="2.23776">
        <ele>261</ele>
        <time>2021-02-25T13:34:40.345Z</time>
      </trkpt>
      <trkpt lat="43.97459" lon="2.23776">
        <ele>261</ele>
        <time>2021-02-25T13:34:41.345Z</time>
      </trkpt>
      <trkpt lat="43.97458" lon="2.23775">
        <ele>261</ele>
        <time>2021-02-25T13:34:42.345Z</time>
      </trkpt>
      <trkpt lat="43.97457" lon="2.23774">
        <ele>262</ele>
        <time>2021-02-25T13:34:43.345Z</time>
      </trkpt>
      <trkpt lat="43.97456" lon="2.23774">
        <ele>262</ele>
        <time>2021-02-25T13:34:44.345Z</time>
      </trkpt>
      <trkpt lat="43.97455" lon="2.23774">
        <ele>262</ele>
        <time>2021-02-25T13:34:45.345Z</time>
      </trkpt>
      <trkpt lat="43.97454" lon="2.23774">
        <ele>262</ele>
        <time>2021-02-25T13:34:46.345Z</time>
      </trkpt>
      <trkpt lat="43.97453" lon="2.23774">
        <ele>262</ele>
        <time>2021-02-25T13:34:47.345Z</time>
      </trkpt>
      <trkpt lat="43.97452" lon="2.23773">
        <ele>262</ele>
        <time>2021-02-25T13:34:48.345Z</time>
      </trkpt>
      <trkpt lat="43.97451" lon="2.23773">
        <ele>262</ele>
        <time>2021-02-25T13:34:49.345Z</time>
      </trkpt>
      <trkpt lat="43.9745" lon="2.23773">
        <ele>262</ele>
        <time>2021-02-25T13:34:50.345Z</time>
      </trkpt>
      <trkpt lat="43.97449" lon="2.23772">
        <ele>262</ele>
        <time>2021-02-25T13:34:51.345Z</time>
      </trkpt>
      <trkpt lat="43.97448" lon="2.23771">
        <ele>262</ele>
        <time>2021-02-25T13:34:52.345Z</time>
      </trkpt>
      <trkpt lat="43.97447" lon="2.2377">
        <ele>262</ele>
        <time>2021-02-25T13:34:53.345Z</time>
      </trkpt>
      <trkpt lat="43.97446" lon="2.23769">
        <ele>262</ele>
        <time>2021-02-25T13:34:54.345Z</time>
      </trkpt>
      <trkpt lat="43.97445" lon="2.23768">
        <ele>262</ele>
        <time>2021-02-25T13:34:55.345Z</time>
      </trkpt>
      <trkpt lat="43.97445" lon="2.23767">
        <ele>262</ele>
        <time>2021-02-25T13:34:56.345Z</time>
      </trkpt>
      <trkpt lat="43.97444" lon="2.23767">
        <ele>262</ele>
        <time>2021-02-25T13:34:57.345Z</time>
      </trkpt>
      <trkpt lat="43.97444" lon="2.23766">
        <ele>262</ele>
        <time>2021-02-25T13:34:58.345Z</time>
      </trkpt>
      <trkpt lat="43.97444" lon="2.23766">
        <ele>262</ele>
        <time>2021-02-25T13:34:59.345Z</time>
      </trkpt>
      <trkpt lat="43.97443" lon="2.23766">
        <ele>262</ele>
        <time>2021-02-25T13:35:00.345Z</time>
      </trkpt>
      <trkpt lat="43.97443" lon="2.23766">
        <ele>262</ele>
        <time>2021-02-25T13:35:01.345Z</time>
      </trkpt>
      <trkpt lat="43.97441" lon="2.23764">
        <ele>262</ele>
        <time>2021-02-25T13:35:02.345Z</time>
      </trkpt>
      <trkpt lat="43.9744" lon="2.23763">
        <ele>262</ele>
        <time>2021-02-25T13:35:03.345Z</time>
      </trkpt>
      <trkpt lat="43.97439" lon="2.23763">
        <ele>262</ele>
        <time>2021-02-25T13:35:04.345Z</time>
      </trkpt>
      <trkpt lat="43.97438" lon="2.23762">
        <ele>262</ele>
        <time>2021-02-25T13:35:05.345Z</time>
      </trkpt>
      <trkpt lat="43.97437" lon="2.2376">
        <ele>262</ele>
        <time>2021-02-25T13:35:06.345Z</time>
      </trkpt>
      <trkpt lat="43.97437" lon="2.23759">
        <ele>262</ele>
        <time>2021-02-25T13:35:07.345Z</time>
      </trkpt>
      <trkpt lat="43.97436" lon="2.23758">
        <ele>262</ele>
        <time>2021-02-25T13:35:08.345Z</time>
      </trkpt>
      <trkpt lat="43.97435" lon="2.23757">
        <ele>261</ele>
        <time>2021-02-25T13:35:09.345Z</time>
      </trkpt>
      <trkpt lat="43.97435" lon="2.23756">
        <ele>261</ele>
        <time>2021-02-25T13:35:10.345Z</time>
      </trkpt>
      <trkpt lat="43.97434" lon="2.23754">
        <ele>261</ele>
        <time>2021-02-25T13:35:11.345Z</time>
      </trkpt>
      <trkpt lat="43.97433" lon="2.23753">
        <ele>261</ele>
        <time>2021-02-25T13:35:12.345Z</time>
      </trkpt>
      <trkpt lat="43.97433" lon="2.23752">
        <ele>261</ele>
        <time>2021-02-25T13:35:13.345Z</time>
      </trkpt>
      <trkpt lat="43.97432" lon="2.23751">
        <ele>261</ele>
        <time>2021-02-25T13:35:14.345Z</time>
      </trkpt>
      <trkpt lat="43.97431" lon="2.2375">
        <ele>261</ele>
        <time>2021-02-25T13:35:15.345Z</time>
      </trkpt>
      <trkpt lat="43.9743" lon="2.2375">
        <ele>261</ele>
        <time>2021-02-25T13:35:16.345Z</time>
      </trkpt>
      <trkpt lat="43.97429" lon="2.2375">
        <ele>261</ele>
        <time>2021-02-25T13:35:17.345Z</time>
      </trkpt>
      <trkpt lat="43.97427" lon="2.2375">
        <ele>261</ele>
        <time>2021-02-25T13:35:18.345Z</time>
      </trkpt>
      <trkpt lat="43.97426" lon="2.23749">
        <ele>260</ele>
        <time>2021-02-25T13:35:19.345Z</time>
      </trkpt>
      <trkpt lat="43.97425" lon="2.23749">
        <ele>260</ele>
        <time>2021-02-25T13:35:20.345Z</time>
      </trkpt>
      <trkpt lat="43.97424" lon="2.23749">
        <ele>260</ele>
        <time>2021-02-25T13:35:21.345Z</time>
      </trkpt>
      <trkpt lat="43.97422" lon="2.23749">
        <ele>260</ele>
        <time>2021-02-25T13:35:22.345Z</time>
      </trkpt>
      <trkpt lat="43.97421" lon="2.23749">
        <ele>260</ele>
        <time>2021-02-25T13:35:23.345Z</time>
      </trkpt>
      <trkpt lat="43.97421" lon="2.2375">
        <ele>260</ele>
        <time>2021-02-25T13:35:24.345Z</time>
      </trkpt>
      <trkpt lat="43.9742" lon="2.2375">
        <ele>260</ele>
        <time>2021-02-25T13:35:25.345Z</time>
      </trkpt>
      <trkpt lat="43.97419" lon="2.23751">
        <ele>260</ele>
        <time>2021-02-25T13:35:26.345Z</time>
      </trkpt>
      <trkpt lat="43.97418" lon="2.23751">
        <ele>260</ele>
        <time>2021-02-25T13:35:27.345Z</time>
      </trkpt>
      <trkpt lat="43.97417" lon="2.23752">
        <ele>260</ele>
        <time>2021-02-25T13:35:28.345Z</time>
      </trkpt>
      <trkpt lat="43.97416" lon="2.23752">
        <ele>260</ele>
        <time>2021-02-25T13:35:29.345Z</time>
      </trkpt>
      <trkpt lat="43.97415" lon="2.23752">
        <ele>260</ele>
        <time>2021-02-25T13:35:30.345Z</time>
      </trkpt>
      <trkpt lat="43.97414" lon="2.23751">
        <ele>260</ele>
        <time>2021-02-25T13:35:31.345Z</time>
      </trkpt>
      <trkpt lat="43.97413" lon="2.23751">
        <ele>260</ele>
        <time>2021-02-25T13:35:32.345Z</time>
      </trkpt>
      <trkpt lat="43.97412" lon="2.23751">
        <ele>260</ele>
        <time>2021-02-25T13:35:33.345Z</time>
      </trkpt>
      <trkpt lat="43.9741" lon="2.2375">
        <ele>260</ele>
        <time>2021-02-25T13:35:34.345Z</time>
      </trkpt>
      <trkpt lat="43.97409" lon="2.2375">
        <ele>260</ele>
        <time>2021-02-25T13:35:35.345Z</time>
      </trkpt>
      <trkpt lat="43.97408" lon="2.2375">
        <ele>260</ele>
        <time>2021-02-25T13:35:36.345Z</time>
      </trkpt>
      <trkpt lat="43.97407" lon="2.23751">
        <ele>260</ele>
        <time>2021-02-25T13:35:37.345Z</time>
      </trkpt>
      <trkpt lat="43.97406" lon="2.23752">
        <ele>261</ele>
        <time>2021-02-25T13:35:38.345Z</time>
      </trkpt>
      <trkpt lat="43.97406" lon="2.23752">
        <ele>261</ele>
        <time>2021-02-25T13:35:39.345Z</time>
      </trkpt>
      <trkpt lat="43.97405" lon="2.23752">
        <ele>261</ele>
        <time>2021-02-25T13:35:40.345Z</time>
      </trkpt>
      <trkpt lat="43.97405" lon="2.23753">
        <ele>261</ele>
        <time>2021-02-25T13:35:41.345Z</time>
      </trkpt>
      <trkpt lat="43.97404" lon="2.23754">
        <ele>261</ele>
        <time>2021-02-25T13:35:42.345Z</time>
      </trkpt>
      <trkpt lat="43.97404" lon="2.23754">
        <ele>261</ele>
        <time>2021-02-25T13:35:43.345Z</time>
      </trkpt>
      <trkpt lat="43.97404" lon="2.23755">
        <ele>261</ele>
        <time>2021-02-25T13:35:44.345Z</time>
      </trkpt>
      <trkpt lat="43.97404" lon="2.23755">
        <ele>261</ele>
        <time>2021-02-25T13:35:45.345Z</time>
      </trkpt>
      <trkpt lat="43.97404" lon="2.23755">
        <ele>261</ele>
        <time>2021-02-25T13:35:46.345Z</time>
      </trkpt>
      <trkpt lat="43.97403" lon="2.23756">
        <ele>261</ele>
        <time>2021-02-25T13:35:47.345Z</time>
      </trkpt>
      <trkpt lat="43.97403" lon="2.23757">
        <ele>261</ele>
        <time>2021-02-25T13:35:48.345Z</time>
      </trkpt>
      <trkpt lat="43.97402" lon="2.23757">
        <ele>261</ele>
        <time>2021-02-25T13:35:49.345Z</time>
      </trkpt>
      <trkpt lat="43.97401" lon="2.23757">
        <ele>261</ele>
        <time>2021-02-25T13:35:50.345Z</time>
      </trkpt>
      <trkpt lat="43.97401" lon="2.23758">
        <ele>261</ele>
        <time>2021-02-25T13:35:51.345Z</time>
      </trkpt>
      <trkpt lat="43.974" lon="2.23758">
        <ele>261</ele>
        <time>2021-02-25T13:35:52.345Z</time>
      </trkpt>
      <trkpt lat="43.97399" lon="2.23759">
        <ele>261</ele>
        <time>2021-02-25T13:35:53.345Z</time>
      </trkpt>
      <trkpt lat="43.97399" lon="2.23759">
        <ele>261</ele>
        <time>2021-02-25T13:35:54.345Z</time>
      </trkpt>
      <trkpt lat="43.97398" lon="2.23759">
        <ele>261</ele>
        <time>2021-02-25T13:35:55.345Z</time>
      </trkpt>
      <trkpt lat="43.97397" lon="2.2376">
        <ele>261</ele>
        <time>2021-02-25T13:35:56.345Z</time>
      </trkpt>
      <trkpt lat="43.97396" lon="2.2376">
        <ele>261</ele>
        <time>2021-02-25T13:35:57.345Z</time>
      </trkpt>
      <trkpt lat="43.97395" lon="2.23761">
        <ele>261</ele>
        <time>2021-02-25T13:35:58.345Z</time>
      </trkpt>
      <trkpt lat="43.97394" lon="2.23761">
        <ele>261</ele>
        <time>2021-02-25T13:35:59.345Z</time>
      </trkpt>
      <trkpt lat="43.97393" lon="2.23762">
        <ele>261</ele>
        <time>2021-02-25T13:36:00.345Z</time>
      </trkpt>
      <trkpt lat="43.97392" lon="2.23762">
        <ele>262</ele>
        <time>2021-02-25T13:36:01.345Z</time>
      </trkpt>
      <trkpt lat="43.97391" lon="2.23763">
        <ele>262</ele>
        <time>2021-02-25T13:36:02.345Z</time>
      </trkpt>
      <trkpt lat="43.97389" lon="2.23763">
        <ele>262</ele>
        <time>2021-02-25T13:36:03.345Z</time>
      </trkpt>
      <trkpt lat="43.97388" lon="2.23764">
        <ele>262</ele>
        <time>2021-02-25T13:36:04.345Z</time>
      </trkpt>
      <trkpt lat="43.97386" lon="2.23764">
        <ele>262</ele>
        <time>2021-02-25T13:36:05.345Z</time>
      </trkpt>
      <trkpt lat="43.97385" lon="2.23764">
        <ele>263</ele>
        <time>2021-02-25T13:36:06.345Z</time>
      </trkpt>
      <trkpt lat="43.97384" lon="2.23765">
        <ele>263</ele>
        <time>2021-02-25T13:36:07.345Z</time>
      </trkpt>
      <trkpt lat="43.97382" lon="2.23765">
        <ele>263</ele>
        <time>2021-02-25T13:36:08.345Z</time>
      </trkpt>
      <trkpt lat="43.97381" lon="2.23765">
        <ele>263</ele>
        <time>2021-02-25T13:36:09.345Z</time>
      </trkpt>
      <trkpt lat="43.9738" lon="2.23765">
        <ele>263</ele>
        <time>2021-02-25T13:36:10.345Z</time>
      </trkpt>
      <trkpt lat="43.97379" lon="2.23764">
        <ele>263</ele>
        <time>2021-02-25T13:36:11.345Z</time>
      </trkpt>
      <trkpt lat="43.97378" lon="2.23764">
        <ele>263</ele>
        <time>2021-02-25T13:36:12.345Z</time>
      </trkpt>
      <trkpt lat="43.97377" lon="2.23764">
        <ele>263</ele>
        <time>2021-02-25T13:36:13.345Z</time>
      </trkpt>
      <trkpt lat="43.97376" lon="2.23764">
        <ele>263</ele>
        <time>2021-02-25T13:36:14.345Z</time>
      </trkpt>
      <trkpt lat="43.97375" lon="2.23764">
        <ele>263</ele>
        <time>2021-02-25T13:36:17.590Z</time>
      </trkpt>
      <trkpt lat="43.97374" lon="2.23764">
        <ele>263</ele>
        <time>2021-02-25T13:36:18.590Z</time>
      </trkpt>
      <trkpt lat="43.97373" lon="2.23764">
        <ele>263</ele>
        <time>2021-02-25T13:36:19.590Z</time>
      </trkpt>
      <trkpt lat="43.97372" lon="2.23764">
        <ele>263</ele>
        <time>2021-02-25T13:36:20.590Z</time>
      </trkpt>
      <trkpt lat="43.97371" lon="2.23764">
        <ele>263</ele>
        <time>2021-02-25T13:36:21.590Z</time>
      </trkpt>
      <trkpt lat="43.97369" lon="2.23764">
        <ele>263</ele>
        <time>2021-02-25T13:36:22.590Z</time>
      </trkpt>
      <trkpt lat="43.97368" lon="2.23764">
        <ele>263</ele>
        <time>2021-02-25T13:36:30.601Z</time>
      </trkpt>
      <trkpt lat="43.97367" lon="2.23764">
        <ele>263</ele>
        <time>2021-02-25T13:36:31.601Z</time>
      </trkpt>
      <trkpt lat="43.97366" lon="2.23763">
        <ele>263</ele>
        <time>2021-02-25T13:36:32.601Z</time>
      </trkpt>
      <trkpt lat="43.97365" lon="2.23763">
        <ele>263</ele>
        <time>2021-02-25T13:36:33.601Z</time>
      </trkpt>
      <trkpt lat="43.97364" lon="2.23762">
        <ele>263</ele>
        <time>2021-02-25T13:36:34.601Z</time>
      </trkpt>
      <trkpt lat="43.97363" lon="2.23762">
        <ele>262</ele>
        <time>2021-02-25T13:36:35.601Z</time>
      </trkpt>
      <trkpt lat="43.97362" lon="2.23761">
        <ele>262</ele>
        <time>2021-02-25T13:36:36.601Z</time>
      </trkpt>
      <trkpt lat="43.97362" lon="2.23761">
        <ele>262</ele>
        <time>2021-02-25T13:36:37.601Z</time>
      </trkpt>
      <trkpt lat="43.97361" lon="2.2376">
        <ele>262</ele>
        <time>2021-02-25T13:36:38.601Z</time>
      </trkpt>
      <trkpt lat="43.97361" lon="2.2376">
        <ele>262</ele>
        <time>2021-02-25T13:36:39.601Z</time>
      </trkpt>
      <trkpt lat="43.97361" lon="2.2376">
        <ele>261</ele>
        <time>2021-02-25T13:36:40.601Z</time>
      </trkpt>
      <trkpt lat="43.97358" lon="2.23758">
        <ele>260</ele>
        <time>2021-02-25T13:36:41.601Z</time>
      </trkpt>
      <trkpt lat="43.97357" lon="2.23758">
        <ele>260</ele>
        <time>2021-02-25T13:36:42.601Z</time>
      </trkpt>
      <trkpt lat="43.97357" lon="2.23758">
        <ele>259</ele>
        <time>2021-02-25T13:36:43.601Z</time>
      </trkpt>
      <trkpt lat="43.97357" lon="2.23758">
        <ele>259</ele>
        <time>2021-02-25T13:36:56.610Z</time>
      </trkpt>
      <trkpt lat="43.97357" lon="2.23758">
        <ele>259</ele>
        <time>2021-02-25T13:36:57.610Z</time>
      </trkpt>
      <trkpt lat="43.97357" lon="2.23758">
        <ele>259</ele>
        <time>2021-02-25T13:36:58.610Z</time>
      </trkpt>
      <trkpt lat="43.97355" lon="2.23756">
        <ele>248</ele>
        <time>2021-02-25T13:36:59.610Z</time>
      </trkpt>
      <trkpt lat="43.97355" lon="2.23756">
        <ele>248</ele>
        <time>2021-02-25T13:37:00.610Z</time>
      </trkpt>
      <trkpt lat="43.97354" lon="2.23757">
        <ele>248</ele>
        <time>2021-02-25T13:37:10.619Z</time>
      </trkpt>
      <trkpt lat="43.97355" lon="2.23758">
        <ele>247</ele>
        <time>2021-02-25T13:37:11.619Z</time>
      </trkpt>
      <trkpt lat="43.97355" lon="2.23758">
        <ele>247</ele>
        <time>2021-02-25T13:37:12.619Z</time>
      </trkpt>
      <trkpt lat="43.97355" lon="2.23758">
        <ele>247</ele>
        <time>2021-02-25T13:37:13.619Z</time>
      </trkpt>
      <trkpt lat="43.97354" lon="2.23758">
        <ele>247</ele>
        <time>2021-02-25T13:37:14.619Z</time>
      </trkpt>
      <trkpt lat="43.97353" lon="2.23757">
        <ele>247</ele>
        <time>2021-02-25T13:37:15.619Z</time>
      </trkpt>
      <trkpt lat="43.97352" lon="2.23757">
        <ele>247</ele>
        <time>2021-02-25T13:37:16.619Z</time>
      </trkpt>
      <trkpt lat="43.97352" lon="2.23757">
        <ele>247</ele>
        <time>2021-02-25T13:37:17.619Z</time>
      </trkpt>
      <trkpt lat="43.97351" lon="2.23756">
        <ele>247</ele>
        <time>2021-02-25T13:37:18.619Z</time>
      </trkpt>
      <trkpt lat="43.9735" lon="2.23756">
        <ele>247</ele>
        <time>2021-02-25T13:37:19.619Z</time>
      </trkpt>
      <trkpt lat="43.97349" lon="2.23755">
        <ele>247</ele>
        <time>2021-02-25T13:37:20.619Z</time>
      </trkpt>
      <trkpt lat="43.97349" lon="2.23755">
        <ele>247</ele>
        <time>2021-02-25T13:37:21.619Z</time>
      </trkpt>
      <trkpt lat="43.97348" lon="2.23755">
        <ele>247</ele>
        <time>2021-02-25T13:37:22.619Z</time>
      </trkpt>
      <trkpt lat="43.97347" lon="2.23754">
        <ele>247</ele>
        <time>2021-02-25T13:37:23.619Z</time>
      </trkpt>
      <trkpt lat="43.97347" lon="2.23753">
        <ele>247</ele>
        <time>2021-02-25T13:37:24.619Z</time>
      </trkpt>
      <trkpt lat="43.97346" lon="2.23752">
        <ele>247</ele>
        <time>2021-02-25T13:37:25.619Z</time>
      </trkpt>
      <trkpt lat="43.97346" lon="2.23752">
        <ele>247</ele>
        <time>2021-02-25T13:37:26.619Z</time>
      </trkpt>
      <trkpt lat="43.97346" lon="2.23752">
        <ele>247</ele>
        <time>2021-02-25T13:37:27.619Z</time>
      </trkpt>
      <trkpt lat="43.97345" lon="2.23752">
        <ele>247</ele>
        <time>2021-02-25T13:37:28.619Z</time>
      </trkpt>
      <trkpt lat="43.97345" lon="2.23751">
        <ele>247</ele>
        <time>2021-02-25T13:37:29.619Z</time>
      </trkpt>
      <trkpt lat="43.97345" lon="2.23749">
        <ele>247</ele>
        <time>2021-02-25T13:37:30.619Z</time>
      </trkpt>
      <trkpt lat="43.97345" lon="2.23748">
        <ele>247</ele>
        <time>2021-02-25T13:37:31.619Z</time>
      </trkpt>
      <trkpt lat="43.97344" lon="2.23747">
        <ele>246</ele>
        <time>2021-02-25T13:37:32.619Z</time>
      </trkpt>
      <trkpt lat="43.97344" lon="2.23746">
        <ele>246</ele>
        <time>2021-02-25T13:37:33.619Z</time>
      </trkpt>
      <trkpt lat="43.97344" lon="2.23745">
        <ele>246</ele>
        <time>2021-02-25T13:37:34.619Z</time>
      </trkpt>
      <trkpt lat="43.97343" lon="2.23743">
        <ele>246</ele>
        <time>2021-02-25T13:37:35.619Z</time>
      </trkpt>
      <trkpt lat="43.97343" lon="2.23742">
        <ele>246</ele>
        <time>2021-02-25T13:37:36.619Z</time>
      </trkpt>
      <trkpt lat="43.97343" lon="2.23741">
        <ele>246</ele>
        <time>2021-02-25T13:37:37.619Z</time>
      </trkpt>
      <trkpt lat="43.97342" lon="2.23739">
        <ele>246</ele>
        <time>2021-02-25T13:37:38.619Z</time>
      </trkpt>
      <trkpt lat="43.97342" lon="2.23738">
        <ele>245</ele>
        <time>2021-02-25T13:37:39.619Z</time>
      </trkpt>
      <trkpt lat="43.97341" lon="2.23737">
        <ele>245</ele>
        <time>2021-02-25T13:37:40.619Z</time>
      </trkpt>
      <trkpt lat="43.97341" lon="2.23736">
        <ele>245</ele>
        <time>2021-02-25T13:37:41.619Z</time>
      </trkpt>
      <trkpt lat="43.97341" lon="2.23734">
        <ele>245</ele>
        <time>2021-02-25T13:37:42.619Z</time>
      </trkpt>
      <trkpt lat="43.9734" lon="2.23733">
        <ele>244</ele>
        <time>2021-02-25T13:37:43.619Z</time>
      </trkpt>
      <trkpt lat="43.9734" lon="2.23732">
        <ele>244</ele>
        <time>2021-02-25T13:37:44.619Z</time>
      </trkpt>
      <trkpt lat="43.97339" lon="2.2373">
        <ele>244</ele>
        <time>2021-02-25T13:37:45.619Z</time>
      </trkpt>
      <trkpt lat="43.97339" lon="2.23729">
        <ele>244</ele>
        <time>2021-02-25T13:37:46.619Z</time>
      </trkpt>
      <trkpt lat="43.97338" lon="2.23728">
        <ele>243</ele>
        <time>2021-02-25T13:37:47.619Z</time>
      </trkpt>
      <trkpt lat="43.97338" lon="2.23726">
        <ele>243</ele>
        <time>2021-02-25T13:37:48.619Z</time>
      </trkpt>
      <trkpt lat="43.97337" lon="2.23725">
        <ele>243</ele>
        <time>2021-02-25T13:37:49.619Z</time>
      </trkpt>
      <trkpt lat="43.97336" lon="2.23724">
        <ele>242</ele>
        <time>2021-02-25T13:37:50.619Z</time>
      </trkpt>
      <trkpt lat="43.97335" lon="2.23723">
        <ele>242</ele>
        <time>2021-02-25T13:37:51.619Z</time>
      </trkpt>
      <trkpt lat="43.97335" lon="2.23722">
        <ele>242</ele>
        <time>2021-02-25T13:37:52.619Z</time>
      </trkpt>
      <trkpt lat="43.97334" lon="2.23721">
        <ele>241</ele>
        <time>2021-02-25T13:37:53.619Z</time>
      </trkpt>
      <trkpt lat="43.97333" lon="2.23721">
        <ele>241</ele>
        <time>2021-02-25T13:37:54.619Z</time>
      </trkpt>
      <trkpt lat="43.97332" lon="2.2372">
        <ele>241</ele>
        <time>2021-02-25T13:37:55.619Z</time>
      </trkpt>
      <trkpt lat="43.97332" lon="2.23719">
        <ele>241</ele>
        <time>2021-02-25T13:37:56.619Z</time>
      </trkpt>
      <trkpt lat="43.97331" lon="2.23719">
        <ele>241</ele>
        <time>2021-02-25T13:37:57.619Z</time>
      </trkpt>
      <trkpt lat="43.97331" lon="2.23718">
        <ele>240</ele>
        <time>2021-02-25T13:37:58.619Z</time>
      </trkpt>
      <trkpt lat="43.9733" lon="2.23717">
        <ele>240</ele>
        <time>2021-02-25T13:37:59.619Z</time>
      </trkpt>
      <trkpt lat="43.97329" lon="2.23717">
        <ele>240</ele>
        <time>2021-02-25T13:38:00.619Z</time>
      </trkpt>
      <trkpt lat="43.97328" lon="2.23716">
        <ele>240</ele>
        <time>2021-02-25T13:38:01.619Z</time>
      </trkpt>
      <trkpt lat="43.97328" lon="2.23716">
        <ele>240</ele>
        <time>2021-02-25T13:38:02.619Z</time>
      </trkpt>
      <trkpt lat="43.97327" lon="2.23716">
        <ele>240</ele>
        <time>2021-02-25T13:38:03.619Z</time>
      </trkpt>
      <trkpt lat="43.97326" lon="2.23715">
        <ele>239</ele>
        <time>2021-02-25T13:38:04.619Z</time>
      </trkpt>
      <trkpt lat="43.97325" lon="2.23714">
        <ele>239</ele>
        <time>2021-02-25T13:38:05.619Z</time>
      </trkpt>
      <trkpt lat="43.97324" lon="2.23713">
        <ele>239</ele>
        <time>2021-02-25T13:38:06.619Z</time>
      </trkpt>
      <trkpt lat="43.97324" lon="2.23711">
        <ele>239</ele>
        <time>2021-02-25T13:38:07.619Z</time>
      </trkpt>
      <trkpt lat="43.97324" lon="2.2371">
        <ele>239</ele>
        <time>2021-02-25T13:38:08.619Z</time>
      </trkpt>
      <trkpt lat="43.97324" lon="2.23708">
        <ele>239</ele>
        <time>2021-02-25T13:38:09.619Z</time>
      </trkpt>
      <trkpt lat="43.97323" lon="2.23707">
        <ele>239</ele>
        <time>2021-02-25T13:38:10.619Z</time>
      </trkpt>
      <trkpt lat="43.97323" lon="2.23705">
        <ele>238</ele>
        <time>2021-02-25T13:38:11.619Z</time>
      </trkpt>
      <trkpt lat="43.97323" lon="2.23704">
        <ele>238</ele>
        <time>2021-02-25T13:38:12.619Z</time>
      </trkpt>
      <trkpt lat="43.97323" lon="2.23702">
        <ele>238</ele>
        <time>2021-02-25T13:38:13.619Z</time>
      </trkpt>
      <trkpt lat="43.97323" lon="2.23701">
        <ele>237</ele>
        <time>2021-02-25T13:38:14.619Z</time>
      </trkpt>
      <trkpt lat="43.97322" lon="2.23699">
        <ele>237</ele>
        <time>2021-02-25T13:38:15.619Z</time>
      </trkpt>
      <trkpt lat="43.97322" lon="2.23697">
        <ele>237</ele>
        <time>2021-02-25T13:38:16.619Z</time>
      </trkpt>
      <trkpt lat="43.97321" lon="2.23696">
        <ele>237</ele>
        <time>2021-02-25T13:38:17.619Z</time>
      </trkpt>
      <trkpt lat="43.9732" lon="2.23696">
        <ele>237</ele>
        <time>2021-02-25T13:38:18.619Z</time>
      </trkpt>
      <trkpt lat="43.97319" lon="2.23695">
        <ele>236</ele>
        <time>2021-02-25T13:38:19.619Z</time>
      </trkpt>
      <trkpt lat="43.97319" lon="2.23695">
        <ele>236</ele>
        <time>2021-02-25T13:38:20.619Z</time>
      </trkpt>
      <trkpt lat="43.97318" lon="2.23694">
        <ele>236</ele>
        <time>2021-02-25T13:38:21.619Z</time>
      </trkpt>
      <trkpt lat="43.97317" lon="2.23693">
        <ele>236</ele>
        <time>2021-02-25T13:38:22.619Z</time>
      </trkpt>
      <trkpt lat="43.97316" lon="2.23693">
        <ele>236</ele>
        <time>2021-02-25T13:38:23.619Z</time>
      </trkpt>
      <trkpt lat="43.97316" lon="2.23692">
        <ele>236</ele>
        <time>2021-02-25T13:38:24.619Z</time>
      </trkpt>
      <trkpt lat="43.97315" lon="2.2369">
        <ele>236</ele>
        <time>2021-02-25T13:38:25.619Z</time>
      </trkpt>
      <trkpt lat="43.97315" lon="2.23689">
        <ele>236</ele>
        <time>2021-02-25T13:38:26.619Z</time>
      </trkpt>
      <trkpt lat="43.97314" lon="2.23688">
        <ele>236</ele>
        <time>2021-02-25T13:38:27.619Z</time>
      </trkpt>
      <trkpt lat="43.97314" lon="2.23687">
        <ele>236</ele>
        <time>2021-02-25T13:38:28.619Z</time>
      </trkpt>
      <trkpt lat="43.97314" lon="2.23685">
        <ele>236</ele>
        <time>2021-02-25T13:38:29.619Z</time>
      </trkpt>
      <trkpt lat="43.97314" lon="2.23684">
        <ele>236</ele>
        <time>2021-02-25T13:38:30.619Z</time>
      </trkpt>
      <trkpt lat="43.97314" lon="2.23682">
        <ele>236</ele>
        <time>2021-02-25T13:38:31.619Z</time>
      </trkpt>
      <trkpt lat="43.97315" lon="2.23681">
        <ele>236</ele>
        <time>2021-02-25T13:38:32.619Z</time>
      </trkpt>
      <trkpt lat="43.97315" lon="2.2368">
        <ele>235</ele>
        <time>2021-02-25T13:38:33.619Z</time>
      </trkpt>
      <trkpt lat="43.97315" lon="2.23679">
        <ele>235</ele>
        <time>2021-02-25T13:38:34.619Z</time>
      </trkpt>
      <trkpt lat="43.97314" lon="2.23678">
        <ele>235</ele>
        <time>2021-02-25T13:38:35.619Z</time>
      </trkpt>
      <trkpt lat="43.97314" lon="2.23676">
        <ele>235</ele>
        <time>2021-02-25T13:38:36.619Z</time>
      </trkpt>
      <trkpt lat="43.97313" lon="2.23675">
        <ele>235</ele>
        <time>2021-02-25T13:38:37.619Z</time>
      </trkpt>
      <trkpt lat="43.97312" lon="2.23674">
        <ele>235</ele>
        <time>2021-02-25T13:38:38.619Z</time>
      </trkpt>
      <trkpt lat="43.97311" lon="2.23673">
        <ele>235</ele>
        <time>2021-02-25T13:38:39.619Z</time>
      </trkpt>
      <trkpt lat="43.9731" lon="2.23672">
        <ele>235</ele>
        <time>2021-02-25T13:38:40.619Z</time>
      </trkpt>
      <trkpt lat="43.97309" lon="2.23672">
        <ele>235</ele>
        <time>2021-02-25T13:38:41.619Z</time>
      </trkpt>
      <trkpt lat="43.97308" lon="2.23671">
        <ele>235</ele>
        <time>2021-02-25T13:38:42.619Z</time>
      </trkpt>
      <trkpt lat="43.97307" lon="2.2367">
        <ele>235</ele>
        <time>2021-02-25T13:38:43.619Z</time>
      </trkpt>
      <trkpt lat="43.97306" lon="2.2367">
        <ele>235</ele>
        <time>2021-02-25T13:38:44.619Z</time>
      </trkpt>
      <trkpt lat="43.97305" lon="2.23669">
        <ele>235</ele>
        <time>2021-02-25T13:38:45.619Z</time>
      </trkpt>
      <trkpt lat="43.97304" lon="2.23668">
        <ele>235</ele>
        <time>2021-02-25T13:38:46.619Z</time>
      </trkpt>
      <trkpt lat="43.97303" lon="2.23668">
        <ele>235</ele>
        <time>2021-02-25T13:38:47.619Z</time>
      </trkpt>
      <trkpt lat="43.97302" lon="2.23667">
        <ele>235</ele>
        <time>2021-02-25T13:38:48.619Z</time>
      </trkpt>
      <trkpt lat="43.973" lon="2.23667">
        <ele>235</ele>
        <time>2021-02-25T13:38:49.619Z</time>
      </trkpt>
      <trkpt lat="43.97299" lon="2.23666">
        <ele>235</ele>
        <time>2021-02-25T13:38:50.619Z</time>
      </trkpt>
      <trkpt lat="43.97298" lon="2.23666">
        <ele>235</ele>
        <time>2021-02-25T13:38:51.619Z</time>
      </trkpt>
      <trkpt lat="43.97297" lon="2.23665">
        <ele>235</ele>
        <time>2021-02-25T13:38:52.619Z</time>
      </trkpt>
      <trkpt lat="43.97296" lon="2.23665">
        <ele>235</ele>
        <time>2021-02-25T13:38:53.619Z</time>
      </trkpt>
      <trkpt lat="43.97295" lon="2.23664">
        <ele>235</ele>
        <time>2021-02-25T13:38:54.619Z</time>
      </trkpt>
      <trkpt lat="43.97294" lon="2.23663">
        <ele>234</ele>
        <time>2021-02-25T13:38:55.619Z</time>
      </trkpt>
      <trkpt lat="43.97293" lon="2.23661">
        <ele>234</ele>
        <time>2021-02-25T13:38:56.619Z</time>
      </trkpt>
      <trkpt lat="43.97293" lon="2.2366">
        <ele>234</ele>
        <time>2021-02-25T13:38:57.619Z</time>
      </trkpt>
      <trkpt lat="43.97293" lon="2.23659">
        <ele>234</ele>
        <time>2021-02-25T13:38:58.619Z</time>
      </trkpt>
      <trkpt lat="43.97293" lon="2.23657">
        <ele>234</ele>
        <time>2021-02-25T13:38:59.619Z</time>
      </trkpt>
      <trkpt lat="43.97292" lon="2.23656">
        <ele>234</ele>
        <time>2021-02-25T13:39:00.619Z</time>
      </trkpt>
      <trkpt lat="43.97292" lon="2.23655">
        <ele>234</ele>
        <time>2021-02-25T13:39:01.619Z</time>
      </trkpt>
      <trkpt lat="43.97291" lon="2.23654">
        <ele>234</ele>
        <time>2021-02-25T13:39:02.619Z</time>
      </trkpt>
      <trkpt lat="43.9729" lon="2.23653">
        <ele>234</ele>
        <time>2021-02-25T13:39:03.619Z</time>
      </trkpt>
      <trkpt lat="43.97289" lon="2.23652">
        <ele>233</ele>
        <time>2021-02-25T13:39:04.619Z</time>
      </trkpt>
      <trkpt lat="43.97288" lon="2.23652">
        <ele>233</ele>
        <time>2021-02-25T13:39:05.619Z</time>
      </trkpt>
      <trkpt lat="43.97287" lon="2.23651">
        <ele>233</ele>
        <time>2021-02-25T13:39:06.619Z</time>
      </trkpt>
      <trkpt lat="43.97286" lon="2.23651">
        <ele>233</ele>
        <time>2021-02-25T13:39:07.619Z</time>
      </trkpt>
      <trkpt lat="43.97285" lon="2.2365">
        <ele>233</ele>
        <time>2021-02-25T13:39:08.619Z</time>
      </trkpt>
      <trkpt lat="43.97284" lon="2.23649">
        <ele>233</ele>
        <time>2021-02-25T13:39:09.619Z</time>
      </trkpt>
      <trkpt lat="43.97283" lon="2.23648">
        <ele>233</ele>
        <time>2021-02-25T13:39:10.619Z</time>
      </trkpt>
      <trkpt lat="43.97282" lon="2.23647">
        <ele>233</ele>
        <time>2021-02-25T13:39:11.619Z</time>
      </trkpt>
      <trkpt lat="43.97281" lon="2.23646">
        <ele>232</ele>
        <time>2021-02-25T13:39:12.619Z</time>
      </trkpt>
      <trkpt lat="43.97281" lon="2.23645">
        <ele>232</ele>
        <time>2021-02-25T13:39:13.619Z</time>
      </trkpt>
      <trkpt lat="43.9728" lon="2.23644">
        <ele>232</ele>
        <time>2021-02-25T13:39:14.619Z</time>
      </trkpt>
      <trkpt lat="43.97279" lon="2.23644">
        <ele>232</ele>
        <time>2021-02-25T13:39:15.619Z</time>
      </trkpt>
      <trkpt lat="43.97278" lon="2.23644">
        <ele>232</ele>
        <time>2021-02-25T13:39:16.619Z</time>
      </trkpt>
      <trkpt lat="43.97277" lon="2.23644">
        <ele>232</ele>
        <time>2021-02-25T13:39:17.619Z</time>
      </trkpt>
      <trkpt lat="43.97276" lon="2.23644">
        <ele>232</ele>
        <time>2021-02-25T13:39:21.632Z</time>
      </trkpt>
      <trkpt lat="43.97276" lon="2.23645">
        <ele>232</ele>
        <time>2021-02-25T13:39:22.632Z</time>
      </trkpt>
      <trkpt lat="43.97275" lon="2.23646">
        <ele>232</ele>
        <time>2021-02-25T13:39:23.632Z</time>
      </trkpt>
      <trkpt lat="43.97274" lon="2.23646">
        <ele>231</ele>
        <time>2021-02-25T13:39:24.632Z</time>
      </trkpt>
      <trkpt lat="43.97272" lon="2.23647">
        <ele>231</ele>
        <time>2021-02-25T13:39:25.632Z</time>
      </trkpt>
      <trkpt lat="43.97271" lon="2.23647">
        <ele>231</ele>
        <time>2021-02-25T13:39:26.632Z</time>
      </trkpt>
      <trkpt lat="43.9727" lon="2.23646">
        <ele>231</ele>
        <time>2021-02-25T13:39:27.632Z</time>
      </trkpt>
      <trkpt lat="43.97269" lon="2.23646">
        <ele>231</ele>
        <time>2021-02-25T13:39:28.632Z</time>
      </trkpt>
      <trkpt lat="43.97268" lon="2.23645">
        <ele>232</ele>
        <time>2021-02-25T13:39:29.632Z</time>
      </trkpt>
      <trkpt lat="43.97267" lon="2.23645">
        <ele>232</ele>
        <time>2021-02-25T13:39:30.632Z</time>
      </trkpt>
      <trkpt lat="43.97266" lon="2.23645">
        <ele>232</ele>
        <time>2021-02-25T13:39:31.632Z</time>
      </trkpt>
      <trkpt lat="43.97265" lon="2.23645">
        <ele>232</ele>
        <time>2021-02-25T13:39:32.632Z</time>
      </trkpt>
      <trkpt lat="43.97264" lon="2.23646">
        <ele>232</ele>
        <time>2021-02-25T13:39:33.632Z</time>
      </trkpt>
      <trkpt lat="43.97263" lon="2.23647">
        <ele>232</ele>
        <time>2021-02-25T13:39:34.632Z</time>
      </trkpt>
      <trkpt lat="43.97262" lon="2.23648">
        <ele>232</ele>
        <time>2021-02-25T13:39:35.632Z</time>
      </trkpt>
      <trkpt lat="43.97262" lon="2.23649">
        <ele>232</ele>
        <time>2021-02-25T13:39:36.632Z</time>
      </trkpt>
      <trkpt lat="43.97261" lon="2.2365">
        <ele>232</ele>
        <time>2021-02-25T13:39:37.632Z</time>
      </trkpt>
      <trkpt lat="43.97261" lon="2.23651">
        <ele>232</ele>
        <time>2021-02-25T13:39:38.632Z</time>
      </trkpt>
      <trkpt lat="43.9726" lon="2.23652">
        <ele>232</ele>
        <time>2021-02-25T13:39:39.632Z</time>
      </trkpt>
      <trkpt lat="43.97259" lon="2.23653">
        <ele>232</ele>
        <time>2021-02-25T13:39:40.632Z</time>
      </trkpt>
      <trkpt lat="43.97258" lon="2.23653">
        <ele>232</ele>
        <time>2021-02-25T13:39:41.632Z</time>
      </trkpt>
      <trkpt lat="43.97257" lon="2.23654">
        <ele>232</ele>
        <time>2021-02-25T13:39:42.632Z</time>
      </trkpt>
      <trkpt lat="43.97256" lon="2.23654">
        <ele>232</ele>
        <time>2021-02-25T13:39:43.632Z</time>
      </trkpt>
      <trkpt lat="43.97255" lon="2.23654">
        <ele>232</ele>
        <time>2021-02-25T13:39:44.632Z</time>
      </trkpt>
      <trkpt lat="43.97253" lon="2.23654">
        <ele>233</ele>
        <time>2021-02-25T13:39:45.632Z</time>
      </trkpt>
      <trkpt lat="43.97252" lon="2.23654">
        <ele>233</ele>
        <time>2021-02-25T13:39:46.632Z</time>
      </trkpt>
      <trkpt lat="43.97251" lon="2.23653">
        <ele>233</ele>
        <time>2021-02-25T13:39:47.632Z</time>
      </trkpt>
      <trkpt lat="43.9725" lon="2.23653">
        <ele>233</ele>
        <time>2021-02-25T13:39:48.632Z</time>
      </trkpt>
      <trkpt lat="43.97249" lon="2.23652">
        <ele>233</ele>
        <time>2021-02-25T13:39:49.632Z</time>
      </trkpt>
      <trkpt lat="43.97248" lon="2.23652">
        <ele>233</ele>
        <time>2021-02-25T13:39:50.632Z</time>
      </trkpt>
      <trkpt lat="43.97247" lon="2.23652">
        <ele>233</ele>
        <time>2021-02-25T13:39:51.632Z</time>
      </trkpt>
      <trkpt lat="43.97246" lon="2.23651">
        <ele>233</ele>
        <time>2021-02-25T13:39:52.632Z</time>
      </trkpt>
      <trkpt lat="43.97245" lon="2.23651">
        <ele>233</ele>
        <time>2021-02-25T13:39:53.632Z</time>
      </trkpt>
      <trkpt lat="43.97244" lon="2.2365">
        <ele>233</ele>
        <time>2021-02-25T13:39:54.632Z</time>
      </trkpt>
      <trkpt lat="43.97243" lon="2.2365">
        <ele>233</ele>
        <time>2021-02-25T13:39:55.632Z</time>
      </trkpt>
      <trkpt lat="43.97241" lon="2.23649">
        <ele>233</ele>
        <time>2021-02-25T13:39:56.632Z</time>
      </trkpt>
      <trkpt lat="43.9724" lon="2.23649">
        <ele>233</ele>
        <time>2021-02-25T13:39:57.632Z</time>
      </trkpt>
      <trkpt lat="43.97239" lon="2.23648">
        <ele>233</ele>
        <time>2021-02-25T13:39:58.632Z</time>
      </trkpt>
      <trkpt lat="43.97238" lon="2.23648">
        <ele>234</ele>
        <time>2021-02-25T13:39:59.632Z</time>
      </trkpt>
      <trkpt lat="43.97237" lon="2.23648">
        <ele>234</ele>
        <time>2021-02-25T13:40:00.632Z</time>
      </trkpt>
      <trkpt lat="43.97236" lon="2.23648">
        <ele>234</ele>
        <time>2021-02-25T13:40:01.632Z</time>
      </trkpt>
      <trkpt lat="43.97235" lon="2.23648">
        <ele>234</ele>
        <time>2021-02-25T13:40:02.632Z</time>
      </trkpt>
      <trkpt lat="43.97234" lon="2.23647">
        <ele>234</ele>
        <time>2021-02-25T13:40:03.632Z</time>
      </trkpt>
      <trkpt lat="43.97232" lon="2.23647">
        <ele>234</ele>
        <time>2021-02-25T13:40:04.632Z</time>
      </trkpt>
      <trkpt lat="43.97231" lon="2.23647">
        <ele>234</ele>
        <time>2021-02-25T13:40:05.632Z</time>
      </trkpt>
      <trkpt lat="43.9723" lon="2.23646">
        <ele>234</ele>
        <time>2021-02-25T13:40:06.632Z</time>
      </trkpt>
      <trkpt lat="43.97229" lon="2.23647">
        <ele>235</ele>
        <time>2021-02-25T13:40:07.632Z</time>
      </trkpt>
      <trkpt lat="43.97228" lon="2.23647">
        <ele>235</ele>
        <time>2021-02-25T13:40:08.632Z</time>
      </trkpt>
      <trkpt lat="43.97227" lon="2.23647">
        <ele>235</ele>
        <time>2021-02-25T13:40:09.632Z</time>
      </trkpt>
      <trkpt lat="43.97225" lon="2.23647">
        <ele>235</ele>
        <time>2021-02-25T13:40:10.632Z</time>
      </trkpt>
      <trkpt lat="43.97224" lon="2.23647">
        <ele>235</ele>
        <time>2021-02-25T13:40:11.632Z</time>
      </trkpt>
      <trkpt lat="43.97222" lon="2.23647">
        <ele>235</ele>
        <time>2021-02-25T13:40:12.632Z</time>
      </trkpt>
      <trkpt lat="43.97221" lon="2.23646">
        <ele>236</ele>
        <time>2021-02-25T13:40:13.632Z</time>
      </trkpt>
      <trkpt lat="43.9722" lon="2.23646">
        <ele>236</ele>
        <time>2021-02-25T13:40:14.632Z</time>
      </trkpt>
      <trkpt lat="43.97218" lon="2.23645">
        <ele>236</ele>
        <time>2021-02-25T13:40:15.632Z</time>
      </trkpt>
      <trkpt lat="43.97217" lon="2.23645">
        <ele>236</ele>
        <time>2021-02-25T13:40:16.632Z</time>
      </trkpt>
      <trkpt lat="43.97216" lon="2.23644">
        <ele>236</ele>
        <time>2021-02-25T13:40:17.632Z</time>
      </trkpt>
      <trkpt lat="43.97216" lon="2.23643">
        <ele>237</ele>
        <time>2021-02-25T13:40:18.632Z</time>
      </trkpt>
      <trkpt lat="43.97215" lon="2.23642">
        <ele>237</ele>
        <time>2021-02-25T13:40:19.632Z</time>
      </trkpt>
      <trkpt lat="43.97214" lon="2.23641">
        <ele>237</ele>
        <time>2021-02-25T13:40:20.632Z</time>
      </trkpt>
      <trkpt lat="43.97213" lon="2.23641">
        <ele>237</ele>
        <time>2021-02-25T13:40:21.632Z</time>
      </trkpt>
      <trkpt lat="43.97212" lon="2.23641">
        <ele>237</ele>
        <time>2021-02-25T13:40:22.632Z</time>
      </trkpt>
      <trkpt lat="43.97212" lon="2.2364">
        <ele>237</ele>
        <time>2021-02-25T13:40:23.632Z</time>
      </trkpt>
      <trkpt lat="43.97211" lon="2.23639">
        <ele>238</ele>
        <time>2021-02-25T13:40:24.632Z</time>
      </trkpt>
      <trkpt lat="43.9721" lon="2.23638">
        <ele>238</ele>
        <time>2021-02-25T13:40:25.632Z</time>
      </trkpt>
      <trkpt lat="43.97209" lon="2.23636">
        <ele>238</ele>
        <time>2021-02-25T13:40:26.632Z</time>
      </trkpt>
      <trkpt lat="43.97209" lon="2.23635">
        <ele>238</ele>
        <time>2021-02-25T13:40:27.632Z</time>
      </trkpt>
      <trkpt lat="43.97208" lon="2.23634">
        <ele>238</ele>
        <time>2021-02-25T13:40:28.632Z</time>
      </trkpt>
      <trkpt lat="43.97208" lon="2.23633">
        <ele>237</ele>
        <time>2021-02-25T13:40:29.632Z</time>
      </trkpt>
      <trkpt lat="43.97207" lon="2.23631">
        <ele>237</ele>
        <time>2021-02-25T13:40:30.632Z</time>
      </trkpt>
      <trkpt lat="43.97207" lon="2.2363">
        <ele>237</ele>
        <time>2021-02-25T13:40:31.632Z</time>
      </trkpt>
      <trkpt lat="43.97207" lon="2.23628">
        <ele>237</ele>
        <time>2021-02-25T13:40:32.632Z</time>
      </trkpt>
      <trkpt lat="43.97206" lon="2.23627">
        <ele>237</ele>
        <time>2021-02-25T13:40:33.632Z</time>
      </trkpt>
      <trkpt lat="43.97206" lon="2.23625">
        <ele>237</ele>
        <time>2021-02-25T13:40:34.632Z</time>
      </trkpt>
      <trkpt lat="43.97205" lon="2.23624">
        <ele>237</ele>
        <time>2021-02-25T13:40:35.632Z</time>
      </trkpt>
      <trkpt lat="43.97204" lon="2.23622">
        <ele>237</ele>
        <time>2021-02-25T13:40:36.632Z</time>
      </trkpt>
      <trkpt lat="43.97204" lon="2.23621">
        <ele>237</ele>
        <time>2021-02-25T13:40:37.632Z</time>
      </trkpt>
      <trkpt lat="43.97203" lon="2.2362">
        <ele>237</ele>
        <time>2021-02-25T13:40:38.632Z</time>
      </trkpt>
      <trkpt lat="43.97202" lon="2.23619">
        <ele>236</ele>
        <time>2021-02-25T13:40:39.632Z</time>
      </trkpt>
      <trkpt lat="43.97202" lon="2.23617">
        <ele>236</ele>
        <time>2021-02-25T13:40:40.632Z</time>
      </trkpt>
      <trkpt lat="43.97201" lon="2.23616">
        <ele>236</ele>
        <time>2021-02-25T13:40:41.632Z</time>
      </trkpt>
      <trkpt lat="43.97201" lon="2.23615">
        <ele>236</ele>
        <time>2021-02-25T13:40:42.632Z</time>
      </trkpt>
      <trkpt lat="43.97201" lon="2.23614">
        <ele>236</ele>
        <time>2021-02-25T13:40:43.632Z</time>
      </trkpt>
      <trkpt lat="43.972" lon="2.23612">
        <ele>236</ele>
        <time>2021-02-25T13:40:44.632Z</time>
      </trkpt>
      <trkpt lat="43.972" lon="2.2361">
        <ele>236</ele>
        <time>2021-02-25T13:40:45.632Z</time>
      </trkpt>
      <trkpt lat="43.972" lon="2.23609">
        <ele>236</ele>
        <time>2021-02-25T13:40:46.632Z</time>
      </trkpt>
      <trkpt lat="43.972" lon="2.23607">
        <ele>236</ele>
        <time>2021-02-25T13:40:47.632Z</time>
      </trkpt>
      <trkpt lat="43.97199" lon="2.23606">
        <ele>236</ele>
        <time>2021-02-25T13:40:48.632Z</time>
      </trkpt>
      <trkpt lat="43.97199" lon="2.23604">
        <ele>235</ele>
        <time>2021-02-25T13:40:49.632Z</time>
      </trkpt>
      <trkpt lat="43.97199" lon="2.23602">
        <ele>235</ele>
        <time>2021-02-25T13:40:50.632Z</time>
      </trkpt>
      <trkpt lat="43.97198" lon="2.236">
        <ele>235</ele>
        <time>2021-02-25T13:40:51.632Z</time>
      </trkpt>
      <trkpt lat="43.97198" lon="2.23599">
        <ele>235</ele>
        <time>2021-02-25T13:40:52.632Z</time>
      </trkpt>
      <trkpt lat="43.97197" lon="2.23597">
        <ele>235</ele>
        <time>2021-02-25T13:40:53.632Z</time>
      </trkpt>
      <trkpt lat="43.97197" lon="2.23595">
        <ele>235</ele>
        <time>2021-02-25T13:40:54.632Z</time>
      </trkpt>
      <trkpt lat="43.97197" lon="2.23593">
        <ele>235</ele>
        <time>2021-02-25T13:40:55.632Z</time>
      </trkpt>
      <trkpt lat="43.97197" lon="2.23592">
        <ele>235</ele>
        <time>2021-02-25T13:40:56.632Z</time>
      </trkpt>
      <trkpt lat="43.97197" lon="2.2359">
        <ele>235</ele>
        <time>2021-02-25T13:40:57.632Z</time>
      </trkpt>
      <trkpt lat="43.97197" lon="2.23589">
        <ele>235</ele>
        <time>2021-02-25T13:40:58.632Z</time>
      </trkpt>
      <trkpt lat="43.97197" lon="2.23587">
        <ele>235</ele>
        <time>2021-02-25T13:40:59.632Z</time>
      </trkpt>
      <trkpt lat="43.97197" lon="2.23586">
        <ele>235</ele>
        <time>2021-02-25T13:41:00.632Z</time>
      </trkpt>
      <trkpt lat="43.97196" lon="2.23584">
        <ele>234</ele>
        <time>2021-02-25T13:41:01.632Z</time>
      </trkpt>
      <trkpt lat="43.97196" lon="2.23582">
        <ele>234</ele>
        <time>2021-02-25T13:41:02.632Z</time>
      </trkpt>
      <trkpt lat="43.97196" lon="2.2358">
        <ele>234</ele>
        <time>2021-02-25T13:41:03.632Z</time>
      </trkpt>
      <trkpt lat="43.97196" lon="2.23578">
        <ele>234</ele>
        <time>2021-02-25T13:41:04.632Z</time>
      </trkpt>
      <trkpt lat="43.97196" lon="2.23577">
        <ele>234</ele>
        <time>2021-02-25T13:41:05.632Z</time>
      </trkpt>
      <trkpt lat="43.97196" lon="2.23575">
        <ele>234</ele>
        <time>2021-02-25T13:41:06.632Z</time>
      </trkpt>
      <trkpt lat="43.97195" lon="2.23573">
        <ele>233</ele>
        <time>2021-02-25T13:41:07.632Z</time>
      </trkpt>
      <trkpt lat="43.97195" lon="2.23572">
        <ele>233</ele>
        <time>2021-02-25T13:41:08.632Z</time>
      </trkpt>
      <trkpt lat="43.97195" lon="2.2357">
        <ele>233</ele>
        <time>2021-02-25T13:41:09.632Z</time>
      </trkpt>
      <trkpt lat="43.97196" lon="2.23569">
        <ele>233</ele>
        <time>2021-02-25T13:41:10.632Z</time>
      </trkpt>
      <trkpt lat="43.97196" lon="2.23567">
        <ele>233</ele>
        <time>2021-02-25T13:41:11.632Z</time>
      </trkpt>
      <trkpt lat="43.97197" lon="2.23566">
        <ele>233</ele>
        <time>2021-02-25T13:41:12.632Z</time>
      </trkpt>
      <trkpt lat="43.97197" lon="2.23565">
        <ele>233</ele>
        <time>2021-02-25T13:41:13.632Z</time>
      </trkpt>
      <trkpt lat="43.97197" lon="2.23564">
        <ele>234</ele>
        <time>2021-02-25T13:41:14.632Z</time>
      </trkpt>
      <trkpt lat="43.97196" lon="2.23563">
        <ele>234</ele>
        <time>2021-02-25T13:41:15.632Z</time>
      </trkpt>
      <trkpt lat="43.97195" lon="2.23562">
        <ele>234</ele>
        <time>2021-02-25T13:41:16.632Z</time>
      </trkpt>
      <trkpt lat="43.97194" lon="2.23561">
        <ele>234</ele>
        <time>2021-02-25T13:41:17.632Z</time>
      </trkpt>
      <trkpt lat="43.97193" lon="2.2356">
        <ele>234</ele>
        <time>2021-02-25T13:41:18.632Z</time>
      </trkpt>
      <trkpt lat="43.97192" lon="2.23559">
        <ele>234</ele>
        <time>2021-02-25T13:41:19.632Z</time>
      </trkpt>
      <trkpt lat="43.97191" lon="2.23558">
        <ele>234</ele>
        <time>2021-02-25T13:41:20.632Z</time>
      </trkpt>
      <trkpt lat="43.9719" lon="2.23556">
        <ele>234</ele>
        <time>2021-02-25T13:41:21.632Z</time>
      </trkpt>
      <trkpt lat="43.97189" lon="2.23555">
        <ele>234</ele>
        <time>2021-02-25T13:41:22.632Z</time>
      </trkpt>
      <trkpt lat="43.97188" lon="2.23554">
        <ele>234</ele>
        <time>2021-02-25T13:41:23.632Z</time>
      </trkpt>
      <trkpt lat="43.97187" lon="2.23553">
        <ele>234</ele>
        <time>2021-02-25T13:41:24.632Z</time>
      </trkpt>
      <trkpt lat="43.97186" lon="2.23551">
        <ele>234</ele>
        <time>2021-02-25T13:41:25.632Z</time>
      </trkpt>
      <trkpt lat="43.97186" lon="2.2355">
        <ele>234</ele>
        <time>2021-02-25T13:41:26.632Z</time>
      </trkpt>
      <trkpt lat="43.97185" lon="2.2355">
        <ele>234</ele>
        <time>2021-02-25T13:41:27.632Z</time>
      </trkpt>
      <trkpt lat="43.97184" lon="2.23548">
        <ele>234</ele>
        <time>2021-02-25T13:41:28.632Z</time>
      </trkpt>
      <trkpt lat="43.97184" lon="2.23547">
        <ele>234</ele>
        <time>2021-02-25T13:41:29.632Z</time>
      </trkpt>
      <trkpt lat="43.97184" lon="2.23546">
        <ele>233</ele>
        <time>2021-02-25T13:41:30.632Z</time>
      </trkpt>
      <trkpt lat="43.97184" lon="2.23545">
        <ele>233</ele>
        <time>2021-02-25T13:41:31.632Z</time>
      </trkpt>
      <trkpt lat="43.97183" lon="2.23544">
        <ele>233</ele>
        <time>2021-02-25T13:41:32.632Z</time>
      </trkpt>
      <trkpt lat="43.97183" lon="2.23543">
        <ele>233</ele>
        <time>2021-02-25T13:41:33.632Z</time>
      </trkpt>
      <trkpt lat="43.97183" lon="2.23541">
        <ele>233</ele>
        <time>2021-02-25T13:41:34.632Z</time>
      </trkpt>
      <trkpt lat="43.97182" lon="2.2354">
        <ele>233</ele>
        <time>2021-02-25T13:41:35.632Z</time>
      </trkpt>
      <trkpt lat="43.97182" lon="2.23539">
        <ele>233</ele>
        <time>2021-02-25T13:41:36.632Z</time>
      </trkpt>
      <trkpt lat="43.97181" lon="2.23538">
        <ele>233</ele>
        <time>2021-02-25T13:41:37.632Z</time>
      </trkpt>
      <trkpt lat="43.97181" lon="2.23537">
        <ele>233</ele>
        <time>2021-02-25T13:41:38.632Z</time>
      </trkpt>
      <trkpt lat="43.9718" lon="2.23536">
        <ele>233</ele>
        <time>2021-02-25T13:41:39.632Z</time>
      </trkpt>
      <trkpt lat="43.97179" lon="2.23535">
        <ele>233</ele>
        <time>2021-02-25T13:41:40.632Z</time>
      </trkpt>
      <trkpt lat="43.97179" lon="2.23534">
        <ele>233</ele>
        <time>2021-02-25T13:41:41.632Z</time>
      </trkpt>
      <trkpt lat="43.97178" lon="2.23532">
        <ele>233</ele>
        <time>2021-02-25T13:41:42.632Z</time>
      </trkpt>
      <trkpt lat="43.97178" lon="2.23531">
        <ele>233</ele>
        <time>2021-02-25T13:41:43.632Z</time>
      </trkpt>
      <trkpt lat="43.97178" lon="2.2353">
        <ele>232</ele>
        <time>2021-02-25T13:41:44.632Z</time>
      </trkpt>
      <trkpt lat="43.97177" lon="2.23528">
        <ele>232</ele>
        <time>2021-02-25T13:41:45.632Z</time>
      </trkpt>
      <trkpt lat="43.97177" lon="2.23527">
        <ele>232</ele>
        <time>2021-02-25T13:41:46.632Z</time>
      </trkpt>
      <trkpt lat="43.97176" lon="2.23525">
        <ele>232</ele>
        <time>2021-02-25T13:41:47.632Z</time>
      </trkpt>
      <trkpt lat="43.97176" lon="2.23523">
        <ele>232</ele>
        <time>2021-02-25T13:41:48.632Z</time>
      </trkpt>
      <trkpt lat="43.97176" lon="2.23522">
        <ele>232</ele>
        <time>2021-02-25T13:41:49.632Z</time>
      </trkpt>
      <trkpt lat="43.97175" lon="2.2352">
        <ele>232</ele>
        <time>2021-02-25T13:41:50.632Z</time>
      </trkpt>
      <trkpt lat="43.97175" lon="2.23519">
        <ele>232</ele>
        <time>2021-02-25T13:41:51.632Z</time>
      </trkpt>
      <trkpt lat="43.97175" lon="2.23517">
        <ele>231</ele>
        <time>2021-02-25T13:41:52.632Z</time>
      </trkpt>
      <trkpt lat="43.97174" lon="2.23516">
        <ele>231</ele>
        <time>2021-02-25T13:41:53.632Z</time>
      </trkpt>
      <trkpt lat="43.97174" lon="2.23514">
        <ele>231</ele>
        <time>2021-02-25T13:41:54.632Z</time>
      </trkpt>
      <trkpt lat="43.97173" lon="2.23513">
        <ele>231</ele>
        <time>2021-02-25T13:41:55.632Z</time>
      </trkpt>
      <trkpt lat="43.97173" lon="2.23511">
        <ele>231</ele>
        <time>2021-02-25T13:41:56.632Z</time>
      </trkpt>
      <trkpt lat="43.97173" lon="2.2351">
        <ele>231</ele>
        <time>2021-02-25T13:41:57.632Z</time>
      </trkpt>
      <trkpt lat="43.97172" lon="2.23508">
        <ele>231</ele>
        <time>2021-02-25T13:41:58.632Z</time>
      </trkpt>
      <trkpt lat="43.97172" lon="2.23507">
        <ele>231</ele>
        <time>2021-02-25T13:41:59.632Z</time>
      </trkpt>
      <trkpt lat="43.97171" lon="2.23505">
        <ele>230</ele>
        <time>2021-02-25T13:42:00.632Z</time>
      </trkpt>
      <trkpt lat="43.9717" lon="2.23504">
        <ele>230</ele>
        <time>2021-02-25T13:42:01.632Z</time>
      </trkpt>
      <trkpt lat="43.9717" lon="2.23502">
        <ele>230</ele>
        <time>2021-02-25T13:42:02.632Z</time>
      </trkpt>
      <trkpt lat="43.97169" lon="2.23501">
        <ele>230</ele>
        <time>2021-02-25T13:42:03.632Z</time>
      </trkpt>
      <trkpt lat="43.97168" lon="2.235">
        <ele>230</ele>
        <time>2021-02-25T13:42:04.632Z</time>
      </trkpt>
      <trkpt lat="43.97167" lon="2.23498">
        <ele>230</ele>
        <time>2021-02-25T13:42:05.632Z</time>
      </trkpt>
      <trkpt lat="43.97167" lon="2.23497">
        <ele>230</ele>
        <time>2021-02-25T13:42:06.632Z</time>
      </trkpt>
      <trkpt lat="43.97166" lon="2.23496">
        <ele>230</ele>
        <time>2021-02-25T13:42:07.632Z</time>
      </trkpt>
      <trkpt lat="43.97166" lon="2.23495">
        <ele>230</ele>
        <time>2021-02-25T13:42:08.632Z</time>
      </trkpt>
      <trkpt lat="43.97165" lon="2.23493">
        <ele>230</ele>
        <time>2021-02-25T13:42:09.632Z</time>
      </trkpt>
      <trkpt lat="43.97164" lon="2.23492">
        <ele>230</ele>
        <time>2021-02-25T13:42:10.632Z</time>
      </trkpt>
      <trkpt lat="43.97164" lon="2.2349">
        <ele>230</ele>
        <time>2021-02-25T13:42:11.632Z</time>
      </trkpt>
      <trkpt lat="43.97163" lon="2.23489">
        <ele>230</ele>
        <time>2021-02-25T13:42:12.632Z</time>
      </trkpt>
      <trkpt lat="43.97163" lon="2.23488">
        <ele>230</ele>
        <time>2021-02-25T13:42:13.632Z</time>
      </trkpt>
      <trkpt lat="43.97162" lon="2.23486">
        <ele>230</ele>
        <time>2021-02-25T13:42:14.632Z</time>
      </trkpt>
      <trkpt lat="43.97162" lon="2.23484">
        <ele>230</ele>
        <time>2021-02-25T13:42:15.632Z</time>
      </trkpt>
      <trkpt lat="43.97161" lon="2.23483">
        <ele>230</ele>
        <time>2021-02-25T13:42:16.632Z</time>
      </trkpt>
      <trkpt lat="43.97161" lon="2.23481">
        <ele>230</ele>
        <time>2021-02-25T13:42:17.632Z</time>
      </trkpt>
      <trkpt lat="43.9716" lon="2.2348">
        <ele>230</ele>
        <time>2021-02-25T13:42:18.632Z</time>
      </trkpt>
      <trkpt lat="43.9716" lon="2.23478">
        <ele>230</ele>
        <time>2021-02-25T13:42:19.632Z</time>
      </trkpt>
      <trkpt lat="43.9716" lon="2.23477">
        <ele>230</ele>
        <time>2021-02-25T13:42:20.632Z</time>
      </trkpt>
      <trkpt lat="43.97159" lon="2.23475">
        <ele>230</ele>
        <time>2021-02-25T13:42:21.632Z</time>
      </trkpt>
      <trkpt lat="43.97159" lon="2.23474">
        <ele>230</ele>
        <time>2021-02-25T13:42:22.632Z</time>
      </trkpt>
      <trkpt lat="43.97159" lon="2.23474">
        <ele>230</ele>
        <time>2021-02-25T13:42:23.632Z</time>
      </trkpt>
      <trkpt lat="43.97159" lon="2.23473">
        <ele>230</ele>
        <time>2021-02-25T13:42:24.632Z</time>
      </trkpt>
      <trkpt lat="43.97158" lon="2.23472">
        <ele>230</ele>
        <time>2021-02-25T13:42:25.632Z</time>
      </trkpt>
      <trkpt lat="43.97158" lon="2.23471">
        <ele>230</ele>
        <time>2021-02-25T13:42:26.632Z</time>
      </trkpt>
      <trkpt lat="43.97158" lon="2.2347">
        <ele>229</ele>
        <time>2021-02-25T13:42:27.632Z</time>
      </trkpt>
      <trkpt lat="43.97158" lon="2.23469">
        <ele>229</ele>
        <time>2021-02-25T13:42:28.632Z</time>
      </trkpt>
      <trkpt lat="43.97158" lon="2.23468">
        <ele>229</ele>
        <time>2021-02-25T13:42:29.632Z</time>
      </trkpt>
      <trkpt lat="43.97158" lon="2.23468">
        <ele>229</ele>
        <time>2021-02-25T13:42:30.632Z</time>
      </trkpt>
      <trkpt lat="43.97158" lon="2.23467">
        <ele>229</ele>
        <time>2021-02-25T13:42:31.632Z</time>
      </trkpt>
      <trkpt lat="43.97157" lon="2.23463">
        <ele>230</ele>
        <time>2021-02-25T13:42:32.632Z</time>
      </trkpt>
      <trkpt lat="43.97156" lon="2.23462">
        <ele>230</ele>
        <time>2021-02-25T13:42:33.632Z</time>
      </trkpt>
      <trkpt lat="43.97156" lon="2.2346">
        <ele>230</ele>
        <time>2021-02-25T13:42:34.632Z</time>
      </trkpt>
      <trkpt lat="43.97156" lon="2.23459">
        <ele>230</ele>
        <time>2021-02-25T13:42:35.632Z</time>
      </trkpt>
      <trkpt lat="43.97156" lon="2.23457">
        <ele>230</ele>
        <time>2021-02-25T13:42:36.632Z</time>
      </trkpt>
      <trkpt lat="43.97156" lon="2.23456">
        <ele>230</ele>
        <time>2021-02-25T13:42:37.632Z</time>
      </trkpt>
      <trkpt lat="43.97155" lon="2.23455">
        <ele>230</ele>
        <time>2021-02-25T13:42:38.632Z</time>
      </trkpt>
      <trkpt lat="43.97155" lon="2.23454">
        <ele>230</ele>
        <time>2021-02-25T13:42:41.877Z</time>
      </trkpt>
      <trkpt lat="43.97156" lon="2.23454">
        <ele>230</ele>
        <time>2021-02-25T13:42:42.877Z</time>
      </trkpt>
      <trkpt lat="43.97155" lon="2.23454">
        <ele>230</ele>
        <time>2021-02-25T13:42:43.877Z</time>
      </trkpt>
      <trkpt lat="43.97155" lon="2.23454">
        <ele>230</ele>
        <time>2021-02-25T13:42:44.877Z</time>
      </trkpt>
      <trkpt lat="43.97155" lon="2.23453">
        <ele>230</ele>
        <time>2021-02-25T13:42:45.877Z</time>
      </trkpt>
      <trkpt lat="43.97155" lon="2.23452">
        <ele>230</ele>
        <time>2021-02-25T13:42:46.877Z</time>
      </trkpt>
      <trkpt lat="43.97155" lon="2.23451">
        <ele>230</ele>
        <time>2021-02-25T13:42:47.877Z</time>
      </trkpt>
      <trkpt lat="43.97155" lon="2.23449">
        <ele>230</ele>
        <time>2021-02-25T13:42:48.877Z</time>
      </trkpt>
      <trkpt lat="43.97154" lon="2.23448">
        <ele>230</ele>
        <time>2021-02-25T13:42:49.877Z</time>
      </trkpt>
      <trkpt lat="43.97154" lon="2.23446">
        <ele>230</ele>
        <time>2021-02-25T13:42:50.877Z</time>
      </trkpt>
      <trkpt lat="43.97154" lon="2.23445">
        <ele>230</ele>
        <time>2021-02-25T13:42:51.877Z</time>
      </trkpt>
      <trkpt lat="43.97154" lon="2.23444">
        <ele>230</ele>
        <time>2021-02-25T13:42:52.877Z</time>
      </trkpt>
      <trkpt lat="43.97153" lon="2.23442">
        <ele>230</ele>
        <time>2021-02-25T13:42:53.877Z</time>
      </trkpt>
      <trkpt lat="43.97153" lon="2.23441">
        <ele>230</ele>
        <time>2021-02-25T13:42:54.877Z</time>
      </trkpt>
      <trkpt lat="43.97152" lon="2.23439">
        <ele>230</ele>
        <time>2021-02-25T13:42:55.877Z</time>
      </trkpt>
      <trkpt lat="43.97152" lon="2.23438">
        <ele>230</ele>
        <time>2021-02-25T13:42:56.877Z</time>
      </trkpt>
      <trkpt lat="43.97151" lon="2.23437">
        <ele>230</ele>
        <time>2021-02-25T13:42:57.877Z</time>
      </trkpt>
      <trkpt lat="43.97151" lon="2.23436">
        <ele>230</ele>
        <time>2021-02-25T13:42:58.877Z</time>
      </trkpt>
      <trkpt lat="43.9715" lon="2.23434">
        <ele>230</ele>
        <time>2021-02-25T13:42:59.877Z</time>
      </trkpt>
      <trkpt lat="43.97149" lon="2.23434">
        <ele>230</ele>
        <time>2021-02-25T13:43:00.877Z</time>
      </trkpt>
      <trkpt lat="43.97149" lon="2.23433">
        <ele>230</ele>
        <time>2021-02-25T13:43:01.877Z</time>
      </trkpt>
      <trkpt lat="43.97148" lon="2.23432">
        <ele>230</ele>
        <time>2021-02-25T13:43:02.877Z</time>
      </trkpt>
      <trkpt lat="43.97147" lon="2.23431">
        <ele>230</ele>
        <time>2021-02-25T13:43:03.877Z</time>
      </trkpt>
      <trkpt lat="43.97146" lon="2.2343">
        <ele>230</ele>
        <time>2021-02-25T13:43:04.877Z</time>
      </trkpt>
      <trkpt lat="43.97145" lon="2.23429">
        <ele>231</ele>
        <time>2021-02-25T13:43:05.877Z</time>
      </trkpt>
      <trkpt lat="43.97145" lon="2.23428">
        <ele>231</ele>
        <time>2021-02-25T13:43:06.877Z</time>
      </trkpt>
      <trkpt lat="43.97144" lon="2.23427">
        <ele>231</ele>
        <time>2021-02-25T13:43:07.877Z</time>
      </trkpt>
      <trkpt lat="43.97143" lon="2.23426">
        <ele>231</ele>
        <time>2021-02-25T13:43:08.877Z</time>
      </trkpt>
      <trkpt lat="43.97142" lon="2.23425">
        <ele>231</ele>
        <time>2021-02-25T13:43:09.877Z</time>
      </trkpt>
      <trkpt lat="43.97142" lon="2.23423">
        <ele>231</ele>
        <time>2021-02-25T13:43:10.877Z</time>
      </trkpt>
      <trkpt lat="43.97141" lon="2.23422">
        <ele>231</ele>
        <time>2021-02-25T13:43:11.877Z</time>
      </trkpt>
      <trkpt lat="43.97141" lon="2.2342">
        <ele>230</ele>
        <time>2021-02-25T13:43:12.877Z</time>
      </trkpt>
      <trkpt lat="43.97141" lon="2.23419">
        <ele>230</ele>
        <time>2021-02-25T13:43:13.877Z</time>
      </trkpt>
      <trkpt lat="43.97141" lon="2.23417">
        <ele>230</ele>
        <time>2021-02-25T13:43:14.877Z</time>
      </trkpt>
      <trkpt lat="43.97141" lon="2.23416">
        <ele>230</ele>
        <time>2021-02-25T13:43:15.877Z</time>
      </trkpt>
      <trkpt lat="43.9714" lon="2.23414">
        <ele>230</ele>
        <time>2021-02-25T13:43:16.877Z</time>
      </trkpt>
      <trkpt lat="43.9714" lon="2.23413">
        <ele>230</ele>
        <time>2021-02-25T13:43:17.877Z</time>
      </trkpt>
      <trkpt lat="43.9714" lon="2.23412">
        <ele>230</ele>
        <time>2021-02-25T13:43:18.877Z</time>
      </trkpt>
      <trkpt lat="43.9714" lon="2.2341">
        <ele>230</ele>
        <time>2021-02-25T13:43:19.877Z</time>
      </trkpt>
      <trkpt lat="43.97141" lon="2.23409">
        <ele>230</ele>
        <time>2021-02-25T13:43:20.877Z</time>
      </trkpt>
      <trkpt lat="43.97141" lon="2.23408">
        <ele>230</ele>
        <time>2021-02-25T13:43:21.877Z</time>
      </trkpt>
      <trkpt lat="43.97141" lon="2.23407">
        <ele>230</ele>
        <time>2021-02-25T13:43:22.877Z</time>
      </trkpt>
      <trkpt lat="43.97141" lon="2.23406">
        <ele>230</ele>
        <time>2021-02-25T13:43:23.877Z</time>
      </trkpt>
      <trkpt lat="43.97141" lon="2.23406">
        <ele>229</ele>
        <time>2021-02-25T13:43:24.877Z</time>
      </trkpt>
      <trkpt lat="43.97141" lon="2.23405">
        <ele>229</ele>
        <time>2021-02-25T13:43:25.877Z</time>
      </trkpt>
      <trkpt lat="43.97141" lon="2.23405">
        <ele>229</ele>
        <time>2021-02-25T13:43:26.877Z</time>
      </trkpt>
      <trkpt lat="43.97141" lon="2.234">
        <ele>230</ele>
        <time>2021-02-25T13:43:27.877Z</time>
      </trkpt>
      <trkpt lat="43.97141" lon="2.234">
        <ele>230</ele>
        <time>2021-02-25T13:43:28.877Z</time>
      </trkpt>
      <trkpt lat="43.97142" lon="2.23395">
        <ele>233</ele>
        <time>2021-02-25T13:43:29.877Z</time>
      </trkpt>
      <trkpt lat="43.97142" lon="2.23395">
        <ele>233</ele>
        <time>2021-02-25T13:43:30.877Z</time>
      </trkpt>
      <trkpt lat="43.97143" lon="2.23395">
        <ele>233</ele>
        <time>2021-02-25T13:43:31.877Z</time>
      </trkpt>
      <trkpt lat="43.97143" lon="2.23395">
        <ele>234</ele>
        <time>2021-02-25T13:43:32.877Z</time>
      </trkpt>
      <trkpt lat="43.97143" lon="2.23395">
        <ele>234</ele>
        <time>2021-02-25T13:43:33.877Z</time>
      </trkpt>
      <trkpt lat="43.97144" lon="2.23387">
        <ele>237</ele>
        <time>2021-02-25T13:43:34.877Z</time>
      </trkpt>
      <trkpt lat="43.97144" lon="2.23386">
        <ele>238</ele>
        <time>2021-02-25T13:43:35.877Z</time>
      </trkpt>
      <trkpt lat="43.97145" lon="2.23385">
        <ele>238</ele>
        <time>2021-02-25T13:43:36.877Z</time>
      </trkpt>
      <trkpt lat="43.97147" lon="2.23381">
        <ele>238</ele>
        <time>2021-02-25T13:43:37.877Z</time>
      </trkpt>
      <trkpt lat="43.97147" lon="2.2338">
        <ele>238</ele>
        <time>2021-02-25T13:43:38.877Z</time>
      </trkpt>
      <trkpt lat="43.97148" lon="2.2338">
        <ele>238</ele>
        <time>2021-02-25T13:43:39.877Z</time>
      </trkpt>
      <trkpt lat="43.97148" lon="2.2338">
        <ele>239</ele>
        <time>2021-02-25T13:43:40.877Z</time>
      </trkpt>
      <trkpt lat="43.97149" lon="2.23379">
        <ele>239</ele>
        <time>2021-02-25T13:43:41.877Z</time>
      </trkpt>
      <trkpt lat="43.97151" lon="2.23373">
        <ele>240</ele>
        <time>2021-02-25T13:43:42.877Z</time>
      </trkpt>
      <trkpt lat="43.97151" lon="2.23372">
        <ele>240</ele>
        <time>2021-02-25T13:43:43.877Z</time>
      </trkpt>
      <trkpt lat="43.97151" lon="2.23372">
        <ele>240</ele>
        <time>2021-02-25T13:43:44.877Z</time>
      </trkpt>
      <trkpt lat="43.97151" lon="2.23371">
        <ele>240</ele>
        <time>2021-02-25T13:43:45.877Z</time>
      </trkpt>
      <trkpt lat="43.97152" lon="2.2337">
        <ele>239</ele>
        <time>2021-02-25T13:43:46.877Z</time>
      </trkpt>
      <trkpt lat="43.97152" lon="2.2337">
        <ele>239</ele>
        <time>2021-02-25T13:43:47.877Z</time>
      </trkpt>
      <trkpt lat="43.97152" lon="2.23369">
        <ele>239</ele>
        <time>2021-02-25T13:43:48.877Z</time>
      </trkpt>
      <trkpt lat="43.97153" lon="2.23368">
        <ele>239</ele>
        <time>2021-02-25T13:43:49.877Z</time>
      </trkpt>
      <trkpt lat="43.97153" lon="2.23368">
        <ele>239</ele>
        <time>2021-02-25T13:43:50.877Z</time>
      </trkpt>
      <trkpt lat="43.97153" lon="2.23364">
        <ele>239</ele>
        <time>2021-02-25T13:43:51.877Z</time>
      </trkpt>
      <trkpt lat="43.97154" lon="2.23363">
        <ele>239</ele>
        <time>2021-02-25T13:43:52.877Z</time>
      </trkpt>
      <trkpt lat="43.97155" lon="2.23363">
        <ele>239</ele>
        <time>2021-02-25T13:43:53.877Z</time>
      </trkpt>
      <trkpt lat="43.97155" lon="2.23362">
        <ele>239</ele>
        <time>2021-02-25T13:43:54.877Z</time>
      </trkpt>
      <trkpt lat="43.97156" lon="2.23362">
        <ele>239</ele>
        <time>2021-02-25T13:43:55.877Z</time>
      </trkpt>
      <trkpt lat="43.97156" lon="2.23361">
        <ele>239</ele>
        <time>2021-02-25T13:43:56.877Z</time>
      </trkpt>
      <trkpt lat="43.97156" lon="2.2336">
        <ele>239</ele>
        <time>2021-02-25T13:43:57.877Z</time>
      </trkpt>
      <trkpt lat="43.97156" lon="2.23359">
        <ele>239</ele>
        <time>2021-02-25T13:43:58.877Z</time>
      </trkpt>
      <trkpt lat="43.97156" lon="2.23358">
        <ele>239</ele>
        <time>2021-02-25T13:43:59.877Z</time>
      </trkpt>
      <trkpt lat="43.97156" lon="2.23357">
        <ele>239</ele>
        <time>2021-02-25T13:44:00.877Z</time>
      </trkpt>
      <trkpt lat="43.97156" lon="2.23356">
        <ele>239</ele>
        <time>2021-02-25T13:44:01.877Z</time>
      </trkpt>
      <trkpt lat="43.97156" lon="2.23355">
        <ele>239</ele>
        <time>2021-02-25T13:46:02.891Z</time>
      </trkpt>
      <trkpt lat="43.97156" lon="2.23354">
        <ele>239</ele>
        <time>2021-02-25T13:46:03.891Z</time>
      </trkpt>
      <trkpt lat="43.97156" lon="2.23353">
        <ele>239</ele>
        <time>2021-02-25T13:46:04.891Z</time>
      </trkpt>
      <trkpt lat="43.97156" lon="2.23352">
        <ele>239</ele>
        <time>2021-02-25T13:46:05.891Z</time>
      </trkpt>
      <trkpt lat="43.97157" lon="2.23352">
        <ele>239</ele>
        <time>2021-02-25T13:46:06.891Z</time>
      </trkpt>
      <trkpt lat="43.97157" lon="2.23351">
        <ele>239</ele>
        <time>2021-02-25T13:46:07.891Z</time>
      </trkpt>
      <trkpt lat="43.97157" lon="2.2335">
        <ele>239</ele>
        <time>2021-02-25T13:46:08.891Z</time>
      </trkpt>
      <trkpt lat="43.97157" lon="2.23349">
        <ele>239</ele>
        <time>2021-02-25T13:46:09.891Z</time>
      </trkpt>
      <trkpt lat="43.97158" lon="2.23348">
        <ele>239</ele>
        <time>2021-02-25T13:46:10.891Z</time>
      </trkpt>
      <trkpt lat="43.97158" lon="2.23348">
        <ele>239</ele>
        <time>2021-02-25T13:46:11.891Z</time>
      </trkpt>
      <trkpt lat="43.97158" lon="2.23347">
        <ele>239</ele>
        <time>2021-02-25T13:46:12.891Z</time>
      </trkpt>
      <trkpt lat="43.97158" lon="2.23347">
        <ele>239</ele>
        <time>2021-02-25T13:46:13.891Z</time>
      </trkpt>
      <trkpt lat="43.97157" lon="2.23345">
        <ele>239</ele>
        <time>2021-02-25T13:46:14.891Z</time>
      </trkpt>
      <trkpt lat="43.97157" lon="2.23344">
        <ele>239</ele>
        <time>2021-02-25T13:46:15.891Z</time>
      </trkpt>
      <trkpt lat="43.97157" lon="2.23343">
        <ele>239</ele>
        <time>2021-02-25T13:46:16.891Z</time>
      </trkpt>
      <trkpt lat="43.97157" lon="2.23342">
        <ele>239</ele>
        <time>2021-02-25T13:46:17.891Z</time>
      </trkpt>
      <trkpt lat="43.97157" lon="2.23341">
        <ele>239</ele>
        <time>2021-02-25T13:46:18.891Z</time>
      </trkpt>
      <trkpt lat="43.97158" lon="2.2334">
        <ele>240</ele>
        <time>2021-02-25T13:46:19.891Z</time>
      </trkpt>
      <trkpt lat="43.97158" lon="2.23339">
        <ele>240</ele>
        <time>2021-02-25T13:46:20.891Z</time>
      </trkpt>
      <trkpt lat="43.97159" lon="2.23338">
        <ele>240</ele>
        <time>2021-02-25T13:46:21.891Z</time>
      </trkpt>
      <trkpt lat="43.97159" lon="2.23336">
        <ele>240</ele>
        <time>2021-02-25T13:46:22.891Z</time>
      </trkpt>
      <trkpt lat="43.9716" lon="2.23335">
        <ele>240</ele>
        <time>2021-02-25T13:46:23.891Z</time>
      </trkpt>
      <trkpt lat="43.9716" lon="2.23334">
        <ele>240</ele>
        <time>2021-02-25T13:46:24.891Z</time>
      </trkpt>
      <trkpt lat="43.9716" lon="2.23333">
        <ele>240</ele>
        <time>2021-02-25T13:46:25.891Z</time>
      </trkpt>
      <trkpt lat="43.97161" lon="2.23332">
        <ele>240</ele>
        <time>2021-02-25T13:46:26.891Z</time>
      </trkpt>
      <trkpt lat="43.97161" lon="2.23331">
        <ele>240</ele>
        <time>2021-02-25T13:46:27.891Z</time>
      </trkpt>
      <trkpt lat="43.97161" lon="2.2333">
        <ele>240</ele>
        <time>2021-02-25T13:46:28.891Z</time>
      </trkpt>
      <trkpt lat="43.97161" lon="2.23329">
        <ele>240</ele>
        <time>2021-02-25T13:46:29.891Z</time>
      </trkpt>
      <trkpt lat="43.97162" lon="2.23328">
        <ele>240</ele>
        <time>2021-02-25T13:46:30.891Z</time>
      </trkpt>
      <trkpt lat="43.97162" lon="2.23327">
        <ele>240</ele>
        <time>2021-02-25T13:46:31.891Z</time>
      </trkpt>
      <trkpt lat="43.97162" lon="2.23327">
        <ele>240</ele>
        <time>2021-02-25T13:46:32.891Z</time>
      </trkpt>
      <trkpt lat="43.97162" lon="2.23327">
        <ele>240</ele>
        <time>2021-02-25T13:46:33.891Z</time>
      </trkpt>
      <trkpt lat="43.97162" lon="2.23326">
        <ele>240</ele>
        <time>2021-02-25T13:46:34.891Z</time>
      </trkpt>
      <trkpt lat="43.97163" lon="2.23325">
        <ele>240</ele>
        <time>2021-02-25T13:46:35.891Z</time>
      </trkpt>
      <trkpt lat="43.97163" lon="2.23325">
        <ele>240</ele>
        <time>2021-02-25T13:46:36.891Z</time>
      </trkpt>
      <trkpt lat="43.97164" lon="2.23324">
        <ele>240</ele>
        <time>2021-02-25T13:46:37.891Z</time>
      </trkpt>
      <trkpt lat="43.97164" lon="2.23323">
        <ele>240</ele>
        <time>2021-02-25T13:46:38.891Z</time>
      </trkpt>
      <trkpt lat="43.97164" lon="2.23322">
        <ele>240</ele>
        <time>2021-02-25T13:46:39.891Z</time>
      </trkpt>
      <trkpt lat="43.97165" lon="2.23321">
        <ele>240</ele>
        <time>2021-02-25T13:46:40.891Z</time>
      </trkpt>
      <trkpt lat="43.97165" lon="2.23321">
        <ele>240</ele>
        <time>2021-02-25T13:46:41.891Z</time>
      </trkpt>
      <trkpt lat="43.97165" lon="2.2332">
        <ele>240</ele>
        <time>2021-02-25T13:46:42.891Z</time>
      </trkpt>
      <trkpt lat="43.97166" lon="2.2332">
        <ele>239</ele>
        <time>2021-02-25T13:46:43.891Z</time>
      </trkpt>
      <trkpt lat="43.97166" lon="2.23319">
        <ele>239</ele>
        <time>2021-02-25T13:46:44.891Z</time>
      </trkpt>
      <trkpt lat="43.97167" lon="2.23319">
        <ele>239</ele>
        <time>2021-02-25T13:46:45.891Z</time>
      </trkpt>
      <trkpt lat="43.97167" lon="2.23318">
        <ele>239</ele>
        <time>2021-02-25T13:46:46.891Z</time>
      </trkpt>
      <trkpt lat="43.97168" lon="2.23317">
        <ele>239</ele>
        <time>2021-02-25T13:46:47.891Z</time>
      </trkpt>
      <trkpt lat="43.97168" lon="2.23316">
        <ele>239</ele>
        <time>2021-02-25T13:46:48.891Z</time>
      </trkpt>
      <trkpt lat="43.97169" lon="2.23315">
        <ele>239</ele>
        <time>2021-02-25T13:46:49.891Z</time>
      </trkpt>
      <trkpt lat="43.97169" lon="2.23315">
        <ele>240</ele>
        <time>2021-02-25T13:46:50.891Z</time>
      </trkpt>
      <trkpt lat="43.9717" lon="2.23314">
        <ele>240</ele>
        <time>2021-02-25T13:46:51.891Z</time>
      </trkpt>
      <trkpt lat="43.9717" lon="2.23313">
        <ele>240</ele>
        <time>2021-02-25T13:46:52.891Z</time>
      </trkpt>
      <trkpt lat="43.9717" lon="2.23313">
        <ele>240</ele>
        <time>2021-02-25T13:46:53.891Z</time>
      </trkpt>
      <trkpt lat="43.97171" lon="2.23312">
        <ele>240</ele>
        <time>2021-02-25T13:46:54.891Z</time>
      </trkpt>
      <trkpt lat="43.97171" lon="2.23312">
        <ele>240</ele>
        <time>2021-02-25T13:46:55.891Z</time>
      </trkpt>
      <trkpt lat="43.97172" lon="2.23311">
        <ele>240</ele>
        <time>2021-02-25T13:46:56.891Z</time>
      </trkpt>
      <trkpt lat="43.97172" lon="2.2331">
        <ele>240</ele>
        <time>2021-02-25T13:46:57.891Z</time>
      </trkpt>
      <trkpt lat="43.97173" lon="2.23309">
        <ele>240</ele>
        <time>2021-02-25T13:47:03.905Z</time>
      </trkpt>
      <trkpt lat="43.97173" lon="2.23308">
        <ele>240</ele>
        <time>2021-02-25T13:47:04.905Z</time>
      </trkpt>
      <trkpt lat="43.97174" lon="2.23308">
        <ele>240</ele>
        <time>2021-02-25T13:47:05.905Z</time>
      </trkpt>
      <trkpt lat="43.97174" lon="2.23307">
        <ele>240</ele>
        <time>2021-02-25T13:47:12.922Z</time>
      </trkpt>
      <trkpt lat="43.97174" lon="2.23306">
        <ele>240</ele>
        <time>2021-02-25T13:47:13.922Z</time>
      </trkpt>
      <trkpt lat="43.97175" lon="2.23305">
        <ele>240</ele>
        <time>2021-02-25T13:47:14.922Z</time>
      </trkpt>
      <trkpt lat="43.97175" lon="2.23304">
        <ele>240</ele>
        <time>2021-02-25T13:47:15.922Z</time>
      </trkpt>
      <trkpt lat="43.97175" lon="2.23303">
        <ele>240</ele>
        <time>2021-02-25T13:47:16.922Z</time>
      </trkpt>
      <trkpt lat="43.97176" lon="2.23302">
        <ele>240</ele>
        <time>2021-02-25T13:47:24.922Z</time>
      </trkpt>
      <trkpt lat="43.97176" lon="2.23302">
        <ele>240</ele>
        <time>2021-02-25T13:47:25.922Z</time>
      </trkpt>
      <trkpt lat="43.97176" lon="2.23302">
        <ele>240</ele>
        <time>2021-02-25T13:47:26.922Z</time>
      </trkpt>
      <trkpt lat="43.97177" lon="2.23294">
        <ele>241</ele>
        <time>2021-02-25T13:47:30.925Z</time>
      </trkpt>
      <trkpt lat="43.97177" lon="2.23294">
        <ele>241</ele>
        <time>2021-02-25T13:47:31.925Z</time>
      </trkpt>
      <trkpt lat="43.97177" lon="2.23293">
        <ele>241</ele>
        <time>2021-02-25T13:47:32.925Z</time>
      </trkpt>
      <trkpt lat="43.97178" lon="2.23292">
        <ele>241</ele>
        <time>2021-02-25T13:47:33.925Z</time>
      </trkpt>
      <trkpt lat="43.97178" lon="2.23291">
        <ele>241</ele>
        <time>2021-02-25T13:47:34.925Z</time>
      </trkpt>
      <trkpt lat="43.97178" lon="2.23291">
        <ele>241</ele>
        <time>2021-02-25T13:47:35.925Z</time>
      </trkpt>
      <trkpt lat="43.97178" lon="2.2329">
        <ele>241</ele>
        <time>2021-02-25T13:47:36.925Z</time>
      </trkpt>
      <trkpt lat="43.97178" lon="2.23289">
        <ele>241</ele>
        <time>2021-02-25T13:47:37.925Z</time>
      </trkpt>
      <trkpt lat="43.97178" lon="2.23289">
        <ele>241</ele>
        <time>2021-02-25T13:47:38.925Z</time>
      </trkpt>
      <trkpt lat="43.97178" lon="2.23288">
        <ele>241</ele>
        <time>2021-02-25T13:47:39.925Z</time>
      </trkpt>
      <trkpt lat="43.97178" lon="2.23287">
        <ele>241</ele>
        <time>2021-02-25T13:47:40.925Z</time>
      </trkpt>
      <trkpt lat="43.97178" lon="2.23286">
        <ele>241</ele>
        <time>2021-02-25T13:47:41.925Z</time>
      </trkpt>
      <trkpt lat="43.97178" lon="2.23286">
        <ele>241</ele>
        <time>2021-02-25T13:47:42.925Z</time>
      </trkpt>
      <trkpt lat="43.97178" lon="2.23285">
        <ele>241</ele>
        <time>2021-02-25T13:47:43.925Z</time>
      </trkpt>
      <trkpt lat="43.97177" lon="2.23281">
        <ele>243</ele>
        <time>2021-02-25T13:47:44.925Z</time>
      </trkpt>
      <trkpt lat="43.97177" lon="2.2328">
        <ele>243</ele>
        <time>2021-02-25T13:47:45.925Z</time>
      </trkpt>
      <trkpt lat="43.97177" lon="2.23279">
        <ele>243</ele>
        <time>2021-02-25T13:47:46.925Z</time>
      </trkpt>
      <trkpt lat="43.97177" lon="2.23279">
        <ele>244</ele>
        <time>2021-02-25T13:47:47.925Z</time>
      </trkpt>
      <trkpt lat="43.97176" lon="2.23279">
        <ele>244</ele>
        <time>2021-02-25T13:47:48.925Z</time>
      </trkpt>
      <trkpt lat="43.97176" lon="2.23279">
        <ele>244</ele>
        <time>2021-02-25T13:47:49.925Z</time>
      </trkpt>
      <trkpt lat="43.97176" lon="2.23279">
        <ele>245</ele>
        <time>2021-02-25T13:47:50.925Z</time>
      </trkpt>
      <trkpt lat="43.97176" lon="2.23278">
        <ele>245</ele>
        <time>2021-02-25T13:47:51.925Z</time>
      </trkpt>
      <trkpt lat="43.97176" lon="2.23277">
        <ele>246</ele>
        <time>2021-02-25T13:47:52.925Z</time>
      </trkpt>
      <trkpt lat="43.97177" lon="2.23276">
        <ele>246</ele>
        <time>2021-02-25T13:47:53.925Z</time>
      </trkpt>
      <trkpt lat="43.97177" lon="2.23275">
        <ele>246</ele>
        <time>2021-02-25T13:47:54.925Z</time>
      </trkpt>
      <trkpt lat="43.97177" lon="2.23275">
        <ele>246</ele>
        <time>2021-02-25T13:47:55.925Z</time>
      </trkpt>
      <trkpt lat="43.97177" lon="2.23274">
        <ele>246</ele>
        <time>2021-02-25T13:47:59.170Z</time>
      </trkpt>
      <trkpt lat="43.97177" lon="2.23274">
        <ele>246</ele>
        <time>2021-02-25T13:48:00.170Z</time>
      </trkpt>
      <trkpt lat="43.97177" lon="2.23274">
        <ele>246</ele>
        <time>2021-02-25T13:48:01.170Z</time>
      </trkpt>
      <trkpt lat="43.97178" lon="2.23273">
        <ele>246</ele>
        <time>2021-02-25T13:48:28.174Z</time>
      </trkpt>
      <trkpt lat="43.97178" lon="2.23272">
        <ele>246</ele>
        <time>2021-02-25T13:48:29.174Z</time>
      </trkpt>
      <trkpt lat="43.97179" lon="2.23271">
        <ele>246</ele>
        <time>2021-02-25T13:48:30.174Z</time>
      </trkpt>
      <trkpt lat="43.97179" lon="2.2327">
        <ele>246</ele>
        <time>2021-02-25T13:48:31.174Z</time>
      </trkpt>
      <trkpt lat="43.9718" lon="2.23269">
        <ele>246</ele>
        <time>2021-02-25T13:48:32.174Z</time>
      </trkpt>
      <trkpt lat="43.9718" lon="2.23268">
        <ele>246</ele>
        <time>2021-02-25T13:48:33.174Z</time>
      </trkpt>
      <trkpt lat="43.9718" lon="2.23267">
        <ele>247</ele>
        <time>2021-02-25T13:48:34.174Z</time>
      </trkpt>
      <trkpt lat="43.9718" lon="2.23266">
        <ele>247</ele>
        <time>2021-02-25T13:48:35.174Z</time>
      </trkpt>
      <trkpt lat="43.9718" lon="2.23264">
        <ele>247</ele>
        <time>2021-02-25T13:48:36.174Z</time>
      </trkpt>
      <trkpt lat="43.97181" lon="2.23263">
        <ele>247</ele>
        <time>2021-02-25T13:48:37.174Z</time>
      </trkpt>
      <trkpt lat="43.97181" lon="2.23262">
        <ele>247</ele>
        <time>2021-02-25T13:48:38.174Z</time>
      </trkpt>
      <trkpt lat="43.97181" lon="2.2326">
        <ele>247</ele>
        <time>2021-02-25T13:48:39.174Z</time>
      </trkpt>
      <trkpt lat="43.97181" lon="2.23259">
        <ele>248</ele>
        <time>2021-02-25T13:48:40.174Z</time>
      </trkpt>
      <trkpt lat="43.97182" lon="2.23258">
        <ele>248</ele>
        <time>2021-02-25T13:48:41.174Z</time>
      </trkpt>
      <trkpt lat="43.97182" lon="2.23257">
        <ele>248</ele>
        <time>2021-02-25T13:48:42.174Z</time>
      </trkpt>
      <trkpt lat="43.97183" lon="2.23256">
        <ele>248</ele>
        <time>2021-02-25T13:48:43.174Z</time>
      </trkpt>
      <trkpt lat="43.97183" lon="2.23255">
        <ele>248</ele>
        <time>2021-02-25T13:48:44.174Z</time>
      </trkpt>
      <trkpt lat="43.97184" lon="2.23254">
        <ele>248</ele>
        <time>2021-02-25T13:48:45.174Z</time>
      </trkpt>
      <trkpt lat="43.97184" lon="2.23253">
        <ele>248</ele>
        <time>2021-02-25T13:48:46.174Z</time>
      </trkpt>
      <trkpt lat="43.97184" lon="2.23252">
        <ele>249</ele>
        <time>2021-02-25T13:48:47.174Z</time>
      </trkpt>
      <trkpt lat="43.97185" lon="2.23251">
        <ele>249</ele>
        <time>2021-02-25T13:48:48.174Z</time>
      </trkpt>
      <trkpt lat="43.97185" lon="2.23249">
        <ele>249</ele>
        <time>2021-02-25T13:48:49.174Z</time>
      </trkpt>
      <trkpt lat="43.97185" lon="2.23248">
        <ele>249</ele>
        <time>2021-02-25T13:48:50.174Z</time>
      </trkpt>
      <trkpt lat="43.97186" lon="2.23247">
        <ele>249</ele>
        <time>2021-02-25T13:48:51.174Z</time>
      </trkpt>
      <trkpt lat="43.97186" lon="2.23246">
        <ele>249</ele>
        <time>2021-02-25T13:48:52.174Z</time>
      </trkpt>
      <trkpt lat="43.97186" lon="2.23244">
        <ele>249</ele>
        <time>2021-02-25T13:48:53.174Z</time>
      </trkpt>
      <trkpt lat="43.97187" lon="2.23243">
        <ele>249</ele>
        <time>2021-02-25T13:48:54.174Z</time>
      </trkpt>
      <trkpt lat="43.97187" lon="2.23242">
        <ele>250</ele>
        <time>2021-02-25T13:48:55.174Z</time>
      </trkpt>
      <trkpt lat="43.97188" lon="2.23241">
        <ele>250</ele>
        <time>2021-02-25T13:48:56.174Z</time>
      </trkpt>
      <trkpt lat="43.97188" lon="2.2324">
        <ele>250</ele>
        <time>2021-02-25T13:48:57.174Z</time>
      </trkpt>
      <trkpt lat="43.97189" lon="2.23239">
        <ele>250</ele>
        <time>2021-02-25T13:48:58.174Z</time>
      </trkpt>
      <trkpt lat="43.97189" lon="2.23238">
        <ele>250</ele>
        <time>2021-02-25T13:48:59.174Z</time>
      </trkpt>
      <trkpt lat="43.9719" lon="2.23237">
        <ele>250</ele>
        <time>2021-02-25T13:49:00.174Z</time>
      </trkpt>
      <trkpt lat="43.9719" lon="2.23236">
        <ele>250</ele>
        <time>2021-02-25T13:49:01.174Z</time>
      </trkpt>
      <trkpt lat="43.9719" lon="2.23234">
        <ele>250</ele>
        <time>2021-02-25T13:49:02.174Z</time>
      </trkpt>
      <trkpt lat="43.97191" lon="2.23233">
        <ele>250</ele>
        <time>2021-02-25T13:49:03.174Z</time>
      </trkpt>
      <trkpt lat="43.97191" lon="2.23232">
        <ele>250</ele>
        <time>2021-02-25T13:49:04.174Z</time>
      </trkpt>
      <trkpt lat="43.97192" lon="2.23231">
        <ele>250</ele>
        <time>2021-02-25T13:49:05.174Z</time>
      </trkpt>
      <trkpt lat="43.97192" lon="2.2323">
        <ele>250</ele>
        <time>2021-02-25T13:49:06.174Z</time>
      </trkpt>
      <trkpt lat="43.97192" lon="2.23229">
        <ele>250</ele>
        <time>2021-02-25T13:49:07.174Z</time>
      </trkpt>
      <trkpt lat="43.97193" lon="2.23227">
        <ele>250</ele>
        <time>2021-02-25T13:49:08.174Z</time>
      </trkpt>
      <trkpt lat="43.97193" lon="2.23226">
        <ele>250</ele>
        <time>2021-02-25T13:49:09.174Z</time>
      </trkpt>
      <trkpt lat="43.97194" lon="2.23225">
        <ele>251</ele>
        <time>2021-02-25T13:49:10.174Z</time>
      </trkpt>
      <trkpt lat="43.97194" lon="2.23224">
        <ele>251</ele>
        <time>2021-02-25T13:49:11.174Z</time>
      </trkpt>
      <trkpt lat="43.97194" lon="2.23223">
        <ele>251</ele>
        <time>2021-02-25T13:49:12.174Z</time>
      </trkpt>
      <trkpt lat="43.97194" lon="2.23221">
        <ele>251</ele>
        <time>2021-02-25T13:49:13.174Z</time>
      </trkpt>
      <trkpt lat="43.97195" lon="2.23221">
        <ele>251</ele>
        <time>2021-02-25T13:49:14.174Z</time>
      </trkpt>
      <trkpt lat="43.97195" lon="2.23219">
        <ele>251</ele>
        <time>2021-02-25T13:49:15.174Z</time>
      </trkpt>
      <trkpt lat="43.97195" lon="2.23218">
        <ele>252</ele>
        <time>2021-02-25T13:49:16.174Z</time>
      </trkpt>
      <trkpt lat="43.97195" lon="2.23217">
        <ele>252</ele>
        <time>2021-02-25T13:49:17.174Z</time>
      </trkpt>
      <trkpt lat="43.97196" lon="2.23216">
        <ele>252</ele>
        <time>2021-02-25T13:49:18.174Z</time>
      </trkpt>
      <trkpt lat="43.97196" lon="2.23215">
        <ele>252</ele>
        <time>2021-02-25T13:49:19.174Z</time>
      </trkpt>
      <trkpt lat="43.97196" lon="2.23214">
        <ele>252</ele>
        <time>2021-02-25T13:49:20.174Z</time>
      </trkpt>
      <trkpt lat="43.97196" lon="2.23213">
        <ele>253</ele>
        <time>2021-02-25T13:49:21.174Z</time>
      </trkpt>
      <trkpt lat="43.97196" lon="2.23212">
        <ele>253</ele>
        <time>2021-02-25T13:49:22.174Z</time>
      </trkpt>
      <trkpt lat="43.97196" lon="2.2321">
        <ele>253</ele>
        <time>2021-02-25T13:49:23.174Z</time>
      </trkpt>
      <trkpt lat="43.97196" lon="2.23209">
        <ele>253</ele>
        <time>2021-02-25T13:49:24.174Z</time>
      </trkpt>
      <trkpt lat="43.97196" lon="2.23207">
        <ele>253</ele>
        <time>2021-02-25T13:49:25.174Z</time>
      </trkpt>
      <trkpt lat="43.97197" lon="2.23206">
        <ele>253</ele>
        <time>2021-02-25T13:49:26.174Z</time>
      </trkpt>
      <trkpt lat="43.97197" lon="2.23205">
        <ele>254</ele>
        <time>2021-02-25T13:49:27.174Z</time>
      </trkpt>
      <trkpt lat="43.97197" lon="2.23204">
        <ele>254</ele>
        <time>2021-02-25T13:49:28.174Z</time>
      </trkpt>
      <trkpt lat="43.97198" lon="2.23203">
        <ele>254</ele>
        <time>2021-02-25T13:49:29.174Z</time>
      </trkpt>
      <trkpt lat="43.97198" lon="2.23202">
        <ele>254</ele>
        <time>2021-02-25T13:49:30.174Z</time>
      </trkpt>
      <trkpt lat="43.97198" lon="2.232">
        <ele>254</ele>
        <time>2021-02-25T13:49:31.174Z</time>
      </trkpt>
      <trkpt lat="43.97198" lon="2.23199">
        <ele>254</ele>
        <time>2021-02-25T13:49:32.174Z</time>
      </trkpt>
      <trkpt lat="43.97199" lon="2.23197">
        <ele>255</ele>
        <time>2021-02-25T13:49:33.174Z</time>
      </trkpt>
      <trkpt lat="43.97199" lon="2.23196">
        <ele>255</ele>
        <time>2021-02-25T13:49:34.174Z</time>
      </trkpt>
      <trkpt lat="43.97199" lon="2.23194">
        <ele>255</ele>
        <time>2021-02-25T13:49:35.174Z</time>
      </trkpt>
      <trkpt lat="43.97199" lon="2.23193">
        <ele>255</ele>
        <time>2021-02-25T13:49:36.174Z</time>
      </trkpt>
      <trkpt lat="43.972" lon="2.23192">
        <ele>255</ele>
        <time>2021-02-25T13:49:37.174Z</time>
      </trkpt>
      <trkpt lat="43.972" lon="2.23191">
        <ele>255</ele>
        <time>2021-02-25T13:49:38.174Z</time>
      </trkpt>
      <trkpt lat="43.97201" lon="2.23189">
        <ele>255</ele>
        <time>2021-02-25T13:49:39.174Z</time>
      </trkpt>
      <trkpt lat="43.97201" lon="2.23188">
        <ele>256</ele>
        <time>2021-02-25T13:49:40.174Z</time>
      </trkpt>
      <trkpt lat="43.97201" lon="2.23187">
        <ele>256</ele>
        <time>2021-02-25T13:49:41.174Z</time>
      </trkpt>
      <trkpt lat="43.97201" lon="2.23185">
        <ele>256</ele>
        <time>2021-02-25T13:49:42.174Z</time>
      </trkpt>
      <trkpt lat="43.97202" lon="2.23184">
        <ele>256</ele>
        <time>2021-02-25T13:49:43.174Z</time>
      </trkpt>
      <trkpt lat="43.97202" lon="2.23183">
        <ele>256</ele>
        <time>2021-02-25T13:49:44.174Z</time>
      </trkpt>
      <trkpt lat="43.97202" lon="2.23181">
        <ele>256</ele>
        <time>2021-02-25T13:49:45.174Z</time>
      </trkpt>
      <trkpt lat="43.97203" lon="2.2318">
        <ele>256</ele>
        <time>2021-02-25T13:49:46.174Z</time>
      </trkpt>
      <trkpt lat="43.97203" lon="2.23179">
        <ele>256</ele>
        <time>2021-02-25T13:49:47.174Z</time>
      </trkpt>
      <trkpt lat="43.97204" lon="2.23178">
        <ele>257</ele>
        <time>2021-02-25T13:49:48.174Z</time>
      </trkpt>
      <trkpt lat="43.97204" lon="2.23176">
        <ele>257</ele>
        <time>2021-02-25T13:49:49.174Z</time>
      </trkpt>
      <trkpt lat="43.97204" lon="2.23175">
        <ele>257</ele>
        <time>2021-02-25T13:49:50.174Z</time>
      </trkpt>
      <trkpt lat="43.97205" lon="2.23174">
        <ele>257</ele>
        <time>2021-02-25T13:49:51.174Z</time>
      </trkpt>
      <trkpt lat="43.97205" lon="2.23172">
        <ele>258</ele>
        <time>2021-02-25T13:49:52.174Z</time>
      </trkpt>
      <trkpt lat="43.97206" lon="2.23171">
        <ele>258</ele>
        <time>2021-02-25T13:49:53.174Z</time>
      </trkpt>
      <trkpt lat="43.97207" lon="2.2317">
        <ele>258</ele>
        <time>2021-02-25T13:49:54.174Z</time>
      </trkpt>
      <trkpt lat="43.97207" lon="2.23169">
        <ele>258</ele>
        <time>2021-02-25T13:49:55.174Z</time>
      </trkpt>
      <trkpt lat="43.97208" lon="2.23168">
        <ele>258</ele>
        <time>2021-02-25T13:49:56.174Z</time>
      </trkpt>
      <trkpt lat="43.97208" lon="2.23167">
        <ele>258</ele>
        <time>2021-02-25T13:49:57.174Z</time>
      </trkpt>
      <trkpt lat="43.97209" lon="2.23166">
        <ele>258</ele>
        <time>2021-02-25T13:49:58.174Z</time>
      </trkpt>
      <trkpt lat="43.97209" lon="2.23165">
        <ele>258</ele>
        <time>2021-02-25T13:49:59.174Z</time>
      </trkpt>
      <trkpt lat="43.9721" lon="2.23164">
        <ele>258</ele>
        <time>2021-02-25T13:50:00.174Z</time>
      </trkpt>
      <trkpt lat="43.9721" lon="2.23163">
        <ele>258</ele>
        <time>2021-02-25T13:50:01.174Z</time>
      </trkpt>
      <trkpt lat="43.97211" lon="2.23162">
        <ele>258</ele>
        <time>2021-02-25T13:50:02.174Z</time>
      </trkpt>
      <trkpt lat="43.97211" lon="2.23161">
        <ele>258</ele>
        <time>2021-02-25T13:50:03.174Z</time>
      </trkpt>
      <trkpt lat="43.97212" lon="2.2316">
        <ele>258</ele>
        <time>2021-02-25T13:50:04.174Z</time>
      </trkpt>
      <trkpt lat="43.97212" lon="2.23158">
        <ele>259</ele>
        <time>2021-02-25T13:50:05.174Z</time>
      </trkpt>
      <trkpt lat="43.97212" lon="2.23157">
        <ele>259</ele>
        <time>2021-02-25T13:50:06.174Z</time>
      </trkpt>
      <trkpt lat="43.97213" lon="2.23156">
        <ele>259</ele>
        <time>2021-02-25T13:50:07.174Z</time>
      </trkpt>
      <trkpt lat="43.97213" lon="2.23155">
        <ele>259</ele>
        <time>2021-02-25T13:50:08.174Z</time>
      </trkpt>
      <trkpt lat="43.97213" lon="2.23154">
        <ele>259</ele>
        <time>2021-02-25T13:50:09.174Z</time>
      </trkpt>
      <trkpt lat="43.97214" lon="2.23153">
        <ele>259</ele>
        <time>2021-02-25T13:50:10.174Z</time>
      </trkpt>
      <trkpt lat="43.97214" lon="2.23152">
        <ele>259</ele>
        <time>2021-02-25T13:50:11.174Z</time>
      </trkpt>
      <trkpt lat="43.97214" lon="2.23151">
        <ele>259</ele>
        <time>2021-02-25T13:50:12.174Z</time>
      </trkpt>
      <trkpt lat="43.97214" lon="2.2315">
        <ele>260</ele>
        <time>2021-02-25T13:50:13.174Z</time>
      </trkpt>
      <trkpt lat="43.97215" lon="2.23149">
        <ele>260</ele>
        <time>2021-02-25T13:50:14.174Z</time>
      </trkpt>
      <trkpt lat="43.97215" lon="2.23147">
        <ele>260</ele>
        <time>2021-02-25T13:50:15.174Z</time>
      </trkpt>
      <trkpt lat="43.97215" lon="2.23146">
        <ele>260</ele>
        <time>2021-02-25T13:50:16.174Z</time>
      </trkpt>
      <trkpt lat="43.97216" lon="2.23145">
        <ele>260</ele>
        <time>2021-02-25T13:50:17.174Z</time>
      </trkpt>
      <trkpt lat="43.97216" lon="2.23144">
        <ele>260</ele>
        <time>2021-02-25T13:50:18.174Z</time>
      </trkpt>
      <trkpt lat="43.97216" lon="2.23143">
        <ele>260</ele>
        <time>2021-02-25T13:50:19.174Z</time>
      </trkpt>
      <trkpt lat="43.97217" lon="2.23141">
        <ele>260</ele>
        <time>2021-02-25T13:50:20.174Z</time>
      </trkpt>
      <trkpt lat="43.97217" lon="2.2314">
        <ele>261</ele>
        <time>2021-02-25T13:50:21.174Z</time>
      </trkpt>
      <trkpt lat="43.97217" lon="2.23139">
        <ele>261</ele>
        <time>2021-02-25T13:50:22.174Z</time>
      </trkpt>
      <trkpt lat="43.97218" lon="2.23138">
        <ele>261</ele>
        <time>2021-02-25T13:50:23.174Z</time>
      </trkpt>
      <trkpt lat="43.97218" lon="2.23136">
        <ele>261</ele>
        <time>2021-02-25T13:50:24.174Z</time>
      </trkpt>
      <trkpt lat="43.97218" lon="2.23135">
        <ele>261</ele>
        <time>2021-02-25T13:50:25.174Z</time>
      </trkpt>
      <trkpt lat="43.97219" lon="2.23134">
        <ele>261</ele>
        <time>2021-02-25T13:50:26.174Z</time>
      </trkpt>
      <trkpt lat="43.97219" lon="2.23133">
        <ele>261</ele>
        <time>2021-02-25T13:50:27.174Z</time>
      </trkpt>
      <trkpt lat="43.97219" lon="2.23132">
        <ele>261</ele>
        <time>2021-02-25T13:50:28.174Z</time>
      </trkpt>
      <trkpt lat="43.9722" lon="2.23131">
        <ele>261</ele>
        <time>2021-02-25T13:50:29.174Z</time>
      </trkpt>
      <trkpt lat="43.9722" lon="2.23129">
        <ele>261</ele>
        <time>2021-02-25T13:50:30.174Z</time>
      </trkpt>
      <trkpt lat="43.9722" lon="2.23128">
        <ele>261</ele>
        <time>2021-02-25T13:50:31.174Z</time>
      </trkpt>
      <trkpt lat="43.97221" lon="2.23127">
        <ele>261</ele>
        <time>2021-02-25T13:50:32.174Z</time>
      </trkpt>
      <trkpt lat="43.97221" lon="2.23126">
        <ele>261</ele>
        <time>2021-02-25T13:50:33.174Z</time>
      </trkpt>
      <trkpt lat="43.97221" lon="2.23125">
        <ele>262</ele>
        <time>2021-02-25T13:50:34.174Z</time>
      </trkpt>
      <trkpt lat="43.97222" lon="2.23124">
        <ele>262</ele>
        <time>2021-02-25T13:50:35.174Z</time>
      </trkpt>
      <trkpt lat="43.97223" lon="2.23123">
        <ele>262</ele>
        <time>2021-02-25T13:50:36.174Z</time>
      </trkpt>
      <trkpt lat="43.97223" lon="2.23123">
        <ele>262</ele>
        <time>2021-02-25T13:50:37.174Z</time>
      </trkpt>
      <trkpt lat="43.97224" lon="2.23122">
        <ele>262</ele>
        <time>2021-02-25T13:50:38.174Z</time>
      </trkpt>
      <trkpt lat="43.97224" lon="2.23121">
        <ele>262</ele>
        <time>2021-02-25T13:50:39.174Z</time>
      </trkpt>
      <trkpt lat="43.97225" lon="2.2312">
        <ele>262</ele>
        <time>2021-02-25T13:50:40.174Z</time>
      </trkpt>
      <trkpt lat="43.97225" lon="2.23119">
        <ele>262</ele>
        <time>2021-02-25T13:50:41.174Z</time>
      </trkpt>
      <trkpt lat="43.97226" lon="2.23118">
        <ele>263</ele>
        <time>2021-02-25T13:50:42.174Z</time>
      </trkpt>
      <trkpt lat="43.97226" lon="2.23117">
        <ele>263</ele>
        <time>2021-02-25T13:50:43.174Z</time>
      </trkpt>
      <trkpt lat="43.97227" lon="2.23115">
        <ele>263</ele>
        <time>2021-02-25T13:50:44.174Z</time>
      </trkpt>
      <trkpt lat="43.97227" lon="2.23114">
        <ele>263</ele>
        <time>2021-02-25T13:50:45.174Z</time>
      </trkpt>
      <trkpt lat="43.97227" lon="2.23113">
        <ele>263</ele>
        <time>2021-02-25T13:50:46.174Z</time>
      </trkpt>
      <trkpt lat="43.97228" lon="2.23112">
        <ele>263</ele>
        <time>2021-02-25T13:50:47.174Z</time>
      </trkpt>
      <trkpt lat="43.97228" lon="2.2311">
        <ele>263</ele>
        <time>2021-02-25T13:50:48.174Z</time>
      </trkpt>
      <trkpt lat="43.97229" lon="2.23109">
        <ele>264</ele>
        <time>2021-02-25T13:50:49.174Z</time>
      </trkpt>
      <trkpt lat="43.97229" lon="2.23108">
        <ele>264</ele>
        <time>2021-02-25T13:50:50.174Z</time>
      </trkpt>
      <trkpt lat="43.97229" lon="2.23107">
        <ele>264</ele>
        <time>2021-02-25T13:50:51.174Z</time>
      </trkpt>
      <trkpt lat="43.9723" lon="2.23106">
        <ele>264</ele>
        <time>2021-02-25T13:50:52.174Z</time>
      </trkpt>
      <trkpt lat="43.9723" lon="2.23105">
        <ele>264</ele>
        <time>2021-02-25T13:50:53.174Z</time>
      </trkpt>
      <trkpt lat="43.97231" lon="2.23103">
        <ele>264</ele>
        <time>2021-02-25T13:50:54.174Z</time>
      </trkpt>
      <trkpt lat="43.97231" lon="2.23102">
        <ele>264</ele>
        <time>2021-02-25T13:50:55.174Z</time>
      </trkpt>
      <trkpt lat="43.97232" lon="2.23102">
        <ele>264</ele>
        <time>2021-02-25T13:50:56.174Z</time>
      </trkpt>
      <trkpt lat="43.97232" lon="2.23101">
        <ele>264</ele>
        <time>2021-02-25T13:50:57.174Z</time>
      </trkpt>
      <trkpt lat="43.97233" lon="2.231">
        <ele>265</ele>
        <time>2021-02-25T13:50:58.174Z</time>
      </trkpt>
      <trkpt lat="43.97233" lon="2.23099">
        <ele>265</ele>
        <time>2021-02-25T13:50:59.174Z</time>
      </trkpt>
      <trkpt lat="43.97234" lon="2.23098">
        <ele>265</ele>
        <time>2021-02-25T13:51:00.174Z</time>
      </trkpt>
      <trkpt lat="43.97234" lon="2.23097">
        <ele>265</ele>
        <time>2021-02-25T13:51:01.174Z</time>
      </trkpt>
      <trkpt lat="43.97235" lon="2.23096">
        <ele>265</ele>
        <time>2021-02-25T13:51:02.174Z</time>
      </trkpt>
      <trkpt lat="43.97235" lon="2.23095">
        <ele>265</ele>
        <time>2021-02-25T13:51:03.174Z</time>
      </trkpt>
      <trkpt lat="43.97235" lon="2.23095">
        <ele>265</ele>
        <time>2021-02-25T13:51:04.174Z</time>
      </trkpt>
      <trkpt lat="43.97236" lon="2.23094">
        <ele>266</ele>
        <time>2021-02-25T13:51:05.174Z</time>
      </trkpt>
      <trkpt lat="43.97237" lon="2.23093">
        <ele>266</ele>
        <time>2021-02-25T13:51:06.174Z</time>
      </trkpt>
      <trkpt lat="43.97237" lon="2.23092">
        <ele>266</ele>
        <time>2021-02-25T13:51:07.174Z</time>
      </trkpt>
      <trkpt lat="43.97238" lon="2.23091">
        <ele>266</ele>
        <time>2021-02-25T13:51:08.174Z</time>
      </trkpt>
      <trkpt lat="43.97238" lon="2.2309">
        <ele>267</ele>
        <time>2021-02-25T13:51:09.174Z</time>
      </trkpt>
      <trkpt lat="43.97239" lon="2.23089">
        <ele>267</ele>
        <time>2021-02-25T13:51:10.174Z</time>
      </trkpt>
      <trkpt lat="43.97239" lon="2.23088">
        <ele>267</ele>
        <time>2021-02-25T13:51:11.174Z</time>
      </trkpt>
      <trkpt lat="43.9724" lon="2.23087">
        <ele>267</ele>
        <time>2021-02-25T13:51:12.174Z</time>
      </trkpt>
      <trkpt lat="43.9724" lon="2.23086">
        <ele>267</ele>
        <time>2021-02-25T13:51:13.174Z</time>
      </trkpt>
      <trkpt lat="43.97241" lon="2.23085">
        <ele>267</ele>
        <time>2021-02-25T13:51:14.174Z</time>
      </trkpt>
      <trkpt lat="43.97241" lon="2.23084">
        <ele>268</ele>
        <time>2021-02-25T13:51:15.174Z</time>
      </trkpt>
      <trkpt lat="43.97241" lon="2.23082">
        <ele>268</ele>
        <time>2021-02-25T13:51:19.176Z</time>
      </trkpt>
      <trkpt lat="43.97241" lon="2.23081">
        <ele>268</ele>
        <time>2021-02-25T13:51:20.176Z</time>
      </trkpt>
      <trkpt lat="43.97241" lon="2.2308">
        <ele>268</ele>
        <time>2021-02-25T13:51:21.176Z</time>
      </trkpt>
      <trkpt lat="43.97241" lon="2.23079">
        <ele>268</ele>
        <time>2021-02-25T13:51:22.176Z</time>
      </trkpt>
      <trkpt lat="43.97242" lon="2.23078">
        <ele>268</ele>
        <time>2021-02-25T13:51:23.176Z</time>
      </trkpt>
      <trkpt lat="43.97242" lon="2.23077">
        <ele>268</ele>
        <time>2021-02-25T13:51:24.176Z</time>
      </trkpt>
      <trkpt lat="43.97242" lon="2.23075">
        <ele>268</ele>
        <time>2021-02-25T13:51:25.176Z</time>
      </trkpt>
      <trkpt lat="43.97242" lon="2.23074">
        <ele>268</ele>
        <time>2021-02-25T13:51:26.176Z</time>
      </trkpt>
      <trkpt lat="43.97242" lon="2.23073">
        <ele>268</ele>
        <time>2021-02-25T13:51:27.176Z</time>
      </trkpt>
      <trkpt lat="43.97243" lon="2.23072">
        <ele>268</ele>
        <time>2021-02-25T13:51:28.176Z</time>
      </trkpt>
      <trkpt lat="43.97243" lon="2.23071">
        <ele>269</ele>
        <time>2021-02-25T13:51:29.176Z</time>
      </trkpt>
      <trkpt lat="43.97243" lon="2.2307">
        <ele>269</ele>
        <time>2021-02-25T13:51:30.176Z</time>
      </trkpt>
      <trkpt lat="43.97244" lon="2.23069">
        <ele>269</ele>
        <time>2021-02-25T13:51:31.176Z</time>
      </trkpt>
      <trkpt lat="43.97244" lon="2.23068">
        <ele>269</ele>
        <time>2021-02-25T13:51:32.176Z</time>
      </trkpt>
      <trkpt lat="43.97244" lon="2.23068">
        <ele>269</ele>
        <time>2021-02-25T13:51:33.176Z</time>
      </trkpt>
      <trkpt lat="43.97245" lon="2.23067">
        <ele>269</ele>
        <time>2021-02-25T13:51:34.176Z</time>
      </trkpt>
      <trkpt lat="43.97245" lon="2.23066">
        <ele>269</ele>
        <time>2021-02-25T13:51:35.176Z</time>
      </trkpt>
      <trkpt lat="43.97245" lon="2.23064">
        <ele>269</ele>
        <time>2021-02-25T13:51:36.176Z</time>
      </trkpt>
      <trkpt lat="43.97244" lon="2.23063">
        <ele>269</ele>
        <time>2021-02-25T13:51:37.176Z</time>
      </trkpt>
      <trkpt lat="43.97244" lon="2.23062">
        <ele>269</ele>
        <time>2021-02-25T13:51:38.176Z</time>
      </trkpt>
      <trkpt lat="43.97244" lon="2.23061">
        <ele>269</ele>
        <time>2021-02-25T13:51:39.176Z</time>
      </trkpt>
      <trkpt lat="43.97244" lon="2.23059">
        <ele>270</ele>
        <time>2021-02-25T13:51:40.176Z</time>
      </trkpt>
      <trkpt lat="43.97244" lon="2.23058">
        <ele>270</ele>
        <time>2021-02-25T13:51:41.176Z</time>
      </trkpt>
      <trkpt lat="43.97244" lon="2.23057">
        <ele>270</ele>
        <time>2021-02-25T13:51:42.176Z</time>
      </trkpt>
      <trkpt lat="43.97245" lon="2.23056">
        <ele>270</ele>
        <time>2021-02-25T13:51:43.176Z</time>
      </trkpt>
      <trkpt lat="43.97246" lon="2.23056">
        <ele>270</ele>
        <time>2021-02-25T13:51:44.176Z</time>
      </trkpt>
      <trkpt lat="43.97247" lon="2.23056">
        <ele>270</ele>
        <time>2021-02-25T13:51:45.176Z</time>
      </trkpt>
      <trkpt lat="43.97248" lon="2.23055">
        <ele>271</ele>
        <time>2021-02-25T13:51:46.176Z</time>
      </trkpt>
      <trkpt lat="43.97249" lon="2.23055">
        <ele>271</ele>
        <time>2021-02-25T13:51:47.176Z</time>
      </trkpt>
      <trkpt lat="43.9725" lon="2.23054">
        <ele>271</ele>
        <time>2021-02-25T13:51:48.176Z</time>
      </trkpt>
      <trkpt lat="43.97251" lon="2.23054">
        <ele>271</ele>
        <time>2021-02-25T13:51:49.176Z</time>
      </trkpt>
      <trkpt lat="43.97251" lon="2.23053">
        <ele>271</ele>
        <time>2021-02-25T13:51:50.176Z</time>
      </trkpt>
      <trkpt lat="43.97252" lon="2.23052">
        <ele>271</ele>
        <time>2021-02-25T13:51:51.176Z</time>
      </trkpt>
      <trkpt lat="43.97252" lon="2.23051">
        <ele>271</ele>
        <time>2021-02-25T13:51:52.176Z</time>
      </trkpt>
      <trkpt lat="43.97253" lon="2.2305">
        <ele>271</ele>
        <time>2021-02-25T13:51:53.176Z</time>
      </trkpt>
      <trkpt lat="43.97254" lon="2.2305">
        <ele>271</ele>
        <time>2021-02-25T13:51:54.176Z</time>
      </trkpt>
      <trkpt lat="43.97254" lon="2.23049">
        <ele>271</ele>
        <time>2021-02-25T13:51:55.176Z</time>
      </trkpt>
      <trkpt lat="43.97255" lon="2.23048">
        <ele>271</ele>
        <time>2021-02-25T13:51:56.176Z</time>
      </trkpt>
      <trkpt lat="43.97256" lon="2.23047">
        <ele>271</ele>
        <time>2021-02-25T13:51:57.176Z</time>
      </trkpt>
      <trkpt lat="43.97257" lon="2.23047">
        <ele>271</ele>
        <time>2021-02-25T13:51:58.176Z</time>
      </trkpt>
      <trkpt lat="43.97258" lon="2.23047">
        <ele>272</ele>
        <time>2021-02-25T13:51:59.176Z</time>
      </trkpt>
      <trkpt lat="43.97259" lon="2.23047">
        <ele>272</ele>
        <time>2021-02-25T13:52:00.176Z</time>
      </trkpt>
      <trkpt lat="43.9726" lon="2.23047">
        <ele>272</ele>
        <time>2021-02-25T13:52:01.176Z</time>
      </trkpt>
      <trkpt lat="43.97261" lon="2.23047">
        <ele>272</ele>
        <time>2021-02-25T13:52:02.176Z</time>
      </trkpt>
      <trkpt lat="43.97261" lon="2.23047">
        <ele>272</ele>
        <time>2021-02-25T13:52:03.176Z</time>
      </trkpt>
      <trkpt lat="43.97262" lon="2.23047">
        <ele>272</ele>
        <time>2021-02-25T13:52:04.176Z</time>
      </trkpt>
      <trkpt lat="43.97263" lon="2.23048">
        <ele>272</ele>
        <time>2021-02-25T13:52:05.176Z</time>
      </trkpt>
      <trkpt lat="43.97264" lon="2.23048">
        <ele>272</ele>
        <time>2021-02-25T13:52:06.176Z</time>
      </trkpt>
      <trkpt lat="43.97265" lon="2.23048">
        <ele>272</ele>
        <time>2021-02-25T13:52:07.176Z</time>
      </trkpt>
      <trkpt lat="43.97266" lon="2.23047">
        <ele>272</ele>
        <time>2021-02-25T13:52:08.176Z</time>
      </trkpt>
      <trkpt lat="43.97267" lon="2.23047">
        <ele>272</ele>
        <time>2021-02-25T13:52:09.176Z</time>
      </trkpt>
      <trkpt lat="43.97267" lon="2.23047">
        <ele>272</ele>
        <time>2021-02-25T13:52:10.176Z</time>
      </trkpt>
      <trkpt lat="43.97268" lon="2.23046">
        <ele>272</ele>
        <time>2021-02-25T13:52:11.176Z</time>
      </trkpt>
      <trkpt lat="43.97269" lon="2.23045">
        <ele>272</ele>
        <time>2021-02-25T13:52:12.176Z</time>
      </trkpt>
      <trkpt lat="43.97269" lon="2.23045">
        <ele>272</ele>
        <time>2021-02-25T13:52:13.176Z</time>
      </trkpt>
      <trkpt lat="43.97269" lon="2.23044">
        <ele>272</ele>
        <time>2021-02-25T13:52:14.176Z</time>
      </trkpt>
      <trkpt lat="43.97268" lon="2.23043">
        <ele>272</ele>
        <time>2021-02-25T13:52:15.176Z</time>
      </trkpt>
      <trkpt lat="43.97268" lon="2.23043">
        <ele>272</ele>
        <time>2021-02-25T13:52:16.176Z</time>
      </trkpt>
      <trkpt lat="43.97268" lon="2.23042">
        <ele>273</ele>
        <time>2021-02-25T13:52:17.176Z</time>
      </trkpt>
      <trkpt lat="43.97267" lon="2.23041">
        <ele>273</ele>
        <time>2021-02-25T13:52:18.176Z</time>
      </trkpt>
      <trkpt lat="43.97266" lon="2.23041">
        <ele>273</ele>
        <time>2021-02-25T13:52:19.176Z</time>
      </trkpt>
      <trkpt lat="43.97265" lon="2.2304">
        <ele>273</ele>
        <time>2021-02-25T13:52:20.176Z</time>
      </trkpt>
      <trkpt lat="43.97264" lon="2.2304">
        <ele>273</ele>
        <time>2021-02-25T13:52:21.176Z</time>
      </trkpt>
      <trkpt lat="43.97264" lon="2.23039">
        <ele>273</ele>
        <time>2021-02-25T13:52:22.176Z</time>
      </trkpt>
      <trkpt lat="43.97263" lon="2.23039">
        <ele>273</ele>
        <time>2021-02-25T13:52:23.176Z</time>
      </trkpt>
      <trkpt lat="43.97262" lon="2.23038">
        <ele>273</ele>
        <time>2021-02-25T13:52:24.176Z</time>
      </trkpt>
      <trkpt lat="43.97261" lon="2.23038">
        <ele>273</ele>
        <time>2021-02-25T13:52:25.176Z</time>
      </trkpt>
      <trkpt lat="43.97261" lon="2.23038">
        <ele>273</ele>
        <time>2021-02-25T13:52:26.176Z</time>
      </trkpt>
      <trkpt lat="43.9726" lon="2.23038">
        <ele>273</ele>
        <time>2021-02-25T13:52:27.176Z</time>
      </trkpt>
      <trkpt lat="43.97259" lon="2.23037">
        <ele>273</ele>
        <time>2021-02-25T13:52:28.176Z</time>
      </trkpt>
      <trkpt lat="43.97258" lon="2.23037">
        <ele>274</ele>
        <time>2021-02-25T13:52:29.176Z</time>
      </trkpt>
      <trkpt lat="43.97257" lon="2.23037">
        <ele>274</ele>
        <time>2021-02-25T13:52:30.176Z</time>
      </trkpt>
      <trkpt lat="43.97256" lon="2.23037">
        <ele>274</ele>
        <time>2021-02-25T13:52:31.176Z</time>
      </trkpt>
      <trkpt lat="43.97255" lon="2.23037">
        <ele>274</ele>
        <time>2021-02-25T13:52:32.176Z</time>
      </trkpt>
      <trkpt lat="43.97254" lon="2.23037">
        <ele>274</ele>
        <time>2021-02-25T13:52:33.176Z</time>
      </trkpt>
      <trkpt lat="43.97253" lon="2.23037">
        <ele>274</ele>
        <time>2021-02-25T13:52:34.176Z</time>
      </trkpt>
      <trkpt lat="43.97252" lon="2.23036">
        <ele>274</ele>
        <time>2021-02-25T13:52:35.176Z</time>
      </trkpt>
      <trkpt lat="43.97252" lon="2.23036">
        <ele>274</ele>
        <time>2021-02-25T13:52:36.176Z</time>
      </trkpt>
      <trkpt lat="43.97251" lon="2.23036">
        <ele>274</ele>
        <time>2021-02-25T13:52:37.176Z</time>
      </trkpt>
      <trkpt lat="43.9725" lon="2.23035">
        <ele>274</ele>
        <time>2021-02-25T13:52:38.176Z</time>
      </trkpt>
      <trkpt lat="43.97249" lon="2.23035">
        <ele>275</ele>
        <time>2021-02-25T13:52:39.176Z</time>
      </trkpt>
      <trkpt lat="43.97248" lon="2.23035">
        <ele>275</ele>
        <time>2021-02-25T13:52:40.176Z</time>
      </trkpt>
      <trkpt lat="43.97248" lon="2.23035">
        <ele>275</ele>
        <time>2021-02-25T13:52:41.176Z</time>
      </trkpt>
      <trkpt lat="43.97247" lon="2.23034">
        <ele>275</ele>
        <time>2021-02-25T13:52:42.176Z</time>
      </trkpt>
      <trkpt lat="43.97246" lon="2.23034">
        <ele>275</ele>
        <time>2021-02-25T13:52:43.176Z</time>
      </trkpt>
      <trkpt lat="43.97245" lon="2.23033">
        <ele>275</ele>
        <time>2021-02-25T13:52:44.176Z</time>
      </trkpt>
      <trkpt lat="43.97244" lon="2.23033">
        <ele>275</ele>
        <time>2021-02-25T13:52:45.176Z</time>
      </trkpt>
      <trkpt lat="43.97244" lon="2.23032">
        <ele>275</ele>
        <time>2021-02-25T13:52:46.176Z</time>
      </trkpt>
      <trkpt lat="43.97243" lon="2.23032">
        <ele>276</ele>
        <time>2021-02-25T13:52:47.176Z</time>
      </trkpt>
      <trkpt lat="43.97242" lon="2.23031">
        <ele>276</ele>
        <time>2021-02-25T13:52:48.176Z</time>
      </trkpt>
      <trkpt lat="43.97241" lon="2.23031">
        <ele>276</ele>
        <time>2021-02-25T13:52:49.176Z</time>
      </trkpt>
      <trkpt lat="43.9724" lon="2.2303">
        <ele>276</ele>
        <time>2021-02-25T13:52:50.176Z</time>
      </trkpt>
      <trkpt lat="43.97239" lon="2.2303">
        <ele>276</ele>
        <time>2021-02-25T13:52:51.176Z</time>
      </trkpt>
      <trkpt lat="43.97239" lon="2.23029">
        <ele>276</ele>
        <time>2021-02-25T13:52:52.176Z</time>
      </trkpt>
      <trkpt lat="43.97238" lon="2.23029">
        <ele>276</ele>
        <time>2021-02-25T13:52:53.176Z</time>
      </trkpt>
      <trkpt lat="43.97237" lon="2.23029">
        <ele>277</ele>
        <time>2021-02-25T13:52:54.176Z</time>
      </trkpt>
      <trkpt lat="43.97237" lon="2.23028">
        <ele>277</ele>
        <time>2021-02-25T13:52:55.176Z</time>
      </trkpt>
      <trkpt lat="43.97236" lon="2.23028">
        <ele>277</ele>
        <time>2021-02-25T13:52:56.176Z</time>
      </trkpt>
      <trkpt lat="43.97235" lon="2.23027">
        <ele>277</ele>
        <time>2021-02-25T13:52:57.176Z</time>
      </trkpt>
      <trkpt lat="43.97234" lon="2.23027">
        <ele>277</ele>
        <time>2021-02-25T13:52:58.176Z</time>
      </trkpt>
      <trkpt lat="43.97233" lon="2.23027">
        <ele>277</ele>
        <time>2021-02-25T13:52:59.176Z</time>
      </trkpt>
      <trkpt lat="43.97233" lon="2.23026">
        <ele>278</ele>
        <time>2021-02-25T13:53:00.176Z</time>
      </trkpt>
      <trkpt lat="43.97232" lon="2.23026">
        <ele>278</ele>
        <time>2021-02-25T13:53:01.176Z</time>
      </trkpt>
      <trkpt lat="43.97231" lon="2.23026">
        <ele>278</ele>
        <time>2021-02-25T13:53:02.176Z</time>
      </trkpt>
      <trkpt lat="43.9723" lon="2.23026">
        <ele>278</ele>
        <time>2021-02-25T13:53:03.176Z</time>
      </trkpt>
      <trkpt lat="43.9723" lon="2.23026">
        <ele>279</ele>
        <time>2021-02-25T13:53:04.176Z</time>
      </trkpt>
      <trkpt lat="43.97229" lon="2.23025">
        <ele>279</ele>
        <time>2021-02-25T13:53:05.176Z</time>
      </trkpt>
      <trkpt lat="43.97228" lon="2.23025">
        <ele>279</ele>
        <time>2021-02-25T13:53:06.176Z</time>
      </trkpt>
      <trkpt lat="43.97227" lon="2.23025">
        <ele>279</ele>
        <time>2021-02-25T13:53:07.176Z</time>
      </trkpt>
      <trkpt lat="43.97226" lon="2.23025">
        <ele>279</ele>
        <time>2021-02-25T13:53:08.176Z</time>
      </trkpt>
      <trkpt lat="43.97225" lon="2.23025">
        <ele>280</ele>
        <time>2021-02-25T13:53:09.176Z</time>
      </trkpt>
      <trkpt lat="43.97224" lon="2.23024">
        <ele>280</ele>
        <time>2021-02-25T13:53:10.176Z</time>
      </trkpt>
      <trkpt lat="43.97224" lon="2.23024">
        <ele>280</ele>
        <time>2021-02-25T13:53:11.176Z</time>
      </trkpt>
      <trkpt lat="43.97223" lon="2.23024">
        <ele>280</ele>
        <time>2021-02-25T13:53:12.176Z</time>
      </trkpt>
      <trkpt lat="43.97222" lon="2.23023">
        <ele>280</ele>
        <time>2021-02-25T13:53:13.176Z</time>
      </trkpt>
      <trkpt lat="43.97221" lon="2.23023">
        <ele>280</ele>
        <time>2021-02-25T13:53:14.176Z</time>
      </trkpt>
      <trkpt lat="43.97221" lon="2.23022">
        <ele>281</ele>
        <time>2021-02-25T13:53:15.176Z</time>
      </trkpt>
      <trkpt lat="43.9722" lon="2.23022">
        <ele>281</ele>
        <time>2021-02-25T13:53:16.176Z</time>
      </trkpt>
      <trkpt lat="43.97219" lon="2.23022">
        <ele>281</ele>
        <time>2021-02-25T13:53:17.176Z</time>
      </trkpt>
      <trkpt lat="43.97218" lon="2.23022">
        <ele>281</ele>
        <time>2021-02-25T13:53:18.176Z</time>
      </trkpt>
      <trkpt lat="43.97217" lon="2.23022">
        <ele>281</ele>
        <time>2021-02-25T13:53:19.176Z</time>
      </trkpt>
      <trkpt lat="43.97216" lon="2.23022">
        <ele>281</ele>
        <time>2021-02-25T13:53:20.176Z</time>
      </trkpt>
      <trkpt lat="43.97215" lon="2.23022">
        <ele>281</ele>
        <time>2021-02-25T13:53:21.176Z</time>
      </trkpt>
      <trkpt lat="43.97215" lon="2.23022">
        <ele>281</ele>
        <time>2021-02-25T13:53:22.176Z</time>
      </trkpt>
      <trkpt lat="43.97214" lon="2.23022">
        <ele>281</ele>
        <time>2021-02-25T13:53:23.176Z</time>
      </trkpt>
      <trkpt lat="43.97213" lon="2.23022">
        <ele>281</ele>
        <time>2021-02-25T13:53:24.176Z</time>
      </trkpt>
      <trkpt lat="43.97212" lon="2.23022">
        <ele>281</ele>
        <time>2021-02-25T13:53:25.176Z</time>
      </trkpt>
      <trkpt lat="43.97211" lon="2.23022">
        <ele>281</ele>
        <time>2021-02-25T13:53:26.176Z</time>
      </trkpt>
      <trkpt lat="43.9721" lon="2.23023">
        <ele>281</ele>
        <time>2021-02-25T13:53:27.176Z</time>
      </trkpt>
      <trkpt lat="43.97209" lon="2.23023">
        <ele>281</ele>
        <time>2021-02-25T13:53:30.421Z</time>
      </trkpt>
      <trkpt lat="43.97208" lon="2.23022">
        <ele>281</ele>
        <time>2021-02-25T13:53:31.421Z</time>
      </trkpt>
      <trkpt lat="43.97207" lon="2.23022">
        <ele>281</ele>
        <time>2021-02-25T13:53:32.421Z</time>
      </trkpt>
      <trkpt lat="43.97206" lon="2.23022">
        <ele>281</ele>
        <time>2021-02-25T13:53:33.421Z</time>
      </trkpt>
      <trkpt lat="43.97205" lon="2.23021">
        <ele>282</ele>
        <time>2021-02-25T13:53:34.421Z</time>
      </trkpt>
      <trkpt lat="43.97204" lon="2.23021">
        <ele>282</ele>
        <time>2021-02-25T13:53:35.421Z</time>
      </trkpt>
      <trkpt lat="43.97203" lon="2.23021">
        <ele>282</ele>
        <time>2021-02-25T13:53:36.421Z</time>
      </trkpt>
      <trkpt lat="43.97202" lon="2.23021">
        <ele>282</ele>
        <time>2021-02-25T13:53:37.421Z</time>
      </trkpt>
      <trkpt lat="43.97201" lon="2.23021">
        <ele>282</ele>
        <time>2021-02-25T13:53:38.421Z</time>
      </trkpt>
      <trkpt lat="43.972" lon="2.23021">
        <ele>282</ele>
        <time>2021-02-25T13:53:39.421Z</time>
      </trkpt>
      <trkpt lat="43.97199" lon="2.23021">
        <ele>282</ele>
        <time>2021-02-25T13:53:40.421Z</time>
      </trkpt>
      <trkpt lat="43.97198" lon="2.23021">
        <ele>282</ele>
        <time>2021-02-25T13:53:41.421Z</time>
      </trkpt>
      <trkpt lat="43.97197" lon="2.2302">
        <ele>282</ele>
        <time>2021-02-25T13:53:42.421Z</time>
      </trkpt>
      <trkpt lat="43.97196" lon="2.23019">
        <ele>282</ele>
        <time>2021-02-25T13:53:43.421Z</time>
      </trkpt>
      <trkpt lat="43.97195" lon="2.23018">
        <ele>282</ele>
        <time>2021-02-25T13:53:44.421Z</time>
      </trkpt>
      <trkpt lat="43.97195" lon="2.23017">
        <ele>282</ele>
        <time>2021-02-25T13:53:45.421Z</time>
      </trkpt>
      <trkpt lat="43.97194" lon="2.23017">
        <ele>282</ele>
        <time>2021-02-25T13:53:46.421Z</time>
      </trkpt>
      <trkpt lat="43.97194" lon="2.23016">
        <ele>282</ele>
        <time>2021-02-25T13:53:47.421Z</time>
      </trkpt>
      <trkpt lat="43.97193" lon="2.23016">
        <ele>282</ele>
        <time>2021-02-25T13:53:48.421Z</time>
      </trkpt>
      <trkpt lat="43.97193" lon="2.23015">
        <ele>282</ele>
        <time>2021-02-25T13:53:49.421Z</time>
      </trkpt>
      <trkpt lat="43.97192" lon="2.23014">
        <ele>282</ele>
        <time>2021-02-25T13:53:50.421Z</time>
      </trkpt>
      <trkpt lat="43.97191" lon="2.23014">
        <ele>282</ele>
        <time>2021-02-25T13:53:51.421Z</time>
      </trkpt>
      <trkpt lat="43.97191" lon="2.23014">
        <ele>282</ele>
        <time>2021-02-25T13:53:52.421Z</time>
      </trkpt>
      <trkpt lat="43.9719" lon="2.23013">
        <ele>282</ele>
        <time>2021-02-25T13:53:53.421Z</time>
      </trkpt>
      <trkpt lat="43.97189" lon="2.23013">
        <ele>282</ele>
        <time>2021-02-25T13:53:54.421Z</time>
      </trkpt>
      <trkpt lat="43.97188" lon="2.23012">
        <ele>282</ele>
        <time>2021-02-25T13:53:55.421Z</time>
      </trkpt>
      <trkpt lat="43.97187" lon="2.23011">
        <ele>282</ele>
        <time>2021-02-25T13:53:56.421Z</time>
      </trkpt>
      <trkpt lat="43.97187" lon="2.2301">
        <ele>282</ele>
        <time>2021-02-25T13:53:57.421Z</time>
      </trkpt>
      <trkpt lat="43.97186" lon="2.23008">
        <ele>282</ele>
        <time>2021-02-25T13:53:58.421Z</time>
      </trkpt>
      <trkpt lat="43.97186" lon="2.23007">
        <ele>282</ele>
        <time>2021-02-25T13:53:59.421Z</time>
      </trkpt>
      <trkpt lat="43.97185" lon="2.23006">
        <ele>282</ele>
        <time>2021-02-25T13:54:00.421Z</time>
      </trkpt>
      <trkpt lat="43.97185" lon="2.23005">
        <ele>282</ele>
        <time>2021-02-25T13:54:01.421Z</time>
      </trkpt>
      <trkpt lat="43.97185" lon="2.23003">
        <ele>282</ele>
        <time>2021-02-25T13:54:02.421Z</time>
      </trkpt>
      <trkpt lat="43.97185" lon="2.23002">
        <ele>282</ele>
        <time>2021-02-25T13:54:03.421Z</time>
      </trkpt>
      <trkpt lat="43.97185" lon="2.23001">
        <ele>282</ele>
        <time>2021-02-25T13:54:04.421Z</time>
      </trkpt>
      <trkpt lat="43.97185" lon="2.22999">
        <ele>282</ele>
        <time>2021-02-25T13:54:05.421Z</time>
      </trkpt>
      <trkpt lat="43.97186" lon="2.22998">
        <ele>282</ele>
        <time>2021-02-25T13:54:06.421Z</time>
      </trkpt>
      <trkpt lat="43.97186" lon="2.22997">
        <ele>282</ele>
        <time>2021-02-25T13:54:07.421Z</time>
      </trkpt>
      <trkpt lat="43.97186" lon="2.22996">
        <ele>282</ele>
        <time>2021-02-25T13:54:08.421Z</time>
      </trkpt>
      <trkpt lat="43.97186" lon="2.22996">
        <ele>282</ele>
        <time>2021-02-25T13:54:09.421Z</time>
      </trkpt>
      <trkpt lat="43.97186" lon="2.22995">
        <ele>282</ele>
        <time>2021-02-25T13:54:10.421Z</time>
      </trkpt>
      <trkpt lat="43.97186" lon="2.22995">
        <ele>282</ele>
        <time>2021-02-25T13:54:11.421Z</time>
      </trkpt>
      <trkpt lat="43.97187" lon="2.22994">
        <ele>282</ele>
        <time>2021-02-25T13:54:12.421Z</time>
      </trkpt>
      <trkpt lat="43.97187" lon="2.22994">
        <ele>282</ele>
        <time>2021-02-25T13:54:13.421Z</time>
      </trkpt>
      <trkpt lat="43.97187" lon="2.22993">
        <ele>282</ele>
        <time>2021-02-25T13:54:14.421Z</time>
      </trkpt>
      <trkpt lat="43.97187" lon="2.22993">
        <ele>282</ele>
        <time>2021-02-25T13:54:15.421Z</time>
      </trkpt>
      <trkpt lat="43.97187" lon="2.22993">
        <ele>282</ele>
        <time>2021-02-25T13:54:16.421Z</time>
      </trkpt>
      <trkpt lat="43.97187" lon="2.2299">
        <ele>282</ele>
        <time>2021-02-25T13:54:17.421Z</time>
      </trkpt>
      <trkpt lat="43.97187" lon="2.2299">
        <ele>282</ele>
        <time>2021-02-25T13:54:18.421Z</time>
      </trkpt>
      <trkpt lat="43.97185" lon="2.2299">
        <ele>282</ele>
        <time>2021-02-25T13:54:19.421Z</time>
      </trkpt>
      <trkpt lat="43.97184" lon="2.2299">
        <ele>282</ele>
        <time>2021-02-25T13:54:20.421Z</time>
      </trkpt>
      <trkpt lat="43.97184" lon="2.22989">
        <ele>282</ele>
        <time>2021-02-25T13:54:21.421Z</time>
      </trkpt>
      <trkpt lat="43.97183" lon="2.22988">
        <ele>282</ele>
        <time>2021-02-25T13:54:22.421Z</time>
      </trkpt>
      <trkpt lat="43.97182" lon="2.22988">
        <ele>282</ele>
        <time>2021-02-25T13:54:23.421Z</time>
      </trkpt>
      <trkpt lat="43.97182" lon="2.22987">
        <ele>282</ele>
        <time>2021-02-25T13:54:24.421Z</time>
      </trkpt>
      <trkpt lat="43.97182" lon="2.22987">
        <ele>282</ele>
        <time>2021-02-25T13:54:25.421Z</time>
      </trkpt>
      <trkpt lat="43.97182" lon="2.22987">
        <ele>282</ele>
        <time>2021-02-25T13:54:26.421Z</time>
      </trkpt>
      <trkpt lat="43.97182" lon="2.22987">
        <ele>282</ele>
        <time>2021-02-25T13:54:27.421Z</time>
      </trkpt>
      <trkpt lat="43.97182" lon="2.22987">
        <ele>282</ele>
        <time>2021-02-25T13:54:28.421Z</time>
      </trkpt>
      <trkpt lat="43.97182" lon="2.22986">
        <ele>281</ele>
        <time>2021-02-25T13:54:29.421Z</time>
      </trkpt>
      <trkpt lat="43.97181" lon="2.22985">
        <ele>281</ele>
        <time>2021-02-25T13:54:30.421Z</time>
      </trkpt>
      <trkpt lat="43.97181" lon="2.22984">
        <ele>281</ele>
        <time>2021-02-25T13:54:31.421Z</time>
      </trkpt>
      <trkpt lat="43.97181" lon="2.22982">
        <ele>281</ele>
        <time>2021-02-25T13:54:32.421Z</time>
      </trkpt>
      <trkpt lat="43.97181" lon="2.22981">
        <ele>281</ele>
        <time>2021-02-25T13:54:33.421Z</time>
      </trkpt>
      <trkpt lat="43.9718" lon="2.22979">
        <ele>281</ele>
        <time>2021-02-25T13:54:34.421Z</time>
      </trkpt>
      <trkpt lat="43.97179" lon="2.22978">
        <ele>281</ele>
        <time>2021-02-25T13:54:35.421Z</time>
      </trkpt>
      <trkpt lat="43.97179" lon="2.22977">
        <ele>281</ele>
        <time>2021-02-25T13:54:36.421Z</time>
      </trkpt>
      <trkpt lat="43.97178" lon="2.22975">
        <ele>281</ele>
        <time>2021-02-25T13:54:37.421Z</time>
      </trkpt>
      <trkpt lat="43.97177" lon="2.22974">
        <ele>281</ele>
        <time>2021-02-25T13:54:38.421Z</time>
      </trkpt>
      <trkpt lat="43.97177" lon="2.22972">
        <ele>281</ele>
        <time>2021-02-25T13:54:39.421Z</time>
      </trkpt>
      <trkpt lat="43.97177" lon="2.22971">
        <ele>280</ele>
        <time>2021-02-25T13:54:40.421Z</time>
      </trkpt>
      <trkpt lat="43.97176" lon="2.22969">
        <ele>280</ele>
        <time>2021-02-25T13:54:41.421Z</time>
      </trkpt>
      <trkpt lat="43.97176" lon="2.22967">
        <ele>280</ele>
        <time>2021-02-25T13:54:42.421Z</time>
      </trkpt>
      <trkpt lat="43.97176" lon="2.22965">
        <ele>280</ele>
        <time>2021-02-25T13:54:43.421Z</time>
      </trkpt>
      <trkpt lat="43.97175" lon="2.22964">
        <ele>280</ele>
        <time>2021-02-25T13:54:44.421Z</time>
      </trkpt>
      <trkpt lat="43.97175" lon="2.22962">
        <ele>280</ele>
        <time>2021-02-25T13:54:45.421Z</time>
      </trkpt>
      <trkpt lat="43.97174" lon="2.2296">
        <ele>279</ele>
        <time>2021-02-25T13:54:46.421Z</time>
      </trkpt>
      <trkpt lat="43.97174" lon="2.22959">
        <ele>279</ele>
        <time>2021-02-25T13:54:47.421Z</time>
      </trkpt>
      <trkpt lat="43.97173" lon="2.22957">
        <ele>279</ele>
        <time>2021-02-25T13:54:48.421Z</time>
      </trkpt>
      <trkpt lat="43.97173" lon="2.22955">
        <ele>279</ele>
        <time>2021-02-25T13:54:49.421Z</time>
      </trkpt>
      <trkpt lat="43.97172" lon="2.22953">
        <ele>279</ele>
        <time>2021-02-25T13:54:50.421Z</time>
      </trkpt>
      <trkpt lat="43.97172" lon="2.22952">
        <ele>279</ele>
        <time>2021-02-25T13:54:51.421Z</time>
      </trkpt>
      <trkpt lat="43.97171" lon="2.2295">
        <ele>279</ele>
        <time>2021-02-25T13:54:52.421Z</time>
      </trkpt>
      <trkpt lat="43.97171" lon="2.22948">
        <ele>279</ele>
        <time>2021-02-25T13:54:53.421Z</time>
      </trkpt>
      <trkpt lat="43.97171" lon="2.22946">
        <ele>279</ele>
        <time>2021-02-25T13:54:54.421Z</time>
      </trkpt>
      <trkpt lat="43.9717" lon="2.22945">
        <ele>279</ele>
        <time>2021-02-25T13:54:55.421Z</time>
      </trkpt>
      <trkpt lat="43.97169" lon="2.22944">
        <ele>278</ele>
        <time>2021-02-25T13:54:56.421Z</time>
      </trkpt>
      <trkpt lat="43.97169" lon="2.22942">
        <ele>278</ele>
        <time>2021-02-25T13:54:57.421Z</time>
      </trkpt>
      <trkpt lat="43.97168" lon="2.2294">
        <ele>278</ele>
        <time>2021-02-25T13:54:58.421Z</time>
      </trkpt>
      <trkpt lat="43.97168" lon="2.22939">
        <ele>278</ele>
        <time>2021-02-25T13:54:59.421Z</time>
      </trkpt>
      <trkpt lat="43.97167" lon="2.22937">
        <ele>278</ele>
        <time>2021-02-25T13:55:00.421Z</time>
      </trkpt>
      <trkpt lat="43.97166" lon="2.22936">
        <ele>278</ele>
        <time>2021-02-25T13:55:01.421Z</time>
      </trkpt>
      <trkpt lat="43.97165" lon="2.22934">
        <ele>278</ele>
        <time>2021-02-25T13:55:02.421Z</time>
      </trkpt>
      <trkpt lat="43.97165" lon="2.22933">
        <ele>278</ele>
        <time>2021-02-25T13:55:03.421Z</time>
      </trkpt>
      <trkpt lat="43.97164" lon="2.22931">
        <ele>278</ele>
        <time>2021-02-25T13:55:04.421Z</time>
      </trkpt>
      <trkpt lat="43.97163" lon="2.2293">
        <ele>277</ele>
        <time>2021-02-25T13:55:05.421Z</time>
      </trkpt>
      <trkpt lat="43.97162" lon="2.22929">
        <ele>277</ele>
        <time>2021-02-25T13:55:06.421Z</time>
      </trkpt>
      <trkpt lat="43.97162" lon="2.22927">
        <ele>277</ele>
        <time>2021-02-25T13:55:07.421Z</time>
      </trkpt>
      <trkpt lat="43.97161" lon="2.22926">
        <ele>277</ele>
        <time>2021-02-25T13:55:08.421Z</time>
      </trkpt>
      <trkpt lat="43.97161" lon="2.22925">
        <ele>277</ele>
        <time>2021-02-25T13:55:09.421Z</time>
      </trkpt>
      <trkpt lat="43.9716" lon="2.22924">
        <ele>277</ele>
        <time>2021-02-25T13:55:10.421Z</time>
      </trkpt>
      <trkpt lat="43.97159" lon="2.22923">
        <ele>277</ele>
        <time>2021-02-25T13:55:11.421Z</time>
      </trkpt>
      <trkpt lat="43.97158" lon="2.22922">
        <ele>277</ele>
        <time>2021-02-25T13:55:12.421Z</time>
      </trkpt>
      <trkpt lat="43.97157" lon="2.22921">
        <ele>277</ele>
        <time>2021-02-25T13:55:13.421Z</time>
      </trkpt>
      <trkpt lat="43.97157" lon="2.2292">
        <ele>277</ele>
        <time>2021-02-25T13:55:14.421Z</time>
      </trkpt>
      <trkpt lat="43.97156" lon="2.22919">
        <ele>277</ele>
        <time>2021-02-25T13:55:15.421Z</time>
      </trkpt>
      <trkpt lat="43.97155" lon="2.22917">
        <ele>277</ele>
        <time>2021-02-25T13:55:16.421Z</time>
      </trkpt>
      <trkpt lat="43.97154" lon="2.22916">
        <ele>277</ele>
        <time>2021-02-25T13:55:17.421Z</time>
      </trkpt>
      <trkpt lat="43.97153" lon="2.22915">
        <ele>277</ele>
        <time>2021-02-25T13:55:18.421Z</time>
      </trkpt>
      <trkpt lat="43.97152" lon="2.22914">
        <ele>277</ele>
        <time>2021-02-25T13:55:19.421Z</time>
      </trkpt>
      <trkpt lat="43.97151" lon="2.22913">
        <ele>277</ele>
        <time>2021-02-25T13:55:20.421Z</time>
      </trkpt>
      <trkpt lat="43.9715" lon="2.22912">
        <ele>277</ele>
        <time>2021-02-25T13:55:21.421Z</time>
      </trkpt>
      <trkpt lat="43.97149" lon="2.22911">
        <ele>276</ele>
        <time>2021-02-25T13:55:22.421Z</time>
      </trkpt>
      <trkpt lat="43.97148" lon="2.2291">
        <ele>276</ele>
        <time>2021-02-25T13:55:23.421Z</time>
      </trkpt>
      <trkpt lat="43.97148" lon="2.2291">
        <ele>276</ele>
        <time>2021-02-25T13:55:24.421Z</time>
      </trkpt>
      <trkpt lat="43.97148" lon="2.2291">
        <ele>276</ele>
        <time>2021-02-25T13:55:25.421Z</time>
      </trkpt>
      <trkpt lat="43.97148" lon="2.2291">
        <ele>276</ele>
        <time>2021-02-25T13:55:26.421Z</time>
      </trkpt>
      <trkpt lat="43.97147" lon="2.2291">
        <ele>276</ele>
        <time>2021-02-25T13:55:27.421Z</time>
      </trkpt>
      <trkpt lat="43.97147" lon="2.22909">
        <ele>276</ele>
        <time>2021-02-25T13:55:28.421Z</time>
      </trkpt>
      <trkpt lat="43.97147" lon="2.22908">
        <ele>276</ele>
        <time>2021-02-25T13:55:29.421Z</time>
      </trkpt>
      <trkpt lat="43.97146" lon="2.22907">
        <ele>277</ele>
        <time>2021-02-25T13:55:30.421Z</time>
      </trkpt>
      <trkpt lat="43.97145" lon="2.22906">
        <ele>277</ele>
        <time>2021-02-25T13:55:31.421Z</time>
      </trkpt>
      <trkpt lat="43.97144" lon="2.22905">
        <ele>276</ele>
        <time>2021-02-25T13:55:32.421Z</time>
      </trkpt>
      <trkpt lat="43.97143" lon="2.22904">
        <ele>276</ele>
        <time>2021-02-25T13:55:33.421Z</time>
      </trkpt>
      <trkpt lat="43.97142" lon="2.22903">
        <ele>276</ele>
        <time>2021-02-25T13:55:34.421Z</time>
      </trkpt>
      <trkpt lat="43.97142" lon="2.22902">
        <ele>276</ele>
        <time>2021-02-25T13:55:35.421Z</time>
      </trkpt>
      <trkpt lat="43.97141" lon="2.22901">
        <ele>276</ele>
        <time>2021-02-25T13:55:36.421Z</time>
      </trkpt>
      <trkpt lat="43.9714" lon="2.229">
        <ele>276</ele>
        <time>2021-02-25T13:55:37.421Z</time>
      </trkpt>
      <trkpt lat="43.97139" lon="2.22899">
        <ele>276</ele>
        <time>2021-02-25T13:55:38.421Z</time>
      </trkpt>
      <trkpt lat="43.97138" lon="2.22898">
        <ele>276</ele>
        <time>2021-02-25T13:55:39.421Z</time>
      </trkpt>
      <trkpt lat="43.97137" lon="2.22897">
        <ele>276</ele>
        <time>2021-02-25T13:55:40.421Z</time>
      </trkpt>
      <trkpt lat="43.97137" lon="2.22896">
        <ele>276</ele>
        <time>2021-02-25T13:55:41.421Z</time>
      </trkpt>
      <trkpt lat="43.97137" lon="2.22896">
        <ele>276</ele>
        <time>2021-02-25T13:55:42.421Z</time>
      </trkpt>
      <trkpt lat="43.97137" lon="2.22896">
        <ele>276</ele>
        <time>2021-02-25T13:55:43.421Z</time>
      </trkpt>
      <trkpt lat="43.97137" lon="2.22896">
        <ele>276</ele>
        <time>2021-02-25T13:55:44.421Z</time>
      </trkpt>
      <trkpt lat="43.97137" lon="2.22896">
        <ele>276</ele>
        <time>2021-02-25T13:55:45.421Z</time>
      </trkpt>
      <trkpt lat="43.97136" lon="2.22896">
        <ele>276</ele>
        <time>2021-02-25T13:55:46.421Z</time>
      </trkpt>
      <trkpt lat="43.97135" lon="2.22895">
        <ele>276</ele>
        <time>2021-02-25T13:55:47.421Z</time>
      </trkpt>
      <trkpt lat="43.97134" lon="2.22895">
        <ele>276</ele>
        <time>2021-02-25T13:55:48.421Z</time>
      </trkpt>
      <trkpt lat="43.97133" lon="2.22894">
        <ele>276</ele>
        <time>2021-02-25T13:55:49.421Z</time>
      </trkpt>
      <trkpt lat="43.97132" lon="2.22893">
        <ele>276</ele>
        <time>2021-02-25T13:55:50.421Z</time>
      </trkpt>
      <trkpt lat="43.9713" lon="2.22892">
        <ele>276</ele>
        <time>2021-02-25T13:55:51.421Z</time>
      </trkpt>
      <trkpt lat="43.97129" lon="2.22891">
        <ele>276</ele>
        <time>2021-02-25T13:55:52.421Z</time>
      </trkpt>
      <trkpt lat="43.97128" lon="2.22891">
        <ele>276</ele>
        <time>2021-02-25T13:55:53.421Z</time>
      </trkpt>
      <trkpt lat="43.97127" lon="2.2289">
        <ele>276</ele>
        <time>2021-02-25T13:55:54.421Z</time>
      </trkpt>
      <trkpt lat="43.97126" lon="2.22889">
        <ele>276</ele>
        <time>2021-02-25T13:55:55.421Z</time>
      </trkpt>
      <trkpt lat="43.97125" lon="2.22888">
        <ele>276</ele>
        <time>2021-02-25T13:55:56.421Z</time>
      </trkpt>
      <trkpt lat="43.97124" lon="2.22887">
        <ele>276</ele>
        <time>2021-02-25T13:55:57.421Z</time>
      </trkpt>
      <trkpt lat="43.97123" lon="2.22887">
        <ele>276</ele>
        <time>2021-02-25T13:55:58.421Z</time>
      </trkpt>
      <trkpt lat="43.97122" lon="2.22886">
        <ele>276</ele>
        <time>2021-02-25T13:55:59.421Z</time>
      </trkpt>
      <trkpt lat="43.97121" lon="2.22885">
        <ele>276</ele>
        <time>2021-02-25T13:56:00.421Z</time>
      </trkpt>
      <trkpt lat="43.9712" lon="2.22884">
        <ele>276</ele>
        <time>2021-02-25T13:56:01.421Z</time>
      </trkpt>
      <trkpt lat="43.97119" lon="2.22883">
        <ele>276</ele>
        <time>2021-02-25T13:56:02.421Z</time>
      </trkpt>
      <trkpt lat="43.97118" lon="2.22882">
        <ele>275</ele>
        <time>2021-02-25T13:56:03.421Z</time>
      </trkpt>
      <trkpt lat="43.97117" lon="2.22881">
        <ele>276</ele>
        <time>2021-02-25T13:56:04.421Z</time>
      </trkpt>
      <trkpt lat="43.97116" lon="2.2288">
        <ele>276</ele>
        <time>2021-02-25T13:56:05.421Z</time>
      </trkpt>
      <trkpt lat="43.97115" lon="2.22879">
        <ele>276</ele>
        <time>2021-02-25T13:56:06.421Z</time>
      </trkpt>
      <trkpt lat="43.97114" lon="2.22878">
        <ele>276</ele>
        <time>2021-02-25T13:56:07.421Z</time>
      </trkpt>
      <trkpt lat="43.97113" lon="2.22877">
        <ele>276</ele>
        <time>2021-02-25T13:56:08.421Z</time>
      </trkpt>
      <trkpt lat="43.97112" lon="2.22875">
        <ele>275</ele>
        <time>2021-02-25T13:56:09.421Z</time>
      </trkpt>
      <trkpt lat="43.9711" lon="2.22874">
        <ele>275</ele>
        <time>2021-02-25T13:56:10.421Z</time>
      </trkpt>
      <trkpt lat="43.97109" lon="2.22873">
        <ele>275</ele>
        <time>2021-02-25T13:56:11.421Z</time>
      </trkpt>
      <trkpt lat="43.97109" lon="2.22872">
        <ele>275</ele>
        <time>2021-02-25T13:56:12.421Z</time>
      </trkpt>
      <trkpt lat="43.97108" lon="2.2287">
        <ele>275</ele>
        <time>2021-02-25T13:56:13.421Z</time>
      </trkpt>
      <trkpt lat="43.97107" lon="2.22869">
        <ele>275</ele>
        <time>2021-02-25T13:56:14.421Z</time>
      </trkpt>
      <trkpt lat="43.97106" lon="2.22868">
        <ele>275</ele>
        <time>2021-02-25T13:56:15.421Z</time>
      </trkpt>
      <trkpt lat="43.97105" lon="2.22866">
        <ele>275</ele>
        <time>2021-02-25T13:56:16.421Z</time>
      </trkpt>
      <trkpt lat="43.97104" lon="2.22865">
        <ele>275</ele>
        <time>2021-02-25T13:56:17.421Z</time>
      </trkpt>
      <trkpt lat="43.97103" lon="2.22864">
        <ele>275</ele>
        <time>2021-02-25T13:56:18.421Z</time>
      </trkpt>
      <trkpt lat="43.97102" lon="2.22862">
        <ele>275</ele>
        <time>2021-02-25T13:56:19.421Z</time>
      </trkpt>
      <trkpt lat="43.97101" lon="2.22861">
        <ele>275</ele>
        <time>2021-02-25T13:56:20.421Z</time>
      </trkpt>
      <trkpt lat="43.97101" lon="2.2286">
        <ele>275</ele>
        <time>2021-02-25T13:56:21.421Z</time>
      </trkpt>
      <trkpt lat="43.971" lon="2.22859">
        <ele>275</ele>
        <time>2021-02-25T13:56:22.421Z</time>
      </trkpt>
      <trkpt lat="43.97099" lon="2.22857">
        <ele>275</ele>
        <time>2021-02-25T13:56:23.421Z</time>
      </trkpt>
      <trkpt lat="43.97098" lon="2.22855">
        <ele>275</ele>
        <time>2021-02-25T13:56:24.421Z</time>
      </trkpt>
      <trkpt lat="43.97097" lon="2.22854">
        <ele>275</ele>
        <time>2021-02-25T13:56:25.421Z</time>
      </trkpt>
      <trkpt lat="43.97096" lon="2.22853">
        <ele>275</ele>
        <time>2021-02-25T13:56:26.421Z</time>
      </trkpt>
      <trkpt lat="43.97095" lon="2.22852">
        <ele>274</ele>
        <time>2021-02-25T13:56:27.421Z</time>
      </trkpt>
      <trkpt lat="43.97094" lon="2.22851">
        <ele>274</ele>
        <time>2021-02-25T13:56:28.421Z</time>
      </trkpt>
      <trkpt lat="43.97093" lon="2.2285">
        <ele>274</ele>
        <time>2021-02-25T13:56:29.421Z</time>
      </trkpt>
      <trkpt lat="43.97093" lon="2.22849">
        <ele>274</ele>
        <time>2021-02-25T13:56:30.421Z</time>
      </trkpt>
      <trkpt lat="43.97092" lon="2.22848">
        <ele>274</ele>
        <time>2021-02-25T13:56:31.421Z</time>
      </trkpt>
      <trkpt lat="43.97091" lon="2.22846">
        <ele>274</ele>
        <time>2021-02-25T13:56:32.421Z</time>
      </trkpt>
      <trkpt lat="43.97091" lon="2.22845">
        <ele>274</ele>
        <time>2021-02-25T13:56:33.421Z</time>
      </trkpt>
      <trkpt lat="43.9709" lon="2.22843">
        <ele>273</ele>
        <time>2021-02-25T13:56:34.421Z</time>
      </trkpt>
      <trkpt lat="43.97089" lon="2.22842">
        <ele>273</ele>
        <time>2021-02-25T13:56:35.421Z</time>
      </trkpt>
      <trkpt lat="43.97088" lon="2.2284">
        <ele>273</ele>
        <time>2021-02-25T13:56:36.421Z</time>
      </trkpt>
      <trkpt lat="43.97088" lon="2.22839">
        <ele>273</ele>
        <time>2021-02-25T13:56:37.421Z</time>
      </trkpt>
      <trkpt lat="43.97087" lon="2.22838">
        <ele>273</ele>
        <time>2021-02-25T13:56:38.421Z</time>
      </trkpt>
      <trkpt lat="43.97086" lon="2.22836">
        <ele>273</ele>
        <time>2021-02-25T13:56:39.421Z</time>
      </trkpt>
      <trkpt lat="43.97085" lon="2.22834">
        <ele>273</ele>
        <time>2021-02-25T13:56:40.421Z</time>
      </trkpt>
      <trkpt lat="43.97085" lon="2.22833">
        <ele>272</ele>
        <time>2021-02-25T13:56:41.421Z</time>
      </trkpt>
      <trkpt lat="43.97084" lon="2.22831">
        <ele>272</ele>
        <time>2021-02-25T13:56:42.421Z</time>
      </trkpt>
      <trkpt lat="43.97084" lon="2.2283">
        <ele>272</ele>
        <time>2021-02-25T13:56:43.421Z</time>
      </trkpt>
      <trkpt lat="43.97083" lon="2.22828">
        <ele>272</ele>
        <time>2021-02-25T13:56:44.421Z</time>
      </trkpt>
      <trkpt lat="43.97082" lon="2.22827">
        <ele>272</ele>
        <time>2021-02-25T13:56:45.421Z</time>
      </trkpt>
      <trkpt lat="43.97082" lon="2.22825">
        <ele>272</ele>
        <time>2021-02-25T13:56:46.421Z</time>
      </trkpt>
      <trkpt lat="43.97081" lon="2.22824">
        <ele>272</ele>
        <time>2021-02-25T13:56:47.421Z</time>
      </trkpt>
      <trkpt lat="43.9708" lon="2.22822">
        <ele>272</ele>
        <time>2021-02-25T13:56:48.421Z</time>
      </trkpt>
      <trkpt lat="43.9708" lon="2.22821">
        <ele>272</ele>
        <time>2021-02-25T13:56:49.421Z</time>
      </trkpt>
      <trkpt lat="43.97079" lon="2.22819">
        <ele>272</ele>
        <time>2021-02-25T13:56:50.421Z</time>
      </trkpt>
      <trkpt lat="43.97078" lon="2.22818">
        <ele>272</ele>
        <time>2021-02-25T13:56:51.421Z</time>
      </trkpt>
      <trkpt lat="43.97078" lon="2.22816">
        <ele>272</ele>
        <time>2021-02-25T13:56:52.421Z</time>
      </trkpt>
      <trkpt lat="43.97077" lon="2.22814">
        <ele>272</ele>
        <time>2021-02-25T13:56:53.421Z</time>
      </trkpt>
      <trkpt lat="43.97077" lon="2.22812">
        <ele>271</ele>
        <time>2021-02-25T13:56:54.421Z</time>
      </trkpt>
      <trkpt lat="43.97076" lon="2.22811">
        <ele>271</ele>
        <time>2021-02-25T13:56:55.421Z</time>
      </trkpt>
      <trkpt lat="43.97076" lon="2.22809">
        <ele>271</ele>
        <time>2021-02-25T13:56:56.421Z</time>
      </trkpt>
      <trkpt lat="43.97075" lon="2.22808">
        <ele>271</ele>
        <time>2021-02-25T13:56:57.421Z</time>
      </trkpt>
      <trkpt lat="43.97075" lon="2.22806">
        <ele>271</ele>
        <time>2021-02-25T13:56:58.421Z</time>
      </trkpt>
      <trkpt lat="43.97074" lon="2.22805">
        <ele>271</ele>
        <time>2021-02-25T13:56:59.421Z</time>
      </trkpt>
      <trkpt lat="43.97074" lon="2.22803">
        <ele>271</ele>
        <time>2021-02-25T13:57:00.421Z</time>
      </trkpt>
      <trkpt lat="43.97073" lon="2.22802">
        <ele>271</ele>
        <time>2021-02-25T13:57:01.421Z</time>
      </trkpt>
      <trkpt lat="43.97073" lon="2.228">
        <ele>271</ele>
        <time>2021-02-25T13:57:02.421Z</time>
      </trkpt>
      <trkpt lat="43.97072" lon="2.22798">
        <ele>271</ele>
        <time>2021-02-25T13:57:03.421Z</time>
      </trkpt>
      <trkpt lat="43.97071" lon="2.22796">
        <ele>271</ele>
        <time>2021-02-25T13:57:04.421Z</time>
      </trkpt>
      <trkpt lat="43.97071" lon="2.22795">
        <ele>270</ele>
        <time>2021-02-25T13:57:05.421Z</time>
      </trkpt>
      <trkpt lat="43.9707" lon="2.22793">
        <ele>270</ele>
        <time>2021-02-25T13:57:06.421Z</time>
      </trkpt>
      <trkpt lat="43.97069" lon="2.22792">
        <ele>270</ele>
        <time>2021-02-25T13:57:07.421Z</time>
      </trkpt>
      <trkpt lat="43.97069" lon="2.22791">
        <ele>270</ele>
        <time>2021-02-25T13:57:08.421Z</time>
      </trkpt>
      <trkpt lat="43.97068" lon="2.22789">
        <ele>270</ele>
        <time>2021-02-25T13:57:09.421Z</time>
      </trkpt>
      <trkpt lat="43.97068" lon="2.22787">
        <ele>270</ele>
        <time>2021-02-25T13:57:10.421Z</time>
      </trkpt>
      <trkpt lat="43.97067" lon="2.22785">
        <ele>270</ele>
        <time>2021-02-25T13:57:11.421Z</time>
      </trkpt>
      <trkpt lat="43.97066" lon="2.22784">
        <ele>269</ele>
        <time>2021-02-25T13:57:12.421Z</time>
      </trkpt>
      <trkpt lat="43.97065" lon="2.22782">
        <ele>269</ele>
        <time>2021-02-25T13:57:13.421Z</time>
      </trkpt>
      <trkpt lat="43.97065" lon="2.2278">
        <ele>269</ele>
        <time>2021-02-25T13:57:14.421Z</time>
      </trkpt>
      <trkpt lat="43.97064" lon="2.22779">
        <ele>269</ele>
        <time>2021-02-25T13:57:15.421Z</time>
      </trkpt>
      <trkpt lat="43.97063" lon="2.22777">
        <ele>269</ele>
        <time>2021-02-25T13:57:16.421Z</time>
      </trkpt>
      <trkpt lat="43.97063" lon="2.22776">
        <ele>269</ele>
        <time>2021-02-25T13:57:17.421Z</time>
      </trkpt>
      <trkpt lat="43.97062" lon="2.22774">
        <ele>269</ele>
        <time>2021-02-25T13:57:18.421Z</time>
      </trkpt>
      <trkpt lat="43.97061" lon="2.22773">
        <ele>269</ele>
        <time>2021-02-25T13:57:19.421Z</time>
      </trkpt>
      <trkpt lat="43.97061" lon="2.22771">
        <ele>268</ele>
        <time>2021-02-25T13:57:20.421Z</time>
      </trkpt>
      <trkpt lat="43.9706" lon="2.22769">
        <ele>268</ele>
        <time>2021-02-25T13:57:21.421Z</time>
      </trkpt>
      <trkpt lat="43.97059" lon="2.22768">
        <ele>268</ele>
        <time>2021-02-25T13:57:22.421Z</time>
      </trkpt>
      <trkpt lat="43.97058" lon="2.22766">
        <ele>268</ele>
        <time>2021-02-25T13:57:23.421Z</time>
      </trkpt>
      <trkpt lat="43.97057" lon="2.22765">
        <ele>268</ele>
        <time>2021-02-25T13:57:24.421Z</time>
      </trkpt>
      <trkpt lat="43.97057" lon="2.22763">
        <ele>268</ele>
        <time>2021-02-25T13:57:25.421Z</time>
      </trkpt>
      <trkpt lat="43.97056" lon="2.22762">
        <ele>267</ele>
        <time>2021-02-25T13:57:26.421Z</time>
      </trkpt>
      <trkpt lat="43.97055" lon="2.22761">
        <ele>267</ele>
        <time>2021-02-25T13:57:27.421Z</time>
      </trkpt>
      <trkpt lat="43.97054" lon="2.22759">
        <ele>267</ele>
        <time>2021-02-25T13:57:28.421Z</time>
      </trkpt>
      <trkpt lat="43.97054" lon="2.22758">
        <ele>267</ele>
        <time>2021-02-25T13:57:29.421Z</time>
      </trkpt>
      <trkpt lat="43.97053" lon="2.22756">
        <ele>267</ele>
        <time>2021-02-25T13:57:30.421Z</time>
      </trkpt>
      <trkpt lat="43.97052" lon="2.22755">
        <ele>267</ele>
        <time>2021-02-25T13:57:31.421Z</time>
      </trkpt>
      <trkpt lat="43.97051" lon="2.22754">
        <ele>266</ele>
        <time>2021-02-25T13:57:32.421Z</time>
      </trkpt>
      <trkpt lat="43.97051" lon="2.22752">
        <ele>266</ele>
        <time>2021-02-25T13:57:33.421Z</time>
      </trkpt>
      <trkpt lat="43.9705" lon="2.22751">
        <ele>266</ele>
        <time>2021-02-25T13:58:21.428Z</time>
      </trkpt>
      <trkpt lat="43.97049" lon="2.22749">
        <ele>266</ele>
        <time>2021-02-25T13:58:22.428Z</time>
      </trkpt>
      <trkpt lat="43.97048" lon="2.22748">
        <ele>266</ele>
        <time>2021-02-25T13:58:23.428Z</time>
      </trkpt>
      <trkpt lat="43.97047" lon="2.22747">
        <ele>266</ele>
        <time>2021-02-25T13:58:24.428Z</time>
      </trkpt>
      <trkpt lat="43.97046" lon="2.22745">
        <ele>266</ele>
        <time>2021-02-25T13:58:25.428Z</time>
      </trkpt>
      <trkpt lat="43.97045" lon="2.22744">
        <ele>266</ele>
        <time>2021-02-25T13:58:26.428Z</time>
      </trkpt>
      <trkpt lat="43.97044" lon="2.22743">
        <ele>266</ele>
        <time>2021-02-25T13:58:27.428Z</time>
      </trkpt>
      <trkpt lat="43.97043" lon="2.22742">
        <ele>266</ele>
        <time>2021-02-25T13:58:28.428Z</time>
      </trkpt>
      <trkpt lat="43.97043" lon="2.2274">
        <ele>265</ele>
        <time>2021-02-25T13:58:29.428Z</time>
      </trkpt>
      <trkpt lat="43.97042" lon="2.22739">
        <ele>265</ele>
        <time>2021-02-25T13:58:30.428Z</time>
      </trkpt>
      <trkpt lat="43.97041" lon="2.22738">
        <ele>265</ele>
        <time>2021-02-25T13:58:31.428Z</time>
      </trkpt>
      <trkpt lat="43.9704" lon="2.22736">
        <ele>265</ele>
        <time>2021-02-25T13:58:32.428Z</time>
      </trkpt>
      <trkpt lat="43.97039" lon="2.22735">
        <ele>265</ele>
        <time>2021-02-25T13:58:33.428Z</time>
      </trkpt>
      <trkpt lat="43.97038" lon="2.22733">
        <ele>265</ele>
        <time>2021-02-25T13:58:34.428Z</time>
      </trkpt>
      <trkpt lat="43.97037" lon="2.22732">
        <ele>265</ele>
        <time>2021-02-25T13:58:35.428Z</time>
      </trkpt>
      <trkpt lat="43.97036" lon="2.2273">
        <ele>265</ele>
        <time>2021-02-25T13:58:36.428Z</time>
      </trkpt>
      <trkpt lat="43.97035" lon="2.22729">
        <ele>265</ele>
        <time>2021-02-25T13:58:37.428Z</time>
      </trkpt>
      <trkpt lat="43.97034" lon="2.22728">
        <ele>264</ele>
        <time>2021-02-25T13:58:38.428Z</time>
      </trkpt>
      <trkpt lat="43.97034" lon="2.22726">
        <ele>264</ele>
        <time>2021-02-25T13:58:39.428Z</time>
      </trkpt>
      <trkpt lat="43.97033" lon="2.22725">
        <ele>264</ele>
        <time>2021-02-25T13:58:40.428Z</time>
      </trkpt>
      <trkpt lat="43.97032" lon="2.22723">
        <ele>264</ele>
        <time>2021-02-25T13:59:13.419Z</time>
      </trkpt>
      <trkpt lat="43.97031" lon="2.22722">
        <ele>264</ele>
        <time>2021-02-25T13:59:14.419Z</time>
      </trkpt>
      <trkpt lat="43.97031" lon="2.2272">
        <ele>264</ele>
        <time>2021-02-25T13:59:15.419Z</time>
      </trkpt>
      <trkpt lat="43.9703" lon="2.22718">
        <ele>264</ele>
        <time>2021-02-25T13:59:16.419Z</time>
      </trkpt>
      <trkpt lat="43.9703" lon="2.22716">
        <ele>263</ele>
        <time>2021-02-25T13:59:17.419Z</time>
      </trkpt>
      <trkpt lat="43.97029" lon="2.22715">
        <ele>263</ele>
        <time>2021-02-25T13:59:18.419Z</time>
      </trkpt>
      <trkpt lat="43.97029" lon="2.22713">
        <ele>263</ele>
        <time>2021-02-25T13:59:19.419Z</time>
      </trkpt>
      <trkpt lat="43.97028" lon="2.22712">
        <ele>263</ele>
        <time>2021-02-25T13:59:20.419Z</time>
      </trkpt>
      <trkpt lat="43.97028" lon="2.22711">
        <ele>263</ele>
        <time>2021-02-25T13:59:21.419Z</time>
      </trkpt>
      <trkpt lat="43.97027" lon="2.22709">
        <ele>263</ele>
        <time>2021-02-25T13:59:22.419Z</time>
      </trkpt>
      <trkpt lat="43.97027" lon="2.22707">
        <ele>263</ele>
        <time>2021-02-25T13:59:23.419Z</time>
      </trkpt>
      <trkpt lat="43.97027" lon="2.22706">
        <ele>263</ele>
        <time>2021-02-25T13:59:24.419Z</time>
      </trkpt>
      <trkpt lat="43.97026" lon="2.22704">
        <ele>263</ele>
        <time>2021-02-25T13:59:25.419Z</time>
      </trkpt>
      <trkpt lat="43.97026" lon="2.22702">
        <ele>263</ele>
        <time>2021-02-25T13:59:26.419Z</time>
      </trkpt>
      <trkpt lat="43.97026" lon="2.22701">
        <ele>263</ele>
        <time>2021-02-25T13:59:27.419Z</time>
      </trkpt>
      <trkpt lat="43.97025" lon="2.22699">
        <ele>263</ele>
        <time>2021-02-25T13:59:28.419Z</time>
      </trkpt>
      <trkpt lat="43.97025" lon="2.22698">
        <ele>263</ele>
        <time>2021-02-25T13:59:29.419Z</time>
      </trkpt>
      <trkpt lat="43.97025" lon="2.22696">
        <ele>263</ele>
        <time>2021-02-25T13:59:30.419Z</time>
      </trkpt>
      <trkpt lat="43.97025" lon="2.22694">
        <ele>263</ele>
        <time>2021-02-25T13:59:31.419Z</time>
      </trkpt>
      <trkpt lat="43.97025" lon="2.22693">
        <ele>263</ele>
        <time>2021-02-25T13:59:32.419Z</time>
      </trkpt>
      <trkpt lat="43.97024" lon="2.22691">
        <ele>263</ele>
        <time>2021-02-25T13:59:33.419Z</time>
      </trkpt>
      <trkpt lat="43.97024" lon="2.22689">
        <ele>263</ele>
        <time>2021-02-25T13:59:34.419Z</time>
      </trkpt>
      <trkpt lat="43.97024" lon="2.22687">
        <ele>263</ele>
        <time>2021-02-25T13:59:35.419Z</time>
      </trkpt>
      <trkpt lat="43.97024" lon="2.22686">
        <ele>263</ele>
        <time>2021-02-25T13:59:38.664Z</time>
      </trkpt>
      <trkpt lat="43.97024" lon="2.22684">
        <ele>263</ele>
        <time>2021-02-25T13:59:39.664Z</time>
      </trkpt>
      <trkpt lat="43.97024" lon="2.22683">
        <ele>263</ele>
        <time>2021-02-25T13:59:40.664Z</time>
      </trkpt>
      <trkpt lat="43.97024" lon="2.22681">
        <ele>262</ele>
        <time>2021-02-25T13:59:41.664Z</time>
      </trkpt>
      <trkpt lat="43.97024" lon="2.22679">
        <ele>262</ele>
        <time>2021-02-25T13:59:42.664Z</time>
      </trkpt>
      <trkpt lat="43.97024" lon="2.22677">
        <ele>262</ele>
        <time>2021-02-25T13:59:43.664Z</time>
      </trkpt>
      <trkpt lat="43.97024" lon="2.22675">
        <ele>262</ele>
        <time>2021-02-25T13:59:44.664Z</time>
      </trkpt>
      <trkpt lat="43.97024" lon="2.22673">
        <ele>262</ele>
        <time>2021-02-25T13:59:45.664Z</time>
      </trkpt>
      <trkpt lat="43.97024" lon="2.22671">
        <ele>262</ele>
        <time>2021-02-25T13:59:46.664Z</time>
      </trkpt>
      <trkpt lat="43.97024" lon="2.22669">
        <ele>262</ele>
        <time>2021-02-25T13:59:47.664Z</time>
      </trkpt>
      <trkpt lat="43.97024" lon="2.22667">
        <ele>262</ele>
        <time>2021-02-25T13:59:48.664Z</time>
      </trkpt>
      <trkpt lat="43.97025" lon="2.22666">
        <ele>262</ele>
        <time>2021-02-25T13:59:49.664Z</time>
      </trkpt>
      <trkpt lat="43.97025" lon="2.22664">
        <ele>262</ele>
        <time>2021-02-25T14:00:33.669Z</time>
      </trkpt>
      <trkpt lat="43.97025" lon="2.22662">
        <ele>262</ele>
        <time>2021-02-25T14:00:34.669Z</time>
      </trkpt>
      <trkpt lat="43.97025" lon="2.2266">
        <ele>262</ele>
        <time>2021-02-25T14:00:35.669Z</time>
      </trkpt>
      <trkpt lat="43.97025" lon="2.22658">
        <ele>262</ele>
        <time>2021-02-25T14:00:36.669Z</time>
      </trkpt>
      <trkpt lat="43.97026" lon="2.22656">
        <ele>262</ele>
        <time>2021-02-25T14:00:37.669Z</time>
      </trkpt>
      <trkpt lat="43.97026" lon="2.22654">
        <ele>261</ele>
        <time>2021-02-25T14:00:38.669Z</time>
      </trkpt>
      <trkpt lat="43.97026" lon="2.22653">
        <ele>261</ele>
        <time>2021-02-25T14:00:39.669Z</time>
      </trkpt>
      <trkpt lat="43.97026" lon="2.22651">
        <ele>261</ele>
        <time>2021-02-25T14:00:40.669Z</time>
      </trkpt>
      <trkpt lat="43.97026" lon="2.2265">
        <ele>261</ele>
        <time>2021-02-25T14:00:41.669Z</time>
      </trkpt>
      <trkpt lat="43.97026" lon="2.22648">
        <ele>261</ele>
        <time>2021-02-25T14:00:42.669Z</time>
      </trkpt>
      <trkpt lat="43.97026" lon="2.22646">
        <ele>261</ele>
        <time>2021-02-25T14:00:43.669Z</time>
      </trkpt>
      <trkpt lat="43.97026" lon="2.22644">
        <ele>261</ele>
        <time>2021-02-25T14:00:44.669Z</time>
      </trkpt>
      <trkpt lat="43.97026" lon="2.22642">
        <ele>261</ele>
        <time>2021-02-25T14:00:45.669Z</time>
      </trkpt>
      <trkpt lat="43.97026" lon="2.2264">
        <ele>261</ele>
        <time>2021-02-25T14:00:46.669Z</time>
      </trkpt>
      <trkpt lat="43.97026" lon="2.22638">
        <ele>261</ele>
        <time>2021-02-25T14:00:47.669Z</time>
      </trkpt>
      <trkpt lat="43.97026" lon="2.22636">
        <ele>261</ele>
        <time>2021-02-25T14:00:48.669Z</time>
      </trkpt>
      <trkpt lat="43.97026" lon="2.22634">
        <ele>262</ele>
        <time>2021-02-25T14:00:49.669Z</time>
      </trkpt>
      <trkpt lat="43.97026" lon="2.22632">
        <ele>262</ele>
        <time>2021-02-25T14:00:54.674Z</time>
      </trkpt>
      <trkpt lat="43.97025" lon="2.2263">
        <ele>262</ele>
        <time>2021-02-25T14:00:55.674Z</time>
      </trkpt>
      <trkpt lat="43.97025" lon="2.22629">
        <ele>262</ele>
        <time>2021-02-25T14:00:56.674Z</time>
      </trkpt>
      <trkpt lat="43.97025" lon="2.22627">
        <ele>262</ele>
        <time>2021-02-25T14:00:57.674Z</time>
      </trkpt>
      <trkpt lat="43.97025" lon="2.22625">
        <ele>262</ele>
        <time>2021-02-25T14:00:58.674Z</time>
      </trkpt>
      <trkpt lat="43.97025" lon="2.22624">
        <ele>262</ele>
        <time>2021-02-25T14:00:59.674Z</time>
      </trkpt>
      <trkpt lat="43.97025" lon="2.22622">
        <ele>262</ele>
        <time>2021-02-25T14:01:00.674Z</time>
      </trkpt>
      <trkpt lat="43.97025" lon="2.2262">
        <ele>262</ele>
        <time>2021-02-25T14:01:01.674Z</time>
      </trkpt>
      <trkpt lat="43.97025" lon="2.22618">
        <ele>262</ele>
        <time>2021-02-25T14:01:02.674Z</time>
      </trkpt>
      <trkpt lat="43.97025" lon="2.22616">
        <ele>262</ele>
        <time>2021-02-25T14:01:03.674Z</time>
      </trkpt>
      <trkpt lat="43.97025" lon="2.22614">
        <ele>262</ele>
        <time>2021-02-25T14:01:04.674Z</time>
      </trkpt>
      <trkpt lat="43.97024" lon="2.22613">
        <ele>262</ele>
        <time>2021-02-25T14:01:05.674Z</time>
      </trkpt>
      <trkpt lat="43.97024" lon="2.22611">
        <ele>261</ele>
        <time>2021-02-25T14:01:06.674Z</time>
      </trkpt>
      <trkpt lat="43.97023" lon="2.22609">
        <ele>261</ele>
        <time>2021-02-25T14:01:07.674Z</time>
      </trkpt>
      <trkpt lat="43.97023" lon="2.22608">
        <ele>261</ele>
        <time>2021-02-25T14:01:08.674Z</time>
      </trkpt>
      <trkpt lat="43.97022" lon="2.22606">
        <ele>261</ele>
        <time>2021-02-25T14:01:09.674Z</time>
      </trkpt>
      <trkpt lat="43.97022" lon="2.22605">
        <ele>261</ele>
        <time>2021-02-25T14:01:10.674Z</time>
      </trkpt>
      <trkpt lat="43.97021" lon="2.22603">
        <ele>261</ele>
        <time>2021-02-25T14:01:11.674Z</time>
      </trkpt>
      <trkpt lat="43.97021" lon="2.22601">
        <ele>261</ele>
        <time>2021-02-25T14:01:12.674Z</time>
      </trkpt>
      <trkpt lat="43.9702" lon="2.226">
        <ele>260</ele>
        <time>2021-02-25T14:01:13.674Z</time>
      </trkpt>
      <trkpt lat="43.97019" lon="2.22599">
        <ele>260</ele>
        <time>2021-02-25T14:01:14.674Z</time>
      </trkpt>
      <trkpt lat="43.97018" lon="2.22598">
        <ele>260</ele>
        <time>2021-02-25T14:01:15.674Z</time>
      </trkpt>
      <trkpt lat="43.97017" lon="2.22597">
        <ele>260</ele>
        <time>2021-02-25T14:01:16.674Z</time>
      </trkpt>
      <trkpt lat="43.97017" lon="2.22597">
        <ele>260</ele>
        <time>2021-02-25T14:01:17.674Z</time>
      </trkpt>
      <trkpt lat="43.97016" lon="2.22596">
        <ele>260</ele>
        <time>2021-02-25T14:01:18.674Z</time>
      </trkpt>
      <trkpt lat="43.97014" lon="2.22595">
        <ele>259</ele>
        <time>2021-02-25T14:01:19.674Z</time>
      </trkpt>
      <trkpt lat="43.97013" lon="2.22594">
        <ele>259</ele>
        <time>2021-02-25T14:01:20.674Z</time>
      </trkpt>
      <trkpt lat="43.97012" lon="2.22593">
        <ele>259</ele>
        <time>2021-02-25T14:01:35.665Z</time>
      </trkpt>
      <trkpt lat="43.97011" lon="2.22592">
        <ele>259</ele>
        <time>2021-02-25T14:01:36.665Z</time>
      </trkpt>
      <trkpt lat="43.9701" lon="2.22592">
        <ele>259</ele>
        <time>2021-02-25T14:01:37.665Z</time>
      </trkpt>
      <trkpt lat="43.97009" lon="2.22591">
        <ele>259</ele>
        <time>2021-02-25T14:01:38.665Z</time>
      </trkpt>
      <trkpt lat="43.97008" lon="2.22591">
        <ele>259</ele>
        <time>2021-02-25T14:01:39.665Z</time>
      </trkpt>
      <trkpt lat="43.97007" lon="2.2259">
        <ele>258</ele>
        <time>2021-02-25T14:01:40.665Z</time>
      </trkpt>
      <trkpt lat="43.97006" lon="2.22589">
        <ele>258</ele>
        <time>2021-02-25T14:01:41.665Z</time>
      </trkpt>
      <trkpt lat="43.97005" lon="2.22589">
        <ele>258</ele>
        <time>2021-02-25T14:01:42.665Z</time>
      </trkpt>
      <trkpt lat="43.97003" lon="2.22588">
        <ele>258</ele>
        <time>2021-02-25T14:01:43.665Z</time>
      </trkpt>
      <trkpt lat="43.97002" lon="2.22588">
        <ele>258</ele>
        <time>2021-02-25T14:01:44.665Z</time>
      </trkpt>
      <trkpt lat="43.97" lon="2.22587">
        <ele>257</ele>
        <time>2021-02-25T14:01:45.665Z</time>
      </trkpt>
      <trkpt lat="43.96999" lon="2.22586">
        <ele>257</ele>
        <time>2021-02-25T14:01:46.665Z</time>
      </trkpt>
      <trkpt lat="43.96998" lon="2.22585">
        <ele>257</ele>
        <time>2021-02-25T14:01:47.665Z</time>
      </trkpt>
      <trkpt lat="43.96997" lon="2.22585">
        <ele>257</ele>
        <time>2021-02-25T14:01:48.665Z</time>
      </trkpt>
      <trkpt lat="43.96996" lon="2.22584">
        <ele>257</ele>
        <time>2021-02-25T14:01:49.665Z</time>
      </trkpt>
      <trkpt lat="43.96995" lon="2.22583">
        <ele>256</ele>
        <time>2021-02-25T14:01:50.665Z</time>
      </trkpt>
      <trkpt lat="43.96993" lon="2.22582">
        <ele>256</ele>
        <time>2021-02-25T14:01:51.665Z</time>
      </trkpt>
      <trkpt lat="43.96992" lon="2.22581">
        <ele>256</ele>
        <time>2021-02-25T14:01:52.665Z</time>
      </trkpt>
      <trkpt lat="43.96991" lon="2.22581">
        <ele>256</ele>
        <time>2021-02-25T14:01:53.665Z</time>
      </trkpt>
      <trkpt lat="43.9699" lon="2.22579">
        <ele>256</ele>
        <time>2021-02-25T14:01:54.665Z</time>
      </trkpt>
      <trkpt lat="43.96989" lon="2.22578">
        <ele>256</ele>
        <time>2021-02-25T14:01:55.665Z</time>
      </trkpt>
      <trkpt lat="43.96988" lon="2.22577">
        <ele>255</ele>
        <time>2021-02-25T14:01:56.665Z</time>
      </trkpt>
      <trkpt lat="43.96987" lon="2.22576">
        <ele>255</ele>
        <time>2021-02-25T14:01:57.665Z</time>
      </trkpt>
      <trkpt lat="43.96986" lon="2.22575">
        <ele>255</ele>
        <time>2021-02-25T14:01:58.665Z</time>
      </trkpt>
      <trkpt lat="43.96985" lon="2.22574">
        <ele>255</ele>
        <time>2021-02-25T14:01:59.665Z</time>
      </trkpt>
      <trkpt lat="43.96984" lon="2.22573">
        <ele>255</ele>
        <time>2021-02-25T14:02:00.665Z</time>
      </trkpt>
      <trkpt lat="43.96983" lon="2.22572">
        <ele>255</ele>
        <time>2021-02-25T14:02:01.665Z</time>
      </trkpt>
      <trkpt lat="43.96982" lon="2.22571">
        <ele>255</ele>
        <time>2021-02-25T14:02:02.665Z</time>
      </trkpt>
      <trkpt lat="43.96981" lon="2.22569">
        <ele>255</ele>
        <time>2021-02-25T14:02:03.665Z</time>
      </trkpt>
      <trkpt lat="43.9698" lon="2.22568">
        <ele>255</ele>
        <time>2021-02-25T14:02:04.665Z</time>
      </trkpt>
      <trkpt lat="43.96979" lon="2.22567">
        <ele>255</ele>
        <time>2021-02-25T14:02:05.665Z</time>
      </trkpt>
      <trkpt lat="43.96978" lon="2.22566">
        <ele>254</ele>
        <time>2021-02-25T14:02:06.665Z</time>
      </trkpt>
      <trkpt lat="43.96978" lon="2.22565">
        <ele>254</ele>
        <time>2021-02-25T14:02:07.665Z</time>
      </trkpt>
      <trkpt lat="43.96977" lon="2.22564">
        <ele>254</ele>
        <time>2021-02-25T14:03:32.672Z</time>
      </trkpt>
      <trkpt lat="43.96976" lon="2.22563">
        <ele>254</ele>
        <time>2021-02-25T14:03:33.672Z</time>
      </trkpt>
      <trkpt lat="43.96975" lon="2.22561">
        <ele>254</ele>
        <time>2021-02-25T14:03:34.672Z</time>
      </trkpt>
      <trkpt lat="43.96974" lon="2.2256">
        <ele>254</ele>
        <time>2021-02-25T14:03:35.672Z</time>
      </trkpt>
      <trkpt lat="43.96974" lon="2.22558">
        <ele>254</ele>
        <time>2021-02-25T14:03:36.672Z</time>
      </trkpt>
      <trkpt lat="43.96973" lon="2.22557">
        <ele>254</ele>
        <time>2021-02-25T14:03:37.672Z</time>
      </trkpt>
      <trkpt lat="43.96972" lon="2.22556">
        <ele>253</ele>
        <time>2021-02-25T14:03:38.672Z</time>
      </trkpt>
      <trkpt lat="43.96972" lon="2.22554">
        <ele>253</ele>
        <time>2021-02-25T14:03:39.672Z</time>
      </trkpt>
      <trkpt lat="43.96971" lon="2.22553">
        <ele>253</ele>
        <time>2021-02-25T14:03:40.672Z</time>
      </trkpt>
      <trkpt lat="43.96971" lon="2.22552">
        <ele>253</ele>
        <time>2021-02-25T14:03:41.672Z</time>
      </trkpt>
      <trkpt lat="43.96971" lon="2.2255">
        <ele>253</ele>
        <time>2021-02-25T14:03:42.672Z</time>
      </trkpt>
      <trkpt lat="43.9697" lon="2.22549">
        <ele>253</ele>
        <time>2021-02-25T14:03:43.672Z</time>
      </trkpt>
      <trkpt lat="43.9697" lon="2.22548">
        <ele>253</ele>
        <time>2021-02-25T14:03:44.672Z</time>
      </trkpt>
      <trkpt lat="43.96969" lon="2.22546">
        <ele>253</ele>
        <time>2021-02-25T14:03:45.672Z</time>
      </trkpt>
      <trkpt lat="43.96969" lon="2.22545">
        <ele>252</ele>
        <time>2021-02-25T14:03:46.672Z</time>
      </trkpt>
      <trkpt lat="43.96968" lon="2.22543">
        <ele>252</ele>
        <time>2021-02-25T14:03:47.672Z</time>
      </trkpt>
      <trkpt lat="43.96968" lon="2.22541">
        <ele>252</ele>
        <time>2021-02-25T14:03:48.672Z</time>
      </trkpt>
      <trkpt lat="43.96967" lon="2.2254">
        <ele>252</ele>
        <time>2021-02-25T14:03:49.672Z</time>
      </trkpt>
      <trkpt lat="43.96967" lon="2.22538">
        <ele>252</ele>
        <time>2021-02-25T14:03:50.672Z</time>
      </trkpt>
      <trkpt lat="43.96967" lon="2.22537">
        <ele>252</ele>
        <time>2021-02-25T14:03:51.672Z</time>
      </trkpt>
      <trkpt lat="43.96967" lon="2.22535">
        <ele>252</ele>
        <time>2021-02-25T14:03:52.672Z</time>
      </trkpt>
      <trkpt lat="43.96966" lon="2.22533">
        <ele>252</ele>
        <time>2021-02-25T14:03:53.672Z</time>
      </trkpt>
      <trkpt lat="43.96966" lon="2.22532">
        <ele>252</ele>
        <time>2021-02-25T14:03:54.672Z</time>
      </trkpt>
      <trkpt lat="43.96966" lon="2.2253">
        <ele>251</ele>
        <time>2021-02-25T14:03:55.672Z</time>
      </trkpt>
      <trkpt lat="43.96965" lon="2.22528">
        <ele>251</ele>
        <time>2021-02-25T14:03:56.672Z</time>
      </trkpt>
      <trkpt lat="43.96965" lon="2.22527">
        <ele>251</ele>
        <time>2021-02-25T14:03:57.672Z</time>
      </trkpt>
      <trkpt lat="43.96965" lon="2.22525">
        <ele>251</ele>
        <time>2021-02-25T14:03:58.672Z</time>
      </trkpt>
      <trkpt lat="43.96964" lon="2.22523">
        <ele>251</ele>
        <time>2021-02-25T14:03:59.672Z</time>
      </trkpt>
      <trkpt lat="43.96964" lon="2.22521">
        <ele>251</ele>
        <time>2021-02-25T14:04:00.672Z</time>
      </trkpt>
      <trkpt lat="43.96964" lon="2.2252">
        <ele>251</ele>
        <time>2021-02-25T14:04:04.681Z</time>
      </trkpt>
      <trkpt lat="43.96963" lon="2.22518">
        <ele>251</ele>
        <time>2021-02-25T14:04:05.681Z</time>
      </trkpt>
      <trkpt lat="43.96963" lon="2.22516">
        <ele>251</ele>
        <time>2021-02-25T14:04:08.927Z</time>
      </trkpt>
      <trkpt lat="43.96963" lon="2.22515">
        <ele>251</ele>
        <time>2021-02-25T14:04:09.927Z</time>
      </trkpt>
      <trkpt lat="43.96963" lon="2.22513">
        <ele>251</ele>
        <time>2021-02-25T14:04:10.927Z</time>
      </trkpt>
      <trkpt lat="43.96963" lon="2.22511">
        <ele>251</ele>
        <time>2021-02-25T14:04:11.927Z</time>
      </trkpt>
      <trkpt lat="43.96963" lon="2.2251">
        <ele>251</ele>
        <time>2021-02-25T14:04:12.927Z</time>
      </trkpt>
      <trkpt lat="43.96963" lon="2.22508">
        <ele>250</ele>
        <time>2021-02-25T14:04:13.927Z</time>
      </trkpt>
      <trkpt lat="43.96963" lon="2.22507">
        <ele>250</ele>
        <time>2021-02-25T14:04:14.927Z</time>
      </trkpt>
      <trkpt lat="43.96963" lon="2.22505">
        <ele>250</ele>
        <time>2021-02-25T14:04:29.935Z</time>
      </trkpt>
      <trkpt lat="43.96963" lon="2.22503">
        <ele>250</ele>
        <time>2021-02-25T14:04:30.935Z</time>
      </trkpt>
      <trkpt lat="43.96962" lon="2.22501">
        <ele>250</ele>
        <time>2021-02-25T14:04:31.935Z</time>
      </trkpt>
      <trkpt lat="43.96962" lon="2.225">
        <ele>250</ele>
        <time>2021-02-25T14:04:32.935Z</time>
      </trkpt>
      <trkpt lat="43.96962" lon="2.22498">
        <ele>250</ele>
        <time>2021-02-25T14:04:33.935Z</time>
      </trkpt>
      <trkpt lat="43.96962" lon="2.22497">
        <ele>250</ele>
        <time>2021-02-25T14:04:34.935Z</time>
      </trkpt>
      <trkpt lat="43.96962" lon="2.22495">
        <ele>250</ele>
        <time>2021-02-25T14:05:04.944Z</time>
      </trkpt>
      <trkpt lat="43.96962" lon="2.22494">
        <ele>250</ele>
        <time>2021-02-25T14:05:05.944Z</time>
      </trkpt>
      <trkpt lat="43.96963" lon="2.22492">
        <ele>250</ele>
        <time>2021-02-25T14:05:06.944Z</time>
      </trkpt>
      <trkpt lat="43.96963" lon="2.2249">
        <ele>250</ele>
        <time>2021-02-25T14:05:07.944Z</time>
      </trkpt>
      <trkpt lat="43.96963" lon="2.22489">
        <ele>250</ele>
        <time>2021-02-25T14:05:08.944Z</time>
      </trkpt>
      <trkpt lat="43.96963" lon="2.22487">
        <ele>250</ele>
        <time>2021-02-25T14:05:09.944Z</time>
      </trkpt>
      <trkpt lat="43.96963" lon="2.22486">
        <ele>249</ele>
        <time>2021-02-25T14:05:10.944Z</time>
      </trkpt>
      <trkpt lat="43.96964" lon="2.22485">
        <ele>249</ele>
        <time>2021-02-25T14:05:11.944Z</time>
      </trkpt>
      <trkpt lat="43.96964" lon="2.22483">
        <ele>249</ele>
        <time>2021-02-25T14:05:12.944Z</time>
      </trkpt>
      <trkpt lat="43.96964" lon="2.22482">
        <ele>249</ele>
        <time>2021-02-25T14:05:13.944Z</time>
      </trkpt>
      <trkpt lat="43.96964" lon="2.22481">
        <ele>249</ele>
        <time>2021-02-25T14:05:14.944Z</time>
      </trkpt>
      <trkpt lat="43.96965" lon="2.22479">
        <ele>249</ele>
        <time>2021-02-25T14:05:15.944Z</time>
      </trkpt>
      <trkpt lat="43.96965" lon="2.22478">
        <ele>249</ele>
        <time>2021-02-25T14:05:19.188Z</time>
      </trkpt>
      <trkpt lat="43.96965" lon="2.22477">
        <ele>249</ele>
        <time>2021-02-25T14:05:20.188Z</time>
      </trkpt>
      <trkpt lat="43.96966" lon="2.22475">
        <ele>249</ele>
        <time>2021-02-25T14:05:21.188Z</time>
      </trkpt>
      <trkpt lat="43.96966" lon="2.22474">
        <ele>249</ele>
        <time>2021-02-25T14:05:22.188Z</time>
      </trkpt>
      <trkpt lat="43.96966" lon="2.22472">
        <ele>249</ele>
        <time>2021-02-25T14:05:23.188Z</time>
      </trkpt>
      <trkpt lat="43.96967" lon="2.22471">
        <ele>249</ele>
        <time>2021-02-25T14:05:24.188Z</time>
      </trkpt>
      <trkpt lat="43.96967" lon="2.22469">
        <ele>248</ele>
        <time>2021-02-25T14:05:25.188Z</time>
      </trkpt>
      <trkpt lat="43.96967" lon="2.22468">
        <ele>248</ele>
        <time>2021-02-25T14:05:26.188Z</time>
      </trkpt>
      <trkpt lat="43.96968" lon="2.22466">
        <ele>248</ele>
        <time>2021-02-25T14:05:27.188Z</time>
      </trkpt>
      <trkpt lat="43.96968" lon="2.22465">
        <ele>248</ele>
        <time>2021-02-25T14:05:28.188Z</time>
      </trkpt>
      <trkpt lat="43.96969" lon="2.22464">
        <ele>248</ele>
        <time>2021-02-25T14:05:29.188Z</time>
      </trkpt>
      <trkpt lat="43.96969" lon="2.22462">
        <ele>248</ele>
        <time>2021-02-25T14:05:30.188Z</time>
      </trkpt>
      <trkpt lat="43.9697" lon="2.22461">
        <ele>248</ele>
        <time>2021-02-25T14:05:31.188Z</time>
      </trkpt>
      <trkpt lat="43.9697" lon="2.22459">
        <ele>248</ele>
        <time>2021-02-25T14:05:32.188Z</time>
      </trkpt>
      <trkpt lat="43.9697" lon="2.22458">
        <ele>248</ele>
        <time>2021-02-25T14:05:33.188Z</time>
      </trkpt>
      <trkpt lat="43.96971" lon="2.22457">
        <ele>248</ele>
        <time>2021-02-25T14:05:34.188Z</time>
      </trkpt>
      <trkpt lat="43.96972" lon="2.22455">
        <ele>248</ele>
        <time>2021-02-25T14:05:35.188Z</time>
      </trkpt>
      <trkpt lat="43.96972" lon="2.22454">
        <ele>248</ele>
        <time>2021-02-25T14:05:36.188Z</time>
      </trkpt>
      <trkpt lat="43.96973" lon="2.22453">
        <ele>248</ele>
        <time>2021-02-25T14:05:37.188Z</time>
      </trkpt>
      <trkpt lat="43.96974" lon="2.22452">
        <ele>247</ele>
        <time>2021-02-25T14:05:38.188Z</time>
      </trkpt>
      <trkpt lat="43.96975" lon="2.22451">
        <ele>247</ele>
        <time>2021-02-25T14:05:39.188Z</time>
      </trkpt>
      <trkpt lat="43.96975" lon="2.22451">
        <ele>247</ele>
        <time>2021-02-25T14:05:40.188Z</time>
      </trkpt>
      <trkpt lat="43.96975" lon="2.2245">
        <ele>247</ele>
        <time>2021-02-25T14:05:41.188Z</time>
      </trkpt>
      <trkpt lat="43.96976" lon="2.22447">
        <ele>247</ele>
        <time>2021-02-25T14:05:42.188Z</time>
      </trkpt>
      <trkpt lat="43.96976" lon="2.22446">
        <ele>247</ele>
        <time>2021-02-25T14:05:43.188Z</time>
      </trkpt>
      <trkpt lat="43.96977" lon="2.22448">
        <ele>246</ele>
        <time>2021-02-25T14:05:44.188Z</time>
      </trkpt>
      <trkpt lat="43.96977" lon="2.22448">
        <ele>246</ele>
        <time>2021-02-25T14:05:45.188Z</time>
      </trkpt>
      <trkpt lat="43.96977" lon="2.22449">
        <ele>246</ele>
        <time>2021-02-25T14:05:46.188Z</time>
      </trkpt>
      <trkpt lat="43.96977" lon="2.22449">
        <ele>246</ele>
        <time>2021-02-25T14:05:49.435Z</time>
      </trkpt>
      <trkpt lat="43.96978" lon="2.2245">
        <ele>245</ele>
        <time>2021-02-25T14:05:50.435Z</time>
      </trkpt>
      <trkpt lat="43.96978" lon="2.22451">
        <ele>245</ele>
        <time>2021-02-25T14:05:51.435Z</time>
      </trkpt>
      <trkpt lat="43.96979" lon="2.22451">
        <ele>245</ele>
        <time>2021-02-25T14:05:52.435Z</time>
      </trkpt>
      <trkpt lat="43.9698" lon="2.22451">
        <ele>245</ele>
        <time>2021-02-25T14:05:53.435Z</time>
      </trkpt>
      <trkpt lat="43.96981" lon="2.2245">
        <ele>244</ele>
        <time>2021-02-25T14:05:54.435Z</time>
      </trkpt>
      <trkpt lat="43.96982" lon="2.22449">
        <ele>244</ele>
        <time>2021-02-25T14:05:55.435Z</time>
      </trkpt>
      <trkpt lat="43.96982" lon="2.22447">
        <ele>244</ele>
        <time>2021-02-25T14:05:56.435Z</time>
      </trkpt>
      <trkpt lat="43.96983" lon="2.22446">
        <ele>244</ele>
        <time>2021-02-25T14:05:57.435Z</time>
      </trkpt>
      <trkpt lat="43.96984" lon="2.22445">
        <ele>244</ele>
        <time>2021-02-25T14:05:58.435Z</time>
      </trkpt>
      <trkpt lat="43.96984" lon="2.22444">
        <ele>244</ele>
        <time>2021-02-25T14:05:59.435Z</time>
      </trkpt>
      <trkpt lat="43.96985" lon="2.22443">
        <ele>243</ele>
        <time>2021-02-25T14:06:00.435Z</time>
      </trkpt>
      <trkpt lat="43.96986" lon="2.22441">
        <ele>243</ele>
        <time>2021-02-25T14:06:01.435Z</time>
      </trkpt>
      <trkpt lat="43.96986" lon="2.2244">
        <ele>243</ele>
        <time>2021-02-25T14:06:02.435Z</time>
      </trkpt>
      <trkpt lat="43.96987" lon="2.22439">
        <ele>243</ele>
        <time>2021-02-25T14:06:03.435Z</time>
      </trkpt>
      <trkpt lat="43.96987" lon="2.22437">
        <ele>243</ele>
        <time>2021-02-25T14:06:04.435Z</time>
      </trkpt>
      <trkpt lat="43.96988" lon="2.22436">
        <ele>243</ele>
        <time>2021-02-25T14:06:05.435Z</time>
      </trkpt>
      <trkpt lat="43.96989" lon="2.22435">
        <ele>243</ele>
        <time>2021-02-25T14:06:06.435Z</time>
      </trkpt>
      <trkpt lat="43.96989" lon="2.22433">
        <ele>243</ele>
        <time>2021-02-25T14:06:07.435Z</time>
      </trkpt>
      <trkpt lat="43.9699" lon="2.22432">
        <ele>243</ele>
        <time>2021-02-25T14:06:10.680Z</time>
      </trkpt>
      <trkpt lat="43.9699" lon="2.22431">
        <ele>243</ele>
        <time>2021-02-25T14:06:11.680Z</time>
      </trkpt>
      <trkpt lat="43.96991" lon="2.2243">
        <ele>243</ele>
        <time>2021-02-25T14:06:12.680Z</time>
      </trkpt>
      <trkpt lat="43.96992" lon="2.22429">
        <ele>243</ele>
        <time>2021-02-25T14:06:13.680Z</time>
      </trkpt>
      <trkpt lat="43.96993" lon="2.22428">
        <ele>243</ele>
        <time>2021-02-25T14:06:14.680Z</time>
      </trkpt>
      <trkpt lat="43.96993" lon="2.22427">
        <ele>243</ele>
        <time>2021-02-25T14:06:15.680Z</time>
      </trkpt>
      <trkpt lat="43.96994" lon="2.22426">
        <ele>243</ele>
        <time>2021-02-25T14:06:16.680Z</time>
      </trkpt>
      <trkpt lat="43.96994" lon="2.22424">
        <ele>243</ele>
        <time>2021-02-25T14:06:17.680Z</time>
      </trkpt>
      <trkpt lat="43.96994" lon="2.22423">
        <ele>243</ele>
        <time>2021-02-25T14:06:18.680Z</time>
      </trkpt>
      <trkpt lat="43.96995" lon="2.22422">
        <ele>243</ele>
        <time>2021-02-25T14:06:19.680Z</time>
      </trkpt>
      <trkpt lat="43.96995" lon="2.22421">
        <ele>243</ele>
        <time>2021-02-25T14:06:20.680Z</time>
      </trkpt>
      <trkpt lat="43.96996" lon="2.2242">
        <ele>243</ele>
        <time>2021-02-25T14:06:21.680Z</time>
      </trkpt>
      <trkpt lat="43.96996" lon="2.22418">
        <ele>243</ele>
        <time>2021-02-25T14:06:22.680Z</time>
      </trkpt>
      <trkpt lat="43.96996" lon="2.22416">
        <ele>243</ele>
        <time>2021-02-25T14:06:30.691Z</time>
      </trkpt>
      <trkpt lat="43.96997" lon="2.22414">
        <ele>243</ele>
        <time>2021-02-25T14:06:31.691Z</time>
      </trkpt>
      <trkpt lat="43.96997" lon="2.22412">
        <ele>243</ele>
        <time>2021-02-25T14:06:32.691Z</time>
      </trkpt>
      <trkpt lat="43.96998" lon="2.22411">
        <ele>243</ele>
        <time>2021-02-25T14:06:33.691Z</time>
      </trkpt>
      <trkpt lat="43.96998" lon="2.22409">
        <ele>243</ele>
        <time>2021-02-25T14:06:34.691Z</time>
      </trkpt>
      <trkpt lat="43.96999" lon="2.22407">
        <ele>243</ele>
        <time>2021-02-25T14:06:35.691Z</time>
      </trkpt>
      <trkpt lat="43.97" lon="2.22405">
        <ele>243</ele>
        <time>2021-02-25T14:06:36.691Z</time>
      </trkpt>
      <trkpt lat="43.97" lon="2.22404">
        <ele>243</ele>
        <time>2021-02-25T14:06:37.691Z</time>
      </trkpt>
      <trkpt lat="43.97001" lon="2.22403">
        <ele>243</ele>
        <time>2021-02-25T14:06:38.691Z</time>
      </trkpt>
      <trkpt lat="43.97001" lon="2.22401">
        <ele>243</ele>
        <time>2021-02-25T14:06:39.691Z</time>
      </trkpt>
      <trkpt lat="43.97002" lon="2.224">
        <ele>243</ele>
        <time>2021-02-25T14:06:40.691Z</time>
      </trkpt>
      <trkpt lat="43.97003" lon="2.22398">
        <ele>243</ele>
        <time>2021-02-25T14:06:41.691Z</time>
      </trkpt>
      <trkpt lat="43.97004" lon="2.22397">
        <ele>243</ele>
        <time>2021-02-25T14:06:42.691Z</time>
      </trkpt>
      <trkpt lat="43.97004" lon="2.22396">
        <ele>243</ele>
        <time>2021-02-25T14:06:43.691Z</time>
      </trkpt>
      <trkpt lat="43.97005" lon="2.22394">
        <ele>243</ele>
        <time>2021-02-25T14:06:44.691Z</time>
      </trkpt>
      <trkpt lat="43.97006" lon="2.22393">
        <ele>243</ele>
        <time>2021-02-25T14:06:45.691Z</time>
      </trkpt>
      <trkpt lat="43.97006" lon="2.22392">
        <ele>243</ele>
        <time>2021-02-25T14:06:46.691Z</time>
      </trkpt>
      <trkpt lat="43.97007" lon="2.2239">
        <ele>243</ele>
        <time>2021-02-25T14:06:47.691Z</time>
      </trkpt>
      <trkpt lat="43.97007" lon="2.22389">
        <ele>243</ele>
        <time>2021-02-25T14:06:48.691Z</time>
      </trkpt>
      <trkpt lat="43.97008" lon="2.22388">
        <ele>242</ele>
        <time>2021-02-25T14:06:49.691Z</time>
      </trkpt>
      <trkpt lat="43.97008" lon="2.22387">
        <ele>242</ele>
        <time>2021-02-25T14:06:50.691Z</time>
      </trkpt>
      <trkpt lat="43.97009" lon="2.22385">
        <ele>242</ele>
        <time>2021-02-25T14:06:51.691Z</time>
      </trkpt>
      <trkpt lat="43.9701" lon="2.22383">
        <ele>242</ele>
        <time>2021-02-25T14:06:52.691Z</time>
      </trkpt>
      <trkpt lat="43.97011" lon="2.22382">
        <ele>242</ele>
        <time>2021-02-25T14:06:53.691Z</time>
      </trkpt>
      <trkpt lat="43.97011" lon="2.2238">
        <ele>242</ele>
        <time>2021-02-25T14:06:54.691Z</time>
      </trkpt>
      <trkpt lat="43.97012" lon="2.22379">
        <ele>242</ele>
        <time>2021-02-25T14:06:55.691Z</time>
      </trkpt>
      <trkpt lat="43.97012" lon="2.22377">
        <ele>242</ele>
        <time>2021-02-25T14:06:56.691Z</time>
      </trkpt>
      <trkpt lat="43.97013" lon="2.22375">
        <ele>242</ele>
        <time>2021-02-25T14:06:57.691Z</time>
      </trkpt>
      <trkpt lat="43.97013" lon="2.22373">
        <ele>241</ele>
        <time>2021-02-25T14:06:58.691Z</time>
      </trkpt>
      <trkpt lat="43.97014" lon="2.22372">
        <ele>241</ele>
        <time>2021-02-25T14:06:59.691Z</time>
      </trkpt>
      <trkpt lat="43.97014" lon="2.2237">
        <ele>241</ele>
        <time>2021-02-25T14:07:00.691Z</time>
      </trkpt>
      <trkpt lat="43.97015" lon="2.22369">
        <ele>241</ele>
        <time>2021-02-25T14:07:01.691Z</time>
      </trkpt>
      <trkpt lat="43.97015" lon="2.22367">
        <ele>241</ele>
        <time>2021-02-25T14:07:02.691Z</time>
      </trkpt>
      <trkpt lat="43.97016" lon="2.22366">
        <ele>241</ele>
        <time>2021-02-25T14:07:03.691Z</time>
      </trkpt>
      <trkpt lat="43.97016" lon="2.22364">
        <ele>241</ele>
        <time>2021-02-25T14:07:04.691Z</time>
      </trkpt>
      <trkpt lat="43.97016" lon="2.22363">
        <ele>241</ele>
        <time>2021-02-25T14:07:05.691Z</time>
      </trkpt>
      <trkpt lat="43.97017" lon="2.22361">
        <ele>240</ele>
        <time>2021-02-25T14:07:06.691Z</time>
      </trkpt>
      <trkpt lat="43.97017" lon="2.2236">
        <ele>240</ele>
        <time>2021-02-25T14:07:07.691Z</time>
      </trkpt>
      <trkpt lat="43.97018" lon="2.22358">
        <ele>240</ele>
        <time>2021-02-25T14:07:08.691Z</time>
      </trkpt>
      <trkpt lat="43.97018" lon="2.22357">
        <ele>240</ele>
        <time>2021-02-25T14:07:09.691Z</time>
      </trkpt>
      <trkpt lat="43.97019" lon="2.22356">
        <ele>240</ele>
        <time>2021-02-25T14:07:10.691Z</time>
      </trkpt>
      <trkpt lat="43.97019" lon="2.22354">
        <ele>240</ele>
        <time>2021-02-25T14:07:11.691Z</time>
      </trkpt>
      <trkpt lat="43.9702" lon="2.22353">
        <ele>240</ele>
        <time>2021-02-25T14:07:12.691Z</time>
      </trkpt>
      <trkpt lat="43.9702" lon="2.22351">
        <ele>240</ele>
        <time>2021-02-25T14:07:13.691Z</time>
      </trkpt>
      <trkpt lat="43.97021" lon="2.22349">
        <ele>239</ele>
        <time>2021-02-25T14:07:14.691Z</time>
      </trkpt>
      <trkpt lat="43.97021" lon="2.22348">
        <ele>239</ele>
        <time>2021-02-25T14:07:15.691Z</time>
      </trkpt>
      <trkpt lat="43.97022" lon="2.22346">
        <ele>239</ele>
        <time>2021-02-25T14:07:16.691Z</time>
      </trkpt>
      <trkpt lat="43.97022" lon="2.22345">
        <ele>239</ele>
        <time>2021-02-25T14:07:17.691Z</time>
      </trkpt>
      <trkpt lat="43.97023" lon="2.22343">
        <ele>239</ele>
        <time>2021-02-25T14:07:18.691Z</time>
      </trkpt>
      <trkpt lat="43.97024" lon="2.22342">
        <ele>238</ele>
        <time>2021-02-25T14:07:19.691Z</time>
      </trkpt>
      <trkpt lat="43.97024" lon="2.22341">
        <ele>238</ele>
        <time>2021-02-25T14:07:20.691Z</time>
      </trkpt>
      <trkpt lat="43.97024" lon="2.22339">
        <ele>238</ele>
        <time>2021-02-25T14:07:21.691Z</time>
      </trkpt>
      <trkpt lat="43.97024" lon="2.22338">
        <ele>238</ele>
        <time>2021-02-25T14:07:22.691Z</time>
      </trkpt>
      <trkpt lat="43.97025" lon="2.22337">
        <ele>238</ele>
        <time>2021-02-25T14:07:23.691Z</time>
      </trkpt>
      <trkpt lat="43.97025" lon="2.22335">
        <ele>238</ele>
        <time>2021-02-25T14:07:24.691Z</time>
      </trkpt>
      <trkpt lat="43.97025" lon="2.22334">
        <ele>237</ele>
        <time>2021-02-25T14:07:25.691Z</time>
      </trkpt>
      <trkpt lat="43.97026" lon="2.22332">
        <ele>237</ele>
        <time>2021-02-25T14:07:26.691Z</time>
      </trkpt>
      <trkpt lat="43.97026" lon="2.22331">
        <ele>237</ele>
        <time>2021-02-25T14:07:27.691Z</time>
      </trkpt>
      <trkpt lat="43.97027" lon="2.22329">
        <ele>237</ele>
        <time>2021-02-25T14:07:28.691Z</time>
      </trkpt>
      <trkpt lat="43.97028" lon="2.22328">
        <ele>237</ele>
        <time>2021-02-25T14:07:29.691Z</time>
      </trkpt>
      <trkpt lat="43.97029" lon="2.22326">
        <ele>237</ele>
        <time>2021-02-25T14:07:30.691Z</time>
      </trkpt>
      <trkpt lat="43.97029" lon="2.22325">
        <ele>237</ele>
        <time>2021-02-25T14:07:31.691Z</time>
      </trkpt>
      <trkpt lat="43.9703" lon="2.22324">
        <ele>236</ele>
        <time>2021-02-25T14:07:32.691Z</time>
      </trkpt>
      <trkpt lat="43.97031" lon="2.22322">
        <ele>236</ele>
        <time>2021-02-25T14:07:33.691Z</time>
      </trkpt>
      <trkpt lat="43.97031" lon="2.22321">
        <ele>236</ele>
        <time>2021-02-25T14:07:34.691Z</time>
      </trkpt>
      <trkpt lat="43.97032" lon="2.22319">
        <ele>236</ele>
        <time>2021-02-25T14:07:35.691Z</time>
      </trkpt>
      <trkpt lat="43.97033" lon="2.22318">
        <ele>236</ele>
        <time>2021-02-25T14:07:36.691Z</time>
      </trkpt>
      <trkpt lat="43.97033" lon="2.22316">
        <ele>235</ele>
        <time>2021-02-25T14:07:37.691Z</time>
      </trkpt>
      <trkpt lat="43.97034" lon="2.22315">
        <ele>235</ele>
        <time>2021-02-25T14:07:38.691Z</time>
      </trkpt>
      <trkpt lat="43.97034" lon="2.22314">
        <ele>235</ele>
        <time>2021-02-25T14:07:39.691Z</time>
      </trkpt>
      <trkpt lat="43.97035" lon="2.22312">
        <ele>235</ele>
        <time>2021-02-25T14:07:40.691Z</time>
      </trkpt>
      <trkpt lat="43.97035" lon="2.22311">
        <ele>235</ele>
        <time>2021-02-25T14:07:41.691Z</time>
      </trkpt>
      <trkpt lat="43.97035" lon="2.22309">
        <ele>235</ele>
        <time>2021-02-25T14:07:42.691Z</time>
      </trkpt>
      <trkpt lat="43.97036" lon="2.22307">
        <ele>234</ele>
        <time>2021-02-25T14:07:43.691Z</time>
      </trkpt>
      <trkpt lat="43.97036" lon="2.22306">
        <ele>234</ele>
        <time>2021-02-25T14:07:44.691Z</time>
      </trkpt>
      <trkpt lat="43.97037" lon="2.22305">
        <ele>234</ele>
        <time>2021-02-25T14:07:45.691Z</time>
      </trkpt>
      <trkpt lat="43.97038" lon="2.22303">
        <ele>234</ele>
        <time>2021-02-25T14:07:46.691Z</time>
      </trkpt>
      <trkpt lat="43.97038" lon="2.22302">
        <ele>234</ele>
        <time>2021-02-25T14:07:47.691Z</time>
      </trkpt>
      <trkpt lat="43.97039" lon="2.22301">
        <ele>234</ele>
        <time>2021-02-25T14:07:48.691Z</time>
      </trkpt>
      <trkpt lat="43.97039" lon="2.22299">
        <ele>234</ele>
        <time>2021-02-25T14:07:49.691Z</time>
      </trkpt>
      <trkpt lat="43.9704" lon="2.22299">
        <ele>234</ele>
        <time>2021-02-25T14:07:50.691Z</time>
      </trkpt>
      <trkpt lat="43.9704" lon="2.22298">
        <ele>233</ele>
        <time>2021-02-25T14:07:51.691Z</time>
      </trkpt>
      <trkpt lat="43.97041" lon="2.22296">
        <ele>233</ele>
        <time>2021-02-25T14:07:52.691Z</time>
      </trkpt>
      <trkpt lat="43.97041" lon="2.22295">
        <ele>233</ele>
        <time>2021-02-25T14:07:53.691Z</time>
      </trkpt>
      <trkpt lat="43.97041" lon="2.22294">
        <ele>233</ele>
        <time>2021-02-25T14:07:54.691Z</time>
      </trkpt>
      <trkpt lat="43.97041" lon="2.22293">
        <ele>233</ele>
        <time>2021-02-25T14:07:55.691Z</time>
      </trkpt>
      <trkpt lat="43.97042" lon="2.22291">
        <ele>233</ele>
        <time>2021-02-25T14:07:56.691Z</time>
      </trkpt>
      <trkpt lat="43.97043" lon="2.2229">
        <ele>232</ele>
        <time>2021-02-25T14:07:57.691Z</time>
      </trkpt>
      <trkpt lat="43.97043" lon="2.22289">
        <ele>232</ele>
        <time>2021-02-25T14:07:58.691Z</time>
      </trkpt>
      <trkpt lat="43.97044" lon="2.22288">
        <ele>232</ele>
        <time>2021-02-25T14:07:59.691Z</time>
      </trkpt>
      <trkpt lat="43.97044" lon="2.22287">
        <ele>232</ele>
        <time>2021-02-25T14:08:00.691Z</time>
      </trkpt>
      <trkpt lat="43.97045" lon="2.22286">
        <ele>232</ele>
        <time>2021-02-25T14:08:01.691Z</time>
      </trkpt>
      <trkpt lat="43.97045" lon="2.22284">
        <ele>232</ele>
        <time>2021-02-25T14:08:02.691Z</time>
      </trkpt>
      <trkpt lat="43.97046" lon="2.22283">
        <ele>232</ele>
        <time>2021-02-25T14:08:03.691Z</time>
      </trkpt>
      <trkpt lat="43.97046" lon="2.22282">
        <ele>232</ele>
        <time>2021-02-25T14:08:04.691Z</time>
      </trkpt>
      <trkpt lat="43.97047" lon="2.22281">
        <ele>232</ele>
        <time>2021-02-25T14:08:05.691Z</time>
      </trkpt>
      <trkpt lat="43.97047" lon="2.22279">
        <ele>231</ele>
        <time>2021-02-25T14:08:06.691Z</time>
      </trkpt>
      <trkpt lat="43.97048" lon="2.22278">
        <ele>231</ele>
        <time>2021-02-25T14:08:07.691Z</time>
      </trkpt>
      <trkpt lat="43.97049" lon="2.22277">
        <ele>231</ele>
        <time>2021-02-25T14:08:08.691Z</time>
      </trkpt>
      <trkpt lat="43.9705" lon="2.22276">
        <ele>231</ele>
        <time>2021-02-25T14:08:09.691Z</time>
      </trkpt>
      <trkpt lat="43.97051" lon="2.22275">
        <ele>231</ele>
        <time>2021-02-25T14:08:10.691Z</time>
      </trkpt>
      <trkpt lat="43.97052" lon="2.22275">
        <ele>231</ele>
        <time>2021-02-25T14:08:11.691Z</time>
      </trkpt>
      <trkpt lat="43.97053" lon="2.22274">
        <ele>231</ele>
        <time>2021-02-25T14:08:12.691Z</time>
      </trkpt>
      <trkpt lat="43.97054" lon="2.22273">
        <ele>231</ele>
        <time>2021-02-25T14:08:13.691Z</time>
      </trkpt>
      <trkpt lat="43.97056" lon="2.22272">
        <ele>231</ele>
        <time>2021-02-25T14:08:14.691Z</time>
      </trkpt>
      <trkpt lat="43.97057" lon="2.22272">
        <ele>232</ele>
        <time>2021-02-25T14:08:17.936Z</time>
      </trkpt>
      <trkpt lat="43.97058" lon="2.22271">
        <ele>232</ele>
        <time>2021-02-25T14:08:18.936Z</time>
      </trkpt>
      <trkpt lat="43.97059" lon="2.22271">
        <ele>232</ele>
        <time>2021-02-25T14:08:19.936Z</time>
      </trkpt>
      <trkpt lat="43.97061" lon="2.22271">
        <ele>232</ele>
        <time>2021-02-25T14:08:20.936Z</time>
      </trkpt>
      <trkpt lat="43.97062" lon="2.2227">
        <ele>233</ele>
        <time>2021-02-25T14:08:21.936Z</time>
      </trkpt>
      <trkpt lat="43.97063" lon="2.2227">
        <ele>233</ele>
        <time>2021-02-25T14:08:22.936Z</time>
      </trkpt>
      <trkpt lat="43.97064" lon="2.2227">
        <ele>233</ele>
        <time>2021-02-25T14:08:23.936Z</time>
      </trkpt>
      <trkpt lat="43.97065" lon="2.2227">
        <ele>233</ele>
        <time>2021-02-25T14:08:24.936Z</time>
      </trkpt>
      <trkpt lat="43.97066" lon="2.2227">
        <ele>233</ele>
        <time>2021-02-25T14:08:25.936Z</time>
      </trkpt>
      <trkpt lat="43.97067" lon="2.22271">
        <ele>233</ele>
        <time>2021-02-25T14:08:26.936Z</time>
      </trkpt>
      <trkpt lat="43.97068" lon="2.22271">
        <ele>233</ele>
        <time>2021-02-25T14:08:27.936Z</time>
      </trkpt>
      <trkpt lat="43.97069" lon="2.22271">
        <ele>233</ele>
        <time>2021-02-25T14:08:28.936Z</time>
      </trkpt>
      <trkpt lat="43.9707" lon="2.22271">
        <ele>233</ele>
        <time>2021-02-25T14:08:29.936Z</time>
      </trkpt>
      <trkpt lat="43.97071" lon="2.22272">
        <ele>233</ele>
        <time>2021-02-25T14:08:30.936Z</time>
      </trkpt>
      <trkpt lat="43.97072" lon="2.22272">
        <ele>233</ele>
        <time>2021-02-25T14:08:31.936Z</time>
      </trkpt>
      <trkpt lat="43.97073" lon="2.22272">
        <ele>233</ele>
        <time>2021-02-25T14:08:32.936Z</time>
      </trkpt>
      <trkpt lat="43.97074" lon="2.22273">
        <ele>234</ele>
        <time>2021-02-25T14:08:33.936Z</time>
      </trkpt>
      <trkpt lat="43.97075" lon="2.22273">
        <ele>234</ele>
        <time>2021-02-25T14:08:34.936Z</time>
      </trkpt>
      <trkpt lat="43.97076" lon="2.22273">
        <ele>234</ele>
        <time>2021-02-25T14:08:35.936Z</time>
      </trkpt>
      <trkpt lat="43.97077" lon="2.22273">
        <ele>234</ele>
        <time>2021-02-25T14:08:36.936Z</time>
      </trkpt>
      <trkpt lat="43.97078" lon="2.22272">
        <ele>234</ele>
        <time>2021-02-25T14:08:37.936Z</time>
      </trkpt>
      <trkpt lat="43.97079" lon="2.22271">
        <ele>234</ele>
        <time>2021-02-25T14:08:38.936Z</time>
      </trkpt>
      <trkpt lat="43.97079" lon="2.22271">
        <ele>234</ele>
        <time>2021-02-25T14:08:39.936Z</time>
      </trkpt>
      <trkpt lat="43.9708" lon="2.2227">
        <ele>234</ele>
        <time>2021-02-25T14:08:40.936Z</time>
      </trkpt>
      <trkpt lat="43.9708" lon="2.22269">
        <ele>234</ele>
        <time>2021-02-25T14:08:41.936Z</time>
      </trkpt>
      <trkpt lat="43.97081" lon="2.22268">
        <ele>234</ele>
        <time>2021-02-25T14:08:42.936Z</time>
      </trkpt>
      <trkpt lat="43.97081" lon="2.22267">
        <ele>234</ele>
        <time>2021-02-25T14:08:43.936Z</time>
      </trkpt>
      <trkpt lat="43.97082" lon="2.22266">
        <ele>234</ele>
        <time>2021-02-25T14:08:44.936Z</time>
      </trkpt>
      <trkpt lat="43.97082" lon="2.22265">
        <ele>233</ele>
        <time>2021-02-25T14:08:45.936Z</time>
      </trkpt>
      <trkpt lat="43.97083" lon="2.22264">
        <ele>233</ele>
        <time>2021-02-25T14:08:46.936Z</time>
      </trkpt>
      <trkpt lat="43.97083" lon="2.22263">
        <ele>233</ele>
        <time>2021-02-25T14:08:47.936Z</time>
      </trkpt>
      <trkpt lat="43.97084" lon="2.22261">
        <ele>233</ele>
        <time>2021-02-25T14:08:48.936Z</time>
      </trkpt>
      <trkpt lat="43.97084" lon="2.2226">
        <ele>233</ele>
        <time>2021-02-25T14:08:49.936Z</time>
      </trkpt>
      <trkpt lat="43.97085" lon="2.22259">
        <ele>233</ele>
        <time>2021-02-25T14:08:50.936Z</time>
      </trkpt>
      <trkpt lat="43.97085" lon="2.22258">
        <ele>233</ele>
        <time>2021-02-25T14:08:51.936Z</time>
      </trkpt>
      <trkpt lat="43.97085" lon="2.22258">
        <ele>234</ele>
        <time>2021-02-25T14:08:52.936Z</time>
      </trkpt>
      <trkpt lat="43.97085" lon="2.22257">
        <ele>234</ele>
        <time>2021-02-25T14:08:53.936Z</time>
      </trkpt>
      <trkpt lat="43.97085" lon="2.22257">
        <ele>234</ele>
        <time>2021-02-25T14:08:54.936Z</time>
      </trkpt>
      <trkpt lat="43.97085" lon="2.22256">
        <ele>234</ele>
        <time>2021-02-25T14:08:55.936Z</time>
      </trkpt>
      <trkpt lat="43.97091" lon="2.22249">
        <ele>234</ele>
        <time>2021-02-25T14:08:59.934Z</time>
      </trkpt>
      <trkpt lat="43.97091" lon="2.22248">
        <ele>234</ele>
        <time>2021-02-25T14:09:00.934Z</time>
      </trkpt>
      <trkpt lat="43.97092" lon="2.22248">
        <ele>234</ele>
        <time>2021-02-25T14:09:01.934Z</time>
      </trkpt>
      <trkpt lat="43.97094" lon="2.22248">
        <ele>234</ele>
        <time>2021-02-25T14:09:02.934Z</time>
      </trkpt>
      <trkpt lat="43.97094" lon="2.22248">
        <ele>234</ele>
        <time>2021-02-25T14:09:03.934Z</time>
      </trkpt>
      <trkpt lat="43.971" lon="2.22247">
        <ele>235</ele>
        <time>2021-02-25T14:09:04.934Z</time>
      </trkpt>
      <trkpt lat="43.971" lon="2.22247">
        <ele>235</ele>
        <time>2021-02-25T14:09:05.934Z</time>
      </trkpt>
      <trkpt lat="43.97101" lon="2.22247">
        <ele>235</ele>
        <time>2021-02-25T14:09:06.934Z</time>
      </trkpt>
      <trkpt lat="43.97102" lon="2.22247">
        <ele>235</ele>
        <time>2021-02-25T14:09:07.934Z</time>
      </trkpt>
      <trkpt lat="43.97102" lon="2.22247">
        <ele>235</ele>
        <time>2021-02-25T14:09:08.934Z</time>
      </trkpt>
      <trkpt lat="43.97103" lon="2.22247">
        <ele>234</ele>
        <time>2021-02-25T14:09:09.934Z</time>
      </trkpt>
      <trkpt lat="43.97105" lon="2.22246">
        <ele>234</ele>
        <time>2021-02-25T14:09:10.934Z</time>
      </trkpt>
      <trkpt lat="43.97106" lon="2.22246">
        <ele>234</ele>
        <time>2021-02-25T14:09:11.934Z</time>
      </trkpt>
      <trkpt lat="43.97107" lon="2.22245">
        <ele>234</ele>
        <time>2021-02-25T14:09:12.934Z</time>
      </trkpt>
      <trkpt lat="43.97107" lon="2.22245">
        <ele>235</ele>
        <time>2021-02-25T14:09:13.934Z</time>
      </trkpt>
      <trkpt lat="43.97108" lon="2.22245">
        <ele>235</ele>
        <time>2021-02-25T14:09:14.934Z</time>
      </trkpt>
      <trkpt lat="43.97108" lon="2.22245">
        <ele>235</ele>
        <time>2021-02-25T14:09:15.934Z</time>
      </trkpt>
      <trkpt lat="43.9711" lon="2.22245">
        <ele>235</ele>
        <time>2021-02-25T14:09:16.934Z</time>
      </trkpt>
      <trkpt lat="43.9711" lon="2.22245">
        <ele>235</ele>
        <time>2021-02-25T14:09:17.934Z</time>
      </trkpt>
      <trkpt lat="43.97112" lon="2.22245">
        <ele>236</ele>
        <time>2021-02-25T14:09:18.934Z</time>
      </trkpt>
      <trkpt lat="43.97113" lon="2.22245">
        <ele>236</ele>
        <time>2021-02-25T14:09:19.934Z</time>
      </trkpt>
      <trkpt lat="43.97113" lon="2.22244">
        <ele>236</ele>
        <time>2021-02-25T14:09:20.934Z</time>
      </trkpt>
      <trkpt lat="43.97113" lon="2.22244">
        <ele>237</ele>
        <time>2021-02-25T14:09:21.934Z</time>
      </trkpt>
      <trkpt lat="43.97116" lon="2.22243">
        <ele>237</ele>
        <time>2021-02-25T14:09:22.934Z</time>
      </trkpt>
      <trkpt lat="43.97117" lon="2.22243">
        <ele>237</ele>
        <time>2021-02-25T14:09:23.934Z</time>
      </trkpt>
      <trkpt lat="43.97117" lon="2.22242">
        <ele>238</ele>
        <time>2021-02-25T14:09:24.934Z</time>
      </trkpt>
      <trkpt lat="43.97118" lon="2.22242">
        <ele>238</ele>
        <time>2021-02-25T14:09:25.934Z</time>
      </trkpt>
      <trkpt lat="43.97118" lon="2.22242">
        <ele>238</ele>
        <time>2021-02-25T14:09:26.934Z</time>
      </trkpt>
      <trkpt lat="43.97119" lon="2.22242">
        <ele>238</ele>
        <time>2021-02-25T14:09:27.934Z</time>
      </trkpt>
      <trkpt lat="43.97119" lon="2.22242">
        <ele>238</ele>
        <time>2021-02-25T14:09:28.934Z</time>
      </trkpt>
      <trkpt lat="43.97119" lon="2.22242">
        <ele>238</ele>
        <time>2021-02-25T14:09:29.934Z</time>
      </trkpt>
      <trkpt lat="43.9712" lon="2.22242">
        <ele>238</ele>
        <time>2021-02-25T14:09:30.934Z</time>
      </trkpt>
      <trkpt lat="43.9712" lon="2.22242">
        <ele>238</ele>
        <time>2021-02-25T14:09:31.934Z</time>
      </trkpt>
      <trkpt lat="43.97123" lon="2.22241">
        <ele>240</ele>
        <time>2021-02-25T14:09:32.934Z</time>
      </trkpt>
      <trkpt lat="43.97123" lon="2.22241">
        <ele>240</ele>
        <time>2021-02-25T14:09:33.934Z</time>
      </trkpt>
      <trkpt lat="43.97125" lon="2.22241">
        <ele>240</ele>
        <time>2021-02-25T14:09:34.934Z</time>
      </trkpt>
      <trkpt lat="43.97125" lon="2.22241">
        <ele>240</ele>
        <time>2021-02-25T14:09:35.934Z</time>
      </trkpt>
      <trkpt lat="43.97126" lon="2.22241">
        <ele>240</ele>
        <time>2021-02-25T14:09:36.934Z</time>
      </trkpt>
      <trkpt lat="43.9713" lon="2.22234">
        <ele>242</ele>
        <time>2021-02-25T14:09:37.934Z</time>
      </trkpt>
      <trkpt lat="43.9713" lon="2.22234">
        <ele>242</ele>
        <time>2021-02-25T14:09:38.934Z</time>
      </trkpt>
      <trkpt lat="43.97131" lon="2.22234">
        <ele>242</ele>
        <time>2021-02-25T14:09:39.934Z</time>
      </trkpt>
      <trkpt lat="43.97132" lon="2.22234">
        <ele>243</ele>
        <time>2021-02-25T14:09:40.934Z</time>
      </trkpt>
      <trkpt lat="43.97132" lon="2.22234">
        <ele>243</ele>
        <time>2021-02-25T14:09:41.934Z</time>
      </trkpt>
      <trkpt lat="43.97135" lon="2.22231">
        <ele>243</ele>
        <time>2021-02-25T14:09:42.934Z</time>
      </trkpt>
      <trkpt lat="43.97135" lon="2.22231">
        <ele>243</ele>
        <time>2021-02-25T14:09:43.934Z</time>
      </trkpt>
      <trkpt lat="43.97135" lon="2.22231">
        <ele>243</ele>
        <time>2021-02-25T14:09:44.934Z</time>
      </trkpt>
      <trkpt lat="43.97136" lon="2.22229">
        <ele>243</ele>
        <time>2021-02-25T14:10:18.934Z</time>
      </trkpt>
      <trkpt lat="43.97136" lon="2.22229">
        <ele>243</ele>
        <time>2021-02-25T14:10:19.934Z</time>
      </trkpt>
      <trkpt lat="43.97137" lon="2.22229">
        <ele>243</ele>
        <time>2021-02-25T14:10:20.934Z</time>
      </trkpt>
      <trkpt lat="43.97137" lon="2.22229">
        <ele>243</ele>
        <time>2021-02-25T14:10:21.934Z</time>
      </trkpt>
      <trkpt lat="43.97137" lon="2.2223">
        <ele>243</ele>
        <time>2021-02-25T14:10:22.934Z</time>
      </trkpt>
      <trkpt lat="43.97137" lon="2.2223">
        <ele>243</ele>
        <time>2021-02-25T14:10:26.934Z</time>
      </trkpt>
      <trkpt lat="43.97139" lon="2.22231">
        <ele>244</ele>
        <time>2021-02-25T14:10:27.934Z</time>
      </trkpt>
      <trkpt lat="43.97139" lon="2.22231">
        <ele>244</ele>
        <time>2021-02-25T14:10:31.180Z</time>
      </trkpt>
      <trkpt lat="43.9714" lon="2.22231">
        <ele>244</ele>
        <time>2021-02-25T14:10:32.180Z</time>
      </trkpt>
      <trkpt lat="43.97141" lon="2.22231">
        <ele>244</ele>
        <time>2021-02-25T14:10:33.180Z</time>
      </trkpt>
      <trkpt lat="43.97142" lon="2.22231">
        <ele>244</ele>
        <time>2021-02-25T14:10:34.180Z</time>
      </trkpt>
      <trkpt lat="43.97143" lon="2.22232">
        <ele>244</ele>
        <time>2021-02-25T14:10:35.180Z</time>
      </trkpt>
      <trkpt lat="43.97144" lon="2.22232">
        <ele>244</ele>
        <time>2021-02-25T14:10:36.180Z</time>
      </trkpt>
      <trkpt lat="43.97145" lon="2.22232">
        <ele>244</ele>
        <time>2021-02-25T14:10:37.180Z</time>
      </trkpt>
      <trkpt lat="43.97146" lon="2.22232">
        <ele>244</ele>
        <time>2021-02-25T14:10:38.180Z</time>
      </trkpt>
      <trkpt lat="43.97147" lon="2.22232">
        <ele>244</ele>
        <time>2021-02-25T14:10:39.180Z</time>
      </trkpt>
      <trkpt lat="43.97148" lon="2.22232">
        <ele>244</ele>
        <time>2021-02-25T14:10:40.180Z</time>
      </trkpt>
      <trkpt lat="43.97148" lon="2.22233">
        <ele>244</ele>
        <time>2021-02-25T14:10:41.180Z</time>
      </trkpt>
      <trkpt lat="43.97149" lon="2.22233">
        <ele>244</ele>
        <time>2021-02-25T14:10:42.180Z</time>
      </trkpt>
      <trkpt lat="43.9715" lon="2.22233">
        <ele>244</ele>
        <time>2021-02-25T14:10:43.180Z</time>
      </trkpt>
      <trkpt lat="43.97151" lon="2.22234">
        <ele>244</ele>
        <time>2021-02-25T14:10:44.180Z</time>
      </trkpt>
      <trkpt lat="43.97151" lon="2.22234">
        <ele>244</ele>
        <time>2021-02-25T14:10:45.180Z</time>
      </trkpt>
      <trkpt lat="43.97152" lon="2.22234">
        <ele>244</ele>
        <time>2021-02-25T14:10:46.180Z</time>
      </trkpt>
      <trkpt lat="43.97152" lon="2.22235">
        <ele>245</ele>
        <time>2021-02-25T14:10:47.180Z</time>
      </trkpt>
      <trkpt lat="43.97153" lon="2.22235">
        <ele>245</ele>
        <time>2021-02-25T14:10:48.180Z</time>
      </trkpt>
      <trkpt lat="43.97154" lon="2.22235">
        <ele>245</ele>
        <time>2021-02-25T14:10:49.180Z</time>
      </trkpt>
      <trkpt lat="43.97155" lon="2.22235">
        <ele>245</ele>
        <time>2021-02-25T14:10:50.180Z</time>
      </trkpt>
      <trkpt lat="43.97155" lon="2.22235">
        <ele>245</ele>
        <time>2021-02-25T14:10:51.180Z</time>
      </trkpt>
      <trkpt lat="43.97156" lon="2.22235">
        <ele>245</ele>
        <time>2021-02-25T14:10:52.180Z</time>
      </trkpt>
      <trkpt lat="43.97157" lon="2.22236">
        <ele>245</ele>
        <time>2021-02-25T14:10:53.180Z</time>
      </trkpt>
      <trkpt lat="43.97158" lon="2.22236">
        <ele>245</ele>
        <time>2021-02-25T14:10:54.180Z</time>
      </trkpt>
      <trkpt lat="43.97159" lon="2.22236">
        <ele>245</ele>
        <time>2021-02-25T14:10:55.180Z</time>
      </trkpt>
      <trkpt lat="43.97161" lon="2.22236">
        <ele>245</ele>
        <time>2021-02-25T14:10:56.180Z</time>
      </trkpt>
      <trkpt lat="43.97162" lon="2.22237">
        <ele>245</ele>
        <time>2021-02-25T14:10:57.180Z</time>
      </trkpt>
      <trkpt lat="43.97163" lon="2.22237">
        <ele>245</ele>
        <time>2021-02-25T14:10:58.180Z</time>
      </trkpt>
      <trkpt lat="43.97164" lon="2.22237">
        <ele>245</ele>
        <time>2021-02-25T14:10:59.180Z</time>
      </trkpt>
      <trkpt lat="43.97165" lon="2.22238">
        <ele>245</ele>
        <time>2021-02-25T14:11:00.180Z</time>
      </trkpt>
      <trkpt lat="43.97166" lon="2.22238">
        <ele>245</ele>
        <time>2021-02-25T14:11:01.180Z</time>
      </trkpt>
      <trkpt lat="43.97167" lon="2.22239">
        <ele>245</ele>
        <time>2021-02-25T14:11:02.180Z</time>
      </trkpt>
      <trkpt lat="43.97168" lon="2.22239">
        <ele>245</ele>
        <time>2021-02-25T14:11:03.180Z</time>
      </trkpt>
      <trkpt lat="43.97169" lon="2.2224">
        <ele>245</ele>
        <time>2021-02-25T14:11:04.180Z</time>
      </trkpt>
      <trkpt lat="43.9717" lon="2.22241">
        <ele>245</ele>
        <time>2021-02-25T14:11:05.180Z</time>
      </trkpt>
      <trkpt lat="43.97171" lon="2.22241">
        <ele>245</ele>
        <time>2021-02-25T14:11:06.180Z</time>
      </trkpt>
      <trkpt lat="43.97172" lon="2.22241">
        <ele>245</ele>
        <time>2021-02-25T14:11:07.180Z</time>
      </trkpt>
      <trkpt lat="43.97173" lon="2.22241">
        <ele>245</ele>
        <time>2021-02-25T14:11:08.180Z</time>
      </trkpt>
      <trkpt lat="43.97174" lon="2.22242">
        <ele>245</ele>
        <time>2021-02-25T14:11:09.180Z</time>
      </trkpt>
      <trkpt lat="43.97175" lon="2.22242">
        <ele>245</ele>
        <time>2021-02-25T14:11:10.180Z</time>
      </trkpt>
      <trkpt lat="43.97176" lon="2.22242">
        <ele>245</ele>
        <time>2021-02-25T14:11:11.180Z</time>
      </trkpt>
      <trkpt lat="43.97177" lon="2.22243">
        <ele>245</ele>
        <time>2021-02-25T14:11:12.180Z</time>
      </trkpt>
      <trkpt lat="43.97178" lon="2.22243">
        <ele>245</ele>
        <time>2021-02-25T14:11:13.180Z</time>
      </trkpt>
      <trkpt lat="43.97179" lon="2.22242">
        <ele>245</ele>
        <time>2021-02-25T14:11:14.180Z</time>
      </trkpt>
      <trkpt lat="43.9718" lon="2.22242">
        <ele>245</ele>
        <time>2021-02-25T14:11:15.180Z</time>
      </trkpt>
      <trkpt lat="43.97181" lon="2.22243">
        <ele>245</ele>
        <time>2021-02-25T14:11:16.180Z</time>
      </trkpt>
      <trkpt lat="43.97182" lon="2.22242">
        <ele>245</ele>
        <time>2021-02-25T14:11:17.180Z</time>
      </trkpt>
      <trkpt lat="43.97183" lon="2.22242">
        <ele>245</ele>
        <time>2021-02-25T14:11:18.180Z</time>
      </trkpt>
      <trkpt lat="43.97184" lon="2.22242">
        <ele>245</ele>
        <time>2021-02-25T14:11:19.180Z</time>
      </trkpt>
      <trkpt lat="43.97185" lon="2.22242">
        <ele>245</ele>
        <time>2021-02-25T14:11:20.180Z</time>
      </trkpt>
      <trkpt lat="43.97186" lon="2.22242">
        <ele>245</ele>
        <time>2021-02-25T14:11:21.180Z</time>
      </trkpt>
      <trkpt lat="43.97187" lon="2.22242">
        <ele>245</ele>
        <time>2021-02-25T14:11:22.180Z</time>
      </trkpt>
      <trkpt lat="43.97188" lon="2.22242">
        <ele>245</ele>
        <time>2021-02-25T14:11:23.180Z</time>
      </trkpt>
      <trkpt lat="43.97189" lon="2.22242">
        <ele>245</ele>
        <time>2021-02-25T14:11:24.180Z</time>
      </trkpt>
      <trkpt lat="43.9719" lon="2.22242">
        <ele>245</ele>
        <time>2021-02-25T14:11:25.180Z</time>
      </trkpt>
      <trkpt lat="43.97191" lon="2.22241">
        <ele>245</ele>
        <time>2021-02-25T14:11:26.180Z</time>
      </trkpt>
      <trkpt lat="43.97192" lon="2.22241">
        <ele>245</ele>
        <time>2021-02-25T14:11:27.180Z</time>
      </trkpt>
      <trkpt lat="43.97193" lon="2.2224">
        <ele>245</ele>
        <time>2021-02-25T14:11:28.180Z</time>
      </trkpt>
      <trkpt lat="43.97194" lon="2.2224">
        <ele>245</ele>
        <time>2021-02-25T14:11:29.180Z</time>
      </trkpt>
      <trkpt lat="43.97195" lon="2.22239">
        <ele>245</ele>
        <time>2021-02-25T14:11:30.180Z</time>
      </trkpt>
      <trkpt lat="43.97196" lon="2.22238">
        <ele>245</ele>
        <time>2021-02-25T14:11:31.180Z</time>
      </trkpt>
      <trkpt lat="43.97197" lon="2.22237">
        <ele>245</ele>
        <time>2021-02-25T14:11:32.180Z</time>
      </trkpt>
      <trkpt lat="43.97198" lon="2.22236">
        <ele>245</ele>
        <time>2021-02-25T14:11:33.180Z</time>
      </trkpt>
      <trkpt lat="43.97199" lon="2.22235">
        <ele>245</ele>
        <time>2021-02-25T14:11:34.180Z</time>
      </trkpt>
      <trkpt lat="43.972" lon="2.22235">
        <ele>246</ele>
        <time>2021-02-25T14:11:35.180Z</time>
      </trkpt>
      <trkpt lat="43.97201" lon="2.22234">
        <ele>246</ele>
        <time>2021-02-25T14:11:36.180Z</time>
      </trkpt>
      <trkpt lat="43.97202" lon="2.22234">
        <ele>246</ele>
        <time>2021-02-25T14:11:37.180Z</time>
      </trkpt>
      <trkpt lat="43.97203" lon="2.22233">
        <ele>246</ele>
        <time>2021-02-25T14:11:38.180Z</time>
      </trkpt>
      <trkpt lat="43.97204" lon="2.22232">
        <ele>246</ele>
        <time>2021-02-25T14:11:39.180Z</time>
      </trkpt>
      <trkpt lat="43.97204" lon="2.22231">
        <ele>246</ele>
        <time>2021-02-25T14:11:40.180Z</time>
      </trkpt>
      <trkpt lat="43.97205" lon="2.2223">
        <ele>246</ele>
        <time>2021-02-25T14:11:41.180Z</time>
      </trkpt>
      <trkpt lat="43.97206" lon="2.2223">
        <ele>246</ele>
        <time>2021-02-25T14:11:42.180Z</time>
      </trkpt>
      <trkpt lat="43.97207" lon="2.2223">
        <ele>246</ele>
        <time>2021-02-25T14:11:43.180Z</time>
      </trkpt>
      <trkpt lat="43.97208" lon="2.2223">
        <ele>246</ele>
        <time>2021-02-25T14:11:44.180Z</time>
      </trkpt>
      <trkpt lat="43.97209" lon="2.2223">
        <ele>246</ele>
        <time>2021-02-25T14:11:45.180Z</time>
      </trkpt>
      <trkpt lat="43.9721" lon="2.2223">
        <ele>246</ele>
        <time>2021-02-25T14:11:46.180Z</time>
      </trkpt>
      <trkpt lat="43.97211" lon="2.22229">
        <ele>246</ele>
        <time>2021-02-25T14:11:47.180Z</time>
      </trkpt>
      <trkpt lat="43.97211" lon="2.22229">
        <ele>246</ele>
        <time>2021-02-25T14:11:48.180Z</time>
      </trkpt>
      <trkpt lat="43.97212" lon="2.22227">
        <ele>246</ele>
        <time>2021-02-25T14:11:49.180Z</time>
      </trkpt>
      <trkpt lat="43.97213" lon="2.22226">
        <ele>246</ele>
        <time>2021-02-25T14:11:50.180Z</time>
      </trkpt>
      <trkpt lat="43.97214" lon="2.22225">
        <ele>246</ele>
        <time>2021-02-25T14:11:51.180Z</time>
      </trkpt>
      <trkpt lat="43.97215" lon="2.22224">
        <ele>246</ele>
        <time>2021-02-25T14:11:52.180Z</time>
      </trkpt>
      <trkpt lat="43.97215" lon="2.22223">
        <ele>246</ele>
        <time>2021-02-25T14:11:53.180Z</time>
      </trkpt>
      <trkpt lat="43.97216" lon="2.22222">
        <ele>246</ele>
        <time>2021-02-25T14:11:54.180Z</time>
      </trkpt>
      <trkpt lat="43.97217" lon="2.22221">
        <ele>246</ele>
        <time>2021-02-25T14:11:55.180Z</time>
      </trkpt>
      <trkpt lat="43.97217" lon="2.2222">
        <ele>247</ele>
        <time>2021-02-25T14:11:56.180Z</time>
      </trkpt>
      <trkpt lat="43.97218" lon="2.22219">
        <ele>247</ele>
        <time>2021-02-25T14:11:57.180Z</time>
      </trkpt>
      <trkpt lat="43.97219" lon="2.22218">
        <ele>247</ele>
        <time>2021-02-25T14:11:58.180Z</time>
      </trkpt>
      <trkpt lat="43.9722" lon="2.22217">
        <ele>247</ele>
        <time>2021-02-25T14:11:59.180Z</time>
      </trkpt>
      <trkpt lat="43.97221" lon="2.22216">
        <ele>247</ele>
        <time>2021-02-25T14:12:00.180Z</time>
      </trkpt>
      <trkpt lat="43.97221" lon="2.22215">
        <ele>247</ele>
        <time>2021-02-25T14:12:01.180Z</time>
      </trkpt>
      <trkpt lat="43.97222" lon="2.22214">
        <ele>247</ele>
        <time>2021-02-25T14:12:02.180Z</time>
      </trkpt>
      <trkpt lat="43.97223" lon="2.22213">
        <ele>247</ele>
        <time>2021-02-25T14:12:03.180Z</time>
      </trkpt>
      <trkpt lat="43.97224" lon="2.22212">
        <ele>247</ele>
        <time>2021-02-25T14:12:04.180Z</time>
      </trkpt>
      <trkpt lat="43.97225" lon="2.22212">
        <ele>247</ele>
        <time>2021-02-25T14:12:05.180Z</time>
      </trkpt>
      <trkpt lat="43.97226" lon="2.22211">
        <ele>247</ele>
        <time>2021-02-25T14:12:06.180Z</time>
      </trkpt>
      <trkpt lat="43.97227" lon="2.2221">
        <ele>247</ele>
        <time>2021-02-25T14:12:07.180Z</time>
      </trkpt>
      <trkpt lat="43.97228" lon="2.22209">
        <ele>247</ele>
        <time>2021-02-25T14:12:08.180Z</time>
      </trkpt>
      <trkpt lat="43.97228" lon="2.22208">
        <ele>247</ele>
        <time>2021-02-25T14:12:09.180Z</time>
      </trkpt>
      <trkpt lat="43.97229" lon="2.22207">
        <ele>247</ele>
        <time>2021-02-25T14:12:10.180Z</time>
      </trkpt>
      <trkpt lat="43.9723" lon="2.22206">
        <ele>247</ele>
        <time>2021-02-25T14:12:11.180Z</time>
      </trkpt>
      <trkpt lat="43.97231" lon="2.22205">
        <ele>247</ele>
        <time>2021-02-25T14:12:12.180Z</time>
      </trkpt>
      <trkpt lat="43.97232" lon="2.22205">
        <ele>247</ele>
        <time>2021-02-25T14:12:13.180Z</time>
      </trkpt>
      <trkpt lat="43.97233" lon="2.22204">
        <ele>247</ele>
        <time>2021-02-25T14:12:14.180Z</time>
      </trkpt>
      <trkpt lat="43.97234" lon="2.22203">
        <ele>247</ele>
        <time>2021-02-25T14:12:15.180Z</time>
      </trkpt>
      <trkpt lat="43.97235" lon="2.22202">
        <ele>247</ele>
        <time>2021-02-25T14:12:16.180Z</time>
      </trkpt>
      <trkpt lat="43.97236" lon="2.22201">
        <ele>247</ele>
        <time>2021-02-25T14:12:17.180Z</time>
      </trkpt>
      <trkpt lat="43.97236" lon="2.222">
        <ele>247</ele>
        <time>2021-02-25T14:12:18.180Z</time>
      </trkpt>
      <trkpt lat="43.97237" lon="2.22199">
        <ele>247</ele>
        <time>2021-02-25T14:12:19.180Z</time>
      </trkpt>
      <trkpt lat="43.97238" lon="2.22198">
        <ele>247</ele>
        <time>2021-02-25T14:12:20.180Z</time>
      </trkpt>
      <trkpt lat="43.97239" lon="2.22197">
        <ele>247</ele>
        <time>2021-02-25T14:12:21.180Z</time>
      </trkpt>
      <trkpt lat="43.9724" lon="2.22196">
        <ele>247</ele>
        <time>2021-02-25T14:12:22.180Z</time>
      </trkpt>
      <trkpt lat="43.97241" lon="2.22195">
        <ele>247</ele>
        <time>2021-02-25T14:12:23.180Z</time>
      </trkpt>
      <trkpt lat="43.97242" lon="2.22194">
        <ele>247</ele>
        <time>2021-02-25T14:12:24.180Z</time>
      </trkpt>
      <trkpt lat="43.97242" lon="2.22193">
        <ele>248</ele>
        <time>2021-02-25T14:12:25.180Z</time>
      </trkpt>
      <trkpt lat="43.97243" lon="2.22192">
        <ele>248</ele>
        <time>2021-02-25T14:12:26.180Z</time>
      </trkpt>
      <trkpt lat="43.97244" lon="2.22191">
        <ele>248</ele>
        <time>2021-02-25T14:12:27.180Z</time>
      </trkpt>
      <trkpt lat="43.97245" lon="2.22191">
        <ele>248</ele>
        <time>2021-02-25T14:12:28.180Z</time>
      </trkpt>
      <trkpt lat="43.97246" lon="2.2219">
        <ele>248</ele>
        <time>2021-02-25T14:12:29.180Z</time>
      </trkpt>
      <trkpt lat="43.97246" lon="2.22189">
        <ele>248</ele>
        <time>2021-02-25T14:12:30.180Z</time>
      </trkpt>
      <trkpt lat="43.97247" lon="2.22188">
        <ele>248</ele>
        <time>2021-02-25T14:12:31.180Z</time>
      </trkpt>
      <trkpt lat="43.97248" lon="2.22187">
        <ele>248</ele>
        <time>2021-02-25T14:12:32.180Z</time>
      </trkpt>
      <trkpt lat="43.97249" lon="2.22186">
        <ele>248</ele>
        <time>2021-02-25T14:12:33.180Z</time>
      </trkpt>
      <trkpt lat="43.9725" lon="2.22185">
        <ele>248</ele>
        <time>2021-02-25T14:12:34.180Z</time>
      </trkpt>
      <trkpt lat="43.9725" lon="2.22184">
        <ele>248</ele>
        <time>2021-02-25T14:12:35.180Z</time>
      </trkpt>
      <trkpt lat="43.97251" lon="2.22183">
        <ele>248</ele>
        <time>2021-02-25T14:12:36.180Z</time>
      </trkpt>
      <trkpt lat="43.97252" lon="2.22182">
        <ele>248</ele>
        <time>2021-02-25T14:12:37.180Z</time>
      </trkpt>
      <trkpt lat="43.97253" lon="2.22181">
        <ele>248</ele>
        <time>2021-02-25T14:12:38.180Z</time>
      </trkpt>
      <trkpt lat="43.97254" lon="2.2218">
        <ele>248</ele>
        <time>2021-02-25T14:12:39.180Z</time>
      </trkpt>
      <trkpt lat="43.97254" lon="2.22179">
        <ele>248</ele>
        <time>2021-02-25T14:12:40.180Z</time>
      </trkpt>
      <trkpt lat="43.97255" lon="2.22178">
        <ele>248</ele>
        <time>2021-02-25T14:12:41.180Z</time>
      </trkpt>
      <trkpt lat="43.97256" lon="2.22177">
        <ele>248</ele>
        <time>2021-02-25T14:12:42.180Z</time>
      </trkpt>
      <trkpt lat="43.97257" lon="2.22176">
        <ele>248</ele>
        <time>2021-02-25T14:12:43.180Z</time>
      </trkpt>
      <trkpt lat="43.97257" lon="2.22175">
        <ele>249</ele>
        <time>2021-02-25T14:12:44.180Z</time>
      </trkpt>
      <trkpt lat="43.97258" lon="2.22174">
        <ele>249</ele>
        <time>2021-02-25T14:12:45.180Z</time>
      </trkpt>
      <trkpt lat="43.97259" lon="2.22173">
        <ele>249</ele>
        <time>2021-02-25T14:12:46.180Z</time>
      </trkpt>
      <trkpt lat="43.9726" lon="2.22172">
        <ele>249</ele>
        <time>2021-02-25T14:12:47.180Z</time>
      </trkpt>
      <trkpt lat="43.9726" lon="2.22171">
        <ele>249</ele>
        <time>2021-02-25T14:12:48.180Z</time>
      </trkpt>
      <trkpt lat="43.97261" lon="2.22171">
        <ele>249</ele>
        <time>2021-02-25T14:12:49.180Z</time>
      </trkpt>
      <trkpt lat="43.97262" lon="2.22169">
        <ele>249</ele>
        <time>2021-02-25T14:12:50.180Z</time>
      </trkpt>
      <trkpt lat="43.97263" lon="2.22168">
        <ele>249</ele>
        <time>2021-02-25T14:12:51.180Z</time>
      </trkpt>
      <trkpt lat="43.97264" lon="2.22167">
        <ele>250</ele>
        <time>2021-02-25T14:12:52.180Z</time>
      </trkpt>
      <trkpt lat="43.97265" lon="2.22167">
        <ele>250</ele>
        <time>2021-02-25T14:12:53.180Z</time>
      </trkpt>
      <trkpt lat="43.97266" lon="2.22166">
        <ele>250</ele>
        <time>2021-02-25T14:12:54.180Z</time>
      </trkpt>
      <trkpt lat="43.97266" lon="2.22165">
        <ele>250</ele>
        <time>2021-02-25T14:12:55.180Z</time>
      </trkpt>
      <trkpt lat="43.97267" lon="2.22164">
        <ele>250</ele>
        <time>2021-02-25T14:12:56.180Z</time>
      </trkpt>
      <trkpt lat="43.97268" lon="2.22163">
        <ele>250</ele>
        <time>2021-02-25T14:12:57.180Z</time>
      </trkpt>
      <trkpt lat="43.97269" lon="2.22162">
        <ele>251</ele>
        <time>2021-02-25T14:12:58.180Z</time>
      </trkpt>
      <trkpt lat="43.97269" lon="2.2216">
        <ele>251</ele>
        <time>2021-02-25T14:12:59.180Z</time>
      </trkpt>
      <trkpt lat="43.9727" lon="2.22159">
        <ele>251</ele>
        <time>2021-02-25T14:13:00.180Z</time>
      </trkpt>
      <trkpt lat="43.9727" lon="2.22158">
        <ele>251</ele>
        <time>2021-02-25T14:13:01.180Z</time>
      </trkpt>
      <trkpt lat="43.97271" lon="2.22157">
        <ele>251</ele>
        <time>2021-02-25T14:13:02.180Z</time>
      </trkpt>
      <trkpt lat="43.97272" lon="2.22157">
        <ele>251</ele>
        <time>2021-02-25T14:13:03.180Z</time>
      </trkpt>
      <trkpt lat="43.97273" lon="2.22156">
        <ele>251</ele>
        <time>2021-02-25T14:13:04.180Z</time>
      </trkpt>
      <trkpt lat="43.97273" lon="2.22156">
        <ele>251</ele>
        <time>2021-02-25T14:13:05.180Z</time>
      </trkpt>
      <trkpt lat="43.97274" lon="2.22156">
        <ele>251</ele>
        <time>2021-02-25T14:13:06.180Z</time>
      </trkpt>
      <trkpt lat="43.97275" lon="2.22155">
        <ele>251</ele>
        <time>2021-02-25T14:13:07.180Z</time>
      </trkpt>
      <trkpt lat="43.97275" lon="2.22155">
        <ele>251</ele>
        <time>2021-02-25T14:13:08.180Z</time>
      </trkpt>
      <trkpt lat="43.97275" lon="2.22154">
        <ele>251</ele>
        <time>2021-02-25T14:13:09.180Z</time>
      </trkpt>
      <trkpt lat="43.97276" lon="2.22154">
        <ele>251</ele>
        <time>2021-02-25T14:13:10.180Z</time>
      </trkpt>
      <trkpt lat="43.97276" lon="2.22153">
        <ele>252</ele>
        <time>2021-02-25T14:13:11.180Z</time>
      </trkpt>
      <trkpt lat="43.97276" lon="2.22153">
        <ele>252</ele>
        <time>2021-02-25T14:13:12.180Z</time>
      </trkpt>
      <trkpt lat="43.97276" lon="2.22149">
        <ele>252</ele>
        <time>2021-02-25T14:13:13.180Z</time>
      </trkpt>
      <trkpt lat="43.97276" lon="2.22148">
        <ele>252</ele>
        <time>2021-02-25T14:13:14.180Z</time>
      </trkpt>
      <trkpt lat="43.97277" lon="2.22147">
        <ele>252</ele>
        <time>2021-02-25T14:13:15.180Z</time>
      </trkpt>
      <trkpt lat="43.97277" lon="2.22146">
        <ele>252</ele>
        <time>2021-02-25T14:13:16.180Z</time>
      </trkpt>
      <trkpt lat="43.97278" lon="2.22145">
        <ele>252</ele>
        <time>2021-02-25T14:13:17.180Z</time>
      </trkpt>
      <trkpt lat="43.97278" lon="2.22145">
        <ele>252</ele>
        <time>2021-02-25T14:13:18.180Z</time>
      </trkpt>
      <trkpt lat="43.97278" lon="2.22145">
        <ele>252</ele>
        <time>2021-02-25T14:13:19.180Z</time>
      </trkpt>
      <trkpt lat="43.97278" lon="2.22145">
        <ele>252</ele>
        <time>2021-02-25T14:13:20.180Z</time>
      </trkpt>
      <trkpt lat="43.97278" lon="2.22145">
        <ele>252</ele>
        <time>2021-02-25T14:13:21.180Z</time>
      </trkpt>
      <trkpt lat="43.9728" lon="2.22144">
        <ele>252</ele>
        <time>2021-02-25T14:13:22.180Z</time>
      </trkpt>
      <trkpt lat="43.97281" lon="2.22143">
        <ele>252</ele>
        <time>2021-02-25T14:13:23.180Z</time>
      </trkpt>
      <trkpt lat="43.97282" lon="2.22142">
        <ele>252</ele>
        <time>2021-02-25T14:13:24.180Z</time>
      </trkpt>
      <trkpt lat="43.97283" lon="2.22141">
        <ele>252</ele>
        <time>2021-02-25T14:13:25.180Z</time>
      </trkpt>
      <trkpt lat="43.97283" lon="2.22141">
        <ele>252</ele>
        <time>2021-02-25T14:13:26.180Z</time>
      </trkpt>
      <trkpt lat="43.97284" lon="2.2214">
        <ele>252</ele>
        <time>2021-02-25T14:13:27.180Z</time>
      </trkpt>
      <trkpt lat="43.97286" lon="2.2214">
        <ele>252</ele>
        <time>2021-02-25T14:13:28.180Z</time>
      </trkpt>
      <trkpt lat="43.97287" lon="2.22139">
        <ele>252</ele>
        <time>2021-02-25T14:13:29.180Z</time>
      </trkpt>
      <trkpt lat="43.97287" lon="2.22139">
        <ele>252</ele>
        <time>2021-02-25T14:13:30.180Z</time>
      </trkpt>
      <trkpt lat="43.97288" lon="2.22138">
        <ele>252</ele>
        <time>2021-02-25T14:13:31.180Z</time>
      </trkpt>
      <trkpt lat="43.97289" lon="2.22137">
        <ele>252</ele>
        <time>2021-02-25T14:13:32.180Z</time>
      </trkpt>
      <trkpt lat="43.9729" lon="2.22136">
        <ele>253</ele>
        <time>2021-02-25T14:13:33.180Z</time>
      </trkpt>
      <trkpt lat="43.97291" lon="2.22135">
        <ele>253</ele>
        <time>2021-02-25T14:13:34.180Z</time>
      </trkpt>
      <trkpt lat="43.97292" lon="2.22134">
        <ele>253</ele>
        <time>2021-02-25T14:13:35.180Z</time>
      </trkpt>
      <trkpt lat="43.97293" lon="2.22134">
        <ele>253</ele>
        <time>2021-02-25T14:13:36.180Z</time>
      </trkpt>
      <trkpt lat="43.97294" lon="2.22133">
        <ele>253</ele>
        <time>2021-02-25T14:13:37.180Z</time>
      </trkpt>
      <trkpt lat="43.97295" lon="2.22132">
        <ele>253</ele>
        <time>2021-02-25T14:13:38.180Z</time>
      </trkpt>
      <trkpt lat="43.97295" lon="2.22131">
        <ele>253</ele>
        <time>2021-02-25T14:13:39.180Z</time>
      </trkpt>
      <trkpt lat="43.97296" lon="2.2213">
        <ele>253</ele>
        <time>2021-02-25T14:13:40.180Z</time>
      </trkpt>
      <trkpt lat="43.97297" lon="2.2213">
        <ele>253</ele>
        <time>2021-02-25T14:13:41.180Z</time>
      </trkpt>
      <trkpt lat="43.97298" lon="2.22129">
        <ele>253</ele>
        <time>2021-02-25T14:13:42.180Z</time>
      </trkpt>
      <trkpt lat="43.97299" lon="2.22128">
        <ele>253</ele>
        <time>2021-02-25T14:13:43.180Z</time>
      </trkpt>
      <trkpt lat="43.97299" lon="2.22127">
        <ele>253</ele>
        <time>2021-02-25T14:13:44.180Z</time>
      </trkpt>
      <trkpt lat="43.973" lon="2.22127">
        <ele>253</ele>
        <time>2021-02-25T14:13:45.180Z</time>
      </trkpt>
      <trkpt lat="43.97301" lon="2.22126">
        <ele>253</ele>
        <time>2021-02-25T14:13:46.180Z</time>
      </trkpt>
      <trkpt lat="43.97302" lon="2.22126">
        <ele>253</ele>
        <time>2021-02-25T14:13:47.180Z</time>
      </trkpt>
      <trkpt lat="43.97303" lon="2.22125">
        <ele>253</ele>
        <time>2021-02-25T14:13:48.180Z</time>
      </trkpt>
      <trkpt lat="43.97303" lon="2.22125">
        <ele>253</ele>
        <time>2021-02-25T14:13:49.180Z</time>
      </trkpt>
      <trkpt lat="43.97304" lon="2.22125">
        <ele>253</ele>
        <time>2021-02-25T14:13:50.180Z</time>
      </trkpt>
      <trkpt lat="43.97305" lon="2.22125">
        <ele>254</ele>
        <time>2021-02-25T14:13:51.180Z</time>
      </trkpt>
      <trkpt lat="43.97306" lon="2.22124">
        <ele>254</ele>
        <time>2021-02-25T14:13:52.180Z</time>
      </trkpt>
      <trkpt lat="43.97306" lon="2.22124">
        <ele>254</ele>
        <time>2021-02-25T14:13:53.180Z</time>
      </trkpt>
      <trkpt lat="43.97307" lon="2.22123">
        <ele>254</ele>
        <time>2021-02-25T14:13:54.180Z</time>
      </trkpt>
      <trkpt lat="43.97308" lon="2.22123">
        <ele>254</ele>
        <time>2021-02-25T14:13:55.180Z</time>
      </trkpt>
      <trkpt lat="43.97308" lon="2.22122">
        <ele>254</ele>
        <time>2021-02-25T14:13:56.180Z</time>
      </trkpt>
      <trkpt lat="43.97309" lon="2.22122">
        <ele>255</ele>
        <time>2021-02-25T14:13:57.180Z</time>
      </trkpt>
      <trkpt lat="43.9731" lon="2.22121">
        <ele>255</ele>
        <time>2021-02-25T14:13:58.180Z</time>
      </trkpt>
      <trkpt lat="43.9731" lon="2.22121">
        <ele>255</ele>
        <time>2021-02-25T14:13:59.180Z</time>
      </trkpt>
      <trkpt lat="43.97311" lon="2.2212">
        <ele>255</ele>
        <time>2021-02-25T14:14:00.180Z</time>
      </trkpt>
      <trkpt lat="43.97312" lon="2.2212">
        <ele>255</ele>
        <time>2021-02-25T14:14:01.180Z</time>
      </trkpt>
      <trkpt lat="43.97313" lon="2.22119">
        <ele>256</ele>
        <time>2021-02-25T14:14:02.180Z</time>
      </trkpt>
      <trkpt lat="43.97314" lon="2.22119">
        <ele>256</ele>
        <time>2021-02-25T14:14:03.180Z</time>
      </trkpt>
      <trkpt lat="43.97315" lon="2.22119">
        <ele>256</ele>
        <time>2021-02-25T14:14:04.180Z</time>
      </trkpt>
      <trkpt lat="43.97316" lon="2.22119">
        <ele>256</ele>
        <time>2021-02-25T14:14:05.180Z</time>
      </trkpt>
      <trkpt lat="43.97317" lon="2.22118">
        <ele>256</ele>
        <time>2021-02-25T14:14:06.180Z</time>
      </trkpt>
      <trkpt lat="43.97318" lon="2.22118">
        <ele>257</ele>
        <time>2021-02-25T14:14:07.180Z</time>
      </trkpt>
      <trkpt lat="43.97319" lon="2.22118">
        <ele>257</ele>
        <time>2021-02-25T14:14:08.180Z</time>
      </trkpt>
      <trkpt lat="43.9732" lon="2.22118">
        <ele>257</ele>
        <time>2021-02-25T14:14:09.180Z</time>
      </trkpt>
      <trkpt lat="43.97321" lon="2.22118">
        <ele>257</ele>
        <time>2021-02-25T14:14:10.180Z</time>
      </trkpt>
      <trkpt lat="43.97322" lon="2.22118">
        <ele>257</ele>
        <time>2021-02-25T14:14:11.180Z</time>
      </trkpt>
      <trkpt lat="43.97322" lon="2.22118">
        <ele>257</ele>
        <time>2021-02-25T14:14:12.180Z</time>
      </trkpt>
      <trkpt lat="43.97323" lon="2.22118">
        <ele>257</ele>
        <time>2021-02-25T14:14:13.180Z</time>
      </trkpt>
      <trkpt lat="43.97324" lon="2.22117">
        <ele>258</ele>
        <time>2021-02-25T14:14:14.180Z</time>
      </trkpt>
      <trkpt lat="43.97325" lon="2.22117">
        <ele>258</ele>
        <time>2021-02-25T14:14:15.180Z</time>
      </trkpt>
      <trkpt lat="43.97326" lon="2.22117">
        <ele>258</ele>
        <time>2021-02-25T14:14:16.180Z</time>
      </trkpt>
      <trkpt lat="43.97327" lon="2.22117">
        <ele>258</ele>
        <time>2021-02-25T14:14:17.180Z</time>
      </trkpt>
      <trkpt lat="43.97328" lon="2.22117">
        <ele>258</ele>
        <time>2021-02-25T14:14:18.180Z</time>
      </trkpt>
      <trkpt lat="43.97329" lon="2.22117">
        <ele>258</ele>
        <time>2021-02-25T14:14:19.180Z</time>
      </trkpt>
      <trkpt lat="43.9733" lon="2.22117">
        <ele>258</ele>
        <time>2021-02-25T14:14:20.180Z</time>
      </trkpt>
      <trkpt lat="43.97331" lon="2.22117">
        <ele>258</ele>
        <time>2021-02-25T14:14:21.180Z</time>
      </trkpt>
      <trkpt lat="43.97332" lon="2.22117">
        <ele>258</ele>
        <time>2021-02-25T14:14:22.180Z</time>
      </trkpt>
      <trkpt lat="43.97333" lon="2.22116">
        <ele>259</ele>
        <time>2021-02-25T14:14:23.180Z</time>
      </trkpt>
      <trkpt lat="43.97334" lon="2.22116">
        <ele>259</ele>
        <time>2021-02-25T14:14:24.180Z</time>
      </trkpt>
      <trkpt lat="43.97335" lon="2.22116">
        <ele>259</ele>
        <time>2021-02-25T14:14:25.180Z</time>
      </trkpt>
      <trkpt lat="43.97336" lon="2.22116">
        <ele>259</ele>
        <time>2021-02-25T14:14:26.180Z</time>
      </trkpt>
      <trkpt lat="43.97337" lon="2.22116">
        <ele>259</ele>
        <time>2021-02-25T14:14:27.180Z</time>
      </trkpt>
      <trkpt lat="43.97337" lon="2.22115">
        <ele>259</ele>
        <time>2021-02-25T14:14:28.180Z</time>
      </trkpt>
      <trkpt lat="43.97338" lon="2.22115">
        <ele>259</ele>
        <time>2021-02-25T14:14:29.180Z</time>
      </trkpt>
      <trkpt lat="43.97339" lon="2.22114">
        <ele>259</ele>
        <time>2021-02-25T14:14:30.180Z</time>
      </trkpt>
      <trkpt lat="43.9734" lon="2.22114">
        <ele>259</ele>
        <time>2021-02-25T14:14:31.180Z</time>
      </trkpt>
      <trkpt lat="43.9734" lon="2.22113">
        <ele>259</ele>
        <time>2021-02-25T14:14:32.180Z</time>
      </trkpt>
      <trkpt lat="43.97341" lon="2.22112">
        <ele>259</ele>
        <time>2021-02-25T14:14:33.180Z</time>
      </trkpt>
      <trkpt lat="43.97342" lon="2.22111">
        <ele>259</ele>
        <time>2021-02-25T14:14:34.180Z</time>
      </trkpt>
      <trkpt lat="43.97343" lon="2.22111">
        <ele>259</ele>
        <time>2021-02-25T14:14:35.180Z</time>
      </trkpt>
      <trkpt lat="43.97343" lon="2.2211">
        <ele>259</ele>
        <time>2021-02-25T14:14:36.180Z</time>
      </trkpt>
      <trkpt lat="43.97344" lon="2.22109">
        <ele>259</ele>
        <time>2021-02-25T14:14:37.180Z</time>
      </trkpt>
      <trkpt lat="43.97345" lon="2.22108">
        <ele>260</ele>
        <time>2021-02-25T14:14:38.180Z</time>
      </trkpt>
      <trkpt lat="43.97345" lon="2.22107">
        <ele>260</ele>
        <time>2021-02-25T14:14:39.180Z</time>
      </trkpt>
      <trkpt lat="43.97346" lon="2.22106">
        <ele>260</ele>
        <time>2021-02-25T14:14:40.180Z</time>
      </trkpt>
      <trkpt lat="43.97347" lon="2.22106">
        <ele>260</ele>
        <time>2021-02-25T14:14:41.180Z</time>
      </trkpt>
      <trkpt lat="43.97347" lon="2.22105">
        <ele>260</ele>
        <time>2021-02-25T14:14:42.180Z</time>
      </trkpt>
      <trkpt lat="43.97348" lon="2.22105">
        <ele>260</ele>
        <time>2021-02-25T14:14:43.180Z</time>
      </trkpt>
      <trkpt lat="43.97349" lon="2.22104">
        <ele>260</ele>
        <time>2021-02-25T14:14:44.180Z</time>
      </trkpt>
      <trkpt lat="43.9735" lon="2.22104">
        <ele>261</ele>
        <time>2021-02-25T14:14:45.180Z</time>
      </trkpt>
      <trkpt lat="43.97351" lon="2.22103">
        <ele>261</ele>
        <time>2021-02-25T14:14:46.180Z</time>
      </trkpt>
      <trkpt lat="43.97351" lon="2.22102">
        <ele>261</ele>
        <time>2021-02-25T14:14:49.411Z</time>
      </trkpt>
      <trkpt lat="43.97352" lon="2.22101">
        <ele>261</ele>
        <time>2021-02-25T14:14:50.411Z</time>
      </trkpt>
      <trkpt lat="43.97353" lon="2.221">
        <ele>261</ele>
        <time>2021-02-25T14:14:51.411Z</time>
      </trkpt>
      <trkpt lat="43.97353" lon="2.221">
        <ele>261</ele>
        <time>2021-02-25T14:14:52.411Z</time>
      </trkpt>
      <trkpt lat="43.97354" lon="2.22099">
        <ele>262</ele>
        <time>2021-02-25T14:14:53.411Z</time>
      </trkpt>
      <trkpt lat="43.97355" lon="2.22098">
        <ele>262</ele>
        <time>2021-02-25T14:14:54.411Z</time>
      </trkpt>
      <trkpt lat="43.97356" lon="2.22098">
        <ele>262</ele>
        <time>2021-02-25T14:14:55.411Z</time>
      </trkpt>
      <trkpt lat="43.97357" lon="2.22097">
        <ele>262</ele>
        <time>2021-02-25T14:14:56.411Z</time>
      </trkpt>
      <trkpt lat="43.97357" lon="2.22096">
        <ele>262</ele>
        <time>2021-02-25T14:14:57.411Z</time>
      </trkpt>
      <trkpt lat="43.97358" lon="2.22096">
        <ele>263</ele>
        <time>2021-02-25T14:14:58.411Z</time>
      </trkpt>
      <trkpt lat="43.97358" lon="2.22095">
        <ele>263</ele>
        <time>2021-02-25T14:14:59.411Z</time>
      </trkpt>
      <trkpt lat="43.97359" lon="2.22094">
        <ele>263</ele>
        <time>2021-02-25T14:15:00.411Z</time>
      </trkpt>
      <trkpt lat="43.97359" lon="2.22093">
        <ele>263</ele>
        <time>2021-02-25T14:15:01.411Z</time>
      </trkpt>
      <trkpt lat="43.9736" lon="2.22093">
        <ele>263</ele>
        <time>2021-02-25T14:15:02.411Z</time>
      </trkpt>
      <trkpt lat="43.97361" lon="2.22092">
        <ele>264</ele>
        <time>2021-02-25T14:15:03.411Z</time>
      </trkpt>
      <trkpt lat="43.97361" lon="2.22091">
        <ele>264</ele>
        <time>2021-02-25T14:15:04.411Z</time>
      </trkpt>
      <trkpt lat="43.97362" lon="2.2209">
        <ele>264</ele>
        <time>2021-02-25T14:15:05.411Z</time>
      </trkpt>
      <trkpt lat="43.97363" lon="2.22089">
        <ele>264</ele>
        <time>2021-02-25T14:15:06.411Z</time>
      </trkpt>
      <trkpt lat="43.97363" lon="2.22088">
        <ele>264</ele>
        <time>2021-02-25T14:15:07.411Z</time>
      </trkpt>
      <trkpt lat="43.97364" lon="2.22087">
        <ele>264</ele>
        <time>2021-02-25T14:15:08.411Z</time>
      </trkpt>
      <trkpt lat="43.97365" lon="2.22086">
        <ele>264</ele>
        <time>2021-02-25T14:15:09.411Z</time>
      </trkpt>
      <trkpt lat="43.97366" lon="2.22085">
        <ele>264</ele>
        <time>2021-02-25T14:15:10.411Z</time>
      </trkpt>
      <trkpt lat="43.97367" lon="2.22085">
        <ele>265</ele>
        <time>2021-02-25T14:15:11.411Z</time>
      </trkpt>
      <trkpt lat="43.97367" lon="2.22084">
        <ele>265</ele>
        <time>2021-02-25T14:15:12.411Z</time>
      </trkpt>
      <trkpt lat="43.97368" lon="2.22083">
        <ele>265</ele>
        <time>2021-02-25T14:15:13.411Z</time>
      </trkpt>
      <trkpt lat="43.97368" lon="2.22082">
        <ele>265</ele>
        <time>2021-02-25T14:15:14.411Z</time>
      </trkpt>
      <trkpt lat="43.97368" lon="2.22081">
        <ele>265</ele>
        <time>2021-02-25T14:15:15.411Z</time>
      </trkpt>
      <trkpt lat="43.97369" lon="2.2208">
        <ele>265</ele>
        <time>2021-02-25T14:15:16.411Z</time>
      </trkpt>
      <trkpt lat="43.97369" lon="2.22079">
        <ele>265</ele>
        <time>2021-02-25T14:15:17.411Z</time>
      </trkpt>
      <trkpt lat="43.9737" lon="2.22078">
        <ele>266</ele>
        <time>2021-02-25T14:15:18.411Z</time>
      </trkpt>
      <trkpt lat="43.9737" lon="2.22076">
        <ele>266</ele>
        <time>2021-02-25T14:15:19.411Z</time>
      </trkpt>
      <trkpt lat="43.97371" lon="2.22075">
        <ele>266</ele>
        <time>2021-02-25T14:15:20.411Z</time>
      </trkpt>
      <trkpt lat="43.97371" lon="2.22074">
        <ele>266</ele>
        <time>2021-02-25T14:15:21.411Z</time>
      </trkpt>
      <trkpt lat="43.97372" lon="2.22074">
        <ele>266</ele>
        <time>2021-02-25T14:15:22.411Z</time>
      </trkpt>
      <trkpt lat="43.97373" lon="2.22073">
        <ele>266</ele>
        <time>2021-02-25T14:15:23.411Z</time>
      </trkpt>
      <trkpt lat="43.97373" lon="2.22072">
        <ele>266</ele>
        <time>2021-02-25T14:15:24.411Z</time>
      </trkpt>
      <trkpt lat="43.97373" lon="2.22071">
        <ele>266</ele>
        <time>2021-02-25T14:15:25.411Z</time>
      </trkpt>
      <trkpt lat="43.97374" lon="2.2207">
        <ele>267</ele>
        <time>2021-02-25T14:15:26.411Z</time>
      </trkpt>
      <trkpt lat="43.97375" lon="2.22069">
        <ele>267</ele>
        <time>2021-02-25T14:15:27.411Z</time>
      </trkpt>
      <trkpt lat="43.97375" lon="2.22068">
        <ele>267</ele>
        <time>2021-02-25T14:15:28.411Z</time>
      </trkpt>
      <trkpt lat="43.97376" lon="2.22067">
        <ele>267</ele>
        <time>2021-02-25T14:15:29.411Z</time>
      </trkpt>
      <trkpt lat="43.97376" lon="2.22067">
        <ele>267</ele>
        <time>2021-02-25T14:15:30.411Z</time>
      </trkpt>
      <trkpt lat="43.97376" lon="2.22066">
        <ele>267</ele>
        <time>2021-02-25T14:15:31.411Z</time>
      </trkpt>
      <trkpt lat="43.97377" lon="2.22065">
        <ele>267</ele>
        <time>2021-02-25T14:15:32.411Z</time>
      </trkpt>
      <trkpt lat="43.97377" lon="2.22064">
        <ele>267</ele>
        <time>2021-02-25T14:15:33.411Z</time>
      </trkpt>
      <trkpt lat="43.97378" lon="2.22063">
        <ele>267</ele>
        <time>2021-02-25T14:15:34.411Z</time>
      </trkpt>
      <trkpt lat="43.97378" lon="2.22062">
        <ele>268</ele>
        <time>2021-02-25T14:15:35.411Z</time>
      </trkpt>
      <trkpt lat="43.97379" lon="2.22061">
        <ele>268</ele>
        <time>2021-02-25T14:15:36.411Z</time>
      </trkpt>
      <trkpt lat="43.97379" lon="2.22061">
        <ele>268</ele>
        <time>2021-02-25T14:15:37.411Z</time>
      </trkpt>
      <trkpt lat="43.97379" lon="2.22061">
        <ele>268</ele>
        <time>2021-02-25T14:15:38.411Z</time>
      </trkpt>
      <trkpt lat="43.97379" lon="2.22061">
        <ele>268</ele>
        <time>2021-02-25T14:15:39.411Z</time>
      </trkpt>
      <trkpt lat="43.97381" lon="2.22059">
        <ele>268</ele>
        <time>2021-02-25T14:15:40.411Z</time>
      </trkpt>
      <trkpt lat="43.97381" lon="2.22058">
        <ele>268</ele>
        <time>2021-02-25T14:15:59.393Z</time>
      </trkpt>
      <trkpt lat="43.97381" lon="2.22058">
        <ele>269</ele>
        <time>2021-02-25T14:16:00.393Z</time>
      </trkpt>
      <trkpt lat="43.97382" lon="2.22058">
        <ele>269</ele>
        <time>2021-02-25T14:16:01.393Z</time>
      </trkpt>
      <trkpt lat="43.97384" lon="2.22057">
        <ele>270</ele>
        <time>2021-02-25T14:16:02.393Z</time>
      </trkpt>
      <trkpt lat="43.97384" lon="2.22057">
        <ele>270</ele>
        <time>2021-02-25T14:16:03.393Z</time>
      </trkpt>
      <trkpt lat="43.97385" lon="2.22057">
        <ele>270</ele>
        <time>2021-02-25T14:16:06.638Z</time>
      </trkpt>
      <trkpt lat="43.97385" lon="2.22057">
        <ele>270</ele>
        <time>2021-02-25T14:16:07.638Z</time>
      </trkpt>
      <trkpt lat="43.97385" lon="2.22057">
        <ele>270</ele>
        <time>2021-02-25T14:16:08.638Z</time>
      </trkpt>
      <trkpt lat="43.97385" lon="2.22057">
        <ele>270</ele>
        <time>2021-02-25T14:16:09.638Z</time>
      </trkpt>
      <trkpt lat="43.97384" lon="2.22055">
        <ele>270</ele>
        <time>2021-02-25T14:16:10.638Z</time>
      </trkpt>
      <trkpt lat="43.97384" lon="2.22054">
        <ele>270</ele>
        <time>2021-02-25T14:16:11.638Z</time>
      </trkpt>
      <trkpt lat="43.97384" lon="2.22054">
        <ele>270</ele>
        <time>2021-02-25T14:16:12.638Z</time>
      </trkpt>
      <trkpt lat="43.97384" lon="2.22054">
        <ele>270</ele>
        <time>2021-02-25T14:16:13.638Z</time>
      </trkpt>
      <trkpt lat="43.97384" lon="2.22054">
        <ele>270</ele>
        <time>2021-02-25T14:16:14.638Z</time>
      </trkpt>
      <trkpt lat="43.97384" lon="2.22052">
        <ele>270</ele>
        <time>2021-02-25T14:16:15.638Z</time>
      </trkpt>
      <trkpt lat="43.97384" lon="2.22051">
        <ele>270</ele>
        <time>2021-02-25T14:16:16.638Z</time>
      </trkpt>
      <trkpt lat="43.97384" lon="2.2205">
        <ele>270</ele>
        <time>2021-02-25T14:16:17.638Z</time>
      </trkpt>
      <trkpt lat="43.97384" lon="2.22048">
        <ele>270</ele>
        <time>2021-02-25T14:16:18.638Z</time>
      </trkpt>
      <trkpt lat="43.97384" lon="2.22047">
        <ele>270</ele>
        <time>2021-02-25T14:16:19.638Z</time>
      </trkpt>
      <trkpt lat="43.97384" lon="2.22046">
        <ele>270</ele>
        <time>2021-02-25T14:16:20.638Z</time>
      </trkpt>
      <trkpt lat="43.97384" lon="2.22044">
        <ele>270</ele>
        <time>2021-02-25T14:16:21.638Z</time>
      </trkpt>
      <trkpt lat="43.97384" lon="2.22043">
        <ele>271</ele>
        <time>2021-02-25T14:16:22.638Z</time>
      </trkpt>
      <trkpt lat="43.97384" lon="2.22042">
        <ele>271</ele>
        <time>2021-02-25T14:16:23.638Z</time>
      </trkpt>
      <trkpt lat="43.97384" lon="2.2204">
        <ele>271</ele>
        <time>2021-02-25T14:16:24.638Z</time>
      </trkpt>
      <trkpt lat="43.97384" lon="2.22039">
        <ele>271</ele>
        <time>2021-02-25T14:16:25.638Z</time>
      </trkpt>
      <trkpt lat="43.97384" lon="2.22037">
        <ele>271</ele>
        <time>2021-02-25T14:16:26.638Z</time>
      </trkpt>
      <trkpt lat="43.97384" lon="2.22036">
        <ele>271</ele>
        <time>2021-02-25T14:16:27.638Z</time>
      </trkpt>
      <trkpt lat="43.97384" lon="2.22035">
        <ele>271</ele>
        <time>2021-02-25T14:16:28.638Z</time>
      </trkpt>
      <trkpt lat="43.97384" lon="2.22033">
        <ele>271</ele>
        <time>2021-02-25T14:16:29.638Z</time>
      </trkpt>
      <trkpt lat="43.97385" lon="2.22032">
        <ele>271</ele>
        <time>2021-02-25T14:16:30.638Z</time>
      </trkpt>
      <trkpt lat="43.97385" lon="2.22031">
        <ele>271</ele>
        <time>2021-02-25T14:16:31.638Z</time>
      </trkpt>
      <trkpt lat="43.97385" lon="2.2203">
        <ele>271</ele>
        <time>2021-02-25T14:16:32.638Z</time>
      </trkpt>
      <trkpt lat="43.97385" lon="2.22028">
        <ele>271</ele>
        <time>2021-02-25T14:16:33.638Z</time>
      </trkpt>
      <trkpt lat="43.97385" lon="2.22027">
        <ele>271</ele>
        <time>2021-02-25T14:16:34.638Z</time>
      </trkpt>
      <trkpt lat="43.97385" lon="2.22026">
        <ele>271</ele>
        <time>2021-02-25T14:16:35.638Z</time>
      </trkpt>
      <trkpt lat="43.97385" lon="2.22024">
        <ele>271</ele>
        <time>2021-02-25T14:16:36.638Z</time>
      </trkpt>
      <trkpt lat="43.97385" lon="2.22023">
        <ele>272</ele>
        <time>2021-02-25T14:16:37.638Z</time>
      </trkpt>
      <trkpt lat="43.97385" lon="2.22021">
        <ele>272</ele>
        <time>2021-02-25T14:16:38.638Z</time>
      </trkpt>
      <trkpt lat="43.97386" lon="2.2202">
        <ele>272</ele>
        <time>2021-02-25T14:16:39.638Z</time>
      </trkpt>
      <trkpt lat="43.97386" lon="2.22018">
        <ele>272</ele>
        <time>2021-02-25T14:16:40.638Z</time>
      </trkpt>
      <trkpt lat="43.97386" lon="2.22017">
        <ele>272</ele>
        <time>2021-02-25T14:16:41.638Z</time>
      </trkpt>
      <trkpt lat="43.97386" lon="2.22016">
        <ele>273</ele>
        <time>2021-02-25T14:16:42.638Z</time>
      </trkpt>
      <trkpt lat="43.97387" lon="2.22014">
        <ele>273</ele>
        <time>2021-02-25T14:16:43.638Z</time>
      </trkpt>
      <trkpt lat="43.97387" lon="2.22013">
        <ele>273</ele>
        <time>2021-02-25T14:16:44.638Z</time>
      </trkpt>
      <trkpt lat="43.97387" lon="2.22012">
        <ele>274</ele>
        <time>2021-02-25T14:16:45.638Z</time>
      </trkpt>
      <trkpt lat="43.97388" lon="2.2201">
        <ele>274</ele>
        <time>2021-02-25T14:16:46.638Z</time>
      </trkpt>
      <trkpt lat="43.97388" lon="2.22009">
        <ele>274</ele>
        <time>2021-02-25T14:16:47.638Z</time>
      </trkpt>
      <trkpt lat="43.97388" lon="2.22008">
        <ele>274</ele>
        <time>2021-02-25T14:16:48.638Z</time>
      </trkpt>
      <trkpt lat="43.97389" lon="2.22007">
        <ele>274</ele>
        <time>2021-02-25T14:16:49.638Z</time>
      </trkpt>
      <trkpt lat="43.97389" lon="2.22006">
        <ele>274</ele>
        <time>2021-02-25T14:16:50.638Z</time>
      </trkpt>
      <trkpt lat="43.97389" lon="2.22005">
        <ele>274</ele>
        <time>2021-02-25T14:16:51.638Z</time>
      </trkpt>
      <trkpt lat="43.97389" lon="2.22003">
        <ele>274</ele>
        <time>2021-02-25T14:16:52.638Z</time>
      </trkpt>
      <trkpt lat="43.97389" lon="2.22002">
        <ele>275</ele>
        <time>2021-02-25T14:16:53.638Z</time>
      </trkpt>
      <trkpt lat="43.97389" lon="2.22001">
        <ele>275</ele>
        <time>2021-02-25T14:16:54.638Z</time>
      </trkpt>
      <trkpt lat="43.97389" lon="2.22">
        <ele>275</ele>
        <time>2021-02-25T14:16:55.638Z</time>
      </trkpt>
      <trkpt lat="43.97389" lon="2.21999">
        <ele>275</ele>
        <time>2021-02-25T14:16:56.638Z</time>
      </trkpt>
      <trkpt lat="43.97389" lon="2.21997">
        <ele>275</ele>
        <time>2021-02-25T14:16:57.638Z</time>
      </trkpt>
      <trkpt lat="43.9739" lon="2.21996">
        <ele>275</ele>
        <time>2021-02-25T14:16:58.638Z</time>
      </trkpt>
      <trkpt lat="43.9739" lon="2.21995">
        <ele>275</ele>
        <time>2021-02-25T14:16:59.638Z</time>
      </trkpt>
      <trkpt lat="43.9739" lon="2.21994">
        <ele>275</ele>
        <time>2021-02-25T14:17:00.638Z</time>
      </trkpt>
      <trkpt lat="43.97391" lon="2.21993">
        <ele>275</ele>
        <time>2021-02-25T14:17:01.638Z</time>
      </trkpt>
      <trkpt lat="43.97391" lon="2.21992">
        <ele>275</ele>
        <time>2021-02-25T14:17:02.638Z</time>
      </trkpt>
      <trkpt lat="43.97391" lon="2.21991">
        <ele>276</ele>
        <time>2021-02-25T14:17:03.638Z</time>
      </trkpt>
      <trkpt lat="43.97391" lon="2.2199">
        <ele>276</ele>
        <time>2021-02-25T14:17:04.638Z</time>
      </trkpt>
      <trkpt lat="43.97392" lon="2.21989">
        <ele>276</ele>
        <time>2021-02-25T14:17:05.638Z</time>
      </trkpt>
      <trkpt lat="43.97392" lon="2.21988">
        <ele>276</ele>
        <time>2021-02-25T14:17:06.638Z</time>
      </trkpt>
      <trkpt lat="43.97392" lon="2.21986">
        <ele>276</ele>
        <time>2021-02-25T14:17:07.638Z</time>
      </trkpt>
      <trkpt lat="43.97392" lon="2.21985">
        <ele>276</ele>
        <time>2021-02-25T14:17:08.638Z</time>
      </trkpt>
      <trkpt lat="43.97392" lon="2.21985">
        <ele>277</ele>
        <time>2021-02-25T14:17:09.638Z</time>
      </trkpt>
      <trkpt lat="43.97392" lon="2.21983">
        <ele>277</ele>
        <time>2021-02-25T14:17:10.638Z</time>
      </trkpt>
      <trkpt lat="43.97392" lon="2.21983">
        <ele>277</ele>
        <time>2021-02-25T14:17:11.638Z</time>
      </trkpt>
      <trkpt lat="43.97391" lon="2.21982">
        <ele>277</ele>
        <time>2021-02-25T14:17:12.638Z</time>
      </trkpt>
      <trkpt lat="43.97391" lon="2.21981">
        <ele>277</ele>
        <time>2021-02-25T14:17:13.638Z</time>
      </trkpt>
      <trkpt lat="43.97391" lon="2.2198">
        <ele>278</ele>
        <time>2021-02-25T14:17:14.638Z</time>
      </trkpt>
      <trkpt lat="43.97391" lon="2.21979">
        <ele>278</ele>
        <time>2021-02-25T14:17:15.638Z</time>
      </trkpt>
      <trkpt lat="43.9739" lon="2.21979">
        <ele>278</ele>
        <time>2021-02-25T14:17:16.638Z</time>
      </trkpt>
      <trkpt lat="43.9739" lon="2.21978">
        <ele>278</ele>
        <time>2021-02-25T14:17:17.638Z</time>
      </trkpt>
      <trkpt lat="43.97389" lon="2.21977">
        <ele>279</ele>
        <time>2021-02-25T14:17:18.638Z</time>
      </trkpt>
      <trkpt lat="43.97388" lon="2.21976">
        <ele>279</ele>
        <time>2021-02-25T14:17:19.638Z</time>
      </trkpt>
      <trkpt lat="43.97387" lon="2.21975">
        <ele>279</ele>
        <time>2021-02-25T14:17:20.638Z</time>
      </trkpt>
      <trkpt lat="43.97386" lon="2.21975">
        <ele>279</ele>
        <time>2021-02-25T14:17:21.638Z</time>
      </trkpt>
      <trkpt lat="43.97385" lon="2.21974">
        <ele>279</ele>
        <time>2021-02-25T14:17:22.638Z</time>
      </trkpt>
      <trkpt lat="43.97384" lon="2.21974">
        <ele>279</ele>
        <time>2021-02-25T14:17:23.638Z</time>
      </trkpt>
      <trkpt lat="43.97383" lon="2.21973">
        <ele>280</ele>
        <time>2021-02-25T14:17:24.638Z</time>
      </trkpt>
      <trkpt lat="43.97382" lon="2.21972">
        <ele>280</ele>
        <time>2021-02-25T14:17:25.638Z</time>
      </trkpt>
      <trkpt lat="43.97381" lon="2.21972">
        <ele>280</ele>
        <time>2021-02-25T14:17:26.638Z</time>
      </trkpt>
      <trkpt lat="43.9738" lon="2.21971">
        <ele>280</ele>
        <time>2021-02-25T14:17:27.638Z</time>
      </trkpt>
      <trkpt lat="43.97379" lon="2.21971">
        <ele>280</ele>
        <time>2021-02-25T14:17:28.638Z</time>
      </trkpt>
      <trkpt lat="43.97378" lon="2.2197">
        <ele>280</ele>
        <time>2021-02-25T14:17:29.638Z</time>
      </trkpt>
      <trkpt lat="43.97378" lon="2.21969">
        <ele>281</ele>
        <time>2021-02-25T14:17:30.638Z</time>
      </trkpt>
      <trkpt lat="43.97377" lon="2.21969">
        <ele>281</ele>
        <time>2021-02-25T14:17:31.638Z</time>
      </trkpt>
      <trkpt lat="43.97376" lon="2.21968">
        <ele>281</ele>
        <time>2021-02-25T14:17:32.638Z</time>
      </trkpt>
      <trkpt lat="43.97375" lon="2.21968">
        <ele>281</ele>
        <time>2021-02-25T14:17:33.638Z</time>
      </trkpt>
      <trkpt lat="43.97374" lon="2.21967">
        <ele>281</ele>
        <time>2021-02-25T14:17:34.638Z</time>
      </trkpt>
      <trkpt lat="43.97373" lon="2.21967">
        <ele>281</ele>
        <time>2021-02-25T14:17:35.638Z</time>
      </trkpt>
      <trkpt lat="43.97372" lon="2.21966">
        <ele>281</ele>
        <time>2021-02-25T14:17:36.638Z</time>
      </trkpt>
      <trkpt lat="43.97371" lon="2.21965">
        <ele>281</ele>
        <time>2021-02-25T14:17:37.638Z</time>
      </trkpt>
      <trkpt lat="43.9737" lon="2.21965">
        <ele>281</ele>
        <time>2021-02-25T14:17:38.638Z</time>
      </trkpt>
      <trkpt lat="43.9737" lon="2.21964">
        <ele>282</ele>
        <time>2021-02-25T14:17:39.638Z</time>
      </trkpt>
      <trkpt lat="43.97369" lon="2.21963">
        <ele>282</ele>
        <time>2021-02-25T14:17:40.638Z</time>
      </trkpt>
      <trkpt lat="43.97368" lon="2.21963">
        <ele>282</ele>
        <time>2021-02-25T14:17:41.638Z</time>
      </trkpt>
      <trkpt lat="43.97367" lon="2.21962">
        <ele>282</ele>
        <time>2021-02-25T14:17:42.638Z</time>
      </trkpt>
      <trkpt lat="43.97366" lon="2.21961">
        <ele>282</ele>
        <time>2021-02-25T14:17:43.638Z</time>
      </trkpt>
      <trkpt lat="43.97365" lon="2.21961">
        <ele>282</ele>
        <time>2021-02-25T14:17:44.638Z</time>
      </trkpt>
      <trkpt lat="43.97364" lon="2.2196">
        <ele>282</ele>
        <time>2021-02-25T14:17:45.638Z</time>
      </trkpt>
      <trkpt lat="43.97363" lon="2.2196">
        <ele>282</ele>
        <time>2021-02-25T14:17:46.638Z</time>
      </trkpt>
      <trkpt lat="43.97362" lon="2.21959">
        <ele>282</ele>
        <time>2021-02-25T14:17:47.638Z</time>
      </trkpt>
      <trkpt lat="43.97361" lon="2.21959">
        <ele>282</ele>
        <time>2021-02-25T14:17:48.638Z</time>
      </trkpt>
      <trkpt lat="43.9736" lon="2.21958">
        <ele>282</ele>
        <time>2021-02-25T14:17:49.638Z</time>
      </trkpt>
      <trkpt lat="43.97359" lon="2.21958">
        <ele>282</ele>
        <time>2021-02-25T14:17:50.638Z</time>
      </trkpt>
      <trkpt lat="43.97358" lon="2.21957">
        <ele>282</ele>
        <time>2021-02-25T14:17:51.638Z</time>
      </trkpt>
      <trkpt lat="43.97358" lon="2.21956">
        <ele>282</ele>
        <time>2021-02-25T14:17:52.638Z</time>
      </trkpt>
      <trkpt lat="43.97357" lon="2.21956">
        <ele>282</ele>
        <time>2021-02-25T14:17:53.638Z</time>
      </trkpt>
      <trkpt lat="43.97356" lon="2.21955">
        <ele>282</ele>
        <time>2021-02-25T14:17:54.638Z</time>
      </trkpt>
      <trkpt lat="43.97355" lon="2.21954">
        <ele>283</ele>
        <time>2021-02-25T14:17:55.638Z</time>
      </trkpt>
      <trkpt lat="43.97355" lon="2.21954">
        <ele>283</ele>
        <time>2021-02-25T14:17:56.638Z</time>
      </trkpt>
      <trkpt lat="43.97354" lon="2.21953">
        <ele>283</ele>
        <time>2021-02-25T14:17:57.638Z</time>
      </trkpt>
      <trkpt lat="43.97353" lon="2.21953">
        <ele>283</ele>
        <time>2021-02-25T14:17:58.638Z</time>
      </trkpt>
      <trkpt lat="43.97352" lon="2.21952">
        <ele>283</ele>
        <time>2021-02-25T14:17:59.638Z</time>
      </trkpt>
      <trkpt lat="43.97352" lon="2.21952">
        <ele>283</ele>
        <time>2021-02-25T14:18:00.638Z</time>
      </trkpt>
      <trkpt lat="43.97351" lon="2.21951">
        <ele>283</ele>
        <time>2021-02-25T14:18:01.638Z</time>
      </trkpt>
      <trkpt lat="43.9735" lon="2.21951">
        <ele>284</ele>
        <time>2021-02-25T14:18:02.638Z</time>
      </trkpt>
      <trkpt lat="43.97349" lon="2.2195">
        <ele>284</ele>
        <time>2021-02-25T14:18:03.638Z</time>
      </trkpt>
      <trkpt lat="43.97348" lon="2.21949">
        <ele>284</ele>
        <time>2021-02-25T14:18:04.638Z</time>
      </trkpt>
      <trkpt lat="43.97347" lon="2.21949">
        <ele>284</ele>
        <time>2021-02-25T14:18:05.638Z</time>
      </trkpt>
      <trkpt lat="43.97346" lon="2.21948">
        <ele>284</ele>
        <time>2021-02-25T14:18:06.638Z</time>
      </trkpt>
      <trkpt lat="43.97346" lon="2.21947">
        <ele>284</ele>
        <time>2021-02-25T14:18:07.638Z</time>
      </trkpt>
      <trkpt lat="43.97345" lon="2.21946">
        <ele>284</ele>
        <time>2021-02-25T14:18:08.638Z</time>
      </trkpt>
      <trkpt lat="43.97344" lon="2.21945">
        <ele>284</ele>
        <time>2021-02-25T14:18:09.638Z</time>
      </trkpt>
      <trkpt lat="43.97343" lon="2.21945">
        <ele>284</ele>
        <time>2021-02-25T14:18:10.638Z</time>
      </trkpt>
      <trkpt lat="43.97342" lon="2.21944">
        <ele>285</ele>
        <time>2021-02-25T14:18:11.638Z</time>
      </trkpt>
      <trkpt lat="43.97341" lon="2.21943">
        <ele>285</ele>
        <time>2021-02-25T14:18:12.638Z</time>
      </trkpt>
      <trkpt lat="43.9734" lon="2.21943">
        <ele>285</ele>
        <time>2021-02-25T14:18:13.638Z</time>
      </trkpt>
      <trkpt lat="43.97339" lon="2.21942">
        <ele>285</ele>
        <time>2021-02-25T14:18:14.638Z</time>
      </trkpt>
      <trkpt lat="43.97338" lon="2.21941">
        <ele>285</ele>
        <time>2021-02-25T14:18:15.638Z</time>
      </trkpt>
      <trkpt lat="43.97337" lon="2.21941">
        <ele>285</ele>
        <time>2021-02-25T14:18:16.638Z</time>
      </trkpt>
      <trkpt lat="43.97336" lon="2.2194">
        <ele>286</ele>
        <time>2021-02-25T14:18:17.638Z</time>
      </trkpt>
      <trkpt lat="43.97335" lon="2.21939">
        <ele>286</ele>
        <time>2021-02-25T14:18:18.638Z</time>
      </trkpt>
      <trkpt lat="43.97334" lon="2.21939">
        <ele>286</ele>
        <time>2021-02-25T14:18:19.638Z</time>
      </trkpt>
      <trkpt lat="43.97333" lon="2.21938">
        <ele>286</ele>
        <time>2021-02-25T14:18:20.638Z</time>
      </trkpt>
      <trkpt lat="43.97333" lon="2.21937">
        <ele>286</ele>
        <time>2021-02-25T14:18:21.638Z</time>
      </trkpt>
      <trkpt lat="43.97332" lon="2.21937">
        <ele>286</ele>
        <time>2021-02-25T14:18:22.638Z</time>
      </trkpt>
      <trkpt lat="43.97331" lon="2.21936">
        <ele>286</ele>
        <time>2021-02-25T14:18:23.638Z</time>
      </trkpt>
      <trkpt lat="43.9733" lon="2.21936">
        <ele>286</ele>
        <time>2021-02-25T14:18:24.638Z</time>
      </trkpt>
      <trkpt lat="43.97329" lon="2.21935">
        <ele>286</ele>
        <time>2021-02-25T14:18:25.638Z</time>
      </trkpt>
      <trkpt lat="43.97328" lon="2.21934">
        <ele>286</ele>
        <time>2021-02-25T14:18:26.638Z</time>
      </trkpt>
      <trkpt lat="43.97327" lon="2.21934">
        <ele>286</ele>
        <time>2021-02-25T14:18:27.638Z</time>
      </trkpt>
      <trkpt lat="43.97326" lon="2.21933">
        <ele>286</ele>
        <time>2021-02-25T14:18:28.638Z</time>
      </trkpt>
      <trkpt lat="43.97325" lon="2.21932">
        <ele>286</ele>
        <time>2021-02-25T14:18:29.638Z</time>
      </trkpt>
      <trkpt lat="43.97324" lon="2.21931">
        <ele>286</ele>
        <time>2021-02-25T14:18:30.638Z</time>
      </trkpt>
      <trkpt lat="43.97323" lon="2.21931">
        <ele>286</ele>
        <time>2021-02-25T14:18:31.638Z</time>
      </trkpt>
      <trkpt lat="43.97323" lon="2.2193">
        <ele>286</ele>
        <time>2021-02-25T14:18:32.638Z</time>
      </trkpt>
      <trkpt lat="43.97322" lon="2.21929">
        <ele>286</ele>
        <time>2021-02-25T14:18:33.638Z</time>
      </trkpt>
      <trkpt lat="43.97321" lon="2.21929">
        <ele>287</ele>
        <time>2021-02-25T14:18:34.638Z</time>
      </trkpt>
      <trkpt lat="43.9732" lon="2.21928">
        <ele>287</ele>
        <time>2021-02-25T14:18:35.638Z</time>
      </trkpt>
      <trkpt lat="43.9732" lon="2.21927">
        <ele>287</ele>
        <time>2021-02-25T14:18:36.638Z</time>
      </trkpt>
      <trkpt lat="43.97319" lon="2.21926">
        <ele>287</ele>
        <time>2021-02-25T14:18:37.638Z</time>
      </trkpt>
      <trkpt lat="43.97318" lon="2.21926">
        <ele>287</ele>
        <time>2021-02-25T14:18:38.638Z</time>
      </trkpt>
      <trkpt lat="43.97318" lon="2.21925">
        <ele>287</ele>
        <time>2021-02-25T14:18:39.638Z</time>
      </trkpt>
      <trkpt lat="43.97317" lon="2.21924">
        <ele>287</ele>
        <time>2021-02-25T14:18:40.638Z</time>
      </trkpt>
      <trkpt lat="43.97316" lon="2.21923">
        <ele>287</ele>
        <time>2021-02-25T14:18:41.638Z</time>
      </trkpt>
      <trkpt lat="43.97316" lon="2.21923">
        <ele>288</ele>
        <time>2021-02-25T14:18:42.638Z</time>
      </trkpt>
      <trkpt lat="43.97315" lon="2.21922">
        <ele>288</ele>
        <time>2021-02-25T14:18:43.638Z</time>
      </trkpt>
      <trkpt lat="43.97314" lon="2.21921">
        <ele>288</ele>
        <time>2021-02-25T14:18:44.638Z</time>
      </trkpt>
      <trkpt lat="43.97314" lon="2.21921">
        <ele>288</ele>
        <time>2021-02-25T14:18:45.638Z</time>
      </trkpt>
      <trkpt lat="43.97313" lon="2.2192">
        <ele>288</ele>
        <time>2021-02-25T14:18:46.638Z</time>
      </trkpt>
      <trkpt lat="43.97313" lon="2.2192">
        <ele>288</ele>
        <time>2021-02-25T14:18:47.638Z</time>
      </trkpt>
      <trkpt lat="43.97313" lon="2.2192">
        <ele>288</ele>
        <time>2021-02-25T14:18:48.638Z</time>
      </trkpt>
      <trkpt lat="43.97313" lon="2.2192">
        <ele>288</ele>
        <time>2021-02-25T14:18:49.638Z</time>
      </trkpt>
      <trkpt lat="43.97314" lon="2.21922">
        <ele>288</ele>
        <time>2021-02-25T14:18:50.638Z</time>
      </trkpt>
      <trkpt lat="43.97314" lon="2.21923">
        <ele>288</ele>
        <time>2021-02-25T14:18:51.638Z</time>
      </trkpt>
      <trkpt lat="43.97314" lon="2.21923">
        <ele>288</ele>
        <time>2021-02-25T14:18:52.638Z</time>
      </trkpt>
      <trkpt lat="43.97314" lon="2.21923">
        <ele>288</ele>
        <time>2021-02-25T14:18:53.638Z</time>
      </trkpt>
      <trkpt lat="43.97314" lon="2.21923">
        <ele>288</ele>
        <time>2021-02-25T14:18:54.638Z</time>
      </trkpt>
      <trkpt lat="43.97314" lon="2.21923">
        <ele>289</ele>
        <time>2021-02-25T14:18:55.638Z</time>
      </trkpt>
      <trkpt lat="43.97311" lon="2.21922">
        <ele>290</ele>
        <time>2021-02-25T14:18:56.638Z</time>
      </trkpt>
      <trkpt lat="43.97311" lon="2.21921">
        <ele>290</ele>
        <time>2021-02-25T14:18:57.638Z</time>
      </trkpt>
      <trkpt lat="43.9731" lon="2.21921">
        <ele>290</ele>
        <time>2021-02-25T14:18:58.638Z</time>
      </trkpt>
      <trkpt lat="43.97311" lon="2.21922">
        <ele>290</ele>
        <time>2021-02-25T14:18:59.638Z</time>
      </trkpt>
      <trkpt lat="43.97312" lon="2.21922">
        <ele>290</ele>
        <time>2021-02-25T14:19:00.638Z</time>
      </trkpt>
      <trkpt lat="43.97312" lon="2.21923">
        <ele>290</ele>
        <time>2021-02-25T14:19:01.638Z</time>
      </trkpt>
      <trkpt lat="43.97313" lon="2.21923">
        <ele>290</ele>
        <time>2021-02-25T14:19:02.638Z</time>
      </trkpt>
      <trkpt lat="43.97313" lon="2.21923">
        <ele>290</ele>
        <time>2021-02-25T14:19:03.638Z</time>
      </trkpt>
      <trkpt lat="43.97313" lon="2.21923">
        <ele>290</ele>
        <time>2021-02-25T14:19:04.638Z</time>
      </trkpt>
      <trkpt lat="43.97313" lon="2.21923">
        <ele>290</ele>
        <time>2021-02-25T14:19:05.638Z</time>
      </trkpt>
      <trkpt lat="43.97312" lon="2.21922">
        <ele>290</ele>
        <time>2021-02-25T14:19:06.638Z</time>
      </trkpt>
      <trkpt lat="43.97311" lon="2.21921">
        <ele>290</ele>
        <time>2021-02-25T14:19:07.638Z</time>
      </trkpt>
      <trkpt lat="43.9731" lon="2.21921">
        <ele>290</ele>
        <time>2021-02-25T14:19:08.638Z</time>
      </trkpt>
      <trkpt lat="43.97309" lon="2.2192">
        <ele>290</ele>
        <time>2021-02-25T14:19:09.638Z</time>
      </trkpt>
      <trkpt lat="43.97309" lon="2.2192">
        <ele>290</ele>
        <time>2021-02-25T14:19:10.638Z</time>
      </trkpt>
      <trkpt lat="43.97309" lon="2.2192">
        <ele>290</ele>
        <time>2021-02-25T14:19:11.638Z</time>
      </trkpt>
      <trkpt lat="43.97309" lon="2.21921">
        <ele>290</ele>
        <time>2021-02-25T14:19:12.638Z</time>
      </trkpt>
      <trkpt lat="43.97309" lon="2.21921">
        <ele>290</ele>
        <time>2021-02-25T14:19:13.638Z</time>
      </trkpt>
      <trkpt lat="43.97309" lon="2.2192">
        <ele>290</ele>
        <time>2021-02-25T14:19:14.638Z</time>
      </trkpt>
      <trkpt lat="43.97309" lon="2.2192">
        <ele>290</ele>
        <time>2021-02-25T14:19:15.638Z</time>
      </trkpt>
      <trkpt lat="43.9731" lon="2.21921">
        <ele>290</ele>
        <time>2021-02-25T14:19:16.638Z</time>
      </trkpt>
      <trkpt lat="43.9731" lon="2.21921">
        <ele>290</ele>
        <time>2021-02-25T14:19:17.638Z</time>
      </trkpt>
      <trkpt lat="43.9731" lon="2.21921">
        <ele>290</ele>
        <time>2021-02-25T14:19:18.638Z</time>
      </trkpt>
      <trkpt lat="43.97311" lon="2.2192">
        <ele>291</ele>
        <time>2021-02-25T14:19:19.638Z</time>
      </trkpt>
      <trkpt lat="43.9731" lon="2.21919">
        <ele>291</ele>
        <time>2021-02-25T14:19:20.638Z</time>
      </trkpt>
      <trkpt lat="43.9731" lon="2.21919">
        <ele>291</ele>
        <time>2021-02-25T14:19:21.638Z</time>
      </trkpt>
      <trkpt lat="43.9731" lon="2.21919">
        <ele>291</ele>
        <time>2021-02-25T14:19:22.638Z</time>
      </trkpt>
      <trkpt lat="43.9731" lon="2.21919">
        <ele>291</ele>
        <time>2021-02-25T14:19:23.638Z</time>
      </trkpt>
      <trkpt lat="43.9731" lon="2.21918">
        <ele>291</ele>
        <time>2021-02-25T14:19:24.638Z</time>
      </trkpt>
      <trkpt lat="43.97312" lon="2.21919">
        <ele>291</ele>
        <time>2021-02-25T14:19:25.638Z</time>
      </trkpt>
      <trkpt lat="43.97312" lon="2.21919">
        <ele>291</ele>
        <time>2021-02-25T14:19:35.645Z</time>
      </trkpt>
      <trkpt lat="43.97312" lon="2.21919">
        <ele>291</ele>
        <time>2021-02-25T14:19:36.645Z</time>
      </trkpt>
      <trkpt lat="43.97312" lon="2.21919">
        <ele>291</ele>
        <time>2021-02-25T14:19:37.645Z</time>
      </trkpt>
      <trkpt lat="43.97312" lon="2.21919">
        <ele>291</ele>
        <time>2021-02-25T14:19:38.645Z</time>
      </trkpt>
      <trkpt lat="43.97312" lon="2.21919">
        <ele>291</ele>
        <time>2021-02-25T14:19:39.645Z</time>
      </trkpt>
      <trkpt lat="43.97312" lon="2.21918">
        <ele>291</ele>
        <time>2021-02-25T14:19:40.645Z</time>
      </trkpt>
      <trkpt lat="43.97311" lon="2.21917">
        <ele>292</ele>
        <time>2021-02-25T14:19:41.645Z</time>
      </trkpt>
      <trkpt lat="43.97311" lon="2.21916">
        <ele>292</ele>
        <time>2021-02-25T14:19:42.645Z</time>
      </trkpt>
      <trkpt lat="43.97311" lon="2.21916">
        <ele>292</ele>
        <time>2021-02-25T14:19:43.645Z</time>
      </trkpt>
      <trkpt lat="43.97311" lon="2.21916">
        <ele>292</ele>
        <time>2021-02-25T14:19:44.645Z</time>
      </trkpt>
      <trkpt lat="43.9731" lon="2.21916">
        <ele>292</ele>
        <time>2021-02-25T14:19:45.645Z</time>
      </trkpt>
      <trkpt lat="43.9731" lon="2.21916">
        <ele>292</ele>
        <time>2021-02-25T14:19:46.645Z</time>
      </trkpt>
      <trkpt lat="43.97309" lon="2.21915">
        <ele>292</ele>
        <time>2021-02-25T14:19:47.645Z</time>
      </trkpt>
      <trkpt lat="43.97309" lon="2.21915">
        <ele>292</ele>
        <time>2021-02-25T14:19:48.645Z</time>
      </trkpt>
      <trkpt lat="43.97308" lon="2.21915">
        <ele>292</ele>
        <time>2021-02-25T14:19:49.645Z</time>
      </trkpt>
      <trkpt lat="43.97308" lon="2.21915">
        <ele>292</ele>
        <time>2021-02-25T14:19:50.645Z</time>
      </trkpt>
      <trkpt lat="43.97308" lon="2.21917">
        <ele>293</ele>
        <time>2021-02-25T14:19:51.645Z</time>
      </trkpt>
      <trkpt lat="43.97308" lon="2.21918">
        <ele>293</ele>
        <time>2021-02-25T14:19:52.645Z</time>
      </trkpt>
      <trkpt lat="43.97308" lon="2.21918">
        <ele>293</ele>
        <time>2021-02-25T14:19:53.645Z</time>
      </trkpt>
      <trkpt lat="43.97308" lon="2.21919">
        <ele>293</ele>
        <time>2021-02-25T14:19:54.645Z</time>
      </trkpt>
      <trkpt lat="43.97308" lon="2.21919">
        <ele>293</ele>
        <time>2021-02-25T14:19:55.645Z</time>
      </trkpt>
      <trkpt lat="43.97308" lon="2.21919">
        <ele>293</ele>
        <time>2021-02-25T14:19:56.645Z</time>
      </trkpt>
      <trkpt lat="43.97309" lon="2.2192">
        <ele>293</ele>
        <time>2021-02-25T14:20:07.652Z</time>
      </trkpt>
      <trkpt lat="43.9731" lon="2.2192">
        <ele>293</ele>
        <time>2021-02-25T14:20:08.652Z</time>
      </trkpt>
      <trkpt lat="43.9731" lon="2.21921">
        <ele>293</ele>
        <time>2021-02-25T14:20:09.652Z</time>
      </trkpt>
      <trkpt lat="43.9731" lon="2.21921">
        <ele>293</ele>
        <time>2021-02-25T14:20:10.652Z</time>
      </trkpt>
      <trkpt lat="43.9731" lon="2.21921">
        <ele>293</ele>
        <time>2021-02-25T14:20:18.660Z</time>
      </trkpt>
      <trkpt lat="43.9731" lon="2.21921">
        <ele>293</ele>
        <time>2021-02-25T14:20:19.660Z</time>
      </trkpt>
      <trkpt lat="43.9731" lon="2.21923">
        <ele>291</ele>
        <time>2021-02-25T14:20:20.660Z</time>
      </trkpt>
      <trkpt lat="43.9731" lon="2.21922">
        <ele>291</ele>
        <time>2021-02-25T14:20:21.660Z</time>
      </trkpt>
      <trkpt lat="43.97309" lon="2.21922">
        <ele>291</ele>
        <time>2021-02-25T14:20:22.660Z</time>
      </trkpt>
      <trkpt lat="43.97308" lon="2.21921">
        <ele>291</ele>
        <time>2021-02-25T14:20:23.660Z</time>
      </trkpt>
      <trkpt lat="43.97308" lon="2.2192">
        <ele>291</ele>
        <time>2021-02-25T14:20:24.660Z</time>
      </trkpt>
      <trkpt lat="43.97308" lon="2.21919">
        <ele>291</ele>
        <time>2021-02-25T14:20:25.660Z</time>
      </trkpt>
      <trkpt lat="43.97308" lon="2.21918">
        <ele>291</ele>
        <time>2021-02-25T14:20:26.660Z</time>
      </trkpt>
      <trkpt lat="43.97308" lon="2.21917">
        <ele>291</ele>
        <time>2021-02-25T14:20:27.660Z</time>
      </trkpt>
      <trkpt lat="43.97308" lon="2.21916">
        <ele>291</ele>
        <time>2021-02-25T14:20:28.660Z</time>
      </trkpt>
      <trkpt lat="43.97308" lon="2.21915">
        <ele>291</ele>
        <time>2021-02-25T14:20:29.660Z</time>
      </trkpt>
      <trkpt lat="43.97308" lon="2.21914">
        <ele>291</ele>
        <time>2021-02-25T14:20:32.907Z</time>
      </trkpt>
      <trkpt lat="43.97309" lon="2.21913">
        <ele>291</ele>
        <time>2021-02-25T14:20:33.907Z</time>
      </trkpt>
      <trkpt lat="43.97309" lon="2.21912">
        <ele>291</ele>
        <time>2021-02-25T14:20:34.907Z</time>
      </trkpt>
      <trkpt lat="43.9731" lon="2.21911">
        <ele>291</ele>
        <time>2021-02-25T14:20:40.929Z</time>
      </trkpt>
      <trkpt lat="43.9731" lon="2.2191">
        <ele>291</ele>
        <time>2021-02-25T14:20:41.929Z</time>
      </trkpt>
      <trkpt lat="43.97311" lon="2.21909">
        <ele>291</ele>
        <time>2021-02-25T14:20:42.929Z</time>
      </trkpt>
      <trkpt lat="43.97312" lon="2.21908">
        <ele>291</ele>
        <time>2021-02-25T14:20:57.937Z</time>
      </trkpt>
      <trkpt lat="43.97312" lon="2.21907">
        <ele>291</ele>
        <time>2021-02-25T14:20:58.937Z</time>
      </trkpt>
      <trkpt lat="43.97313" lon="2.21906">
        <ele>291</ele>
        <time>2021-02-25T14:20:59.937Z</time>
      </trkpt>
      <trkpt lat="43.97314" lon="2.21905">
        <ele>291</ele>
        <time>2021-02-25T14:21:03.946Z</time>
      </trkpt>
      <trkpt lat="43.97314" lon="2.21905">
        <ele>291</ele>
        <time>2021-02-25T14:21:04.946Z</time>
      </trkpt>
      <trkpt lat="43.97315" lon="2.21904">
        <ele>291</ele>
        <time>2021-02-25T14:21:05.946Z</time>
      </trkpt>
      <trkpt lat="43.97316" lon="2.21903">
        <ele>291</ele>
        <time>2021-02-25T14:21:06.946Z</time>
      </trkpt>
      <trkpt lat="43.97316" lon="2.21902">
        <ele>291</ele>
        <time>2021-02-25T14:21:07.946Z</time>
      </trkpt>
      <trkpt lat="43.97317" lon="2.21901">
        <ele>291</ele>
        <time>2021-02-25T14:21:08.946Z</time>
      </trkpt>
      <trkpt lat="43.97318" lon="2.219">
        <ele>291</ele>
        <time>2021-02-25T14:21:09.946Z</time>
      </trkpt>
      <trkpt lat="43.97318" lon="2.21899">
        <ele>292</ele>
        <time>2021-02-25T14:21:10.946Z</time>
      </trkpt>
      <trkpt lat="43.97319" lon="2.21899">
        <ele>291</ele>
        <time>2021-02-25T14:21:11.946Z</time>
      </trkpt>
      <trkpt lat="43.9732" lon="2.21898">
        <ele>291</ele>
        <time>2021-02-25T14:21:12.946Z</time>
      </trkpt>
      <trkpt lat="43.9732" lon="2.21898">
        <ele>291</ele>
        <time>2021-02-25T14:21:13.946Z</time>
      </trkpt>
      <trkpt lat="43.9732" lon="2.21897">
        <ele>291</ele>
        <time>2021-02-25T14:21:14.946Z</time>
      </trkpt>
      <trkpt lat="43.97321" lon="2.21896">
        <ele>291</ele>
        <time>2021-02-25T14:21:15.946Z</time>
      </trkpt>
      <trkpt lat="43.97322" lon="2.21896">
        <ele>292</ele>
        <time>2021-02-25T14:21:16.946Z</time>
      </trkpt>
      <trkpt lat="43.97322" lon="2.21895">
        <ele>292</ele>
        <time>2021-02-25T14:21:17.946Z</time>
      </trkpt>
      <trkpt lat="43.97323" lon="2.21894">
        <ele>292</ele>
        <time>2021-02-25T14:21:18.946Z</time>
      </trkpt>
      <trkpt lat="43.97323" lon="2.21894">
        <ele>292</ele>
        <time>2021-02-25T14:21:19.946Z</time>
      </trkpt>
      <trkpt lat="43.97324" lon="2.21893">
        <ele>292</ele>
        <time>2021-02-25T14:21:20.946Z</time>
      </trkpt>
      <trkpt lat="43.97324" lon="2.21892">
        <ele>292</ele>
        <time>2021-02-25T14:21:21.946Z</time>
      </trkpt>
      <trkpt lat="43.97325" lon="2.21891">
        <ele>292</ele>
        <time>2021-02-25T14:21:22.946Z</time>
      </trkpt>
      <trkpt lat="43.97325" lon="2.2189">
        <ele>292</ele>
        <time>2021-02-25T14:21:23.946Z</time>
      </trkpt>
      <trkpt lat="43.97326" lon="2.21889">
        <ele>292</ele>
        <time>2021-02-25T14:21:24.946Z</time>
      </trkpt>
      <trkpt lat="43.97326" lon="2.21888">
        <ele>292</ele>
        <time>2021-02-25T14:21:25.946Z</time>
      </trkpt>
      <trkpt lat="43.97327" lon="2.21887">
        <ele>292</ele>
        <time>2021-02-25T14:21:26.946Z</time>
      </trkpt>
      <trkpt lat="43.97327" lon="2.21886">
        <ele>292</ele>
        <time>2021-02-25T14:21:27.946Z</time>
      </trkpt>
      <trkpt lat="43.97327" lon="2.21885">
        <ele>292</ele>
        <time>2021-02-25T14:21:28.946Z</time>
      </trkpt>
      <trkpt lat="43.97328" lon="2.21885">
        <ele>292</ele>
        <time>2021-02-25T14:21:29.946Z</time>
      </trkpt>
      <trkpt lat="43.97328" lon="2.21884">
        <ele>292</ele>
        <time>2021-02-25T14:21:30.946Z</time>
      </trkpt>
      <trkpt lat="43.97329" lon="2.21883">
        <ele>293</ele>
        <time>2021-02-25T14:21:31.946Z</time>
      </trkpt>
      <trkpt lat="43.9733" lon="2.21882">
        <ele>293</ele>
        <time>2021-02-25T14:21:32.946Z</time>
      </trkpt>
      <trkpt lat="43.9733" lon="2.21881">
        <ele>293</ele>
        <time>2021-02-25T14:21:33.946Z</time>
      </trkpt>
      <trkpt lat="43.97331" lon="2.2188">
        <ele>293</ele>
        <time>2021-02-25T14:21:34.946Z</time>
      </trkpt>
      <trkpt lat="43.97331" lon="2.2188">
        <ele>293</ele>
        <time>2021-02-25T14:21:35.946Z</time>
      </trkpt>
      <trkpt lat="43.97331" lon="2.21879">
        <ele>293</ele>
        <time>2021-02-25T14:21:36.946Z</time>
      </trkpt>
      <trkpt lat="43.97331" lon="2.21878">
        <ele>293</ele>
        <time>2021-02-25T14:21:37.946Z</time>
      </trkpt>
      <trkpt lat="43.97332" lon="2.21877">
        <ele>293</ele>
        <time>2021-02-25T14:21:38.946Z</time>
      </trkpt>
      <trkpt lat="43.97332" lon="2.21876">
        <ele>293</ele>
        <time>2021-02-25T14:21:39.946Z</time>
      </trkpt>
      <trkpt lat="43.97333" lon="2.21875">
        <ele>293</ele>
        <time>2021-02-25T14:21:40.946Z</time>
      </trkpt>
      <trkpt lat="43.97333" lon="2.21874">
        <ele>293</ele>
        <time>2021-02-25T14:21:41.946Z</time>
      </trkpt>
      <trkpt lat="43.97333" lon="2.21872">
        <ele>294</ele>
        <time>2021-02-25T14:21:42.946Z</time>
      </trkpt>
      <trkpt lat="43.97334" lon="2.21871">
        <ele>294</ele>
        <time>2021-02-25T14:21:43.946Z</time>
      </trkpt>
      <trkpt lat="43.97334" lon="2.2187">
        <ele>294</ele>
        <time>2021-02-25T14:21:44.946Z</time>
      </trkpt>
      <trkpt lat="43.97334" lon="2.21868">
        <ele>294</ele>
        <time>2021-02-25T14:21:45.946Z</time>
      </trkpt>
      <trkpt lat="43.97334" lon="2.21867">
        <ele>294</ele>
        <time>2021-02-25T14:21:46.946Z</time>
      </trkpt>
      <trkpt lat="43.97335" lon="2.21866">
        <ele>294</ele>
        <time>2021-02-25T14:21:47.946Z</time>
      </trkpt>
      <trkpt lat="43.97335" lon="2.21865">
        <ele>295</ele>
        <time>2021-02-25T14:21:48.946Z</time>
      </trkpt>
      <trkpt lat="43.97335" lon="2.21864">
        <ele>295</ele>
        <time>2021-02-25T14:21:49.946Z</time>
      </trkpt>
      <trkpt lat="43.97336" lon="2.21863">
        <ele>295</ele>
        <time>2021-02-25T14:21:50.946Z</time>
      </trkpt>
      <trkpt lat="43.97336" lon="2.21861">
        <ele>295</ele>
        <time>2021-02-25T14:21:51.946Z</time>
      </trkpt>
      <trkpt lat="43.97336" lon="2.2186">
        <ele>296</ele>
        <time>2021-02-25T14:21:52.946Z</time>
      </trkpt>
      <trkpt lat="43.97336" lon="2.21859">
        <ele>296</ele>
        <time>2021-02-25T14:21:53.946Z</time>
      </trkpt>
      <trkpt lat="43.97336" lon="2.21858">
        <ele>296</ele>
        <time>2021-02-25T14:21:54.946Z</time>
      </trkpt>
      <trkpt lat="43.97336" lon="2.21857">
        <ele>296</ele>
        <time>2021-02-25T14:21:55.946Z</time>
      </trkpt>
      <trkpt lat="43.97336" lon="2.21856">
        <ele>296</ele>
        <time>2021-02-25T14:21:56.946Z</time>
      </trkpt>
      <trkpt lat="43.97337" lon="2.21855">
        <ele>296</ele>
        <time>2021-02-25T14:21:57.946Z</time>
      </trkpt>
      <trkpt lat="43.97337" lon="2.21854">
        <ele>296</ele>
        <time>2021-02-25T14:21:58.946Z</time>
      </trkpt>
      <trkpt lat="43.97337" lon="2.21853">
        <ele>296</ele>
        <time>2021-02-25T14:21:59.946Z</time>
      </trkpt>
      <trkpt lat="43.97337" lon="2.21852">
        <ele>297</ele>
        <time>2021-02-25T14:22:00.946Z</time>
      </trkpt>
      <trkpt lat="43.97337" lon="2.2185">
        <ele>297</ele>
        <time>2021-02-25T14:22:01.946Z</time>
      </trkpt>
      <trkpt lat="43.97338" lon="2.21849">
        <ele>297</ele>
        <time>2021-02-25T14:22:02.946Z</time>
      </trkpt>
      <trkpt lat="43.97339" lon="2.21847">
        <ele>297</ele>
        <time>2021-02-25T14:22:03.946Z</time>
      </trkpt>
      <trkpt lat="43.97339" lon="2.21846">
        <ele>298</ele>
        <time>2021-02-25T14:22:04.946Z</time>
      </trkpt>
      <trkpt lat="43.97339" lon="2.21845">
        <ele>298</ele>
        <time>2021-02-25T14:22:05.946Z</time>
      </trkpt>
      <trkpt lat="43.9734" lon="2.21843">
        <ele>298</ele>
        <time>2021-02-25T14:22:06.946Z</time>
      </trkpt>
      <trkpt lat="43.9734" lon="2.21842">
        <ele>298</ele>
        <time>2021-02-25T14:22:07.946Z</time>
      </trkpt>
      <trkpt lat="43.97341" lon="2.2184">
        <ele>298</ele>
        <time>2021-02-25T14:22:08.946Z</time>
      </trkpt>
      <trkpt lat="43.97341" lon="2.21839">
        <ele>298</ele>
        <time>2021-02-25T14:22:09.946Z</time>
      </trkpt>
      <trkpt lat="43.97342" lon="2.21837">
        <ele>299</ele>
        <time>2021-02-25T14:22:10.946Z</time>
      </trkpt>
      <trkpt lat="43.97342" lon="2.21835">
        <ele>299</ele>
        <time>2021-02-25T14:22:11.946Z</time>
      </trkpt>
      <trkpt lat="43.97343" lon="2.21834">
        <ele>299</ele>
        <time>2021-02-25T14:22:12.946Z</time>
      </trkpt>
      <trkpt lat="43.97343" lon="2.21833">
        <ele>299</ele>
        <time>2021-02-25T14:22:13.946Z</time>
      </trkpt>
      <trkpt lat="43.97343" lon="2.21831">
        <ele>299</ele>
        <time>2021-02-25T14:22:14.946Z</time>
      </trkpt>
      <trkpt lat="43.97344" lon="2.2183">
        <ele>299</ele>
        <time>2021-02-25T14:22:15.946Z</time>
      </trkpt>
      <trkpt lat="43.97344" lon="2.21828">
        <ele>300</ele>
        <time>2021-02-25T14:22:16.946Z</time>
      </trkpt>
      <trkpt lat="43.97344" lon="2.21826">
        <ele>300</ele>
        <time>2021-02-25T14:22:17.946Z</time>
      </trkpt>
      <trkpt lat="43.97345" lon="2.21825">
        <ele>300</ele>
        <time>2021-02-25T14:22:18.946Z</time>
      </trkpt>
      <trkpt lat="43.97345" lon="2.21823">
        <ele>300</ele>
        <time>2021-02-25T14:22:19.946Z</time>
      </trkpt>
      <trkpt lat="43.97345" lon="2.21821">
        <ele>300</ele>
        <time>2021-02-25T14:22:20.946Z</time>
      </trkpt>
      <trkpt lat="43.97346" lon="2.2182">
        <ele>301</ele>
        <time>2021-02-25T14:22:21.946Z</time>
      </trkpt>
      <trkpt lat="43.97346" lon="2.21818">
        <ele>301</ele>
        <time>2021-02-25T14:22:22.946Z</time>
      </trkpt>
      <trkpt lat="43.97347" lon="2.21816">
        <ele>301</ele>
        <time>2021-02-25T14:22:23.946Z</time>
      </trkpt>
      <trkpt lat="43.97347" lon="2.21815">
        <ele>301</ele>
        <time>2021-02-25T14:22:24.946Z</time>
      </trkpt>
      <trkpt lat="43.97347" lon="2.21813">
        <ele>301</ele>
        <time>2021-02-25T14:22:25.946Z</time>
      </trkpt>
      <trkpt lat="43.97348" lon="2.21811">
        <ele>301</ele>
        <time>2021-02-25T14:22:26.946Z</time>
      </trkpt>
      <trkpt lat="43.97348" lon="2.2181">
        <ele>301</ele>
        <time>2021-02-25T14:22:27.946Z</time>
      </trkpt>
      <trkpt lat="43.97348" lon="2.21808">
        <ele>301</ele>
        <time>2021-02-25T14:22:28.946Z</time>
      </trkpt>
      <trkpt lat="43.97348" lon="2.21806">
        <ele>301</ele>
        <time>2021-02-25T14:22:29.946Z</time>
      </trkpt>
      <trkpt lat="43.97348" lon="2.21804">
        <ele>301</ele>
        <time>2021-02-25T14:22:30.946Z</time>
      </trkpt>
      <trkpt lat="43.97348" lon="2.21803">
        <ele>301</ele>
        <time>2021-02-25T14:22:31.946Z</time>
      </trkpt>
      <trkpt lat="43.97348" lon="2.21802">
        <ele>301</ele>
        <time>2021-02-25T14:22:32.946Z</time>
      </trkpt>
      <trkpt lat="43.97348" lon="2.21801">
        <ele>301</ele>
        <time>2021-02-25T14:22:33.946Z</time>
      </trkpt>
      <trkpt lat="43.97348" lon="2.21799">
        <ele>301</ele>
        <time>2021-02-25T14:22:34.946Z</time>
      </trkpt>
      <trkpt lat="43.97348" lon="2.21798">
        <ele>301</ele>
        <time>2021-02-25T14:22:35.946Z</time>
      </trkpt>
      <trkpt lat="43.97348" lon="2.21797">
        <ele>301</ele>
        <time>2021-02-25T14:22:36.946Z</time>
      </trkpt>
      <trkpt lat="43.97348" lon="2.21795">
        <ele>301</ele>
        <time>2021-02-25T14:22:37.946Z</time>
      </trkpt>
      <trkpt lat="43.97348" lon="2.21794">
        <ele>301</ele>
        <time>2021-02-25T14:22:38.946Z</time>
      </trkpt>
      <trkpt lat="43.97348" lon="2.21793">
        <ele>301</ele>
        <time>2021-02-25T14:22:39.946Z</time>
      </trkpt>
      <trkpt lat="43.97348" lon="2.21791">
        <ele>301</ele>
        <time>2021-02-25T14:22:40.946Z</time>
      </trkpt>
      <trkpt lat="43.97348" lon="2.2179">
        <ele>301</ele>
        <time>2021-02-25T14:22:41.946Z</time>
      </trkpt>
      <trkpt lat="43.97347" lon="2.21789">
        <ele>301</ele>
        <time>2021-02-25T14:22:42.946Z</time>
      </trkpt>
      <trkpt lat="43.97347" lon="2.21788">
        <ele>301</ele>
        <time>2021-02-25T14:22:43.946Z</time>
      </trkpt>
      <trkpt lat="43.97347" lon="2.21786">
        <ele>301</ele>
        <time>2021-02-25T14:22:44.946Z</time>
      </trkpt>
      <trkpt lat="43.97347" lon="2.21786">
        <ele>301</ele>
        <time>2021-02-25T14:22:45.946Z</time>
      </trkpt>
      <trkpt lat="43.97347" lon="2.21786">
        <ele>301</ele>
        <time>2021-02-25T14:22:46.946Z</time>
      </trkpt>
      <trkpt lat="43.97347" lon="2.21785">
        <ele>301</ele>
        <time>2021-02-25T14:22:47.946Z</time>
      </trkpt>
      <trkpt lat="43.97347" lon="2.21784">
        <ele>300</ele>
        <time>2021-02-25T14:22:48.946Z</time>
      </trkpt>
      <trkpt lat="43.97347" lon="2.21782">
        <ele>300</ele>
        <time>2021-02-25T14:22:49.946Z</time>
      </trkpt>
      <trkpt lat="43.97346" lon="2.2178">
        <ele>300</ele>
        <time>2021-02-25T14:22:50.946Z</time>
      </trkpt>
      <trkpt lat="43.97346" lon="2.21778">
        <ele>300</ele>
        <time>2021-02-25T14:22:51.946Z</time>
      </trkpt>
      <trkpt lat="43.97346" lon="2.21777">
        <ele>300</ele>
        <time>2021-02-25T14:22:52.946Z</time>
      </trkpt>
      <trkpt lat="43.97346" lon="2.21775">
        <ele>300</ele>
        <time>2021-02-25T14:22:53.946Z</time>
      </trkpt>
      <trkpt lat="43.97345" lon="2.21773">
        <ele>300</ele>
        <time>2021-02-25T14:22:54.946Z</time>
      </trkpt>
      <trkpt lat="43.97345" lon="2.21771">
        <ele>300</ele>
        <time>2021-02-25T14:22:55.946Z</time>
      </trkpt>
      <trkpt lat="43.97345" lon="2.2177">
        <ele>300</ele>
        <time>2021-02-25T14:22:56.946Z</time>
      </trkpt>
      <trkpt lat="43.97345" lon="2.21768">
        <ele>300</ele>
        <time>2021-02-25T14:22:57.946Z</time>
      </trkpt>
      <trkpt lat="43.97345" lon="2.21766">
        <ele>300</ele>
        <time>2021-02-25T14:22:58.946Z</time>
      </trkpt>
      <trkpt lat="43.97344" lon="2.21764">
        <ele>300</ele>
        <time>2021-02-25T14:22:59.946Z</time>
      </trkpt>
      <trkpt lat="43.97344" lon="2.21762">
        <ele>300</ele>
        <time>2021-02-25T14:23:00.946Z</time>
      </trkpt>
      <trkpt lat="43.97344" lon="2.2176">
        <ele>300</ele>
        <time>2021-02-25T14:23:01.946Z</time>
      </trkpt>
      <trkpt lat="43.97344" lon="2.21758">
        <ele>300</ele>
        <time>2021-02-25T14:23:02.946Z</time>
      </trkpt>
      <trkpt lat="43.97343" lon="2.21756">
        <ele>300</ele>
        <time>2021-02-25T14:23:03.946Z</time>
      </trkpt>
      <trkpt lat="43.97343" lon="2.21754">
        <ele>300</ele>
        <time>2021-02-25T14:23:04.946Z</time>
      </trkpt>
      <trkpt lat="43.97343" lon="2.21752">
        <ele>300</ele>
        <time>2021-02-25T14:23:05.946Z</time>
      </trkpt>
      <trkpt lat="43.97343" lon="2.2175">
        <ele>300</ele>
        <time>2021-02-25T14:23:06.946Z</time>
      </trkpt>
      <trkpt lat="43.97343" lon="2.21748">
        <ele>300</ele>
        <time>2021-02-25T14:23:07.946Z</time>
      </trkpt>
      <trkpt lat="43.97342" lon="2.21746">
        <ele>300</ele>
        <time>2021-02-25T14:23:08.946Z</time>
      </trkpt>
      <trkpt lat="43.97342" lon="2.21744">
        <ele>300</ele>
        <time>2021-02-25T14:23:09.946Z</time>
      </trkpt>
      <trkpt lat="43.97342" lon="2.21742">
        <ele>300</ele>
        <time>2021-02-25T14:23:10.946Z</time>
      </trkpt>
      <trkpt lat="43.97342" lon="2.2174">
        <ele>300</ele>
        <time>2021-02-25T14:23:11.946Z</time>
      </trkpt>
      <trkpt lat="43.97342" lon="2.21738">
        <ele>300</ele>
        <time>2021-02-25T14:23:12.946Z</time>
      </trkpt>
      <trkpt lat="43.97341" lon="2.21737">
        <ele>300</ele>
        <time>2021-02-25T14:23:13.946Z</time>
      </trkpt>
      <trkpt lat="43.97341" lon="2.21735">
        <ele>300</ele>
        <time>2021-02-25T14:23:14.946Z</time>
      </trkpt>
      <trkpt lat="43.97341" lon="2.21733">
        <ele>300</ele>
        <time>2021-02-25T14:23:15.946Z</time>
      </trkpt>
      <trkpt lat="43.97341" lon="2.21732">
        <ele>300</ele>
        <time>2021-02-25T14:23:16.946Z</time>
      </trkpt>
      <trkpt lat="43.9734" lon="2.2173">
        <ele>300</ele>
        <time>2021-02-25T14:23:17.946Z</time>
      </trkpt>
      <trkpt lat="43.9734" lon="2.21728">
        <ele>300</ele>
        <time>2021-02-25T14:23:18.946Z</time>
      </trkpt>
      <trkpt lat="43.9734" lon="2.21726">
        <ele>300</ele>
        <time>2021-02-25T14:23:19.946Z</time>
      </trkpt>
      <trkpt lat="43.9734" lon="2.21724">
        <ele>300</ele>
        <time>2021-02-25T14:23:20.946Z</time>
      </trkpt>
      <trkpt lat="43.9734" lon="2.21722">
        <ele>300</ele>
        <time>2021-02-25T14:23:21.946Z</time>
      </trkpt>
      <trkpt lat="43.97339" lon="2.2172">
        <ele>300</ele>
        <time>2021-02-25T14:23:22.946Z</time>
      </trkpt>
      <trkpt lat="43.97339" lon="2.21719">
        <ele>300</ele>
        <time>2021-02-25T14:23:23.946Z</time>
      </trkpt>
      <trkpt lat="43.97339" lon="2.21717">
        <ele>300</ele>
        <time>2021-02-25T14:23:24.946Z</time>
      </trkpt>
      <trkpt lat="43.97339" lon="2.21715">
        <ele>300</ele>
        <time>2021-02-25T14:23:25.946Z</time>
      </trkpt>
      <trkpt lat="43.97338" lon="2.21713">
        <ele>300</ele>
        <time>2021-02-25T14:23:26.946Z</time>
      </trkpt>
      <trkpt lat="43.97338" lon="2.21711">
        <ele>300</ele>
        <time>2021-02-25T14:23:27.946Z</time>
      </trkpt>
      <trkpt lat="43.97338" lon="2.2171">
        <ele>300</ele>
        <time>2021-02-25T14:23:28.946Z</time>
      </trkpt>
      <trkpt lat="43.97338" lon="2.21708">
        <ele>300</ele>
        <time>2021-02-25T14:23:29.946Z</time>
      </trkpt>
      <trkpt lat="43.97337" lon="2.21706">
        <ele>300</ele>
        <time>2021-02-25T14:23:30.946Z</time>
      </trkpt>
      <trkpt lat="43.97337" lon="2.21704">
        <ele>300</ele>
        <time>2021-02-25T14:23:31.946Z</time>
      </trkpt>
      <trkpt lat="43.97337" lon="2.21703">
        <ele>300</ele>
        <time>2021-02-25T14:23:32.946Z</time>
      </trkpt>
      <trkpt lat="43.97337" lon="2.21701">
        <ele>300</ele>
        <time>2021-02-25T14:23:33.946Z</time>
      </trkpt>
      <trkpt lat="43.97336" lon="2.21699">
        <ele>300</ele>
        <time>2021-02-25T14:23:34.946Z</time>
      </trkpt>
      <trkpt lat="43.97336" lon="2.21697">
        <ele>300</ele>
        <time>2021-02-25T14:23:35.946Z</time>
      </trkpt>
      <trkpt lat="43.97336" lon="2.21695">
        <ele>299</ele>
        <time>2021-02-25T14:23:36.946Z</time>
      </trkpt>
      <trkpt lat="43.97335" lon="2.21694">
        <ele>299</ele>
        <time>2021-02-25T14:23:37.946Z</time>
      </trkpt>
      <trkpt lat="43.97335" lon="2.21692">
        <ele>299</ele>
        <time>2021-02-25T14:23:38.946Z</time>
      </trkpt>
      <trkpt lat="43.97335" lon="2.2169">
        <ele>299</ele>
        <time>2021-02-25T14:23:39.946Z</time>
      </trkpt>
      <trkpt lat="43.97334" lon="2.21688">
        <ele>299</ele>
        <time>2021-02-25T14:23:40.946Z</time>
      </trkpt>
      <trkpt lat="43.97334" lon="2.21687">
        <ele>299</ele>
        <time>2021-02-25T14:23:41.946Z</time>
      </trkpt>
      <trkpt lat="43.97333" lon="2.21685">
        <ele>299</ele>
        <time>2021-02-25T14:23:42.946Z</time>
      </trkpt>
      <trkpt lat="43.97333" lon="2.21683">
        <ele>299</ele>
        <time>2021-02-25T14:23:43.946Z</time>
      </trkpt>
      <trkpt lat="43.97332" lon="2.21682">
        <ele>299</ele>
        <time>2021-02-25T14:23:44.946Z</time>
      </trkpt>
      <trkpt lat="43.97332" lon="2.2168">
        <ele>299</ele>
        <time>2021-02-25T14:23:45.946Z</time>
      </trkpt>
      <trkpt lat="43.97331" lon="2.21678">
        <ele>299</ele>
        <time>2021-02-25T14:23:46.946Z</time>
      </trkpt>
      <trkpt lat="43.97331" lon="2.21676">
        <ele>299</ele>
        <time>2021-02-25T14:23:47.946Z</time>
      </trkpt>
      <trkpt lat="43.9733" lon="2.21675">
        <ele>299</ele>
        <time>2021-02-25T14:23:48.946Z</time>
      </trkpt>
      <trkpt lat="43.9733" lon="2.21673">
        <ele>299</ele>
        <time>2021-02-25T14:23:49.946Z</time>
      </trkpt>
      <trkpt lat="43.97329" lon="2.21671">
        <ele>299</ele>
        <time>2021-02-25T14:23:50.946Z</time>
      </trkpt>
      <trkpt lat="43.97329" lon="2.2167">
        <ele>299</ele>
        <time>2021-02-25T14:23:51.946Z</time>
      </trkpt>
      <trkpt lat="43.97328" lon="2.21668">
        <ele>299</ele>
        <time>2021-02-25T14:23:52.946Z</time>
      </trkpt>
      <trkpt lat="43.97328" lon="2.21666">
        <ele>299</ele>
        <time>2021-02-25T14:23:53.946Z</time>
      </trkpt>
      <trkpt lat="43.97327" lon="2.21664">
        <ele>299</ele>
        <time>2021-02-25T14:23:54.946Z</time>
      </trkpt>
      <trkpt lat="43.97327" lon="2.21663">
        <ele>299</ele>
        <time>2021-02-25T14:23:55.946Z</time>
      </trkpt>
      <trkpt lat="43.97326" lon="2.21661">
        <ele>299</ele>
        <time>2021-02-25T14:23:56.946Z</time>
      </trkpt>
      <trkpt lat="43.97326" lon="2.2166">
        <ele>299</ele>
        <time>2021-02-25T14:23:57.946Z</time>
      </trkpt>
      <trkpt lat="43.97325" lon="2.21658">
        <ele>299</ele>
        <time>2021-02-25T14:23:58.946Z</time>
      </trkpt>
      <trkpt lat="43.97324" lon="2.21657">
        <ele>299</ele>
        <time>2021-02-25T14:23:59.946Z</time>
      </trkpt>
      <trkpt lat="43.97324" lon="2.21655">
        <ele>299</ele>
        <time>2021-02-25T14:24:00.946Z</time>
      </trkpt>
      <trkpt lat="43.97323" lon="2.21653">
        <ele>299</ele>
        <time>2021-02-25T14:24:01.946Z</time>
      </trkpt>
      <trkpt lat="43.97323" lon="2.21651">
        <ele>299</ele>
        <time>2021-02-25T14:24:02.946Z</time>
      </trkpt>
      <trkpt lat="43.97323" lon="2.2165">
        <ele>299</ele>
        <time>2021-02-25T14:24:03.946Z</time>
      </trkpt>
      <trkpt lat="43.97323" lon="2.21649">
        <ele>299</ele>
        <time>2021-02-25T14:24:04.946Z</time>
      </trkpt>
      <trkpt lat="43.97322" lon="2.21648">
        <ele>299</ele>
        <time>2021-02-25T14:24:05.946Z</time>
      </trkpt>
      <trkpt lat="43.97322" lon="2.21646">
        <ele>299</ele>
        <time>2021-02-25T14:24:06.946Z</time>
      </trkpt>
      <trkpt lat="43.97321" lon="2.21645">
        <ele>299</ele>
        <time>2021-02-25T14:24:07.946Z</time>
      </trkpt>
      <trkpt lat="43.9732" lon="2.21644">
        <ele>299</ele>
        <time>2021-02-25T14:24:08.946Z</time>
      </trkpt>
      <trkpt lat="43.9732" lon="2.21643">
        <ele>299</ele>
        <time>2021-02-25T14:24:09.946Z</time>
      </trkpt>
      <trkpt lat="43.97319" lon="2.21642">
        <ele>299</ele>
        <time>2021-02-25T14:24:10.946Z</time>
      </trkpt>
      <trkpt lat="43.97318" lon="2.2164">
        <ele>299</ele>
        <time>2021-02-25T14:24:11.946Z</time>
      </trkpt>
      <trkpt lat="43.97317" lon="2.2164">
        <ele>299</ele>
        <time>2021-02-25T14:24:12.946Z</time>
      </trkpt>
      <trkpt lat="43.97317" lon="2.21638">
        <ele>299</ele>
        <time>2021-02-25T14:24:13.946Z</time>
      </trkpt>
      <trkpt lat="43.97316" lon="2.21637">
        <ele>299</ele>
        <time>2021-02-25T14:24:14.946Z</time>
      </trkpt>
      <trkpt lat="43.97315" lon="2.21636">
        <ele>299</ele>
        <time>2021-02-25T14:24:15.946Z</time>
      </trkpt>
      <trkpt lat="43.97314" lon="2.21636">
        <ele>299</ele>
        <time>2021-02-25T14:24:16.946Z</time>
      </trkpt>
      <trkpt lat="43.97313" lon="2.21635">
        <ele>299</ele>
        <time>2021-02-25T14:24:17.946Z</time>
      </trkpt>
      <trkpt lat="43.97313" lon="2.21634">
        <ele>299</ele>
        <time>2021-02-25T14:24:18.946Z</time>
      </trkpt>
      <trkpt lat="43.97312" lon="2.21633">
        <ele>298</ele>
        <time>2021-02-25T14:24:19.946Z</time>
      </trkpt>
      <trkpt lat="43.97311" lon="2.21632">
        <ele>298</ele>
        <time>2021-02-25T14:24:20.946Z</time>
      </trkpt>
      <trkpt lat="43.9731" lon="2.21631">
        <ele>298</ele>
        <time>2021-02-25T14:24:21.946Z</time>
      </trkpt>
      <trkpt lat="43.97309" lon="2.2163">
        <ele>298</ele>
        <time>2021-02-25T14:24:22.946Z</time>
      </trkpt>
      <trkpt lat="43.97308" lon="2.21628">
        <ele>298</ele>
        <time>2021-02-25T14:24:23.946Z</time>
      </trkpt>
      <trkpt lat="43.97308" lon="2.21627">
        <ele>298</ele>
        <time>2021-02-25T14:24:24.946Z</time>
      </trkpt>
      <trkpt lat="43.97307" lon="2.21626">
        <ele>298</ele>
        <time>2021-02-25T14:24:25.946Z</time>
      </trkpt>
      <trkpt lat="43.97306" lon="2.21625">
        <ele>298</ele>
        <time>2021-02-25T14:24:26.946Z</time>
      </trkpt>
      <trkpt lat="43.97305" lon="2.21624">
        <ele>298</ele>
        <time>2021-02-25T14:24:27.946Z</time>
      </trkpt>
      <trkpt lat="43.97304" lon="2.21623">
        <ele>298</ele>
        <time>2021-02-25T14:24:28.946Z</time>
      </trkpt>
      <trkpt lat="43.97303" lon="2.21621">
        <ele>298</ele>
        <time>2021-02-25T14:24:29.946Z</time>
      </trkpt>
      <trkpt lat="43.97303" lon="2.2162">
        <ele>298</ele>
        <time>2021-02-25T14:24:30.946Z</time>
      </trkpt>
      <trkpt lat="43.97302" lon="2.21619">
        <ele>298</ele>
        <time>2021-02-25T14:24:31.946Z</time>
      </trkpt>
      <trkpt lat="43.97301" lon="2.21618">
        <ele>298</ele>
        <time>2021-02-25T14:24:32.946Z</time>
      </trkpt>
      <trkpt lat="43.973" lon="2.21617">
        <ele>298</ele>
        <time>2021-02-25T14:24:33.946Z</time>
      </trkpt>
      <trkpt lat="43.97299" lon="2.21616">
        <ele>298</ele>
        <time>2021-02-25T14:24:34.946Z</time>
      </trkpt>
      <trkpt lat="43.97299" lon="2.21615">
        <ele>298</ele>
        <time>2021-02-25T14:24:35.946Z</time>
      </trkpt>
      <trkpt lat="43.97298" lon="2.21614">
        <ele>298</ele>
        <time>2021-02-25T14:24:36.946Z</time>
      </trkpt>
      <trkpt lat="43.97297" lon="2.21613">
        <ele>298</ele>
        <time>2021-02-25T14:24:37.946Z</time>
      </trkpt>
      <trkpt lat="43.97296" lon="2.21612">
        <ele>298</ele>
        <time>2021-02-25T14:24:38.946Z</time>
      </trkpt>
      <trkpt lat="43.97295" lon="2.21611">
        <ele>298</ele>
        <time>2021-02-25T14:24:39.946Z</time>
      </trkpt>
      <trkpt lat="43.97294" lon="2.2161">
        <ele>299</ele>
        <time>2021-02-25T14:24:40.946Z</time>
      </trkpt>
      <trkpt lat="43.97293" lon="2.21609">
        <ele>298</ele>
        <time>2021-02-25T14:24:41.946Z</time>
      </trkpt>
      <trkpt lat="43.97292" lon="2.21608">
        <ele>298</ele>
        <time>2021-02-25T14:24:42.946Z</time>
      </trkpt>
      <trkpt lat="43.97291" lon="2.21607">
        <ele>298</ele>
        <time>2021-02-25T14:24:43.946Z</time>
      </trkpt>
      <trkpt lat="43.9729" lon="2.21606">
        <ele>298</ele>
        <time>2021-02-25T14:24:44.946Z</time>
      </trkpt>
      <trkpt lat="43.97289" lon="2.21605">
        <ele>298</ele>
        <time>2021-02-25T14:24:45.946Z</time>
      </trkpt>
      <trkpt lat="43.97288" lon="2.21604">
        <ele>298</ele>
        <time>2021-02-25T14:24:46.946Z</time>
      </trkpt>
      <trkpt lat="43.97287" lon="2.21603">
        <ele>298</ele>
        <time>2021-02-25T14:24:47.946Z</time>
      </trkpt>
      <trkpt lat="43.97286" lon="2.21602">
        <ele>298</ele>
        <time>2021-02-25T14:24:48.946Z</time>
      </trkpt>
      <trkpt lat="43.97285" lon="2.21601">
        <ele>298</ele>
        <time>2021-02-25T14:24:49.946Z</time>
      </trkpt>
      <trkpt lat="43.97284" lon="2.216">
        <ele>298</ele>
        <time>2021-02-25T14:24:50.946Z</time>
      </trkpt>
      <trkpt lat="43.97283" lon="2.21599">
        <ele>297</ele>
        <time>2021-02-25T14:24:51.946Z</time>
      </trkpt>
      <trkpt lat="43.97281" lon="2.21598">
        <ele>297</ele>
        <time>2021-02-25T14:24:52.946Z</time>
      </trkpt>
      <trkpt lat="43.9728" lon="2.21598">
        <ele>297</ele>
        <time>2021-02-25T14:24:53.946Z</time>
      </trkpt>
      <trkpt lat="43.97279" lon="2.21597">
        <ele>297</ele>
        <time>2021-02-25T14:24:54.946Z</time>
      </trkpt>
      <trkpt lat="43.97278" lon="2.21596">
        <ele>297</ele>
        <time>2021-02-25T14:24:55.946Z</time>
      </trkpt>
      <trkpt lat="43.97277" lon="2.21595">
        <ele>297</ele>
        <time>2021-02-25T14:24:56.946Z</time>
      </trkpt>
      <trkpt lat="43.97276" lon="2.21594">
        <ele>297</ele>
        <time>2021-02-25T14:24:57.946Z</time>
      </trkpt>
      <trkpt lat="43.97275" lon="2.21593">
        <ele>297</ele>
        <time>2021-02-25T14:24:58.946Z</time>
      </trkpt>
      <trkpt lat="43.97274" lon="2.21593">
        <ele>297</ele>
        <time>2021-02-25T14:24:59.946Z</time>
      </trkpt>
      <trkpt lat="43.97273" lon="2.21592">
        <ele>297</ele>
        <time>2021-02-25T14:25:00.946Z</time>
      </trkpt>
      <trkpt lat="43.97272" lon="2.21592">
        <ele>297</ele>
        <time>2021-02-25T14:25:01.946Z</time>
      </trkpt>
      <trkpt lat="43.97271" lon="2.21591">
        <ele>297</ele>
        <time>2021-02-25T14:25:02.946Z</time>
      </trkpt>
      <trkpt lat="43.97269" lon="2.21591">
        <ele>297</ele>
        <time>2021-02-25T14:25:03.946Z</time>
      </trkpt>
      <trkpt lat="43.97268" lon="2.2159">
        <ele>297</ele>
        <time>2021-02-25T14:25:04.946Z</time>
      </trkpt>
      <trkpt lat="43.97267" lon="2.2159">
        <ele>297</ele>
        <time>2021-02-25T14:25:08.176Z</time>
      </trkpt>
      <trkpt lat="43.97266" lon="2.2159">
        <ele>297</ele>
        <time>2021-02-25T14:25:09.176Z</time>
      </trkpt>
      <trkpt lat="43.97265" lon="2.21589">
        <ele>297</ele>
        <time>2021-02-25T14:25:10.176Z</time>
      </trkpt>
      <trkpt lat="43.97263" lon="2.21589">
        <ele>297</ele>
        <time>2021-02-25T14:25:11.176Z</time>
      </trkpt>
      <trkpt lat="43.97262" lon="2.21588">
        <ele>297</ele>
        <time>2021-02-25T14:25:12.176Z</time>
      </trkpt>
      <trkpt lat="43.97261" lon="2.21588">
        <ele>297</ele>
        <time>2021-02-25T14:25:13.176Z</time>
      </trkpt>
      <trkpt lat="43.9726" lon="2.21588">
        <ele>297</ele>
        <time>2021-02-25T14:25:14.176Z</time>
      </trkpt>
      <trkpt lat="43.97259" lon="2.21587">
        <ele>297</ele>
        <time>2021-02-25T14:25:15.176Z</time>
      </trkpt>
      <trkpt lat="43.97258" lon="2.21587">
        <ele>297</ele>
        <time>2021-02-25T14:25:16.176Z</time>
      </trkpt>
      <trkpt lat="43.97256" lon="2.21587">
        <ele>297</ele>
        <time>2021-02-25T14:25:17.176Z</time>
      </trkpt>
      <trkpt lat="43.97255" lon="2.21586">
        <ele>297</ele>
        <time>2021-02-25T14:25:18.176Z</time>
      </trkpt>
      <trkpt lat="43.97254" lon="2.21586">
        <ele>297</ele>
        <time>2021-02-25T14:25:19.176Z</time>
      </trkpt>
      <trkpt lat="43.97253" lon="2.21586">
        <ele>297</ele>
        <time>2021-02-25T14:25:20.176Z</time>
      </trkpt>
      <trkpt lat="43.97252" lon="2.21586">
        <ele>297</ele>
        <time>2021-02-25T14:25:21.176Z</time>
      </trkpt>
      <trkpt lat="43.97251" lon="2.21585">
        <ele>297</ele>
        <time>2021-02-25T14:25:22.176Z</time>
      </trkpt>
      <trkpt lat="43.9725" lon="2.21585">
        <ele>297</ele>
        <time>2021-02-25T14:25:23.176Z</time>
      </trkpt>
      <trkpt lat="43.97248" lon="2.21585">
        <ele>297</ele>
        <time>2021-02-25T14:25:24.176Z</time>
      </trkpt>
      <trkpt lat="43.97247" lon="2.21585">
        <ele>297</ele>
        <time>2021-02-25T14:25:25.176Z</time>
      </trkpt>
      <trkpt lat="43.97246" lon="2.21585">
        <ele>297</ele>
        <time>2021-02-25T14:25:26.176Z</time>
      </trkpt>
      <trkpt lat="43.97245" lon="2.21585">
        <ele>296</ele>
        <time>2021-02-25T14:25:27.176Z</time>
      </trkpt>
      <trkpt lat="43.97244" lon="2.21585">
        <ele>296</ele>
        <time>2021-02-25T14:25:28.176Z</time>
      </trkpt>
      <trkpt lat="43.97242" lon="2.21585">
        <ele>296</ele>
        <time>2021-02-25T14:25:29.176Z</time>
      </trkpt>
      <trkpt lat="43.97241" lon="2.21585">
        <ele>296</ele>
        <time>2021-02-25T14:25:30.176Z</time>
      </trkpt>
      <trkpt lat="43.9724" lon="2.21585">
        <ele>296</ele>
        <time>2021-02-25T14:25:31.176Z</time>
      </trkpt>
      <trkpt lat="43.97239" lon="2.21585">
        <ele>296</ele>
        <time>2021-02-25T14:25:32.176Z</time>
      </trkpt>
      <trkpt lat="43.97238" lon="2.21586">
        <ele>296</ele>
        <time>2021-02-25T14:25:33.176Z</time>
      </trkpt>
      <trkpt lat="43.97237" lon="2.21585">
        <ele>297</ele>
        <time>2021-02-25T14:25:34.176Z</time>
      </trkpt>
      <trkpt lat="43.97236" lon="2.21586">
        <ele>296</ele>
        <time>2021-02-25T14:25:35.176Z</time>
      </trkpt>
      <trkpt lat="43.97235" lon="2.21586">
        <ele>297</ele>
        <time>2021-02-25T14:25:36.176Z</time>
      </trkpt>
      <trkpt lat="43.97234" lon="2.21586">
        <ele>297</ele>
        <time>2021-02-25T14:25:37.176Z</time>
      </trkpt>
      <trkpt lat="43.97232" lon="2.21586">
        <ele>297</ele>
        <time>2021-02-25T14:25:38.176Z</time>
      </trkpt>
      <trkpt lat="43.97231" lon="2.21585">
        <ele>296</ele>
        <time>2021-02-25T14:25:39.176Z</time>
      </trkpt>
      <trkpt lat="43.9723" lon="2.21585">
        <ele>296</ele>
        <time>2021-02-25T14:25:40.176Z</time>
      </trkpt>
      <trkpt lat="43.97228" lon="2.21585">
        <ele>296</ele>
        <time>2021-02-25T14:25:41.176Z</time>
      </trkpt>
      <trkpt lat="43.97227" lon="2.21585">
        <ele>296</ele>
        <time>2021-02-25T14:25:42.176Z</time>
      </trkpt>
      <trkpt lat="43.97226" lon="2.21585">
        <ele>296</ele>
        <time>2021-02-25T14:25:43.176Z</time>
      </trkpt>
      <trkpt lat="43.97225" lon="2.21585">
        <ele>296</ele>
        <time>2021-02-25T14:25:44.176Z</time>
      </trkpt>
      <trkpt lat="43.97223" lon="2.21585">
        <ele>296</ele>
        <time>2021-02-25T14:25:45.176Z</time>
      </trkpt>
      <trkpt lat="43.97222" lon="2.21584">
        <ele>296</ele>
        <time>2021-02-25T14:25:46.176Z</time>
      </trkpt>
      <trkpt lat="43.97221" lon="2.21584">
        <ele>296</ele>
        <time>2021-02-25T14:25:47.176Z</time>
      </trkpt>
      <trkpt lat="43.9722" lon="2.21584">
        <ele>296</ele>
        <time>2021-02-25T14:25:48.176Z</time>
      </trkpt>
      <trkpt lat="43.97219" lon="2.21584">
        <ele>296</ele>
        <time>2021-02-25T14:25:49.176Z</time>
      </trkpt>
      <trkpt lat="43.97217" lon="2.21584">
        <ele>296</ele>
        <time>2021-02-25T14:25:50.176Z</time>
      </trkpt>
      <trkpt lat="43.97216" lon="2.21585">
        <ele>296</ele>
        <time>2021-02-25T14:25:51.176Z</time>
      </trkpt>
      <trkpt lat="43.97215" lon="2.21585">
        <ele>296</ele>
        <time>2021-02-25T14:25:52.176Z</time>
      </trkpt>
      <trkpt lat="43.97214" lon="2.21585">
        <ele>296</ele>
        <time>2021-02-25T14:25:53.176Z</time>
      </trkpt>
      <trkpt lat="43.97213" lon="2.21585">
        <ele>296</ele>
        <time>2021-02-25T14:25:54.176Z</time>
      </trkpt>
      <trkpt lat="43.97212" lon="2.21586">
        <ele>296</ele>
        <time>2021-02-25T14:25:55.176Z</time>
      </trkpt>
      <trkpt lat="43.97211" lon="2.21586">
        <ele>296</ele>
        <time>2021-02-25T14:25:56.176Z</time>
      </trkpt>
      <trkpt lat="43.9721" lon="2.21586">
        <ele>296</ele>
        <time>2021-02-25T14:25:57.176Z</time>
      </trkpt>
      <trkpt lat="43.97209" lon="2.21586">
        <ele>296</ele>
        <time>2021-02-25T14:25:58.176Z</time>
      </trkpt>
      <trkpt lat="43.97207" lon="2.21586">
        <ele>296</ele>
        <time>2021-02-25T14:25:59.176Z</time>
      </trkpt>
      <trkpt lat="43.97206" lon="2.21587">
        <ele>296</ele>
        <time>2021-02-25T14:26:00.176Z</time>
      </trkpt>
      <trkpt lat="43.97205" lon="2.21587">
        <ele>296</ele>
        <time>2021-02-25T14:26:01.176Z</time>
      </trkpt>
      <trkpt lat="43.97204" lon="2.21587">
        <ele>296</ele>
        <time>2021-02-25T14:26:02.176Z</time>
      </trkpt>
      <trkpt lat="43.97203" lon="2.21587">
        <ele>296</ele>
        <time>2021-02-25T14:26:03.176Z</time>
      </trkpt>
      <trkpt lat="43.97202" lon="2.21588">
        <ele>296</ele>
        <time>2021-02-25T14:26:04.176Z</time>
      </trkpt>
      <trkpt lat="43.97201" lon="2.21588">
        <ele>296</ele>
        <time>2021-02-25T14:26:05.176Z</time>
      </trkpt>
      <trkpt lat="43.972" lon="2.21588">
        <ele>296</ele>
        <time>2021-02-25T14:26:06.176Z</time>
      </trkpt>
      <trkpt lat="43.97199" lon="2.21589">
        <ele>296</ele>
        <time>2021-02-25T14:26:07.176Z</time>
      </trkpt>
      <trkpt lat="43.97197" lon="2.21589">
        <ele>296</ele>
        <time>2021-02-25T14:26:08.176Z</time>
      </trkpt>
      <trkpt lat="43.97196" lon="2.21589">
        <ele>296</ele>
        <time>2021-02-25T14:26:09.176Z</time>
      </trkpt>
      <trkpt lat="43.97195" lon="2.21589">
        <ele>296</ele>
        <time>2021-02-25T14:26:10.176Z</time>
      </trkpt>
      <trkpt lat="43.97194" lon="2.21589">
        <ele>296</ele>
        <time>2021-02-25T14:26:11.176Z</time>
      </trkpt>
      <trkpt lat="43.97193" lon="2.21589">
        <ele>296</ele>
        <time>2021-02-25T14:26:12.176Z</time>
      </trkpt>
      <trkpt lat="43.97192" lon="2.2159">
        <ele>296</ele>
        <time>2021-02-25T14:26:13.176Z</time>
      </trkpt>
      <trkpt lat="43.9719" lon="2.2159">
        <ele>296</ele>
        <time>2021-02-25T14:26:14.176Z</time>
      </trkpt>
      <trkpt lat="43.97189" lon="2.21591">
        <ele>296</ele>
        <time>2021-02-25T14:26:15.176Z</time>
      </trkpt>
      <trkpt lat="43.97189" lon="2.21591">
        <ele>296</ele>
        <time>2021-02-25T14:26:16.176Z</time>
      </trkpt>
      <trkpt lat="43.97188" lon="2.21592">
        <ele>296</ele>
        <time>2021-02-25T14:26:17.176Z</time>
      </trkpt>
      <trkpt lat="43.97186" lon="2.21592">
        <ele>296</ele>
        <time>2021-02-25T14:26:18.176Z</time>
      </trkpt>
      <trkpt lat="43.97185" lon="2.21592">
        <ele>296</ele>
        <time>2021-02-25T14:26:19.176Z</time>
      </trkpt>
      <trkpt lat="43.97184" lon="2.21593">
        <ele>296</ele>
        <time>2021-02-25T14:26:20.176Z</time>
      </trkpt>
      <trkpt lat="43.97183" lon="2.21593">
        <ele>296</ele>
        <time>2021-02-25T14:26:21.176Z</time>
      </trkpt>
      <trkpt lat="43.97182" lon="2.21594">
        <ele>296</ele>
        <time>2021-02-25T14:26:22.176Z</time>
      </trkpt>
      <trkpt lat="43.97181" lon="2.21594">
        <ele>296</ele>
        <time>2021-02-25T14:26:23.176Z</time>
      </trkpt>
      <trkpt lat="43.9718" lon="2.21594">
        <ele>297</ele>
        <time>2021-02-25T14:26:24.176Z</time>
      </trkpt>
      <trkpt lat="43.97178" lon="2.21594">
        <ele>297</ele>
        <time>2021-02-25T14:26:25.176Z</time>
      </trkpt>
      <trkpt lat="43.97177" lon="2.21594">
        <ele>297</ele>
        <time>2021-02-25T14:26:26.176Z</time>
      </trkpt>
      <trkpt lat="43.97176" lon="2.21595">
        <ele>297</ele>
        <time>2021-02-25T14:26:27.176Z</time>
      </trkpt>
      <trkpt lat="43.97175" lon="2.21595">
        <ele>297</ele>
        <time>2021-02-25T14:26:28.176Z</time>
      </trkpt>
      <trkpt lat="43.97174" lon="2.21595">
        <ele>297</ele>
        <time>2021-02-25T14:26:29.176Z</time>
      </trkpt>
      <trkpt lat="43.97174" lon="2.21594">
        <ele>297</ele>
        <time>2021-02-25T14:26:30.176Z</time>
      </trkpt>
      <trkpt lat="43.97174" lon="2.21594">
        <ele>297</ele>
        <time>2021-02-25T14:26:31.176Z</time>
      </trkpt>
      <trkpt lat="43.97174" lon="2.21594">
        <ele>297</ele>
        <time>2021-02-25T14:26:32.176Z</time>
      </trkpt>
      <trkpt lat="43.97173" lon="2.21595">
        <ele>297</ele>
        <time>2021-02-25T14:26:33.176Z</time>
      </trkpt>
      <trkpt lat="43.97173" lon="2.21595">
        <ele>298</ele>
        <time>2021-02-25T14:26:34.176Z</time>
      </trkpt>
      <trkpt lat="43.97172" lon="2.21595">
        <ele>297</ele>
        <time>2021-02-25T14:26:35.176Z</time>
      </trkpt>
      <trkpt lat="43.97172" lon="2.21594">
        <ele>297</ele>
        <time>2021-02-25T14:26:36.176Z</time>
      </trkpt>
      <trkpt lat="43.97172" lon="2.21595">
        <ele>297</ele>
        <time>2021-02-25T14:26:37.176Z</time>
      </trkpt>
      <trkpt lat="43.97171" lon="2.21595">
        <ele>297</ele>
        <time>2021-02-25T14:26:38.176Z</time>
      </trkpt>
      <trkpt lat="43.9717" lon="2.21595">
        <ele>297</ele>
        <time>2021-02-25T14:26:39.176Z</time>
      </trkpt>
      <trkpt lat="43.97168" lon="2.21595">
        <ele>297</ele>
        <time>2021-02-25T14:26:40.176Z</time>
      </trkpt>
      <trkpt lat="43.97167" lon="2.21595">
        <ele>297</ele>
        <time>2021-02-25T14:26:41.176Z</time>
      </trkpt>
      <trkpt lat="43.97166" lon="2.21595">
        <ele>297</ele>
        <time>2021-02-25T14:26:42.176Z</time>
      </trkpt>
      <trkpt lat="43.97165" lon="2.21596">
        <ele>297</ele>
        <time>2021-02-25T14:26:43.176Z</time>
      </trkpt>
      <trkpt lat="43.97164" lon="2.21596">
        <ele>297</ele>
        <time>2021-02-25T14:26:44.176Z</time>
      </trkpt>
      <trkpt lat="43.97163" lon="2.21597">
        <ele>297</ele>
        <time>2021-02-25T14:26:45.176Z</time>
      </trkpt>
      <trkpt lat="43.97162" lon="2.21598">
        <ele>297</ele>
        <time>2021-02-25T14:26:46.176Z</time>
      </trkpt>
      <trkpt lat="43.97161" lon="2.21599">
        <ele>297</ele>
        <time>2021-02-25T14:26:47.176Z</time>
      </trkpt>
      <trkpt lat="43.9716" lon="2.21601">
        <ele>297</ele>
        <time>2021-02-25T14:26:48.176Z</time>
      </trkpt>
      <trkpt lat="43.97159" lon="2.21602">
        <ele>297</ele>
        <time>2021-02-25T14:26:49.176Z</time>
      </trkpt>
      <trkpt lat="43.97158" lon="2.21603">
        <ele>297</ele>
        <time>2021-02-25T14:26:50.176Z</time>
      </trkpt>
      <trkpt lat="43.97157" lon="2.21604">
        <ele>297</ele>
        <time>2021-02-25T14:26:51.176Z</time>
      </trkpt>
      <trkpt lat="43.97156" lon="2.21605">
        <ele>297</ele>
        <time>2021-02-25T14:26:52.176Z</time>
      </trkpt>
      <trkpt lat="43.97155" lon="2.21606">
        <ele>297</ele>
        <time>2021-02-25T14:26:53.176Z</time>
      </trkpt>
      <trkpt lat="43.97154" lon="2.21607">
        <ele>297</ele>
        <time>2021-02-25T14:26:54.176Z</time>
      </trkpt>
      <trkpt lat="43.97153" lon="2.21607">
        <ele>297</ele>
        <time>2021-02-25T14:26:55.176Z</time>
      </trkpt>
      <trkpt lat="43.97153" lon="2.21608">
        <ele>296</ele>
        <time>2021-02-25T14:26:56.176Z</time>
      </trkpt>
      <trkpt lat="43.97152" lon="2.21608">
        <ele>296</ele>
        <time>2021-02-25T14:26:57.176Z</time>
      </trkpt>
      <trkpt lat="43.97151" lon="2.21609">
        <ele>296</ele>
        <time>2021-02-25T14:26:58.176Z</time>
      </trkpt>
      <trkpt lat="43.9715" lon="2.2161">
        <ele>296</ele>
        <time>2021-02-25T14:26:59.176Z</time>
      </trkpt>
      <trkpt lat="43.97149" lon="2.21611">
        <ele>296</ele>
        <time>2021-02-25T14:27:00.176Z</time>
      </trkpt>
      <trkpt lat="43.97148" lon="2.21612">
        <ele>296</ele>
        <time>2021-02-25T14:27:01.176Z</time>
      </trkpt>
      <trkpt lat="43.97146" lon="2.21612">
        <ele>296</ele>
        <time>2021-02-25T14:27:02.176Z</time>
      </trkpt>
      <trkpt lat="43.97145" lon="2.21613">
        <ele>296</ele>
        <time>2021-02-25T14:27:03.176Z</time>
      </trkpt>
      <trkpt lat="43.97144" lon="2.21615">
        <ele>296</ele>
        <time>2021-02-25T14:27:04.176Z</time>
      </trkpt>
      <trkpt lat="43.97143" lon="2.21616">
        <ele>296</ele>
        <time>2021-02-25T14:27:05.176Z</time>
      </trkpt>
      <trkpt lat="43.97142" lon="2.21617">
        <ele>296</ele>
        <time>2021-02-25T14:27:06.176Z</time>
      </trkpt>
      <trkpt lat="43.97141" lon="2.21618">
        <ele>296</ele>
        <time>2021-02-25T14:27:07.176Z</time>
      </trkpt>
      <trkpt lat="43.9714" lon="2.21619">
        <ele>295</ele>
        <time>2021-02-25T14:27:08.176Z</time>
      </trkpt>
      <trkpt lat="43.97139" lon="2.2162">
        <ele>295</ele>
        <time>2021-02-25T14:27:09.176Z</time>
      </trkpt>
      <trkpt lat="43.97137" lon="2.2162">
        <ele>295</ele>
        <time>2021-02-25T14:27:10.176Z</time>
      </trkpt>
      <trkpt lat="43.97136" lon="2.21621">
        <ele>295</ele>
        <time>2021-02-25T14:27:11.176Z</time>
      </trkpt>
      <trkpt lat="43.97135" lon="2.21622">
        <ele>295</ele>
        <time>2021-02-25T14:27:12.176Z</time>
      </trkpt>
      <trkpt lat="43.97134" lon="2.21623">
        <ele>295</ele>
        <time>2021-02-25T14:27:13.176Z</time>
      </trkpt>
      <trkpt lat="43.97133" lon="2.21623">
        <ele>295</ele>
        <time>2021-02-25T14:27:14.176Z</time>
      </trkpt>
      <trkpt lat="43.97131" lon="2.21624">
        <ele>295</ele>
        <time>2021-02-25T14:27:15.176Z</time>
      </trkpt>
      <trkpt lat="43.9713" lon="2.21625">
        <ele>295</ele>
        <time>2021-02-25T14:27:16.176Z</time>
      </trkpt>
      <trkpt lat="43.97129" lon="2.21625">
        <ele>295</ele>
        <time>2021-02-25T14:27:17.176Z</time>
      </trkpt>
      <trkpt lat="43.97128" lon="2.21626">
        <ele>295</ele>
        <time>2021-02-25T14:27:18.176Z</time>
      </trkpt>
      <trkpt lat="43.97127" lon="2.21627">
        <ele>295</ele>
        <time>2021-02-25T14:27:19.176Z</time>
      </trkpt>
      <trkpt lat="43.97126" lon="2.21627">
        <ele>295</ele>
        <time>2021-02-25T14:27:20.176Z</time>
      </trkpt>
      <trkpt lat="43.97124" lon="2.21628">
        <ele>295</ele>
        <time>2021-02-25T14:27:21.176Z</time>
      </trkpt>
      <trkpt lat="43.97123" lon="2.21629">
        <ele>295</ele>
        <time>2021-02-25T14:27:22.176Z</time>
      </trkpt>
      <trkpt lat="43.97122" lon="2.2163">
        <ele>295</ele>
        <time>2021-02-25T14:27:23.176Z</time>
      </trkpt>
      <trkpt lat="43.97121" lon="2.2163">
        <ele>295</ele>
        <time>2021-02-25T14:27:24.176Z</time>
      </trkpt>
      <trkpt lat="43.97121" lon="2.2163">
        <ele>295</ele>
        <time>2021-02-25T14:27:25.176Z</time>
      </trkpt>
      <trkpt lat="43.9712" lon="2.2163">
        <ele>295</ele>
        <time>2021-02-25T14:27:26.176Z</time>
      </trkpt>
      <trkpt lat="43.97119" lon="2.21631">
        <ele>295</ele>
        <time>2021-02-25T14:27:27.176Z</time>
      </trkpt>
      <trkpt lat="43.97118" lon="2.21631">
        <ele>295</ele>
        <time>2021-02-25T14:27:28.176Z</time>
      </trkpt>
      <trkpt lat="43.97116" lon="2.21632">
        <ele>295</ele>
        <time>2021-02-25T14:27:29.176Z</time>
      </trkpt>
      <trkpt lat="43.97115" lon="2.21633">
        <ele>295</ele>
        <time>2021-02-25T14:27:30.176Z</time>
      </trkpt>
      <trkpt lat="43.97114" lon="2.21633">
        <ele>295</ele>
        <time>2021-02-25T14:27:31.176Z</time>
      </trkpt>
      <trkpt lat="43.97113" lon="2.21634">
        <ele>294</ele>
        <time>2021-02-25T14:27:32.176Z</time>
      </trkpt>
      <trkpt lat="43.97112" lon="2.21635">
        <ele>294</ele>
        <time>2021-02-25T14:27:33.176Z</time>
      </trkpt>
      <trkpt lat="43.97111" lon="2.21635">
        <ele>294</ele>
        <time>2021-02-25T14:27:34.176Z</time>
      </trkpt>
      <trkpt lat="43.97109" lon="2.21636">
        <ele>294</ele>
        <time>2021-02-25T14:27:35.176Z</time>
      </trkpt>
      <trkpt lat="43.97108" lon="2.21637">
        <ele>294</ele>
        <time>2021-02-25T14:27:36.176Z</time>
      </trkpt>
      <trkpt lat="43.97107" lon="2.21638">
        <ele>294</ele>
        <time>2021-02-25T14:27:37.176Z</time>
      </trkpt>
      <trkpt lat="43.97106" lon="2.21639">
        <ele>294</ele>
        <time>2021-02-25T14:27:38.176Z</time>
      </trkpt>
      <trkpt lat="43.97105" lon="2.2164">
        <ele>294</ele>
        <time>2021-02-25T14:27:39.176Z</time>
      </trkpt>
      <trkpt lat="43.97103" lon="2.2164">
        <ele>294</ele>
        <time>2021-02-25T14:27:40.176Z</time>
      </trkpt>
      <trkpt lat="43.97102" lon="2.21641">
        <ele>294</ele>
        <time>2021-02-25T14:27:41.176Z</time>
      </trkpt>
      <trkpt lat="43.97101" lon="2.21642">
        <ele>294</ele>
        <time>2021-02-25T14:27:42.176Z</time>
      </trkpt>
      <trkpt lat="43.971" lon="2.21642">
        <ele>294</ele>
        <time>2021-02-25T14:27:43.176Z</time>
      </trkpt>
      <trkpt lat="43.97099" lon="2.21643">
        <ele>293</ele>
        <time>2021-02-25T14:27:44.176Z</time>
      </trkpt>
      <trkpt lat="43.97098" lon="2.21644">
        <ele>293</ele>
        <time>2021-02-25T14:27:45.176Z</time>
      </trkpt>
      <trkpt lat="43.97097" lon="2.21644">
        <ele>293</ele>
        <time>2021-02-25T14:27:46.176Z</time>
      </trkpt>
      <trkpt lat="43.97097" lon="2.21645">
        <ele>293</ele>
        <time>2021-02-25T14:27:47.176Z</time>
      </trkpt>
      <trkpt lat="43.97096" lon="2.21646">
        <ele>293</ele>
        <time>2021-02-25T14:27:48.176Z</time>
      </trkpt>
      <trkpt lat="43.97095" lon="2.21647">
        <ele>293</ele>
        <time>2021-02-25T14:27:49.176Z</time>
      </trkpt>
      <trkpt lat="43.97094" lon="2.21648">
        <ele>293</ele>
        <time>2021-02-25T14:27:50.176Z</time>
      </trkpt>
      <trkpt lat="43.97093" lon="2.21648">
        <ele>293</ele>
        <time>2021-02-25T14:27:51.176Z</time>
      </trkpt>
      <trkpt lat="43.97092" lon="2.21649">
        <ele>293</ele>
        <time>2021-02-25T14:27:52.176Z</time>
      </trkpt>
      <trkpt lat="43.97091" lon="2.2165">
        <ele>293</ele>
        <time>2021-02-25T14:27:53.176Z</time>
      </trkpt>
      <trkpt lat="43.9709" lon="2.2165">
        <ele>293</ele>
        <time>2021-02-25T14:27:54.176Z</time>
      </trkpt>
      <trkpt lat="43.97089" lon="2.2165">
        <ele>293</ele>
        <time>2021-02-25T14:27:55.176Z</time>
      </trkpt>
      <trkpt lat="43.97089" lon="2.2165">
        <ele>293</ele>
        <time>2021-02-25T14:27:56.176Z</time>
      </trkpt>
      <trkpt lat="43.97089" lon="2.21651">
        <ele>293</ele>
        <time>2021-02-25T14:27:57.176Z</time>
      </trkpt>
      <trkpt lat="43.97088" lon="2.21652">
        <ele>293</ele>
        <time>2021-02-25T14:27:58.176Z</time>
      </trkpt>
      <trkpt lat="43.97087" lon="2.21652">
        <ele>293</ele>
        <time>2021-02-25T14:27:59.176Z</time>
      </trkpt>
      <trkpt lat="43.97086" lon="2.21653">
        <ele>293</ele>
        <time>2021-02-25T14:28:00.176Z</time>
      </trkpt>
      <trkpt lat="43.97085" lon="2.21654">
        <ele>292</ele>
        <time>2021-02-25T14:28:01.176Z</time>
      </trkpt>
      <trkpt lat="43.97084" lon="2.21655">
        <ele>292</ele>
        <time>2021-02-25T14:28:02.176Z</time>
      </trkpt>
      <trkpt lat="43.97083" lon="2.21656">
        <ele>292</ele>
        <time>2021-02-25T14:28:03.176Z</time>
      </trkpt>
      <trkpt lat="43.97081" lon="2.21656">
        <ele>292</ele>
        <time>2021-02-25T14:28:04.176Z</time>
      </trkpt>
      <trkpt lat="43.9708" lon="2.21657">
        <ele>292</ele>
        <time>2021-02-25T14:28:05.176Z</time>
      </trkpt>
      <trkpt lat="43.97079" lon="2.21658">
        <ele>292</ele>
        <time>2021-02-25T14:28:06.176Z</time>
      </trkpt>
      <trkpt lat="43.97077" lon="2.21659">
        <ele>292</ele>
        <time>2021-02-25T14:28:07.176Z</time>
      </trkpt>
      <trkpt lat="43.97076" lon="2.2166">
        <ele>292</ele>
        <time>2021-02-25T14:28:08.176Z</time>
      </trkpt>
      <trkpt lat="43.97075" lon="2.21661">
        <ele>292</ele>
        <time>2021-02-25T14:28:09.176Z</time>
      </trkpt>
      <trkpt lat="43.97074" lon="2.21661">
        <ele>291</ele>
        <time>2021-02-25T14:28:10.176Z</time>
      </trkpt>
      <trkpt lat="43.97073" lon="2.21661">
        <ele>291</ele>
        <time>2021-02-25T14:28:11.176Z</time>
      </trkpt>
      <trkpt lat="43.97072" lon="2.21662">
        <ele>291</ele>
        <time>2021-02-25T14:28:12.176Z</time>
      </trkpt>
      <trkpt lat="43.97071" lon="2.21663">
        <ele>291</ele>
        <time>2021-02-25T14:28:13.176Z</time>
      </trkpt>
      <trkpt lat="43.9707" lon="2.21664">
        <ele>291</ele>
        <time>2021-02-25T14:28:14.176Z</time>
      </trkpt>
      <trkpt lat="43.97068" lon="2.21665">
        <ele>291</ele>
        <time>2021-02-25T14:28:15.176Z</time>
      </trkpt>
      <trkpt lat="43.97067" lon="2.21666">
        <ele>291</ele>
        <time>2021-02-25T14:28:16.176Z</time>
      </trkpt>
      <trkpt lat="43.97066" lon="2.21666">
        <ele>291</ele>
        <time>2021-02-25T14:28:17.176Z</time>
      </trkpt>
      <trkpt lat="43.97065" lon="2.21667">
        <ele>291</ele>
        <time>2021-02-25T14:28:18.176Z</time>
      </trkpt>
      <trkpt lat="43.97064" lon="2.21668">
        <ele>291</ele>
        <time>2021-02-25T14:28:19.176Z</time>
      </trkpt>
      <trkpt lat="43.97062" lon="2.21669">
        <ele>291</ele>
        <time>2021-02-25T14:28:20.176Z</time>
      </trkpt>
      <trkpt lat="43.97061" lon="2.2167">
        <ele>291</ele>
        <time>2021-02-25T14:28:21.176Z</time>
      </trkpt>
      <trkpt lat="43.9706" lon="2.21671">
        <ele>291</ele>
        <time>2021-02-25T14:28:22.176Z</time>
      </trkpt>
      <trkpt lat="43.97059" lon="2.21671">
        <ele>291</ele>
        <time>2021-02-25T14:28:23.176Z</time>
      </trkpt>
      <trkpt lat="43.97058" lon="2.21672">
        <ele>291</ele>
        <time>2021-02-25T14:28:24.176Z</time>
      </trkpt>
      <trkpt lat="43.97056" lon="2.21673">
        <ele>291</ele>
        <time>2021-02-25T14:28:25.176Z</time>
      </trkpt>
      <trkpt lat="43.97055" lon="2.21674">
        <ele>291</ele>
        <time>2021-02-25T14:28:26.176Z</time>
      </trkpt>
      <trkpt lat="43.97054" lon="2.21675">
        <ele>290</ele>
        <time>2021-02-25T14:28:27.176Z</time>
      </trkpt>
      <trkpt lat="43.97053" lon="2.21676">
        <ele>290</ele>
        <time>2021-02-25T14:28:28.176Z</time>
      </trkpt>
      <trkpt lat="43.97052" lon="2.21677">
        <ele>290</ele>
        <time>2021-02-25T14:28:29.176Z</time>
      </trkpt>
      <trkpt lat="43.97051" lon="2.21678">
        <ele>290</ele>
        <time>2021-02-25T14:28:30.176Z</time>
      </trkpt>
      <trkpt lat="43.9705" lon="2.21679">
        <ele>290</ele>
        <time>2021-02-25T14:28:31.176Z</time>
      </trkpt>
      <trkpt lat="43.97048" lon="2.21679">
        <ele>290</ele>
        <time>2021-02-25T14:28:32.176Z</time>
      </trkpt>
      <trkpt lat="43.97047" lon="2.2168">
        <ele>290</ele>
        <time>2021-02-25T14:28:33.176Z</time>
      </trkpt>
      <trkpt lat="43.97046" lon="2.21681">
        <ele>290</ele>
        <time>2021-02-25T14:28:34.176Z</time>
      </trkpt>
      <trkpt lat="43.97045" lon="2.21682">
        <ele>290</ele>
        <time>2021-02-25T14:28:35.176Z</time>
      </trkpt>
      <trkpt lat="43.97043" lon="2.21683">
        <ele>290</ele>
        <time>2021-02-25T14:28:36.176Z</time>
      </trkpt>
      <trkpt lat="43.97042" lon="2.21684">
        <ele>290</ele>
        <time>2021-02-25T14:28:37.176Z</time>
      </trkpt>
      <trkpt lat="43.97041" lon="2.21684">
        <ele>290</ele>
        <time>2021-02-25T14:28:38.176Z</time>
      </trkpt>
      <trkpt lat="43.9704" lon="2.21685">
        <ele>290</ele>
        <time>2021-02-25T14:28:39.176Z</time>
      </trkpt>
      <trkpt lat="43.97039" lon="2.21686">
        <ele>290</ele>
        <time>2021-02-25T14:28:40.176Z</time>
      </trkpt>
      <trkpt lat="43.97038" lon="2.21687">
        <ele>290</ele>
        <time>2021-02-25T14:28:41.176Z</time>
      </trkpt>
      <trkpt lat="43.97037" lon="2.21688">
        <ele>290</ele>
        <time>2021-02-25T14:28:42.176Z</time>
      </trkpt>
      <trkpt lat="43.97036" lon="2.21688">
        <ele>290</ele>
        <time>2021-02-25T14:28:43.176Z</time>
      </trkpt>
      <trkpt lat="43.97035" lon="2.21689">
        <ele>290</ele>
        <time>2021-02-25T14:28:44.176Z</time>
      </trkpt>
      <trkpt lat="43.97034" lon="2.21689">
        <ele>290</ele>
        <time>2021-02-25T14:28:45.176Z</time>
      </trkpt>
      <trkpt lat="43.97033" lon="2.2169">
        <ele>290</ele>
        <time>2021-02-25T14:28:46.176Z</time>
      </trkpt>
      <trkpt lat="43.97032" lon="2.21691">
        <ele>290</ele>
        <time>2021-02-25T14:28:47.176Z</time>
      </trkpt>
      <trkpt lat="43.97031" lon="2.21692">
        <ele>290</ele>
        <time>2021-02-25T14:28:48.176Z</time>
      </trkpt>
      <trkpt lat="43.9703" lon="2.21692">
        <ele>290</ele>
        <time>2021-02-25T14:28:49.176Z</time>
      </trkpt>
      <trkpt lat="43.97029" lon="2.21693">
        <ele>290</ele>
        <time>2021-02-25T14:28:50.176Z</time>
      </trkpt>
      <trkpt lat="43.97028" lon="2.21694">
        <ele>290</ele>
        <time>2021-02-25T14:28:51.176Z</time>
      </trkpt>
      <trkpt lat="43.97026" lon="2.21694">
        <ele>290</ele>
        <time>2021-02-25T14:28:52.176Z</time>
      </trkpt>
      <trkpt lat="43.97025" lon="2.21695">
        <ele>290</ele>
        <time>2021-02-25T14:28:53.176Z</time>
      </trkpt>
      <trkpt lat="43.97024" lon="2.21696">
        <ele>290</ele>
        <time>2021-02-25T14:28:54.176Z</time>
      </trkpt>
      <trkpt lat="43.97022" lon="2.21697">
        <ele>290</ele>
        <time>2021-02-25T14:28:55.176Z</time>
      </trkpt>
      <trkpt lat="43.97021" lon="2.21697">
        <ele>290</ele>
        <time>2021-02-25T14:28:56.176Z</time>
      </trkpt>
      <trkpt lat="43.9702" lon="2.21698">
        <ele>290</ele>
        <time>2021-02-25T14:28:57.176Z</time>
      </trkpt>
      <trkpt lat="43.97019" lon="2.21699">
        <ele>290</ele>
        <time>2021-02-25T14:28:58.176Z</time>
      </trkpt>
      <trkpt lat="43.97018" lon="2.21699">
        <ele>290</ele>
        <time>2021-02-25T14:28:59.176Z</time>
      </trkpt>
      <trkpt lat="43.97017" lon="2.217">
        <ele>290</ele>
        <time>2021-02-25T14:29:00.176Z</time>
      </trkpt>
      <trkpt lat="43.97015" lon="2.21701">
        <ele>290</ele>
        <time>2021-02-25T14:29:01.176Z</time>
      </trkpt>
      <trkpt lat="43.97014" lon="2.21702">
        <ele>290</ele>
        <time>2021-02-25T14:29:02.176Z</time>
      </trkpt>
      <trkpt lat="43.97013" lon="2.21703">
        <ele>290</ele>
        <time>2021-02-25T14:29:03.176Z</time>
      </trkpt>
      <trkpt lat="43.97012" lon="2.21704">
        <ele>290</ele>
        <time>2021-02-25T14:29:04.176Z</time>
      </trkpt>
      <trkpt lat="43.9701" lon="2.21705">
        <ele>290</ele>
        <time>2021-02-25T14:29:05.176Z</time>
      </trkpt>
      <trkpt lat="43.97009" lon="2.21706">
        <ele>290</ele>
        <time>2021-02-25T14:29:06.176Z</time>
      </trkpt>
      <trkpt lat="43.97008" lon="2.21706">
        <ele>290</ele>
        <time>2021-02-25T14:29:07.176Z</time>
      </trkpt>
      <trkpt lat="43.97007" lon="2.21707">
        <ele>290</ele>
        <time>2021-02-25T14:29:08.176Z</time>
      </trkpt>
      <trkpt lat="43.97006" lon="2.21708">
        <ele>290</ele>
        <time>2021-02-25T14:29:09.176Z</time>
      </trkpt>
      <trkpt lat="43.97005" lon="2.21709">
        <ele>290</ele>
        <time>2021-02-25T14:29:10.176Z</time>
      </trkpt>
      <trkpt lat="43.97004" lon="2.21709">
        <ele>290</ele>
        <time>2021-02-25T14:29:11.176Z</time>
      </trkpt>
      <trkpt lat="43.97003" lon="2.2171">
        <ele>290</ele>
        <time>2021-02-25T14:29:12.176Z</time>
      </trkpt>
      <trkpt lat="43.97001" lon="2.21711">
        <ele>290</ele>
        <time>2021-02-25T14:29:13.176Z</time>
      </trkpt>
      <trkpt lat="43.97" lon="2.21712">
        <ele>290</ele>
        <time>2021-02-25T14:29:14.176Z</time>
      </trkpt>
      <trkpt lat="43.96999" lon="2.21713">
        <ele>290</ele>
        <time>2021-02-25T14:29:15.176Z</time>
      </trkpt>
      <trkpt lat="43.96998" lon="2.21714">
        <ele>290</ele>
        <time>2021-02-25T14:29:16.176Z</time>
      </trkpt>
      <trkpt lat="43.96997" lon="2.21715">
        <ele>290</ele>
        <time>2021-02-25T14:29:17.176Z</time>
      </trkpt>
      <trkpt lat="43.96996" lon="2.21715">
        <ele>290</ele>
        <time>2021-02-25T14:29:18.176Z</time>
      </trkpt>
      <trkpt lat="43.96995" lon="2.21716">
        <ele>290</ele>
        <time>2021-02-25T14:29:19.176Z</time>
      </trkpt>
      <trkpt lat="43.96993" lon="2.21717">
        <ele>290</ele>
        <time>2021-02-25T14:29:20.176Z</time>
      </trkpt>
      <trkpt lat="43.96992" lon="2.21717">
        <ele>289</ele>
        <time>2021-02-25T14:29:21.176Z</time>
      </trkpt>
      <trkpt lat="43.96991" lon="2.21718">
        <ele>289</ele>
        <time>2021-02-25T14:29:22.176Z</time>
      </trkpt>
      <trkpt lat="43.96989" lon="2.21718">
        <ele>289</ele>
        <time>2021-02-25T14:29:23.176Z</time>
      </trkpt>
      <trkpt lat="43.96988" lon="2.21719">
        <ele>289</ele>
        <time>2021-02-25T14:29:24.176Z</time>
      </trkpt>
      <trkpt lat="43.96986" lon="2.2172">
        <ele>289</ele>
        <time>2021-02-25T14:29:25.176Z</time>
      </trkpt>
      <trkpt lat="43.96985" lon="2.2172">
        <ele>289</ele>
        <time>2021-02-25T14:29:26.176Z</time>
      </trkpt>
      <trkpt lat="43.96984" lon="2.21721">
        <ele>288</ele>
        <time>2021-02-25T14:29:27.176Z</time>
      </trkpt>
      <trkpt lat="43.96983" lon="2.21721">
        <ele>288</ele>
        <time>2021-02-25T14:29:28.176Z</time>
      </trkpt>
      <trkpt lat="43.96981" lon="2.21722">
        <ele>288</ele>
        <time>2021-02-25T14:29:29.176Z</time>
      </trkpt>
      <trkpt lat="43.9698" lon="2.21722">
        <ele>288</ele>
        <time>2021-02-25T14:29:30.176Z</time>
      </trkpt>
      <trkpt lat="43.96978" lon="2.21722">
        <ele>288</ele>
        <time>2021-02-25T14:29:31.176Z</time>
      </trkpt>
      <trkpt lat="43.96977" lon="2.21722">
        <ele>288</ele>
        <time>2021-02-25T14:29:32.176Z</time>
      </trkpt>
      <trkpt lat="43.96976" lon="2.21722">
        <ele>288</ele>
        <time>2021-02-25T14:29:33.176Z</time>
      </trkpt>
      <trkpt lat="43.96975" lon="2.21722">
        <ele>288</ele>
        <time>2021-02-25T14:29:34.176Z</time>
      </trkpt>
      <trkpt lat="43.96974" lon="2.21722">
        <ele>288</ele>
        <time>2021-02-25T14:29:35.176Z</time>
      </trkpt>
      <trkpt lat="43.96973" lon="2.21722">
        <ele>288</ele>
        <time>2021-02-25T14:29:36.176Z</time>
      </trkpt>
      <trkpt lat="43.96971" lon="2.21722">
        <ele>287</ele>
        <time>2021-02-25T14:29:37.176Z</time>
      </trkpt>
      <trkpt lat="43.9697" lon="2.21722">
        <ele>287</ele>
        <time>2021-02-25T14:29:38.176Z</time>
      </trkpt>
      <trkpt lat="43.96969" lon="2.21721">
        <ele>287</ele>
        <time>2021-02-25T14:29:39.176Z</time>
      </trkpt>
      <trkpt lat="43.96968" lon="2.21721">
        <ele>287</ele>
        <time>2021-02-25T14:29:40.176Z</time>
      </trkpt>
      <trkpt lat="43.96967" lon="2.21721">
        <ele>287</ele>
        <time>2021-02-25T14:29:41.176Z</time>
      </trkpt>
      <trkpt lat="43.96965" lon="2.21721">
        <ele>287</ele>
        <time>2021-02-25T14:29:42.176Z</time>
      </trkpt>
      <trkpt lat="43.96964" lon="2.2172">
        <ele>287</ele>
        <time>2021-02-25T14:29:43.176Z</time>
      </trkpt>
      <trkpt lat="43.96963" lon="2.2172">
        <ele>287</ele>
        <time>2021-02-25T14:29:44.176Z</time>
      </trkpt>
      <trkpt lat="43.96962" lon="2.2172">
        <ele>287</ele>
        <time>2021-02-25T14:29:45.176Z</time>
      </trkpt>
      <trkpt lat="43.96961" lon="2.2172">
        <ele>287</ele>
        <time>2021-02-25T14:29:46.176Z</time>
      </trkpt>
      <trkpt lat="43.96959" lon="2.2172">
        <ele>287</ele>
        <time>2021-02-25T14:29:47.176Z</time>
      </trkpt>
      <trkpt lat="43.96958" lon="2.21719">
        <ele>287</ele>
        <time>2021-02-25T14:29:48.176Z</time>
      </trkpt>
      <trkpt lat="43.96957" lon="2.21719">
        <ele>287</ele>
        <time>2021-02-25T14:29:49.176Z</time>
      </trkpt>
      <trkpt lat="43.96956" lon="2.21719">
        <ele>286</ele>
        <time>2021-02-25T14:29:50.176Z</time>
      </trkpt>
      <trkpt lat="43.96955" lon="2.21719">
        <ele>286</ele>
        <time>2021-02-25T14:29:51.176Z</time>
      </trkpt>
      <trkpt lat="43.96953" lon="2.21719">
        <ele>286</ele>
        <time>2021-02-25T14:29:52.176Z</time>
      </trkpt>
      <trkpt lat="43.96952" lon="2.21719">
        <ele>286</ele>
        <time>2021-02-25T14:29:53.176Z</time>
      </trkpt>
      <trkpt lat="43.96951" lon="2.21718">
        <ele>286</ele>
        <time>2021-02-25T14:29:54.176Z</time>
      </trkpt>
      <trkpt lat="43.9695" lon="2.21718">
        <ele>286</ele>
        <time>2021-02-25T14:29:55.176Z</time>
      </trkpt>
      <trkpt lat="43.96949" lon="2.21718">
        <ele>286</ele>
        <time>2021-02-25T14:29:56.176Z</time>
      </trkpt>
      <trkpt lat="43.96948" lon="2.21718">
        <ele>286</ele>
        <time>2021-02-25T14:29:57.176Z</time>
      </trkpt>
      <trkpt lat="43.96947" lon="2.21717">
        <ele>285</ele>
        <time>2021-02-25T14:29:58.176Z</time>
      </trkpt>
      <trkpt lat="43.96946" lon="2.21717">
        <ele>285</ele>
        <time>2021-02-25T14:29:59.176Z</time>
      </trkpt>
      <trkpt lat="43.96945" lon="2.21717">
        <ele>285</ele>
        <time>2021-02-25T14:30:00.176Z</time>
      </trkpt>
      <trkpt lat="43.96944" lon="2.21716">
        <ele>285</ele>
        <time>2021-02-25T14:30:01.176Z</time>
      </trkpt>
      <trkpt lat="43.96943" lon="2.21716">
        <ele>285</ele>
        <time>2021-02-25T14:30:02.176Z</time>
      </trkpt>
      <trkpt lat="43.96941" lon="2.21716">
        <ele>285</ele>
        <time>2021-02-25T14:30:03.176Z</time>
      </trkpt>
      <trkpt lat="43.9694" lon="2.21716">
        <ele>285</ele>
        <time>2021-02-25T14:30:04.176Z</time>
      </trkpt>
      <trkpt lat="43.96939" lon="2.21715">
        <ele>285</ele>
        <time>2021-02-25T14:30:05.176Z</time>
      </trkpt>
      <trkpt lat="43.96937" lon="2.21715">
        <ele>285</ele>
        <time>2021-02-25T14:30:06.176Z</time>
      </trkpt>
      <trkpt lat="43.96936" lon="2.21715">
        <ele>285</ele>
        <time>2021-02-25T14:30:07.176Z</time>
      </trkpt>
      <trkpt lat="43.96935" lon="2.21715">
        <ele>284</ele>
        <time>2021-02-25T14:30:08.176Z</time>
      </trkpt>
      <trkpt lat="43.96934" lon="2.21715">
        <ele>284</ele>
        <time>2021-02-25T14:30:09.176Z</time>
      </trkpt>
      <trkpt lat="43.96933" lon="2.21715">
        <ele>284</ele>
        <time>2021-02-25T14:30:10.176Z</time>
      </trkpt>
      <trkpt lat="43.96932" lon="2.21715">
        <ele>284</ele>
        <time>2021-02-25T14:30:11.176Z</time>
      </trkpt>
      <trkpt lat="43.9693" lon="2.21714">
        <ele>284</ele>
        <time>2021-02-25T14:30:12.176Z</time>
      </trkpt>
      <trkpt lat="43.96929" lon="2.21714">
        <ele>284</ele>
        <time>2021-02-25T14:30:13.176Z</time>
      </trkpt>
      <trkpt lat="43.96927" lon="2.21714">
        <ele>284</ele>
        <time>2021-02-25T14:30:14.176Z</time>
      </trkpt>
      <trkpt lat="43.96926" lon="2.21714">
        <ele>284</ele>
        <time>2021-02-25T14:30:15.176Z</time>
      </trkpt>
      <trkpt lat="43.96924" lon="2.21714">
        <ele>284</ele>
        <time>2021-02-25T14:30:16.176Z</time>
      </trkpt>
      <trkpt lat="43.96923" lon="2.21714">
        <ele>284</ele>
        <time>2021-02-25T14:30:17.176Z</time>
      </trkpt>
      <trkpt lat="43.96922" lon="2.21714">
        <ele>284</ele>
        <time>2021-02-25T14:30:18.176Z</time>
      </trkpt>
      <trkpt lat="43.96921" lon="2.21714">
        <ele>284</ele>
        <time>2021-02-25T14:30:19.176Z</time>
      </trkpt>
      <trkpt lat="43.96919" lon="2.21714">
        <ele>284</ele>
        <time>2021-02-25T14:30:20.176Z</time>
      </trkpt>
      <trkpt lat="43.96918" lon="2.21713">
        <ele>284</ele>
        <time>2021-02-25T14:30:21.176Z</time>
      </trkpt>
      <trkpt lat="43.96917" lon="2.21713">
        <ele>284</ele>
        <time>2021-02-25T14:30:22.176Z</time>
      </trkpt>
      <trkpt lat="43.96915" lon="2.21713">
        <ele>283</ele>
        <time>2021-02-25T14:30:26.182Z</time>
      </trkpt>
      <trkpt lat="43.96914" lon="2.21713">
        <ele>283</ele>
        <time>2021-02-25T14:30:27.182Z</time>
      </trkpt>
      <trkpt lat="43.96913" lon="2.21713">
        <ele>283</ele>
        <time>2021-02-25T14:30:28.182Z</time>
      </trkpt>
      <trkpt lat="43.96912" lon="2.21713">
        <ele>283</ele>
        <time>2021-02-25T14:30:29.182Z</time>
      </trkpt>
      <trkpt lat="43.9691" lon="2.21713">
        <ele>283</ele>
        <time>2021-02-25T14:30:30.182Z</time>
      </trkpt>
      <trkpt lat="43.96909" lon="2.21713">
        <ele>283</ele>
        <time>2021-02-25T14:30:31.182Z</time>
      </trkpt>
      <trkpt lat="43.96908" lon="2.21713">
        <ele>283</ele>
        <time>2021-02-25T14:30:32.182Z</time>
      </trkpt>
      <trkpt lat="43.96906" lon="2.21713">
        <ele>283</ele>
        <time>2021-02-25T14:30:33.182Z</time>
      </trkpt>
      <trkpt lat="43.96904" lon="2.21713">
        <ele>283</ele>
        <time>2021-02-25T14:30:34.182Z</time>
      </trkpt>
      <trkpt lat="43.96903" lon="2.21713">
        <ele>283</ele>
        <time>2021-02-25T14:30:35.182Z</time>
      </trkpt>
      <trkpt lat="43.96901" lon="2.21713">
        <ele>283</ele>
        <time>2021-02-25T14:30:36.182Z</time>
      </trkpt>
      <trkpt lat="43.969" lon="2.21713">
        <ele>283</ele>
        <time>2021-02-25T14:30:37.182Z</time>
      </trkpt>
      <trkpt lat="43.96899" lon="2.21713">
        <ele>283</ele>
        <time>2021-02-25T14:30:38.182Z</time>
      </trkpt>
      <trkpt lat="43.96897" lon="2.21713">
        <ele>283</ele>
        <time>2021-02-25T14:30:39.182Z</time>
      </trkpt>
      <trkpt lat="43.96896" lon="2.21713">
        <ele>283</ele>
        <time>2021-02-25T14:30:40.182Z</time>
      </trkpt>
      <trkpt lat="43.96895" lon="2.21714">
        <ele>283</ele>
        <time>2021-02-25T14:30:41.182Z</time>
      </trkpt>
      <trkpt lat="43.96894" lon="2.21715">
        <ele>283</ele>
        <time>2021-02-25T14:30:42.182Z</time>
      </trkpt>
      <trkpt lat="43.96893" lon="2.21715">
        <ele>283</ele>
        <time>2021-02-25T14:30:43.182Z</time>
      </trkpt>
      <trkpt lat="43.96892" lon="2.21716">
        <ele>282</ele>
        <time>2021-02-25T14:30:44.182Z</time>
      </trkpt>
      <trkpt lat="43.9689" lon="2.21717">
        <ele>282</ele>
        <time>2021-02-25T14:30:45.182Z</time>
      </trkpt>
      <trkpt lat="43.96889" lon="2.21718">
        <ele>282</ele>
        <time>2021-02-25T14:30:46.182Z</time>
      </trkpt>
      <trkpt lat="43.96888" lon="2.21719">
        <ele>282</ele>
        <time>2021-02-25T14:30:47.182Z</time>
      </trkpt>
      <trkpt lat="43.96887" lon="2.2172">
        <ele>282</ele>
        <time>2021-02-25T14:30:48.182Z</time>
      </trkpt>
      <trkpt lat="43.96886" lon="2.21721">
        <ele>282</ele>
        <time>2021-02-25T14:30:49.182Z</time>
      </trkpt>
      <trkpt lat="43.96885" lon="2.21722">
        <ele>282</ele>
        <time>2021-02-25T14:30:50.182Z</time>
      </trkpt>
      <trkpt lat="43.96884" lon="2.21722">
        <ele>282</ele>
        <time>2021-02-25T14:30:51.182Z</time>
      </trkpt>
      <trkpt lat="43.96883" lon="2.21723">
        <ele>282</ele>
        <time>2021-02-25T14:30:52.182Z</time>
      </trkpt>
      <trkpt lat="43.96882" lon="2.21724">
        <ele>282</ele>
        <time>2021-02-25T14:30:53.182Z</time>
      </trkpt>
      <trkpt lat="43.96881" lon="2.21725">
        <ele>282</ele>
        <time>2021-02-25T14:30:54.182Z</time>
      </trkpt>
      <trkpt lat="43.9688" lon="2.21726">
        <ele>282</ele>
        <time>2021-02-25T14:30:57.426Z</time>
      </trkpt>
      <trkpt lat="43.96879" lon="2.21727">
        <ele>282</ele>
        <time>2021-02-25T14:30:58.426Z</time>
      </trkpt>
      <trkpt lat="43.96878" lon="2.21728">
        <ele>282</ele>
        <time>2021-02-25T14:30:59.426Z</time>
      </trkpt>
      <trkpt lat="43.96877" lon="2.21728">
        <ele>282</ele>
        <time>2021-02-25T14:31:00.426Z</time>
      </trkpt>
      <trkpt lat="43.96876" lon="2.21729">
        <ele>281</ele>
        <time>2021-02-25T14:31:01.426Z</time>
      </trkpt>
      <trkpt lat="43.96875" lon="2.2173">
        <ele>281</ele>
        <time>2021-02-25T14:31:02.426Z</time>
      </trkpt>
      <trkpt lat="43.96874" lon="2.21731">
        <ele>281</ele>
        <time>2021-02-25T14:31:03.426Z</time>
      </trkpt>
      <trkpt lat="43.96873" lon="2.21732">
        <ele>281</ele>
        <time>2021-02-25T14:31:04.426Z</time>
      </trkpt>
      <trkpt lat="43.96872" lon="2.21733">
        <ele>281</ele>
        <time>2021-02-25T14:31:05.426Z</time>
      </trkpt>
      <trkpt lat="43.96871" lon="2.21734">
        <ele>281</ele>
        <time>2021-02-25T14:31:06.426Z</time>
      </trkpt>
      <trkpt lat="43.9687" lon="2.21734">
        <ele>281</ele>
        <time>2021-02-25T14:31:07.426Z</time>
      </trkpt>
      <trkpt lat="43.96869" lon="2.21735">
        <ele>281</ele>
        <time>2021-02-25T14:31:08.426Z</time>
      </trkpt>
      <trkpt lat="43.96868" lon="2.21735">
        <ele>281</ele>
        <time>2021-02-25T14:31:09.426Z</time>
      </trkpt>
      <trkpt lat="43.96867" lon="2.21735">
        <ele>281</ele>
        <time>2021-02-25T14:31:10.426Z</time>
      </trkpt>
      <trkpt lat="43.96866" lon="2.21736">
        <ele>281</ele>
        <time>2021-02-25T14:31:19.433Z</time>
      </trkpt>
      <trkpt lat="43.96865" lon="2.21736">
        <ele>281</ele>
        <time>2021-02-25T14:31:20.433Z</time>
      </trkpt>
      <trkpt lat="43.96864" lon="2.21736">
        <ele>281</ele>
        <time>2021-02-25T14:31:23.705Z</time>
      </trkpt>
      <trkpt lat="43.96863" lon="2.21736">
        <ele>281</ele>
        <time>2021-02-25T14:31:24.705Z</time>
      </trkpt>
      <trkpt lat="43.96863" lon="2.21736">
        <ele>281</ele>
        <time>2021-02-25T14:31:25.705Z</time>
      </trkpt>
      <trkpt lat="43.96863" lon="2.21737">
        <ele>281</ele>
        <time>2021-02-25T14:31:26.705Z</time>
      </trkpt>
      <trkpt lat="43.96862" lon="2.21737">
        <ele>280</ele>
        <time>2021-02-25T14:31:27.705Z</time>
      </trkpt>
      <trkpt lat="43.96861" lon="2.21737">
        <ele>280</ele>
        <time>2021-02-25T14:31:28.705Z</time>
      </trkpt>
      <trkpt lat="43.9686" lon="2.21737">
        <ele>280</ele>
        <time>2021-02-25T14:31:29.705Z</time>
      </trkpt>
      <trkpt lat="43.96859" lon="2.21737">
        <ele>280</ele>
        <time>2021-02-25T14:31:30.705Z</time>
      </trkpt>
      <trkpt lat="43.96859" lon="2.21737">
        <ele>280</ele>
        <time>2021-02-25T14:31:31.705Z</time>
      </trkpt>
      <trkpt lat="43.96859" lon="2.21737">
        <ele>280</ele>
        <time>2021-02-25T14:31:32.705Z</time>
      </trkpt>
      <trkpt lat="43.96859" lon="2.21737">
        <ele>280</ele>
        <time>2021-02-25T14:31:33.705Z</time>
      </trkpt>
      <trkpt lat="43.96858" lon="2.21738">
        <ele>280</ele>
        <time>2021-02-25T14:31:34.705Z</time>
      </trkpt>
      <trkpt lat="43.96857" lon="2.21738">
        <ele>280</ele>
        <time>2021-02-25T14:31:35.705Z</time>
      </trkpt>
      <trkpt lat="43.96856" lon="2.21738">
        <ele>280</ele>
        <time>2021-02-25T14:31:36.705Z</time>
      </trkpt>
      <trkpt lat="43.96855" lon="2.21738">
        <ele>280</ele>
        <time>2021-02-25T14:31:37.705Z</time>
      </trkpt>
      <trkpt lat="43.96853" lon="2.21739">
        <ele>280</ele>
        <time>2021-02-25T14:31:38.705Z</time>
      </trkpt>
      <trkpt lat="43.96852" lon="2.21739">
        <ele>280</ele>
        <time>2021-02-25T14:31:39.705Z</time>
      </trkpt>
      <trkpt lat="43.96851" lon="2.21739">
        <ele>280</ele>
        <time>2021-02-25T14:31:40.705Z</time>
      </trkpt>
      <trkpt lat="43.96849" lon="2.21739">
        <ele>280</ele>
        <time>2021-02-25T14:31:41.705Z</time>
      </trkpt>
      <trkpt lat="43.96848" lon="2.2174">
        <ele>280</ele>
        <time>2021-02-25T14:31:42.705Z</time>
      </trkpt>
      <trkpt lat="43.96847" lon="2.2174">
        <ele>280</ele>
        <time>2021-02-25T14:31:43.705Z</time>
      </trkpt>
      <trkpt lat="43.96845" lon="2.2174">
        <ele>280</ele>
        <time>2021-02-25T14:31:44.705Z</time>
      </trkpt>
      <trkpt lat="43.96844" lon="2.2174">
        <ele>280</ele>
        <time>2021-02-25T14:31:45.705Z</time>
      </trkpt>
      <trkpt lat="43.96843" lon="2.2174">
        <ele>280</ele>
        <time>2021-02-25T14:31:46.705Z</time>
      </trkpt>
      <trkpt lat="43.96842" lon="2.2174">
        <ele>280</ele>
        <time>2021-02-25T14:31:47.705Z</time>
      </trkpt>
      <trkpt lat="43.9684" lon="2.2174">
        <ele>279</ele>
        <time>2021-02-25T14:31:48.705Z</time>
      </trkpt>
      <trkpt lat="43.96839" lon="2.2174">
        <ele>279</ele>
        <time>2021-02-25T14:31:49.705Z</time>
      </trkpt>
      <trkpt lat="43.96837" lon="2.2174">
        <ele>279</ele>
        <time>2021-02-25T14:31:50.705Z</time>
      </trkpt>
      <trkpt lat="43.96836" lon="2.2174">
        <ele>279</ele>
        <time>2021-02-25T14:31:51.705Z</time>
      </trkpt>
      <trkpt lat="43.96835" lon="2.2174">
        <ele>279</ele>
        <time>2021-02-25T14:31:52.705Z</time>
      </trkpt>
      <trkpt lat="43.96833" lon="2.2174">
        <ele>279</ele>
        <time>2021-02-25T14:31:53.705Z</time>
      </trkpt>
      <trkpt lat="43.96832" lon="2.2174">
        <ele>279</ele>
        <time>2021-02-25T14:31:54.705Z</time>
      </trkpt>
      <trkpt lat="43.96831" lon="2.2174">
        <ele>279</ele>
        <time>2021-02-25T14:31:55.705Z</time>
      </trkpt>
      <trkpt lat="43.9683" lon="2.2174">
        <ele>278</ele>
        <time>2021-02-25T14:31:56.705Z</time>
      </trkpt>
      <trkpt lat="43.96828" lon="2.21741">
        <ele>278</ele>
        <time>2021-02-25T14:31:57.705Z</time>
      </trkpt>
      <trkpt lat="43.96827" lon="2.21741">
        <ele>278</ele>
        <time>2021-02-25T14:31:58.705Z</time>
      </trkpt>
      <trkpt lat="43.96826" lon="2.21741">
        <ele>278</ele>
        <time>2021-02-25T14:31:59.705Z</time>
      </trkpt>
      <trkpt lat="43.96824" lon="2.21742">
        <ele>278</ele>
        <time>2021-02-25T14:32:00.705Z</time>
      </trkpt>
      <trkpt lat="43.96823" lon="2.21742">
        <ele>278</ele>
        <time>2021-02-25T14:32:01.705Z</time>
      </trkpt>
      <trkpt lat="43.96822" lon="2.21743">
        <ele>278</ele>
        <time>2021-02-25T14:32:04.951Z</time>
      </trkpt>
      <trkpt lat="43.96821" lon="2.21743">
        <ele>278</ele>
        <time>2021-02-25T14:32:05.951Z</time>
      </trkpt>
      <trkpt lat="43.9682" lon="2.21744">
        <ele>278</ele>
        <time>2021-02-25T14:32:06.951Z</time>
      </trkpt>
      <trkpt lat="43.96818" lon="2.21744">
        <ele>278</ele>
        <time>2021-02-25T14:32:07.951Z</time>
      </trkpt>
      <trkpt lat="43.96817" lon="2.21745">
        <ele>278</ele>
        <time>2021-02-25T14:32:08.951Z</time>
      </trkpt>
      <trkpt lat="43.96816" lon="2.21745">
        <ele>278</ele>
        <time>2021-02-25T14:32:09.951Z</time>
      </trkpt>
      <trkpt lat="43.96815" lon="2.21746">
        <ele>278</ele>
        <time>2021-02-25T14:32:10.951Z</time>
      </trkpt>
      <trkpt lat="43.96814" lon="2.21746">
        <ele>277</ele>
        <time>2021-02-25T14:32:11.951Z</time>
      </trkpt>
      <trkpt lat="43.96813" lon="2.21747">
        <ele>277</ele>
        <time>2021-02-25T14:32:12.951Z</time>
      </trkpt>
      <trkpt lat="43.96812" lon="2.21748">
        <ele>277</ele>
        <time>2021-02-25T14:32:13.951Z</time>
      </trkpt>
      <trkpt lat="43.96811" lon="2.21749">
        <ele>277</ele>
        <time>2021-02-25T14:32:14.951Z</time>
      </trkpt>
      <trkpt lat="43.9681" lon="2.2175">
        <ele>277</ele>
        <time>2021-02-25T14:32:15.951Z</time>
      </trkpt>
      <trkpt lat="43.96808" lon="2.21751">
        <ele>277</ele>
        <time>2021-02-25T14:32:16.951Z</time>
      </trkpt>
      <trkpt lat="43.96807" lon="2.21751">
        <ele>277</ele>
        <time>2021-02-25T14:32:17.951Z</time>
      </trkpt>
      <trkpt lat="43.96806" lon="2.21752">
        <ele>277</ele>
        <time>2021-02-25T14:32:18.951Z</time>
      </trkpt>
      <trkpt lat="43.96805" lon="2.21753">
        <ele>277</ele>
        <time>2021-02-25T14:32:19.951Z</time>
      </trkpt>
      <trkpt lat="43.96804" lon="2.21754">
        <ele>277</ele>
        <time>2021-02-25T14:32:20.951Z</time>
      </trkpt>
      <trkpt lat="43.96804" lon="2.21755">
        <ele>277</ele>
        <time>2021-02-25T14:32:21.951Z</time>
      </trkpt>
      <trkpt lat="43.96802" lon="2.21756">
        <ele>277</ele>
        <time>2021-02-25T14:32:22.951Z</time>
      </trkpt>
      <trkpt lat="43.96801" lon="2.21757">
        <ele>277</ele>
        <time>2021-02-25T14:32:23.951Z</time>
      </trkpt>
      <trkpt lat="43.968" lon="2.21758">
        <ele>277</ele>
        <time>2021-02-25T14:32:24.951Z</time>
      </trkpt>
      <trkpt lat="43.96799" lon="2.21759">
        <ele>276</ele>
        <time>2021-02-25T14:32:25.951Z</time>
      </trkpt>
      <trkpt lat="43.96799" lon="2.2176">
        <ele>276</ele>
        <time>2021-02-25T14:32:26.951Z</time>
      </trkpt>
      <trkpt lat="43.96798" lon="2.21761">
        <ele>276</ele>
        <time>2021-02-25T14:32:27.951Z</time>
      </trkpt>
      <trkpt lat="43.96797" lon="2.21763">
        <ele>276</ele>
        <time>2021-02-25T14:32:28.951Z</time>
      </trkpt>
      <trkpt lat="43.96796" lon="2.21764">
        <ele>276</ele>
        <time>2021-02-25T14:32:29.951Z</time>
      </trkpt>
      <trkpt lat="43.96795" lon="2.21765">
        <ele>276</ele>
        <time>2021-02-25T14:36:41.961Z</time>
      </trkpt>
      <trkpt lat="43.96795" lon="2.21767">
        <ele>275</ele>
        <time>2021-02-25T14:36:42.961Z</time>
      </trkpt>
      <trkpt lat="43.96794" lon="2.21768">
        <ele>275</ele>
        <time>2021-02-25T14:36:43.961Z</time>
      </trkpt>
      <trkpt lat="43.96793" lon="2.21769">
        <ele>275</ele>
        <time>2021-02-25T14:36:44.961Z</time>
      </trkpt>
      <trkpt lat="43.96792" lon="2.2177">
        <ele>275</ele>
        <time>2021-02-25T14:36:45.961Z</time>
      </trkpt>
      <trkpt lat="43.96791" lon="2.21771">
        <ele>275</ele>
        <time>2021-02-25T14:36:49.974Z</time>
      </trkpt>
      <trkpt lat="43.96791" lon="2.21772">
        <ele>275</ele>
        <time>2021-02-25T14:36:50.974Z</time>
      </trkpt>
      <trkpt lat="43.9679" lon="2.21773">
        <ele>274</ele>
        <time>2021-02-25T14:36:51.974Z</time>
      </trkpt>
      <trkpt lat="43.96789" lon="2.21775">
        <ele>274</ele>
        <time>2021-02-25T14:43:05.994Z</time>
      </trkpt>
      <trkpt lat="43.96788" lon="2.21776">
        <ele>274</ele>
        <time>2021-02-25T14:43:06.994Z</time>
      </trkpt>
      <trkpt lat="43.96787" lon="2.21778">
        <ele>274</ele>
        <time>2021-02-25T14:43:07.994Z</time>
      </trkpt>
      <trkpt lat="43.96786" lon="2.2178">
        <ele>274</ele>
        <time>2021-02-25T14:43:08.994Z</time>
      </trkpt>
      <trkpt lat="43.96785" lon="2.21781">
        <ele>274</ele>
        <time>2021-02-25T14:43:09.994Z</time>
      </trkpt>
      <trkpt lat="43.96784" lon="2.21782">
        <ele>274</ele>
        <time>2021-02-25T14:43:10.994Z</time>
      </trkpt>
      <trkpt lat="43.96783" lon="2.21783">
        <ele>274</ele>
        <time>2021-02-25T14:43:17.993Z</time>
      </trkpt>
      <trkpt lat="43.96782" lon="2.21784">
        <ele>274</ele>
        <time>2021-02-25T14:43:18.993Z</time>
      </trkpt>
      <trkpt lat="43.96781" lon="2.21786">
        <ele>274</ele>
        <time>2021-02-25T14:43:19.993Z</time>
      </trkpt>
      <trkpt lat="43.9678" lon="2.21787">
        <ele>274</ele>
        <time>2021-02-25T14:43:20.993Z</time>
      </trkpt>
      <trkpt lat="43.96779" lon="2.21788">
        <ele>274</ele>
        <time>2021-02-25T14:43:21.993Z</time>
      </trkpt>
      <trkpt lat="43.96779" lon="2.2179">
        <ele>274</ele>
        <time>2021-02-25T14:43:22.993Z</time>
      </trkpt>
      <trkpt lat="43.96778" lon="2.21791">
        <ele>274</ele>
        <time>2021-02-25T14:43:23.993Z</time>
      </trkpt>
      <trkpt lat="43.96777" lon="2.21793">
        <ele>274</ele>
        <time>2021-02-25T14:43:24.993Z</time>
      </trkpt>
      <trkpt lat="43.96776" lon="2.21794">
        <ele>274</ele>
        <time>2021-02-25T14:43:25.993Z</time>
      </trkpt>
      <trkpt lat="43.96775" lon="2.21795">
        <ele>274</ele>
        <time>2021-02-25T14:43:26.993Z</time>
      </trkpt>
      <trkpt lat="43.96774" lon="2.21797">
        <ele>274</ele>
        <time>2021-02-25T14:43:27.993Z</time>
      </trkpt>
      <trkpt lat="43.96774" lon="2.21798">
        <ele>274</ele>
        <time>2021-02-25T14:43:28.993Z</time>
      </trkpt>
      <trkpt lat="43.96773" lon="2.21799">
        <ele>274</ele>
        <time>2021-02-25T14:43:29.993Z</time>
      </trkpt>
      <trkpt lat="43.96772" lon="2.218">
        <ele>273</ele>
        <time>2021-02-25T14:43:30.993Z</time>
      </trkpt>
      <trkpt lat="43.96771" lon="2.21802">
        <ele>273</ele>
        <time>2021-02-25T14:43:31.993Z</time>
      </trkpt>
      <trkpt lat="43.9677" lon="2.21803">
        <ele>273</ele>
        <time>2021-02-25T14:43:32.993Z</time>
      </trkpt>
      <trkpt lat="43.9677" lon="2.21804">
        <ele>273</ele>
        <time>2021-02-25T14:43:33.993Z</time>
      </trkpt>
      <trkpt lat="43.96769" lon="2.21805">
        <ele>273</ele>
        <time>2021-02-25T14:43:34.993Z</time>
      </trkpt>
      <trkpt lat="43.96769" lon="2.21806">
        <ele>273</ele>
        <time>2021-02-25T14:43:35.993Z</time>
      </trkpt>
      <trkpt lat="43.96768" lon="2.21807">
        <ele>273</ele>
        <time>2021-02-25T14:43:36.993Z</time>
      </trkpt>
      <trkpt lat="43.96767" lon="2.21808">
        <ele>273</ele>
        <time>2021-02-25T14:43:37.993Z</time>
      </trkpt>
      <trkpt lat="43.96766" lon="2.21809">
        <ele>273</ele>
        <time>2021-02-25T14:43:38.993Z</time>
      </trkpt>
      <trkpt lat="43.96764" lon="2.21809">
        <ele>273</ele>
        <time>2021-02-25T14:43:39.993Z</time>
      </trkpt>
      <trkpt lat="43.96763" lon="2.21809">
        <ele>273</ele>
        <time>2021-02-25T14:43:40.993Z</time>
      </trkpt>
      <trkpt lat="43.96762" lon="2.21808">
        <ele>273</ele>
        <time>2021-02-25T14:43:41.993Z</time>
      </trkpt>
      <trkpt lat="43.96761" lon="2.21808">
        <ele>273</ele>
        <time>2021-02-25T14:43:42.993Z</time>
      </trkpt>
      <trkpt lat="43.96761" lon="2.21808">
        <ele>273</ele>
        <time>2021-02-25T14:43:43.993Z</time>
      </trkpt>
      <trkpt lat="43.9676" lon="2.21807">
        <ele>273</ele>
        <time>2021-02-25T14:43:44.993Z</time>
      </trkpt>
      <trkpt lat="43.96758" lon="2.21807">
        <ele>273</ele>
        <time>2021-02-25T14:43:45.993Z</time>
      </trkpt>
      <trkpt lat="43.96757" lon="2.21807">
        <ele>273</ele>
        <time>2021-02-25T14:43:46.993Z</time>
      </trkpt>
      <trkpt lat="43.96756" lon="2.21807">
        <ele>273</ele>
        <time>2021-02-25T14:43:47.993Z</time>
      </trkpt>
      <trkpt lat="43.96755" lon="2.21806">
        <ele>273</ele>
        <time>2021-02-25T14:43:48.993Z</time>
      </trkpt>
      <trkpt lat="43.96754" lon="2.21806">
        <ele>273</ele>
        <time>2021-02-25T14:43:49.993Z</time>
      </trkpt>
      <trkpt lat="43.96753" lon="2.21806">
        <ele>273</ele>
        <time>2021-02-25T14:43:50.993Z</time>
      </trkpt>
      <trkpt lat="43.96752" lon="2.21806">
        <ele>273</ele>
        <time>2021-02-25T14:43:51.993Z</time>
      </trkpt>
      <trkpt lat="43.96751" lon="2.21806">
        <ele>273</ele>
        <time>2021-02-25T14:43:52.993Z</time>
      </trkpt>
      <trkpt lat="43.9675" lon="2.21805">
        <ele>273</ele>
        <time>2021-02-25T14:43:53.993Z</time>
      </trkpt>
      <trkpt lat="43.96749" lon="2.21805">
        <ele>273</ele>
        <time>2021-02-25T14:43:54.993Z</time>
      </trkpt>
      <trkpt lat="43.96748" lon="2.21805">
        <ele>273</ele>
        <time>2021-02-25T14:43:55.993Z</time>
      </trkpt>
      <trkpt lat="43.96746" lon="2.21805">
        <ele>273</ele>
        <time>2021-02-25T14:43:56.993Z</time>
      </trkpt>
      <trkpt lat="43.96746" lon="2.21804">
        <ele>273</ele>
        <time>2021-02-25T14:43:57.993Z</time>
      </trkpt>
      <trkpt lat="43.96744" lon="2.21804">
        <ele>273</ele>
        <time>2021-02-25T14:43:58.993Z</time>
      </trkpt>
      <trkpt lat="43.96743" lon="2.21804">
        <ele>273</ele>
        <time>2021-02-25T14:43:59.993Z</time>
      </trkpt>
      <trkpt lat="43.96742" lon="2.21804">
        <ele>273</ele>
        <time>2021-02-25T14:44:00.993Z</time>
      </trkpt>
      <trkpt lat="43.96741" lon="2.21803">
        <ele>273</ele>
        <time>2021-02-25T14:44:01.993Z</time>
      </trkpt>
      <trkpt lat="43.96739" lon="2.21803">
        <ele>273</ele>
        <time>2021-02-25T14:44:02.993Z</time>
      </trkpt>
      <trkpt lat="43.96738" lon="2.21803">
        <ele>273</ele>
        <time>2021-02-25T14:44:03.993Z</time>
      </trkpt>
      <trkpt lat="43.96738" lon="2.21803">
        <ele>273</ele>
        <time>2021-02-25T14:44:04.993Z</time>
      </trkpt>
      <trkpt lat="43.96737" lon="2.21803">
        <ele>272</ele>
        <time>2021-02-25T14:44:05.993Z</time>
      </trkpt>
      <trkpt lat="43.96736" lon="2.21802">
        <ele>272</ele>
        <time>2021-02-25T14:44:06.993Z</time>
      </trkpt>
      <trkpt lat="43.96734" lon="2.21802">
        <ele>272</ele>
        <time>2021-02-25T14:44:07.993Z</time>
      </trkpt>
      <trkpt lat="43.96733" lon="2.21802">
        <ele>272</ele>
        <time>2021-02-25T14:44:08.993Z</time>
      </trkpt>
      <trkpt lat="43.96733" lon="2.21802">
        <ele>272</ele>
        <time>2021-02-25T14:44:09.993Z</time>
      </trkpt>
      <trkpt lat="43.96732" lon="2.21801">
        <ele>272</ele>
        <time>2021-02-25T14:44:10.993Z</time>
      </trkpt>
      <trkpt lat="43.9673" lon="2.21801">
        <ele>271</ele>
        <time>2021-02-25T14:44:11.993Z</time>
      </trkpt>
      <trkpt lat="43.96729" lon="2.218">
        <ele>271</ele>
        <time>2021-02-25T14:44:12.993Z</time>
      </trkpt>
      <trkpt lat="43.96728" lon="2.218">
        <ele>271</ele>
        <time>2021-02-25T14:44:13.993Z</time>
      </trkpt>
      <trkpt lat="43.96727" lon="2.218">
        <ele>271</ele>
        <time>2021-02-25T14:44:14.993Z</time>
      </trkpt>
      <trkpt lat="43.96726" lon="2.218">
        <ele>271</ele>
        <time>2021-02-25T14:44:15.993Z</time>
      </trkpt>
      <trkpt lat="43.96725" lon="2.218">
        <ele>270</ele>
        <time>2021-02-25T14:44:16.993Z</time>
      </trkpt>
      <trkpt lat="43.96724" lon="2.218">
        <ele>270</ele>
        <time>2021-02-25T14:44:17.993Z</time>
      </trkpt>
      <trkpt lat="43.96723" lon="2.21799">
        <ele>270</ele>
        <time>2021-02-25T14:44:18.993Z</time>
      </trkpt>
      <trkpt lat="43.96721" lon="2.218">
        <ele>270</ele>
        <time>2021-02-25T14:44:19.993Z</time>
      </trkpt>
      <trkpt lat="43.9672" lon="2.21799">
        <ele>270</ele>
        <time>2021-02-25T14:44:20.993Z</time>
      </trkpt>
      <trkpt lat="43.96719" lon="2.21799">
        <ele>269</ele>
        <time>2021-02-25T14:44:21.993Z</time>
      </trkpt>
      <trkpt lat="43.96718" lon="2.21798">
        <ele>269</ele>
        <time>2021-02-25T14:44:22.993Z</time>
      </trkpt>
      <trkpt lat="43.96717" lon="2.21797">
        <ele>269</ele>
        <time>2021-02-25T14:44:23.993Z</time>
      </trkpt>
      <trkpt lat="43.96716" lon="2.21797">
        <ele>269</ele>
        <time>2021-02-25T14:44:24.993Z</time>
      </trkpt>
      <trkpt lat="43.96715" lon="2.21797">
        <ele>268</ele>
        <time>2021-02-25T14:44:25.993Z</time>
      </trkpt>
      <trkpt lat="43.96713" lon="2.21796">
        <ele>268</ele>
        <time>2021-02-25T14:44:26.993Z</time>
      </trkpt>
      <trkpt lat="43.96712" lon="2.21796">
        <ele>268</ele>
        <time>2021-02-25T14:44:27.993Z</time>
      </trkpt>
      <trkpt lat="43.96711" lon="2.21795">
        <ele>268</ele>
        <time>2021-02-25T14:44:28.993Z</time>
      </trkpt>
      <trkpt lat="43.9671" lon="2.21795">
        <ele>267</ele>
        <time>2021-02-25T14:44:29.993Z</time>
      </trkpt>
      <trkpt lat="43.96708" lon="2.21795">
        <ele>267</ele>
        <time>2021-02-25T14:44:30.993Z</time>
      </trkpt>
      <trkpt lat="43.96707" lon="2.21795">
        <ele>267</ele>
        <time>2021-02-25T14:44:31.993Z</time>
      </trkpt>
      <trkpt lat="43.96706" lon="2.21795">
        <ele>267</ele>
        <time>2021-02-25T14:44:32.993Z</time>
      </trkpt>
      <trkpt lat="43.96705" lon="2.21795">
        <ele>267</ele>
        <time>2021-02-25T14:44:33.993Z</time>
      </trkpt>
      <trkpt lat="43.96703" lon="2.21794">
        <ele>267</ele>
        <time>2021-02-25T14:44:34.993Z</time>
      </trkpt>
      <trkpt lat="43.96702" lon="2.21794">
        <ele>267</ele>
        <time>2021-02-25T14:44:35.993Z</time>
      </trkpt>
      <trkpt lat="43.96701" lon="2.21793">
        <ele>266</ele>
        <time>2021-02-25T14:44:36.993Z</time>
      </trkpt>
      <trkpt lat="43.967" lon="2.21793">
        <ele>266</ele>
        <time>2021-02-25T14:44:37.993Z</time>
      </trkpt>
      <trkpt lat="43.96699" lon="2.21793">
        <ele>266</ele>
        <time>2021-02-25T14:44:38.993Z</time>
      </trkpt>
      <trkpt lat="43.96698" lon="2.21793">
        <ele>265</ele>
        <time>2021-02-25T14:44:39.993Z</time>
      </trkpt>
      <trkpt lat="43.96696" lon="2.21792">
        <ele>265</ele>
        <time>2021-02-25T14:44:40.993Z</time>
      </trkpt>
      <trkpt lat="43.96695" lon="2.21792">
        <ele>265</ele>
        <time>2021-02-25T14:44:41.993Z</time>
      </trkpt>
      <trkpt lat="43.96694" lon="2.21792">
        <ele>265</ele>
        <time>2021-02-25T14:44:42.993Z</time>
      </trkpt>
      <trkpt lat="43.96693" lon="2.21792">
        <ele>265</ele>
        <time>2021-02-25T14:44:43.993Z</time>
      </trkpt>
      <trkpt lat="43.96692" lon="2.21791">
        <ele>264</ele>
        <time>2021-02-25T14:44:44.993Z</time>
      </trkpt>
      <trkpt lat="43.96691" lon="2.21791">
        <ele>264</ele>
        <time>2021-02-25T14:44:45.993Z</time>
      </trkpt>
      <trkpt lat="43.9669" lon="2.2179">
        <ele>264</ele>
        <time>2021-02-25T14:44:46.993Z</time>
      </trkpt>
      <trkpt lat="43.96688" lon="2.2179">
        <ele>263</ele>
        <time>2021-02-25T14:44:47.993Z</time>
      </trkpt>
      <trkpt lat="43.96687" lon="2.2179">
        <ele>263</ele>
        <time>2021-02-25T14:44:48.993Z</time>
      </trkpt>
      <trkpt lat="43.96686" lon="2.21789">
        <ele>263</ele>
        <time>2021-02-25T14:44:49.993Z</time>
      </trkpt>
      <trkpt lat="43.96685" lon="2.21789">
        <ele>263</ele>
        <time>2021-02-25T14:44:50.993Z</time>
      </trkpt>
      <trkpt lat="43.96684" lon="2.21789">
        <ele>262</ele>
        <time>2021-02-25T14:44:51.993Z</time>
      </trkpt>
      <trkpt lat="43.96682" lon="2.21788">
        <ele>262</ele>
        <time>2021-02-25T14:44:52.993Z</time>
      </trkpt>
      <trkpt lat="43.96681" lon="2.21788">
        <ele>262</ele>
        <time>2021-02-25T14:44:53.993Z</time>
      </trkpt>
      <trkpt lat="43.9668" lon="2.21787">
        <ele>262</ele>
        <time>2021-02-25T14:44:54.993Z</time>
      </trkpt>
      <trkpt lat="43.96679" lon="2.21787">
        <ele>262</ele>
        <time>2021-02-25T14:44:55.993Z</time>
      </trkpt>
      <trkpt lat="43.96677" lon="2.21786">
        <ele>261</ele>
        <time>2021-02-25T14:44:56.993Z</time>
      </trkpt>
      <trkpt lat="43.96676" lon="2.21786">
        <ele>261</ele>
        <time>2021-02-25T14:44:57.993Z</time>
      </trkpt>
      <trkpt lat="43.96675" lon="2.21786">
        <ele>261</ele>
        <time>2021-02-25T14:44:58.993Z</time>
      </trkpt>
      <trkpt lat="43.96674" lon="2.21785">
        <ele>261</ele>
        <time>2021-02-25T14:44:59.993Z</time>
      </trkpt>
      <trkpt lat="43.96673" lon="2.21785">
        <ele>261</ele>
        <time>2021-02-25T14:45:00.993Z</time>
      </trkpt>
      <trkpt lat="43.96672" lon="2.21784">
        <ele>260</ele>
        <time>2021-02-25T14:45:01.993Z</time>
      </trkpt>
      <trkpt lat="43.9667" lon="2.21784">
        <ele>260</ele>
        <time>2021-02-25T14:45:02.993Z</time>
      </trkpt>
      <trkpt lat="43.96669" lon="2.21783">
        <ele>260</ele>
        <time>2021-02-25T14:45:03.993Z</time>
      </trkpt>
      <trkpt lat="43.96668" lon="2.21783">
        <ele>260</ele>
        <time>2021-02-25T14:45:04.993Z</time>
      </trkpt>
      <trkpt lat="43.96667" lon="2.21782">
        <ele>260</ele>
        <time>2021-02-25T14:45:05.993Z</time>
      </trkpt>
      <trkpt lat="43.96666" lon="2.21782">
        <ele>260</ele>
        <time>2021-02-25T14:45:06.993Z</time>
      </trkpt>
      <trkpt lat="43.96664" lon="2.21781">
        <ele>259</ele>
        <time>2021-02-25T14:45:07.993Z</time>
      </trkpt>
      <trkpt lat="43.96663" lon="2.21781">
        <ele>259</ele>
        <time>2021-02-25T14:45:08.993Z</time>
      </trkpt>
      <trkpt lat="43.96662" lon="2.2178">
        <ele>259</ele>
        <time>2021-02-25T14:45:09.993Z</time>
      </trkpt>
      <trkpt lat="43.96661" lon="2.2178">
        <ele>259</ele>
        <time>2021-02-25T14:45:10.993Z</time>
      </trkpt>
      <trkpt lat="43.9666" lon="2.21779">
        <ele>258</ele>
        <time>2021-02-25T14:45:11.993Z</time>
      </trkpt>
      <trkpt lat="43.96659" lon="2.21779">
        <ele>258</ele>
        <time>2021-02-25T14:45:12.993Z</time>
      </trkpt>
      <trkpt lat="43.96658" lon="2.21779">
        <ele>258</ele>
        <time>2021-02-25T14:45:13.993Z</time>
      </trkpt>
      <trkpt lat="43.96656" lon="2.21778">
        <ele>258</ele>
        <time>2021-02-25T14:45:14.993Z</time>
      </trkpt>
      <trkpt lat="43.96655" lon="2.21778">
        <ele>257</ele>
        <time>2021-02-25T14:45:15.993Z</time>
      </trkpt>
      <trkpt lat="43.96654" lon="2.21778">
        <ele>257</ele>
        <time>2021-02-25T14:45:16.993Z</time>
      </trkpt>
      <trkpt lat="43.96653" lon="2.21778">
        <ele>257</ele>
        <time>2021-02-25T14:45:17.993Z</time>
      </trkpt>
      <trkpt lat="43.96652" lon="2.21778">
        <ele>257</ele>
        <time>2021-02-25T14:45:18.993Z</time>
      </trkpt>
      <trkpt lat="43.9665" lon="2.21777">
        <ele>257</ele>
        <time>2021-02-25T14:45:19.993Z</time>
      </trkpt>
      <trkpt lat="43.96649" lon="2.21777">
        <ele>256</ele>
        <time>2021-02-25T14:45:20.993Z</time>
      </trkpt>
      <trkpt lat="43.96648" lon="2.21777">
        <ele>256</ele>
        <time>2021-02-25T14:45:21.993Z</time>
      </trkpt>
      <trkpt lat="43.96647" lon="2.21776">
        <ele>256</ele>
        <time>2021-02-25T14:45:22.993Z</time>
      </trkpt>
      <trkpt lat="43.96646" lon="2.21776">
        <ele>256</ele>
        <time>2021-02-25T14:45:23.993Z</time>
      </trkpt>
      <trkpt lat="43.96645" lon="2.21776">
        <ele>255</ele>
        <time>2021-02-25T14:45:24.993Z</time>
      </trkpt>
      <trkpt lat="43.96643" lon="2.21776">
        <ele>255</ele>
        <time>2021-02-25T14:45:25.993Z</time>
      </trkpt>
      <trkpt lat="43.96642" lon="2.21776">
        <ele>255</ele>
        <time>2021-02-25T14:45:26.993Z</time>
      </trkpt>
      <trkpt lat="43.96641" lon="2.21776">
        <ele>255</ele>
        <time>2021-02-25T14:45:27.993Z</time>
      </trkpt>
      <trkpt lat="43.9664" lon="2.21776">
        <ele>255</ele>
        <time>2021-02-25T14:45:28.993Z</time>
      </trkpt>
      <trkpt lat="43.96639" lon="2.21776">
        <ele>254</ele>
        <time>2021-02-25T14:45:29.993Z</time>
      </trkpt>
      <trkpt lat="43.96638" lon="2.21776">
        <ele>254</ele>
        <time>2021-02-25T14:45:30.993Z</time>
      </trkpt>
      <trkpt lat="43.96637" lon="2.21775">
        <ele>254</ele>
        <time>2021-02-25T14:45:31.993Z</time>
      </trkpt>
      <trkpt lat="43.96636" lon="2.21775">
        <ele>254</ele>
        <time>2021-02-25T14:45:32.993Z</time>
      </trkpt>
      <trkpt lat="43.96634" lon="2.21775">
        <ele>253</ele>
        <time>2021-02-25T14:45:33.993Z</time>
      </trkpt>
      <trkpt lat="43.96633" lon="2.21775">
        <ele>253</ele>
        <time>2021-02-25T14:45:34.993Z</time>
      </trkpt>
      <trkpt lat="43.96632" lon="2.21774">
        <ele>253</ele>
        <time>2021-02-25T14:45:35.993Z</time>
      </trkpt>
      <trkpt lat="43.96631" lon="2.21774">
        <ele>253</ele>
        <time>2021-02-25T14:45:36.993Z</time>
      </trkpt>
      <trkpt lat="43.9663" lon="2.21774">
        <ele>253</ele>
        <time>2021-02-25T14:45:37.993Z</time>
      </trkpt>
      <trkpt lat="43.96629" lon="2.21774">
        <ele>252</ele>
        <time>2021-02-25T14:45:38.993Z</time>
      </trkpt>
      <trkpt lat="43.96628" lon="2.21774">
        <ele>252</ele>
        <time>2021-02-25T14:45:39.993Z</time>
      </trkpt>
      <trkpt lat="43.96627" lon="2.21773">
        <ele>252</ele>
        <time>2021-02-25T14:45:40.993Z</time>
      </trkpt>
      <trkpt lat="43.96626" lon="2.21773">
        <ele>252</ele>
        <time>2021-02-25T14:45:41.993Z</time>
      </trkpt>
      <trkpt lat="43.96625" lon="2.21773">
        <ele>251</ele>
        <time>2021-02-25T14:45:42.993Z</time>
      </trkpt>
      <trkpt lat="43.96624" lon="2.21773">
        <ele>251</ele>
        <time>2021-02-25T14:45:43.993Z</time>
      </trkpt>
      <trkpt lat="43.96623" lon="2.21773">
        <ele>251</ele>
        <time>2021-02-25T14:45:44.993Z</time>
      </trkpt>
      <trkpt lat="43.96622" lon="2.21772">
        <ele>251</ele>
        <time>2021-02-25T14:45:45.993Z</time>
      </trkpt>
      <trkpt lat="43.96621" lon="2.21772">
        <ele>250</ele>
        <time>2021-02-25T14:45:46.993Z</time>
      </trkpt>
      <trkpt lat="43.9662" lon="2.21771">
        <ele>250</ele>
        <time>2021-02-25T14:45:47.993Z</time>
      </trkpt>
      <trkpt lat="43.96618" lon="2.2177">
        <ele>250</ele>
        <time>2021-02-25T14:45:48.993Z</time>
      </trkpt>
      <trkpt lat="43.96617" lon="2.2177">
        <ele>250</ele>
        <time>2021-02-25T14:45:49.993Z</time>
      </trkpt>
      <trkpt lat="43.96616" lon="2.21769">
        <ele>249</ele>
        <time>2021-02-25T14:45:50.993Z</time>
      </trkpt>
      <trkpt lat="43.96615" lon="2.21768">
        <ele>249</ele>
        <time>2021-02-25T14:45:51.993Z</time>
      </trkpt>
      <trkpt lat="43.96614" lon="2.21768">
        <ele>249</ele>
        <time>2021-02-25T14:45:52.993Z</time>
      </trkpt>
      <trkpt lat="43.96613" lon="2.21767">
        <ele>249</ele>
        <time>2021-02-25T14:45:53.993Z</time>
      </trkpt>
      <trkpt lat="43.96612" lon="2.21767">
        <ele>248</ele>
        <time>2021-02-25T14:45:54.993Z</time>
      </trkpt>
      <trkpt lat="43.96611" lon="2.21767">
        <ele>248</ele>
        <time>2021-02-25T14:45:55.993Z</time>
      </trkpt>
      <trkpt lat="43.9661" lon="2.21766">
        <ele>248</ele>
        <time>2021-02-25T14:45:56.993Z</time>
      </trkpt>
      <trkpt lat="43.96609" lon="2.21765">
        <ele>248</ele>
        <time>2021-02-25T14:45:57.993Z</time>
      </trkpt>
      <trkpt lat="43.96608" lon="2.21765">
        <ele>247</ele>
        <time>2021-02-25T14:45:58.993Z</time>
      </trkpt>
      <trkpt lat="43.96607" lon="2.21764">
        <ele>247</ele>
        <time>2021-02-25T14:45:59.993Z</time>
      </trkpt>
      <trkpt lat="43.96606" lon="2.21764">
        <ele>247</ele>
        <time>2021-02-25T14:46:00.993Z</time>
      </trkpt>
      <trkpt lat="43.96605" lon="2.21763">
        <ele>246</ele>
        <time>2021-02-25T14:46:01.993Z</time>
      </trkpt>
      <trkpt lat="43.96604" lon="2.21763">
        <ele>246</ele>
        <time>2021-02-25T14:46:02.993Z</time>
      </trkpt>
      <trkpt lat="43.96603" lon="2.21762">
        <ele>246</ele>
        <time>2021-02-25T14:46:03.993Z</time>
      </trkpt>
      <trkpt lat="43.96602" lon="2.21762">
        <ele>246</ele>
        <time>2021-02-25T14:46:04.993Z</time>
      </trkpt>
      <trkpt lat="43.96601" lon="2.21761">
        <ele>246</ele>
        <time>2021-02-25T14:46:05.993Z</time>
      </trkpt>
      <trkpt lat="43.966" lon="2.2176">
        <ele>245</ele>
        <time>2021-02-25T14:46:06.993Z</time>
      </trkpt>
      <trkpt lat="43.96599" lon="2.2176">
        <ele>245</ele>
        <time>2021-02-25T14:46:07.993Z</time>
      </trkpt>
      <trkpt lat="43.96597" lon="2.21759">
        <ele>245</ele>
        <time>2021-02-25T14:46:08.993Z</time>
      </trkpt>
      <trkpt lat="43.96596" lon="2.21759">
        <ele>245</ele>
        <time>2021-02-25T14:46:09.993Z</time>
      </trkpt>
      <trkpt lat="43.96595" lon="2.21758">
        <ele>244</ele>
        <time>2021-02-25T14:46:10.993Z</time>
      </trkpt>
      <trkpt lat="43.96594" lon="2.21757">
        <ele>244</ele>
        <time>2021-02-25T14:46:11.993Z</time>
      </trkpt>
      <trkpt lat="43.96593" lon="2.21757">
        <ele>244</ele>
        <time>2021-02-25T14:46:12.993Z</time>
      </trkpt>
      <trkpt lat="43.96592" lon="2.21756">
        <ele>244</ele>
        <time>2021-02-25T14:46:13.993Z</time>
      </trkpt>
      <trkpt lat="43.96591" lon="2.21756">
        <ele>243</ele>
        <time>2021-02-25T14:46:14.993Z</time>
      </trkpt>
      <trkpt lat="43.9659" lon="2.21755">
        <ele>243</ele>
        <time>2021-02-25T14:46:15.993Z</time>
      </trkpt>
      <trkpt lat="43.96589" lon="2.21755">
        <ele>243</ele>
        <time>2021-02-25T14:46:16.993Z</time>
      </trkpt>
      <trkpt lat="43.96588" lon="2.21754">
        <ele>243</ele>
        <time>2021-02-25T14:46:17.993Z</time>
      </trkpt>
      <trkpt lat="43.96586" lon="2.21753">
        <ele>242</ele>
        <time>2021-02-25T14:46:18.993Z</time>
      </trkpt>
      <trkpt lat="43.96585" lon="2.21753">
        <ele>242</ele>
        <time>2021-02-25T14:46:19.993Z</time>
      </trkpt>
      <trkpt lat="43.96584" lon="2.21752">
        <ele>242</ele>
        <time>2021-02-25T14:46:20.993Z</time>
      </trkpt>
      <trkpt lat="43.96583" lon="2.21751">
        <ele>242</ele>
        <time>2021-02-25T14:46:21.993Z</time>
      </trkpt>
      <trkpt lat="43.96582" lon="2.21751">
        <ele>241</ele>
        <time>2021-02-25T14:46:22.993Z</time>
      </trkpt>
      <trkpt lat="43.96581" lon="2.2175">
        <ele>241</ele>
        <time>2021-02-25T14:46:23.993Z</time>
      </trkpt>
      <trkpt lat="43.96579" lon="2.2175">
        <ele>241</ele>
        <time>2021-02-25T14:46:24.993Z</time>
      </trkpt>
      <trkpt lat="43.96578" lon="2.21749">
        <ele>241</ele>
        <time>2021-02-25T14:46:25.993Z</time>
      </trkpt>
      <trkpt lat="43.96577" lon="2.21749">
        <ele>240</ele>
        <time>2021-02-25T14:46:26.993Z</time>
      </trkpt>
      <trkpt lat="43.96576" lon="2.21748">
        <ele>240</ele>
        <time>2021-02-25T14:46:27.993Z</time>
      </trkpt>
      <trkpt lat="43.96575" lon="2.21747">
        <ele>240</ele>
        <time>2021-02-25T14:46:28.993Z</time>
      </trkpt>
      <trkpt lat="43.96574" lon="2.21747">
        <ele>240</ele>
        <time>2021-02-25T14:46:29.993Z</time>
      </trkpt>
      <trkpt lat="43.96573" lon="2.21746">
        <ele>239</ele>
        <time>2021-02-25T14:46:30.993Z</time>
      </trkpt>
      <trkpt lat="43.96571" lon="2.21746">
        <ele>239</ele>
        <time>2021-02-25T14:46:31.993Z</time>
      </trkpt>
      <trkpt lat="43.9657" lon="2.21745">
        <ele>239</ele>
        <time>2021-02-25T14:46:32.993Z</time>
      </trkpt>
      <trkpt lat="43.96569" lon="2.21744">
        <ele>238</ele>
        <time>2021-02-25T14:46:33.993Z</time>
      </trkpt>
      <trkpt lat="43.96568" lon="2.21744">
        <ele>238</ele>
        <time>2021-02-25T14:46:34.993Z</time>
      </trkpt>
      <trkpt lat="43.96567" lon="2.21743">
        <ele>238</ele>
        <time>2021-02-25T14:46:35.993Z</time>
      </trkpt>
      <trkpt lat="43.96566" lon="2.21743">
        <ele>238</ele>
        <time>2021-02-25T14:46:36.993Z</time>
      </trkpt>
      <trkpt lat="43.96565" lon="2.21742">
        <ele>237</ele>
        <time>2021-02-25T14:46:37.993Z</time>
      </trkpt>
      <trkpt lat="43.96564" lon="2.21741">
        <ele>237</ele>
        <time>2021-02-25T14:46:38.993Z</time>
      </trkpt>
      <trkpt lat="43.96563" lon="2.21741">
        <ele>237</ele>
        <time>2021-02-25T14:46:39.993Z</time>
      </trkpt>
      <trkpt lat="43.96562" lon="2.2174">
        <ele>237</ele>
        <time>2021-02-25T14:46:40.993Z</time>
      </trkpt>
      <trkpt lat="43.96561" lon="2.21739">
        <ele>236</ele>
        <time>2021-02-25T14:46:41.993Z</time>
      </trkpt>
      <trkpt lat="43.9656" lon="2.21739">
        <ele>236</ele>
        <time>2021-02-25T14:46:42.993Z</time>
      </trkpt>
      <trkpt lat="43.96559" lon="2.21738">
        <ele>236</ele>
        <time>2021-02-25T14:46:43.993Z</time>
      </trkpt>
      <trkpt lat="43.96558" lon="2.21738">
        <ele>235</ele>
        <time>2021-02-25T14:46:44.993Z</time>
      </trkpt>
      <trkpt lat="43.96557" lon="2.21737">
        <ele>235</ele>
        <time>2021-02-25T14:46:45.993Z</time>
      </trkpt>
      <trkpt lat="43.96556" lon="2.21737">
        <ele>235</ele>
        <time>2021-02-25T14:46:46.993Z</time>
      </trkpt>
      <trkpt lat="43.96555" lon="2.21736">
        <ele>235</ele>
        <time>2021-02-25T14:46:47.993Z</time>
      </trkpt>
      <trkpt lat="43.96553" lon="2.21736">
        <ele>234</ele>
        <time>2021-02-25T14:46:48.993Z</time>
      </trkpt>
      <trkpt lat="43.96552" lon="2.21735">
        <ele>234</ele>
        <time>2021-02-25T14:46:49.993Z</time>
      </trkpt>
      <trkpt lat="43.96551" lon="2.21735">
        <ele>234</ele>
        <time>2021-02-25T14:46:50.993Z</time>
      </trkpt>
      <trkpt lat="43.9655" lon="2.21734">
        <ele>234</ele>
        <time>2021-02-25T14:46:51.993Z</time>
      </trkpt>
      <trkpt lat="43.96549" lon="2.21733">
        <ele>233</ele>
        <time>2021-02-25T14:46:52.993Z</time>
      </trkpt>
      <trkpt lat="43.96548" lon="2.21732">
        <ele>233</ele>
        <time>2021-02-25T14:46:53.993Z</time>
      </trkpt>
      <trkpt lat="43.96547" lon="2.21731">
        <ele>233</ele>
        <time>2021-02-25T14:46:54.993Z</time>
      </trkpt>
      <trkpt lat="43.96546" lon="2.2173">
        <ele>233</ele>
        <time>2021-02-25T14:46:55.993Z</time>
      </trkpt>
      <trkpt lat="43.96546" lon="2.21728">
        <ele>232</ele>
        <time>2021-02-25T14:46:56.993Z</time>
      </trkpt>
      <trkpt lat="43.96545" lon="2.21727">
        <ele>232</ele>
        <time>2021-02-25T14:46:57.993Z</time>
      </trkpt>
      <trkpt lat="43.96545" lon="2.21725">
        <ele>232</ele>
        <time>2021-02-25T14:46:58.993Z</time>
      </trkpt>
      <trkpt lat="43.96545" lon="2.21724">
        <ele>232</ele>
        <time>2021-02-25T14:46:59.993Z</time>
      </trkpt>
      <trkpt lat="43.96545" lon="2.21722">
        <ele>232</ele>
        <time>2021-02-25T14:47:00.993Z</time>
      </trkpt>
      <trkpt lat="43.96546" lon="2.2172">
        <ele>232</ele>
        <time>2021-02-25T14:47:01.993Z</time>
      </trkpt>
      <trkpt lat="43.96546" lon="2.21719">
        <ele>232</ele>
        <time>2021-02-25T14:47:02.993Z</time>
      </trkpt>
      <trkpt lat="43.96546" lon="2.21717">
        <ele>232</ele>
        <time>2021-02-25T14:47:03.993Z</time>
      </trkpt>
      <trkpt lat="43.96547" lon="2.21715">
        <ele>232</ele>
        <time>2021-02-25T14:47:04.993Z</time>
      </trkpt>
      <trkpt lat="43.96547" lon="2.21714">
        <ele>232</ele>
        <time>2021-02-25T14:47:05.993Z</time>
      </trkpt>
      <trkpt lat="43.96548" lon="2.21712">
        <ele>232</ele>
        <time>2021-02-25T14:47:06.993Z</time>
      </trkpt>
      <trkpt lat="43.96549" lon="2.21711">
        <ele>232</ele>
        <time>2021-02-25T14:47:07.993Z</time>
      </trkpt>
      <trkpt lat="43.96549" lon="2.21709">
        <ele>232</ele>
        <time>2021-02-25T14:47:08.993Z</time>
      </trkpt>
      <trkpt lat="43.9655" lon="2.21707">
        <ele>231</ele>
        <time>2021-02-25T14:47:09.993Z</time>
      </trkpt>
      <trkpt lat="43.9655" lon="2.21705">
        <ele>231</ele>
        <time>2021-02-25T14:47:10.993Z</time>
      </trkpt>
      <trkpt lat="43.96551" lon="2.21703">
        <ele>231</ele>
        <time>2021-02-25T14:47:11.993Z</time>
      </trkpt>
      <trkpt lat="43.96551" lon="2.21702">
        <ele>231</ele>
        <time>2021-02-25T14:47:12.993Z</time>
      </trkpt>
      <trkpt lat="43.96552" lon="2.217">
        <ele>231</ele>
        <time>2021-02-25T14:47:13.993Z</time>
      </trkpt>
      <trkpt lat="43.96553" lon="2.21698">
        <ele>231</ele>
        <time>2021-02-25T14:47:14.993Z</time>
      </trkpt>
      <trkpt lat="43.96553" lon="2.21696">
        <ele>231</ele>
        <time>2021-02-25T14:47:15.993Z</time>
      </trkpt>
      <trkpt lat="43.96554" lon="2.21694">
        <ele>231</ele>
        <time>2021-02-25T14:47:16.993Z</time>
      </trkpt>
      <trkpt lat="43.96555" lon="2.21693">
        <ele>231</ele>
        <time>2021-02-25T14:47:17.993Z</time>
      </trkpt>
      <trkpt lat="43.96555" lon="2.21691">
        <ele>231</ele>
        <time>2021-02-25T14:47:18.993Z</time>
      </trkpt>
      <trkpt lat="43.96556" lon="2.2169">
        <ele>230</ele>
        <time>2021-02-25T14:47:19.993Z</time>
      </trkpt>
      <trkpt lat="43.96556" lon="2.21688">
        <ele>230</ele>
        <time>2021-02-25T14:47:20.993Z</time>
      </trkpt>
      <trkpt lat="43.96557" lon="2.21686">
        <ele>230</ele>
        <time>2021-02-25T14:47:21.993Z</time>
      </trkpt>
      <trkpt lat="43.96558" lon="2.21685">
        <ele>230</ele>
        <time>2021-02-25T14:47:22.993Z</time>
      </trkpt>
      <trkpt lat="43.96558" lon="2.21683">
        <ele>230</ele>
        <time>2021-02-25T14:47:23.993Z</time>
      </trkpt>
      <trkpt lat="43.96559" lon="2.21681">
        <ele>230</ele>
        <time>2021-02-25T14:47:24.993Z</time>
      </trkpt>
      <trkpt lat="43.96559" lon="2.21679">
        <ele>230</ele>
        <time>2021-02-25T14:47:25.993Z</time>
      </trkpt>
      <trkpt lat="43.9656" lon="2.21677">
        <ele>230</ele>
        <time>2021-02-25T14:47:26.993Z</time>
      </trkpt>
      <trkpt lat="43.96561" lon="2.21676">
        <ele>230</ele>
        <time>2021-02-25T14:47:27.993Z</time>
      </trkpt>
      <trkpt lat="43.96562" lon="2.21674">
        <ele>230</ele>
        <time>2021-02-25T14:47:28.993Z</time>
      </trkpt>
      <trkpt lat="43.96562" lon="2.21673">
        <ele>230</ele>
        <time>2021-02-25T14:47:29.993Z</time>
      </trkpt>
      <trkpt lat="43.96563" lon="2.21671">
        <ele>230</ele>
        <time>2021-02-25T14:47:30.993Z</time>
      </trkpt>
      <trkpt lat="43.96564" lon="2.21669">
        <ele>230</ele>
        <time>2021-02-25T14:47:31.993Z</time>
      </trkpt>
      <trkpt lat="43.96564" lon="2.21668">
        <ele>230</ele>
        <time>2021-02-25T14:47:32.993Z</time>
      </trkpt>
      <trkpt lat="43.96565" lon="2.21666">
        <ele>230</ele>
        <time>2021-02-25T14:47:33.993Z</time>
      </trkpt>
      <trkpt lat="43.96566" lon="2.21665">
        <ele>230</ele>
        <time>2021-02-25T14:47:34.993Z</time>
      </trkpt>
      <trkpt lat="43.96567" lon="2.21663">
        <ele>230</ele>
        <time>2021-02-25T14:47:35.993Z</time>
      </trkpt>
      <trkpt lat="43.96567" lon="2.21662">
        <ele>230</ele>
        <time>2021-02-25T14:47:36.993Z</time>
      </trkpt>
      <trkpt lat="43.96568" lon="2.2166">
        <ele>231</ele>
        <time>2021-02-25T14:47:37.993Z</time>
      </trkpt>
      <trkpt lat="43.96568" lon="2.21659">
        <ele>231</ele>
        <time>2021-02-25T14:47:38.993Z</time>
      </trkpt>
      <trkpt lat="43.96569" lon="2.21657">
        <ele>231</ele>
        <time>2021-02-25T14:47:39.993Z</time>
      </trkpt>
      <trkpt lat="43.9657" lon="2.21656">
        <ele>231</ele>
        <time>2021-02-25T14:47:40.993Z</time>
      </trkpt>
      <trkpt lat="43.9657" lon="2.21654">
        <ele>231</ele>
        <time>2021-02-25T14:47:41.993Z</time>
      </trkpt>
      <trkpt lat="43.96571" lon="2.21653">
        <ele>231</ele>
        <time>2021-02-25T14:47:42.993Z</time>
      </trkpt>
      <trkpt lat="43.96571" lon="2.21652">
        <ele>231</ele>
        <time>2021-02-25T14:47:43.993Z</time>
      </trkpt>
      <trkpt lat="43.96571" lon="2.21651">
        <ele>231</ele>
        <time>2021-02-25T14:47:44.993Z</time>
      </trkpt>
      <trkpt lat="43.96572" lon="2.21649">
        <ele>231</ele>
        <time>2021-02-25T14:47:45.993Z</time>
      </trkpt>
      <trkpt lat="43.96572" lon="2.21648">
        <ele>232</ele>
        <time>2021-02-25T14:47:46.993Z</time>
      </trkpt>
      <trkpt lat="43.96573" lon="2.21646">
        <ele>232</ele>
        <time>2021-02-25T14:47:47.993Z</time>
      </trkpt>
      <trkpt lat="43.96573" lon="2.21644">
        <ele>232</ele>
        <time>2021-02-25T14:47:48.993Z</time>
      </trkpt>
      <trkpt lat="43.96573" lon="2.21643">
        <ele>232</ele>
        <time>2021-02-25T14:47:49.993Z</time>
      </trkpt>
      <trkpt lat="43.96573" lon="2.21641">
        <ele>232</ele>
        <time>2021-02-25T14:47:50.993Z</time>
      </trkpt>
      <trkpt lat="43.96573" lon="2.2164">
        <ele>232</ele>
        <time>2021-02-25T14:47:51.993Z</time>
      </trkpt>
      <trkpt lat="43.96573" lon="2.21638">
        <ele>232</ele>
        <time>2021-02-25T14:47:52.993Z</time>
      </trkpt>
      <trkpt lat="43.96573" lon="2.21637">
        <ele>232</ele>
        <time>2021-02-25T14:47:53.993Z</time>
      </trkpt>
      <trkpt lat="43.96573" lon="2.21635">
        <ele>232</ele>
        <time>2021-02-25T14:47:54.993Z</time>
      </trkpt>
      <trkpt lat="43.96573" lon="2.21634">
        <ele>232</ele>
        <time>2021-02-25T14:47:55.993Z</time>
      </trkpt>
      <trkpt lat="43.96573" lon="2.21633">
        <ele>232</ele>
        <time>2021-02-25T14:47:56.993Z</time>
      </trkpt>
      <trkpt lat="43.96574" lon="2.21632">
        <ele>231</ele>
        <time>2021-02-25T14:47:57.993Z</time>
      </trkpt>
      <trkpt lat="43.96575" lon="2.2163">
        <ele>231</ele>
        <time>2021-02-25T14:47:58.993Z</time>
      </trkpt>
      <trkpt lat="43.96576" lon="2.21629">
        <ele>231</ele>
        <time>2021-02-25T14:47:59.993Z</time>
      </trkpt>
      <trkpt lat="43.96576" lon="2.21628">
        <ele>231</ele>
        <time>2021-02-25T14:48:00.993Z</time>
      </trkpt>
      <trkpt lat="43.96577" lon="2.21626">
        <ele>231</ele>
        <time>2021-02-25T14:48:01.993Z</time>
      </trkpt>
      <trkpt lat="43.96577" lon="2.21625">
        <ele>231</ele>
        <time>2021-02-25T14:48:02.993Z</time>
      </trkpt>
      <trkpt lat="43.96577" lon="2.21624">
        <ele>231</ele>
        <time>2021-02-25T14:48:03.993Z</time>
      </trkpt>
      <trkpt lat="43.96577" lon="2.21624">
        <ele>231</ele>
        <time>2021-02-25T14:48:04.993Z</time>
      </trkpt>
      <trkpt lat="43.96577" lon="2.21624">
        <ele>231</ele>
        <time>2021-02-25T14:48:05.993Z</time>
      </trkpt>
      <trkpt lat="43.96578" lon="2.21624">
        <ele>231</ele>
        <time>2021-02-25T14:48:06.993Z</time>
      </trkpt>
      <trkpt lat="43.96578" lon="2.21623">
        <ele>231</ele>
        <time>2021-02-25T14:48:07.993Z</time>
      </trkpt>
      <trkpt lat="43.96578" lon="2.21624">
        <ele>231</ele>
        <time>2021-02-25T14:48:08.993Z</time>
      </trkpt>
      <trkpt lat="43.96577" lon="2.21625">
        <ele>231</ele>
        <time>2021-02-25T14:48:09.993Z</time>
      </trkpt>
      <trkpt lat="43.96576" lon="2.21626">
        <ele>231</ele>
        <time>2021-02-25T14:48:10.993Z</time>
      </trkpt>
      <trkpt lat="43.96575" lon="2.21626">
        <ele>231</ele>
        <time>2021-02-25T14:48:11.993Z</time>
      </trkpt>
      <trkpt lat="43.96574" lon="2.21626">
        <ele>231</ele>
        <time>2021-02-25T14:48:12.993Z</time>
      </trkpt>
      <trkpt lat="43.96573" lon="2.21625">
        <ele>231</ele>
        <time>2021-02-25T14:48:13.993Z</time>
      </trkpt>
      <trkpt lat="43.96572" lon="2.21625">
        <ele>230</ele>
        <time>2021-02-25T14:48:14.993Z</time>
      </trkpt>
      <trkpt lat="43.96571" lon="2.21625">
        <ele>231</ele>
        <time>2021-02-25T14:48:15.993Z</time>
      </trkpt>
      <trkpt lat="43.9657" lon="2.21625">
        <ele>231</ele>
        <time>2021-02-25T14:48:16.993Z</time>
      </trkpt>
      <trkpt lat="43.96569" lon="2.21624">
        <ele>231</ele>
        <time>2021-02-25T14:48:17.993Z</time>
      </trkpt>
      <trkpt lat="43.96568" lon="2.21624">
        <ele>231</ele>
        <time>2021-02-25T14:48:18.993Z</time>
      </trkpt>
      <trkpt lat="43.96567" lon="2.21623">
        <ele>231</ele>
        <time>2021-02-25T14:48:19.993Z</time>
      </trkpt>
      <trkpt lat="43.96566" lon="2.21623">
        <ele>231</ele>
        <time>2021-02-25T14:48:20.993Z</time>
      </trkpt>
      <trkpt lat="43.96565" lon="2.21623">
        <ele>231</ele>
        <time>2021-02-25T14:48:21.993Z</time>
      </trkpt>
      <trkpt lat="43.96564" lon="2.21623">
        <ele>231</ele>
        <time>2021-02-25T14:48:22.993Z</time>
      </trkpt>
      <trkpt lat="43.96562" lon="2.21623">
        <ele>231</ele>
        <time>2021-02-25T14:48:23.993Z</time>
      </trkpt>
      <trkpt lat="43.96561" lon="2.21623">
        <ele>231</ele>
        <time>2021-02-25T14:48:24.993Z</time>
      </trkpt>
      <trkpt lat="43.9656" lon="2.21623">
        <ele>231</ele>
        <time>2021-02-25T14:48:25.993Z</time>
      </trkpt>
      <trkpt lat="43.96559" lon="2.21623">
        <ele>231</ele>
        <time>2021-02-25T14:48:26.993Z</time>
      </trkpt>
      <trkpt lat="43.96558" lon="2.21622">
        <ele>232</ele>
        <time>2021-02-25T14:48:27.993Z</time>
      </trkpt>
      <trkpt lat="43.96557" lon="2.21622">
        <ele>232</ele>
        <time>2021-02-25T14:48:28.993Z</time>
      </trkpt>
      <trkpt lat="43.96556" lon="2.21622">
        <ele>232</ele>
        <time>2021-02-25T14:48:29.993Z</time>
      </trkpt>
      <trkpt lat="43.96554" lon="2.21622">
        <ele>232</ele>
        <time>2021-02-25T14:48:30.993Z</time>
      </trkpt>
      <trkpt lat="43.96553" lon="2.21622">
        <ele>232</ele>
        <time>2021-02-25T14:48:31.993Z</time>
      </trkpt>
      <trkpt lat="43.96552" lon="2.21622">
        <ele>232</ele>
        <time>2021-02-25T14:48:32.993Z</time>
      </trkpt>
      <trkpt lat="43.96551" lon="2.21622">
        <ele>232</ele>
        <time>2021-02-25T14:48:33.993Z</time>
      </trkpt>
      <trkpt lat="43.9655" lon="2.21622">
        <ele>232</ele>
        <time>2021-02-25T14:48:34.993Z</time>
      </trkpt>
      <trkpt lat="43.96549" lon="2.21622">
        <ele>232</ele>
        <time>2021-02-25T14:48:35.993Z</time>
      </trkpt>
      <trkpt lat="43.96548" lon="2.21622">
        <ele>232</ele>
        <time>2021-02-25T14:48:36.993Z</time>
      </trkpt>
      <trkpt lat="43.96547" lon="2.21622">
        <ele>232</ele>
        <time>2021-02-25T14:48:37.993Z</time>
      </trkpt>
      <trkpt lat="43.96545" lon="2.21622">
        <ele>232</ele>
        <time>2021-02-25T14:48:38.993Z</time>
      </trkpt>
      <trkpt lat="43.96544" lon="2.21621">
        <ele>232</ele>
        <time>2021-02-25T14:48:39.993Z</time>
      </trkpt>
      <trkpt lat="43.96543" lon="2.21621">
        <ele>232</ele>
        <time>2021-02-25T14:48:40.993Z</time>
      </trkpt>
      <trkpt lat="43.96542" lon="2.21621">
        <ele>233</ele>
        <time>2021-02-25T14:48:41.993Z</time>
      </trkpt>
      <trkpt lat="43.96541" lon="2.21621">
        <ele>233</ele>
        <time>2021-02-25T14:48:42.993Z</time>
      </trkpt>
      <trkpt lat="43.9654" lon="2.21621">
        <ele>233</ele>
        <time>2021-02-25T14:48:43.993Z</time>
      </trkpt>
      <trkpt lat="43.96539" lon="2.21621">
        <ele>233</ele>
        <time>2021-02-25T14:48:44.993Z</time>
      </trkpt>
      <trkpt lat="43.96538" lon="2.21622">
        <ele>233</ele>
        <time>2021-02-25T14:48:45.993Z</time>
      </trkpt>
      <trkpt lat="43.96537" lon="2.21622">
        <ele>233</ele>
        <time>2021-02-25T14:48:46.993Z</time>
      </trkpt>
      <trkpt lat="43.96535" lon="2.21622">
        <ele>233</ele>
        <time>2021-02-25T14:48:47.993Z</time>
      </trkpt>
      <trkpt lat="43.96534" lon="2.21622">
        <ele>233</ele>
        <time>2021-02-25T14:48:48.993Z</time>
      </trkpt>
      <trkpt lat="43.96533" lon="2.21622">
        <ele>233</ele>
        <time>2021-02-25T14:48:49.993Z</time>
      </trkpt>
      <trkpt lat="43.96532" lon="2.21622">
        <ele>234</ele>
        <time>2021-02-25T14:48:50.993Z</time>
      </trkpt>
      <trkpt lat="43.96531" lon="2.21623">
        <ele>234</ele>
        <time>2021-02-25T14:48:51.993Z</time>
      </trkpt>
      <trkpt lat="43.9653" lon="2.21623">
        <ele>234</ele>
        <time>2021-02-25T14:48:52.993Z</time>
      </trkpt>
      <trkpt lat="43.96528" lon="2.21623">
        <ele>234</ele>
        <time>2021-02-25T14:48:53.993Z</time>
      </trkpt>
      <trkpt lat="43.96527" lon="2.21623">
        <ele>235</ele>
        <time>2021-02-25T14:48:54.993Z</time>
      </trkpt>
      <trkpt lat="43.96526" lon="2.21624">
        <ele>235</ele>
        <time>2021-02-25T14:48:55.993Z</time>
      </trkpt>
      <trkpt lat="43.96525" lon="2.21624">
        <ele>235</ele>
        <time>2021-02-25T14:48:56.993Z</time>
      </trkpt>
      <trkpt lat="43.96524" lon="2.21625">
        <ele>235</ele>
        <time>2021-02-25T14:48:57.993Z</time>
      </trkpt>
      <trkpt lat="43.96523" lon="2.21625">
        <ele>236</ele>
        <time>2021-02-25T14:48:58.993Z</time>
      </trkpt>
      <trkpt lat="43.96522" lon="2.21626">
        <ele>236</ele>
        <time>2021-02-25T14:48:59.993Z</time>
      </trkpt>
      <trkpt lat="43.9652" lon="2.21626">
        <ele>236</ele>
        <time>2021-02-25T14:49:00.993Z</time>
      </trkpt>
      <trkpt lat="43.96519" lon="2.21627">
        <ele>236</ele>
        <time>2021-02-25T14:49:01.993Z</time>
      </trkpt>
      <trkpt lat="43.96518" lon="2.21628">
        <ele>236</ele>
        <time>2021-02-25T14:49:02.993Z</time>
      </trkpt>
      <trkpt lat="43.96517" lon="2.21628">
        <ele>237</ele>
        <time>2021-02-25T14:49:03.993Z</time>
      </trkpt>
      <trkpt lat="43.96516" lon="2.21629">
        <ele>237</ele>
        <time>2021-02-25T14:49:04.993Z</time>
      </trkpt>
      <trkpt lat="43.96515" lon="2.21629">
        <ele>237</ele>
        <time>2021-02-25T14:49:05.993Z</time>
      </trkpt>
      <trkpt lat="43.96513" lon="2.21629">
        <ele>237</ele>
        <time>2021-02-25T14:49:06.993Z</time>
      </trkpt>
      <trkpt lat="43.96512" lon="2.2163">
        <ele>237</ele>
        <time>2021-02-25T14:49:07.993Z</time>
      </trkpt>
      <trkpt lat="43.96511" lon="2.2163">
        <ele>238</ele>
        <time>2021-02-25T14:49:08.993Z</time>
      </trkpt>
      <trkpt lat="43.9651" lon="2.2163">
        <ele>238</ele>
        <time>2021-02-25T14:49:09.993Z</time>
      </trkpt>
      <trkpt lat="43.96509" lon="2.21631">
        <ele>238</ele>
        <time>2021-02-25T14:49:10.993Z</time>
      </trkpt>
      <trkpt lat="43.96508" lon="2.21631">
        <ele>238</ele>
        <time>2021-02-25T14:49:11.993Z</time>
      </trkpt>
      <trkpt lat="43.96507" lon="2.21632">
        <ele>238</ele>
        <time>2021-02-25T14:49:12.993Z</time>
      </trkpt>
      <trkpt lat="43.96506" lon="2.21632">
        <ele>238</ele>
        <time>2021-02-25T14:49:13.993Z</time>
      </trkpt>
      <trkpt lat="43.96505" lon="2.21633">
        <ele>238</ele>
        <time>2021-02-25T14:49:14.993Z</time>
      </trkpt>
      <trkpt lat="43.96504" lon="2.21633">
        <ele>239</ele>
        <time>2021-02-25T14:49:15.993Z</time>
      </trkpt>
      <trkpt lat="43.96503" lon="2.21633">
        <ele>239</ele>
        <time>2021-02-25T14:49:16.993Z</time>
      </trkpt>
      <trkpt lat="43.96501" lon="2.21634">
        <ele>239</ele>
        <time>2021-02-25T14:49:17.993Z</time>
      </trkpt>
      <trkpt lat="43.965" lon="2.21634">
        <ele>239</ele>
        <time>2021-02-25T14:49:18.993Z</time>
      </trkpt>
      <trkpt lat="43.96499" lon="2.21635">
        <ele>239</ele>
        <time>2021-02-25T14:49:19.993Z</time>
      </trkpt>
      <trkpt lat="43.96498" lon="2.21635">
        <ele>239</ele>
        <time>2021-02-25T14:49:20.993Z</time>
      </trkpt>
      <trkpt lat="43.96497" lon="2.21635">
        <ele>239</ele>
        <time>2021-02-25T14:49:21.993Z</time>
      </trkpt>
      <trkpt lat="43.96496" lon="2.21635">
        <ele>239</ele>
        <time>2021-02-25T14:49:22.993Z</time>
      </trkpt>
      <trkpt lat="43.96494" lon="2.21635">
        <ele>240</ele>
        <time>2021-02-25T14:49:23.993Z</time>
      </trkpt>
      <trkpt lat="43.96493" lon="2.21636">
        <ele>240</ele>
        <time>2021-02-25T14:49:24.993Z</time>
      </trkpt>
      <trkpt lat="43.96492" lon="2.21636">
        <ele>240</ele>
        <time>2021-02-25T14:49:25.993Z</time>
      </trkpt>
      <trkpt lat="43.96491" lon="2.21636">
        <ele>240</ele>
        <time>2021-02-25T14:49:26.993Z</time>
      </trkpt>
      <trkpt lat="43.9649" lon="2.21637">
        <ele>240</ele>
        <time>2021-02-25T14:49:27.993Z</time>
      </trkpt>
      <trkpt lat="43.96489" lon="2.21637">
        <ele>240</ele>
        <time>2021-02-25T14:49:28.993Z</time>
      </trkpt>
      <trkpt lat="43.96488" lon="2.21637">
        <ele>240</ele>
        <time>2021-02-25T14:49:34.002Z</time>
      </trkpt>
      <trkpt lat="43.96487" lon="2.21638">
        <ele>240</ele>
        <time>2021-02-25T14:49:35.002Z</time>
      </trkpt>
      <trkpt lat="43.96486" lon="2.21639">
        <ele>240</ele>
        <time>2021-02-25T14:49:36.002Z</time>
      </trkpt>
      <trkpt lat="43.96485" lon="2.21639">
        <ele>240</ele>
        <time>2021-02-25T14:49:37.002Z</time>
      </trkpt>
      <trkpt lat="43.96484" lon="2.21639">
        <ele>240</ele>
        <time>2021-02-25T14:49:38.002Z</time>
      </trkpt>
      <trkpt lat="43.96483" lon="2.2164">
        <ele>241</ele>
        <time>2021-02-25T14:49:39.002Z</time>
      </trkpt>
      <trkpt lat="43.96482" lon="2.2164">
        <ele>241</ele>
        <time>2021-02-25T14:49:40.002Z</time>
      </trkpt>
      <trkpt lat="43.9648" lon="2.21641">
        <ele>241</ele>
        <time>2021-02-25T14:49:41.002Z</time>
      </trkpt>
      <trkpt lat="43.96479" lon="2.21641">
        <ele>241</ele>
        <time>2021-02-25T14:49:42.002Z</time>
      </trkpt>
      <trkpt lat="43.96478" lon="2.21642">
        <ele>241</ele>
        <time>2021-02-25T14:49:43.002Z</time>
      </trkpt>
      <trkpt lat="43.96477" lon="2.21642">
        <ele>241</ele>
        <time>2021-02-25T14:49:44.002Z</time>
      </trkpt>
      <trkpt lat="43.96476" lon="2.21642">
        <ele>242</ele>
        <time>2021-02-25T14:49:45.002Z</time>
      </trkpt>
      <trkpt lat="43.96475" lon="2.21642">
        <ele>242</ele>
        <time>2021-02-25T14:49:46.002Z</time>
      </trkpt>
      <trkpt lat="43.96473" lon="2.21643">
        <ele>242</ele>
        <time>2021-02-25T14:49:47.002Z</time>
      </trkpt>
      <trkpt lat="43.96472" lon="2.21643">
        <ele>242</ele>
        <time>2021-02-25T14:49:48.002Z</time>
      </trkpt>
      <trkpt lat="43.96471" lon="2.21643">
        <ele>242</ele>
        <time>2021-02-25T14:49:49.002Z</time>
      </trkpt>
      <trkpt lat="43.9647" lon="2.21644">
        <ele>242</ele>
        <time>2021-02-25T14:49:50.002Z</time>
      </trkpt>
      <trkpt lat="43.96469" lon="2.21644">
        <ele>242</ele>
        <time>2021-02-25T14:49:51.002Z</time>
      </trkpt>
      <trkpt lat="43.96468" lon="2.21645">
        <ele>242</ele>
        <time>2021-02-25T14:49:52.002Z</time>
      </trkpt>
      <trkpt lat="43.96467" lon="2.21645">
        <ele>242</ele>
        <time>2021-02-25T14:49:53.002Z</time>
      </trkpt>
      <trkpt lat="43.96466" lon="2.21645">
        <ele>242</ele>
        <time>2021-02-25T14:49:54.002Z</time>
      </trkpt>
      <trkpt lat="43.96466" lon="2.21646">
        <ele>242</ele>
        <time>2021-02-25T14:49:55.002Z</time>
      </trkpt>
      <trkpt lat="43.96466" lon="2.21646">
        <ele>242</ele>
        <time>2021-02-25T14:49:56.002Z</time>
      </trkpt>
      <trkpt lat="43.96465" lon="2.21647">
        <ele>242</ele>
        <time>2021-02-25T14:49:57.002Z</time>
      </trkpt>
      <trkpt lat="43.96464" lon="2.21648">
        <ele>242</ele>
        <time>2021-02-25T14:49:58.002Z</time>
      </trkpt>
      <trkpt lat="43.96463" lon="2.21649">
        <ele>242</ele>
        <time>2021-02-25T14:49:59.002Z</time>
      </trkpt>
      <trkpt lat="43.96462" lon="2.21649">
        <ele>242</ele>
        <time>2021-02-25T14:50:00.002Z</time>
      </trkpt>
      <trkpt lat="43.96461" lon="2.2165">
        <ele>242</ele>
        <time>2021-02-25T14:50:01.002Z</time>
      </trkpt>
      <trkpt lat="43.96461" lon="2.2165">
        <ele>243</ele>
        <time>2021-02-25T14:50:02.002Z</time>
      </trkpt>
      <trkpt lat="43.9646" lon="2.21651">
        <ele>243</ele>
        <time>2021-02-25T14:50:03.002Z</time>
      </trkpt>
      <trkpt lat="43.96459" lon="2.21651">
        <ele>243</ele>
        <time>2021-02-25T14:50:04.002Z</time>
      </trkpt>
      <trkpt lat="43.96459" lon="2.21652">
        <ele>243</ele>
        <time>2021-02-25T14:50:05.002Z</time>
      </trkpt>
      <trkpt lat="43.96458" lon="2.21653">
        <ele>243</ele>
        <time>2021-02-25T14:50:06.002Z</time>
      </trkpt>
      <trkpt lat="43.96457" lon="2.21653">
        <ele>244</ele>
        <time>2021-02-25T14:50:07.002Z</time>
      </trkpt>
      <trkpt lat="43.96456" lon="2.21654">
        <ele>244</ele>
        <time>2021-02-25T14:50:08.002Z</time>
      </trkpt>
      <trkpt lat="43.96455" lon="2.21654">
        <ele>244</ele>
        <time>2021-02-25T14:50:09.002Z</time>
      </trkpt>
      <trkpt lat="43.96455" lon="2.21655">
        <ele>244</ele>
        <time>2021-02-25T14:50:10.002Z</time>
      </trkpt>
      <trkpt lat="43.96454" lon="2.21656">
        <ele>244</ele>
        <time>2021-02-25T14:50:11.002Z</time>
      </trkpt>
      <trkpt lat="43.96453" lon="2.21656">
        <ele>244</ele>
        <time>2021-02-25T14:50:12.002Z</time>
      </trkpt>
      <trkpt lat="43.96453" lon="2.21657">
        <ele>244</ele>
        <time>2021-02-25T14:50:13.002Z</time>
      </trkpt>
      <trkpt lat="43.96452" lon="2.21657">
        <ele>244</ele>
        <time>2021-02-25T14:50:27.004Z</time>
      </trkpt>
      <trkpt lat="43.96451" lon="2.21658">
        <ele>244</ele>
        <time>2021-02-25T14:50:28.004Z</time>
      </trkpt>
      <trkpt lat="43.9645" lon="2.21658">
        <ele>244</ele>
        <time>2021-02-25T14:50:29.004Z</time>
      </trkpt>
      <trkpt lat="43.96449" lon="2.21658">
        <ele>244</ele>
        <time>2021-02-25T14:50:30.004Z</time>
      </trkpt>
      <trkpt lat="43.96448" lon="2.21659">
        <ele>244</ele>
        <time>2021-02-25T14:50:31.004Z</time>
      </trkpt>
      <trkpt lat="43.96448" lon="2.2166">
        <ele>244</ele>
        <time>2021-02-25T14:50:32.004Z</time>
      </trkpt>
      <trkpt lat="43.96447" lon="2.2166">
        <ele>245</ele>
        <time>2021-02-25T14:50:33.004Z</time>
      </trkpt>
      <trkpt lat="43.96446" lon="2.21661">
        <ele>245</ele>
        <time>2021-02-25T14:50:34.004Z</time>
      </trkpt>
      <trkpt lat="43.96445" lon="2.21661">
        <ele>245</ele>
        <time>2021-02-25T14:50:35.004Z</time>
      </trkpt>
      <trkpt lat="43.96445" lon="2.21662">
        <ele>245</ele>
        <time>2021-02-25T14:50:36.004Z</time>
      </trkpt>
      <trkpt lat="43.96444" lon="2.21663">
        <ele>245</ele>
        <time>2021-02-25T14:50:37.004Z</time>
      </trkpt>
      <trkpt lat="43.96443" lon="2.21663">
        <ele>245</ele>
        <time>2021-02-25T14:50:38.004Z</time>
      </trkpt>
      <trkpt lat="43.96442" lon="2.21664">
        <ele>245</ele>
        <time>2021-02-25T14:50:39.004Z</time>
      </trkpt>
      <trkpt lat="43.96441" lon="2.21665">
        <ele>245</ele>
        <time>2021-02-25T14:50:40.004Z</time>
      </trkpt>
      <trkpt lat="43.96441" lon="2.21666">
        <ele>245</ele>
        <time>2021-02-25T14:50:41.004Z</time>
      </trkpt>
      <trkpt lat="43.9644" lon="2.21666">
        <ele>245</ele>
        <time>2021-02-25T14:50:42.004Z</time>
      </trkpt>
      <trkpt lat="43.96439" lon="2.21667">
        <ele>245</ele>
        <time>2021-02-25T14:50:43.004Z</time>
      </trkpt>
      <trkpt lat="43.96438" lon="2.21668">
        <ele>245</ele>
        <time>2021-02-25T14:50:44.004Z</time>
      </trkpt>
      <trkpt lat="43.96438" lon="2.21669">
        <ele>245</ele>
        <time>2021-02-25T14:50:45.004Z</time>
      </trkpt>
      <trkpt lat="43.96437" lon="2.2167">
        <ele>245</ele>
        <time>2021-02-25T14:50:46.004Z</time>
      </trkpt>
      <trkpt lat="43.96436" lon="2.21671">
        <ele>245</ele>
        <time>2021-02-25T14:50:47.004Z</time>
      </trkpt>
      <trkpt lat="43.96435" lon="2.21672">
        <ele>245</ele>
        <time>2021-02-25T14:50:48.004Z</time>
      </trkpt>
      <trkpt lat="43.96435" lon="2.21673">
        <ele>245</ele>
        <time>2021-02-25T14:50:49.004Z</time>
      </trkpt>
      <trkpt lat="43.96434" lon="2.21673">
        <ele>245</ele>
        <time>2021-02-25T14:50:50.004Z</time>
      </trkpt>
      <trkpt lat="43.96433" lon="2.21674">
        <ele>245</ele>
        <time>2021-02-25T14:50:51.004Z</time>
      </trkpt>
      <trkpt lat="43.96433" lon="2.21675">
        <ele>245</ele>
        <time>2021-02-25T14:50:52.004Z</time>
      </trkpt>
      <trkpt lat="43.96432" lon="2.21676">
        <ele>246</ele>
        <time>2021-02-25T14:50:53.004Z</time>
      </trkpt>
      <trkpt lat="43.96431" lon="2.21676">
        <ele>246</ele>
        <time>2021-02-25T14:50:54.004Z</time>
      </trkpt>
      <trkpt lat="43.96431" lon="2.21677">
        <ele>246</ele>
        <time>2021-02-25T14:50:55.004Z</time>
      </trkpt>
      <trkpt lat="43.9643" lon="2.21679">
        <ele>246</ele>
        <time>2021-02-25T14:50:56.004Z</time>
      </trkpt>
      <trkpt lat="43.96429" lon="2.2168">
        <ele>246</ele>
        <time>2021-02-25T14:50:57.004Z</time>
      </trkpt>
      <trkpt lat="43.96428" lon="2.21681">
        <ele>246</ele>
        <time>2021-02-25T14:50:58.004Z</time>
      </trkpt>
      <trkpt lat="43.96428" lon="2.21681">
        <ele>246</ele>
        <time>2021-02-25T14:50:59.004Z</time>
      </trkpt>
      <trkpt lat="43.96427" lon="2.21683">
        <ele>246</ele>
        <time>2021-02-25T14:51:00.004Z</time>
      </trkpt>
      <trkpt lat="43.96426" lon="2.21684">
        <ele>246</ele>
        <time>2021-02-25T14:51:01.004Z</time>
      </trkpt>
      <trkpt lat="43.96425" lon="2.21685">
        <ele>246</ele>
        <time>2021-02-25T14:51:02.004Z</time>
      </trkpt>
      <trkpt lat="43.96425" lon="2.21685">
        <ele>246</ele>
        <time>2021-02-25T14:51:03.004Z</time>
      </trkpt>
      <trkpt lat="43.96424" lon="2.21686">
        <ele>246</ele>
        <time>2021-02-25T14:51:04.004Z</time>
      </trkpt>
      <trkpt lat="43.96423" lon="2.21687">
        <ele>246</ele>
        <time>2021-02-25T14:51:05.004Z</time>
      </trkpt>
      <trkpt lat="43.96423" lon="2.21687">
        <ele>247</ele>
        <time>2021-02-25T14:51:06.004Z</time>
      </trkpt>
      <trkpt lat="43.96422" lon="2.21688">
        <ele>247</ele>
        <time>2021-02-25T14:51:07.004Z</time>
      </trkpt>
      <trkpt lat="43.96421" lon="2.21689">
        <ele>247</ele>
        <time>2021-02-25T14:51:08.004Z</time>
      </trkpt>
      <trkpt lat="43.96421" lon="2.2169">
        <ele>247</ele>
        <time>2021-02-25T14:51:09.004Z</time>
      </trkpt>
      <trkpt lat="43.9642" lon="2.21691">
        <ele>247</ele>
        <time>2021-02-25T14:51:10.004Z</time>
      </trkpt>
      <trkpt lat="43.96419" lon="2.21692">
        <ele>247</ele>
        <time>2021-02-25T14:51:11.004Z</time>
      </trkpt>
      <trkpt lat="43.96418" lon="2.21692">
        <ele>247</ele>
        <time>2021-02-25T14:51:12.004Z</time>
      </trkpt>
      <trkpt lat="43.96417" lon="2.21693">
        <ele>248</ele>
        <time>2021-02-25T14:51:13.004Z</time>
      </trkpt>
      <trkpt lat="43.96417" lon="2.21694">
        <ele>248</ele>
        <time>2021-02-25T14:51:14.004Z</time>
      </trkpt>
      <trkpt lat="43.96416" lon="2.21695">
        <ele>248</ele>
        <time>2021-02-25T14:51:15.004Z</time>
      </trkpt>
      <trkpt lat="43.96416" lon="2.21696">
        <ele>248</ele>
        <time>2021-02-25T14:51:16.004Z</time>
      </trkpt>
      <trkpt lat="43.96415" lon="2.21697">
        <ele>248</ele>
        <time>2021-02-25T14:51:17.004Z</time>
      </trkpt>
      <trkpt lat="43.96415" lon="2.21697">
        <ele>248</ele>
        <time>2021-02-25T14:51:18.004Z</time>
      </trkpt>
      <trkpt lat="43.96414" lon="2.21698">
        <ele>248</ele>
        <time>2021-02-25T14:51:19.004Z</time>
      </trkpt>
      <trkpt lat="43.96414" lon="2.21699">
        <ele>248</ele>
        <time>2021-02-25T14:51:20.004Z</time>
      </trkpt>
      <trkpt lat="43.96413" lon="2.217">
        <ele>249</ele>
        <time>2021-02-25T14:51:21.004Z</time>
      </trkpt>
      <trkpt lat="43.96413" lon="2.21701">
        <ele>249</ele>
        <time>2021-02-25T14:51:22.004Z</time>
      </trkpt>
      <trkpt lat="43.96412" lon="2.21702">
        <ele>249</ele>
        <time>2021-02-25T14:51:23.004Z</time>
      </trkpt>
      <trkpt lat="43.96411" lon="2.21703">
        <ele>249</ele>
        <time>2021-02-25T14:51:24.004Z</time>
      </trkpt>
      <trkpt lat="43.96411" lon="2.21704">
        <ele>249</ele>
        <time>2021-02-25T14:51:25.004Z</time>
      </trkpt>
      <trkpt lat="43.9641" lon="2.21705">
        <ele>249</ele>
        <time>2021-02-25T14:51:26.004Z</time>
      </trkpt>
      <trkpt lat="43.96409" lon="2.21705">
        <ele>249</ele>
        <time>2021-02-25T14:51:27.004Z</time>
      </trkpt>
      <trkpt lat="43.96409" lon="2.21706">
        <ele>249</ele>
        <time>2021-02-25T14:51:28.004Z</time>
      </trkpt>
      <trkpt lat="43.96408" lon="2.21707">
        <ele>249</ele>
        <time>2021-02-25T14:51:29.004Z</time>
      </trkpt>
      <trkpt lat="43.96407" lon="2.21708">
        <ele>249</ele>
        <time>2021-02-25T14:51:30.004Z</time>
      </trkpt>
      <trkpt lat="43.96406" lon="2.21709">
        <ele>250</ele>
        <time>2021-02-25T14:51:31.004Z</time>
      </trkpt>
      <trkpt lat="43.96405" lon="2.2171">
        <ele>250</ele>
        <time>2021-02-25T14:51:32.004Z</time>
      </trkpt>
      <trkpt lat="43.96405" lon="2.21711">
        <ele>250</ele>
        <time>2021-02-25T14:51:33.004Z</time>
      </trkpt>
      <trkpt lat="43.96404" lon="2.21712">
        <ele>250</ele>
        <time>2021-02-25T14:51:34.004Z</time>
      </trkpt>
      <trkpt lat="43.96403" lon="2.21713">
        <ele>250</ele>
        <time>2021-02-25T14:51:35.004Z</time>
      </trkpt>
      <trkpt lat="43.96402" lon="2.21714">
        <ele>250</ele>
        <time>2021-02-25T14:51:36.004Z</time>
      </trkpt>
      <trkpt lat="43.96402" lon="2.21714">
        <ele>250</ele>
        <time>2021-02-25T14:51:37.004Z</time>
      </trkpt>
      <trkpt lat="43.96401" lon="2.21715">
        <ele>251</ele>
        <time>2021-02-25T14:51:38.004Z</time>
      </trkpt>
      <trkpt lat="43.964" lon="2.21716">
        <ele>251</ele>
        <time>2021-02-25T14:51:39.004Z</time>
      </trkpt>
      <trkpt lat="43.964" lon="2.21717">
        <ele>251</ele>
        <time>2021-02-25T14:51:40.004Z</time>
      </trkpt>
      <trkpt lat="43.96399" lon="2.21719">
        <ele>251</ele>
        <time>2021-02-25T14:51:41.004Z</time>
      </trkpt>
      <trkpt lat="43.96399" lon="2.2172">
        <ele>251</ele>
        <time>2021-02-25T14:51:42.004Z</time>
      </trkpt>
      <trkpt lat="43.96398" lon="2.21721">
        <ele>251</ele>
        <time>2021-02-25T14:51:43.004Z</time>
      </trkpt>
      <trkpt lat="43.96397" lon="2.21722">
        <ele>251</ele>
        <time>2021-02-25T14:51:44.004Z</time>
      </trkpt>
      <trkpt lat="43.96397" lon="2.21722">
        <ele>252</ele>
        <time>2021-02-25T14:51:45.004Z</time>
      </trkpt>
      <trkpt lat="43.96396" lon="2.21723">
        <ele>252</ele>
        <time>2021-02-25T14:51:46.004Z</time>
      </trkpt>
      <trkpt lat="43.96395" lon="2.21724">
        <ele>252</ele>
        <time>2021-02-25T14:51:47.004Z</time>
      </trkpt>
      <trkpt lat="43.96395" lon="2.21725">
        <ele>252</ele>
        <time>2021-02-25T14:51:48.004Z</time>
      </trkpt>
      <trkpt lat="43.96394" lon="2.21726">
        <ele>252</ele>
        <time>2021-02-25T14:51:49.004Z</time>
      </trkpt>
      <trkpt lat="43.96393" lon="2.21727">
        <ele>252</ele>
        <time>2021-02-25T14:51:50.004Z</time>
      </trkpt>
      <trkpt lat="43.96392" lon="2.21728">
        <ele>252</ele>
        <time>2021-02-25T14:51:51.004Z</time>
      </trkpt>
      <trkpt lat="43.96392" lon="2.21729">
        <ele>253</ele>
        <time>2021-02-25T14:51:52.004Z</time>
      </trkpt>
      <trkpt lat="43.96391" lon="2.2173">
        <ele>253</ele>
        <time>2021-02-25T14:51:53.004Z</time>
      </trkpt>
      <trkpt lat="43.9639" lon="2.21731">
        <ele>253</ele>
        <time>2021-02-25T14:51:54.004Z</time>
      </trkpt>
      <trkpt lat="43.9639" lon="2.21732">
        <ele>253</ele>
        <time>2021-02-25T14:51:55.004Z</time>
      </trkpt>
      <trkpt lat="43.96389" lon="2.21732">
        <ele>253</ele>
        <time>2021-02-25T14:51:56.004Z</time>
      </trkpt>
      <trkpt lat="43.96388" lon="2.21733">
        <ele>253</ele>
        <time>2021-02-25T14:51:57.004Z</time>
      </trkpt>
      <trkpt lat="43.96387" lon="2.21734">
        <ele>253</ele>
        <time>2021-02-25T14:51:58.004Z</time>
      </trkpt>
      <trkpt lat="43.96387" lon="2.21735">
        <ele>253</ele>
        <time>2021-02-25T14:51:59.004Z</time>
      </trkpt>
      <trkpt lat="43.96386" lon="2.21736">
        <ele>253</ele>
        <time>2021-02-25T14:52:00.004Z</time>
      </trkpt>
      <trkpt lat="43.96385" lon="2.21737">
        <ele>253</ele>
        <time>2021-02-25T14:52:01.004Z</time>
      </trkpt>
      <trkpt lat="43.96384" lon="2.21738">
        <ele>254</ele>
        <time>2021-02-25T14:52:02.004Z</time>
      </trkpt>
      <trkpt lat="43.96383" lon="2.21739">
        <ele>254</ele>
        <time>2021-02-25T14:52:03.004Z</time>
      </trkpt>
      <trkpt lat="43.96383" lon="2.2174">
        <ele>254</ele>
        <time>2021-02-25T14:52:04.004Z</time>
      </trkpt>
      <trkpt lat="43.96382" lon="2.21741">
        <ele>254</ele>
        <time>2021-02-25T14:52:05.004Z</time>
      </trkpt>
      <trkpt lat="43.96381" lon="2.21742">
        <ele>254</ele>
        <time>2021-02-25T14:52:06.004Z</time>
      </trkpt>
      <trkpt lat="43.9638" lon="2.21743">
        <ele>254</ele>
        <time>2021-02-25T14:52:07.004Z</time>
      </trkpt>
      <trkpt lat="43.9638" lon="2.21744">
        <ele>254</ele>
        <time>2021-02-25T14:52:08.004Z</time>
      </trkpt>
      <trkpt lat="43.96379" lon="2.21745">
        <ele>254</ele>
        <time>2021-02-25T14:52:09.004Z</time>
      </trkpt>
      <trkpt lat="43.96378" lon="2.21746">
        <ele>254</ele>
        <time>2021-02-25T14:52:10.004Z</time>
      </trkpt>
      <trkpt lat="43.96377" lon="2.21747">
        <ele>254</ele>
        <time>2021-02-25T14:52:11.004Z</time>
      </trkpt>
      <trkpt lat="43.96376" lon="2.21747">
        <ele>254</ele>
        <time>2021-02-25T14:52:12.004Z</time>
      </trkpt>
      <trkpt lat="43.96376" lon="2.21748">
        <ele>254</ele>
        <time>2021-02-25T14:52:13.004Z</time>
      </trkpt>
      <trkpt lat="43.96375" lon="2.21749">
        <ele>254</ele>
        <time>2021-02-25T14:52:14.004Z</time>
      </trkpt>
      <trkpt lat="43.96374" lon="2.2175">
        <ele>254</ele>
        <time>2021-02-25T14:52:15.004Z</time>
      </trkpt>
      <trkpt lat="43.96373" lon="2.21752">
        <ele>254</ele>
        <time>2021-02-25T14:52:16.004Z</time>
      </trkpt>
      <trkpt lat="43.96372" lon="2.21752">
        <ele>254</ele>
        <time>2021-02-25T14:52:17.004Z</time>
      </trkpt>
      <trkpt lat="43.96372" lon="2.21753">
        <ele>254</ele>
        <time>2021-02-25T14:52:18.004Z</time>
      </trkpt>
      <trkpt lat="43.96371" lon="2.21754">
        <ele>254</ele>
        <time>2021-02-25T14:52:19.004Z</time>
      </trkpt>
      <trkpt lat="43.9637" lon="2.21755">
        <ele>254</ele>
        <time>2021-02-25T14:52:20.004Z</time>
      </trkpt>
      <trkpt lat="43.96369" lon="2.21756">
        <ele>254</ele>
        <time>2021-02-25T14:52:21.004Z</time>
      </trkpt>
      <trkpt lat="43.96368" lon="2.21757">
        <ele>254</ele>
        <time>2021-02-25T14:52:22.004Z</time>
      </trkpt>
      <trkpt lat="43.96367" lon="2.21757">
        <ele>254</ele>
        <time>2021-02-25T14:52:23.004Z</time>
      </trkpt>
      <trkpt lat="43.96366" lon="2.21758">
        <ele>254</ele>
        <time>2021-02-25T14:52:24.004Z</time>
      </trkpt>
      <trkpt lat="43.96365" lon="2.21759">
        <ele>254</ele>
        <time>2021-02-25T14:52:25.004Z</time>
      </trkpt>
      <trkpt lat="43.96364" lon="2.2176">
        <ele>255</ele>
        <time>2021-02-25T14:52:26.004Z</time>
      </trkpt>
      <trkpt lat="43.96364" lon="2.2176">
        <ele>254</ele>
        <time>2021-02-25T14:52:27.004Z</time>
      </trkpt>
      <trkpt lat="43.96363" lon="2.21761">
        <ele>255</ele>
        <time>2021-02-25T14:52:28.004Z</time>
      </trkpt>
      <trkpt lat="43.96362" lon="2.21761">
        <ele>255</ele>
        <time>2021-02-25T14:52:29.004Z</time>
      </trkpt>
      <trkpt lat="43.96361" lon="2.21762">
        <ele>255</ele>
        <time>2021-02-25T14:52:30.004Z</time>
      </trkpt>
      <trkpt lat="43.9636" lon="2.21763">
        <ele>255</ele>
        <time>2021-02-25T14:52:31.004Z</time>
      </trkpt>
      <trkpt lat="43.96359" lon="2.21763">
        <ele>255</ele>
        <time>2021-02-25T14:52:32.004Z</time>
      </trkpt>
      <trkpt lat="43.96358" lon="2.21763">
        <ele>255</ele>
        <time>2021-02-25T14:52:33.004Z</time>
      </trkpt>
      <trkpt lat="43.96357" lon="2.21763">
        <ele>255</ele>
        <time>2021-02-25T14:52:34.004Z</time>
      </trkpt>
      <trkpt lat="43.96356" lon="2.21764">
        <ele>255</ele>
        <time>2021-02-25T14:52:35.004Z</time>
      </trkpt>
      <trkpt lat="43.96355" lon="2.21764">
        <ele>255</ele>
        <time>2021-02-25T14:52:36.004Z</time>
      </trkpt>
      <trkpt lat="43.96355" lon="2.21765">
        <ele>255</ele>
        <time>2021-02-25T14:52:37.004Z</time>
      </trkpt>
      <trkpt lat="43.96354" lon="2.21765">
        <ele>256</ele>
        <time>2021-02-25T14:52:38.004Z</time>
      </trkpt>
      <trkpt lat="43.96353" lon="2.21766">
        <ele>256</ele>
        <time>2021-02-25T14:52:39.004Z</time>
      </trkpt>
      <trkpt lat="43.96352" lon="2.21766">
        <ele>256</ele>
        <time>2021-02-25T14:52:40.004Z</time>
      </trkpt>
      <trkpt lat="43.96351" lon="2.21766">
        <ele>256</ele>
        <time>2021-02-25T14:52:41.004Z</time>
      </trkpt>
      <trkpt lat="43.96351" lon="2.21767">
        <ele>256</ele>
        <time>2021-02-25T14:52:42.004Z</time>
      </trkpt>
      <trkpt lat="43.9635" lon="2.21767">
        <ele>256</ele>
        <time>2021-02-25T14:52:43.004Z</time>
      </trkpt>
      <trkpt lat="43.96349" lon="2.21767">
        <ele>256</ele>
        <time>2021-02-25T14:52:44.004Z</time>
      </trkpt>
      <trkpt lat="43.96348" lon="2.21767">
        <ele>256</ele>
        <time>2021-02-25T14:52:45.004Z</time>
      </trkpt>
      <trkpt lat="43.96347" lon="2.21767">
        <ele>256</ele>
        <time>2021-02-25T14:53:01.015Z</time>
      </trkpt>
      <trkpt lat="43.96346" lon="2.21767">
        <ele>256</ele>
        <time>2021-02-25T14:53:02.015Z</time>
      </trkpt>
      <trkpt lat="43.96346" lon="2.21767">
        <ele>256</ele>
        <time>2021-02-25T14:53:03.015Z</time>
      </trkpt>
      <trkpt lat="43.96345" lon="2.21768">
        <ele>256</ele>
        <time>2021-02-25T14:53:04.015Z</time>
      </trkpt>
      <trkpt lat="43.96344" lon="2.21768">
        <ele>256</ele>
        <time>2021-02-25T14:53:05.015Z</time>
      </trkpt>
      <trkpt lat="43.96343" lon="2.21768">
        <ele>256</ele>
        <time>2021-02-25T14:53:06.015Z</time>
      </trkpt>
      <trkpt lat="43.96343" lon="2.21768">
        <ele>256</ele>
        <time>2021-02-25T14:53:07.015Z</time>
      </trkpt>
      <trkpt lat="43.96342" lon="2.21768">
        <ele>256</ele>
        <time>2021-02-25T14:53:08.015Z</time>
      </trkpt>
      <trkpt lat="43.96341" lon="2.21768">
        <ele>256</ele>
        <time>2021-02-25T14:53:09.015Z</time>
      </trkpt>
      <trkpt lat="43.9634" lon="2.21767">
        <ele>256</ele>
        <time>2021-02-25T14:53:10.015Z</time>
      </trkpt>
      <trkpt lat="43.9634" lon="2.21767">
        <ele>256</ele>
        <time>2021-02-25T14:53:11.015Z</time>
      </trkpt>
      <trkpt lat="43.96339" lon="2.21766">
        <ele>257</ele>
        <time>2021-02-25T14:53:12.015Z</time>
      </trkpt>
      <trkpt lat="43.96338" lon="2.21765">
        <ele>257</ele>
        <time>2021-02-25T14:53:13.015Z</time>
      </trkpt>
      <trkpt lat="43.96338" lon="2.21764">
        <ele>257</ele>
        <time>2021-02-25T14:53:14.015Z</time>
      </trkpt>
      <trkpt lat="43.96337" lon="2.21764">
        <ele>257</ele>
        <time>2021-02-25T14:53:15.015Z</time>
      </trkpt>
      <trkpt lat="43.96336" lon="2.21764">
        <ele>257</ele>
        <time>2021-02-25T14:53:16.015Z</time>
      </trkpt>
      <trkpt lat="43.96336" lon="2.21763">
        <ele>257</ele>
        <time>2021-02-25T14:53:17.015Z</time>
      </trkpt>
      <trkpt lat="43.96336" lon="2.21763">
        <ele>257</ele>
        <time>2021-02-25T14:53:18.015Z</time>
      </trkpt>
      <trkpt lat="43.96336" lon="2.21764">
        <ele>257</ele>
        <time>2021-02-25T14:53:19.015Z</time>
      </trkpt>
      <trkpt lat="43.96335" lon="2.21764">
        <ele>257</ele>
        <time>2021-02-25T14:53:20.015Z</time>
      </trkpt>
      <trkpt lat="43.96334" lon="2.21763">
        <ele>259</ele>
        <time>2021-02-25T14:53:21.015Z</time>
      </trkpt>
      <trkpt lat="43.96335" lon="2.21762">
        <ele>259</ele>
        <time>2021-02-25T14:53:22.015Z</time>
      </trkpt>
      <trkpt lat="43.96335" lon="2.21761">
        <ele>259</ele>
        <time>2021-02-25T14:53:23.015Z</time>
      </trkpt>
      <trkpt lat="43.96336" lon="2.2176">
        <ele>259</ele>
        <time>2021-02-25T14:53:24.015Z</time>
      </trkpt>
      <trkpt lat="43.96336" lon="2.21758">
        <ele>259</ele>
        <time>2021-02-25T14:53:25.015Z</time>
      </trkpt>
      <trkpt lat="43.96336" lon="2.21757">
        <ele>259</ele>
        <time>2021-02-25T14:53:26.015Z</time>
      </trkpt>
      <trkpt lat="43.96336" lon="2.21756">
        <ele>259</ele>
        <time>2021-02-25T14:53:27.015Z</time>
      </trkpt>
      <trkpt lat="43.96337" lon="2.21754">
        <ele>259</ele>
        <time>2021-02-25T14:53:28.015Z</time>
      </trkpt>
      <trkpt lat="43.96337" lon="2.21753">
        <ele>259</ele>
        <time>2021-02-25T14:53:29.015Z</time>
      </trkpt>
      <trkpt lat="43.96337" lon="2.21751">
        <ele>260</ele>
        <time>2021-02-25T14:53:30.015Z</time>
      </trkpt>
      <trkpt lat="43.96338" lon="2.2175">
        <ele>260</ele>
        <time>2021-02-25T14:53:31.015Z</time>
      </trkpt>
      <trkpt lat="43.96338" lon="2.21748">
        <ele>260</ele>
        <time>2021-02-25T14:53:32.015Z</time>
      </trkpt>
      <trkpt lat="43.96338" lon="2.21747">
        <ele>260</ele>
        <time>2021-02-25T14:53:33.015Z</time>
      </trkpt>
      <trkpt lat="43.96339" lon="2.21746">
        <ele>260</ele>
        <time>2021-02-25T14:53:34.015Z</time>
      </trkpt>
      <trkpt lat="43.96339" lon="2.21744">
        <ele>260</ele>
        <time>2021-02-25T14:53:35.015Z</time>
      </trkpt>
      <trkpt lat="43.96339" lon="2.21742">
        <ele>260</ele>
        <time>2021-02-25T14:53:36.015Z</time>
      </trkpt>
      <trkpt lat="43.96339" lon="2.21741">
        <ele>260</ele>
        <time>2021-02-25T14:53:37.015Z</time>
      </trkpt>
      <trkpt lat="43.96339" lon="2.21739">
        <ele>260</ele>
        <time>2021-02-25T14:53:38.015Z</time>
      </trkpt>
      <trkpt lat="43.96339" lon="2.21738">
        <ele>261</ele>
        <time>2021-02-25T14:53:39.015Z</time>
      </trkpt>
      <trkpt lat="43.9634" lon="2.21736">
        <ele>261</ele>
        <time>2021-02-25T14:53:40.015Z</time>
      </trkpt>
      <trkpt lat="43.9634" lon="2.21735">
        <ele>261</ele>
        <time>2021-02-25T14:53:41.015Z</time>
      </trkpt>
      <trkpt lat="43.9634" lon="2.21733">
        <ele>261</ele>
        <time>2021-02-25T14:53:42.015Z</time>
      </trkpt>
      <trkpt lat="43.96339" lon="2.21731">
        <ele>261</ele>
        <time>2021-02-25T14:53:43.015Z</time>
      </trkpt>
      <trkpt lat="43.96339" lon="2.2173">
        <ele>261</ele>
        <time>2021-02-25T14:53:44.015Z</time>
      </trkpt>
      <trkpt lat="43.9634" lon="2.21728">
        <ele>261</ele>
        <time>2021-02-25T14:53:45.015Z</time>
      </trkpt>
      <trkpt lat="43.9634" lon="2.21727">
        <ele>261</ele>
        <time>2021-02-25T14:53:46.015Z</time>
      </trkpt>
      <trkpt lat="43.96339" lon="2.21725">
        <ele>262</ele>
        <time>2021-02-25T14:53:47.015Z</time>
      </trkpt>
      <trkpt lat="43.96339" lon="2.21724">
        <ele>262</ele>
        <time>2021-02-25T14:53:48.015Z</time>
      </trkpt>
      <trkpt lat="43.96339" lon="2.21722">
        <ele>262</ele>
        <time>2021-02-25T14:53:49.015Z</time>
      </trkpt>
      <trkpt lat="43.96339" lon="2.21721">
        <ele>262</ele>
        <time>2021-02-25T14:53:50.015Z</time>
      </trkpt>
      <trkpt lat="43.96339" lon="2.21719">
        <ele>262</ele>
        <time>2021-02-25T14:53:51.015Z</time>
      </trkpt>
      <trkpt lat="43.96339" lon="2.21718">
        <ele>262</ele>
        <time>2021-02-25T14:53:52.015Z</time>
      </trkpt>
      <trkpt lat="43.96339" lon="2.21716">
        <ele>262</ele>
        <time>2021-02-25T14:53:53.015Z</time>
      </trkpt>
      <trkpt lat="43.96339" lon="2.21715">
        <ele>262</ele>
        <time>2021-02-25T14:53:54.015Z</time>
      </trkpt>
      <trkpt lat="43.96339" lon="2.21713">
        <ele>263</ele>
        <time>2021-02-25T14:53:55.015Z</time>
      </trkpt>
      <trkpt lat="43.96338" lon="2.21712">
        <ele>263</ele>
        <time>2021-02-25T14:53:56.015Z</time>
      </trkpt>
      <trkpt lat="43.96338" lon="2.21711">
        <ele>263</ele>
        <time>2021-02-25T14:53:57.015Z</time>
      </trkpt>
      <trkpt lat="43.96338" lon="2.21709">
        <ele>263</ele>
        <time>2021-02-25T14:53:58.015Z</time>
      </trkpt>
      <trkpt lat="43.96338" lon="2.21707">
        <ele>263</ele>
        <time>2021-02-25T14:53:59.015Z</time>
      </trkpt>
      <trkpt lat="43.96338" lon="2.21706">
        <ele>263</ele>
        <time>2021-02-25T14:54:00.015Z</time>
      </trkpt>
      <trkpt lat="43.96338" lon="2.21704">
        <ele>263</ele>
        <time>2021-02-25T14:54:01.015Z</time>
      </trkpt>
      <trkpt lat="43.96338" lon="2.21703">
        <ele>263</ele>
        <time>2021-02-25T14:54:02.015Z</time>
      </trkpt>
      <trkpt lat="43.96338" lon="2.21701">
        <ele>263</ele>
        <time>2021-02-25T14:54:03.015Z</time>
      </trkpt>
      <trkpt lat="43.96338" lon="2.217">
        <ele>263</ele>
        <time>2021-02-25T14:54:04.015Z</time>
      </trkpt>
      <trkpt lat="43.96338" lon="2.21698">
        <ele>263</ele>
        <time>2021-02-25T14:54:05.015Z</time>
      </trkpt>
      <trkpt lat="43.96338" lon="2.21697">
        <ele>264</ele>
        <time>2021-02-25T14:54:06.015Z</time>
      </trkpt>
      <trkpt lat="43.96338" lon="2.21695">
        <ele>264</ele>
        <time>2021-02-25T14:54:07.015Z</time>
      </trkpt>
      <trkpt lat="43.96338" lon="2.21693">
        <ele>264</ele>
        <time>2021-02-25T14:54:08.015Z</time>
      </trkpt>
      <trkpt lat="43.96338" lon="2.21692">
        <ele>264</ele>
        <time>2021-02-25T14:54:09.015Z</time>
      </trkpt>
      <trkpt lat="43.96338" lon="2.21691">
        <ele>264</ele>
        <time>2021-02-25T14:54:10.015Z</time>
      </trkpt>
      <trkpt lat="43.96338" lon="2.21689">
        <ele>264</ele>
        <time>2021-02-25T14:54:11.015Z</time>
      </trkpt>
      <trkpt lat="43.96338" lon="2.21687">
        <ele>264</ele>
        <time>2021-02-25T14:54:12.015Z</time>
      </trkpt>
      <trkpt lat="43.96338" lon="2.21686">
        <ele>264</ele>
        <time>2021-02-25T14:54:13.015Z</time>
      </trkpt>
      <trkpt lat="43.96338" lon="2.21685">
        <ele>265</ele>
        <time>2021-02-25T14:54:14.015Z</time>
      </trkpt>
      <trkpt lat="43.96338" lon="2.21683">
        <ele>265</ele>
        <time>2021-02-25T14:54:15.015Z</time>
      </trkpt>
      <trkpt lat="43.96339" lon="2.21682">
        <ele>265</ele>
        <time>2021-02-25T14:54:16.015Z</time>
      </trkpt>
      <trkpt lat="43.96339" lon="2.2168">
        <ele>265</ele>
        <time>2021-02-25T14:54:17.015Z</time>
      </trkpt>
      <trkpt lat="43.96339" lon="2.21679">
        <ele>265</ele>
        <time>2021-02-25T14:54:18.015Z</time>
      </trkpt>
      <trkpt lat="43.96338" lon="2.21678">
        <ele>265</ele>
        <time>2021-02-25T14:54:19.015Z</time>
      </trkpt>
      <trkpt lat="43.96338" lon="2.21676">
        <ele>265</ele>
        <time>2021-02-25T14:54:20.015Z</time>
      </trkpt>
      <trkpt lat="43.96338" lon="2.21675">
        <ele>265</ele>
        <time>2021-02-25T14:54:21.015Z</time>
      </trkpt>
      <trkpt lat="43.96338" lon="2.21674">
        <ele>265</ele>
        <time>2021-02-25T14:54:22.015Z</time>
      </trkpt>
      <trkpt lat="43.96338" lon="2.21672">
        <ele>266</ele>
        <time>2021-02-25T14:54:23.015Z</time>
      </trkpt>
      <trkpt lat="43.96338" lon="2.21671">
        <ele>266</ele>
        <time>2021-02-25T14:54:24.015Z</time>
      </trkpt>
      <trkpt lat="43.96338" lon="2.2167">
        <ele>266</ele>
        <time>2021-02-25T14:54:25.015Z</time>
      </trkpt>
      <trkpt lat="43.96338" lon="2.21668">
        <ele>266</ele>
        <time>2021-02-25T14:54:26.015Z</time>
      </trkpt>
      <trkpt lat="43.96338" lon="2.21667">
        <ele>266</ele>
        <time>2021-02-25T14:54:27.015Z</time>
      </trkpt>
      <trkpt lat="43.96338" lon="2.21665">
        <ele>266</ele>
        <time>2021-02-25T14:54:28.015Z</time>
      </trkpt>
      <trkpt lat="43.96338" lon="2.21664">
        <ele>266</ele>
        <time>2021-02-25T14:54:29.015Z</time>
      </trkpt>
      <trkpt lat="43.96338" lon="2.21663">
        <ele>266</ele>
        <time>2021-02-25T14:54:30.015Z</time>
      </trkpt>
      <trkpt lat="43.96338" lon="2.21662">
        <ele>266</ele>
        <time>2021-02-25T14:54:31.015Z</time>
      </trkpt>
      <trkpt lat="43.96338" lon="2.2166">
        <ele>267</ele>
        <time>2021-02-25T14:54:32.015Z</time>
      </trkpt>
      <trkpt lat="43.96338" lon="2.21659">
        <ele>267</ele>
        <time>2021-02-25T14:54:33.015Z</time>
      </trkpt>
      <trkpt lat="43.96337" lon="2.21658">
        <ele>267</ele>
        <time>2021-02-25T14:54:34.015Z</time>
      </trkpt>
      <trkpt lat="43.96337" lon="2.21656">
        <ele>267</ele>
        <time>2021-02-25T14:54:35.015Z</time>
      </trkpt>
      <trkpt lat="43.96337" lon="2.21655">
        <ele>267</ele>
        <time>2021-02-25T14:54:36.015Z</time>
      </trkpt>
      <trkpt lat="43.96337" lon="2.21654">
        <ele>267</ele>
        <time>2021-02-25T14:54:37.015Z</time>
      </trkpt>
      <trkpt lat="43.96337" lon="2.21652">
        <ele>267</ele>
        <time>2021-02-25T14:54:38.015Z</time>
      </trkpt>
      <trkpt lat="43.96337" lon="2.21651">
        <ele>268</ele>
        <time>2021-02-25T14:54:39.015Z</time>
      </trkpt>
      <trkpt lat="43.96337" lon="2.2165">
        <ele>268</ele>
        <time>2021-02-25T14:54:40.015Z</time>
      </trkpt>
      <trkpt lat="43.96337" lon="2.21649">
        <ele>268</ele>
        <time>2021-02-25T14:54:41.015Z</time>
      </trkpt>
      <trkpt lat="43.96336" lon="2.21647">
        <ele>268</ele>
        <time>2021-02-25T14:54:42.015Z</time>
      </trkpt>
      <trkpt lat="43.96336" lon="2.21646">
        <ele>268</ele>
        <time>2021-02-25T14:55:01.028Z</time>
      </trkpt>
      <trkpt lat="43.96336" lon="2.21645">
        <ele>269</ele>
        <time>2021-02-25T14:55:02.028Z</time>
      </trkpt>
      <trkpt lat="43.96336" lon="2.21643">
        <ele>269</ele>
        <time>2021-02-25T14:55:03.028Z</time>
      </trkpt>
      <trkpt lat="43.96336" lon="2.21642">
        <ele>269</ele>
        <time>2021-02-25T14:55:04.028Z</time>
      </trkpt>
      <trkpt lat="43.96336" lon="2.21641">
        <ele>270</ele>
        <time>2021-02-25T14:55:05.028Z</time>
      </trkpt>
      <trkpt lat="43.96336" lon="2.21639">
        <ele>270</ele>
        <time>2021-02-25T14:55:06.028Z</time>
      </trkpt>
      <trkpt lat="43.96336" lon="2.21638">
        <ele>270</ele>
        <time>2021-02-25T14:55:07.028Z</time>
      </trkpt>
      <trkpt lat="43.96336" lon="2.21637">
        <ele>270</ele>
        <time>2021-02-25T14:55:08.028Z</time>
      </trkpt>
      <trkpt lat="43.96336" lon="2.21635">
        <ele>270</ele>
        <time>2021-02-25T14:55:09.028Z</time>
      </trkpt>
      <trkpt lat="43.96336" lon="2.21634">
        <ele>270</ele>
        <time>2021-02-25T14:55:10.028Z</time>
      </trkpt>
      <trkpt lat="43.96336" lon="2.21633">
        <ele>270</ele>
        <time>2021-02-25T14:55:11.028Z</time>
      </trkpt>
      <trkpt lat="43.96336" lon="2.21632">
        <ele>270</ele>
        <time>2021-02-25T14:55:12.028Z</time>
      </trkpt>
      <trkpt lat="43.96336" lon="2.2163">
        <ele>270</ele>
        <time>2021-02-25T14:55:13.028Z</time>
      </trkpt>
      <trkpt lat="43.96336" lon="2.21629">
        <ele>271</ele>
        <time>2021-02-25T14:55:14.028Z</time>
      </trkpt>
      <trkpt lat="43.96336" lon="2.21628">
        <ele>271</ele>
        <time>2021-02-25T14:55:15.028Z</time>
      </trkpt>
      <trkpt lat="43.96336" lon="2.21627">
        <ele>271</ele>
        <time>2021-02-25T14:55:16.028Z</time>
      </trkpt>
      <trkpt lat="43.96336" lon="2.21625">
        <ele>271</ele>
        <time>2021-02-25T14:55:17.028Z</time>
      </trkpt>
      <trkpt lat="43.96336" lon="2.21624">
        <ele>271</ele>
        <time>2021-02-25T14:55:18.028Z</time>
      </trkpt>
      <trkpt lat="43.96336" lon="2.21623">
        <ele>271</ele>
        <time>2021-02-25T14:55:19.028Z</time>
      </trkpt>
      <trkpt lat="43.96336" lon="2.21621">
        <ele>272</ele>
        <time>2021-02-25T14:55:32.036Z</time>
      </trkpt>
      <trkpt lat="43.96335" lon="2.2162">
        <ele>272</ele>
        <time>2021-02-25T14:55:33.036Z</time>
      </trkpt>
      <trkpt lat="43.96335" lon="2.21618">
        <ele>272</ele>
        <time>2021-02-25T14:55:34.036Z</time>
      </trkpt>
      <trkpt lat="43.96335" lon="2.21617">
        <ele>272</ele>
        <time>2021-02-25T14:55:35.036Z</time>
      </trkpt>
      <trkpt lat="43.96335" lon="2.21615">
        <ele>272</ele>
        <time>2021-02-25T14:55:36.036Z</time>
      </trkpt>
      <trkpt lat="43.96335" lon="2.21614">
        <ele>272</ele>
        <time>2021-02-25T14:55:37.036Z</time>
      </trkpt>
      <trkpt lat="43.96335" lon="2.21613">
        <ele>272</ele>
        <time>2021-02-25T14:55:38.036Z</time>
      </trkpt>
      <trkpt lat="43.96335" lon="2.21611">
        <ele>272</ele>
        <time>2021-02-25T14:55:39.036Z</time>
      </trkpt>
      <trkpt lat="43.96335" lon="2.2161">
        <ele>273</ele>
        <time>2021-02-25T14:55:40.036Z</time>
      </trkpt>
      <trkpt lat="43.96335" lon="2.21608">
        <ele>273</ele>
        <time>2021-02-25T14:55:41.036Z</time>
      </trkpt>
      <trkpt lat="43.96334" lon="2.21607">
        <ele>273</ele>
        <time>2021-02-25T14:55:42.036Z</time>
      </trkpt>
      <trkpt lat="43.96334" lon="2.21605">
        <ele>273</ele>
        <time>2021-02-25T14:55:43.036Z</time>
      </trkpt>
      <trkpt lat="43.96334" lon="2.21604">
        <ele>273</ele>
        <time>2021-02-25T14:55:44.036Z</time>
      </trkpt>
      <trkpt lat="43.96334" lon="2.21602">
        <ele>273</ele>
        <time>2021-02-25T14:55:45.036Z</time>
      </trkpt>
      <trkpt lat="43.96334" lon="2.21601">
        <ele>273</ele>
        <time>2021-02-25T14:55:46.036Z</time>
      </trkpt>
      <trkpt lat="43.96334" lon="2.216">
        <ele>274</ele>
        <time>2021-02-25T14:55:47.036Z</time>
      </trkpt>
      <trkpt lat="43.96334" lon="2.216">
        <ele>274</ele>
        <time>2021-02-25T14:55:48.036Z</time>
      </trkpt>
      <trkpt lat="43.96334" lon="2.216">
        <ele>274</ele>
        <time>2021-02-25T14:55:49.036Z</time>
      </trkpt>
      <trkpt lat="43.96334" lon="2.216">
        <ele>274</ele>
        <time>2021-02-25T14:55:50.036Z</time>
      </trkpt>
      <trkpt lat="43.96333" lon="2.21599">
        <ele>274</ele>
        <time>2021-02-25T14:55:51.036Z</time>
      </trkpt>
      <trkpt lat="43.96333" lon="2.21598">
        <ele>274</ele>
        <time>2021-02-25T14:55:52.036Z</time>
      </trkpt>
      <trkpt lat="43.96333" lon="2.21596">
        <ele>274</ele>
        <time>2021-02-25T14:55:53.036Z</time>
      </trkpt>
      <trkpt lat="43.96334" lon="2.21595">
        <ele>275</ele>
        <time>2021-02-25T14:55:54.036Z</time>
      </trkpt>
      <trkpt lat="43.96333" lon="2.21594">
        <ele>275</ele>
        <time>2021-02-25T14:55:55.036Z</time>
      </trkpt>
      <trkpt lat="43.96333" lon="2.21593">
        <ele>275</ele>
        <time>2021-02-25T14:55:56.036Z</time>
      </trkpt>
      <trkpt lat="43.96333" lon="2.21591">
        <ele>275</ele>
        <time>2021-02-25T14:55:57.036Z</time>
      </trkpt>
      <trkpt lat="43.96333" lon="2.2159">
        <ele>275</ele>
        <time>2021-02-25T14:55:58.036Z</time>
      </trkpt>
      <trkpt lat="43.96333" lon="2.21588">
        <ele>275</ele>
        <time>2021-02-25T14:55:59.036Z</time>
      </trkpt>
      <trkpt lat="43.96333" lon="2.21586">
        <ele>275</ele>
        <time>2021-02-25T14:56:00.036Z</time>
      </trkpt>
      <trkpt lat="43.96333" lon="2.21585">
        <ele>276</ele>
        <time>2021-02-25T14:56:01.036Z</time>
      </trkpt>
      <trkpt lat="43.96333" lon="2.21583">
        <ele>276</ele>
        <time>2021-02-25T14:56:02.036Z</time>
      </trkpt>
      <trkpt lat="43.96333" lon="2.21582">
        <ele>276</ele>
        <time>2021-02-25T14:56:03.036Z</time>
      </trkpt>
      <trkpt lat="43.96333" lon="2.21581">
        <ele>276</ele>
        <time>2021-02-25T14:56:04.036Z</time>
      </trkpt>
      <trkpt lat="43.96334" lon="2.2158">
        <ele>276</ele>
        <time>2021-02-25T14:56:05.036Z</time>
      </trkpt>
      <trkpt lat="43.96334" lon="2.21578">
        <ele>276</ele>
        <time>2021-02-25T14:56:06.036Z</time>
      </trkpt>
      <trkpt lat="43.96334" lon="2.21577">
        <ele>276</ele>
        <time>2021-02-25T14:56:07.036Z</time>
      </trkpt>
      <trkpt lat="43.96334" lon="2.21576">
        <ele>276</ele>
        <time>2021-02-25T14:56:08.036Z</time>
      </trkpt>
      <trkpt lat="43.96335" lon="2.21575">
        <ele>276</ele>
        <time>2021-02-25T14:56:09.036Z</time>
      </trkpt>
      <trkpt lat="43.96335" lon="2.21573">
        <ele>277</ele>
        <time>2021-02-25T14:56:10.036Z</time>
      </trkpt>
      <trkpt lat="43.96335" lon="2.21572">
        <ele>277</ele>
        <time>2021-02-25T14:56:11.036Z</time>
      </trkpt>
      <trkpt lat="43.96335" lon="2.21571">
        <ele>277</ele>
        <time>2021-02-25T14:56:12.036Z</time>
      </trkpt>
      <trkpt lat="43.96335" lon="2.21569">
        <ele>277</ele>
        <time>2021-02-25T14:56:13.036Z</time>
      </trkpt>
      <trkpt lat="43.96336" lon="2.21568">
        <ele>277</ele>
        <time>2021-02-25T14:56:14.036Z</time>
      </trkpt>
      <trkpt lat="43.96336" lon="2.21567">
        <ele>277</ele>
        <time>2021-02-25T14:56:15.036Z</time>
      </trkpt>
      <trkpt lat="43.96336" lon="2.21565">
        <ele>278</ele>
        <time>2021-02-25T14:56:16.036Z</time>
      </trkpt>
      <trkpt lat="43.96336" lon="2.21564">
        <ele>278</ele>
        <time>2021-02-25T14:56:17.036Z</time>
      </trkpt>
      <trkpt lat="43.96336" lon="2.21562">
        <ele>278</ele>
        <time>2021-02-25T14:56:18.036Z</time>
      </trkpt>
      <trkpt lat="43.96336" lon="2.21561">
        <ele>278</ele>
        <time>2021-02-25T14:56:19.036Z</time>
      </trkpt>
      <trkpt lat="43.96336" lon="2.21559">
        <ele>279</ele>
        <time>2021-02-25T14:56:20.036Z</time>
      </trkpt>
      <trkpt lat="43.96336" lon="2.21558">
        <ele>279</ele>
        <time>2021-02-25T14:56:21.036Z</time>
      </trkpt>
      <trkpt lat="43.96336" lon="2.21556">
        <ele>279</ele>
        <time>2021-02-25T14:56:22.036Z</time>
      </trkpt>
      <trkpt lat="43.96336" lon="2.21555">
        <ele>279</ele>
        <time>2021-02-25T14:56:23.036Z</time>
      </trkpt>
      <trkpt lat="43.96336" lon="2.21553">
        <ele>279</ele>
        <time>2021-02-25T14:56:24.036Z</time>
      </trkpt>
      <trkpt lat="43.96336" lon="2.21552">
        <ele>280</ele>
        <time>2021-02-25T14:56:25.036Z</time>
      </trkpt>
      <trkpt lat="43.96337" lon="2.21551">
        <ele>280</ele>
        <time>2021-02-25T14:56:26.036Z</time>
      </trkpt>
      <trkpt lat="43.96337" lon="2.21549">
        <ele>280</ele>
        <time>2021-02-25T14:56:27.036Z</time>
      </trkpt>
      <trkpt lat="43.96337" lon="2.21547">
        <ele>280</ele>
        <time>2021-02-25T14:56:28.036Z</time>
      </trkpt>
      <trkpt lat="43.96337" lon="2.21546">
        <ele>280</ele>
        <time>2021-02-25T14:56:29.036Z</time>
      </trkpt>
      <trkpt lat="43.96338" lon="2.21545">
        <ele>280</ele>
        <time>2021-02-25T14:56:30.036Z</time>
      </trkpt>
      <trkpt lat="43.96338" lon="2.21543">
        <ele>281</ele>
        <time>2021-02-25T14:56:31.036Z</time>
      </trkpt>
      <trkpt lat="43.96339" lon="2.21541">
        <ele>281</ele>
        <time>2021-02-25T14:56:32.036Z</time>
      </trkpt>
      <trkpt lat="43.96339" lon="2.2154">
        <ele>281</ele>
        <time>2021-02-25T14:56:33.036Z</time>
      </trkpt>
      <trkpt lat="43.9634" lon="2.21538">
        <ele>281</ele>
        <time>2021-02-25T14:56:34.036Z</time>
      </trkpt>
      <trkpt lat="43.9634" lon="2.21536">
        <ele>281</ele>
        <time>2021-02-25T14:56:35.036Z</time>
      </trkpt>
      <trkpt lat="43.9634" lon="2.21535">
        <ele>281</ele>
        <time>2021-02-25T14:56:36.036Z</time>
      </trkpt>
      <trkpt lat="43.9634" lon="2.21533">
        <ele>281</ele>
        <time>2021-02-25T14:56:37.036Z</time>
      </trkpt>
      <trkpt lat="43.9634" lon="2.21531">
        <ele>281</ele>
        <time>2021-02-25T14:56:38.036Z</time>
      </trkpt>
      <trkpt lat="43.9634" lon="2.2153">
        <ele>281</ele>
        <time>2021-02-25T14:56:39.036Z</time>
      </trkpt>
      <trkpt lat="43.9634" lon="2.21528">
        <ele>281</ele>
        <time>2021-02-25T14:56:40.036Z</time>
      </trkpt>
      <trkpt lat="43.96341" lon="2.21527">
        <ele>282</ele>
        <time>2021-02-25T14:56:41.036Z</time>
      </trkpt>
      <trkpt lat="43.9634" lon="2.21525">
        <ele>282</ele>
        <time>2021-02-25T14:56:42.036Z</time>
      </trkpt>
      <trkpt lat="43.9634" lon="2.21523">
        <ele>282</ele>
        <time>2021-02-25T14:56:43.036Z</time>
      </trkpt>
      <trkpt lat="43.9634" lon="2.21521">
        <ele>282</ele>
        <time>2021-02-25T14:56:44.036Z</time>
      </trkpt>
      <trkpt lat="43.9634" lon="2.2152">
        <ele>282</ele>
        <time>2021-02-25T14:56:45.036Z</time>
      </trkpt>
      <trkpt lat="43.96341" lon="2.21518">
        <ele>282</ele>
        <time>2021-02-25T14:56:46.036Z</time>
      </trkpt>
      <trkpt lat="43.96341" lon="2.21516">
        <ele>282</ele>
        <time>2021-02-25T14:56:47.036Z</time>
      </trkpt>
      <trkpt lat="43.96341" lon="2.21514">
        <ele>282</ele>
        <time>2021-02-25T14:56:48.036Z</time>
      </trkpt>
      <trkpt lat="43.96341" lon="2.21513">
        <ele>282</ele>
        <time>2021-02-25T14:56:49.036Z</time>
      </trkpt>
      <trkpt lat="43.96341" lon="2.21511">
        <ele>282</ele>
        <time>2021-02-25T14:56:50.036Z</time>
      </trkpt>
      <trkpt lat="43.96341" lon="2.21509">
        <ele>282</ele>
        <time>2021-02-25T14:56:51.036Z</time>
      </trkpt>
      <trkpt lat="43.96342" lon="2.21508">
        <ele>282</ele>
        <time>2021-02-25T14:56:52.036Z</time>
      </trkpt>
      <trkpt lat="43.96342" lon="2.21506">
        <ele>282</ele>
        <time>2021-02-25T14:56:53.036Z</time>
      </trkpt>
      <trkpt lat="43.96343" lon="2.21504">
        <ele>282</ele>
        <time>2021-02-25T14:56:54.036Z</time>
      </trkpt>
      <trkpt lat="43.96343" lon="2.21502">
        <ele>282</ele>
        <time>2021-02-25T14:56:55.036Z</time>
      </trkpt>
      <trkpt lat="43.96343" lon="2.21501">
        <ele>282</ele>
        <time>2021-02-25T14:56:56.036Z</time>
      </trkpt>
      <trkpt lat="43.96343" lon="2.21499">
        <ele>282</ele>
        <time>2021-02-25T14:56:57.036Z</time>
      </trkpt>
      <trkpt lat="43.96344" lon="2.21497">
        <ele>283</ele>
        <time>2021-02-25T14:56:58.036Z</time>
      </trkpt>
      <trkpt lat="43.96344" lon="2.21496">
        <ele>283</ele>
        <time>2021-02-25T14:56:59.036Z</time>
      </trkpt>
      <trkpt lat="43.96345" lon="2.21494">
        <ele>283</ele>
        <time>2021-02-25T14:57:00.036Z</time>
      </trkpt>
      <trkpt lat="43.96345" lon="2.21492">
        <ele>283</ele>
        <time>2021-02-25T14:57:01.036Z</time>
      </trkpt>
      <trkpt lat="43.96346" lon="2.21491">
        <ele>283</ele>
        <time>2021-02-25T14:57:02.036Z</time>
      </trkpt>
      <trkpt lat="43.96346" lon="2.21489">
        <ele>283</ele>
        <time>2021-02-25T14:57:03.036Z</time>
      </trkpt>
      <trkpt lat="43.96346" lon="2.21487">
        <ele>283</ele>
        <time>2021-02-25T14:57:04.036Z</time>
      </trkpt>
      <trkpt lat="43.96347" lon="2.21486">
        <ele>283</ele>
        <time>2021-02-25T14:57:05.036Z</time>
      </trkpt>
      <trkpt lat="43.96347" lon="2.21484">
        <ele>283</ele>
        <time>2021-02-25T14:57:06.036Z</time>
      </trkpt>
      <trkpt lat="43.96348" lon="2.21482">
        <ele>283</ele>
        <time>2021-02-25T14:57:07.036Z</time>
      </trkpt>
      <trkpt lat="43.96348" lon="2.2148">
        <ele>283</ele>
        <time>2021-02-25T14:57:08.036Z</time>
      </trkpt>
      <trkpt lat="43.96348" lon="2.21479">
        <ele>283</ele>
        <time>2021-02-25T14:57:09.036Z</time>
      </trkpt>
      <trkpt lat="43.96349" lon="2.21477">
        <ele>283</ele>
        <time>2021-02-25T14:57:10.036Z</time>
      </trkpt>
      <trkpt lat="43.96349" lon="2.21475">
        <ele>283</ele>
        <time>2021-02-25T14:57:11.036Z</time>
      </trkpt>
      <trkpt lat="43.9635" lon="2.21474">
        <ele>283</ele>
        <time>2021-02-25T14:57:14.281Z</time>
      </trkpt>
      <trkpt lat="43.9635" lon="2.21472">
        <ele>283</ele>
        <time>2021-02-25T14:57:15.281Z</time>
      </trkpt>
      <trkpt lat="43.96351" lon="2.2147">
        <ele>283</ele>
        <time>2021-02-25T14:57:16.281Z</time>
      </trkpt>
      <trkpt lat="43.96351" lon="2.21469">
        <ele>283</ele>
        <time>2021-02-25T14:57:17.281Z</time>
      </trkpt>
      <trkpt lat="43.96351" lon="2.21467">
        <ele>283</ele>
        <time>2021-02-25T14:57:18.281Z</time>
      </trkpt>
      <trkpt lat="43.96352" lon="2.21465">
        <ele>283</ele>
        <time>2021-02-25T14:57:19.281Z</time>
      </trkpt>
      <trkpt lat="43.96352" lon="2.21464">
        <ele>283</ele>
        <time>2021-02-25T14:57:20.281Z</time>
      </trkpt>
      <trkpt lat="43.96353" lon="2.21462">
        <ele>283</ele>
        <time>2021-02-25T14:57:21.281Z</time>
      </trkpt>
      <trkpt lat="43.96353" lon="2.2146">
        <ele>283</ele>
        <time>2021-02-25T14:57:22.281Z</time>
      </trkpt>
      <trkpt lat="43.96354" lon="2.21459">
        <ele>283</ele>
        <time>2021-02-25T14:57:23.281Z</time>
      </trkpt>
      <trkpt lat="43.96354" lon="2.21457">
        <ele>283</ele>
        <time>2021-02-25T14:57:24.281Z</time>
      </trkpt>
      <trkpt lat="43.96355" lon="2.21456">
        <ele>283</ele>
        <time>2021-02-25T14:57:25.281Z</time>
      </trkpt>
      <trkpt lat="43.96355" lon="2.21454">
        <ele>283</ele>
        <time>2021-02-25T14:57:26.281Z</time>
      </trkpt>
      <trkpt lat="43.96356" lon="2.21452">
        <ele>283</ele>
        <time>2021-02-25T14:57:27.281Z</time>
      </trkpt>
      <trkpt lat="43.96356" lon="2.21451">
        <ele>283</ele>
        <time>2021-02-25T14:57:28.281Z</time>
      </trkpt>
      <trkpt lat="43.96356" lon="2.21449">
        <ele>283</ele>
        <time>2021-02-25T14:57:29.281Z</time>
      </trkpt>
      <trkpt lat="43.96357" lon="2.21448">
        <ele>283</ele>
        <time>2021-02-25T14:57:30.281Z</time>
      </trkpt>
      <trkpt lat="43.96357" lon="2.21446">
        <ele>283</ele>
        <time>2021-02-25T14:57:31.281Z</time>
      </trkpt>
      <trkpt lat="43.96357" lon="2.21444">
        <ele>283</ele>
        <time>2021-02-25T14:57:32.281Z</time>
      </trkpt>
      <trkpt lat="43.96358" lon="2.21443">
        <ele>283</ele>
        <time>2021-02-25T14:57:33.281Z</time>
      </trkpt>
      <trkpt lat="43.96358" lon="2.21441">
        <ele>283</ele>
        <time>2021-02-25T14:57:34.281Z</time>
      </trkpt>
      <trkpt lat="43.96359" lon="2.21439">
        <ele>283</ele>
        <time>2021-02-25T14:57:35.281Z</time>
      </trkpt>
      <trkpt lat="43.96359" lon="2.21438">
        <ele>283</ele>
        <time>2021-02-25T14:57:36.281Z</time>
      </trkpt>
      <trkpt lat="43.96359" lon="2.21436">
        <ele>283</ele>
        <time>2021-02-25T14:57:37.281Z</time>
      </trkpt>
      <trkpt lat="43.9636" lon="2.21435">
        <ele>283</ele>
        <time>2021-02-25T14:57:38.281Z</time>
      </trkpt>
      <trkpt lat="43.9636" lon="2.21433">
        <ele>283</ele>
        <time>2021-02-25T14:57:39.281Z</time>
      </trkpt>
      <trkpt lat="43.96361" lon="2.21431">
        <ele>283</ele>
        <time>2021-02-25T14:57:40.281Z</time>
      </trkpt>
      <trkpt lat="43.96361" lon="2.2143">
        <ele>283</ele>
        <time>2021-02-25T14:57:41.281Z</time>
      </trkpt>
      <trkpt lat="43.96362" lon="2.21428">
        <ele>283</ele>
        <time>2021-02-25T14:57:42.281Z</time>
      </trkpt>
      <trkpt lat="43.96362" lon="2.21427">
        <ele>283</ele>
        <time>2021-02-25T14:57:43.281Z</time>
      </trkpt>
      <trkpt lat="43.96363" lon="2.21425">
        <ele>283</ele>
        <time>2021-02-25T14:57:44.281Z</time>
      </trkpt>
      <trkpt lat="43.96363" lon="2.21423">
        <ele>283</ele>
        <time>2021-02-25T14:57:45.281Z</time>
      </trkpt>
      <trkpt lat="43.96363" lon="2.21422">
        <ele>283</ele>
        <time>2021-02-25T14:57:46.281Z</time>
      </trkpt>
      <trkpt lat="43.96364" lon="2.2142">
        <ele>283</ele>
        <time>2021-02-25T14:57:47.281Z</time>
      </trkpt>
      <trkpt lat="43.96364" lon="2.21419">
        <ele>283</ele>
        <time>2021-02-25T14:57:48.281Z</time>
      </trkpt>
      <trkpt lat="43.96365" lon="2.21417">
        <ele>283</ele>
        <time>2021-02-25T14:57:49.281Z</time>
      </trkpt>
      <trkpt lat="43.96366" lon="2.21416">
        <ele>283</ele>
        <time>2021-02-25T14:57:50.281Z</time>
      </trkpt>
      <trkpt lat="43.96366" lon="2.21414">
        <ele>283</ele>
        <time>2021-02-25T14:57:51.281Z</time>
      </trkpt>
      <trkpt lat="43.96366" lon="2.21413">
        <ele>283</ele>
        <time>2021-02-25T14:57:52.281Z</time>
      </trkpt>
      <trkpt lat="43.96366" lon="2.21411">
        <ele>283</ele>
        <time>2021-02-25T14:57:53.281Z</time>
      </trkpt>
      <trkpt lat="43.96366" lon="2.2141">
        <ele>283</ele>
        <time>2021-02-25T14:57:54.281Z</time>
      </trkpt>
      <trkpt lat="43.96366" lon="2.21408">
        <ele>283</ele>
        <time>2021-02-25T14:57:55.281Z</time>
      </trkpt>
      <trkpt lat="43.96366" lon="2.21406">
        <ele>283</ele>
        <time>2021-02-25T14:57:56.281Z</time>
      </trkpt>
      <trkpt lat="43.96366" lon="2.21405">
        <ele>283</ele>
        <time>2021-02-25T14:57:57.281Z</time>
      </trkpt>
      <trkpt lat="43.96366" lon="2.21404">
        <ele>282</ele>
        <time>2021-02-25T14:57:58.281Z</time>
      </trkpt>
      <trkpt lat="43.96366" lon="2.21403">
        <ele>282</ele>
        <time>2021-02-25T14:57:59.281Z</time>
      </trkpt>
      <trkpt lat="43.96366" lon="2.21403">
        <ele>282</ele>
        <time>2021-02-25T14:58:00.281Z</time>
      </trkpt>
      <trkpt lat="43.96365" lon="2.21403">
        <ele>282</ele>
        <time>2021-02-25T14:58:01.281Z</time>
      </trkpt>
      <trkpt lat="43.96365" lon="2.21403">
        <ele>282</ele>
        <time>2021-02-25T14:58:02.281Z</time>
      </trkpt>
      <trkpt lat="43.96364" lon="2.21404">
        <ele>281</ele>
        <time>2021-02-25T14:58:03.281Z</time>
      </trkpt>
      <trkpt lat="43.96364" lon="2.21404">
        <ele>281</ele>
        <time>2021-02-25T14:58:04.281Z</time>
      </trkpt>
      <trkpt lat="43.96363" lon="2.21404">
        <ele>281</ele>
        <time>2021-02-25T14:58:05.281Z</time>
      </trkpt>
      <trkpt lat="43.96362" lon="2.21404">
        <ele>281</ele>
        <time>2021-02-25T14:58:06.281Z</time>
      </trkpt>
      <trkpt lat="43.96361" lon="2.21404">
        <ele>281</ele>
        <time>2021-02-25T14:58:07.281Z</time>
      </trkpt>
      <trkpt lat="43.9636" lon="2.21405">
        <ele>281</ele>
        <time>2021-02-25T14:58:08.281Z</time>
      </trkpt>
      <trkpt lat="43.96359" lon="2.21405">
        <ele>281</ele>
        <time>2021-02-25T14:58:09.281Z</time>
      </trkpt>
      <trkpt lat="43.96358" lon="2.21406">
        <ele>281</ele>
        <time>2021-02-25T14:58:10.281Z</time>
      </trkpt>
      <trkpt lat="43.96357" lon="2.21407">
        <ele>280</ele>
        <time>2021-02-25T14:58:11.281Z</time>
      </trkpt>
      <trkpt lat="43.96356" lon="2.21407">
        <ele>280</ele>
        <time>2021-02-25T14:58:12.281Z</time>
      </trkpt>
      <trkpt lat="43.96355" lon="2.21408">
        <ele>280</ele>
        <time>2021-02-25T14:58:13.281Z</time>
      </trkpt>
      <trkpt lat="43.96354" lon="2.21408">
        <ele>280</ele>
        <time>2021-02-25T14:58:14.281Z</time>
      </trkpt>
      <trkpt lat="43.96353" lon="2.21409">
        <ele>280</ele>
        <time>2021-02-25T14:58:15.281Z</time>
      </trkpt>
      <trkpt lat="43.96352" lon="2.21409">
        <ele>280</ele>
        <time>2021-02-25T14:58:16.281Z</time>
      </trkpt>
      <trkpt lat="43.96351" lon="2.2141">
        <ele>280</ele>
        <time>2021-02-25T14:58:17.281Z</time>
      </trkpt>
      <trkpt lat="43.9635" lon="2.21411">
        <ele>280</ele>
        <time>2021-02-25T14:58:18.281Z</time>
      </trkpt>
      <trkpt lat="43.96349" lon="2.21411">
        <ele>280</ele>
        <time>2021-02-25T14:58:19.281Z</time>
      </trkpt>
      <trkpt lat="43.96348" lon="2.21411">
        <ele>280</ele>
        <time>2021-02-25T14:58:20.281Z</time>
      </trkpt>
      <trkpt lat="43.96348" lon="2.21412">
        <ele>280</ele>
        <time>2021-02-25T14:58:21.281Z</time>
      </trkpt>
      <trkpt lat="43.96347" lon="2.21413">
        <ele>280</ele>
        <time>2021-02-25T14:58:22.281Z</time>
      </trkpt>
      <trkpt lat="43.96347" lon="2.21415">
        <ele>280</ele>
        <time>2021-02-25T14:58:23.281Z</time>
      </trkpt>
      <trkpt lat="43.96346" lon="2.21416">
        <ele>280</ele>
        <time>2021-02-25T14:58:24.281Z</time>
      </trkpt>
      <trkpt lat="43.96346" lon="2.21417">
        <ele>280</ele>
        <time>2021-02-25T14:58:25.281Z</time>
      </trkpt>
      <trkpt lat="43.96345" lon="2.21418">
        <ele>280</ele>
        <time>2021-02-25T14:58:26.281Z</time>
      </trkpt>
      <trkpt lat="43.96344" lon="2.21418">
        <ele>280</ele>
        <time>2021-02-25T14:58:27.281Z</time>
      </trkpt>
      <trkpt lat="43.96343" lon="2.21419">
        <ele>280</ele>
        <time>2021-02-25T14:58:28.281Z</time>
      </trkpt>
      <trkpt lat="43.96342" lon="2.21419">
        <ele>280</ele>
        <time>2021-02-25T14:58:29.281Z</time>
      </trkpt>
      <trkpt lat="43.96341" lon="2.2142">
        <ele>279</ele>
        <time>2021-02-25T14:58:30.281Z</time>
      </trkpt>
      <trkpt lat="43.9634" lon="2.21421">
        <ele>279</ele>
        <time>2021-02-25T14:58:31.281Z</time>
      </trkpt>
      <trkpt lat="43.96339" lon="2.21421">
        <ele>279</ele>
        <time>2021-02-25T14:58:32.281Z</time>
      </trkpt>
      <trkpt lat="43.96338" lon="2.21422">
        <ele>280</ele>
        <time>2021-02-25T14:58:33.281Z</time>
      </trkpt>
      <trkpt lat="43.96337" lon="2.21423">
        <ele>280</ele>
        <time>2021-02-25T14:58:34.281Z</time>
      </trkpt>
      <trkpt lat="43.96336" lon="2.21423">
        <ele>280</ele>
        <time>2021-02-25T14:58:35.281Z</time>
      </trkpt>
      <trkpt lat="43.96335" lon="2.21424">
        <ele>280</ele>
        <time>2021-02-25T14:58:36.281Z</time>
      </trkpt>
      <trkpt lat="43.96334" lon="2.21425">
        <ele>280</ele>
        <time>2021-02-25T14:58:37.281Z</time>
      </trkpt>
      <trkpt lat="43.96333" lon="2.21426">
        <ele>280</ele>
        <time>2021-02-25T14:58:38.281Z</time>
      </trkpt>
      <trkpt lat="43.96332" lon="2.21427">
        <ele>280</ele>
        <time>2021-02-25T14:58:39.281Z</time>
      </trkpt>
      <trkpt lat="43.96331" lon="2.21427">
        <ele>280</ele>
        <time>2021-02-25T14:58:40.281Z</time>
      </trkpt>
      <trkpt lat="43.9633" lon="2.21428">
        <ele>280</ele>
        <time>2021-02-25T14:58:41.281Z</time>
      </trkpt>
      <trkpt lat="43.96329" lon="2.21428">
        <ele>280</ele>
        <time>2021-02-25T14:58:42.281Z</time>
      </trkpt>
      <trkpt lat="43.96328" lon="2.21429">
        <ele>280</ele>
        <time>2021-02-25T14:58:43.281Z</time>
      </trkpt>
      <trkpt lat="43.96327" lon="2.2143">
        <ele>280</ele>
        <time>2021-02-25T14:58:46.526Z</time>
      </trkpt>
      <trkpt lat="43.96325" lon="2.2143">
        <ele>280</ele>
        <time>2021-02-25T14:58:47.526Z</time>
      </trkpt>
      <trkpt lat="43.96324" lon="2.21431">
        <ele>280</ele>
        <time>2021-02-25T14:58:48.526Z</time>
      </trkpt>
      <trkpt lat="43.96323" lon="2.21432">
        <ele>280</ele>
        <time>2021-02-25T14:58:49.526Z</time>
      </trkpt>
      <trkpt lat="43.96321" lon="2.21433">
        <ele>280</ele>
        <time>2021-02-25T14:58:50.526Z</time>
      </trkpt>
      <trkpt lat="43.9632" lon="2.21434">
        <ele>280</ele>
        <time>2021-02-25T14:58:51.526Z</time>
      </trkpt>
      <trkpt lat="43.96319" lon="2.21435">
        <ele>280</ele>
        <time>2021-02-25T15:02:11.537Z</time>
      </trkpt>
      <trkpt lat="43.96318" lon="2.21436">
        <ele>280</ele>
        <time>2021-02-25T15:02:12.537Z</time>
      </trkpt>
      <trkpt lat="43.96317" lon="2.21437">
        <ele>280</ele>
        <time>2021-02-25T15:02:13.537Z</time>
      </trkpt>
      <trkpt lat="43.96317" lon="2.21437">
        <ele>280</ele>
        <time>2021-02-25T15:03:04.552Z</time>
      </trkpt>
      <trkpt lat="43.96317" lon="2.21438">
        <ele>280</ele>
        <time>2021-02-25T15:03:05.552Z</time>
      </trkpt>
      <trkpt lat="43.96316" lon="2.21438">
        <ele>280</ele>
        <time>2021-02-25T15:03:06.552Z</time>
      </trkpt>
      <trkpt lat="43.96315" lon="2.21439">
        <ele>280</ele>
        <time>2021-02-25T15:03:07.552Z</time>
      </trkpt>
      <trkpt lat="43.96314" lon="2.2144">
        <ele>280</ele>
        <time>2021-02-25T15:03:10.797Z</time>
      </trkpt>
      <trkpt lat="43.96312" lon="2.21442">
        <ele>280</ele>
        <time>2021-02-25T15:03:11.797Z</time>
      </trkpt>
      <trkpt lat="43.96311" lon="2.21443">
        <ele>280</ele>
        <time>2021-02-25T15:03:12.797Z</time>
      </trkpt>
      <trkpt lat="43.9631" lon="2.21444">
        <ele>279</ele>
        <time>2021-02-25T15:03:13.797Z</time>
      </trkpt>
      <trkpt lat="43.96308" lon="2.21444">
        <ele>279</ele>
        <time>2021-02-25T15:03:14.797Z</time>
      </trkpt>
      <trkpt lat="43.96307" lon="2.21445">
        <ele>279</ele>
        <time>2021-02-25T15:03:15.797Z</time>
      </trkpt>
      <trkpt lat="43.96306" lon="2.21446">
        <ele>279</ele>
        <time>2021-02-25T15:03:16.797Z</time>
      </trkpt>
      <trkpt lat="43.96305" lon="2.21447">
        <ele>279</ele>
        <time>2021-02-25T15:03:17.797Z</time>
      </trkpt>
      <trkpt lat="43.96303" lon="2.21448">
        <ele>279</ele>
        <time>2021-02-25T15:03:18.797Z</time>
      </trkpt>
      <trkpt lat="43.96302" lon="2.21449">
        <ele>279</ele>
        <time>2021-02-25T15:03:19.797Z</time>
      </trkpt>
      <trkpt lat="43.96301" lon="2.2145">
        <ele>279</ele>
        <time>2021-02-25T15:03:20.797Z</time>
      </trkpt>
      <trkpt lat="43.96299" lon="2.21451">
        <ele>279</ele>
        <time>2021-02-25T15:03:21.797Z</time>
      </trkpt>
      <trkpt lat="43.96298" lon="2.21452">
        <ele>279</ele>
        <time>2021-02-25T15:03:22.797Z</time>
      </trkpt>
      <trkpt lat="43.96297" lon="2.21453">
        <ele>279</ele>
        <time>2021-02-25T15:03:23.797Z</time>
      </trkpt>
      <trkpt lat="43.96296" lon="2.21454">
        <ele>279</ele>
        <time>2021-02-25T15:03:24.797Z</time>
      </trkpt>
      <trkpt lat="43.96295" lon="2.21454">
        <ele>279</ele>
        <time>2021-02-25T15:03:25.797Z</time>
      </trkpt>
      <trkpt lat="43.96294" lon="2.21455">
        <ele>279</ele>
        <time>2021-02-25T15:03:26.797Z</time>
      </trkpt>
      <trkpt lat="43.96293" lon="2.21457">
        <ele>279</ele>
        <time>2021-02-25T15:03:27.797Z</time>
      </trkpt>
      <trkpt lat="43.96292" lon="2.21458">
        <ele>279</ele>
        <time>2021-02-25T15:03:28.797Z</time>
      </trkpt>
      <trkpt lat="43.96291" lon="2.21459">
        <ele>279</ele>
        <time>2021-02-25T15:03:29.797Z</time>
      </trkpt>
      <trkpt lat="43.9629" lon="2.2146">
        <ele>279</ele>
        <time>2021-02-25T15:03:30.797Z</time>
      </trkpt>
      <trkpt lat="43.96289" lon="2.21461">
        <ele>279</ele>
        <time>2021-02-25T15:03:31.797Z</time>
      </trkpt>
      <trkpt lat="43.96287" lon="2.21462">
        <ele>279</ele>
        <time>2021-02-25T15:03:32.797Z</time>
      </trkpt>
      <trkpt lat="43.96286" lon="2.21463">
        <ele>279</ele>
        <time>2021-02-25T15:03:33.797Z</time>
      </trkpt>
      <trkpt lat="43.96285" lon="2.21464">
        <ele>279</ele>
        <time>2021-02-25T15:03:34.797Z</time>
      </trkpt>
      <trkpt lat="43.96284" lon="2.21465">
        <ele>279</ele>
        <time>2021-02-25T15:03:35.797Z</time>
      </trkpt>
      <trkpt lat="43.96282" lon="2.21466">
        <ele>279</ele>
        <time>2021-02-25T15:03:36.797Z</time>
      </trkpt>
      <trkpt lat="43.96281" lon="2.21467">
        <ele>279</ele>
        <time>2021-02-25T15:03:37.797Z</time>
      </trkpt>
      <trkpt lat="43.96279" lon="2.21468">
        <ele>279</ele>
        <time>2021-02-25T15:03:38.797Z</time>
      </trkpt>
      <trkpt lat="43.96278" lon="2.21469">
        <ele>279</ele>
        <time>2021-02-25T15:03:39.797Z</time>
      </trkpt>
      <trkpt lat="43.96277" lon="2.2147">
        <ele>279</ele>
        <time>2021-02-25T15:03:40.797Z</time>
      </trkpt>
      <trkpt lat="43.96275" lon="2.21471">
        <ele>278</ele>
        <time>2021-02-25T15:03:41.797Z</time>
      </trkpt>
      <trkpt lat="43.96274" lon="2.21472">
        <ele>278</ele>
        <time>2021-02-25T15:03:42.797Z</time>
      </trkpt>
      <trkpt lat="43.96273" lon="2.21473">
        <ele>278</ele>
        <time>2021-02-25T15:03:43.797Z</time>
      </trkpt>
      <trkpt lat="43.96272" lon="2.21474">
        <ele>278</ele>
        <time>2021-02-25T15:03:44.797Z</time>
      </trkpt>
      <trkpt lat="43.9627" lon="2.21475">
        <ele>278</ele>
        <time>2021-02-25T15:03:45.797Z</time>
      </trkpt>
      <trkpt lat="43.96269" lon="2.21476">
        <ele>278</ele>
        <time>2021-02-25T15:03:46.797Z</time>
      </trkpt>
      <trkpt lat="43.96268" lon="2.21477">
        <ele>277</ele>
        <time>2021-02-25T15:03:47.797Z</time>
      </trkpt>
      <trkpt lat="43.96267" lon="2.21478">
        <ele>277</ele>
        <time>2021-02-25T15:03:48.797Z</time>
      </trkpt>
      <trkpt lat="43.96266" lon="2.21479">
        <ele>277</ele>
        <time>2021-02-25T15:03:49.797Z</time>
      </trkpt>
      <trkpt lat="43.96265" lon="2.2148">
        <ele>277</ele>
        <time>2021-02-25T15:03:50.797Z</time>
      </trkpt>
      <trkpt lat="43.96264" lon="2.2148">
        <ele>277</ele>
        <time>2021-02-25T15:03:51.797Z</time>
      </trkpt>
      <trkpt lat="43.96263" lon="2.21481">
        <ele>277</ele>
        <time>2021-02-25T15:03:52.797Z</time>
      </trkpt>
      <trkpt lat="43.96262" lon="2.21482">
        <ele>277</ele>
        <time>2021-02-25T15:03:53.797Z</time>
      </trkpt>
      <trkpt lat="43.96262" lon="2.21483">
        <ele>277</ele>
        <time>2021-02-25T15:03:54.797Z</time>
      </trkpt>
      <trkpt lat="43.96261" lon="2.21484">
        <ele>277</ele>
        <time>2021-02-25T15:03:55.797Z</time>
      </trkpt>
      <trkpt lat="43.96261" lon="2.21485">
        <ele>276</ele>
        <time>2021-02-25T15:03:56.797Z</time>
      </trkpt>
      <trkpt lat="43.9626" lon="2.21486">
        <ele>276</ele>
        <time>2021-02-25T15:03:57.797Z</time>
      </trkpt>
      <trkpt lat="43.9626" lon="2.21487">
        <ele>276</ele>
        <time>2021-02-25T15:03:58.797Z</time>
      </trkpt>
      <trkpt lat="43.96259" lon="2.21487">
        <ele>276</ele>
        <time>2021-02-25T15:03:59.797Z</time>
      </trkpt>
      <trkpt lat="43.96258" lon="2.21488">
        <ele>276</ele>
        <time>2021-02-25T15:04:00.797Z</time>
      </trkpt>
      <trkpt lat="43.96257" lon="2.21489">
        <ele>276</ele>
        <time>2021-02-25T15:04:01.797Z</time>
      </trkpt>
      <trkpt lat="43.96256" lon="2.2149">
        <ele>276</ele>
        <time>2021-02-25T15:04:02.797Z</time>
      </trkpt>
      <trkpt lat="43.96255" lon="2.21491">
        <ele>275</ele>
        <time>2021-02-25T15:04:03.797Z</time>
      </trkpt>
      <trkpt lat="43.96254" lon="2.21491">
        <ele>275</ele>
        <time>2021-02-25T15:04:04.797Z</time>
      </trkpt>
      <trkpt lat="43.96253" lon="2.21492">
        <ele>275</ele>
        <time>2021-02-25T15:04:05.797Z</time>
      </trkpt>
      <trkpt lat="43.96252" lon="2.21492">
        <ele>275</ele>
        <time>2021-02-25T15:04:06.797Z</time>
      </trkpt>
      <trkpt lat="43.96251" lon="2.21493">
        <ele>275</ele>
        <time>2021-02-25T15:04:07.797Z</time>
      </trkpt>
      <trkpt lat="43.9625" lon="2.21494">
        <ele>275</ele>
        <time>2021-02-25T15:04:08.797Z</time>
      </trkpt>
      <trkpt lat="43.96249" lon="2.21495">
        <ele>275</ele>
        <time>2021-02-25T15:04:09.797Z</time>
      </trkpt>
      <trkpt lat="43.96248" lon="2.21495">
        <ele>275</ele>
        <time>2021-02-25T15:04:10.797Z</time>
      </trkpt>
      <trkpt lat="43.96247" lon="2.21496">
        <ele>275</ele>
        <time>2021-02-25T15:04:11.797Z</time>
      </trkpt>
      <trkpt lat="43.96246" lon="2.21497">
        <ele>275</ele>
        <time>2021-02-25T15:04:12.797Z</time>
      </trkpt>
      <trkpt lat="43.96245" lon="2.21498">
        <ele>274</ele>
        <time>2021-02-25T15:04:13.797Z</time>
      </trkpt>
      <trkpt lat="43.96244" lon="2.21499">
        <ele>274</ele>
        <time>2021-02-25T15:04:14.797Z</time>
      </trkpt>
      <trkpt lat="43.96243" lon="2.215">
        <ele>274</ele>
        <time>2021-02-25T15:04:15.797Z</time>
      </trkpt>
      <trkpt lat="43.96242" lon="2.21501">
        <ele>274</ele>
        <time>2021-02-25T15:04:16.797Z</time>
      </trkpt>
      <trkpt lat="43.96241" lon="2.21502">
        <ele>274</ele>
        <time>2021-02-25T15:04:17.797Z</time>
      </trkpt>
      <trkpt lat="43.9624" lon="2.21503">
        <ele>274</ele>
        <time>2021-02-25T15:04:18.797Z</time>
      </trkpt>
      <trkpt lat="43.96239" lon="2.21504">
        <ele>274</ele>
        <time>2021-02-25T15:04:19.797Z</time>
      </trkpt>
      <trkpt lat="43.96237" lon="2.21504">
        <ele>274</ele>
        <time>2021-02-25T15:04:20.797Z</time>
      </trkpt>
      <trkpt lat="43.96236" lon="2.21506">
        <ele>274</ele>
        <time>2021-02-25T15:04:21.797Z</time>
      </trkpt>
      <trkpt lat="43.96235" lon="2.21507">
        <ele>274</ele>
        <time>2021-02-25T15:04:22.797Z</time>
      </trkpt>
      <trkpt lat="43.96234" lon="2.21508">
        <ele>274</ele>
        <time>2021-02-25T15:04:23.797Z</time>
      </trkpt>
      <trkpt lat="43.96234" lon="2.21509">
        <ele>274</ele>
        <time>2021-02-25T15:04:24.797Z</time>
      </trkpt>
      <trkpt lat="43.96233" lon="2.2151">
        <ele>274</ele>
        <time>2021-02-25T15:04:25.797Z</time>
      </trkpt>
      <trkpt lat="43.96232" lon="2.2151">
        <ele>274</ele>
        <time>2021-02-25T15:04:26.797Z</time>
      </trkpt>
      <trkpt lat="43.96231" lon="2.21511">
        <ele>274</ele>
        <time>2021-02-25T15:04:27.797Z</time>
      </trkpt>
      <trkpt lat="43.9623" lon="2.21512">
        <ele>274</ele>
        <time>2021-02-25T15:04:28.797Z</time>
      </trkpt>
      <trkpt lat="43.96228" lon="2.21513">
        <ele>273</ele>
        <time>2021-02-25T15:04:29.797Z</time>
      </trkpt>
      <trkpt lat="43.96227" lon="2.21513">
        <ele>273</ele>
        <time>2021-02-25T15:04:30.797Z</time>
      </trkpt>
      <trkpt lat="43.96226" lon="2.21514">
        <ele>273</ele>
        <time>2021-02-25T15:04:31.797Z</time>
      </trkpt>
      <trkpt lat="43.96226" lon="2.21515">
        <ele>273</ele>
        <time>2021-02-25T15:04:32.797Z</time>
      </trkpt>
      <trkpt lat="43.96224" lon="2.21516">
        <ele>273</ele>
        <time>2021-02-25T15:04:33.797Z</time>
      </trkpt>
      <trkpt lat="43.96223" lon="2.21517">
        <ele>273</ele>
        <time>2021-02-25T15:04:34.797Z</time>
      </trkpt>
      <trkpt lat="43.96222" lon="2.21518">
        <ele>273</ele>
        <time>2021-02-25T15:04:35.797Z</time>
      </trkpt>
      <trkpt lat="43.96221" lon="2.21519">
        <ele>273</ele>
        <time>2021-02-25T15:04:36.797Z</time>
      </trkpt>
      <trkpt lat="43.9622" lon="2.21521">
        <ele>273</ele>
        <time>2021-02-25T15:04:37.797Z</time>
      </trkpt>
      <trkpt lat="43.96219" lon="2.21522">
        <ele>273</ele>
        <time>2021-02-25T15:04:38.797Z</time>
      </trkpt>
      <trkpt lat="43.96218" lon="2.21522">
        <ele>273</ele>
        <time>2021-02-25T15:04:39.797Z</time>
      </trkpt>
      <trkpt lat="43.96217" lon="2.21523">
        <ele>272</ele>
        <time>2021-02-25T15:04:40.797Z</time>
      </trkpt>
      <trkpt lat="43.96217" lon="2.21524">
        <ele>272</ele>
        <time>2021-02-25T15:04:41.797Z</time>
      </trkpt>
      <trkpt lat="43.96216" lon="2.21525">
        <ele>272</ele>
        <time>2021-02-25T15:04:42.797Z</time>
      </trkpt>
      <trkpt lat="43.96215" lon="2.21526">
        <ele>272</ele>
        <time>2021-02-25T15:04:43.797Z</time>
      </trkpt>
      <trkpt lat="43.96214" lon="2.21527">
        <ele>272</ele>
        <time>2021-02-25T15:04:44.797Z</time>
      </trkpt>
      <trkpt lat="43.96213" lon="2.21528">
        <ele>272</ele>
        <time>2021-02-25T15:04:45.797Z</time>
      </trkpt>
      <trkpt lat="43.96211" lon="2.21529">
        <ele>272</ele>
        <time>2021-02-25T15:04:46.797Z</time>
      </trkpt>
      <trkpt lat="43.9621" lon="2.2153">
        <ele>272</ele>
        <time>2021-02-25T15:04:47.797Z</time>
      </trkpt>
      <trkpt lat="43.96209" lon="2.2153">
        <ele>272</ele>
        <time>2021-02-25T15:04:48.797Z</time>
      </trkpt>
      <trkpt lat="43.96208" lon="2.21531">
        <ele>272</ele>
        <time>2021-02-25T15:04:49.797Z</time>
      </trkpt>
      <trkpt lat="43.96206" lon="2.21532">
        <ele>271</ele>
        <time>2021-02-25T15:04:50.797Z</time>
      </trkpt>
      <trkpt lat="43.96205" lon="2.21533">
        <ele>271</ele>
        <time>2021-02-25T15:04:51.797Z</time>
      </trkpt>
      <trkpt lat="43.96204" lon="2.21534">
        <ele>271</ele>
        <time>2021-02-25T15:04:52.797Z</time>
      </trkpt>
      <trkpt lat="43.96203" lon="2.21535">
        <ele>271</ele>
        <time>2021-02-25T15:04:53.797Z</time>
      </trkpt>
      <trkpt lat="43.96202" lon="2.21535">
        <ele>271</ele>
        <time>2021-02-25T15:04:54.797Z</time>
      </trkpt>
      <trkpt lat="43.96201" lon="2.21536">
        <ele>271</ele>
        <time>2021-02-25T15:04:55.797Z</time>
      </trkpt>
      <trkpt lat="43.962" lon="2.21537">
        <ele>271</ele>
        <time>2021-02-25T15:04:56.797Z</time>
      </trkpt>
      <trkpt lat="43.96198" lon="2.21538">
        <ele>271</ele>
        <time>2021-02-25T15:04:57.797Z</time>
      </trkpt>
      <trkpt lat="43.96197" lon="2.21539">
        <ele>271</ele>
        <time>2021-02-25T15:04:58.797Z</time>
      </trkpt>
      <trkpt lat="43.96196" lon="2.2154">
        <ele>271</ele>
        <time>2021-02-25T15:04:59.797Z</time>
      </trkpt>
      <trkpt lat="43.96195" lon="2.21541">
        <ele>270</ele>
        <time>2021-02-25T15:05:00.797Z</time>
      </trkpt>
      <trkpt lat="43.96194" lon="2.21542">
        <ele>270</ele>
        <time>2021-02-25T15:05:01.797Z</time>
      </trkpt>
      <trkpt lat="43.96193" lon="2.21543">
        <ele>270</ele>
        <time>2021-02-25T15:05:02.797Z</time>
      </trkpt>
      <trkpt lat="43.96192" lon="2.21543">
        <ele>270</ele>
        <time>2021-02-25T15:05:03.797Z</time>
      </trkpt>
      <trkpt lat="43.96191" lon="2.21544">
        <ele>270</ele>
        <time>2021-02-25T15:05:04.797Z</time>
      </trkpt>
      <trkpt lat="43.9619" lon="2.21545">
        <ele>270</ele>
        <time>2021-02-25T15:05:05.797Z</time>
      </trkpt>
      <trkpt lat="43.96188" lon="2.21546">
        <ele>270</ele>
        <time>2021-02-25T15:05:06.797Z</time>
      </trkpt>
      <trkpt lat="43.96187" lon="2.21547">
        <ele>269</ele>
        <time>2021-02-25T15:05:07.797Z</time>
      </trkpt>
      <trkpt lat="43.96186" lon="2.21547">
        <ele>269</ele>
        <time>2021-02-25T15:05:08.797Z</time>
      </trkpt>
      <trkpt lat="43.96185" lon="2.21548">
        <ele>269</ele>
        <time>2021-02-25T15:05:09.797Z</time>
      </trkpt>
      <trkpt lat="43.96184" lon="2.21549">
        <ele>269</ele>
        <time>2021-02-25T15:05:10.797Z</time>
      </trkpt>
      <trkpt lat="43.96183" lon="2.2155">
        <ele>269</ele>
        <time>2021-02-25T15:05:11.797Z</time>
      </trkpt>
      <trkpt lat="43.96182" lon="2.2155">
        <ele>269</ele>
        <time>2021-02-25T15:05:12.797Z</time>
      </trkpt>
      <trkpt lat="43.96181" lon="2.21551">
        <ele>269</ele>
        <time>2021-02-25T15:05:13.797Z</time>
      </trkpt>
      <trkpt lat="43.9618" lon="2.21552">
        <ele>269</ele>
        <time>2021-02-25T15:05:14.797Z</time>
      </trkpt>
      <trkpt lat="43.96179" lon="2.21553">
        <ele>269</ele>
        <time>2021-02-25T15:05:15.797Z</time>
      </trkpt>
      <trkpt lat="43.96178" lon="2.21554">
        <ele>269</ele>
        <time>2021-02-25T15:05:16.797Z</time>
      </trkpt>
      <trkpt lat="43.96177" lon="2.21555">
        <ele>268</ele>
        <time>2021-02-25T15:05:17.797Z</time>
      </trkpt>
      <trkpt lat="43.96175" lon="2.21555">
        <ele>268</ele>
        <time>2021-02-25T15:05:18.797Z</time>
      </trkpt>
      <trkpt lat="43.96174" lon="2.21556">
        <ele>268</ele>
        <time>2021-02-25T15:05:19.797Z</time>
      </trkpt>
      <trkpt lat="43.96173" lon="2.21557">
        <ele>268</ele>
        <time>2021-02-25T15:05:20.797Z</time>
      </trkpt>
      <trkpt lat="43.96172" lon="2.21558">
        <ele>268</ele>
        <time>2021-02-25T15:05:21.797Z</time>
      </trkpt>
      <trkpt lat="43.96172" lon="2.21559">
        <ele>268</ele>
        <time>2021-02-25T15:05:22.797Z</time>
      </trkpt>
      <trkpt lat="43.96171" lon="2.21559">
        <ele>268</ele>
        <time>2021-02-25T15:05:23.797Z</time>
      </trkpt>
      <trkpt lat="43.9617" lon="2.2156">
        <ele>268</ele>
        <time>2021-02-25T15:05:24.797Z</time>
      </trkpt>
      <trkpt lat="43.96169" lon="2.21561">
        <ele>268</ele>
        <time>2021-02-25T15:05:25.797Z</time>
      </trkpt>
      <trkpt lat="43.96168" lon="2.21562">
        <ele>268</ele>
        <time>2021-02-25T15:05:26.797Z</time>
      </trkpt>
      <trkpt lat="43.96167" lon="2.21563">
        <ele>267</ele>
        <time>2021-02-25T15:05:27.797Z</time>
      </trkpt>
      <trkpt lat="43.96166" lon="2.21563">
        <ele>267</ele>
        <time>2021-02-25T15:05:28.797Z</time>
      </trkpt>
      <trkpt lat="43.96165" lon="2.21564">
        <ele>267</ele>
        <time>2021-02-25T15:05:29.797Z</time>
      </trkpt>
      <trkpt lat="43.96164" lon="2.21565">
        <ele>267</ele>
        <time>2021-02-25T15:05:30.797Z</time>
      </trkpt>
      <trkpt lat="43.96163" lon="2.21565">
        <ele>267</ele>
        <time>2021-02-25T15:05:31.797Z</time>
      </trkpt>
      <trkpt lat="43.96162" lon="2.21566">
        <ele>267</ele>
        <time>2021-02-25T15:05:32.797Z</time>
      </trkpt>
      <trkpt lat="43.96161" lon="2.21566">
        <ele>267</ele>
        <time>2021-02-25T15:05:33.797Z</time>
      </trkpt>
      <trkpt lat="43.9616" lon="2.21566">
        <ele>267</ele>
        <time>2021-02-25T15:05:34.797Z</time>
      </trkpt>
      <trkpt lat="43.96158" lon="2.21567">
        <ele>267</ele>
        <time>2021-02-25T15:05:35.797Z</time>
      </trkpt>
      <trkpt lat="43.96157" lon="2.21567">
        <ele>267</ele>
        <time>2021-02-25T15:05:36.797Z</time>
      </trkpt>
      <trkpt lat="43.96155" lon="2.21568">
        <ele>267</ele>
        <time>2021-02-25T15:05:37.797Z</time>
      </trkpt>
      <trkpt lat="43.96154" lon="2.21568">
        <ele>267</ele>
        <time>2021-02-25T15:05:38.797Z</time>
      </trkpt>
      <trkpt lat="43.96153" lon="2.21569">
        <ele>267</ele>
        <time>2021-02-25T15:05:39.797Z</time>
      </trkpt>
      <trkpt lat="43.96151" lon="2.21569">
        <ele>267</ele>
        <time>2021-02-25T15:05:40.797Z</time>
      </trkpt>
      <trkpt lat="43.9615" lon="2.21569">
        <ele>267</ele>
        <time>2021-02-25T15:05:41.797Z</time>
      </trkpt>
      <trkpt lat="43.96148" lon="2.21569">
        <ele>267</ele>
        <time>2021-02-25T15:05:42.797Z</time>
      </trkpt>
      <trkpt lat="43.96147" lon="2.2157">
        <ele>267</ele>
        <time>2021-02-25T15:05:43.797Z</time>
      </trkpt>
      <trkpt lat="43.96145" lon="2.2157">
        <ele>267</ele>
        <time>2021-02-25T15:05:44.797Z</time>
      </trkpt>
      <trkpt lat="43.96144" lon="2.2157">
        <ele>266</ele>
        <time>2021-02-25T15:05:45.797Z</time>
      </trkpt>
      <trkpt lat="43.96142" lon="2.21571">
        <ele>266</ele>
        <time>2021-02-25T15:05:46.797Z</time>
      </trkpt>
      <trkpt lat="43.96141" lon="2.21571">
        <ele>266</ele>
        <time>2021-02-25T15:05:47.797Z</time>
      </trkpt>
      <trkpt lat="43.96139" lon="2.21571">
        <ele>266</ele>
        <time>2021-02-25T15:05:48.797Z</time>
      </trkpt>
      <trkpt lat="43.96138" lon="2.21572">
        <ele>266</ele>
        <time>2021-02-25T15:05:49.797Z</time>
      </trkpt>
      <trkpt lat="43.96137" lon="2.21572">
        <ele>266</ele>
        <time>2021-02-25T15:05:50.797Z</time>
      </trkpt>
      <trkpt lat="43.96135" lon="2.21572">
        <ele>266</ele>
        <time>2021-02-25T15:05:51.797Z</time>
      </trkpt>
      <trkpt lat="43.96134" lon="2.21572">
        <ele>266</ele>
        <time>2021-02-25T15:05:52.797Z</time>
      </trkpt>
      <trkpt lat="43.96133" lon="2.21572">
        <ele>265</ele>
        <time>2021-02-25T15:05:53.797Z</time>
      </trkpt>
      <trkpt lat="43.96131" lon="2.21573">
        <ele>265</ele>
        <time>2021-02-25T15:05:54.797Z</time>
      </trkpt>
      <trkpt lat="43.9613" lon="2.21573">
        <ele>265</ele>
        <time>2021-02-25T15:05:55.797Z</time>
      </trkpt>
      <trkpt lat="43.96129" lon="2.21573">
        <ele>265</ele>
        <time>2021-02-25T15:05:56.797Z</time>
      </trkpt>
      <trkpt lat="43.96128" lon="2.21574">
        <ele>265</ele>
        <time>2021-02-25T15:05:57.797Z</time>
      </trkpt>
      <trkpt lat="43.96127" lon="2.21574">
        <ele>264</ele>
        <time>2021-02-25T15:05:58.797Z</time>
      </trkpt>
      <trkpt lat="43.96126" lon="2.21574">
        <ele>264</ele>
        <time>2021-02-25T15:05:59.797Z</time>
      </trkpt>
      <trkpt lat="43.96125" lon="2.21575">
        <ele>264</ele>
        <time>2021-02-25T15:06:00.797Z</time>
      </trkpt>
      <trkpt lat="43.96124" lon="2.21575">
        <ele>264</ele>
        <time>2021-02-25T15:06:01.797Z</time>
      </trkpt>
      <trkpt lat="43.96122" lon="2.21575">
        <ele>264</ele>
        <time>2021-02-25T15:06:02.797Z</time>
      </trkpt>
      <trkpt lat="43.96121" lon="2.21576">
        <ele>264</ele>
        <time>2021-02-25T15:06:03.797Z</time>
      </trkpt>
      <trkpt lat="43.9612" lon="2.21576">
        <ele>264</ele>
        <time>2021-02-25T15:06:04.797Z</time>
      </trkpt>
      <trkpt lat="43.96119" lon="2.21577">
        <ele>263</ele>
        <time>2021-02-25T15:06:05.797Z</time>
      </trkpt>
      <trkpt lat="43.96118" lon="2.21577">
        <ele>263</ele>
        <time>2021-02-25T15:06:06.797Z</time>
      </trkpt>
      <trkpt lat="43.96117" lon="2.21578">
        <ele>263</ele>
        <time>2021-02-25T15:06:07.797Z</time>
      </trkpt>
      <trkpt lat="43.96116" lon="2.21578">
        <ele>263</ele>
        <time>2021-02-25T15:06:08.797Z</time>
      </trkpt>
      <trkpt lat="43.96115" lon="2.21578">
        <ele>263</ele>
        <time>2021-02-25T15:06:09.797Z</time>
      </trkpt>
      <trkpt lat="43.96113" lon="2.21579">
        <ele>263</ele>
        <time>2021-02-25T15:06:10.797Z</time>
      </trkpt>
      <trkpt lat="43.96112" lon="2.21579">
        <ele>263</ele>
        <time>2021-02-25T15:06:11.797Z</time>
      </trkpt>
      <trkpt lat="43.96111" lon="2.21579">
        <ele>263</ele>
        <time>2021-02-25T15:06:12.797Z</time>
      </trkpt>
      <trkpt lat="43.96109" lon="2.2158">
        <ele>263</ele>
        <time>2021-02-25T15:06:13.797Z</time>
      </trkpt>
      <trkpt lat="43.96108" lon="2.21581">
        <ele>263</ele>
        <time>2021-02-25T15:06:14.797Z</time>
      </trkpt>
      <trkpt lat="43.96107" lon="2.21581">
        <ele>263</ele>
        <time>2021-02-25T15:06:15.797Z</time>
      </trkpt>
      <trkpt lat="43.96105" lon="2.21582">
        <ele>263</ele>
        <time>2021-02-25T15:06:16.797Z</time>
      </trkpt>
      <trkpt lat="43.96104" lon="2.21582">
        <ele>263</ele>
        <time>2021-02-25T15:06:17.797Z</time>
      </trkpt>
      <trkpt lat="43.96103" lon="2.21583">
        <ele>263</ele>
        <time>2021-02-25T15:06:18.797Z</time>
      </trkpt>
      <trkpt lat="43.96101" lon="2.21583">
        <ele>263</ele>
        <time>2021-02-25T15:06:19.797Z</time>
      </trkpt>
      <trkpt lat="43.96099" lon="2.21584">
        <ele>263</ele>
        <time>2021-02-25T15:06:20.797Z</time>
      </trkpt>
      <trkpt lat="43.96098" lon="2.21584">
        <ele>263</ele>
        <time>2021-02-25T15:06:21.797Z</time>
      </trkpt>
      <trkpt lat="43.96097" lon="2.21585">
        <ele>263</ele>
        <time>2021-02-25T15:06:22.797Z</time>
      </trkpt>
      <trkpt lat="43.96095" lon="2.21586">
        <ele>263</ele>
        <time>2021-02-25T15:06:23.797Z</time>
      </trkpt>
      <trkpt lat="43.96094" lon="2.21586">
        <ele>263</ele>
        <time>2021-02-25T15:06:24.797Z</time>
      </trkpt>
      <trkpt lat="43.96093" lon="2.21587">
        <ele>263</ele>
        <time>2021-02-25T15:06:25.797Z</time>
      </trkpt>
      <trkpt lat="43.96092" lon="2.21587">
        <ele>263</ele>
        <time>2021-02-25T15:06:26.797Z</time>
      </trkpt>
      <trkpt lat="43.96091" lon="2.21588">
        <ele>263</ele>
        <time>2021-02-25T15:06:27.797Z</time>
      </trkpt>
      <trkpt lat="43.9609" lon="2.21588">
        <ele>263</ele>
        <time>2021-02-25T15:06:28.797Z</time>
      </trkpt>
      <trkpt lat="43.96089" lon="2.21589">
        <ele>263</ele>
        <time>2021-02-25T15:06:29.797Z</time>
      </trkpt>
      <trkpt lat="43.96088" lon="2.21589">
        <ele>263</ele>
        <time>2021-02-25T15:06:30.797Z</time>
      </trkpt>
      <trkpt lat="43.96086" lon="2.2159">
        <ele>263</ele>
        <time>2021-02-25T15:06:31.797Z</time>
      </trkpt>
      <trkpt lat="43.96085" lon="2.2159">
        <ele>263</ele>
        <time>2021-02-25T15:06:32.797Z</time>
      </trkpt>
      <trkpt lat="43.96084" lon="2.21591">
        <ele>262</ele>
        <time>2021-02-25T15:06:33.797Z</time>
      </trkpt>
      <trkpt lat="43.96083" lon="2.21591">
        <ele>262</ele>
        <time>2021-02-25T15:06:34.797Z</time>
      </trkpt>
      <trkpt lat="43.96081" lon="2.21592">
        <ele>262</ele>
        <time>2021-02-25T15:06:35.797Z</time>
      </trkpt>
      <trkpt lat="43.9608" lon="2.21593">
        <ele>262</ele>
        <time>2021-02-25T15:06:36.797Z</time>
      </trkpt>
      <trkpt lat="43.96079" lon="2.21594">
        <ele>262</ele>
        <time>2021-02-25T15:06:37.797Z</time>
      </trkpt>
      <trkpt lat="43.96077" lon="2.21594">
        <ele>262</ele>
        <time>2021-02-25T15:06:38.797Z</time>
      </trkpt>
      <trkpt lat="43.96076" lon="2.21595">
        <ele>262</ele>
        <time>2021-02-25T15:06:39.797Z</time>
      </trkpt>
      <trkpt lat="43.96074" lon="2.21595">
        <ele>262</ele>
        <time>2021-02-25T15:06:40.797Z</time>
      </trkpt>
      <trkpt lat="43.96073" lon="2.21596">
        <ele>262</ele>
        <time>2021-02-25T15:06:41.797Z</time>
      </trkpt>
      <trkpt lat="43.96072" lon="2.21597">
        <ele>262</ele>
        <time>2021-02-25T15:06:42.797Z</time>
      </trkpt>
      <trkpt lat="43.9607" lon="2.21598">
        <ele>261</ele>
        <time>2021-02-25T15:06:43.797Z</time>
      </trkpt>
      <trkpt lat="43.96069" lon="2.21598">
        <ele>261</ele>
        <time>2021-02-25T15:06:44.797Z</time>
      </trkpt>
      <trkpt lat="43.96067" lon="2.21599">
        <ele>261</ele>
        <time>2021-02-25T15:06:45.797Z</time>
      </trkpt>
      <trkpt lat="43.96066" lon="2.21599">
        <ele>261</ele>
        <time>2021-02-25T15:06:46.797Z</time>
      </trkpt>
      <trkpt lat="43.96065" lon="2.216">
        <ele>261</ele>
        <time>2021-02-25T15:06:47.797Z</time>
      </trkpt>
      <trkpt lat="43.96064" lon="2.216">
        <ele>261</ele>
        <time>2021-02-25T15:06:48.797Z</time>
      </trkpt>
      <trkpt lat="43.96062" lon="2.21601">
        <ele>261</ele>
        <time>2021-02-25T15:06:49.797Z</time>
      </trkpt>
      <trkpt lat="43.96061" lon="2.21601">
        <ele>260</ele>
        <time>2021-02-25T15:06:50.797Z</time>
      </trkpt>
      <trkpt lat="43.96059" lon="2.21602">
        <ele>260</ele>
        <time>2021-02-25T15:06:51.797Z</time>
      </trkpt>
      <trkpt lat="43.96058" lon="2.21603">
        <ele>260</ele>
        <time>2021-02-25T15:06:52.797Z</time>
      </trkpt>
      <trkpt lat="43.96057" lon="2.21603">
        <ele>260</ele>
        <time>2021-02-25T15:06:53.797Z</time>
      </trkpt>
      <trkpt lat="43.96056" lon="2.21604">
        <ele>260</ele>
        <time>2021-02-25T15:06:54.797Z</time>
      </trkpt>
      <trkpt lat="43.96054" lon="2.21604">
        <ele>260</ele>
        <time>2021-02-25T15:06:55.797Z</time>
      </trkpt>
      <trkpt lat="43.96053" lon="2.21604">
        <ele>260</ele>
        <time>2021-02-25T15:06:56.797Z</time>
      </trkpt>
      <trkpt lat="43.96052" lon="2.21605">
        <ele>260</ele>
        <time>2021-02-25T15:06:57.797Z</time>
      </trkpt>
      <trkpt lat="43.9605" lon="2.21605">
        <ele>259</ele>
        <time>2021-02-25T15:06:58.797Z</time>
      </trkpt>
      <trkpt lat="43.96049" lon="2.21606">
        <ele>259</ele>
        <time>2021-02-25T15:06:59.797Z</time>
      </trkpt>
      <trkpt lat="43.96047" lon="2.21607">
        <ele>259</ele>
        <time>2021-02-25T15:07:00.797Z</time>
      </trkpt>
      <trkpt lat="43.96046" lon="2.21607">
        <ele>259</ele>
        <time>2021-02-25T15:07:01.797Z</time>
      </trkpt>
      <trkpt lat="43.96044" lon="2.21608">
        <ele>259</ele>
        <time>2021-02-25T15:07:02.797Z</time>
      </trkpt>
      <trkpt lat="43.96043" lon="2.21608">
        <ele>259</ele>
        <time>2021-02-25T15:07:03.797Z</time>
      </trkpt>
      <trkpt lat="43.96042" lon="2.21609">
        <ele>259</ele>
        <time>2021-02-25T15:07:04.797Z</time>
      </trkpt>
      <trkpt lat="43.96041" lon="2.21609">
        <ele>259</ele>
        <time>2021-02-25T15:07:05.797Z</time>
      </trkpt>
      <trkpt lat="43.9604" lon="2.2161">
        <ele>259</ele>
        <time>2021-02-25T15:07:06.797Z</time>
      </trkpt>
      <trkpt lat="43.96039" lon="2.2161">
        <ele>258</ele>
        <time>2021-02-25T15:07:07.797Z</time>
      </trkpt>
      <trkpt lat="43.96038" lon="2.2161">
        <ele>258</ele>
        <time>2021-02-25T15:07:08.797Z</time>
      </trkpt>
      <trkpt lat="43.96036" lon="2.21611">
        <ele>258</ele>
        <time>2021-02-25T15:07:09.797Z</time>
      </trkpt>
      <trkpt lat="43.96035" lon="2.21611">
        <ele>258</ele>
        <time>2021-02-25T15:07:10.797Z</time>
      </trkpt>
      <trkpt lat="43.96033" lon="2.21611">
        <ele>258</ele>
        <time>2021-02-25T15:07:11.797Z</time>
      </trkpt>
      <trkpt lat="43.96032" lon="2.21611">
        <ele>258</ele>
        <time>2021-02-25T15:07:12.797Z</time>
      </trkpt>
      <trkpt lat="43.96031" lon="2.21612">
        <ele>258</ele>
        <time>2021-02-25T15:07:13.797Z</time>
      </trkpt>
      <trkpt lat="43.9603" lon="2.21612">
        <ele>258</ele>
        <time>2021-02-25T15:07:14.797Z</time>
      </trkpt>
      <trkpt lat="43.96029" lon="2.21612">
        <ele>258</ele>
        <time>2021-02-25T15:07:15.797Z</time>
      </trkpt>
      <trkpt lat="43.96027" lon="2.21613">
        <ele>257</ele>
        <time>2021-02-25T15:07:16.797Z</time>
      </trkpt>
      <trkpt lat="43.96026" lon="2.21613">
        <ele>257</ele>
        <time>2021-02-25T15:07:17.797Z</time>
      </trkpt>
      <trkpt lat="43.96025" lon="2.21613">
        <ele>257</ele>
        <time>2021-02-25T15:07:18.797Z</time>
      </trkpt>
      <trkpt lat="43.96023" lon="2.21613">
        <ele>257</ele>
        <time>2021-02-25T15:07:19.797Z</time>
      </trkpt>
      <trkpt lat="43.96022" lon="2.21614">
        <ele>257</ele>
        <time>2021-02-25T15:07:20.797Z</time>
      </trkpt>
      <trkpt lat="43.96021" lon="2.21614">
        <ele>256</ele>
        <time>2021-02-25T15:07:21.797Z</time>
      </trkpt>
      <trkpt lat="43.96019" lon="2.21614">
        <ele>256</ele>
        <time>2021-02-25T15:07:22.797Z</time>
      </trkpt>
      <trkpt lat="43.96018" lon="2.21614">
        <ele>256</ele>
        <time>2021-02-25T15:07:23.797Z</time>
      </trkpt>
      <trkpt lat="43.96017" lon="2.21615">
        <ele>256</ele>
        <time>2021-02-25T15:07:24.797Z</time>
      </trkpt>
      <trkpt lat="43.96016" lon="2.21615">
        <ele>255</ele>
        <time>2021-02-25T15:07:25.797Z</time>
      </trkpt>
      <trkpt lat="43.96015" lon="2.21615">
        <ele>255</ele>
        <time>2021-02-25T15:07:26.797Z</time>
      </trkpt>
      <trkpt lat="43.96014" lon="2.21615">
        <ele>255</ele>
        <time>2021-02-25T15:07:27.797Z</time>
      </trkpt>
      <trkpt lat="43.96012" lon="2.21616">
        <ele>255</ele>
        <time>2021-02-25T15:07:28.797Z</time>
      </trkpt>
      <trkpt lat="43.96011" lon="2.21616">
        <ele>255</ele>
        <time>2021-02-25T15:07:29.797Z</time>
      </trkpt>
      <trkpt lat="43.9601" lon="2.21616">
        <ele>254</ele>
        <time>2021-02-25T15:07:30.797Z</time>
      </trkpt>
      <trkpt lat="43.96009" lon="2.21616">
        <ele>254</ele>
        <time>2021-02-25T15:07:31.797Z</time>
      </trkpt>
      <trkpt lat="43.96008" lon="2.21616">
        <ele>254</ele>
        <time>2021-02-25T15:07:32.797Z</time>
      </trkpt>
      <trkpt lat="43.96007" lon="2.21617">
        <ele>254</ele>
        <time>2021-02-25T15:07:33.797Z</time>
      </trkpt>
      <trkpt lat="43.96006" lon="2.21617">
        <ele>254</ele>
        <time>2021-02-25T15:07:34.797Z</time>
      </trkpt>
      <trkpt lat="43.96005" lon="2.21617">
        <ele>253</ele>
        <time>2021-02-25T15:07:35.797Z</time>
      </trkpt>
      <trkpt lat="43.96003" lon="2.21617">
        <ele>253</ele>
        <time>2021-02-25T15:07:36.797Z</time>
      </trkpt>
      <trkpt lat="43.96002" lon="2.21617">
        <ele>253</ele>
        <time>2021-02-25T15:07:37.797Z</time>
      </trkpt>
      <trkpt lat="43.96001" lon="2.21617">
        <ele>253</ele>
        <time>2021-02-25T15:07:38.797Z</time>
      </trkpt>
      <trkpt lat="43.95999" lon="2.21617">
        <ele>253</ele>
        <time>2021-02-25T15:07:39.797Z</time>
      </trkpt>
      <trkpt lat="43.95998" lon="2.21617">
        <ele>253</ele>
        <time>2021-02-25T15:07:40.797Z</time>
      </trkpt>
      <trkpt lat="43.95997" lon="2.21617">
        <ele>253</ele>
        <time>2021-02-25T15:07:41.797Z</time>
      </trkpt>
      <trkpt lat="43.95996" lon="2.21617">
        <ele>253</ele>
        <time>2021-02-25T15:07:42.797Z</time>
      </trkpt>
      <trkpt lat="43.95995" lon="2.21618">
        <ele>252</ele>
        <time>2021-02-25T15:07:43.797Z</time>
      </trkpt>
      <trkpt lat="43.95994" lon="2.21618">
        <ele>252</ele>
        <time>2021-02-25T15:07:44.797Z</time>
      </trkpt>
      <trkpt lat="43.95993" lon="2.21618">
        <ele>252</ele>
        <time>2021-02-25T15:07:45.797Z</time>
      </trkpt>
      <trkpt lat="43.95992" lon="2.21618">
        <ele>252</ele>
        <time>2021-02-25T15:07:46.797Z</time>
      </trkpt>
      <trkpt lat="43.95991" lon="2.21618">
        <ele>252</ele>
        <time>2021-02-25T15:07:47.797Z</time>
      </trkpt>
      <trkpt lat="43.95989" lon="2.21619">
        <ele>252</ele>
        <time>2021-02-25T15:07:48.797Z</time>
      </trkpt>
      <trkpt lat="43.95988" lon="2.21619">
        <ele>251</ele>
        <time>2021-02-25T15:07:49.797Z</time>
      </trkpt>
      <trkpt lat="43.95987" lon="2.2162">
        <ele>251</ele>
        <time>2021-02-25T15:07:50.797Z</time>
      </trkpt>
      <trkpt lat="43.95986" lon="2.2162">
        <ele>251</ele>
        <time>2021-02-25T15:07:51.797Z</time>
      </trkpt>
      <trkpt lat="43.95985" lon="2.21621">
        <ele>251</ele>
        <time>2021-02-25T15:07:52.797Z</time>
      </trkpt>
      <trkpt lat="43.95985" lon="2.21621">
        <ele>251</ele>
        <time>2021-02-25T15:07:53.797Z</time>
      </trkpt>
      <trkpt lat="43.95983" lon="2.21622">
        <ele>251</ele>
        <time>2021-02-25T15:07:54.797Z</time>
      </trkpt>
      <trkpt lat="43.95982" lon="2.21623">
        <ele>251</ele>
        <time>2021-02-25T15:07:55.797Z</time>
      </trkpt>
      <trkpt lat="43.95981" lon="2.21623">
        <ele>251</ele>
        <time>2021-02-25T15:07:56.797Z</time>
      </trkpt>
      <trkpt lat="43.95981" lon="2.21624">
        <ele>251</ele>
        <time>2021-02-25T15:07:57.797Z</time>
      </trkpt>
      <trkpt lat="43.95979" lon="2.21624">
        <ele>251</ele>
        <time>2021-02-25T15:07:58.797Z</time>
      </trkpt>
      <trkpt lat="43.95978" lon="2.21625">
        <ele>251</ele>
        <time>2021-02-25T15:07:59.797Z</time>
      </trkpt>
      <trkpt lat="43.95977" lon="2.21626">
        <ele>250</ele>
        <time>2021-02-25T15:08:00.797Z</time>
      </trkpt>
      <trkpt lat="43.95976" lon="2.21627">
        <ele>250</ele>
        <time>2021-02-25T15:08:01.797Z</time>
      </trkpt>
      <trkpt lat="43.95975" lon="2.21628">
        <ele>250</ele>
        <time>2021-02-25T15:08:02.797Z</time>
      </trkpt>
      <trkpt lat="43.95974" lon="2.21629">
        <ele>250</ele>
        <time>2021-02-25T15:08:03.797Z</time>
      </trkpt>
      <trkpt lat="43.95973" lon="2.21629">
        <ele>250</ele>
        <time>2021-02-25T15:08:04.797Z</time>
      </trkpt>
      <trkpt lat="43.95972" lon="2.2163">
        <ele>250</ele>
        <time>2021-02-25T15:08:05.797Z</time>
      </trkpt>
      <trkpt lat="43.9597" lon="2.21631">
        <ele>250</ele>
        <time>2021-02-25T15:08:06.797Z</time>
      </trkpt>
      <trkpt lat="43.95969" lon="2.21632">
        <ele>250</ele>
        <time>2021-02-25T15:08:07.797Z</time>
      </trkpt>
      <trkpt lat="43.95968" lon="2.21632">
        <ele>250</ele>
        <time>2021-02-25T15:08:08.797Z</time>
      </trkpt>
      <trkpt lat="43.95967" lon="2.21633">
        <ele>250</ele>
        <time>2021-02-25T15:08:09.797Z</time>
      </trkpt>
      <trkpt lat="43.95966" lon="2.21635">
        <ele>250</ele>
        <time>2021-02-25T15:08:10.797Z</time>
      </trkpt>
      <trkpt lat="43.95965" lon="2.21635">
        <ele>250</ele>
        <time>2021-02-25T15:08:11.797Z</time>
      </trkpt>
      <trkpt lat="43.95964" lon="2.21636">
        <ele>250</ele>
        <time>2021-02-25T15:08:12.797Z</time>
      </trkpt>
      <trkpt lat="43.95962" lon="2.21637">
        <ele>250</ele>
        <time>2021-02-25T15:08:13.797Z</time>
      </trkpt>
      <trkpt lat="43.95962" lon="2.21638">
        <ele>250</ele>
        <time>2021-02-25T15:08:14.797Z</time>
      </trkpt>
      <trkpt lat="43.9596" lon="2.21639">
        <ele>249</ele>
        <time>2021-02-25T15:08:15.797Z</time>
      </trkpt>
      <trkpt lat="43.9596" lon="2.2164">
        <ele>249</ele>
        <time>2021-02-25T15:08:16.797Z</time>
      </trkpt>
      <trkpt lat="43.95959" lon="2.21641">
        <ele>249</ele>
        <time>2021-02-25T15:08:17.797Z</time>
      </trkpt>
      <trkpt lat="43.95958" lon="2.21642">
        <ele>249</ele>
        <time>2021-02-25T15:08:18.797Z</time>
      </trkpt>
      <trkpt lat="43.95958" lon="2.21642">
        <ele>249</ele>
        <time>2021-02-25T15:08:19.797Z</time>
      </trkpt>
      <trkpt lat="43.95958" lon="2.21642">
        <ele>249</ele>
        <time>2021-02-25T15:08:20.797Z</time>
      </trkpt>
      <trkpt lat="43.95958" lon="2.21642">
        <ele>249</ele>
        <time>2021-02-25T15:08:21.797Z</time>
      </trkpt>
      <trkpt lat="43.95958" lon="2.21642">
        <ele>249</ele>
        <time>2021-02-25T15:08:22.797Z</time>
      </trkpt>
      <trkpt lat="43.95961" lon="2.21643">
        <ele>247</ele>
        <time>2021-02-25T15:08:23.797Z</time>
      </trkpt>
      <trkpt lat="43.95962" lon="2.21643">
        <ele>247</ele>
        <time>2021-02-25T15:08:39.801Z</time>
      </trkpt>
      <trkpt lat="43.95962" lon="2.21643">
        <ele>247</ele>
        <time>2021-02-25T15:08:40.801Z</time>
      </trkpt>
      <trkpt lat="43.95962" lon="2.21643">
        <ele>247</ele>
        <time>2021-02-25T15:08:41.801Z</time>
      </trkpt>
      <trkpt lat="43.95962" lon="2.21643">
        <ele>248</ele>
        <time>2021-02-25T15:08:42.801Z</time>
      </trkpt>
      <trkpt lat="43.95965" lon="2.21642">
        <ele>250</ele>
        <time>2021-02-25T15:08:43.801Z</time>
      </trkpt>
      <trkpt lat="43.95965" lon="2.21642">
        <ele>250</ele>
        <time>2021-02-25T15:08:44.801Z</time>
      </trkpt>
      <trkpt lat="43.95966" lon="2.21643">
        <ele>250</ele>
        <time>2021-02-25T15:08:45.801Z</time>
      </trkpt>
      <trkpt lat="43.95966" lon="2.21643">
        <ele>250</ele>
        <time>2021-02-25T15:08:46.801Z</time>
      </trkpt>
      <trkpt lat="43.95967" lon="2.21643">
        <ele>250</ele>
        <time>2021-02-25T15:08:47.801Z</time>
      </trkpt>
      <trkpt lat="43.95968" lon="2.21643">
        <ele>250</ele>
        <time>2021-02-25T15:08:48.801Z</time>
      </trkpt>
      <trkpt lat="43.95968" lon="2.21643">
        <ele>250</ele>
        <time>2021-02-25T15:08:49.801Z</time>
      </trkpt>
      <trkpt lat="43.95969" lon="2.21643">
        <ele>250</ele>
        <time>2021-02-25T15:08:50.801Z</time>
      </trkpt>
      <trkpt lat="43.95969" lon="2.21644">
        <ele>250</ele>
        <time>2021-02-25T15:08:51.801Z</time>
      </trkpt>
      <trkpt lat="43.9597" lon="2.21644">
        <ele>250</ele>
        <time>2021-02-25T15:08:52.801Z</time>
      </trkpt>
      <trkpt lat="43.9597" lon="2.21645">
        <ele>250</ele>
        <time>2021-02-25T15:08:53.801Z</time>
      </trkpt>
      <trkpt lat="43.95971" lon="2.21646">
        <ele>249</ele>
        <time>2021-02-25T15:08:54.801Z</time>
      </trkpt>
      <trkpt lat="43.95972" lon="2.21646">
        <ele>249</ele>
        <time>2021-02-25T15:08:55.801Z</time>
      </trkpt>
      <trkpt lat="43.95973" lon="2.21647">
        <ele>249</ele>
        <time>2021-02-25T15:08:56.801Z</time>
      </trkpt>
      <trkpt lat="43.95974" lon="2.21647">
        <ele>249</ele>
        <time>2021-02-25T15:08:57.801Z</time>
      </trkpt>
      <trkpt lat="43.95975" lon="2.21648">
        <ele>249</ele>
        <time>2021-02-25T15:08:58.801Z</time>
      </trkpt>
      <trkpt lat="43.95975" lon="2.21648">
        <ele>249</ele>
        <time>2021-02-25T15:08:59.801Z</time>
      </trkpt>
      <trkpt lat="43.95976" lon="2.21649">
        <ele>249</ele>
        <time>2021-02-25T15:09:00.801Z</time>
      </trkpt>
      <trkpt lat="43.95977" lon="2.21649">
        <ele>249</ele>
        <time>2021-02-25T15:09:01.801Z</time>
      </trkpt>
      <trkpt lat="43.95978" lon="2.21649">
        <ele>249</ele>
        <time>2021-02-25T15:09:02.801Z</time>
      </trkpt>
      <trkpt lat="43.95979" lon="2.21649">
        <ele>248</ele>
        <time>2021-02-25T15:09:03.801Z</time>
      </trkpt>
      <trkpt lat="43.9598" lon="2.21649">
        <ele>248</ele>
        <time>2021-02-25T15:09:04.801Z</time>
      </trkpt>
      <trkpt lat="43.95981" lon="2.2165">
        <ele>248</ele>
        <time>2021-02-25T15:09:05.801Z</time>
      </trkpt>
      <trkpt lat="43.95982" lon="2.2165">
        <ele>248</ele>
        <time>2021-02-25T15:09:06.801Z</time>
      </trkpt>
      <trkpt lat="43.95982" lon="2.2165">
        <ele>248</ele>
        <time>2021-02-25T15:09:07.801Z</time>
      </trkpt>
      <trkpt lat="43.95983" lon="2.21651">
        <ele>248</ele>
        <time>2021-02-25T15:09:08.801Z</time>
      </trkpt>
      <trkpt lat="43.95984" lon="2.21651">
        <ele>248</ele>
        <time>2021-02-25T15:09:09.801Z</time>
      </trkpt>
      <trkpt lat="43.95984" lon="2.21651">
        <ele>248</ele>
        <time>2021-02-25T15:09:10.801Z</time>
      </trkpt>
      <trkpt lat="43.95984" lon="2.21651">
        <ele>247</ele>
        <time>2021-02-25T15:09:11.801Z</time>
      </trkpt>
      <trkpt lat="43.95984" lon="2.21651">
        <ele>247</ele>
        <time>2021-02-25T15:09:12.801Z</time>
      </trkpt>
      <trkpt lat="43.95985" lon="2.21652">
        <ele>247</ele>
        <time>2021-02-25T15:09:13.801Z</time>
      </trkpt>
      <trkpt lat="43.95986" lon="2.21653">
        <ele>247</ele>
        <time>2021-02-25T15:09:14.801Z</time>
      </trkpt>
      <trkpt lat="43.95987" lon="2.21653">
        <ele>247</ele>
        <time>2021-02-25T15:09:15.801Z</time>
      </trkpt>
      <trkpt lat="43.95987" lon="2.21654">
        <ele>247</ele>
        <time>2021-02-25T15:09:16.801Z</time>
      </trkpt>
      <trkpt lat="43.95988" lon="2.21655">
        <ele>247</ele>
        <time>2021-02-25T15:09:17.801Z</time>
      </trkpt>
      <trkpt lat="43.95989" lon="2.21655">
        <ele>247</ele>
        <time>2021-02-25T15:09:18.801Z</time>
      </trkpt>
      <trkpt lat="43.9599" lon="2.21656">
        <ele>247</ele>
        <time>2021-02-25T15:09:19.801Z</time>
      </trkpt>
      <trkpt lat="43.9599" lon="2.21656">
        <ele>247</ele>
        <time>2021-02-25T15:09:20.801Z</time>
      </trkpt>
      <trkpt lat="43.9599" lon="2.21657">
        <ele>247</ele>
        <time>2021-02-25T15:09:21.801Z</time>
      </trkpt>
      <trkpt lat="43.95991" lon="2.21658">
        <ele>248</ele>
        <time>2021-02-25T15:09:22.801Z</time>
      </trkpt>
      <trkpt lat="43.95991" lon="2.21658">
        <ele>248</ele>
        <time>2021-02-25T15:09:23.801Z</time>
      </trkpt>
      <trkpt lat="43.95991" lon="2.21658">
        <ele>248</ele>
        <time>2021-02-25T15:09:24.801Z</time>
      </trkpt>
      <trkpt lat="43.95991" lon="2.21658">
        <ele>248</ele>
        <time>2021-02-25T15:09:25.801Z</time>
      </trkpt>
      <trkpt lat="43.95992" lon="2.21659">
        <ele>249</ele>
        <time>2021-02-25T15:09:26.801Z</time>
      </trkpt>
      <trkpt lat="43.95992" lon="2.21659">
        <ele>249</ele>
        <time>2021-02-25T15:09:27.801Z</time>
      </trkpt>
      <trkpt lat="43.95992" lon="2.21659">
        <ele>249</ele>
        <time>2021-02-25T15:09:28.801Z</time>
      </trkpt>
      <trkpt lat="43.95992" lon="2.21659">
        <ele>249</ele>
        <time>2021-02-25T15:09:29.801Z</time>
      </trkpt>
      <trkpt lat="43.95992" lon="2.21658">
        <ele>249</ele>
        <time>2021-02-25T15:09:30.801Z</time>
      </trkpt>
      <trkpt lat="43.95994" lon="2.21659">
        <ele>249</ele>
        <time>2021-02-25T15:09:31.801Z</time>
      </trkpt>
      <trkpt lat="43.95995" lon="2.21658">
        <ele>249</ele>
        <time>2021-02-25T15:09:45.807Z</time>
      </trkpt>
      <trkpt lat="43.95995" lon="2.21658">
        <ele>249</ele>
        <time>2021-02-25T15:09:46.807Z</time>
      </trkpt>
      <trkpt lat="43.95995" lon="2.21657">
        <ele>249</ele>
        <time>2021-02-25T15:10:06.815Z</time>
      </trkpt>
      <trkpt lat="43.95996" lon="2.21657">
        <ele>249</ele>
        <time>2021-02-25T15:10:07.815Z</time>
      </trkpt>
      <trkpt lat="43.95996" lon="2.21657">
        <ele>249</ele>
        <time>2021-02-25T15:10:08.815Z</time>
      </trkpt>
      <trkpt lat="43.95996" lon="2.21652">
        <ele>247</ele>
        <time>2021-02-25T15:10:09.815Z</time>
      </trkpt>
      <trkpt lat="43.95996" lon="2.21653">
        <ele>247</ele>
        <time>2021-02-25T15:10:10.815Z</time>
      </trkpt>
      <trkpt lat="43.95997" lon="2.21653">
        <ele>247</ele>
        <time>2021-02-25T15:11:00.823Z</time>
      </trkpt>
      <trkpt lat="43.95998" lon="2.21653">
        <ele>247</ele>
        <time>2021-02-25T15:11:01.823Z</time>
      </trkpt>
      <trkpt lat="43.95998" lon="2.21653">
        <ele>247</ele>
        <time>2021-02-25T15:11:02.823Z</time>
      </trkpt>
      <trkpt lat="43.95999" lon="2.21653">
        <ele>247</ele>
        <time>2021-02-25T15:11:07.833Z</time>
      </trkpt>
      <trkpt lat="43.95999" lon="2.21652">
        <ele>247</ele>
        <time>2021-02-25T15:11:08.833Z</time>
      </trkpt>
      <trkpt lat="43.96" lon="2.21651">
        <ele>247</ele>
        <time>2021-02-25T15:11:09.833Z</time>
      </trkpt>
      <trkpt lat="43.96001" lon="2.21651">
        <ele>247</ele>
        <time>2021-02-25T15:11:10.833Z</time>
      </trkpt>
      <trkpt lat="43.96001" lon="2.2165">
        <ele>247</ele>
        <time>2021-02-25T15:11:11.833Z</time>
      </trkpt>
      <trkpt lat="43.96002" lon="2.21649">
        <ele>247</ele>
        <time>2021-02-25T15:11:22.840Z</time>
      </trkpt>
      <trkpt lat="43.96002" lon="2.21649">
        <ele>247</ele>
        <time>2021-02-25T15:11:23.840Z</time>
      </trkpt>
      <trkpt lat="43.96003" lon="2.21649">
        <ele>247</ele>
        <time>2021-02-25T15:11:24.840Z</time>
      </trkpt>
      <trkpt lat="43.96004" lon="2.21648">
        <ele>247</ele>
        <time>2021-02-25T15:11:25.840Z</time>
      </trkpt>
      <trkpt lat="43.96004" lon="2.21648">
        <ele>247</ele>
        <time>2021-02-25T15:11:26.840Z</time>
      </trkpt>
      <trkpt lat="43.96005" lon="2.21648">
        <ele>247</ele>
        <time>2021-02-25T15:11:27.840Z</time>
      </trkpt>
      <trkpt lat="43.96005" lon="2.21648">
        <ele>247</ele>
        <time>2021-02-25T15:11:28.840Z</time>
      </trkpt>
      <trkpt lat="43.96005" lon="2.21648">
        <ele>247</ele>
        <time>2021-02-25T15:11:29.840Z</time>
      </trkpt>
      <trkpt lat="43.96005" lon="2.21648">
        <ele>247</ele>
        <time>2021-02-25T15:11:30.840Z</time>
      </trkpt>
      <trkpt lat="43.96008" lon="2.21643">
        <ele>249</ele>
        <time>2021-02-25T15:11:37.848Z</time>
      </trkpt>
      <trkpt lat="43.96008" lon="2.21643">
        <ele>249</ele>
        <time>2021-02-25T15:11:38.848Z</time>
      </trkpt>
      <trkpt lat="43.9601" lon="2.21642">
        <ele>249</ele>
        <time>2021-02-25T15:11:39.848Z</time>
      </trkpt>
      <trkpt lat="43.96011" lon="2.21642">
        <ele>249</ele>
        <time>2021-02-25T15:11:40.848Z</time>
      </trkpt>
      <trkpt lat="43.96012" lon="2.21641">
        <ele>249</ele>
        <time>2021-02-25T15:11:41.848Z</time>
      </trkpt>
      <trkpt lat="43.96012" lon="2.21641">
        <ele>249</ele>
        <time>2021-02-25T15:11:42.848Z</time>
      </trkpt>
      <trkpt lat="43.96013" lon="2.2164">
        <ele>249</ele>
        <time>2021-02-25T15:11:43.848Z</time>
      </trkpt>
      <trkpt lat="43.96014" lon="2.2164">
        <ele>249</ele>
        <time>2021-02-25T15:11:44.848Z</time>
      </trkpt>
      <trkpt lat="43.96014" lon="2.21639">
        <ele>249</ele>
        <time>2021-02-25T15:11:45.848Z</time>
      </trkpt>
      <trkpt lat="43.96014" lon="2.21639">
        <ele>249</ele>
        <time>2021-02-25T15:11:46.848Z</time>
      </trkpt>
      <trkpt lat="43.96015" lon="2.21639">
        <ele>249</ele>
        <time>2021-02-25T15:11:47.848Z</time>
      </trkpt>
      <trkpt lat="43.96015" lon="2.21639">
        <ele>249</ele>
        <time>2021-02-25T15:11:48.848Z</time>
      </trkpt>
      <trkpt lat="43.96015" lon="2.21639">
        <ele>249</ele>
        <time>2021-02-25T15:11:49.848Z</time>
      </trkpt>
      <trkpt lat="43.96015" lon="2.21637">
        <ele>249</ele>
        <time>2021-02-25T15:11:50.848Z</time>
      </trkpt>
      <trkpt lat="43.96015" lon="2.21637">
        <ele>249</ele>
        <time>2021-02-25T15:11:51.848Z</time>
      </trkpt>
      <trkpt lat="43.96015" lon="2.21636">
        <ele>249</ele>
        <time>2021-02-25T15:11:52.848Z</time>
      </trkpt>
      <trkpt lat="43.96015" lon="2.21636">
        <ele>249</ele>
        <time>2021-02-25T15:11:53.848Z</time>
      </trkpt>
      <trkpt lat="43.96015" lon="2.21634">
        <ele>250</ele>
        <time>2021-02-25T15:11:54.848Z</time>
      </trkpt>
      <trkpt lat="43.96015" lon="2.21634">
        <ele>250</ele>
        <time>2021-02-25T15:11:55.848Z</time>
      </trkpt>
      <trkpt lat="43.96016" lon="2.21633">
        <ele>250</ele>
        <time>2021-02-25T15:11:56.848Z</time>
      </trkpt>
      <trkpt lat="43.96016" lon="2.21633">
        <ele>250</ele>
        <time>2021-02-25T15:11:57.848Z</time>
      </trkpt>
      <trkpt lat="43.96016" lon="2.21633">
        <ele>250</ele>
        <time>2021-02-25T15:11:58.848Z</time>
      </trkpt>
      <trkpt lat="43.96015" lon="2.21632">
        <ele>250</ele>
        <time>2021-02-25T15:11:59.848Z</time>
      </trkpt>
      <trkpt lat="43.96015" lon="2.21631">
        <ele>250</ele>
        <time>2021-02-25T15:12:03.091Z</time>
      </trkpt>
      <trkpt lat="43.96015" lon="2.21631">
        <ele>250</ele>
        <time>2021-02-25T15:12:04.091Z</time>
      </trkpt>
      <trkpt lat="43.96015" lon="2.2163">
        <ele>250</ele>
        <time>2021-02-25T15:12:05.091Z</time>
      </trkpt>
      <trkpt lat="43.96015" lon="2.2163">
        <ele>250</ele>
        <time>2021-02-25T15:12:06.091Z</time>
      </trkpt>
      <trkpt lat="43.96015" lon="2.2163">
        <ele>250</ele>
        <time>2021-02-25T15:12:07.091Z</time>
      </trkpt>
      <trkpt lat="43.96014" lon="2.21629">
        <ele>250</ele>
        <time>2021-02-25T15:12:08.091Z</time>
      </trkpt>
      <trkpt lat="43.96014" lon="2.21628">
        <ele>250</ele>
        <time>2021-02-25T15:12:09.091Z</time>
      </trkpt>
      <trkpt lat="43.96014" lon="2.21628">
        <ele>250</ele>
        <time>2021-02-25T15:12:10.091Z</time>
      </trkpt>
      <trkpt lat="43.96014" lon="2.21629">
        <ele>251</ele>
        <time>2021-02-25T15:12:11.091Z</time>
      </trkpt>
      <trkpt lat="43.96014" lon="2.2163">
        <ele>251</ele>
        <time>2021-02-25T15:12:12.091Z</time>
      </trkpt>
      <trkpt lat="43.96014" lon="2.21631">
        <ele>251</ele>
        <time>2021-02-25T15:12:13.091Z</time>
      </trkpt>
      <trkpt lat="43.96014" lon="2.21632">
        <ele>251</ele>
        <time>2021-02-25T15:12:14.091Z</time>
      </trkpt>
      <trkpt lat="43.96015" lon="2.21632">
        <ele>251</ele>
        <time>2021-02-25T15:12:15.091Z</time>
      </trkpt>
      <trkpt lat="43.96011" lon="2.21632">
        <ele>249</ele>
        <time>2021-02-25T15:12:16.091Z</time>
      </trkpt>
      <trkpt lat="43.96011" lon="2.21632">
        <ele>249</ele>
        <time>2021-02-25T15:12:17.091Z</time>
      </trkpt>
      <trkpt lat="43.96011" lon="2.21633">
        <ele>249</ele>
        <time>2021-02-25T15:12:18.091Z</time>
      </trkpt>
      <trkpt lat="43.9601" lon="2.21634">
        <ele>249</ele>
        <time>2021-02-25T15:12:19.091Z</time>
      </trkpt>
      <trkpt lat="43.9601" lon="2.21634">
        <ele>249</ele>
        <time>2021-02-25T15:12:20.091Z</time>
      </trkpt>
      <trkpt lat="43.9601" lon="2.21636">
        <ele>249</ele>
        <time>2021-02-25T15:12:21.091Z</time>
      </trkpt>
      <trkpt lat="43.96011" lon="2.21636">
        <ele>249</ele>
        <time>2021-02-25T15:12:22.091Z</time>
      </trkpt>
      <trkpt lat="43.96011" lon="2.21637">
        <ele>249</ele>
        <time>2021-02-25T15:12:23.091Z</time>
      </trkpt>
      <trkpt lat="43.96011" lon="2.21637">
        <ele>249</ele>
        <time>2021-02-25T15:12:24.091Z</time>
      </trkpt>
      <trkpt lat="43.96011" lon="2.21637">
        <ele>249</ele>
        <time>2021-02-25T15:12:25.091Z</time>
      </trkpt>
      <trkpt lat="43.96011" lon="2.21638">
        <ele>249</ele>
        <time>2021-02-25T15:12:26.091Z</time>
      </trkpt>
      <trkpt lat="43.9601" lon="2.21639">
        <ele>249</ele>
        <time>2021-02-25T15:12:27.091Z</time>
      </trkpt>
      <trkpt lat="43.9601" lon="2.21639">
        <ele>249</ele>
        <time>2021-02-25T15:12:28.091Z</time>
      </trkpt>
      <trkpt lat="43.96009" lon="2.2164">
        <ele>249</ele>
        <time>2021-02-25T15:12:29.091Z</time>
      </trkpt>
      <trkpt lat="43.96009" lon="2.2164">
        <ele>249</ele>
        <time>2021-02-25T15:12:30.091Z</time>
      </trkpt>
      <trkpt lat="43.96009" lon="2.2164">
        <ele>249</ele>
        <time>2021-02-25T15:12:31.091Z</time>
      </trkpt>
      <trkpt lat="43.96008" lon="2.21642">
        <ele>249</ele>
        <time>2021-02-25T15:12:32.091Z</time>
      </trkpt>
      <trkpt lat="43.96008" lon="2.21643">
        <ele>249</ele>
        <time>2021-02-25T15:12:33.091Z</time>
      </trkpt>
      <trkpt lat="43.96007" lon="2.21644">
        <ele>249</ele>
        <time>2021-02-25T15:12:34.091Z</time>
      </trkpt>
      <trkpt lat="43.96007" lon="2.21644">
        <ele>249</ele>
        <time>2021-02-25T15:12:35.091Z</time>
      </trkpt>
      <trkpt lat="43.96007" lon="2.21645">
        <ele>249</ele>
        <time>2021-02-25T15:12:36.091Z</time>
      </trkpt>
      <trkpt lat="43.96006" lon="2.21645">
        <ele>249</ele>
        <time>2021-02-25T15:12:37.091Z</time>
      </trkpt>
      <trkpt lat="43.96005" lon="2.21646">
        <ele>249</ele>
        <time>2021-02-25T15:12:38.091Z</time>
      </trkpt>
      <trkpt lat="43.96004" lon="2.21646">
        <ele>249</ele>
        <time>2021-02-25T15:12:39.091Z</time>
      </trkpt>
      <trkpt lat="43.96003" lon="2.21647">
        <ele>249</ele>
        <time>2021-02-25T15:12:40.091Z</time>
      </trkpt>
      <trkpt lat="43.96002" lon="2.21647">
        <ele>249</ele>
        <time>2021-02-25T15:12:41.091Z</time>
      </trkpt>
      <trkpt lat="43.96001" lon="2.21647">
        <ele>249</ele>
        <time>2021-02-25T15:12:42.091Z</time>
      </trkpt>
      <trkpt lat="43.96001" lon="2.21647">
        <ele>249</ele>
        <time>2021-02-25T15:12:43.091Z</time>
      </trkpt>
      <trkpt lat="43.96001" lon="2.21647">
        <ele>249</ele>
        <time>2021-02-25T15:12:44.091Z</time>
      </trkpt>
      <trkpt lat="43.96001" lon="2.21646">
        <ele>249</ele>
        <time>2021-02-25T15:12:45.091Z</time>
      </trkpt>
      <trkpt lat="43.96" lon="2.21646">
        <ele>249</ele>
        <time>2021-02-25T15:12:46.091Z</time>
      </trkpt>
      <trkpt lat="43.95996" lon="2.21646">
        <ele>249</ele>
        <time>2021-02-25T15:12:47.091Z</time>
      </trkpt>
      <trkpt lat="43.95995" lon="2.21647">
        <ele>249</ele>
        <time>2021-02-25T15:12:48.091Z</time>
      </trkpt>
      <trkpt lat="43.95995" lon="2.21647">
        <ele>249</ele>
        <time>2021-02-25T15:12:49.091Z</time>
      </trkpt>
      <trkpt lat="43.95995" lon="2.21646">
        <ele>249</ele>
        <time>2021-02-25T15:12:50.091Z</time>
      </trkpt>
      <trkpt lat="43.95995" lon="2.21646">
        <ele>249</ele>
        <time>2021-02-25T15:12:51.091Z</time>
      </trkpt>
      <trkpt lat="43.95994" lon="2.21646">
        <ele>249</ele>
        <time>2021-02-25T15:12:52.091Z</time>
      </trkpt>
      <trkpt lat="43.95994" lon="2.21647">
        <ele>249</ele>
        <time>2021-02-25T15:12:53.091Z</time>
      </trkpt>
      <trkpt lat="43.95994" lon="2.21648">
        <ele>249</ele>
        <time>2021-02-25T15:12:54.091Z</time>
      </trkpt>
      <trkpt lat="43.95993" lon="2.21648">
        <ele>249</ele>
        <time>2021-02-25T15:12:55.091Z</time>
      </trkpt>
      <trkpt lat="43.95993" lon="2.21648">
        <ele>249</ele>
        <time>2021-02-25T15:12:56.091Z</time>
      </trkpt>
      <trkpt lat="43.95993" lon="2.21648">
        <ele>249</ele>
        <time>2021-02-25T15:12:57.091Z</time>
      </trkpt>
      <trkpt lat="43.95993" lon="2.21648">
        <ele>249</ele>
        <time>2021-02-25T15:13:30.106Z</time>
      </trkpt>
      <trkpt lat="43.95992" lon="2.21648">
        <ele>249</ele>
        <time>2021-02-25T15:13:31.106Z</time>
      </trkpt>
      <trkpt lat="43.95991" lon="2.21649">
        <ele>249</ele>
        <time>2021-02-25T15:13:32.106Z</time>
      </trkpt>
      <trkpt lat="43.9599" lon="2.21649">
        <ele>249</ele>
        <time>2021-02-25T15:13:33.106Z</time>
      </trkpt>
      <trkpt lat="43.95989" lon="2.21649">
        <ele>249</ele>
        <time>2021-02-25T15:13:34.106Z</time>
      </trkpt>
      <trkpt lat="43.95988" lon="2.2165">
        <ele>249</ele>
        <time>2021-02-25T15:13:35.106Z</time>
      </trkpt>
      <trkpt lat="43.95987" lon="2.21651">
        <ele>250</ele>
        <time>2021-02-25T15:13:36.106Z</time>
      </trkpt>
      <trkpt lat="43.95986" lon="2.21651">
        <ele>250</ele>
        <time>2021-02-25T15:13:37.106Z</time>
      </trkpt>
      <trkpt lat="43.95985" lon="2.21651">
        <ele>250</ele>
        <time>2021-02-25T15:13:38.106Z</time>
      </trkpt>
      <trkpt lat="43.95984" lon="2.21652">
        <ele>250</ele>
        <time>2021-02-25T15:13:39.106Z</time>
      </trkpt>
      <trkpt lat="43.95982" lon="2.21651">
        <ele>250</ele>
        <time>2021-02-25T15:13:40.106Z</time>
      </trkpt>
      <trkpt lat="43.95981" lon="2.21651">
        <ele>250</ele>
        <time>2021-02-25T15:13:41.106Z</time>
      </trkpt>
      <trkpt lat="43.9598" lon="2.2165">
        <ele>249</ele>
        <time>2021-02-25T15:13:42.106Z</time>
      </trkpt>
      <trkpt lat="43.95979" lon="2.2165">
        <ele>249</ele>
        <time>2021-02-25T15:13:43.106Z</time>
      </trkpt>
      <trkpt lat="43.95978" lon="2.2165">
        <ele>249</ele>
        <time>2021-02-25T15:13:56.115Z</time>
      </trkpt>
      <trkpt lat="43.95978" lon="2.2165">
        <ele>249</ele>
        <time>2021-02-25T15:13:57.115Z</time>
      </trkpt>
      <trkpt lat="43.95978" lon="2.2165">
        <ele>249</ele>
        <time>2021-02-25T15:13:58.115Z</time>
      </trkpt>
      <trkpt lat="43.95977" lon="2.2165">
        <ele>249</ele>
        <time>2021-02-25T15:13:59.115Z</time>
      </trkpt>
      <trkpt lat="43.95974" lon="2.21648">
        <ele>249</ele>
        <time>2021-02-25T15:14:00.115Z</time>
      </trkpt>
      <trkpt lat="43.95973" lon="2.21648">
        <ele>249</ele>
        <time>2021-02-25T15:14:01.115Z</time>
      </trkpt>
      <trkpt lat="43.95973" lon="2.21647">
        <ele>249</ele>
        <time>2021-02-25T15:14:38.130Z</time>
      </trkpt>
      <trkpt lat="43.95972" lon="2.21647">
        <ele>249</ele>
        <time>2021-02-25T15:14:39.130Z</time>
      </trkpt>
      <trkpt lat="43.95972" lon="2.21646">
        <ele>249</ele>
        <time>2021-02-25T15:14:40.130Z</time>
      </trkpt>
      <trkpt lat="43.95971" lon="2.21646">
        <ele>249</ele>
        <time>2021-02-25T15:14:41.130Z</time>
      </trkpt>
      <trkpt lat="43.95971" lon="2.21646">
        <ele>248</ele>
        <time>2021-02-25T15:14:42.130Z</time>
      </trkpt>
      <trkpt lat="43.95968" lon="2.21646">
        <ele>248</ele>
        <time>2021-02-25T15:14:43.130Z</time>
      </trkpt>
      <trkpt lat="43.95968" lon="2.21645">
        <ele>248</ele>
        <time>2021-02-25T15:14:44.130Z</time>
      </trkpt>
      <trkpt lat="43.95962" lon="2.21643">
        <ele>247</ele>
        <time>2021-02-25T15:14:45.130Z</time>
      </trkpt>
      <trkpt lat="43.95961" lon="2.21642">
        <ele>247</ele>
        <time>2021-02-25T15:14:46.130Z</time>
      </trkpt>
      <trkpt lat="43.9596" lon="2.21641">
        <ele>246</ele>
        <time>2021-02-25T15:15:09.141Z</time>
      </trkpt>
      <trkpt lat="43.95959" lon="2.2164">
        <ele>246</ele>
        <time>2021-02-25T15:15:10.141Z</time>
      </trkpt>
      <trkpt lat="43.95959" lon="2.2164">
        <ele>246</ele>
        <time>2021-02-25T15:15:11.141Z</time>
      </trkpt>
      <trkpt lat="43.95958" lon="2.2164">
        <ele>246</ele>
        <time>2021-02-25T15:15:12.141Z</time>
      </trkpt>
      <trkpt lat="43.95958" lon="2.21639">
        <ele>246</ele>
        <time>2021-02-25T15:15:13.141Z</time>
      </trkpt>
      <trkpt lat="43.95958" lon="2.21639">
        <ele>246</ele>
        <time>2021-02-25T15:15:14.141Z</time>
      </trkpt>
      <trkpt lat="43.95958" lon="2.21639">
        <ele>246</ele>
        <time>2021-02-25T15:15:15.141Z</time>
      </trkpt>
      <trkpt lat="43.95957" lon="2.21639">
        <ele>246</ele>
        <time>2021-02-25T15:15:16.141Z</time>
      </trkpt>
      <trkpt lat="43.95956" lon="2.2164">
        <ele>246</ele>
        <time>2021-02-25T15:15:17.141Z</time>
      </trkpt>
      <trkpt lat="43.95955" lon="2.2164">
        <ele>246</ele>
        <time>2021-02-25T15:15:18.141Z</time>
      </trkpt>
      <trkpt lat="43.95954" lon="2.21641">
        <ele>246</ele>
        <time>2021-02-25T15:15:19.141Z</time>
      </trkpt>
      <trkpt lat="43.95953" lon="2.21642">
        <ele>246</ele>
        <time>2021-02-25T15:15:20.141Z</time>
      </trkpt>
      <trkpt lat="43.95952" lon="2.21643">
        <ele>246</ele>
        <time>2021-02-25T15:15:21.141Z</time>
      </trkpt>
      <trkpt lat="43.95952" lon="2.21644">
        <ele>246</ele>
        <time>2021-02-25T15:15:22.141Z</time>
      </trkpt>
      <trkpt lat="43.95951" lon="2.21645">
        <ele>246</ele>
        <time>2021-02-25T15:15:23.141Z</time>
      </trkpt>
      <trkpt lat="43.9595" lon="2.21646">
        <ele>246</ele>
        <time>2021-02-25T15:15:24.141Z</time>
      </trkpt>
      <trkpt lat="43.9595" lon="2.21648">
        <ele>246</ele>
        <time>2021-02-25T15:15:25.141Z</time>
      </trkpt>
      <trkpt lat="43.95949" lon="2.21649">
        <ele>246</ele>
        <time>2021-02-25T15:15:26.141Z</time>
      </trkpt>
      <trkpt lat="43.95948" lon="2.2165">
        <ele>246</ele>
        <time>2021-02-25T15:15:27.141Z</time>
      </trkpt>
      <trkpt lat="43.95947" lon="2.21652">
        <ele>246</ele>
        <time>2021-02-25T15:15:28.141Z</time>
      </trkpt>
      <trkpt lat="43.95947" lon="2.21653">
        <ele>246</ele>
        <time>2021-02-25T15:15:29.141Z</time>
      </trkpt>
      <trkpt lat="43.95946" lon="2.21654">
        <ele>247</ele>
        <time>2021-02-25T15:15:30.141Z</time>
      </trkpt>
      <trkpt lat="43.95945" lon="2.21656">
        <ele>247</ele>
        <time>2021-02-25T15:15:31.141Z</time>
      </trkpt>
      <trkpt lat="43.95945" lon="2.21657">
        <ele>247</ele>
        <time>2021-02-25T15:15:32.141Z</time>
      </trkpt>
      <trkpt lat="43.95944" lon="2.21659">
        <ele>247</ele>
        <time>2021-02-25T15:15:33.141Z</time>
      </trkpt>
      <trkpt lat="43.95944" lon="2.2166">
        <ele>247</ele>
        <time>2021-02-25T15:15:34.141Z</time>
      </trkpt>
      <trkpt lat="43.95943" lon="2.2166">
        <ele>247</ele>
        <time>2021-02-25T15:15:35.141Z</time>
      </trkpt>
      <trkpt lat="43.95943" lon="2.2166">
        <ele>247</ele>
        <time>2021-02-25T15:15:36.141Z</time>
      </trkpt>
      <trkpt lat="43.95942" lon="2.21661">
        <ele>247</ele>
        <time>2021-02-25T15:15:37.141Z</time>
      </trkpt>
      <trkpt lat="43.95942" lon="2.21662">
        <ele>247</ele>
        <time>2021-02-25T15:15:38.141Z</time>
      </trkpt>
      <trkpt lat="43.95942" lon="2.21664">
        <ele>247</ele>
        <time>2021-02-25T15:15:39.141Z</time>
      </trkpt>
      <trkpt lat="43.95941" lon="2.21665">
        <ele>247</ele>
        <time>2021-02-25T15:15:40.141Z</time>
      </trkpt>
      <trkpt lat="43.95941" lon="2.21666">
        <ele>246</ele>
        <time>2021-02-25T15:15:41.141Z</time>
      </trkpt>
      <trkpt lat="43.95941" lon="2.21667">
        <ele>246</ele>
        <time>2021-02-25T15:15:42.141Z</time>
      </trkpt>
      <trkpt lat="43.9594" lon="2.21668">
        <ele>246</ele>
        <time>2021-02-25T15:15:43.141Z</time>
      </trkpt>
      <trkpt lat="43.9594" lon="2.21669">
        <ele>246</ele>
        <time>2021-02-25T15:15:44.141Z</time>
      </trkpt>
      <trkpt lat="43.95939" lon="2.21671">
        <ele>246</ele>
        <time>2021-02-25T15:15:45.141Z</time>
      </trkpt>
      <trkpt lat="43.95938" lon="2.21672">
        <ele>246</ele>
        <time>2021-02-25T15:15:46.141Z</time>
      </trkpt>
      <trkpt lat="43.95937" lon="2.21673">
        <ele>246</ele>
        <time>2021-02-25T15:15:47.141Z</time>
      </trkpt>
      <trkpt lat="43.95937" lon="2.21674">
        <ele>246</ele>
        <time>2021-02-25T15:15:48.141Z</time>
      </trkpt>
      <trkpt lat="43.95936" lon="2.21675">
        <ele>246</ele>
        <time>2021-02-25T15:15:49.141Z</time>
      </trkpt>
      <trkpt lat="43.95936" lon="2.21677">
        <ele>246</ele>
        <time>2021-02-25T15:15:50.141Z</time>
      </trkpt>
      <trkpt lat="43.95935" lon="2.21678">
        <ele>246</ele>
        <time>2021-02-25T15:15:51.141Z</time>
      </trkpt>
      <trkpt lat="43.95935" lon="2.21679">
        <ele>246</ele>
        <time>2021-02-25T15:15:52.141Z</time>
      </trkpt>
      <trkpt lat="43.95934" lon="2.21681">
        <ele>246</ele>
        <time>2021-02-25T15:15:53.141Z</time>
      </trkpt>
      <trkpt lat="43.95933" lon="2.21682">
        <ele>246</ele>
        <time>2021-02-25T15:15:54.141Z</time>
      </trkpt>
      <trkpt lat="43.95932" lon="2.21684">
        <ele>246</ele>
        <time>2021-02-25T15:15:55.141Z</time>
      </trkpt>
      <trkpt lat="43.95931" lon="2.21685">
        <ele>246</ele>
        <time>2021-02-25T15:15:56.141Z</time>
      </trkpt>
      <trkpt lat="43.9593" lon="2.21686">
        <ele>246</ele>
        <time>2021-02-25T15:15:57.141Z</time>
      </trkpt>
      <trkpt lat="43.95929" lon="2.21687">
        <ele>246</ele>
        <time>2021-02-25T15:15:58.141Z</time>
      </trkpt>
      <trkpt lat="43.95928" lon="2.21689">
        <ele>246</ele>
        <time>2021-02-25T15:15:59.141Z</time>
      </trkpt>
      <trkpt lat="43.95927" lon="2.2169">
        <ele>247</ele>
        <time>2021-02-25T15:16:00.141Z</time>
      </trkpt>
      <trkpt lat="43.95927" lon="2.21691">
        <ele>247</ele>
        <time>2021-02-25T15:16:01.141Z</time>
      </trkpt>
      <trkpt lat="43.95926" lon="2.21693">
        <ele>247</ele>
        <time>2021-02-25T15:16:02.141Z</time>
      </trkpt>
      <trkpt lat="43.95925" lon="2.21694">
        <ele>247</ele>
        <time>2021-02-25T15:16:03.141Z</time>
      </trkpt>
      <trkpt lat="43.95924" lon="2.21696">
        <ele>247</ele>
        <time>2021-02-25T15:16:04.141Z</time>
      </trkpt>
      <trkpt lat="43.95923" lon="2.21697">
        <ele>247</ele>
        <time>2021-02-25T15:16:05.141Z</time>
      </trkpt>
      <trkpt lat="43.95922" lon="2.21698">
        <ele>247</ele>
        <time>2021-02-25T15:16:06.141Z</time>
      </trkpt>
      <trkpt lat="43.95921" lon="2.217">
        <ele>247</ele>
        <time>2021-02-25T15:16:07.141Z</time>
      </trkpt>
      <trkpt lat="43.95921" lon="2.21701">
        <ele>247</ele>
        <time>2021-02-25T15:16:08.141Z</time>
      </trkpt>
      <trkpt lat="43.9592" lon="2.21702">
        <ele>247</ele>
        <time>2021-02-25T15:16:09.141Z</time>
      </trkpt>
      <trkpt lat="43.95919" lon="2.21703">
        <ele>247</ele>
        <time>2021-02-25T15:16:10.141Z</time>
      </trkpt>
      <trkpt lat="43.95918" lon="2.21705">
        <ele>247</ele>
        <time>2021-02-25T15:16:11.141Z</time>
      </trkpt>
      <trkpt lat="43.95917" lon="2.21706">
        <ele>247</ele>
        <time>2021-02-25T15:16:12.141Z</time>
      </trkpt>
      <trkpt lat="43.95916" lon="2.21708">
        <ele>247</ele>
        <time>2021-02-25T15:16:13.141Z</time>
      </trkpt>
      <trkpt lat="43.95916" lon="2.21709">
        <ele>247</ele>
        <time>2021-02-25T15:16:14.141Z</time>
      </trkpt>
      <trkpt lat="43.95915" lon="2.2171">
        <ele>247</ele>
        <time>2021-02-25T15:16:15.141Z</time>
      </trkpt>
      <trkpt lat="43.95914" lon="2.21712">
        <ele>247</ele>
        <time>2021-02-25T15:16:16.141Z</time>
      </trkpt>
      <trkpt lat="43.95913" lon="2.21713">
        <ele>247</ele>
        <time>2021-02-25T15:16:17.141Z</time>
      </trkpt>
      <trkpt lat="43.95912" lon="2.21714">
        <ele>247</ele>
        <time>2021-02-25T15:16:18.141Z</time>
      </trkpt>
      <trkpt lat="43.95911" lon="2.21715">
        <ele>247</ele>
        <time>2021-02-25T15:16:19.141Z</time>
      </trkpt>
      <trkpt lat="43.9591" lon="2.21716">
        <ele>247</ele>
        <time>2021-02-25T15:16:20.141Z</time>
      </trkpt>
      <trkpt lat="43.9591" lon="2.21718">
        <ele>247</ele>
        <time>2021-02-25T15:16:21.141Z</time>
      </trkpt>
      <trkpt lat="43.95909" lon="2.21719">
        <ele>247</ele>
        <time>2021-02-25T15:16:22.141Z</time>
      </trkpt>
      <trkpt lat="43.95908" lon="2.2172">
        <ele>247</ele>
        <time>2021-02-25T15:16:23.141Z</time>
      </trkpt>
      <trkpt lat="43.95907" lon="2.21722">
        <ele>247</ele>
        <time>2021-02-25T15:16:24.141Z</time>
      </trkpt>
      <trkpt lat="43.95906" lon="2.21723">
        <ele>247</ele>
        <time>2021-02-25T15:16:25.141Z</time>
      </trkpt>
      <trkpt lat="43.95905" lon="2.21725">
        <ele>247</ele>
        <time>2021-02-25T15:16:26.141Z</time>
      </trkpt>
      <trkpt lat="43.95905" lon="2.21726">
        <ele>247</ele>
        <time>2021-02-25T15:16:27.141Z</time>
      </trkpt>
      <trkpt lat="43.95904" lon="2.21727">
        <ele>247</ele>
        <time>2021-02-25T15:16:28.141Z</time>
      </trkpt>
      <trkpt lat="43.95903" lon="2.21728">
        <ele>247</ele>
        <time>2021-02-25T15:16:29.141Z</time>
      </trkpt>
      <trkpt lat="43.95902" lon="2.2173">
        <ele>246</ele>
        <time>2021-02-25T15:16:30.141Z</time>
      </trkpt>
      <trkpt lat="43.95901" lon="2.21731">
        <ele>246</ele>
        <time>2021-02-25T15:16:31.141Z</time>
      </trkpt>
      <trkpt lat="43.95901" lon="2.21732">
        <ele>246</ele>
        <time>2021-02-25T15:16:32.141Z</time>
      </trkpt>
      <trkpt lat="43.959" lon="2.21734">
        <ele>246</ele>
        <time>2021-02-25T15:16:33.141Z</time>
      </trkpt>
      <trkpt lat="43.95899" lon="2.21735">
        <ele>246</ele>
        <time>2021-02-25T15:16:34.141Z</time>
      </trkpt>
      <trkpt lat="43.95899" lon="2.21736">
        <ele>246</ele>
        <time>2021-02-25T15:16:35.141Z</time>
      </trkpt>
      <trkpt lat="43.95898" lon="2.21737">
        <ele>246</ele>
        <time>2021-02-25T15:16:36.141Z</time>
      </trkpt>
      <trkpt lat="43.95897" lon="2.21738">
        <ele>246</ele>
        <time>2021-02-25T15:16:37.141Z</time>
      </trkpt>
      <trkpt lat="43.95896" lon="2.2174">
        <ele>247</ele>
        <time>2021-02-25T15:16:38.141Z</time>
      </trkpt>
      <trkpt lat="43.95896" lon="2.21741">
        <ele>247</ele>
        <time>2021-02-25T15:16:39.141Z</time>
      </trkpt>
      <trkpt lat="43.95895" lon="2.21743">
        <ele>247</ele>
        <time>2021-02-25T15:16:40.141Z</time>
      </trkpt>
      <trkpt lat="43.95894" lon="2.21744">
        <ele>247</ele>
        <time>2021-02-25T15:16:41.141Z</time>
      </trkpt>
      <trkpt lat="43.95893" lon="2.21745">
        <ele>247</ele>
        <time>2021-02-25T15:16:42.141Z</time>
      </trkpt>
      <trkpt lat="43.95892" lon="2.21746">
        <ele>247</ele>
        <time>2021-02-25T15:16:43.141Z</time>
      </trkpt>
      <trkpt lat="43.95891" lon="2.21748">
        <ele>247</ele>
        <time>2021-02-25T15:16:44.141Z</time>
      </trkpt>
      <trkpt lat="43.9589" lon="2.21749">
        <ele>247</ele>
        <time>2021-02-25T15:16:45.141Z</time>
      </trkpt>
      <trkpt lat="43.95889" lon="2.2175">
        <ele>247</ele>
        <time>2021-02-25T15:16:46.141Z</time>
      </trkpt>
      <trkpt lat="43.95889" lon="2.21751">
        <ele>247</ele>
        <time>2021-02-25T15:16:47.141Z</time>
      </trkpt>
      <trkpt lat="43.95888" lon="2.21753">
        <ele>247</ele>
        <time>2021-02-25T15:16:48.141Z</time>
      </trkpt>
      <trkpt lat="43.95887" lon="2.21754">
        <ele>246</ele>
        <time>2021-02-25T15:16:49.141Z</time>
      </trkpt>
      <trkpt lat="43.95886" lon="2.21755">
        <ele>246</ele>
        <time>2021-02-25T15:16:50.141Z</time>
      </trkpt>
      <trkpt lat="43.95885" lon="2.21757">
        <ele>246</ele>
        <time>2021-02-25T15:16:51.141Z</time>
      </trkpt>
      <trkpt lat="43.95884" lon="2.21758">
        <ele>246</ele>
        <time>2021-02-25T15:16:52.141Z</time>
      </trkpt>
      <trkpt lat="43.95883" lon="2.21759">
        <ele>246</ele>
        <time>2021-02-25T15:16:53.141Z</time>
      </trkpt>
      <trkpt lat="43.95882" lon="2.21761">
        <ele>246</ele>
        <time>2021-02-25T15:16:54.141Z</time>
      </trkpt>
      <trkpt lat="43.95882" lon="2.21762">
        <ele>246</ele>
        <time>2021-02-25T15:16:55.141Z</time>
      </trkpt>
      <trkpt lat="43.95881" lon="2.21763">
        <ele>246</ele>
        <time>2021-02-25T15:16:56.141Z</time>
      </trkpt>
      <trkpt lat="43.9588" lon="2.21765">
        <ele>246</ele>
        <time>2021-02-25T15:16:57.141Z</time>
      </trkpt>
      <trkpt lat="43.95879" lon="2.21766">
        <ele>246</ele>
        <time>2021-02-25T15:16:58.141Z</time>
      </trkpt>
      <trkpt lat="43.95878" lon="2.21768">
        <ele>246</ele>
        <time>2021-02-25T15:16:59.141Z</time>
      </trkpt>
      <trkpt lat="43.95877" lon="2.21769">
        <ele>246</ele>
        <time>2021-02-25T15:17:00.141Z</time>
      </trkpt>
      <trkpt lat="43.95876" lon="2.2177">
        <ele>246</ele>
        <time>2021-02-25T15:17:01.141Z</time>
      </trkpt>
      <trkpt lat="43.95876" lon="2.21772">
        <ele>245</ele>
        <time>2021-02-25T15:17:02.141Z</time>
      </trkpt>
      <trkpt lat="43.95875" lon="2.21773">
        <ele>245</ele>
        <time>2021-02-25T15:17:03.141Z</time>
      </trkpt>
      <trkpt lat="43.95874" lon="2.21774">
        <ele>245</ele>
        <time>2021-02-25T15:17:04.141Z</time>
      </trkpt>
      <trkpt lat="43.95873" lon="2.21776">
        <ele>245</ele>
        <time>2021-02-25T15:17:05.141Z</time>
      </trkpt>
      <trkpt lat="43.95873" lon="2.21777">
        <ele>245</ele>
        <time>2021-02-25T15:17:06.141Z</time>
      </trkpt>
      <trkpt lat="43.95872" lon="2.21779">
        <ele>245</ele>
        <time>2021-02-25T15:17:07.141Z</time>
      </trkpt>
      <trkpt lat="43.95871" lon="2.2178">
        <ele>245</ele>
        <time>2021-02-25T15:17:08.141Z</time>
      </trkpt>
      <trkpt lat="43.95871" lon="2.21781">
        <ele>245</ele>
        <time>2021-02-25T15:17:09.141Z</time>
      </trkpt>
      <trkpt lat="43.9587" lon="2.21782">
        <ele>245</ele>
        <time>2021-02-25T15:17:10.141Z</time>
      </trkpt>
      <trkpt lat="43.95869" lon="2.21784">
        <ele>245</ele>
        <time>2021-02-25T15:17:11.141Z</time>
      </trkpt>
      <trkpt lat="43.95869" lon="2.21784">
        <ele>245</ele>
        <time>2021-02-25T15:17:12.141Z</time>
      </trkpt>
      <trkpt lat="43.95869" lon="2.21784">
        <ele>245</ele>
        <time>2021-02-25T15:17:13.141Z</time>
      </trkpt>
      <trkpt lat="43.95868" lon="2.21785">
        <ele>245</ele>
        <time>2021-02-25T15:17:14.141Z</time>
      </trkpt>
      <trkpt lat="43.95867" lon="2.21787">
        <ele>245</ele>
        <time>2021-02-25T15:17:15.141Z</time>
      </trkpt>
      <trkpt lat="43.95866" lon="2.21788">
        <ele>245</ele>
        <time>2021-02-25T15:17:16.141Z</time>
      </trkpt>
      <trkpt lat="43.95865" lon="2.21789">
        <ele>245</ele>
        <time>2021-02-25T15:17:17.141Z</time>
      </trkpt>
      <trkpt lat="43.95865" lon="2.21791">
        <ele>245</ele>
        <time>2021-02-25T15:17:18.141Z</time>
      </trkpt>
      <trkpt lat="43.95864" lon="2.21792">
        <ele>245</ele>
        <time>2021-02-25T15:17:19.141Z</time>
      </trkpt>
      <trkpt lat="43.95863" lon="2.21793">
        <ele>245</ele>
        <time>2021-02-25T15:17:20.141Z</time>
      </trkpt>
      <trkpt lat="43.95862" lon="2.21794">
        <ele>245</ele>
        <time>2021-02-25T15:17:21.141Z</time>
      </trkpt>
      <trkpt lat="43.95861" lon="2.21795">
        <ele>245</ele>
        <time>2021-02-25T15:17:22.141Z</time>
      </trkpt>
      <trkpt lat="43.9586" lon="2.21797">
        <ele>245</ele>
        <time>2021-02-25T15:17:23.141Z</time>
      </trkpt>
      <trkpt lat="43.95859" lon="2.21798">
        <ele>245</ele>
        <time>2021-02-25T15:17:24.141Z</time>
      </trkpt>
      <trkpt lat="43.95858" lon="2.218">
        <ele>245</ele>
        <time>2021-02-25T15:17:25.141Z</time>
      </trkpt>
      <trkpt lat="43.95858" lon="2.21801">
        <ele>244</ele>
        <time>2021-02-25T15:17:26.141Z</time>
      </trkpt>
      <trkpt lat="43.95857" lon="2.21802">
        <ele>244</ele>
        <time>2021-02-25T15:17:27.141Z</time>
      </trkpt>
      <trkpt lat="43.95856" lon="2.21803">
        <ele>244</ele>
        <time>2021-02-25T15:17:28.141Z</time>
      </trkpt>
      <trkpt lat="43.95855" lon="2.21805">
        <ele>244</ele>
        <time>2021-02-25T15:17:29.141Z</time>
      </trkpt>
      <trkpt lat="43.95854" lon="2.21806">
        <ele>244</ele>
        <time>2021-02-25T15:17:30.141Z</time>
      </trkpt>
      <trkpt lat="43.95853" lon="2.21807">
        <ele>244</ele>
        <time>2021-02-25T15:17:31.141Z</time>
      </trkpt>
      <trkpt lat="43.95853" lon="2.21809">
        <ele>244</ele>
        <time>2021-02-25T15:17:32.141Z</time>
      </trkpt>
      <trkpt lat="43.95852" lon="2.2181">
        <ele>244</ele>
        <time>2021-02-25T15:17:33.141Z</time>
      </trkpt>
      <trkpt lat="43.95851" lon="2.21812">
        <ele>244</ele>
        <time>2021-02-25T15:17:34.141Z</time>
      </trkpt>
      <trkpt lat="43.9585" lon="2.21813">
        <ele>244</ele>
        <time>2021-02-25T15:17:35.141Z</time>
      </trkpt>
      <trkpt lat="43.95849" lon="2.21814">
        <ele>243</ele>
        <time>2021-02-25T15:17:36.141Z</time>
      </trkpt>
      <trkpt lat="43.95848" lon="2.21815">
        <ele>243</ele>
        <time>2021-02-25T15:17:37.141Z</time>
      </trkpt>
      <trkpt lat="43.95848" lon="2.21817">
        <ele>243</ele>
        <time>2021-02-25T15:17:38.141Z</time>
      </trkpt>
      <trkpt lat="43.95847" lon="2.21818">
        <ele>243</ele>
        <time>2021-02-25T15:17:39.141Z</time>
      </trkpt>
      <trkpt lat="43.95846" lon="2.2182">
        <ele>243</ele>
        <time>2021-02-25T15:17:40.141Z</time>
      </trkpt>
      <trkpt lat="43.95845" lon="2.21821">
        <ele>243</ele>
        <time>2021-02-25T15:17:41.141Z</time>
      </trkpt>
      <trkpt lat="43.95844" lon="2.21823">
        <ele>243</ele>
        <time>2021-02-25T15:17:42.141Z</time>
      </trkpt>
      <trkpt lat="43.95843" lon="2.21824">
        <ele>243</ele>
        <time>2021-02-25T15:17:43.141Z</time>
      </trkpt>
      <trkpt lat="43.95842" lon="2.21826">
        <ele>243</ele>
        <time>2021-02-25T15:17:44.141Z</time>
      </trkpt>
      <trkpt lat="43.95841" lon="2.21827">
        <ele>243</ele>
        <time>2021-02-25T15:17:45.141Z</time>
      </trkpt>
      <trkpt lat="43.9584" lon="2.21828">
        <ele>243</ele>
        <time>2021-02-25T15:17:46.141Z</time>
      </trkpt>
      <trkpt lat="43.95839" lon="2.2183">
        <ele>243</ele>
        <time>2021-02-25T15:17:47.141Z</time>
      </trkpt>
      <trkpt lat="43.95838" lon="2.21831">
        <ele>242</ele>
        <time>2021-02-25T15:17:48.141Z</time>
      </trkpt>
      <trkpt lat="43.95837" lon="2.21832">
        <ele>242</ele>
        <time>2021-02-25T15:17:49.141Z</time>
      </trkpt>
      <trkpt lat="43.95836" lon="2.21834">
        <ele>242</ele>
        <time>2021-02-25T15:17:50.141Z</time>
      </trkpt>
      <trkpt lat="43.95835" lon="2.21835">
        <ele>242</ele>
        <time>2021-02-25T15:17:51.141Z</time>
      </trkpt>
      <trkpt lat="43.95835" lon="2.21837">
        <ele>242</ele>
        <time>2021-02-25T15:17:52.141Z</time>
      </trkpt>
      <trkpt lat="43.95834" lon="2.21838">
        <ele>242</ele>
        <time>2021-02-25T15:17:53.141Z</time>
      </trkpt>
      <trkpt lat="43.95833" lon="2.21839">
        <ele>242</ele>
        <time>2021-02-25T15:17:54.141Z</time>
      </trkpt>
      <trkpt lat="43.95832" lon="2.21841">
        <ele>242</ele>
        <time>2021-02-25T15:17:55.141Z</time>
      </trkpt>
      <trkpt lat="43.95831" lon="2.21842">
        <ele>242</ele>
        <time>2021-02-25T15:17:56.141Z</time>
      </trkpt>
      <trkpt lat="43.9583" lon="2.21843">
        <ele>242</ele>
        <time>2021-02-25T15:17:57.141Z</time>
      </trkpt>
      <trkpt lat="43.95829" lon="2.21845">
        <ele>242</ele>
        <time>2021-02-25T15:17:58.141Z</time>
      </trkpt>
      <trkpt lat="43.95828" lon="2.21846">
        <ele>242</ele>
        <time>2021-02-25T15:17:59.141Z</time>
      </trkpt>
      <trkpt lat="43.95827" lon="2.21848">
        <ele>242</ele>
        <time>2021-02-25T15:18:00.141Z</time>
      </trkpt>
      <trkpt lat="43.95826" lon="2.21849">
        <ele>242</ele>
        <time>2021-02-25T15:18:01.141Z</time>
      </trkpt>
      <trkpt lat="43.95826" lon="2.21851">
        <ele>242</ele>
        <time>2021-02-25T15:18:02.141Z</time>
      </trkpt>
      <trkpt lat="43.95825" lon="2.21852">
        <ele>242</ele>
        <time>2021-02-25T15:18:03.141Z</time>
      </trkpt>
      <trkpt lat="43.95824" lon="2.21853">
        <ele>242</ele>
        <time>2021-02-25T15:18:04.141Z</time>
      </trkpt>
      <trkpt lat="43.95823" lon="2.21854">
        <ele>242</ele>
        <time>2021-02-25T15:18:05.141Z</time>
      </trkpt>
      <trkpt lat="43.95823" lon="2.21856">
        <ele>242</ele>
        <time>2021-02-25T15:18:06.141Z</time>
      </trkpt>
      <trkpt lat="43.95822" lon="2.21857">
        <ele>242</ele>
        <time>2021-02-25T15:18:07.141Z</time>
      </trkpt>
      <trkpt lat="43.95821" lon="2.21858">
        <ele>242</ele>
        <time>2021-02-25T15:18:08.141Z</time>
      </trkpt>
      <trkpt lat="43.9582" lon="2.2186">
        <ele>242</ele>
        <time>2021-02-25T15:18:09.141Z</time>
      </trkpt>
      <trkpt lat="43.95819" lon="2.21861">
        <ele>242</ele>
        <time>2021-02-25T15:18:10.141Z</time>
      </trkpt>
      <trkpt lat="43.95819" lon="2.21863">
        <ele>242</ele>
        <time>2021-02-25T15:18:11.141Z</time>
      </trkpt>
      <trkpt lat="43.95818" lon="2.21864">
        <ele>242</ele>
        <time>2021-02-25T15:18:12.141Z</time>
      </trkpt>
      <trkpt lat="43.95817" lon="2.21865">
        <ele>242</ele>
        <time>2021-02-25T15:18:13.141Z</time>
      </trkpt>
      <trkpt lat="43.95817" lon="2.21867">
        <ele>242</ele>
        <time>2021-02-25T15:18:14.141Z</time>
      </trkpt>
      <trkpt lat="43.95816" lon="2.21868">
        <ele>242</ele>
        <time>2021-02-25T15:18:15.141Z</time>
      </trkpt>
      <trkpt lat="43.95815" lon="2.2187">
        <ele>242</ele>
        <time>2021-02-25T15:18:16.141Z</time>
      </trkpt>
      <trkpt lat="43.95814" lon="2.21871">
        <ele>241</ele>
        <time>2021-02-25T15:18:17.141Z</time>
      </trkpt>
      <trkpt lat="43.95813" lon="2.21872">
        <ele>241</ele>
        <time>2021-02-25T15:18:18.141Z</time>
      </trkpt>
      <trkpt lat="43.95812" lon="2.21873">
        <ele>241</ele>
        <time>2021-02-25T15:18:19.141Z</time>
      </trkpt>
      <trkpt lat="43.95811" lon="2.21875">
        <ele>241</ele>
        <time>2021-02-25T15:18:20.141Z</time>
      </trkpt>
      <trkpt lat="43.95811" lon="2.21876">
        <ele>241</ele>
        <time>2021-02-25T15:18:21.141Z</time>
      </trkpt>
      <trkpt lat="43.9581" lon="2.21877">
        <ele>241</ele>
        <time>2021-02-25T15:18:22.141Z</time>
      </trkpt>
      <trkpt lat="43.95809" lon="2.21879">
        <ele>241</ele>
        <time>2021-02-25T15:18:23.141Z</time>
      </trkpt>
      <trkpt lat="43.95808" lon="2.2188">
        <ele>241</ele>
        <time>2021-02-25T15:18:24.141Z</time>
      </trkpt>
      <trkpt lat="43.95808" lon="2.21881">
        <ele>241</ele>
        <time>2021-02-25T15:18:25.141Z</time>
      </trkpt>
      <trkpt lat="43.95807" lon="2.21883">
        <ele>241</ele>
        <time>2021-02-25T15:18:26.141Z</time>
      </trkpt>
      <trkpt lat="43.95806" lon="2.21884">
        <ele>241</ele>
        <time>2021-02-25T15:18:27.141Z</time>
      </trkpt>
      <trkpt lat="43.95805" lon="2.21885">
        <ele>241</ele>
        <time>2021-02-25T15:18:28.141Z</time>
      </trkpt>
      <trkpt lat="43.95804" lon="2.21886">
        <ele>241</ele>
        <time>2021-02-25T15:18:29.141Z</time>
      </trkpt>
      <trkpt lat="43.95804" lon="2.21887">
        <ele>241</ele>
        <time>2021-02-25T15:18:30.141Z</time>
      </trkpt>
      <trkpt lat="43.95803" lon="2.21888">
        <ele>241</ele>
        <time>2021-02-25T15:18:31.141Z</time>
      </trkpt>
      <trkpt lat="43.95803" lon="2.2189">
        <ele>241</ele>
        <time>2021-02-25T15:18:32.141Z</time>
      </trkpt>
      <trkpt lat="43.95802" lon="2.21891">
        <ele>240</ele>
        <time>2021-02-25T15:18:33.141Z</time>
      </trkpt>
      <trkpt lat="43.95801" lon="2.21893">
        <ele>240</ele>
        <time>2021-02-25T15:18:34.141Z</time>
      </trkpt>
      <trkpt lat="43.95801" lon="2.21893">
        <ele>240</ele>
        <time>2021-02-25T15:18:35.141Z</time>
      </trkpt>
      <trkpt lat="43.95801" lon="2.21893">
        <ele>240</ele>
        <time>2021-02-25T15:18:36.141Z</time>
      </trkpt>
      <trkpt lat="43.958" lon="2.21894">
        <ele>240</ele>
        <time>2021-02-25T15:18:37.141Z</time>
      </trkpt>
      <trkpt lat="43.958" lon="2.21895">
        <ele>239</ele>
        <time>2021-02-25T15:18:38.141Z</time>
      </trkpt>
      <trkpt lat="43.95799" lon="2.21896">
        <ele>239</ele>
        <time>2021-02-25T15:18:39.141Z</time>
      </trkpt>
      <trkpt lat="43.95799" lon="2.21898">
        <ele>239</ele>
        <time>2021-02-25T15:18:40.141Z</time>
      </trkpt>
      <trkpt lat="43.95798" lon="2.21899">
        <ele>239</ele>
        <time>2021-02-25T15:18:41.141Z</time>
      </trkpt>
      <trkpt lat="43.95798" lon="2.219">
        <ele>239</ele>
        <time>2021-02-25T15:18:42.141Z</time>
      </trkpt>
      <trkpt lat="43.95797" lon="2.21901">
        <ele>238</ele>
        <time>2021-02-25T15:18:43.141Z</time>
      </trkpt>
      <trkpt lat="43.95796" lon="2.21902">
        <ele>238</ele>
        <time>2021-02-25T15:18:44.141Z</time>
      </trkpt>
      <trkpt lat="43.95796" lon="2.21904">
        <ele>238</ele>
        <time>2021-02-25T15:18:45.141Z</time>
      </trkpt>
      <trkpt lat="43.95795" lon="2.21905">
        <ele>238</ele>
        <time>2021-02-25T15:18:46.141Z</time>
      </trkpt>
      <trkpt lat="43.95795" lon="2.21906">
        <ele>237</ele>
        <time>2021-02-25T15:18:47.141Z</time>
      </trkpt>
      <trkpt lat="43.95794" lon="2.21908">
        <ele>237</ele>
        <time>2021-02-25T15:18:48.141Z</time>
      </trkpt>
      <trkpt lat="43.95794" lon="2.21909">
        <ele>237</ele>
        <time>2021-02-25T15:18:49.141Z</time>
      </trkpt>
      <trkpt lat="43.95793" lon="2.2191">
        <ele>237</ele>
        <time>2021-02-25T15:18:50.141Z</time>
      </trkpt>
      <trkpt lat="43.95793" lon="2.21911">
        <ele>237</ele>
        <time>2021-02-25T15:18:51.141Z</time>
      </trkpt>
      <trkpt lat="43.95793" lon="2.21912">
        <ele>237</ele>
        <time>2021-02-25T15:18:52.141Z</time>
      </trkpt>
      <trkpt lat="43.95793" lon="2.21913">
        <ele>237</ele>
        <time>2021-02-25T15:18:53.141Z</time>
      </trkpt>
      <trkpt lat="43.95793" lon="2.21914">
        <ele>236</ele>
        <time>2021-02-25T15:18:54.141Z</time>
      </trkpt>
      <trkpt lat="43.95793" lon="2.21914">
        <ele>236</ele>
        <time>2021-02-25T15:18:55.141Z</time>
      </trkpt>
      <trkpt lat="43.95794" lon="2.21915">
        <ele>236</ele>
        <time>2021-02-25T15:18:56.141Z</time>
      </trkpt>
      <trkpt lat="43.95794" lon="2.21916">
        <ele>236</ele>
        <time>2021-02-25T15:18:57.141Z</time>
      </trkpt>
      <trkpt lat="43.95794" lon="2.21916">
        <ele>236</ele>
        <time>2021-02-25T15:18:58.141Z</time>
      </trkpt>
      <trkpt lat="43.95795" lon="2.21916">
        <ele>236</ele>
        <time>2021-02-25T15:18:59.141Z</time>
      </trkpt>
      <trkpt lat="43.95795" lon="2.21917">
        <ele>236</ele>
        <time>2021-02-25T15:19:00.141Z</time>
      </trkpt>
      <trkpt lat="43.95796" lon="2.21916">
        <ele>236</ele>
        <time>2021-02-25T15:19:01.141Z</time>
      </trkpt>
      <trkpt lat="43.95797" lon="2.21916">
        <ele>236</ele>
        <time>2021-02-25T15:19:02.141Z</time>
      </trkpt>
      <trkpt lat="43.95798" lon="2.21916">
        <ele>236</ele>
        <time>2021-02-25T15:19:03.141Z</time>
      </trkpt>
      <trkpt lat="43.95799" lon="2.21917">
        <ele>236</ele>
        <time>2021-02-25T15:19:04.141Z</time>
      </trkpt>
      <trkpt lat="43.958" lon="2.21917">
        <ele>236</ele>
        <time>2021-02-25T15:19:05.141Z</time>
      </trkpt>
      <trkpt lat="43.95801" lon="2.21918">
        <ele>236</ele>
        <time>2021-02-25T15:19:06.141Z</time>
      </trkpt>
      <trkpt lat="43.95802" lon="2.21919">
        <ele>236</ele>
        <time>2021-02-25T15:19:07.141Z</time>
      </trkpt>
      <trkpt lat="43.95803" lon="2.21919">
        <ele>236</ele>
        <time>2021-02-25T15:19:08.141Z</time>
      </trkpt>
      <trkpt lat="43.95804" lon="2.2192">
        <ele>236</ele>
        <time>2021-02-25T15:19:09.141Z</time>
      </trkpt>
      <trkpt lat="43.95805" lon="2.2192">
        <ele>236</ele>
        <time>2021-02-25T15:19:10.141Z</time>
      </trkpt>
      <trkpt lat="43.95806" lon="2.2192">
        <ele>235</ele>
        <time>2021-02-25T15:19:11.141Z</time>
      </trkpt>
      <trkpt lat="43.95807" lon="2.21921">
        <ele>235</ele>
        <time>2021-02-25T15:19:12.141Z</time>
      </trkpt>
      <trkpt lat="43.95808" lon="2.21921">
        <ele>235</ele>
        <time>2021-02-25T15:19:13.141Z</time>
      </trkpt>
      <trkpt lat="43.95809" lon="2.21922">
        <ele>235</ele>
        <time>2021-02-25T15:19:14.141Z</time>
      </trkpt>
      <trkpt lat="43.9581" lon="2.21923">
        <ele>235</ele>
        <time>2021-02-25T15:19:15.141Z</time>
      </trkpt>
      <trkpt lat="43.95811" lon="2.21924">
        <ele>235</ele>
        <time>2021-02-25T15:19:16.141Z</time>
      </trkpt>
      <trkpt lat="43.95812" lon="2.21925">
        <ele>235</ele>
        <time>2021-02-25T15:19:17.141Z</time>
      </trkpt>
      <trkpt lat="43.95813" lon="2.21926">
        <ele>235</ele>
        <time>2021-02-25T15:19:18.141Z</time>
      </trkpt>
      <trkpt lat="43.95814" lon="2.21927">
        <ele>235</ele>
        <time>2021-02-25T15:19:19.141Z</time>
      </trkpt>
      <trkpt lat="43.95814" lon="2.21928">
        <ele>235</ele>
        <time>2021-02-25T15:19:20.141Z</time>
      </trkpt>
      <trkpt lat="43.95814" lon="2.21929">
        <ele>235</ele>
        <time>2021-02-25T15:19:21.141Z</time>
      </trkpt>
      <trkpt lat="43.95813" lon="2.2193">
        <ele>234</ele>
        <time>2021-02-25T15:19:22.141Z</time>
      </trkpt>
      <trkpt lat="43.95813" lon="2.21931">
        <ele>234</ele>
        <time>2021-02-25T15:19:23.141Z</time>
      </trkpt>
      <trkpt lat="43.95812" lon="2.21932">
        <ele>234</ele>
        <time>2021-02-25T15:19:24.141Z</time>
      </trkpt>
      <trkpt lat="43.95812" lon="2.21933">
        <ele>234</ele>
        <time>2021-02-25T15:19:25.141Z</time>
      </trkpt>
      <trkpt lat="43.95811" lon="2.21934">
        <ele>234</ele>
        <time>2021-02-25T15:19:26.141Z</time>
      </trkpt>
      <trkpt lat="43.95811" lon="2.21935">
        <ele>233</ele>
        <time>2021-02-25T15:19:27.141Z</time>
      </trkpt>
      <trkpt lat="43.9581" lon="2.21936">
        <ele>233</ele>
        <time>2021-02-25T15:19:28.141Z</time>
      </trkpt>
      <trkpt lat="43.95809" lon="2.21937">
        <ele>233</ele>
        <time>2021-02-25T15:19:29.141Z</time>
      </trkpt>
      <trkpt lat="43.95808" lon="2.21938">
        <ele>233</ele>
        <time>2021-02-25T15:19:30.141Z</time>
      </trkpt>
      <trkpt lat="43.95808" lon="2.21939">
        <ele>232</ele>
        <time>2021-02-25T15:19:31.141Z</time>
      </trkpt>
      <trkpt lat="43.95807" lon="2.21941">
        <ele>232</ele>
        <time>2021-02-25T15:19:32.141Z</time>
      </trkpt>
      <trkpt lat="43.95807" lon="2.21942">
        <ele>232</ele>
        <time>2021-02-25T15:19:33.141Z</time>
      </trkpt>
      <trkpt lat="43.95806" lon="2.21943">
        <ele>232</ele>
        <time>2021-02-25T15:19:34.141Z</time>
      </trkpt>
      <trkpt lat="43.95805" lon="2.21945">
        <ele>231</ele>
        <time>2021-02-25T15:19:35.141Z</time>
      </trkpt>
      <trkpt lat="43.95805" lon="2.21947">
        <ele>231</ele>
        <time>2021-02-25T15:19:36.141Z</time>
      </trkpt>
      <trkpt lat="43.95804" lon="2.21948">
        <ele>231</ele>
        <time>2021-02-25T15:19:37.141Z</time>
      </trkpt>
      <trkpt lat="43.95804" lon="2.21949">
        <ele>230</ele>
        <time>2021-02-25T15:19:38.141Z</time>
      </trkpt>
      <trkpt lat="43.95804" lon="2.2195">
        <ele>230</ele>
        <time>2021-02-25T15:19:39.141Z</time>
      </trkpt>
      <trkpt lat="43.95803" lon="2.21951">
        <ele>230</ele>
        <time>2021-02-25T15:19:40.141Z</time>
      </trkpt>
      <trkpt lat="43.95803" lon="2.21952">
        <ele>230</ele>
        <time>2021-02-25T15:19:41.141Z</time>
      </trkpt>
      <trkpt lat="43.95802" lon="2.21953">
        <ele>229</ele>
        <time>2021-02-25T15:19:42.141Z</time>
      </trkpt>
      <trkpt lat="43.95802" lon="2.21954">
        <ele>229</ele>
        <time>2021-02-25T15:19:43.141Z</time>
      </trkpt>
      <trkpt lat="43.95801" lon="2.21955">
        <ele>229</ele>
        <time>2021-02-25T15:19:44.141Z</time>
      </trkpt>
      <trkpt lat="43.95801" lon="2.21957">
        <ele>229</ele>
        <time>2021-02-25T15:19:45.141Z</time>
      </trkpt>
      <trkpt lat="43.958" lon="2.21958">
        <ele>228</ele>
        <time>2021-02-25T15:19:46.141Z</time>
      </trkpt>
      <trkpt lat="43.95799" lon="2.21959">
        <ele>228</ele>
        <time>2021-02-25T15:19:47.141Z</time>
      </trkpt>
      <trkpt lat="43.95799" lon="2.21961">
        <ele>228</ele>
        <time>2021-02-25T15:19:48.141Z</time>
      </trkpt>
      <trkpt lat="43.95798" lon="2.21962">
        <ele>228</ele>
        <time>2021-02-25T15:19:49.141Z</time>
      </trkpt>
      <trkpt lat="43.95797" lon="2.21963">
        <ele>227</ele>
        <time>2021-02-25T15:19:50.141Z</time>
      </trkpt>
      <trkpt lat="43.95797" lon="2.21964">
        <ele>227</ele>
        <time>2021-02-25T15:19:51.141Z</time>
      </trkpt>
      <trkpt lat="43.95797" lon="2.21965">
        <ele>227</ele>
        <time>2021-02-25T15:19:52.141Z</time>
      </trkpt>
      <trkpt lat="43.95796" lon="2.21966">
        <ele>227</ele>
        <time>2021-02-25T15:19:53.141Z</time>
      </trkpt>
      <trkpt lat="43.95796" lon="2.21967">
        <ele>226</ele>
        <time>2021-02-25T15:19:54.141Z</time>
      </trkpt>
      <trkpt lat="43.95795" lon="2.21968">
        <ele>226</ele>
        <time>2021-02-25T15:19:55.141Z</time>
      </trkpt>
      <trkpt lat="43.95794" lon="2.21969">
        <ele>226</ele>
        <time>2021-02-25T15:19:56.141Z</time>
      </trkpt>
      <trkpt lat="43.95793" lon="2.21971">
        <ele>226</ele>
        <time>2021-02-25T15:19:57.141Z</time>
      </trkpt>
      <trkpt lat="43.95793" lon="2.21972">
        <ele>225</ele>
        <time>2021-02-25T15:19:58.141Z</time>
      </trkpt>
      <trkpt lat="43.95792" lon="2.21973">
        <ele>225</ele>
        <time>2021-02-25T15:19:59.141Z</time>
      </trkpt>
      <trkpt lat="43.95791" lon="2.21974">
        <ele>225</ele>
        <time>2021-02-25T15:20:00.141Z</time>
      </trkpt>
      <trkpt lat="43.95791" lon="2.21976">
        <ele>225</ele>
        <time>2021-02-25T15:20:01.141Z</time>
      </trkpt>
      <trkpt lat="43.9579" lon="2.21977">
        <ele>224</ele>
        <time>2021-02-25T15:20:02.141Z</time>
      </trkpt>
      <trkpt lat="43.9579" lon="2.21978">
        <ele>224</ele>
        <time>2021-02-25T15:20:03.141Z</time>
      </trkpt>
      <trkpt lat="43.95789" lon="2.21979">
        <ele>224</ele>
        <time>2021-02-25T15:20:04.141Z</time>
      </trkpt>
      <trkpt lat="43.95789" lon="2.21981">
        <ele>224</ele>
        <time>2021-02-25T15:20:05.141Z</time>
      </trkpt>
      <trkpt lat="43.95788" lon="2.21982">
        <ele>224</ele>
        <time>2021-02-25T15:20:06.141Z</time>
      </trkpt>
      <trkpt lat="43.95788" lon="2.21983">
        <ele>223</ele>
        <time>2021-02-25T15:20:07.141Z</time>
      </trkpt>
      <trkpt lat="43.95787" lon="2.21984">
        <ele>223</ele>
        <time>2021-02-25T15:20:08.141Z</time>
      </trkpt>
      <trkpt lat="43.95786" lon="2.21985">
        <ele>223</ele>
        <time>2021-02-25T15:20:09.141Z</time>
      </trkpt>
      <trkpt lat="43.95786" lon="2.21986">
        <ele>223</ele>
        <time>2021-02-25T15:20:10.141Z</time>
      </trkpt>
      <trkpt lat="43.95785" lon="2.21987">
        <ele>222</ele>
        <time>2021-02-25T15:20:11.141Z</time>
      </trkpt>
      <trkpt lat="43.95784" lon="2.21988">
        <ele>222</ele>
        <time>2021-02-25T15:20:12.141Z</time>
      </trkpt>
      <trkpt lat="43.95784" lon="2.21989">
        <ele>222</ele>
        <time>2021-02-25T15:20:13.141Z</time>
      </trkpt>
      <trkpt lat="43.95783" lon="2.2199">
        <ele>222</ele>
        <time>2021-02-25T15:20:14.141Z</time>
      </trkpt>
      <trkpt lat="43.95783" lon="2.21991">
        <ele>222</ele>
        <time>2021-02-25T15:20:15.141Z</time>
      </trkpt>
      <trkpt lat="43.95783" lon="2.21992">
        <ele>221</ele>
        <time>2021-02-25T15:20:16.141Z</time>
      </trkpt>
      <trkpt lat="43.95783" lon="2.21993">
        <ele>221</ele>
        <time>2021-02-25T15:20:17.141Z</time>
      </trkpt>
      <trkpt lat="43.95783" lon="2.21995">
        <ele>221</ele>
        <time>2021-02-25T15:20:18.141Z</time>
      </trkpt>
      <trkpt lat="43.95783" lon="2.21996">
        <ele>221</ele>
        <time>2021-02-25T15:20:19.141Z</time>
      </trkpt>
      <trkpt lat="43.95783" lon="2.21997">
        <ele>221</ele>
        <time>2021-02-25T15:20:20.141Z</time>
      </trkpt>
      <trkpt lat="43.95783" lon="2.21998">
        <ele>221</ele>
        <time>2021-02-25T15:20:21.141Z</time>
      </trkpt>
      <trkpt lat="43.95784" lon="2.21999">
        <ele>221</ele>
        <time>2021-02-25T15:20:22.141Z</time>
      </trkpt>
      <trkpt lat="43.95785" lon="2.22">
        <ele>221</ele>
        <time>2021-02-25T15:20:23.141Z</time>
      </trkpt>
      <trkpt lat="43.95785" lon="2.22001">
        <ele>221</ele>
        <time>2021-02-25T15:20:24.141Z</time>
      </trkpt>
      <trkpt lat="43.95786" lon="2.22002">
        <ele>221</ele>
        <time>2021-02-25T15:20:25.141Z</time>
      </trkpt>
      <trkpt lat="43.95787" lon="2.22003">
        <ele>221</ele>
        <time>2021-02-25T15:20:26.141Z</time>
      </trkpt>
      <trkpt lat="43.95788" lon="2.22004">
        <ele>221</ele>
        <time>2021-02-25T15:20:27.141Z</time>
      </trkpt>
      <trkpt lat="43.95789" lon="2.22005">
        <ele>221</ele>
        <time>2021-02-25T15:20:28.141Z</time>
      </trkpt>
      <trkpt lat="43.9579" lon="2.22006">
        <ele>221</ele>
        <time>2021-02-25T15:20:29.141Z</time>
      </trkpt>
      <trkpt lat="43.95791" lon="2.22007">
        <ele>221</ele>
        <time>2021-02-25T15:20:30.141Z</time>
      </trkpt>
      <trkpt lat="43.95792" lon="2.22007">
        <ele>221</ele>
        <time>2021-02-25T15:20:31.141Z</time>
      </trkpt>
      <trkpt lat="43.95793" lon="2.22008">
        <ele>221</ele>
        <time>2021-02-25T15:20:32.141Z</time>
      </trkpt>
      <trkpt lat="43.95793" lon="2.22008">
        <ele>221</ele>
        <time>2021-02-25T15:20:33.141Z</time>
      </trkpt>
      <trkpt lat="43.95794" lon="2.22009">
        <ele>221</ele>
        <time>2021-02-25T15:20:34.141Z</time>
      </trkpt>
      <trkpt lat="43.95795" lon="2.2201">
        <ele>221</ele>
        <time>2021-02-25T15:20:35.141Z</time>
      </trkpt>
      <trkpt lat="43.95795" lon="2.22011">
        <ele>221</ele>
        <time>2021-02-25T15:20:36.141Z</time>
      </trkpt>
      <trkpt lat="43.95796" lon="2.22012">
        <ele>221</ele>
        <time>2021-02-25T15:20:37.141Z</time>
      </trkpt>
      <trkpt lat="43.95796" lon="2.22013">
        <ele>221</ele>
        <time>2021-02-25T15:20:38.141Z</time>
      </trkpt>
      <trkpt lat="43.95796" lon="2.22015">
        <ele>221</ele>
        <time>2021-02-25T15:20:39.141Z</time>
      </trkpt>
      <trkpt lat="43.95796" lon="2.22016">
        <ele>221</ele>
        <time>2021-02-25T15:20:40.141Z</time>
      </trkpt>
      <trkpt lat="43.95796" lon="2.22017">
        <ele>221</ele>
        <time>2021-02-25T15:20:41.141Z</time>
      </trkpt>
      <trkpt lat="43.95796" lon="2.22019">
        <ele>221</ele>
        <time>2021-02-25T15:20:42.141Z</time>
      </trkpt>
      <trkpt lat="43.95797" lon="2.2202">
        <ele>221</ele>
        <time>2021-02-25T15:20:43.141Z</time>
      </trkpt>
      <trkpt lat="43.95797" lon="2.22021">
        <ele>220</ele>
        <time>2021-02-25T15:20:44.141Z</time>
      </trkpt>
      <trkpt lat="43.95796" lon="2.22022">
        <ele>220</ele>
        <time>2021-02-25T15:20:45.141Z</time>
      </trkpt>
      <trkpt lat="43.95796" lon="2.22024">
        <ele>220</ele>
        <time>2021-02-25T15:20:46.141Z</time>
      </trkpt>
      <trkpt lat="43.95796" lon="2.22025">
        <ele>220</ele>
        <time>2021-02-25T15:20:47.141Z</time>
      </trkpt>
      <trkpt lat="43.95797" lon="2.22026">
        <ele>220</ele>
        <time>2021-02-25T15:20:52.141Z</time>
      </trkpt>
      <trkpt lat="43.95797" lon="2.22027">
        <ele>220</ele>
        <time>2021-02-25T15:20:53.141Z</time>
      </trkpt>
      <trkpt lat="43.95796" lon="2.22028">
        <ele>220</ele>
        <time>2021-02-25T15:20:54.141Z</time>
      </trkpt>
      <trkpt lat="43.95796" lon="2.22029">
        <ele>220</ele>
        <time>2021-02-25T15:20:55.141Z</time>
      </trkpt>
      <trkpt lat="43.95796" lon="2.2203">
        <ele>220</ele>
        <time>2021-02-25T15:20:56.141Z</time>
      </trkpt>
      <trkpt lat="43.95796" lon="2.22032">
        <ele>220</ele>
        <time>2021-02-25T15:21:25.143Z</time>
      </trkpt>
      <trkpt lat="43.95796" lon="2.22033">
        <ele>220</ele>
        <time>2021-02-25T15:21:26.143Z</time>
      </trkpt>
      <trkpt lat="43.95796" lon="2.22035">
        <ele>220</ele>
        <time>2021-02-25T15:21:33.895Z</time>
      </trkpt>
      <trkpt lat="43.95796" lon="2.22036">
        <ele>220</ele>
        <time>2021-02-25T15:21:34.895Z</time>
      </trkpt>
      <trkpt lat="43.95796" lon="2.22037">
        <ele>220</ele>
        <time>2021-02-25T15:21:35.895Z</time>
      </trkpt>
      <trkpt lat="43.95796" lon="2.22039">
        <ele>220</ele>
        <time>2021-02-25T15:21:36.895Z</time>
      </trkpt>
      <trkpt lat="43.95796" lon="2.22041">
        <ele>220</ele>
        <time>2021-02-25T15:21:37.895Z</time>
      </trkpt>
      <trkpt lat="43.95796" lon="2.22043">
        <ele>220</ele>
        <time>2021-02-25T15:21:38.895Z</time>
      </trkpt>
      <trkpt lat="43.95796" lon="2.22044">
        <ele>220</ele>
        <time>2021-02-25T15:21:39.895Z</time>
      </trkpt>
      <trkpt lat="43.95797" lon="2.22045">
        <ele>220</ele>
        <time>2021-02-25T15:21:40.895Z</time>
      </trkpt>
      <trkpt lat="43.95797" lon="2.22047">
        <ele>220</ele>
        <time>2021-02-25T15:21:41.895Z</time>
      </trkpt>
      <trkpt lat="43.95797" lon="2.22048">
        <ele>219</ele>
        <time>2021-02-25T15:21:42.895Z</time>
      </trkpt>
      <trkpt lat="43.95798" lon="2.2205">
        <ele>219</ele>
        <time>2021-02-25T15:23:12.902Z</time>
      </trkpt>
      <trkpt lat="43.95798" lon="2.22051">
        <ele>219</ele>
        <time>2021-02-25T15:23:13.902Z</time>
      </trkpt>
      <trkpt lat="43.95798" lon="2.22052">
        <ele>219</ele>
        <time>2021-02-25T15:23:14.902Z</time>
      </trkpt>
      <trkpt lat="43.95798" lon="2.22054">
        <ele>219</ele>
        <time>2021-02-25T15:23:15.902Z</time>
      </trkpt>
      <trkpt lat="43.95799" lon="2.22055">
        <ele>219</ele>
        <time>2021-02-25T15:23:16.902Z</time>
      </trkpt>
      <trkpt lat="43.95799" lon="2.22057">
        <ele>218</ele>
        <time>2021-02-25T15:23:17.902Z</time>
      </trkpt>
      <trkpt lat="43.95799" lon="2.22058">
        <ele>218</ele>
        <time>2021-02-25T15:23:18.902Z</time>
      </trkpt>
      <trkpt lat="43.958" lon="2.22059">
        <ele>218</ele>
        <time>2021-02-25T15:23:19.902Z</time>
      </trkpt>
      <trkpt lat="43.958" lon="2.22061">
        <ele>218</ele>
        <time>2021-02-25T15:23:20.902Z</time>
      </trkpt>
      <trkpt lat="43.958" lon="2.22063">
        <ele>217</ele>
        <time>2021-02-25T15:23:21.902Z</time>
      </trkpt>
      <trkpt lat="43.95801" lon="2.22064">
        <ele>217</ele>
        <time>2021-02-25T15:23:22.902Z</time>
      </trkpt>
      <trkpt lat="43.95801" lon="2.22065">
        <ele>217</ele>
        <time>2021-02-25T15:23:23.902Z</time>
      </trkpt>
      <trkpt lat="43.95801" lon="2.22067">
        <ele>217</ele>
        <time>2021-02-25T15:23:24.902Z</time>
      </trkpt>
      <trkpt lat="43.95801" lon="2.22069">
        <ele>217</ele>
        <time>2021-02-25T15:23:25.902Z</time>
      </trkpt>
      <trkpt lat="43.95801" lon="2.22071">
        <ele>217</ele>
        <time>2021-02-25T15:23:26.902Z</time>
      </trkpt>
      <trkpt lat="43.95801" lon="2.22072">
        <ele>217</ele>
        <time>2021-02-25T15:23:27.902Z</time>
      </trkpt>
      <trkpt lat="43.95801" lon="2.22073">
        <ele>216</ele>
        <time>2021-02-25T15:23:28.902Z</time>
      </trkpt>
      <trkpt lat="43.95801" lon="2.22075">
        <ele>216</ele>
        <time>2021-02-25T15:23:29.902Z</time>
      </trkpt>
      <trkpt lat="43.95801" lon="2.22076">
        <ele>216</ele>
        <time>2021-02-25T15:23:30.902Z</time>
      </trkpt>
      <trkpt lat="43.958" lon="2.22078">
        <ele>216</ele>
        <time>2021-02-25T15:23:31.902Z</time>
      </trkpt>
      <trkpt lat="43.958" lon="2.22079">
        <ele>216</ele>
        <time>2021-02-25T15:23:32.902Z</time>
      </trkpt>
      <trkpt lat="43.958" lon="2.2208">
        <ele>215</ele>
        <time>2021-02-25T15:23:33.902Z</time>
      </trkpt>
      <trkpt lat="43.958" lon="2.22081">
        <ele>215</ele>
        <time>2021-02-25T15:23:34.902Z</time>
      </trkpt>
      <trkpt lat="43.95799" lon="2.22082">
        <ele>215</ele>
        <time>2021-02-25T15:23:35.902Z</time>
      </trkpt>
      <trkpt lat="43.95799" lon="2.22083">
        <ele>215</ele>
        <time>2021-02-25T15:23:36.902Z</time>
      </trkpt>
      <trkpt lat="43.95798" lon="2.22084">
        <ele>215</ele>
        <time>2021-02-25T15:23:37.902Z</time>
      </trkpt>
      <trkpt lat="43.95797" lon="2.22085">
        <ele>214</ele>
        <time>2021-02-25T15:23:38.902Z</time>
      </trkpt>
      <trkpt lat="43.95797" lon="2.22085">
        <ele>214</ele>
        <time>2021-02-25T15:23:39.902Z</time>
      </trkpt>
      <trkpt lat="43.95796" lon="2.22086">
        <ele>214</ele>
        <time>2021-02-25T15:23:40.902Z</time>
      </trkpt>
      <trkpt lat="43.95795" lon="2.22087">
        <ele>213</ele>
        <time>2021-02-25T15:23:41.902Z</time>
      </trkpt>
      <trkpt lat="43.95795" lon="2.22088">
        <ele>213</ele>
        <time>2021-02-25T15:23:42.902Z</time>
      </trkpt>
      <trkpt lat="43.95794" lon="2.22089">
        <ele>213</ele>
        <time>2021-02-25T15:23:43.902Z</time>
      </trkpt>
      <trkpt lat="43.95794" lon="2.2209">
        <ele>213</ele>
        <time>2021-02-25T15:23:44.902Z</time>
      </trkpt>
      <trkpt lat="43.95793" lon="2.22091">
        <ele>212</ele>
        <time>2021-02-25T15:23:45.902Z</time>
      </trkpt>
      <trkpt lat="43.95793" lon="2.22092">
        <ele>212</ele>
        <time>2021-02-25T15:23:46.902Z</time>
      </trkpt>
      <trkpt lat="43.95792" lon="2.22093">
        <ele>212</ele>
        <time>2021-02-25T15:23:47.902Z</time>
      </trkpt>
      <trkpt lat="43.95793" lon="2.22095">
        <ele>212</ele>
        <time>2021-02-25T15:23:48.902Z</time>
      </trkpt>
      <trkpt lat="43.95793" lon="2.22096">
        <ele>212</ele>
        <time>2021-02-25T15:23:49.902Z</time>
      </trkpt>
      <trkpt lat="43.95793" lon="2.22098">
        <ele>212</ele>
        <time>2021-02-25T15:23:50.902Z</time>
      </trkpt>
      <trkpt lat="43.95794" lon="2.22099">
        <ele>212</ele>
        <time>2021-02-25T15:23:51.902Z</time>
      </trkpt>
      <trkpt lat="43.95794" lon="2.221">
        <ele>212</ele>
        <time>2021-02-25T15:23:52.902Z</time>
      </trkpt>
      <trkpt lat="43.95795" lon="2.22102">
        <ele>212</ele>
        <time>2021-02-25T15:23:53.902Z</time>
      </trkpt>
      <trkpt lat="43.95796" lon="2.22103">
        <ele>212</ele>
        <time>2021-02-25T15:23:54.902Z</time>
      </trkpt>
      <trkpt lat="43.95797" lon="2.22104">
        <ele>212</ele>
        <time>2021-02-25T15:23:55.902Z</time>
      </trkpt>
      <trkpt lat="43.95798" lon="2.22105">
        <ele>211</ele>
        <time>2021-02-25T15:23:56.902Z</time>
      </trkpt>
      <trkpt lat="43.95798" lon="2.22105">
        <ele>211</ele>
        <time>2021-02-25T15:23:57.902Z</time>
      </trkpt>
      <trkpt lat="43.95799" lon="2.22106">
        <ele>211</ele>
        <time>2021-02-25T15:23:58.902Z</time>
      </trkpt>
      <trkpt lat="43.958" lon="2.22107">
        <ele>211</ele>
        <time>2021-02-25T15:23:59.902Z</time>
      </trkpt>
      <trkpt lat="43.95801" lon="2.22108">
        <ele>211</ele>
        <time>2021-02-25T15:24:00.902Z</time>
      </trkpt>
      <trkpt lat="43.95801" lon="2.22108">
        <ele>211</ele>
        <time>2021-02-25T15:24:01.902Z</time>
      </trkpt>
      <trkpt lat="43.95802" lon="2.22108">
        <ele>211</ele>
        <time>2021-02-25T15:24:02.902Z</time>
      </trkpt>
      <trkpt lat="43.95803" lon="2.22109">
        <ele>211</ele>
        <time>2021-02-25T15:24:03.902Z</time>
      </trkpt>
      <trkpt lat="43.95804" lon="2.22109">
        <ele>211</ele>
        <time>2021-02-25T15:24:04.902Z</time>
      </trkpt>
      <trkpt lat="43.95805" lon="2.2211">
        <ele>211</ele>
        <time>2021-02-25T15:24:05.902Z</time>
      </trkpt>
      <trkpt lat="43.95806" lon="2.2211">
        <ele>211</ele>
        <time>2021-02-25T15:24:06.902Z</time>
      </trkpt>
      <trkpt lat="43.95807" lon="2.2211">
        <ele>211</ele>
        <time>2021-02-25T15:24:07.902Z</time>
      </trkpt>
      <trkpt lat="43.95808" lon="2.2211">
        <ele>211</ele>
        <time>2021-02-25T15:24:08.902Z</time>
      </trkpt>
      <trkpt lat="43.95808" lon="2.2211">
        <ele>211</ele>
        <time>2021-02-25T15:24:09.902Z</time>
      </trkpt>
      <trkpt lat="43.95809" lon="2.2211">
        <ele>211</ele>
        <time>2021-02-25T15:24:10.902Z</time>
      </trkpt>
      <trkpt lat="43.9581" lon="2.2211">
        <ele>211</ele>
        <time>2021-02-25T15:24:11.902Z</time>
      </trkpt>
      <trkpt lat="43.95811" lon="2.2211">
        <ele>211</ele>
        <time>2021-02-25T15:24:12.902Z</time>
      </trkpt>
      <trkpt lat="43.95812" lon="2.2211">
        <ele>211</ele>
        <time>2021-02-25T15:24:13.902Z</time>
      </trkpt>
      <trkpt lat="43.95813" lon="2.2211">
        <ele>212</ele>
        <time>2021-02-25T15:24:14.902Z</time>
      </trkpt>
      <trkpt lat="43.95814" lon="2.2211">
        <ele>212</ele>
        <time>2021-02-25T15:24:15.902Z</time>
      </trkpt>
      <trkpt lat="43.95815" lon="2.2211">
        <ele>212</ele>
        <time>2021-02-25T15:24:16.902Z</time>
      </trkpt>
      <trkpt lat="43.95816" lon="2.22109">
        <ele>212</ele>
        <time>2021-02-25T15:24:17.902Z</time>
      </trkpt>
      <trkpt lat="43.95817" lon="2.22109">
        <ele>212</ele>
        <time>2021-02-25T15:24:18.902Z</time>
      </trkpt>
      <trkpt lat="43.95818" lon="2.22109">
        <ele>212</ele>
        <time>2021-02-25T15:24:19.902Z</time>
      </trkpt>
      <trkpt lat="43.95819" lon="2.22109">
        <ele>212</ele>
        <time>2021-02-25T15:24:20.902Z</time>
      </trkpt>
      <trkpt lat="43.9582" lon="2.22109">
        <ele>212</ele>
        <time>2021-02-25T15:24:21.902Z</time>
      </trkpt>
      <trkpt lat="43.95821" lon="2.22109">
        <ele>212</ele>
        <time>2021-02-25T15:24:22.902Z</time>
      </trkpt>
      <trkpt lat="43.95822" lon="2.22109">
        <ele>213</ele>
        <time>2021-02-25T15:24:23.902Z</time>
      </trkpt>
      <trkpt lat="43.95823" lon="2.2211">
        <ele>213</ele>
        <time>2021-02-25T15:24:24.902Z</time>
      </trkpt>
      <trkpt lat="43.95824" lon="2.2211">
        <ele>213</ele>
        <time>2021-02-25T15:24:25.902Z</time>
      </trkpt>
      <trkpt lat="43.95825" lon="2.2211">
        <ele>213</ele>
        <time>2021-02-25T15:24:26.902Z</time>
      </trkpt>
      <trkpt lat="43.95826" lon="2.22111">
        <ele>213</ele>
        <time>2021-02-25T15:24:27.902Z</time>
      </trkpt>
      <trkpt lat="43.95826" lon="2.22112">
        <ele>213</ele>
        <time>2021-02-25T15:24:28.902Z</time>
      </trkpt>
      <trkpt lat="43.95827" lon="2.22112">
        <ele>213</ele>
        <time>2021-02-25T15:24:32.907Z</time>
      </trkpt>
      <trkpt lat="43.95828" lon="2.22112">
        <ele>213</ele>
        <time>2021-02-25T15:24:33.907Z</time>
      </trkpt>
      <trkpt lat="43.95829" lon="2.22113">
        <ele>213</ele>
        <time>2021-02-25T15:24:34.907Z</time>
      </trkpt>
      <trkpt lat="43.9583" lon="2.22113">
        <ele>213</ele>
        <time>2021-02-25T15:24:35.907Z</time>
      </trkpt>
      <trkpt lat="43.95831" lon="2.22114">
        <ele>213</ele>
        <time>2021-02-25T15:24:36.907Z</time>
      </trkpt>
      <trkpt lat="43.95832" lon="2.22114">
        <ele>213</ele>
        <time>2021-02-25T15:24:37.907Z</time>
      </trkpt>
      <trkpt lat="43.95833" lon="2.22114">
        <ele>213</ele>
        <time>2021-02-25T15:24:38.907Z</time>
      </trkpt>
      <trkpt lat="43.95834" lon="2.22114">
        <ele>213</ele>
        <time>2021-02-25T15:24:39.907Z</time>
      </trkpt>
      <trkpt lat="43.95835" lon="2.22114">
        <ele>213</ele>
        <time>2021-02-25T15:24:40.907Z</time>
      </trkpt>
      <trkpt lat="43.95836" lon="2.22114">
        <ele>213</ele>
        <time>2021-02-25T15:24:41.907Z</time>
      </trkpt>
      <trkpt lat="43.95837" lon="2.22114">
        <ele>213</ele>
        <time>2021-02-25T15:24:42.907Z</time>
      </trkpt>
      <trkpt lat="43.95838" lon="2.22114">
        <ele>213</ele>
        <time>2021-02-25T15:24:43.907Z</time>
      </trkpt>
      <trkpt lat="43.95839" lon="2.22115">
        <ele>213</ele>
        <time>2021-02-25T15:24:44.907Z</time>
      </trkpt>
      <trkpt lat="43.9584" lon="2.22115">
        <ele>213</ele>
        <time>2021-02-25T15:24:45.907Z</time>
      </trkpt>
      <trkpt lat="43.95842" lon="2.22116">
        <ele>213</ele>
        <time>2021-02-25T15:24:46.907Z</time>
      </trkpt>
      <trkpt lat="43.95843" lon="2.22116">
        <ele>213</ele>
        <time>2021-02-25T15:24:47.907Z</time>
      </trkpt>
      <trkpt lat="43.95844" lon="2.22117">
        <ele>212</ele>
        <time>2021-02-25T15:24:48.907Z</time>
      </trkpt>
      <trkpt lat="43.95845" lon="2.22118">
        <ele>212</ele>
        <time>2021-02-25T15:24:49.907Z</time>
      </trkpt>
      <trkpt lat="43.95846" lon="2.22118">
        <ele>212</ele>
        <time>2021-02-25T15:24:50.907Z</time>
      </trkpt>
      <trkpt lat="43.95847" lon="2.22119">
        <ele>212</ele>
        <time>2021-02-25T15:24:51.907Z</time>
      </trkpt>
      <trkpt lat="43.95849" lon="2.2212">
        <ele>212</ele>
        <time>2021-02-25T15:24:52.907Z</time>
      </trkpt>
      <trkpt lat="43.9585" lon="2.22121">
        <ele>212</ele>
        <time>2021-02-25T15:24:53.907Z</time>
      </trkpt>
      <trkpt lat="43.95851" lon="2.22122">
        <ele>212</ele>
        <time>2021-02-25T15:24:54.907Z</time>
      </trkpt>
      <trkpt lat="43.95852" lon="2.22124">
        <ele>212</ele>
        <time>2021-02-25T15:24:55.907Z</time>
      </trkpt>
      <trkpt lat="43.95853" lon="2.22125">
        <ele>212</ele>
        <time>2021-02-25T15:24:56.907Z</time>
      </trkpt>
      <trkpt lat="43.95854" lon="2.22127">
        <ele>211</ele>
        <time>2021-02-25T15:24:57.907Z</time>
      </trkpt>
      <trkpt lat="43.95855" lon="2.22128">
        <ele>211</ele>
        <time>2021-02-25T15:24:58.907Z</time>
      </trkpt>
      <trkpt lat="43.95855" lon="2.2213">
        <ele>211</ele>
        <time>2021-02-25T15:24:59.907Z</time>
      </trkpt>
      <trkpt lat="43.95855" lon="2.22132">
        <ele>211</ele>
        <time>2021-02-25T15:25:00.907Z</time>
      </trkpt>
      <trkpt lat="43.95856" lon="2.22133">
        <ele>211</ele>
        <time>2021-02-25T15:25:01.907Z</time>
      </trkpt>
      <trkpt lat="43.95856" lon="2.22134">
        <ele>211</ele>
        <time>2021-02-25T15:25:02.907Z</time>
      </trkpt>
      <trkpt lat="43.95857" lon="2.22136">
        <ele>211</ele>
        <time>2021-02-25T15:25:03.907Z</time>
      </trkpt>
      <trkpt lat="43.95857" lon="2.22137">
        <ele>211</ele>
        <time>2021-02-25T15:25:04.907Z</time>
      </trkpt>
      <trkpt lat="43.95857" lon="2.22139">
        <ele>211</ele>
        <time>2021-02-25T15:25:05.907Z</time>
      </trkpt>
      <trkpt lat="43.95858" lon="2.2214">
        <ele>211</ele>
        <time>2021-02-25T15:25:06.907Z</time>
      </trkpt>
      <trkpt lat="43.95858" lon="2.22141">
        <ele>211</ele>
        <time>2021-02-25T15:25:07.907Z</time>
      </trkpt>
      <trkpt lat="43.95859" lon="2.22142">
        <ele>211</ele>
        <time>2021-02-25T15:25:08.907Z</time>
      </trkpt>
      <trkpt lat="43.9586" lon="2.22144">
        <ele>211</ele>
        <time>2021-02-25T15:25:09.907Z</time>
      </trkpt>
      <trkpt lat="43.9586" lon="2.22145">
        <ele>211</ele>
        <time>2021-02-25T15:25:10.907Z</time>
      </trkpt>
      <trkpt lat="43.95861" lon="2.22146">
        <ele>211</ele>
        <time>2021-02-25T15:25:11.907Z</time>
      </trkpt>
      <trkpt lat="43.95861" lon="2.22147">
        <ele>211</ele>
        <time>2021-02-25T15:25:12.907Z</time>
      </trkpt>
      <trkpt lat="43.95861" lon="2.22148">
        <ele>211</ele>
        <time>2021-02-25T15:25:13.907Z</time>
      </trkpt>
      <trkpt lat="43.95862" lon="2.2215">
        <ele>212</ele>
        <time>2021-02-25T15:25:14.907Z</time>
      </trkpt>
      <trkpt lat="43.95862" lon="2.22151">
        <ele>212</ele>
        <time>2021-02-25T15:25:15.907Z</time>
      </trkpt>
      <trkpt lat="43.95862" lon="2.22152">
        <ele>212</ele>
        <time>2021-02-25T15:25:16.907Z</time>
      </trkpt>
      <trkpt lat="43.95862" lon="2.22153">
        <ele>212</ele>
        <time>2021-02-25T15:25:17.907Z</time>
      </trkpt>
      <trkpt lat="43.95863" lon="2.22154">
        <ele>212</ele>
        <time>2021-02-25T15:25:18.907Z</time>
      </trkpt>
      <trkpt lat="43.95864" lon="2.22154">
        <ele>212</ele>
        <time>2021-02-25T15:25:19.907Z</time>
      </trkpt>
      <trkpt lat="43.95864" lon="2.22154">
        <ele>212</ele>
        <time>2021-02-25T15:25:20.907Z</time>
      </trkpt>
      <trkpt lat="43.95865" lon="2.22155">
        <ele>212</ele>
        <time>2021-02-25T15:25:21.907Z</time>
      </trkpt>
      <trkpt lat="43.95865" lon="2.22155">
        <ele>212</ele>
        <time>2021-02-25T15:25:22.907Z</time>
      </trkpt>
      <trkpt lat="43.95866" lon="2.22155">
        <ele>212</ele>
        <time>2021-02-25T15:25:23.907Z</time>
      </trkpt>
      <trkpt lat="43.95866" lon="2.22155">
        <ele>212</ele>
        <time>2021-02-25T15:25:24.907Z</time>
      </trkpt>
      <trkpt lat="43.95866" lon="2.22154">
        <ele>212</ele>
        <time>2021-02-25T15:25:25.907Z</time>
      </trkpt>
      <trkpt lat="43.95867" lon="2.22154">
        <ele>212</ele>
        <time>2021-02-25T15:25:26.907Z</time>
      </trkpt>
      <trkpt lat="43.95867" lon="2.22154">
        <ele>211</ele>
        <time>2021-02-25T15:25:27.907Z</time>
      </trkpt>
      <trkpt lat="43.95868" lon="2.22153">
        <ele>211</ele>
        <time>2021-02-25T15:25:28.907Z</time>
      </trkpt>
      <trkpt lat="43.95869" lon="2.22153">
        <ele>211</ele>
        <time>2021-02-25T15:25:29.907Z</time>
      </trkpt>
      <trkpt lat="43.9587" lon="2.22152">
        <ele>211</ele>
        <time>2021-02-25T15:25:30.907Z</time>
      </trkpt>
      <trkpt lat="43.9587" lon="2.22151">
        <ele>211</ele>
        <time>2021-02-25T15:25:31.907Z</time>
      </trkpt>
      <trkpt lat="43.95871" lon="2.2215">
        <ele>211</ele>
        <time>2021-02-25T15:25:32.907Z</time>
      </trkpt>
      <trkpt lat="43.95871" lon="2.2215">
        <ele>211</ele>
        <time>2021-02-25T15:25:33.907Z</time>
      </trkpt>
      <trkpt lat="43.95872" lon="2.22149">
        <ele>211</ele>
        <time>2021-02-25T15:25:34.907Z</time>
      </trkpt>
      <trkpt lat="43.95873" lon="2.22148">
        <ele>211</ele>
        <time>2021-02-25T15:25:35.907Z</time>
      </trkpt>
      <trkpt lat="43.95874" lon="2.22148">
        <ele>211</ele>
        <time>2021-02-25T15:25:36.907Z</time>
      </trkpt>
      <trkpt lat="43.95875" lon="2.22148">
        <ele>211</ele>
        <time>2021-02-25T15:25:37.907Z</time>
      </trkpt>
      <trkpt lat="43.95876" lon="2.22147">
        <ele>211</ele>
        <time>2021-02-25T15:25:38.907Z</time>
      </trkpt>
      <trkpt lat="43.95877" lon="2.22148">
        <ele>211</ele>
        <time>2021-02-25T15:25:39.907Z</time>
      </trkpt>
      <trkpt lat="43.95878" lon="2.22148">
        <ele>211</ele>
        <time>2021-02-25T15:25:40.907Z</time>
      </trkpt>
      <trkpt lat="43.95879" lon="2.22148">
        <ele>211</ele>
        <time>2021-02-25T15:25:41.907Z</time>
      </trkpt>
      <trkpt lat="43.9588" lon="2.22148">
        <ele>211</ele>
        <time>2021-02-25T15:25:42.907Z</time>
      </trkpt>
      <trkpt lat="43.9588" lon="2.22149">
        <ele>211</ele>
        <time>2021-02-25T15:25:43.907Z</time>
      </trkpt>
      <trkpt lat="43.95882" lon="2.2215">
        <ele>211</ele>
        <time>2021-02-25T15:25:44.907Z</time>
      </trkpt>
      <trkpt lat="43.95882" lon="2.2215">
        <ele>210</ele>
        <time>2021-02-25T15:25:45.907Z</time>
      </trkpt>
      <trkpt lat="43.95883" lon="2.22151">
        <ele>210</ele>
        <time>2021-02-25T15:25:46.907Z</time>
      </trkpt>
      <trkpt lat="43.95884" lon="2.22151">
        <ele>210</ele>
        <time>2021-02-25T15:25:47.907Z</time>
      </trkpt>
      <trkpt lat="43.95885" lon="2.22152">
        <ele>210</ele>
        <time>2021-02-25T15:25:48.907Z</time>
      </trkpt>
      <trkpt lat="43.95886" lon="2.22152">
        <ele>210</ele>
        <time>2021-02-25T15:25:49.907Z</time>
      </trkpt>
      <trkpt lat="43.95887" lon="2.22153">
        <ele>210</ele>
        <time>2021-02-25T15:25:50.907Z</time>
      </trkpt>
      <trkpt lat="43.95889" lon="2.22154">
        <ele>210</ele>
        <time>2021-02-25T15:25:51.907Z</time>
      </trkpt>
      <trkpt lat="43.9589" lon="2.22155">
        <ele>209</ele>
        <time>2021-02-25T15:25:52.907Z</time>
      </trkpt>
      <trkpt lat="43.95891" lon="2.22156">
        <ele>209</ele>
        <time>2021-02-25T15:25:53.907Z</time>
      </trkpt>
      <trkpt lat="43.95893" lon="2.22157">
        <ele>209</ele>
        <time>2021-02-25T15:25:54.907Z</time>
      </trkpt>
      <trkpt lat="43.95894" lon="2.22158">
        <ele>209</ele>
        <time>2021-02-25T15:25:55.907Z</time>
      </trkpt>
      <trkpt lat="43.95895" lon="2.22158">
        <ele>209</ele>
        <time>2021-02-25T15:25:56.907Z</time>
      </trkpt>
      <trkpt lat="43.95895" lon="2.22159">
        <ele>209</ele>
        <time>2021-02-25T15:25:57.907Z</time>
      </trkpt>
      <trkpt lat="43.95896" lon="2.2216">
        <ele>209</ele>
        <time>2021-02-25T15:25:58.907Z</time>
      </trkpt>
      <trkpt lat="43.95897" lon="2.22161">
        <ele>209</ele>
        <time>2021-02-25T15:25:59.907Z</time>
      </trkpt>
      <trkpt lat="43.95898" lon="2.22162">
        <ele>209</ele>
        <time>2021-02-25T15:26:00.907Z</time>
      </trkpt>
      <trkpt lat="43.95899" lon="2.22162">
        <ele>208</ele>
        <time>2021-02-25T15:26:01.907Z</time>
      </trkpt>
      <trkpt lat="43.95899" lon="2.22162">
        <ele>208</ele>
        <time>2021-02-25T15:26:02.907Z</time>
      </trkpt>
      <trkpt lat="43.95901" lon="2.22163">
        <ele>208</ele>
        <time>2021-02-25T15:26:03.907Z</time>
      </trkpt>
      <trkpt lat="43.95902" lon="2.22164">
        <ele>208</ele>
        <time>2021-02-25T15:26:04.907Z</time>
      </trkpt>
      <trkpt lat="43.95903" lon="2.22165">
        <ele>208</ele>
        <time>2021-02-25T15:26:05.907Z</time>
      </trkpt>
      <trkpt lat="43.95904" lon="2.22166">
        <ele>207</ele>
        <time>2021-02-25T15:26:06.907Z</time>
      </trkpt>
      <trkpt lat="43.95905" lon="2.22167">
        <ele>207</ele>
        <time>2021-02-25T15:26:07.907Z</time>
      </trkpt>
      <trkpt lat="43.95906" lon="2.22168">
        <ele>207</ele>
        <time>2021-02-25T15:26:08.907Z</time>
      </trkpt>
      <trkpt lat="43.95907" lon="2.22168">
        <ele>207</ele>
        <time>2021-02-25T15:26:09.907Z</time>
      </trkpt>
      <trkpt lat="43.95908" lon="2.22169">
        <ele>207</ele>
        <time>2021-02-25T15:26:10.907Z</time>
      </trkpt>
      <trkpt lat="43.95909" lon="2.2217">
        <ele>207</ele>
        <time>2021-02-25T15:26:11.907Z</time>
      </trkpt>
      <trkpt lat="43.9591" lon="2.22171">
        <ele>207</ele>
        <time>2021-02-25T15:26:12.907Z</time>
      </trkpt>
      <trkpt lat="43.95911" lon="2.22172">
        <ele>207</ele>
        <time>2021-02-25T15:26:13.907Z</time>
      </trkpt>
      <trkpt lat="43.95912" lon="2.22173">
        <ele>207</ele>
        <time>2021-02-25T15:26:14.907Z</time>
      </trkpt>
      <trkpt lat="43.95912" lon="2.22174">
        <ele>207</ele>
        <time>2021-02-25T15:26:15.907Z</time>
      </trkpt>
      <trkpt lat="43.95913" lon="2.22175">
        <ele>207</ele>
        <time>2021-02-25T15:26:16.907Z</time>
      </trkpt>
      <trkpt lat="43.95913" lon="2.22176">
        <ele>207</ele>
        <time>2021-02-25T15:26:17.907Z</time>
      </trkpt>
      <trkpt lat="43.95914" lon="2.22177">
        <ele>207</ele>
        <time>2021-02-25T15:26:18.907Z</time>
      </trkpt>
      <trkpt lat="43.95915" lon="2.22178">
        <ele>207</ele>
        <time>2021-02-25T15:26:19.907Z</time>
      </trkpt>
      <trkpt lat="43.95915" lon="2.22179">
        <ele>206</ele>
        <time>2021-02-25T15:26:20.907Z</time>
      </trkpt>
      <trkpt lat="43.95916" lon="2.2218">
        <ele>206</ele>
        <time>2021-02-25T15:26:21.907Z</time>
      </trkpt>
      <trkpt lat="43.95917" lon="2.22181">
        <ele>206</ele>
        <time>2021-02-25T15:26:22.907Z</time>
      </trkpt>
      <trkpt lat="43.95918" lon="2.22182">
        <ele>206</ele>
        <time>2021-02-25T15:26:23.907Z</time>
      </trkpt>
      <trkpt lat="43.95918" lon="2.22183">
        <ele>206</ele>
        <time>2021-02-25T15:26:24.907Z</time>
      </trkpt>
      <trkpt lat="43.95919" lon="2.22184">
        <ele>206</ele>
        <time>2021-02-25T15:26:25.907Z</time>
      </trkpt>
      <trkpt lat="43.9592" lon="2.22185">
        <ele>206</ele>
        <time>2021-02-25T15:26:26.907Z</time>
      </trkpt>
      <trkpt lat="43.9592" lon="2.22185">
        <ele>206</ele>
        <time>2021-02-25T15:26:27.907Z</time>
      </trkpt>
      <trkpt lat="43.95921" lon="2.22186">
        <ele>206</ele>
        <time>2021-02-25T15:26:28.907Z</time>
      </trkpt>
      <trkpt lat="43.95921" lon="2.22187">
        <ele>206</ele>
        <time>2021-02-25T15:26:29.907Z</time>
      </trkpt>
      <trkpt lat="43.95922" lon="2.22187">
        <ele>206</ele>
        <time>2021-02-25T15:26:30.907Z</time>
      </trkpt>
      <trkpt lat="43.95923" lon="2.22188">
        <ele>206</ele>
        <time>2021-02-25T15:26:31.907Z</time>
      </trkpt>
      <trkpt lat="43.95924" lon="2.22189">
        <ele>206</ele>
        <time>2021-02-25T15:26:32.907Z</time>
      </trkpt>
      <trkpt lat="43.95925" lon="2.22189">
        <ele>206</ele>
        <time>2021-02-25T15:26:33.907Z</time>
      </trkpt>
      <trkpt lat="43.95926" lon="2.2219">
        <ele>206</ele>
        <time>2021-02-25T15:26:34.907Z</time>
      </trkpt>
      <trkpt lat="43.95927" lon="2.2219">
        <ele>206</ele>
        <time>2021-02-25T15:26:35.907Z</time>
      </trkpt>
      <trkpt lat="43.95927" lon="2.22191">
        <ele>206</ele>
        <time>2021-02-25T15:26:36.907Z</time>
      </trkpt>
      <trkpt lat="43.95928" lon="2.22192">
        <ele>206</ele>
        <time>2021-02-25T15:26:37.907Z</time>
      </trkpt>
      <trkpt lat="43.95928" lon="2.22194">
        <ele>206</ele>
        <time>2021-02-25T15:26:38.907Z</time>
      </trkpt>
      <trkpt lat="43.95928" lon="2.22195">
        <ele>206</ele>
        <time>2021-02-25T15:26:39.907Z</time>
      </trkpt>
      <trkpt lat="43.95929" lon="2.22197">
        <ele>206</ele>
        <time>2021-02-25T15:26:40.907Z</time>
      </trkpt>
      <trkpt lat="43.95929" lon="2.22199">
        <ele>206</ele>
        <time>2021-02-25T15:26:41.907Z</time>
      </trkpt>
      <trkpt lat="43.95928" lon="2.222">
        <ele>206</ele>
        <time>2021-02-25T15:26:42.907Z</time>
      </trkpt>
      <trkpt lat="43.95928" lon="2.22201">
        <ele>206</ele>
        <time>2021-02-25T15:26:43.907Z</time>
      </trkpt>
      <trkpt lat="43.95927" lon="2.22202">
        <ele>206</ele>
        <time>2021-02-25T15:26:44.907Z</time>
      </trkpt>
      <trkpt lat="43.95926" lon="2.22202">
        <ele>206</ele>
        <time>2021-02-25T15:26:45.907Z</time>
      </trkpt>
      <trkpt lat="43.95924" lon="2.22202">
        <ele>206</ele>
        <time>2021-02-25T15:26:46.907Z</time>
      </trkpt>
      <trkpt lat="43.95923" lon="2.22202">
        <ele>206</ele>
        <time>2021-02-25T15:26:47.907Z</time>
      </trkpt>
      <trkpt lat="43.95922" lon="2.22202">
        <ele>206</ele>
        <time>2021-02-25T15:26:48.907Z</time>
      </trkpt>
      <trkpt lat="43.95921" lon="2.22202">
        <ele>206</ele>
        <time>2021-02-25T15:26:49.907Z</time>
      </trkpt>
      <trkpt lat="43.9592" lon="2.22202">
        <ele>206</ele>
        <time>2021-02-25T15:26:50.907Z</time>
      </trkpt>
      <trkpt lat="43.95918" lon="2.22202">
        <ele>206</ele>
        <time>2021-02-25T15:26:51.907Z</time>
      </trkpt>
      <trkpt lat="43.95917" lon="2.22202">
        <ele>206</ele>
        <time>2021-02-25T15:26:52.907Z</time>
      </trkpt>
      <trkpt lat="43.95916" lon="2.22201">
        <ele>206</ele>
        <time>2021-02-25T15:26:53.907Z</time>
      </trkpt>
      <trkpt lat="43.95915" lon="2.22201">
        <ele>206</ele>
        <time>2021-02-25T15:26:54.907Z</time>
      </trkpt>
      <trkpt lat="43.95914" lon="2.22201">
        <ele>206</ele>
        <time>2021-02-25T15:26:55.907Z</time>
      </trkpt>
      <trkpt lat="43.95913" lon="2.22201">
        <ele>206</ele>
        <time>2021-02-25T15:26:56.907Z</time>
      </trkpt>
      <trkpt lat="43.95912" lon="2.222">
        <ele>206</ele>
        <time>2021-02-25T15:26:57.907Z</time>
      </trkpt>
      <trkpt lat="43.95911" lon="2.222">
        <ele>206</ele>
        <time>2021-02-25T15:26:58.907Z</time>
      </trkpt>
      <trkpt lat="43.9591" lon="2.222">
        <ele>207</ele>
        <time>2021-02-25T15:26:59.907Z</time>
      </trkpt>
      <trkpt lat="43.95909" lon="2.222">
        <ele>207</ele>
        <time>2021-02-25T15:27:00.907Z</time>
      </trkpt>
      <trkpt lat="43.95908" lon="2.22199">
        <ele>207</ele>
        <time>2021-02-25T15:27:01.907Z</time>
      </trkpt>
      <trkpt lat="43.95907" lon="2.22199">
        <ele>207</ele>
        <time>2021-02-25T15:27:02.907Z</time>
      </trkpt>
      <trkpt lat="43.95906" lon="2.22199">
        <ele>207</ele>
        <time>2021-02-25T15:27:03.907Z</time>
      </trkpt>
      <trkpt lat="43.95905" lon="2.22198">
        <ele>207</ele>
        <time>2021-02-25T15:27:04.907Z</time>
      </trkpt>
      <trkpt lat="43.95903" lon="2.22198">
        <ele>207</ele>
        <time>2021-02-25T15:27:05.907Z</time>
      </trkpt>
      <trkpt lat="43.95902" lon="2.22198">
        <ele>207</ele>
        <time>2021-02-25T15:27:06.907Z</time>
      </trkpt>
      <trkpt lat="43.95901" lon="2.22198">
        <ele>207</ele>
        <time>2021-02-25T15:27:07.907Z</time>
      </trkpt>
      <trkpt lat="43.95899" lon="2.22198">
        <ele>208</ele>
        <time>2021-02-25T15:27:08.907Z</time>
      </trkpt>
      <trkpt lat="43.95898" lon="2.22198">
        <ele>208</ele>
        <time>2021-02-25T15:27:09.907Z</time>
      </trkpt>
      <trkpt lat="43.95897" lon="2.22198">
        <ele>208</ele>
        <time>2021-02-25T15:27:10.907Z</time>
      </trkpt>
      <trkpt lat="43.95896" lon="2.22198">
        <ele>208</ele>
        <time>2021-02-25T15:27:11.907Z</time>
      </trkpt>
      <trkpt lat="43.95895" lon="2.22199">
        <ele>208</ele>
        <time>2021-02-25T15:27:12.907Z</time>
      </trkpt>
      <trkpt lat="43.95894" lon="2.22199">
        <ele>208</ele>
        <time>2021-02-25T15:27:13.907Z</time>
      </trkpt>
      <trkpt lat="43.95892" lon="2.22199">
        <ele>208</ele>
        <time>2021-02-25T15:27:14.907Z</time>
      </trkpt>
      <trkpt lat="43.95891" lon="2.22199">
        <ele>208</ele>
        <time>2021-02-25T15:27:15.907Z</time>
      </trkpt>
      <trkpt lat="43.9589" lon="2.22199">
        <ele>208</ele>
        <time>2021-02-25T15:27:16.907Z</time>
      </trkpt>
      <trkpt lat="43.95889" lon="2.22199">
        <ele>209</ele>
        <time>2021-02-25T15:27:17.907Z</time>
      </trkpt>
      <trkpt lat="43.95888" lon="2.22199">
        <ele>209</ele>
        <time>2021-02-25T15:27:18.907Z</time>
      </trkpt>
      <trkpt lat="43.95887" lon="2.22199">
        <ele>209</ele>
        <time>2021-02-25T15:27:19.907Z</time>
      </trkpt>
      <trkpt lat="43.95886" lon="2.222">
        <ele>209</ele>
        <time>2021-02-25T15:27:20.907Z</time>
      </trkpt>
      <trkpt lat="43.95885" lon="2.222">
        <ele>209</ele>
        <time>2021-02-25T15:27:21.907Z</time>
      </trkpt>
      <trkpt lat="43.95885" lon="2.22201">
        <ele>209</ele>
        <time>2021-02-25T15:27:22.907Z</time>
      </trkpt>
      <trkpt lat="43.95884" lon="2.22201">
        <ele>208</ele>
        <time>2021-02-25T15:27:23.907Z</time>
      </trkpt>
      <trkpt lat="43.95883" lon="2.22202">
        <ele>208</ele>
        <time>2021-02-25T15:27:24.907Z</time>
      </trkpt>
      <trkpt lat="43.95883" lon="2.22203">
        <ele>208</ele>
        <time>2021-02-25T15:27:25.907Z</time>
      </trkpt>
      <trkpt lat="43.95882" lon="2.22204">
        <ele>207</ele>
        <time>2021-02-25T15:27:26.907Z</time>
      </trkpt>
      <trkpt lat="43.95882" lon="2.22205">
        <ele>207</ele>
        <time>2021-02-25T15:27:27.907Z</time>
      </trkpt>
      <trkpt lat="43.95881" lon="2.22206">
        <ele>207</ele>
        <time>2021-02-25T15:27:28.907Z</time>
      </trkpt>
      <trkpt lat="43.95881" lon="2.22207">
        <ele>206</ele>
        <time>2021-02-25T15:27:29.907Z</time>
      </trkpt>
      <trkpt lat="43.9588" lon="2.22208">
        <ele>206</ele>
        <time>2021-02-25T15:27:30.907Z</time>
      </trkpt>
      <trkpt lat="43.95879" lon="2.22209">
        <ele>205</ele>
        <time>2021-02-25T15:27:31.907Z</time>
      </trkpt>
      <trkpt lat="43.95879" lon="2.2221">
        <ele>205</ele>
        <time>2021-02-25T15:27:32.907Z</time>
      </trkpt>
      <trkpt lat="43.95879" lon="2.22211">
        <ele>205</ele>
        <time>2021-02-25T15:27:33.907Z</time>
      </trkpt>
      <trkpt lat="43.95878" lon="2.22212">
        <ele>204</ele>
        <time>2021-02-25T15:27:34.907Z</time>
      </trkpt>
      <trkpt lat="43.95878" lon="2.22213">
        <ele>204</ele>
        <time>2021-02-25T15:27:35.907Z</time>
      </trkpt>
      <trkpt lat="43.95877" lon="2.22214">
        <ele>204</ele>
        <time>2021-02-25T15:27:36.907Z</time>
      </trkpt>
      <trkpt lat="43.95877" lon="2.22214">
        <ele>203</ele>
        <time>2021-02-25T15:27:37.907Z</time>
      </trkpt>
      <trkpt lat="43.95876" lon="2.22215">
        <ele>203</ele>
        <time>2021-02-25T15:27:38.907Z</time>
      </trkpt>
      <trkpt lat="43.95876" lon="2.22216">
        <ele>203</ele>
        <time>2021-02-25T15:27:39.907Z</time>
      </trkpt>
      <trkpt lat="43.95875" lon="2.22216">
        <ele>202</ele>
        <time>2021-02-25T15:27:40.907Z</time>
      </trkpt>
      <trkpt lat="43.95875" lon="2.22217">
        <ele>202</ele>
        <time>2021-02-25T15:27:41.907Z</time>
      </trkpt>
      <trkpt lat="43.95874" lon="2.22218">
        <ele>202</ele>
        <time>2021-02-25T15:27:42.907Z</time>
      </trkpt>
      <trkpt lat="43.95873" lon="2.22219">
        <ele>202</ele>
        <time>2021-02-25T15:27:43.907Z</time>
      </trkpt>
      <trkpt lat="43.95873" lon="2.2222">
        <ele>201</ele>
        <time>2021-02-25T15:27:44.907Z</time>
      </trkpt>
      <trkpt lat="43.95872" lon="2.22221">
        <ele>201</ele>
        <time>2021-02-25T15:27:45.907Z</time>
      </trkpt>
      <trkpt lat="43.95871" lon="2.22222">
        <ele>201</ele>
        <time>2021-02-25T15:27:46.907Z</time>
      </trkpt>
      <trkpt lat="43.95871" lon="2.22224">
        <ele>200</ele>
        <time>2021-02-25T15:27:47.907Z</time>
      </trkpt>
      <trkpt lat="43.9587" lon="2.22225">
        <ele>200</ele>
        <time>2021-02-25T15:27:48.907Z</time>
      </trkpt>
      <trkpt lat="43.95869" lon="2.22226">
        <ele>200</ele>
        <time>2021-02-25T15:27:49.907Z</time>
      </trkpt>
      <trkpt lat="43.95868" lon="2.22227">
        <ele>200</ele>
        <time>2021-02-25T15:27:50.907Z</time>
      </trkpt>
      <trkpt lat="43.95867" lon="2.22228">
        <ele>199</ele>
        <time>2021-02-25T15:27:51.907Z</time>
      </trkpt>
      <trkpt lat="43.95866" lon="2.22229">
        <ele>199</ele>
        <time>2021-02-25T15:27:52.907Z</time>
      </trkpt>
      <trkpt lat="43.95865" lon="2.2223">
        <ele>199</ele>
        <time>2021-02-25T15:27:53.907Z</time>
      </trkpt>
      <trkpt lat="43.95865" lon="2.22231">
        <ele>199</ele>
        <time>2021-02-25T15:27:54.907Z</time>
      </trkpt>
      <trkpt lat="43.95864" lon="2.22231">
        <ele>199</ele>
        <time>2021-02-25T15:27:55.907Z</time>
      </trkpt>
      <trkpt lat="43.95863" lon="2.22232">
        <ele>199</ele>
        <time>2021-02-25T15:27:56.907Z</time>
      </trkpt>
      <trkpt lat="43.95861" lon="2.22232">
        <ele>198</ele>
        <time>2021-02-25T15:27:57.907Z</time>
      </trkpt>
      <trkpt lat="43.9586" lon="2.22233">
        <ele>198</ele>
        <time>2021-02-25T15:27:58.907Z</time>
      </trkpt>
      <trkpt lat="43.95859" lon="2.22234">
        <ele>198</ele>
        <time>2021-02-25T15:27:59.907Z</time>
      </trkpt>
      <trkpt lat="43.95859" lon="2.22234">
        <ele>198</ele>
        <time>2021-02-25T15:28:00.907Z</time>
      </trkpt>
      <trkpt lat="43.95858" lon="2.22235">
        <ele>198</ele>
        <time>2021-02-25T15:28:01.907Z</time>
      </trkpt>
      <trkpt lat="43.95857" lon="2.22235">
        <ele>198</ele>
        <time>2021-02-25T15:28:02.907Z</time>
      </trkpt>
      <trkpt lat="43.95855" lon="2.22235">
        <ele>197</ele>
        <time>2021-02-25T15:28:03.907Z</time>
      </trkpt>
      <trkpt lat="43.95853" lon="2.22235">
        <ele>197</ele>
        <time>2021-02-25T15:28:04.907Z</time>
      </trkpt>
      <trkpt lat="43.95852" lon="2.22236">
        <ele>197</ele>
        <time>2021-02-25T15:28:05.907Z</time>
      </trkpt>
      <trkpt lat="43.95851" lon="2.22236">
        <ele>197</ele>
        <time>2021-02-25T15:28:06.907Z</time>
      </trkpt>
      <trkpt lat="43.95849" lon="2.22236">
        <ele>197</ele>
        <time>2021-02-25T15:28:07.907Z</time>
      </trkpt>
      <trkpt lat="43.95848" lon="2.22237">
        <ele>196</ele>
        <time>2021-02-25T15:28:08.907Z</time>
      </trkpt>
      <trkpt lat="43.95846" lon="2.22237">
        <ele>196</ele>
        <time>2021-02-25T15:28:09.907Z</time>
      </trkpt>
      <trkpt lat="43.95844" lon="2.22237">
        <ele>196</ele>
        <time>2021-02-25T15:28:10.907Z</time>
      </trkpt>
      <trkpt lat="43.95843" lon="2.22238">
        <ele>196</ele>
        <time>2021-02-25T15:28:11.907Z</time>
      </trkpt>
      <trkpt lat="43.95841" lon="2.22238">
        <ele>196</ele>
        <time>2021-02-25T15:28:12.907Z</time>
      </trkpt>
      <trkpt lat="43.9584" lon="2.22238">
        <ele>196</ele>
        <time>2021-02-25T15:28:13.907Z</time>
      </trkpt>
      <trkpt lat="43.95839" lon="2.22238">
        <ele>196</ele>
        <time>2021-02-25T15:28:14.907Z</time>
      </trkpt>
      <trkpt lat="43.95837" lon="2.22238">
        <ele>196</ele>
        <time>2021-02-25T15:28:15.907Z</time>
      </trkpt>
      <trkpt lat="43.95836" lon="2.22239">
        <ele>196</ele>
        <time>2021-02-25T15:28:16.907Z</time>
      </trkpt>
      <trkpt lat="43.95834" lon="2.22239">
        <ele>196</ele>
        <time>2021-02-25T15:28:17.907Z</time>
      </trkpt>
      <trkpt lat="43.95833" lon="2.22239">
        <ele>196</ele>
        <time>2021-02-25T15:28:18.907Z</time>
      </trkpt>
      <trkpt lat="43.95832" lon="2.22239">
        <ele>196</ele>
        <time>2021-02-25T15:28:19.907Z</time>
      </trkpt>
      <trkpt lat="43.95831" lon="2.22239">
        <ele>196</ele>
        <time>2021-02-25T15:28:20.907Z</time>
      </trkpt>
      <trkpt lat="43.95829" lon="2.22239">
        <ele>196</ele>
        <time>2021-02-25T15:28:21.907Z</time>
      </trkpt>
      <trkpt lat="43.95828" lon="2.22239">
        <ele>197</ele>
        <time>2021-02-25T15:28:22.907Z</time>
      </trkpt>
      <trkpt lat="43.95826" lon="2.22239">
        <ele>197</ele>
        <time>2021-02-25T15:28:23.907Z</time>
      </trkpt>
      <trkpt lat="43.95825" lon="2.22239">
        <ele>197</ele>
        <time>2021-02-25T15:28:24.907Z</time>
      </trkpt>
      <trkpt lat="43.95824" lon="2.22239">
        <ele>197</ele>
        <time>2021-02-25T15:28:25.907Z</time>
      </trkpt>
      <trkpt lat="43.95822" lon="2.2224">
        <ele>197</ele>
        <time>2021-02-25T15:28:26.907Z</time>
      </trkpt>
      <trkpt lat="43.95821" lon="2.2224">
        <ele>197</ele>
        <time>2021-02-25T15:28:27.907Z</time>
      </trkpt>
      <trkpt lat="43.95821" lon="2.2224">
        <ele>198</ele>
        <time>2021-02-25T15:28:28.907Z</time>
      </trkpt>
      <trkpt lat="43.9582" lon="2.2224">
        <ele>198</ele>
        <time>2021-02-25T15:28:29.907Z</time>
      </trkpt>
      <trkpt lat="43.95819" lon="2.22241">
        <ele>198</ele>
        <time>2021-02-25T15:28:30.907Z</time>
      </trkpt>
      <trkpt lat="43.95817" lon="2.22241">
        <ele>198</ele>
        <time>2021-02-25T15:28:31.907Z</time>
      </trkpt>
      <trkpt lat="43.95816" lon="2.22241">
        <ele>199</ele>
        <time>2021-02-25T15:28:32.907Z</time>
      </trkpt>
      <trkpt lat="43.95815" lon="2.22241">
        <ele>199</ele>
        <time>2021-02-25T15:28:33.907Z</time>
      </trkpt>
      <trkpt lat="43.95814" lon="2.22241">
        <ele>199</ele>
        <time>2021-02-25T15:28:34.907Z</time>
      </trkpt>
      <trkpt lat="43.95812" lon="2.22241">
        <ele>199</ele>
        <time>2021-02-25T15:28:35.907Z</time>
      </trkpt>
      <trkpt lat="43.95811" lon="2.22241">
        <ele>200</ele>
        <time>2021-02-25T15:28:36.907Z</time>
      </trkpt>
      <trkpt lat="43.9581" lon="2.22241">
        <ele>200</ele>
        <time>2021-02-25T15:28:37.907Z</time>
      </trkpt>
      <trkpt lat="43.95808" lon="2.22242">
        <ele>200</ele>
        <time>2021-02-25T15:28:38.907Z</time>
      </trkpt>
      <trkpt lat="43.95807" lon="2.22242">
        <ele>200</ele>
        <time>2021-02-25T15:28:39.907Z</time>
      </trkpt>
      <trkpt lat="43.95805" lon="2.22242">
        <ele>201</ele>
        <time>2021-02-25T15:28:40.907Z</time>
      </trkpt>
      <trkpt lat="43.95804" lon="2.22242">
        <ele>201</ele>
        <time>2021-02-25T15:28:41.907Z</time>
      </trkpt>
      <trkpt lat="43.95802" lon="2.22242">
        <ele>201</ele>
        <time>2021-02-25T15:28:42.907Z</time>
      </trkpt>
      <trkpt lat="43.95801" lon="2.22242">
        <ele>202</ele>
        <time>2021-02-25T15:28:43.907Z</time>
      </trkpt>
      <trkpt lat="43.95799" lon="2.22242">
        <ele>202</ele>
        <time>2021-02-25T15:28:44.907Z</time>
      </trkpt>
      <trkpt lat="43.95798" lon="2.22242">
        <ele>203</ele>
        <time>2021-02-25T15:28:45.907Z</time>
      </trkpt>
      <trkpt lat="43.95797" lon="2.22242">
        <ele>203</ele>
        <time>2021-02-25T15:28:46.907Z</time>
      </trkpt>
      <trkpt lat="43.95796" lon="2.22242">
        <ele>203</ele>
        <time>2021-02-25T15:28:47.907Z</time>
      </trkpt>
      <trkpt lat="43.95795" lon="2.22242">
        <ele>204</ele>
        <time>2021-02-25T15:28:48.907Z</time>
      </trkpt>
      <trkpt lat="43.95793" lon="2.22243">
        <ele>204</ele>
        <time>2021-02-25T15:28:49.907Z</time>
      </trkpt>
      <trkpt lat="43.95792" lon="2.22243">
        <ele>204</ele>
        <time>2021-02-25T15:28:50.907Z</time>
      </trkpt>
      <trkpt lat="43.95791" lon="2.22243">
        <ele>205</ele>
        <time>2021-02-25T15:28:51.907Z</time>
      </trkpt>
      <trkpt lat="43.9579" lon="2.22243">
        <ele>205</ele>
        <time>2021-02-25T15:28:52.907Z</time>
      </trkpt>
      <trkpt lat="43.95789" lon="2.22243">
        <ele>205</ele>
        <time>2021-02-25T15:28:53.907Z</time>
      </trkpt>
      <trkpt lat="43.95788" lon="2.22243">
        <ele>205</ele>
        <time>2021-02-25T15:28:54.907Z</time>
      </trkpt>
      <trkpt lat="43.95786" lon="2.22243">
        <ele>206</ele>
        <time>2021-02-25T15:28:55.907Z</time>
      </trkpt>
      <trkpt lat="43.95785" lon="2.22243">
        <ele>206</ele>
        <time>2021-02-25T15:28:56.907Z</time>
      </trkpt>
      <trkpt lat="43.95784" lon="2.22243">
        <ele>206</ele>
        <time>2021-02-25T15:28:57.907Z</time>
      </trkpt>
      <trkpt lat="43.95782" lon="2.22242">
        <ele>206</ele>
        <time>2021-02-25T15:28:58.907Z</time>
      </trkpt>
      <trkpt lat="43.95781" lon="2.22242">
        <ele>207</ele>
        <time>2021-02-25T15:28:59.907Z</time>
      </trkpt>
      <trkpt lat="43.9578" lon="2.22241">
        <ele>207</ele>
        <time>2021-02-25T15:29:00.907Z</time>
      </trkpt>
      <trkpt lat="43.95778" lon="2.22241">
        <ele>207</ele>
        <time>2021-02-25T15:29:01.907Z</time>
      </trkpt>
      <trkpt lat="43.95777" lon="2.2224">
        <ele>207</ele>
        <time>2021-02-25T15:29:02.907Z</time>
      </trkpt>
      <trkpt lat="43.95776" lon="2.2224">
        <ele>207</ele>
        <time>2021-02-25T15:29:03.907Z</time>
      </trkpt>
      <trkpt lat="43.95775" lon="2.22239">
        <ele>207</ele>
        <time>2021-02-25T15:29:04.907Z</time>
      </trkpt>
      <trkpt lat="43.95773" lon="2.22239">
        <ele>207</ele>
        <time>2021-02-25T15:29:05.907Z</time>
      </trkpt>
      <trkpt lat="43.95772" lon="2.22238">
        <ele>207</ele>
        <time>2021-02-25T15:29:06.907Z</time>
      </trkpt>
      <trkpt lat="43.95771" lon="2.22237">
        <ele>207</ele>
        <time>2021-02-25T15:29:07.907Z</time>
      </trkpt>
      <trkpt lat="43.9577" lon="2.22236">
        <ele>207</ele>
        <time>2021-02-25T15:29:08.907Z</time>
      </trkpt>
      <trkpt lat="43.95769" lon="2.22235">
        <ele>207</ele>
        <time>2021-02-25T15:29:09.907Z</time>
      </trkpt>
      <trkpt lat="43.95768" lon="2.22234">
        <ele>207</ele>
        <time>2021-02-25T15:29:10.907Z</time>
      </trkpt>
      <trkpt lat="43.95767" lon="2.22233">
        <ele>207</ele>
        <time>2021-02-25T15:29:11.907Z</time>
      </trkpt>
      <trkpt lat="43.95766" lon="2.22232">
        <ele>207</ele>
        <time>2021-02-25T15:29:12.907Z</time>
      </trkpt>
      <trkpt lat="43.95766" lon="2.2223">
        <ele>207</ele>
        <time>2021-02-25T15:29:13.907Z</time>
      </trkpt>
      <trkpt lat="43.95765" lon="2.22229">
        <ele>207</ele>
        <time>2021-02-25T15:29:14.907Z</time>
      </trkpt>
      <trkpt lat="43.95765" lon="2.22228">
        <ele>207</ele>
        <time>2021-02-25T15:29:15.907Z</time>
      </trkpt>
      <trkpt lat="43.95764" lon="2.22226">
        <ele>207</ele>
        <time>2021-02-25T15:29:16.907Z</time>
      </trkpt>
      <trkpt lat="43.95764" lon="2.22225">
        <ele>207</ele>
        <time>2021-02-25T15:29:17.907Z</time>
      </trkpt>
      <trkpt lat="43.95763" lon="2.22224">
        <ele>207</ele>
        <time>2021-02-25T15:29:18.907Z</time>
      </trkpt>
      <trkpt lat="43.95763" lon="2.22223">
        <ele>206</ele>
        <time>2021-02-25T15:29:19.907Z</time>
      </trkpt>
      <trkpt lat="43.95762" lon="2.22221">
        <ele>206</ele>
        <time>2021-02-25T15:29:20.907Z</time>
      </trkpt>
      <trkpt lat="43.95762" lon="2.2222">
        <ele>206</ele>
        <time>2021-02-25T15:29:21.907Z</time>
      </trkpt>
      <trkpt lat="43.95761" lon="2.22219">
        <ele>206</ele>
        <time>2021-02-25T15:29:22.907Z</time>
      </trkpt>
      <trkpt lat="43.95761" lon="2.22218">
        <ele>206</ele>
        <time>2021-02-25T15:29:23.907Z</time>
      </trkpt>
      <trkpt lat="43.9576" lon="2.22217">
        <ele>205</ele>
        <time>2021-02-25T15:29:24.907Z</time>
      </trkpt>
      <trkpt lat="43.9576" lon="2.22216">
        <ele>205</ele>
        <time>2021-02-25T15:29:25.907Z</time>
      </trkpt>
      <trkpt lat="43.9576" lon="2.22215">
        <ele>205</ele>
        <time>2021-02-25T15:29:26.907Z</time>
      </trkpt>
      <trkpt lat="43.9576" lon="2.22214">
        <ele>205</ele>
        <time>2021-02-25T15:29:27.907Z</time>
      </trkpt>
      <trkpt lat="43.9576" lon="2.22214">
        <ele>205</ele>
        <time>2021-02-25T15:29:28.907Z</time>
      </trkpt>
      <trkpt lat="43.9576" lon="2.22213">
        <ele>204</ele>
        <time>2021-02-25T15:29:29.907Z</time>
      </trkpt>
      <trkpt lat="43.9576" lon="2.22212">
        <ele>204</ele>
        <time>2021-02-25T15:29:30.907Z</time>
      </trkpt>
      <trkpt lat="43.9576" lon="2.2221">
        <ele>204</ele>
        <time>2021-02-25T15:29:31.907Z</time>
      </trkpt>
      <trkpt lat="43.9576" lon="2.22209">
        <ele>204</ele>
        <time>2021-02-25T15:29:32.907Z</time>
      </trkpt>
      <trkpt lat="43.95759" lon="2.22207">
        <ele>204</ele>
        <time>2021-02-25T15:29:33.907Z</time>
      </trkpt>
      <trkpt lat="43.95759" lon="2.22205">
        <ele>203</ele>
        <time>2021-02-25T15:29:34.907Z</time>
      </trkpt>
      <trkpt lat="43.95759" lon="2.22204">
        <ele>203</ele>
        <time>2021-02-25T15:29:35.907Z</time>
      </trkpt>
      <trkpt lat="43.95759" lon="2.22202">
        <ele>203</ele>
        <time>2021-02-25T15:29:36.907Z</time>
      </trkpt>
      <trkpt lat="43.95759" lon="2.222">
        <ele>203</ele>
        <time>2021-02-25T15:29:37.907Z</time>
      </trkpt>
      <trkpt lat="43.95759" lon="2.22197">
        <ele>202</ele>
        <time>2021-02-25T15:29:38.907Z</time>
      </trkpt>
      <trkpt lat="43.95759" lon="2.22195">
        <ele>202</ele>
        <time>2021-02-25T15:29:39.907Z</time>
      </trkpt>
      <trkpt lat="43.95758" lon="2.22193">
        <ele>202</ele>
        <time>2021-02-25T15:29:40.907Z</time>
      </trkpt>
      <trkpt lat="43.95758" lon="2.22192">
        <ele>201</ele>
        <time>2021-02-25T15:29:41.907Z</time>
      </trkpt>
      <trkpt lat="43.95758" lon="2.2219">
        <ele>201</ele>
        <time>2021-02-25T15:29:42.907Z</time>
      </trkpt>
      <trkpt lat="43.95758" lon="2.22188">
        <ele>201</ele>
        <time>2021-02-25T15:29:43.907Z</time>
      </trkpt>
      <trkpt lat="43.95758" lon="2.22186">
        <ele>201</ele>
        <time>2021-02-25T15:29:44.907Z</time>
      </trkpt>
      <trkpt lat="43.95757" lon="2.22185">
        <ele>200</ele>
        <time>2021-02-25T15:29:45.907Z</time>
      </trkpt>
      <trkpt lat="43.95756" lon="2.22183">
        <ele>200</ele>
        <time>2021-02-25T15:29:46.907Z</time>
      </trkpt>
      <trkpt lat="43.95756" lon="2.22182">
        <ele>200</ele>
        <time>2021-02-25T15:29:47.907Z</time>
      </trkpt>
      <trkpt lat="43.95755" lon="2.22181">
        <ele>199</ele>
        <time>2021-02-25T15:29:48.907Z</time>
      </trkpt>
      <trkpt lat="43.95754" lon="2.2218">
        <ele>199</ele>
        <time>2021-02-25T15:29:49.907Z</time>
      </trkpt>
      <trkpt lat="43.95753" lon="2.22179">
        <ele>199</ele>
        <time>2021-02-25T15:29:50.907Z</time>
      </trkpt>
      <trkpt lat="43.95753" lon="2.22178">
        <ele>199</ele>
        <time>2021-02-25T15:30:00.918Z</time>
      </trkpt>
      <trkpt lat="43.95752" lon="2.22177">
        <ele>198</ele>
        <time>2021-02-25T15:30:01.918Z</time>
      </trkpt>
      <trkpt lat="43.95751" lon="2.22176">
        <ele>198</ele>
        <time>2021-02-25T15:30:10.914Z</time>
      </trkpt>
      <trkpt lat="43.95751" lon="2.22176">
        <ele>198</ele>
        <time>2021-02-25T15:30:11.914Z</time>
      </trkpt>
      <trkpt lat="43.9575" lon="2.22175">
        <ele>198</ele>
        <time>2021-02-25T15:30:12.914Z</time>
      </trkpt>
      <trkpt lat="43.95749" lon="2.22174">
        <ele>198</ele>
        <time>2021-02-25T15:30:13.914Z</time>
      </trkpt>
      <trkpt lat="43.95747" lon="2.22173">
        <ele>197</ele>
        <time>2021-02-25T15:30:14.914Z</time>
      </trkpt>
      <trkpt lat="43.95746" lon="2.22171">
        <ele>197</ele>
        <time>2021-02-25T15:30:15.914Z</time>
      </trkpt>
      <trkpt lat="43.95745" lon="2.2217">
        <ele>197</ele>
        <time>2021-02-25T15:30:16.914Z</time>
      </trkpt>
      <trkpt lat="43.95743" lon="2.22169">
        <ele>197</ele>
        <time>2021-02-25T15:30:17.914Z</time>
      </trkpt>
      <trkpt lat="43.95742" lon="2.22168">
        <ele>197</ele>
        <time>2021-02-25T15:30:18.914Z</time>
      </trkpt>
      <trkpt lat="43.95741" lon="2.22167">
        <ele>197</ele>
        <time>2021-02-25T15:30:19.914Z</time>
      </trkpt>
      <trkpt lat="43.9574" lon="2.22166">
        <ele>197</ele>
        <time>2021-02-25T15:30:20.914Z</time>
      </trkpt>
      <trkpt lat="43.95739" lon="2.22165">
        <ele>197</ele>
        <time>2021-02-25T15:30:21.914Z</time>
      </trkpt>
      <trkpt lat="43.95738" lon="2.22164">
        <ele>196</ele>
        <time>2021-02-25T15:30:22.914Z</time>
      </trkpt>
      <trkpt lat="43.95737" lon="2.22163">
        <ele>196</ele>
        <time>2021-02-25T15:30:23.914Z</time>
      </trkpt>
      <trkpt lat="43.95737" lon="2.22161">
        <ele>196</ele>
        <time>2021-02-25T15:30:24.914Z</time>
      </trkpt>
      <trkpt lat="43.95736" lon="2.2216">
        <ele>196</ele>
        <time>2021-02-25T15:30:25.914Z</time>
      </trkpt>
      <trkpt lat="43.95735" lon="2.22159">
        <ele>196</ele>
        <time>2021-02-25T15:30:26.914Z</time>
      </trkpt>
      <trkpt lat="43.95735" lon="2.22158">
        <ele>196</ele>
        <time>2021-02-25T15:30:27.914Z</time>
      </trkpt>
      <trkpt lat="43.95734" lon="2.22156">
        <ele>196</ele>
        <time>2021-02-25T15:30:28.914Z</time>
      </trkpt>
      <trkpt lat="43.95734" lon="2.22154">
        <ele>196</ele>
        <time>2021-02-25T15:30:29.914Z</time>
      </trkpt>
      <trkpt lat="43.95733" lon="2.22153">
        <ele>196</ele>
        <time>2021-02-25T15:30:30.914Z</time>
      </trkpt>
      <trkpt lat="43.95732" lon="2.22151">
        <ele>196</ele>
        <time>2021-02-25T15:30:31.914Z</time>
      </trkpt>
      <trkpt lat="43.95731" lon="2.2215">
        <ele>196</ele>
        <time>2021-02-25T15:30:32.914Z</time>
      </trkpt>
      <trkpt lat="43.95731" lon="2.22148">
        <ele>196</ele>
        <time>2021-02-25T15:30:33.914Z</time>
      </trkpt>
      <trkpt lat="43.9573" lon="2.22146">
        <ele>196</ele>
        <time>2021-02-25T15:30:34.914Z</time>
      </trkpt>
      <trkpt lat="43.95729" lon="2.22144">
        <ele>196</ele>
        <time>2021-02-25T15:30:35.914Z</time>
      </trkpt>
      <trkpt lat="43.95728" lon="2.22143">
        <ele>196</ele>
        <time>2021-02-25T15:30:36.914Z</time>
      </trkpt>
      <trkpt lat="43.95728" lon="2.22141">
        <ele>196</ele>
        <time>2021-02-25T15:30:37.914Z</time>
      </trkpt>
      <trkpt lat="43.95727" lon="2.22139">
        <ele>196</ele>
        <time>2021-02-25T15:30:38.914Z</time>
      </trkpt>
      <trkpt lat="43.95726" lon="2.22138">
        <ele>196</ele>
        <time>2021-02-25T15:30:39.914Z</time>
      </trkpt>
      <trkpt lat="43.95726" lon="2.22136">
        <ele>196</ele>
        <time>2021-02-25T15:30:40.914Z</time>
      </trkpt>
      <trkpt lat="43.95726" lon="2.22134">
        <ele>196</ele>
        <time>2021-02-25T15:30:41.914Z</time>
      </trkpt>
      <trkpt lat="43.95725" lon="2.22132">
        <ele>196</ele>
        <time>2021-02-25T15:30:42.914Z</time>
      </trkpt>
      <trkpt lat="43.95725" lon="2.22131">
        <ele>196</ele>
        <time>2021-02-25T15:30:43.914Z</time>
      </trkpt>
      <trkpt lat="43.95724" lon="2.2213">
        <ele>196</ele>
        <time>2021-02-25T15:30:44.914Z</time>
      </trkpt>
      <trkpt lat="43.95723" lon="2.22128">
        <ele>195</ele>
        <time>2021-02-25T15:30:45.914Z</time>
      </trkpt>
      <trkpt lat="43.95722" lon="2.22127">
        <ele>195</ele>
        <time>2021-02-25T15:30:46.914Z</time>
      </trkpt>
      <trkpt lat="43.95722" lon="2.22126">
        <ele>195</ele>
        <time>2021-02-25T15:30:47.914Z</time>
      </trkpt>
      <trkpt lat="43.95721" lon="2.22125">
        <ele>195</ele>
        <time>2021-02-25T15:30:48.914Z</time>
      </trkpt>
      <trkpt lat="43.9572" lon="2.22124">
        <ele>195</ele>
        <time>2021-02-25T15:30:49.914Z</time>
      </trkpt>
      <trkpt lat="43.95719" lon="2.22124">
        <ele>195</ele>
        <time>2021-02-25T15:30:50.914Z</time>
      </trkpt>
      <trkpt lat="43.95718" lon="2.22123">
        <ele>195</ele>
        <time>2021-02-25T15:30:51.914Z</time>
      </trkpt>
      <trkpt lat="43.95717" lon="2.22121">
        <ele>195</ele>
        <time>2021-02-25T15:30:52.914Z</time>
      </trkpt>
      <trkpt lat="43.95716" lon="2.2212">
        <ele>195</ele>
        <time>2021-02-25T15:30:53.914Z</time>
      </trkpt>
      <trkpt lat="43.95715" lon="2.22119">
        <ele>195</ele>
        <time>2021-02-25T15:30:54.914Z</time>
      </trkpt>
      <trkpt lat="43.95713" lon="2.22118">
        <ele>195</ele>
        <time>2021-02-25T15:30:55.914Z</time>
      </trkpt>
      <trkpt lat="43.95712" lon="2.22116">
        <ele>195</ele>
        <time>2021-02-25T15:30:56.914Z</time>
      </trkpt>
      <trkpt lat="43.95711" lon="2.22115">
        <ele>195</ele>
        <time>2021-02-25T15:30:57.914Z</time>
      </trkpt>
      <trkpt lat="43.9571" lon="2.22114">
        <ele>195</ele>
        <time>2021-02-25T15:30:58.914Z</time>
      </trkpt>
      <trkpt lat="43.95709" lon="2.22112">
        <ele>195</ele>
        <time>2021-02-25T15:30:59.914Z</time>
      </trkpt>
      <trkpt lat="43.95708" lon="2.22111">
        <ele>195</ele>
        <time>2021-02-25T15:31:00.914Z</time>
      </trkpt>
      <trkpt lat="43.95708" lon="2.2211">
        <ele>194</ele>
        <time>2021-02-25T15:31:01.914Z</time>
      </trkpt>
      <trkpt lat="43.95707" lon="2.22108">
        <ele>194</ele>
        <time>2021-02-25T15:31:02.914Z</time>
      </trkpt>
      <trkpt lat="43.95706" lon="2.22107">
        <ele>194</ele>
        <time>2021-02-25T15:31:03.914Z</time>
      </trkpt>
      <trkpt lat="43.95705" lon="2.22105">
        <ele>194</ele>
        <time>2021-02-25T15:31:04.914Z</time>
      </trkpt>
      <trkpt lat="43.95704" lon="2.22103">
        <ele>194</ele>
        <time>2021-02-25T15:31:05.914Z</time>
      </trkpt>
      <trkpt lat="43.95704" lon="2.22102">
        <ele>194</ele>
        <time>2021-02-25T15:31:06.914Z</time>
      </trkpt>
      <trkpt lat="43.95703" lon="2.221">
        <ele>194</ele>
        <time>2021-02-25T15:31:07.914Z</time>
      </trkpt>
      <trkpt lat="43.95703" lon="2.22099">
        <ele>194</ele>
        <time>2021-02-25T15:31:08.914Z</time>
      </trkpt>
      <trkpt lat="43.95702" lon="2.22097">
        <ele>194</ele>
        <time>2021-02-25T15:31:09.914Z</time>
      </trkpt>
      <trkpt lat="43.95702" lon="2.22096">
        <ele>193</ele>
        <time>2021-02-25T15:31:10.914Z</time>
      </trkpt>
      <trkpt lat="43.95701" lon="2.22095">
        <ele>193</ele>
        <time>2021-02-25T15:31:11.914Z</time>
      </trkpt>
      <trkpt lat="43.95701" lon="2.22093">
        <ele>193</ele>
        <time>2021-02-25T15:31:12.914Z</time>
      </trkpt>
      <trkpt lat="43.957" lon="2.22092">
        <ele>193</ele>
        <time>2021-02-25T15:31:13.914Z</time>
      </trkpt>
      <trkpt lat="43.957" lon="2.22091">
        <ele>193</ele>
        <time>2021-02-25T15:31:14.914Z</time>
      </trkpt>
      <trkpt lat="43.95699" lon="2.22089">
        <ele>193</ele>
        <time>2021-02-25T15:31:15.914Z</time>
      </trkpt>
      <trkpt lat="43.95698" lon="2.22088">
        <ele>192</ele>
        <time>2021-02-25T15:31:16.914Z</time>
      </trkpt>
      <trkpt lat="43.95698" lon="2.22086">
        <ele>192</ele>
        <time>2021-02-25T15:31:17.914Z</time>
      </trkpt>
      <trkpt lat="43.95697" lon="2.22085">
        <ele>192</ele>
        <time>2021-02-25T15:31:18.914Z</time>
      </trkpt>
      <trkpt lat="43.95697" lon="2.22083">
        <ele>192</ele>
        <time>2021-02-25T15:31:19.914Z</time>
      </trkpt>
      <trkpt lat="43.95696" lon="2.22082">
        <ele>192</ele>
        <time>2021-02-25T15:31:20.914Z</time>
      </trkpt>
      <trkpt lat="43.95695" lon="2.22081">
        <ele>192</ele>
        <time>2021-02-25T15:31:21.914Z</time>
      </trkpt>
      <trkpt lat="43.95694" lon="2.22079">
        <ele>192</ele>
        <time>2021-02-25T15:31:22.914Z</time>
      </trkpt>
      <trkpt lat="43.95694" lon="2.22078">
        <ele>192</ele>
        <time>2021-02-25T15:31:23.914Z</time>
      </trkpt>
      <trkpt lat="43.95693" lon="2.22076">
        <ele>192</ele>
        <time>2021-02-25T15:31:24.914Z</time>
      </trkpt>
      <trkpt lat="43.95692" lon="2.22075">
        <ele>192</ele>
        <time>2021-02-25T15:31:25.914Z</time>
      </trkpt>
      <trkpt lat="43.95691" lon="2.22074">
        <ele>192</ele>
        <time>2021-02-25T15:31:26.914Z</time>
      </trkpt>
      <trkpt lat="43.9569" lon="2.22073">
        <ele>192</ele>
        <time>2021-02-25T15:31:27.914Z</time>
      </trkpt>
      <trkpt lat="43.95689" lon="2.22071">
        <ele>192</ele>
        <time>2021-02-25T15:31:28.914Z</time>
      </trkpt>
      <trkpt lat="43.95688" lon="2.2207">
        <ele>193</ele>
        <time>2021-02-25T15:31:29.914Z</time>
      </trkpt>
      <trkpt lat="43.95687" lon="2.22068">
        <ele>193</ele>
        <time>2021-02-25T15:31:30.914Z</time>
      </trkpt>
      <trkpt lat="43.95686" lon="2.22067">
        <ele>193</ele>
        <time>2021-02-25T15:31:31.914Z</time>
      </trkpt>
      <trkpt lat="43.95686" lon="2.22066">
        <ele>193</ele>
        <time>2021-02-25T15:31:32.914Z</time>
      </trkpt>
      <trkpt lat="43.95685" lon="2.22065">
        <ele>193</ele>
        <time>2021-02-25T15:31:33.914Z</time>
      </trkpt>
      <trkpt lat="43.95684" lon="2.22063">
        <ele>193</ele>
        <time>2021-02-25T15:31:34.914Z</time>
      </trkpt>
      <trkpt lat="43.95683" lon="2.22062">
        <ele>193</ele>
        <time>2021-02-25T15:31:35.914Z</time>
      </trkpt>
      <trkpt lat="43.95682" lon="2.2206">
        <ele>193</ele>
        <time>2021-02-25T15:31:36.914Z</time>
      </trkpt>
      <trkpt lat="43.95681" lon="2.22059">
        <ele>193</ele>
        <time>2021-02-25T15:31:37.914Z</time>
      </trkpt>
      <trkpt lat="43.9568" lon="2.22058">
        <ele>193</ele>
        <time>2021-02-25T15:31:38.914Z</time>
      </trkpt>
      <trkpt lat="43.9568" lon="2.22057">
        <ele>194</ele>
        <time>2021-02-25T15:31:39.914Z</time>
      </trkpt>
      <trkpt lat="43.95679" lon="2.22055">
        <ele>194</ele>
        <time>2021-02-25T15:31:40.914Z</time>
      </trkpt>
      <trkpt lat="43.95678" lon="2.22054">
        <ele>194</ele>
        <time>2021-02-25T15:31:41.914Z</time>
      </trkpt>
      <trkpt lat="43.95678" lon="2.22053">
        <ele>194</ele>
        <time>2021-02-25T15:31:42.914Z</time>
      </trkpt>
      <trkpt lat="43.95677" lon="2.22052">
        <ele>194</ele>
        <time>2021-02-25T15:31:43.914Z</time>
      </trkpt>
      <trkpt lat="43.95676" lon="2.22051">
        <ele>194</ele>
        <time>2021-02-25T15:31:44.914Z</time>
      </trkpt>
      <trkpt lat="43.95675" lon="2.22049">
        <ele>195</ele>
        <time>2021-02-25T15:31:45.914Z</time>
      </trkpt>
      <trkpt lat="43.95674" lon="2.22049">
        <ele>195</ele>
        <time>2021-02-25T15:31:46.914Z</time>
      </trkpt>
      <trkpt lat="43.95673" lon="2.22047">
        <ele>195</ele>
        <time>2021-02-25T15:31:47.914Z</time>
      </trkpt>
      <trkpt lat="43.95672" lon="2.22046">
        <ele>195</ele>
        <time>2021-02-25T15:31:48.914Z</time>
      </trkpt>
      <trkpt lat="43.95671" lon="2.22045">
        <ele>195</ele>
        <time>2021-02-25T15:31:49.914Z</time>
      </trkpt>
      <trkpt lat="43.9567" lon="2.22044">
        <ele>195</ele>
        <time>2021-02-25T15:31:50.914Z</time>
      </trkpt>
      <trkpt lat="43.95669" lon="2.22043">
        <ele>195</ele>
        <time>2021-02-25T15:31:51.914Z</time>
      </trkpt>
      <trkpt lat="43.95668" lon="2.22042">
        <ele>195</ele>
        <time>2021-02-25T15:31:52.914Z</time>
      </trkpt>
      <trkpt lat="43.95667" lon="2.22041">
        <ele>195</ele>
        <time>2021-02-25T15:31:53.914Z</time>
      </trkpt>
      <trkpt lat="43.95665" lon="2.2204">
        <ele>195</ele>
        <time>2021-02-25T15:31:54.914Z</time>
      </trkpt>
      <trkpt lat="43.95664" lon="2.22039">
        <ele>195</ele>
        <time>2021-02-25T15:31:55.914Z</time>
      </trkpt>
      <trkpt lat="43.95664" lon="2.22038">
        <ele>196</ele>
        <time>2021-02-25T15:31:56.914Z</time>
      </trkpt>
      <trkpt lat="43.95663" lon="2.22038">
        <ele>196</ele>
        <time>2021-02-25T15:31:57.914Z</time>
      </trkpt>
      <trkpt lat="43.95662" lon="2.22037">
        <ele>196</ele>
        <time>2021-02-25T15:31:58.914Z</time>
      </trkpt>
      <trkpt lat="43.95661" lon="2.22037">
        <ele>196</ele>
        <time>2021-02-25T15:31:59.914Z</time>
      </trkpt>
      <trkpt lat="43.95659" lon="2.22036">
        <ele>195</ele>
        <time>2021-02-25T15:32:00.914Z</time>
      </trkpt>
      <trkpt lat="43.95658" lon="2.22036">
        <ele>195</ele>
        <time>2021-02-25T15:32:01.914Z</time>
      </trkpt>
      <trkpt lat="43.95657" lon="2.22036">
        <ele>195</ele>
        <time>2021-02-25T15:32:02.914Z</time>
      </trkpt>
      <trkpt lat="43.95656" lon="2.22035">
        <ele>195</ele>
        <time>2021-02-25T15:32:03.914Z</time>
      </trkpt>
      <trkpt lat="43.95655" lon="2.22035">
        <ele>195</ele>
        <time>2021-02-25T15:32:04.914Z</time>
      </trkpt>
      <trkpt lat="43.95654" lon="2.22035">
        <ele>195</ele>
        <time>2021-02-25T15:32:05.914Z</time>
      </trkpt>
      <trkpt lat="43.95653" lon="2.22035">
        <ele>195</ele>
        <time>2021-02-25T15:32:06.914Z</time>
      </trkpt>
      <trkpt lat="43.95652" lon="2.22035">
        <ele>195</ele>
        <time>2021-02-25T15:32:07.914Z</time>
      </trkpt>
      <trkpt lat="43.95651" lon="2.22035">
        <ele>195</ele>
        <time>2021-02-25T15:32:08.914Z</time>
      </trkpt>
      <trkpt lat="43.9565" lon="2.22035">
        <ele>195</ele>
        <time>2021-02-25T15:32:09.914Z</time>
      </trkpt>
      <trkpt lat="43.9565" lon="2.22035">
        <ele>194</ele>
        <time>2021-02-25T15:32:10.914Z</time>
      </trkpt>
      <trkpt lat="43.95649" lon="2.22035">
        <ele>194</ele>
        <time>2021-02-25T15:32:11.914Z</time>
      </trkpt>
      <trkpt lat="43.95648" lon="2.22036">
        <ele>194</ele>
        <time>2021-02-25T15:32:12.914Z</time>
      </trkpt>
      <trkpt lat="43.95647" lon="2.22036">
        <ele>194</ele>
        <time>2021-02-25T15:32:13.914Z</time>
      </trkpt>
      <trkpt lat="43.95646" lon="2.22037">
        <ele>194</ele>
        <time>2021-02-25T15:32:14.914Z</time>
      </trkpt>
      <trkpt lat="43.95645" lon="2.22037">
        <ele>194</ele>
        <time>2021-02-25T15:32:15.914Z</time>
      </trkpt>
      <trkpt lat="43.95645" lon="2.22038">
        <ele>194</ele>
        <time>2021-02-25T15:32:16.914Z</time>
      </trkpt>
      <trkpt lat="43.95644" lon="2.22038">
        <ele>193</ele>
        <time>2021-02-25T15:32:17.914Z</time>
      </trkpt>
      <trkpt lat="43.95643" lon="2.22039">
        <ele>193</ele>
        <time>2021-02-25T15:32:18.914Z</time>
      </trkpt>
      <trkpt lat="43.95642" lon="2.22039">
        <ele>193</ele>
        <time>2021-02-25T15:32:19.914Z</time>
      </trkpt>
      <trkpt lat="43.95641" lon="2.22039">
        <ele>193</ele>
        <time>2021-02-25T15:32:20.914Z</time>
      </trkpt>
      <trkpt lat="43.95639" lon="2.2204">
        <ele>193</ele>
        <time>2021-02-25T15:32:21.914Z</time>
      </trkpt>
      <trkpt lat="43.95638" lon="2.2204">
        <ele>192</ele>
        <time>2021-02-25T15:32:22.914Z</time>
      </trkpt>
      <trkpt lat="43.95637" lon="2.22041">
        <ele>192</ele>
        <time>2021-02-25T15:32:23.914Z</time>
      </trkpt>
      <trkpt lat="43.95636" lon="2.22041">
        <ele>192</ele>
        <time>2021-02-25T15:32:24.914Z</time>
      </trkpt>
      <trkpt lat="43.95635" lon="2.22041">
        <ele>192</ele>
        <time>2021-02-25T15:32:25.914Z</time>
      </trkpt>
      <trkpt lat="43.95634" lon="2.22041">
        <ele>192</ele>
        <time>2021-02-25T15:32:26.914Z</time>
      </trkpt>
      <trkpt lat="43.95633" lon="2.22042">
        <ele>192</ele>
        <time>2021-02-25T15:32:27.914Z</time>
      </trkpt>
      <trkpt lat="43.95631" lon="2.22042">
        <ele>192</ele>
        <time>2021-02-25T15:32:28.914Z</time>
      </trkpt>
      <trkpt lat="43.9563" lon="2.22043">
        <ele>192</ele>
        <time>2021-02-25T15:32:29.914Z</time>
      </trkpt>
      <trkpt lat="43.95629" lon="2.22043">
        <ele>191</ele>
        <time>2021-02-25T15:32:30.914Z</time>
      </trkpt>
      <trkpt lat="43.95628" lon="2.22044">
        <ele>191</ele>
        <time>2021-02-25T15:32:31.914Z</time>
      </trkpt>
      <trkpt lat="43.95627" lon="2.22045">
        <ele>191</ele>
        <time>2021-02-25T15:32:32.914Z</time>
      </trkpt>
      <trkpt lat="43.95626" lon="2.22045">
        <ele>192</ele>
        <time>2021-02-25T15:32:33.914Z</time>
      </trkpt>
      <trkpt lat="43.95625" lon="2.22046">
        <ele>192</ele>
        <time>2021-02-25T15:32:34.914Z</time>
      </trkpt>
      <trkpt lat="43.95624" lon="2.22046">
        <ele>192</ele>
        <time>2021-02-25T15:32:35.914Z</time>
      </trkpt>
      <trkpt lat="43.95623" lon="2.22047">
        <ele>192</ele>
        <time>2021-02-25T15:32:36.914Z</time>
      </trkpt>
      <trkpt lat="43.95622" lon="2.22048">
        <ele>192</ele>
        <time>2021-02-25T15:32:37.914Z</time>
      </trkpt>
      <trkpt lat="43.9562" lon="2.22048">
        <ele>192</ele>
        <time>2021-02-25T15:32:38.914Z</time>
      </trkpt>
      <trkpt lat="43.95619" lon="2.22049">
        <ele>192</ele>
        <time>2021-02-25T15:32:39.914Z</time>
      </trkpt>
      <trkpt lat="43.95618" lon="2.2205">
        <ele>192</ele>
        <time>2021-02-25T15:32:40.914Z</time>
      </trkpt>
      <trkpt lat="43.95617" lon="2.22051">
        <ele>192</ele>
        <time>2021-02-25T15:32:41.914Z</time>
      </trkpt>
      <trkpt lat="43.95615" lon="2.22051">
        <ele>192</ele>
        <time>2021-02-25T15:32:42.914Z</time>
      </trkpt>
      <trkpt lat="43.95614" lon="2.22051">
        <ele>192</ele>
        <time>2021-02-25T15:32:43.914Z</time>
      </trkpt>
      <trkpt lat="43.95613" lon="2.22052">
        <ele>192</ele>
        <time>2021-02-25T15:32:44.914Z</time>
      </trkpt>
      <trkpt lat="43.95611" lon="2.22052">
        <ele>192</ele>
        <time>2021-02-25T15:32:45.914Z</time>
      </trkpt>
      <trkpt lat="43.9561" lon="2.22052">
        <ele>192</ele>
        <time>2021-02-25T15:32:46.914Z</time>
      </trkpt>
      <trkpt lat="43.95609" lon="2.22053">
        <ele>192</ele>
        <time>2021-02-25T15:32:47.914Z</time>
      </trkpt>
      <trkpt lat="43.95607" lon="2.22053">
        <ele>192</ele>
        <time>2021-02-25T15:32:48.914Z</time>
      </trkpt>
      <trkpt lat="43.95606" lon="2.22054">
        <ele>192</ele>
        <time>2021-02-25T15:32:49.914Z</time>
      </trkpt>
      <trkpt lat="43.95604" lon="2.22054">
        <ele>192</ele>
        <time>2021-02-25T15:32:50.914Z</time>
      </trkpt>
      <trkpt lat="43.95603" lon="2.22055">
        <ele>192</ele>
        <time>2021-02-25T15:32:51.914Z</time>
      </trkpt>
      <trkpt lat="43.95602" lon="2.22056">
        <ele>192</ele>
        <time>2021-02-25T15:32:52.914Z</time>
      </trkpt>
      <trkpt lat="43.956" lon="2.22056">
        <ele>192</ele>
        <time>2021-02-25T15:32:53.914Z</time>
      </trkpt>
      <trkpt lat="43.95599" lon="2.22057">
        <ele>192</ele>
        <time>2021-02-25T15:32:54.914Z</time>
      </trkpt>
      <trkpt lat="43.95597" lon="2.22057">
        <ele>192</ele>
        <time>2021-02-25T15:32:55.914Z</time>
      </trkpt>
      <trkpt lat="43.95596" lon="2.22058">
        <ele>192</ele>
        <time>2021-02-25T15:32:56.914Z</time>
      </trkpt>
      <trkpt lat="43.95594" lon="2.22058">
        <ele>192</ele>
        <time>2021-02-25T15:32:57.914Z</time>
      </trkpt>
      <trkpt lat="43.95593" lon="2.22059">
        <ele>192</ele>
        <time>2021-02-25T15:32:58.914Z</time>
      </trkpt>
      <trkpt lat="43.95592" lon="2.2206">
        <ele>192</ele>
        <time>2021-02-25T15:32:59.914Z</time>
      </trkpt>
      <trkpt lat="43.9559" lon="2.2206">
        <ele>192</ele>
        <time>2021-02-25T15:33:00.914Z</time>
      </trkpt>
      <trkpt lat="43.95589" lon="2.2206">
        <ele>192</ele>
        <time>2021-02-25T15:33:01.914Z</time>
      </trkpt>
      <trkpt lat="43.95587" lon="2.22061">
        <ele>192</ele>
        <time>2021-02-25T15:33:02.914Z</time>
      </trkpt>
      <trkpt lat="43.95586" lon="2.22061">
        <ele>192</ele>
        <time>2021-02-25T15:33:03.914Z</time>
      </trkpt>
      <trkpt lat="43.95584" lon="2.22061">
        <ele>192</ele>
        <time>2021-02-25T15:33:04.914Z</time>
      </trkpt>
      <trkpt lat="43.95583" lon="2.22061">
        <ele>192</ele>
        <time>2021-02-25T15:33:05.914Z</time>
      </trkpt>
      <trkpt lat="43.95581" lon="2.22061">
        <ele>192</ele>
        <time>2021-02-25T15:33:06.914Z</time>
      </trkpt>
      <trkpt lat="43.9558" lon="2.22061">
        <ele>192</ele>
        <time>2021-02-25T15:33:07.914Z</time>
      </trkpt>
      <trkpt lat="43.95579" lon="2.22062">
        <ele>192</ele>
        <time>2021-02-25T15:33:08.914Z</time>
      </trkpt>
      <trkpt lat="43.95577" lon="2.22062">
        <ele>192</ele>
        <time>2021-02-25T15:33:53.913Z</time>
      </trkpt>
      <trkpt lat="43.95576" lon="2.22062">
        <ele>192</ele>
        <time>2021-02-25T15:33:54.913Z</time>
      </trkpt>
      <trkpt lat="43.95575" lon="2.22062">
        <ele>192</ele>
        <time>2021-02-25T15:33:55.913Z</time>
      </trkpt>
      <trkpt lat="43.95574" lon="2.22063">
        <ele>192</ele>
        <time>2021-02-25T15:34:01.913Z</time>
      </trkpt>
      <trkpt lat="43.95573" lon="2.22063">
        <ele>192</ele>
        <time>2021-02-25T15:34:02.913Z</time>
      </trkpt>
      <trkpt lat="43.95572" lon="2.22063">
        <ele>192</ele>
        <time>2021-02-25T15:34:15.911Z</time>
      </trkpt>
      <trkpt lat="43.95571" lon="2.22064">
        <ele>192</ele>
        <time>2021-02-25T15:34:16.911Z</time>
      </trkpt>
      <trkpt lat="43.9557" lon="2.22064">
        <ele>192</ele>
        <time>2021-02-25T15:34:17.911Z</time>
      </trkpt>
      <trkpt lat="43.95569" lon="2.22064">
        <ele>192</ele>
        <time>2021-02-25T15:34:18.911Z</time>
      </trkpt>
      <trkpt lat="43.95568" lon="2.22064">
        <ele>192</ele>
        <time>2021-02-25T15:34:19.911Z</time>
      </trkpt>
      <trkpt lat="43.95567" lon="2.22065">
        <ele>192</ele>
        <time>2021-02-25T15:34:20.911Z</time>
      </trkpt>
      <trkpt lat="43.95566" lon="2.22065">
        <ele>192</ele>
        <time>2021-02-25T15:34:24.138Z</time>
      </trkpt>
      <trkpt lat="43.95565" lon="2.22066">
        <ele>192</ele>
        <time>2021-02-25T15:34:25.138Z</time>
      </trkpt>
      <trkpt lat="43.95564" lon="2.22066">
        <ele>192</ele>
        <time>2021-02-25T15:34:26.138Z</time>
      </trkpt>
      <trkpt lat="43.95563" lon="2.22066">
        <ele>192</ele>
        <time>2021-02-25T15:34:27.138Z</time>
      </trkpt>
      <trkpt lat="43.95562" lon="2.22066">
        <ele>192</ele>
        <time>2021-02-25T15:34:28.138Z</time>
      </trkpt>
      <trkpt lat="43.95561" lon="2.22066">
        <ele>192</ele>
        <time>2021-02-25T15:34:29.138Z</time>
      </trkpt>
      <trkpt lat="43.9556" lon="2.22066">
        <ele>192</ele>
        <time>2021-02-25T15:34:33.137Z</time>
      </trkpt>
      <trkpt lat="43.95559" lon="2.22066">
        <ele>192</ele>
        <time>2021-02-25T15:34:34.137Z</time>
      </trkpt>
      <trkpt lat="43.95559" lon="2.22066">
        <ele>192</ele>
        <time>2021-02-25T15:34:37.382Z</time>
      </trkpt>
      <trkpt lat="43.95558" lon="2.22065">
        <ele>191</ele>
        <time>2021-02-25T15:34:38.382Z</time>
      </trkpt>
      <trkpt lat="43.95556" lon="2.22065">
        <ele>191</ele>
        <time>2021-02-25T15:34:39.382Z</time>
      </trkpt>
      <trkpt lat="43.95555" lon="2.22065">
        <ele>191</ele>
        <time>2021-02-25T15:34:40.382Z</time>
      </trkpt>
      <trkpt lat="43.95554" lon="2.22064">
        <ele>190</ele>
        <time>2021-02-25T15:34:44.383Z</time>
      </trkpt>
      <trkpt lat="43.95553" lon="2.22064">
        <ele>190</ele>
        <time>2021-02-25T15:34:45.383Z</time>
      </trkpt>
      <trkpt lat="43.95552" lon="2.22063">
        <ele>190</ele>
        <time>2021-02-25T15:34:46.383Z</time>
      </trkpt>
      <trkpt lat="43.95551" lon="2.22063">
        <ele>190</ele>
        <time>2021-02-25T15:34:47.383Z</time>
      </trkpt>
      <trkpt lat="43.9555" lon="2.22062">
        <ele>189</ele>
        <time>2021-02-25T15:34:48.383Z</time>
      </trkpt>
      <trkpt lat="43.95548" lon="2.22061">
        <ele>189</ele>
        <time>2021-02-25T15:34:49.383Z</time>
      </trkpt>
      <trkpt lat="43.95547" lon="2.22061">
        <ele>189</ele>
        <time>2021-02-25T15:34:50.383Z</time>
      </trkpt>
      <trkpt lat="43.95546" lon="2.2206">
        <ele>188</ele>
        <time>2021-02-25T15:34:51.383Z</time>
      </trkpt>
      <trkpt lat="43.95545" lon="2.22059">
        <ele>188</ele>
        <time>2021-02-25T15:34:52.383Z</time>
      </trkpt>
      <trkpt lat="43.95543" lon="2.22059">
        <ele>188</ele>
        <time>2021-02-25T15:34:53.383Z</time>
      </trkpt>
      <trkpt lat="43.95542" lon="2.22059">
        <ele>188</ele>
        <time>2021-02-25T15:35:03.383Z</time>
      </trkpt>
      <trkpt lat="43.95541" lon="2.22059">
        <ele>188</ele>
        <time>2021-02-25T15:35:04.383Z</time>
      </trkpt>
      <trkpt lat="43.9554" lon="2.22058">
        <ele>187</ele>
        <time>2021-02-25T15:35:05.383Z</time>
      </trkpt>
      <trkpt lat="43.95539" lon="2.22057">
        <ele>187</ele>
        <time>2021-02-25T15:35:06.383Z</time>
      </trkpt>
      <trkpt lat="43.95537" lon="2.22057">
        <ele>187</ele>
        <time>2021-02-25T15:35:07.383Z</time>
      </trkpt>
      <trkpt lat="43.95536" lon="2.22056">
        <ele>187</ele>
        <time>2021-02-25T15:35:35.400Z</time>
      </trkpt>
      <trkpt lat="43.95535" lon="2.22056">
        <ele>187</ele>
        <time>2021-02-25T15:35:36.400Z</time>
      </trkpt>
      <trkpt lat="43.95533" lon="2.22055">
        <ele>187</ele>
        <time>2021-02-25T15:35:37.400Z</time>
      </trkpt>
      <trkpt lat="43.95532" lon="2.22055">
        <ele>187</ele>
        <time>2021-02-25T15:35:40.642Z</time>
      </trkpt>
      <trkpt lat="43.95531" lon="2.22055">
        <ele>186</ele>
        <time>2021-02-25T15:35:41.642Z</time>
      </trkpt>
      <trkpt lat="43.95529" lon="2.22054">
        <ele>186</ele>
        <time>2021-02-25T15:35:57.642Z</time>
      </trkpt>
      <trkpt lat="43.95528" lon="2.22054">
        <ele>186</ele>
        <time>2021-02-25T15:35:58.642Z</time>
      </trkpt>
      <trkpt lat="43.95527" lon="2.22053">
        <ele>186</ele>
        <time>2021-02-25T15:35:59.642Z</time>
      </trkpt>
      <trkpt lat="43.95526" lon="2.22053">
        <ele>186</ele>
        <time>2021-02-25T15:36:03.772Z</time>
      </trkpt>
      <trkpt lat="43.95525" lon="2.22053">
        <ele>186</ele>
        <time>2021-02-25T15:36:04.772Z</time>
      </trkpt>
      <trkpt lat="43.95524" lon="2.22053">
        <ele>185</ele>
        <time>2021-02-25T15:36:05.772Z</time>
      </trkpt>
      <trkpt lat="43.95523" lon="2.22054">
        <ele>185</ele>
        <time>2021-02-25T15:36:06.772Z</time>
      </trkpt>
      <trkpt lat="43.95522" lon="2.22054">
        <ele>185</ele>
        <time>2021-02-25T15:36:07.772Z</time>
      </trkpt>
      <trkpt lat="43.9552" lon="2.22055">
        <ele>185</ele>
        <time>2021-02-25T15:36:08.772Z</time>
      </trkpt>
      <trkpt lat="43.95519" lon="2.22055">
        <ele>184</ele>
        <time>2021-02-25T15:36:12.017Z</time>
      </trkpt>
      <trkpt lat="43.95518" lon="2.22055">
        <ele>184</ele>
        <time>2021-02-25T15:36:13.017Z</time>
      </trkpt>
      <trkpt lat="43.95517" lon="2.22055">
        <ele>184</ele>
        <time>2021-02-25T15:36:14.017Z</time>
      </trkpt>
      <trkpt lat="43.95515" lon="2.22056">
        <ele>184</ele>
        <time>2021-02-25T15:36:15.017Z</time>
      </trkpt>
      <trkpt lat="43.95514" lon="2.22056">
        <ele>183</ele>
        <time>2021-02-25T15:36:16.017Z</time>
      </trkpt>
      <trkpt lat="43.95512" lon="2.22056">
        <ele>183</ele>
        <time>2021-02-25T15:36:17.017Z</time>
      </trkpt>
      <trkpt lat="43.95511" lon="2.22057">
        <ele>183</ele>
        <time>2021-02-25T15:36:18.017Z</time>
      </trkpt>
      <trkpt lat="43.9551" lon="2.22057">
        <ele>183</ele>
        <time>2021-02-25T15:36:19.017Z</time>
      </trkpt>
      <trkpt lat="43.95509" lon="2.22058">
        <ele>182</ele>
        <time>2021-02-25T15:36:20.017Z</time>
      </trkpt>
      <trkpt lat="43.95507" lon="2.22058">
        <ele>182</ele>
        <time>2021-02-25T15:36:21.017Z</time>
      </trkpt>
      <trkpt lat="43.95506" lon="2.22059">
        <ele>182</ele>
        <time>2021-02-25T15:36:22.017Z</time>
      </trkpt>
      <trkpt lat="43.95504" lon="2.22059">
        <ele>182</ele>
        <time>2021-02-25T15:36:23.017Z</time>
      </trkpt>
      <trkpt lat="43.95503" lon="2.22059">
        <ele>182</ele>
        <time>2021-02-25T15:36:24.017Z</time>
      </trkpt>
      <trkpt lat="43.95502" lon="2.2206">
        <ele>181</ele>
        <time>2021-02-25T15:36:25.017Z</time>
      </trkpt>
      <trkpt lat="43.955" lon="2.2206">
        <ele>181</ele>
        <time>2021-02-25T15:36:26.017Z</time>
      </trkpt>
      <trkpt lat="43.95499" lon="2.22061">
        <ele>181</ele>
        <time>2021-02-25T15:36:27.017Z</time>
      </trkpt>
      <trkpt lat="43.95498" lon="2.22061">
        <ele>181</ele>
        <time>2021-02-25T15:36:28.017Z</time>
      </trkpt>
      <trkpt lat="43.95497" lon="2.22062">
        <ele>181</ele>
        <time>2021-02-25T15:36:29.017Z</time>
      </trkpt>
      <trkpt lat="43.95495" lon="2.22062">
        <ele>180</ele>
        <time>2021-02-25T15:36:30.017Z</time>
      </trkpt>
      <trkpt lat="43.95494" lon="2.22063">
        <ele>180</ele>
        <time>2021-02-25T15:36:31.017Z</time>
      </trkpt>
      <trkpt lat="43.95493" lon="2.22063">
        <ele>180</ele>
        <time>2021-02-25T15:36:32.017Z</time>
      </trkpt>
      <trkpt lat="43.95492" lon="2.22064">
        <ele>180</ele>
        <time>2021-02-25T15:36:33.017Z</time>
      </trkpt>
      <trkpt lat="43.9549" lon="2.22064">
        <ele>179</ele>
        <time>2021-02-25T15:36:34.017Z</time>
      </trkpt>
      <trkpt lat="43.95489" lon="2.22065">
        <ele>179</ele>
        <time>2021-02-25T15:36:35.017Z</time>
      </trkpt>
      <trkpt lat="43.95488" lon="2.22065">
        <ele>179</ele>
        <time>2021-02-25T15:36:36.017Z</time>
      </trkpt>
      <trkpt lat="43.95487" lon="2.22066">
        <ele>179</ele>
        <time>2021-02-25T15:36:37.017Z</time>
      </trkpt>
      <trkpt lat="43.95486" lon="2.22067">
        <ele>179</ele>
        <time>2021-02-25T15:36:38.017Z</time>
      </trkpt>
      <trkpt lat="43.95485" lon="2.22067">
        <ele>178</ele>
        <time>2021-02-25T15:36:39.017Z</time>
      </trkpt>
      <trkpt lat="43.95484" lon="2.22068">
        <ele>178</ele>
        <time>2021-02-25T15:36:40.017Z</time>
      </trkpt>
      <trkpt lat="43.95483" lon="2.22069">
        <ele>178</ele>
        <time>2021-02-25T15:36:41.017Z</time>
      </trkpt>
      <trkpt lat="43.95482" lon="2.2207">
        <ele>178</ele>
        <time>2021-02-25T15:36:42.017Z</time>
      </trkpt>
      <trkpt lat="43.95481" lon="2.2207">
        <ele>178</ele>
        <time>2021-02-25T15:36:43.017Z</time>
      </trkpt>
      <trkpt lat="43.9548" lon="2.22071">
        <ele>177</ele>
        <time>2021-02-25T15:36:44.017Z</time>
      </trkpt>
      <trkpt lat="43.95479" lon="2.22072">
        <ele>177</ele>
        <time>2021-02-25T15:36:45.017Z</time>
      </trkpt>
      <trkpt lat="43.95478" lon="2.22072">
        <ele>177</ele>
        <time>2021-02-25T15:36:46.017Z</time>
      </trkpt>
      <trkpt lat="43.95477" lon="2.22073">
        <ele>177</ele>
        <time>2021-02-25T15:36:47.017Z</time>
      </trkpt>
      <trkpt lat="43.95476" lon="2.22074">
        <ele>177</ele>
        <time>2021-02-25T15:36:48.017Z</time>
      </trkpt>
      <trkpt lat="43.95475" lon="2.22074">
        <ele>177</ele>
        <time>2021-02-25T15:36:49.017Z</time>
      </trkpt>
      <trkpt lat="43.95474" lon="2.22075">
        <ele>177</ele>
        <time>2021-02-25T15:36:50.017Z</time>
      </trkpt>
      <trkpt lat="43.95473" lon="2.22076">
        <ele>177</ele>
        <time>2021-02-25T15:36:51.017Z</time>
      </trkpt>
      <trkpt lat="43.95472" lon="2.22077">
        <ele>176</ele>
        <time>2021-02-25T15:36:52.017Z</time>
      </trkpt>
      <trkpt lat="43.9547" lon="2.22078">
        <ele>176</ele>
        <time>2021-02-25T15:36:53.017Z</time>
      </trkpt>
      <trkpt lat="43.95469" lon="2.22079">
        <ele>176</ele>
        <time>2021-02-25T15:36:54.017Z</time>
      </trkpt>
      <trkpt lat="43.95468" lon="2.2208">
        <ele>176</ele>
        <time>2021-02-25T15:36:55.017Z</time>
      </trkpt>
      <trkpt lat="43.95467" lon="2.22081">
        <ele>176</ele>
        <time>2021-02-25T15:36:56.017Z</time>
      </trkpt>
      <trkpt lat="43.95466" lon="2.22081">
        <ele>176</ele>
        <time>2021-02-25T15:36:57.017Z</time>
      </trkpt>
      <trkpt lat="43.95466" lon="2.22082">
        <ele>176</ele>
        <time>2021-02-25T15:36:58.017Z</time>
      </trkpt>
      <trkpt lat="43.95465" lon="2.22083">
        <ele>176</ele>
        <time>2021-02-25T15:36:59.017Z</time>
      </trkpt>
      <trkpt lat="43.95464" lon="2.22084">
        <ele>176</ele>
        <time>2021-02-25T15:37:00.017Z</time>
      </trkpt>
      <trkpt lat="43.95463" lon="2.22085">
        <ele>176</ele>
        <time>2021-02-25T15:37:01.017Z</time>
      </trkpt>
      <trkpt lat="43.95462" lon="2.22086">
        <ele>176</ele>
        <time>2021-02-25T15:37:02.017Z</time>
      </trkpt>
      <trkpt lat="43.95461" lon="2.22086">
        <ele>176</ele>
        <time>2021-02-25T15:37:03.017Z</time>
      </trkpt>
      <trkpt lat="43.95461" lon="2.22087">
        <ele>176</ele>
        <time>2021-02-25T15:37:04.017Z</time>
      </trkpt>
      <trkpt lat="43.9546" lon="2.22087">
        <ele>176</ele>
        <time>2021-02-25T15:37:05.017Z</time>
      </trkpt>
      <trkpt lat="43.9546" lon="2.22088">
        <ele>176</ele>
        <time>2021-02-25T15:37:06.017Z</time>
      </trkpt>
      <trkpt lat="43.95459" lon="2.22089">
        <ele>176</ele>
        <time>2021-02-25T15:37:07.017Z</time>
      </trkpt>
      <trkpt lat="43.95458" lon="2.22089">
        <ele>176</ele>
        <time>2021-02-25T15:37:08.017Z</time>
      </trkpt>
      <trkpt lat="43.95457" lon="2.2209">
        <ele>176</ele>
        <time>2021-02-25T15:37:09.017Z</time>
      </trkpt>
      <trkpt lat="43.95456" lon="2.22091">
        <ele>176</ele>
        <time>2021-02-25T15:37:10.017Z</time>
      </trkpt>
      <trkpt lat="43.95455" lon="2.22092">
        <ele>175</ele>
        <time>2021-02-25T15:37:11.017Z</time>
      </trkpt>
      <trkpt lat="43.95454" lon="2.22092">
        <ele>175</ele>
        <time>2021-02-25T15:37:12.017Z</time>
      </trkpt>
      <trkpt lat="43.95454" lon="2.22093">
        <ele>175</ele>
        <time>2021-02-25T15:37:13.017Z</time>
      </trkpt>
      <trkpt lat="43.95453" lon="2.22093">
        <ele>175</ele>
        <time>2021-02-25T15:37:14.017Z</time>
      </trkpt>
      <trkpt lat="43.95452" lon="2.22094">
        <ele>175</ele>
        <time>2021-02-25T15:37:15.017Z</time>
      </trkpt>
      <trkpt lat="43.95451" lon="2.22095">
        <ele>175</ele>
        <time>2021-02-25T15:37:16.017Z</time>
      </trkpt>
      <trkpt lat="43.9545" lon="2.22096">
        <ele>175</ele>
        <time>2021-02-25T15:37:17.017Z</time>
      </trkpt>
      <trkpt lat="43.95449" lon="2.22096">
        <ele>175</ele>
        <time>2021-02-25T15:37:18.017Z</time>
      </trkpt>
      <trkpt lat="43.95448" lon="2.22097">
        <ele>175</ele>
        <time>2021-02-25T15:37:19.017Z</time>
      </trkpt>
      <trkpt lat="43.95447" lon="2.22097">
        <ele>175</ele>
        <time>2021-02-25T15:37:20.017Z</time>
      </trkpt>
      <trkpt lat="43.95446" lon="2.22098">
        <ele>175</ele>
        <time>2021-02-25T15:37:21.017Z</time>
      </trkpt>
      <trkpt lat="43.95445" lon="2.22099">
        <ele>175</ele>
        <time>2021-02-25T15:37:22.017Z</time>
      </trkpt>
      <trkpt lat="43.95443" lon="2.22099">
        <ele>175</ele>
        <time>2021-02-25T15:37:23.017Z</time>
      </trkpt>
      <trkpt lat="43.95442" lon="2.22099">
        <ele>175</ele>
        <time>2021-02-25T15:37:24.017Z</time>
      </trkpt>
      <trkpt lat="43.9544" lon="2.221">
        <ele>175</ele>
        <time>2021-02-25T15:37:25.017Z</time>
      </trkpt>
      <trkpt lat="43.95439" lon="2.221">
        <ele>175</ele>
        <time>2021-02-25T15:37:26.017Z</time>
      </trkpt>
      <trkpt lat="43.95437" lon="2.22101">
        <ele>175</ele>
        <time>2021-02-25T15:37:27.017Z</time>
      </trkpt>
      <trkpt lat="43.95436" lon="2.22101">
        <ele>175</ele>
        <time>2021-02-25T15:37:28.017Z</time>
      </trkpt>
      <trkpt lat="43.95434" lon="2.22102">
        <ele>175</ele>
        <time>2021-02-25T15:37:29.017Z</time>
      </trkpt>
      <trkpt lat="43.95433" lon="2.22103">
        <ele>175</ele>
        <time>2021-02-25T15:37:30.017Z</time>
      </trkpt>
      <trkpt lat="43.95431" lon="2.22103">
        <ele>175</ele>
        <time>2021-02-25T15:37:31.017Z</time>
      </trkpt>
      <trkpt lat="43.9543" lon="2.22104">
        <ele>175</ele>
        <time>2021-02-25T15:37:32.017Z</time>
      </trkpt>
      <trkpt lat="43.95429" lon="2.22105">
        <ele>175</ele>
        <time>2021-02-25T15:37:33.017Z</time>
      </trkpt>
      <trkpt lat="43.95428" lon="2.22105">
        <ele>175</ele>
        <time>2021-02-25T15:37:34.017Z</time>
      </trkpt>
      <trkpt lat="43.95427" lon="2.22105">
        <ele>175</ele>
        <time>2021-02-25T15:37:35.017Z</time>
      </trkpt>
      <trkpt lat="43.95426" lon="2.22105">
        <ele>175</ele>
        <time>2021-02-25T15:37:36.017Z</time>
      </trkpt>
      <trkpt lat="43.95425" lon="2.22106">
        <ele>175</ele>
        <time>2021-02-25T15:37:37.017Z</time>
      </trkpt>
      <trkpt lat="43.95423" lon="2.22106">
        <ele>174</ele>
        <time>2021-02-25T15:37:38.017Z</time>
      </trkpt>
      <trkpt lat="43.95422" lon="2.22106">
        <ele>174</ele>
        <time>2021-02-25T15:37:39.017Z</time>
      </trkpt>
      <trkpt lat="43.95421" lon="2.22107">
        <ele>174</ele>
        <time>2021-02-25T15:37:40.017Z</time>
      </trkpt>
      <trkpt lat="43.95419" lon="2.22107">
        <ele>174</ele>
        <time>2021-02-25T15:37:41.017Z</time>
      </trkpt>
      <trkpt lat="43.95418" lon="2.22107">
        <ele>174</ele>
        <time>2021-02-25T15:37:42.017Z</time>
      </trkpt>
      <trkpt lat="43.95417" lon="2.22108">
        <ele>174</ele>
        <time>2021-02-25T15:37:43.017Z</time>
      </trkpt>
      <trkpt lat="43.95415" lon="2.22108">
        <ele>174</ele>
        <time>2021-02-25T15:37:44.017Z</time>
      </trkpt>
      <trkpt lat="43.95414" lon="2.22109">
        <ele>174</ele>
        <time>2021-02-25T15:37:45.017Z</time>
      </trkpt>
      <trkpt lat="43.95412" lon="2.22109">
        <ele>174</ele>
        <time>2021-02-25T15:37:46.017Z</time>
      </trkpt>
      <trkpt lat="43.95411" lon="2.2211">
        <ele>174</ele>
        <time>2021-02-25T15:37:47.017Z</time>
      </trkpt>
      <trkpt lat="43.9541" lon="2.22111">
        <ele>174</ele>
        <time>2021-02-25T15:37:48.017Z</time>
      </trkpt>
      <trkpt lat="43.95409" lon="2.22111">
        <ele>174</ele>
        <time>2021-02-25T15:37:49.017Z</time>
      </trkpt>
      <trkpt lat="43.95408" lon="2.22112">
        <ele>174</ele>
        <time>2021-02-25T15:37:50.017Z</time>
      </trkpt>
      <trkpt lat="43.95407" lon="2.22113">
        <ele>174</ele>
        <time>2021-02-25T15:37:51.017Z</time>
      </trkpt>
      <trkpt lat="43.95405" lon="2.22114">
        <ele>174</ele>
        <time>2021-02-25T15:37:52.017Z</time>
      </trkpt>
      <trkpt lat="43.95404" lon="2.22115">
        <ele>174</ele>
        <time>2021-02-25T15:37:53.017Z</time>
      </trkpt>
      <trkpt lat="43.95403" lon="2.22116">
        <ele>174</ele>
        <time>2021-02-25T15:37:54.017Z</time>
      </trkpt>
      <trkpt lat="43.95402" lon="2.22117">
        <ele>174</ele>
        <time>2021-02-25T15:37:55.017Z</time>
      </trkpt>
      <trkpt lat="43.95401" lon="2.22117">
        <ele>174</ele>
        <time>2021-02-25T15:37:56.017Z</time>
      </trkpt>
      <trkpt lat="43.95401" lon="2.22118">
        <ele>174</ele>
        <time>2021-02-25T15:37:57.017Z</time>
      </trkpt>
      <trkpt lat="43.95399" lon="2.22119">
        <ele>174</ele>
        <time>2021-02-25T15:37:58.017Z</time>
      </trkpt>
      <trkpt lat="43.95398" lon="2.2212">
        <ele>174</ele>
        <time>2021-02-25T15:37:59.017Z</time>
      </trkpt>
      <trkpt lat="43.95397" lon="2.2212">
        <ele>174</ele>
        <time>2021-02-25T15:38:00.017Z</time>
      </trkpt>
      <trkpt lat="43.95396" lon="2.22121">
        <ele>174</ele>
        <time>2021-02-25T15:38:01.017Z</time>
      </trkpt>
      <trkpt lat="43.95394" lon="2.22122">
        <ele>174</ele>
        <time>2021-02-25T15:38:02.017Z</time>
      </trkpt>
      <trkpt lat="43.95393" lon="2.22122">
        <ele>174</ele>
        <time>2021-02-25T15:38:03.017Z</time>
      </trkpt>
      <trkpt lat="43.95392" lon="2.22123">
        <ele>174</ele>
        <time>2021-02-25T15:38:04.017Z</time>
      </trkpt>
      <trkpt lat="43.9539" lon="2.22123">
        <ele>174</ele>
        <time>2021-02-25T15:38:05.017Z</time>
      </trkpt>
      <trkpt lat="43.95389" lon="2.22124">
        <ele>174</ele>
        <time>2021-02-25T15:38:06.017Z</time>
      </trkpt>
      <trkpt lat="43.95387" lon="2.22125">
        <ele>174</ele>
        <time>2021-02-25T15:38:07.017Z</time>
      </trkpt>
      <trkpt lat="43.95386" lon="2.22125">
        <ele>174</ele>
        <time>2021-02-25T15:38:08.017Z</time>
      </trkpt>
      <trkpt lat="43.95385" lon="2.22126">
        <ele>174</ele>
        <time>2021-02-25T15:38:09.017Z</time>
      </trkpt>
      <trkpt lat="43.95384" lon="2.22126">
        <ele>174</ele>
        <time>2021-02-25T15:38:10.017Z</time>
      </trkpt>
      <trkpt lat="43.95383" lon="2.22126">
        <ele>174</ele>
        <time>2021-02-25T15:38:11.017Z</time>
      </trkpt>
      <trkpt lat="43.95381" lon="2.22127">
        <ele>174</ele>
        <time>2021-02-25T15:38:12.017Z</time>
      </trkpt>
      <trkpt lat="43.9538" lon="2.22127">
        <ele>174</ele>
        <time>2021-02-25T15:38:13.017Z</time>
      </trkpt>
      <trkpt lat="43.95379" lon="2.22127">
        <ele>174</ele>
        <time>2021-02-25T15:38:14.017Z</time>
      </trkpt>
      <trkpt lat="43.95378" lon="2.22127">
        <ele>174</ele>
        <time>2021-02-25T15:38:15.017Z</time>
      </trkpt>
      <trkpt lat="43.95377" lon="2.22127">
        <ele>174</ele>
        <time>2021-02-25T15:38:16.017Z</time>
      </trkpt>
      <trkpt lat="43.95376" lon="2.22127">
        <ele>174</ele>
        <time>2021-02-25T15:38:17.017Z</time>
      </trkpt>
      <trkpt lat="43.95375" lon="2.22127">
        <ele>174</ele>
        <time>2021-02-25T15:38:18.017Z</time>
      </trkpt>
      <trkpt lat="43.95373" lon="2.22127">
        <ele>174</ele>
        <time>2021-02-25T15:38:19.017Z</time>
      </trkpt>
      <trkpt lat="43.95372" lon="2.22126">
        <ele>174</ele>
        <time>2021-02-25T15:38:20.017Z</time>
      </trkpt>
      <trkpt lat="43.95371" lon="2.22126">
        <ele>174</ele>
        <time>2021-02-25T15:38:21.017Z</time>
      </trkpt>
      <trkpt lat="43.9537" lon="2.22126">
        <ele>174</ele>
        <time>2021-02-25T15:38:22.017Z</time>
      </trkpt>
      <trkpt lat="43.95369" lon="2.22126">
        <ele>174</ele>
        <time>2021-02-25T15:38:23.017Z</time>
      </trkpt>
      <trkpt lat="43.95368" lon="2.22125">
        <ele>174</ele>
        <time>2021-02-25T15:38:24.017Z</time>
      </trkpt>
      <trkpt lat="43.95367" lon="2.22125">
        <ele>174</ele>
        <time>2021-02-25T15:38:25.017Z</time>
      </trkpt>
      <trkpt lat="43.95367" lon="2.22125">
        <ele>174</ele>
        <time>2021-02-25T15:38:26.017Z</time>
      </trkpt>
      <trkpt lat="43.95366" lon="2.22125">
        <ele>174</ele>
        <time>2021-02-25T15:38:27.017Z</time>
      </trkpt>
      <trkpt lat="43.95366" lon="2.22125">
        <ele>174</ele>
        <time>2021-02-25T15:38:28.017Z</time>
      </trkpt>
      <trkpt lat="43.95366" lon="2.22125">
        <ele>174</ele>
        <time>2021-02-25T15:38:29.017Z</time>
      </trkpt>
      <trkpt lat="43.95365" lon="2.22125">
        <ele>174</ele>
        <time>2021-02-25T15:38:30.017Z</time>
      </trkpt>
      <trkpt lat="43.95365" lon="2.22125">
        <ele>174</ele>
        <time>2021-02-25T15:38:31.017Z</time>
      </trkpt>
      <trkpt lat="43.95364" lon="2.22124">
        <ele>174</ele>
        <time>2021-02-25T15:38:32.017Z</time>
      </trkpt>
      <trkpt lat="43.95364" lon="2.22124">
        <ele>174</ele>
        <time>2021-02-25T15:38:33.017Z</time>
      </trkpt>
      <trkpt lat="43.95364" lon="2.22124">
        <ele>174</ele>
        <time>2021-02-25T15:38:34.017Z</time>
      </trkpt>
      <trkpt lat="43.95364" lon="2.22124">
        <ele>174</ele>
        <time>2021-02-25T15:38:35.017Z</time>
      </trkpt>
      <trkpt lat="43.95363" lon="2.22123">
        <ele>174</ele>
        <time>2021-02-25T15:38:36.017Z</time>
      </trkpt>
      <trkpt lat="43.95362" lon="2.22122">
        <ele>174</ele>
        <time>2021-02-25T15:38:37.017Z</time>
      </trkpt>
      <trkpt lat="43.95362" lon="2.22122">
        <ele>174</ele>
        <time>2021-02-25T15:38:38.017Z</time>
      </trkpt>
      <trkpt lat="43.95362" lon="2.22122">
        <ele>174</ele>
        <time>2021-02-25T15:38:39.017Z</time>
      </trkpt>
      <trkpt lat="43.95361" lon="2.22122">
        <ele>174</ele>
        <time>2021-02-25T15:38:40.017Z</time>
      </trkpt>
      <trkpt lat="43.95361" lon="2.22121">
        <ele>174</ele>
        <time>2021-02-25T15:38:41.017Z</time>
      </trkpt>
      <trkpt lat="43.9536" lon="2.22121">
        <ele>174</ele>
        <time>2021-02-25T15:38:42.017Z</time>
      </trkpt>
      <trkpt lat="43.95359" lon="2.22121">
        <ele>174</ele>
        <time>2021-02-25T15:38:43.017Z</time>
      </trkpt>
      <trkpt lat="43.95359" lon="2.2212">
        <ele>174</ele>
        <time>2021-02-25T15:38:44.017Z</time>
      </trkpt>
      <trkpt lat="43.95358" lon="2.22119">
        <ele>174</ele>
        <time>2021-02-25T15:38:45.017Z</time>
      </trkpt>
      <trkpt lat="43.95358" lon="2.22118">
        <ele>174</ele>
        <time>2021-02-25T15:38:46.017Z</time>
      </trkpt>
      <trkpt lat="43.95357" lon="2.22116">
        <ele>174</ele>
        <time>2021-02-25T15:38:47.017Z</time>
      </trkpt>
      <trkpt lat="43.95357" lon="2.22115">
        <ele>174</ele>
        <time>2021-02-25T15:38:48.017Z</time>
      </trkpt>
      <trkpt lat="43.95356" lon="2.22114">
        <ele>174</ele>
        <time>2021-02-25T15:38:49.017Z</time>
      </trkpt>
      <trkpt lat="43.95356" lon="2.22113">
        <ele>174</ele>
        <time>2021-02-25T15:38:50.017Z</time>
      </trkpt>
      <trkpt lat="43.95356" lon="2.22112">
        <ele>174</ele>
        <time>2021-02-25T15:38:51.017Z</time>
      </trkpt>
      <trkpt lat="43.95356" lon="2.2211">
        <ele>174</ele>
        <time>2021-02-25T15:38:52.017Z</time>
      </trkpt>
      <trkpt lat="43.95356" lon="2.22109">
        <ele>174</ele>
        <time>2021-02-25T15:38:53.017Z</time>
      </trkpt>
      <trkpt lat="43.95356" lon="2.22107">
        <ele>174</ele>
        <time>2021-02-25T15:38:54.017Z</time>
      </trkpt>
      <trkpt lat="43.95356" lon="2.22105">
        <ele>174</ele>
        <time>2021-02-25T15:39:09.020Z</time>
      </trkpt>
      <trkpt lat="43.95356" lon="2.22103">
        <ele>174</ele>
        <time>2021-02-25T15:39:10.020Z</time>
      </trkpt>
      <trkpt lat="43.95356" lon="2.22102">
        <ele>173</ele>
        <time>2021-02-25T15:39:11.020Z</time>
      </trkpt>
      <trkpt lat="43.95356" lon="2.22101">
        <ele>173</ele>
        <time>2021-02-25T15:39:12.020Z</time>
      </trkpt>
      <trkpt lat="43.95356" lon="2.22099">
        <ele>173</ele>
        <time>2021-02-25T15:39:13.020Z</time>
      </trkpt>
      <trkpt lat="43.95356" lon="2.22098">
        <ele>173</ele>
        <time>2021-02-25T15:39:14.020Z</time>
      </trkpt>
      <trkpt lat="43.95356" lon="2.22096">
        <ele>173</ele>
        <time>2021-02-25T15:39:15.020Z</time>
      </trkpt>
      <trkpt lat="43.95357" lon="2.22095">
        <ele>172</ele>
        <time>2021-02-25T15:39:16.020Z</time>
      </trkpt>
      <trkpt lat="43.95357" lon="2.22094">
        <ele>172</ele>
        <time>2021-02-25T15:39:17.020Z</time>
      </trkpt>
      <trkpt lat="43.95357" lon="2.22093">
        <ele>172</ele>
        <time>2021-02-25T15:39:20.264Z</time>
      </trkpt>
      <trkpt lat="43.95357" lon="2.22092">
        <ele>171</ele>
        <time>2021-02-25T15:39:21.264Z</time>
      </trkpt>
      <trkpt lat="43.95357" lon="2.2209">
        <ele>171</ele>
        <time>2021-02-25T15:39:22.264Z</time>
      </trkpt>
      <trkpt lat="43.95357" lon="2.22088">
        <ele>171</ele>
        <time>2021-02-25T15:39:23.264Z</time>
      </trkpt>
      <trkpt lat="43.95358" lon="2.22087">
        <ele>171</ele>
        <time>2021-02-25T15:39:24.264Z</time>
      </trkpt>
      <trkpt lat="43.95358" lon="2.22085">
        <ele>171</ele>
        <time>2021-02-25T15:39:25.264Z</time>
      </trkpt>
      <trkpt lat="43.95359" lon="2.22083">
        <ele>170</ele>
        <time>2021-02-25T15:39:26.264Z</time>
      </trkpt>
      <trkpt lat="43.95359" lon="2.22081">
        <ele>170</ele>
        <time>2021-02-25T15:39:27.264Z</time>
      </trkpt>
      <trkpt lat="43.95359" lon="2.2208">
        <ele>170</ele>
        <time>2021-02-25T15:39:28.264Z</time>
      </trkpt>
      <trkpt lat="43.9536" lon="2.22078">
        <ele>170</ele>
        <time>2021-02-25T15:39:29.264Z</time>
      </trkpt>
      <trkpt lat="43.9536" lon="2.22077">
        <ele>170</ele>
        <time>2021-02-25T15:39:30.264Z</time>
      </trkpt>
      <trkpt lat="43.9536" lon="2.22075">
        <ele>170</ele>
        <time>2021-02-25T15:39:31.264Z</time>
      </trkpt>
      <trkpt lat="43.95361" lon="2.22074">
        <ele>170</ele>
        <time>2021-02-25T15:39:32.264Z</time>
      </trkpt>
      <trkpt lat="43.95361" lon="2.22072">
        <ele>169</ele>
        <time>2021-02-25T15:39:33.264Z</time>
      </trkpt>
      <trkpt lat="43.95361" lon="2.2207">
        <ele>169</ele>
        <time>2021-02-25T15:39:34.264Z</time>
      </trkpt>
      <trkpt lat="43.95362" lon="2.22068">
        <ele>169</ele>
        <time>2021-02-25T15:39:35.264Z</time>
      </trkpt>
      <trkpt lat="43.95362" lon="2.22067">
        <ele>169</ele>
        <time>2021-02-25T15:39:36.264Z</time>
      </trkpt>
      <trkpt lat="43.95363" lon="2.22066">
        <ele>169</ele>
        <time>2021-02-25T15:39:37.264Z</time>
      </trkpt>
      <trkpt lat="43.95363" lon="2.22065">
        <ele>169</ele>
        <time>2021-02-25T15:39:38.264Z</time>
      </trkpt>
      <trkpt lat="43.95364" lon="2.22063">
        <ele>169</ele>
        <time>2021-02-25T15:39:39.264Z</time>
      </trkpt>
      <trkpt lat="43.95364" lon="2.22062">
        <ele>169</ele>
        <time>2021-02-25T15:39:40.264Z</time>
      </trkpt>
      <trkpt lat="43.95365" lon="2.22061">
        <ele>169</ele>
        <time>2021-02-25T15:39:41.264Z</time>
      </trkpt>
      <trkpt lat="43.95365" lon="2.22059">
        <ele>169</ele>
        <time>2021-02-25T15:39:42.264Z</time>
      </trkpt>
      <trkpt lat="43.95365" lon="2.22058">
        <ele>169</ele>
        <time>2021-02-25T15:39:43.264Z</time>
      </trkpt>
      <trkpt lat="43.95366" lon="2.22057">
        <ele>169</ele>
        <time>2021-02-25T15:39:44.264Z</time>
      </trkpt>
      <trkpt lat="43.95366" lon="2.22057">
        <ele>169</ele>
        <time>2021-02-25T15:39:45.264Z</time>
      </trkpt>
      <trkpt lat="43.95366" lon="2.22056">
        <ele>169</ele>
        <time>2021-02-25T15:39:46.264Z</time>
      </trkpt>
      <trkpt lat="43.95366" lon="2.22056">
        <ele>169</ele>
        <time>2021-02-25T15:39:47.264Z</time>
      </trkpt>
      <trkpt lat="43.95366" lon="2.22056">
        <ele>169</ele>
        <time>2021-02-25T15:39:48.264Z</time>
      </trkpt>
      <trkpt lat="43.95368" lon="2.22053">
        <ele>169</ele>
        <time>2021-02-25T15:39:49.264Z</time>
      </trkpt>
      <trkpt lat="43.95368" lon="2.22053">
        <ele>169</ele>
        <time>2021-02-25T15:39:50.264Z</time>
      </trkpt>
      <trkpt lat="43.95369" lon="2.22052">
        <ele>169</ele>
        <time>2021-02-25T15:39:51.264Z</time>
      </trkpt>
      <trkpt lat="43.95369" lon="2.22052">
        <ele>169</ele>
        <time>2021-02-25T15:39:52.264Z</time>
      </trkpt>
      <trkpt lat="43.95369" lon="2.22051">
        <ele>169</ele>
        <time>2021-02-25T15:39:53.264Z</time>
      </trkpt>
      <trkpt lat="43.95369" lon="2.22051">
        <ele>169</ele>
        <time>2021-02-25T15:39:54.264Z</time>
      </trkpt>
      <trkpt lat="43.9537" lon="2.2205">
        <ele>169</ele>
        <time>2021-02-25T15:39:55.264Z</time>
      </trkpt>
      <trkpt lat="43.9537" lon="2.22048">
        <ele>169</ele>
        <time>2021-02-25T15:39:56.264Z</time>
      </trkpt>
      <trkpt lat="43.95371" lon="2.22047">
        <ele>169</ele>
        <time>2021-02-25T15:39:57.264Z</time>
      </trkpt>
      <trkpt lat="43.95371" lon="2.22047">
        <ele>169</ele>
        <time>2021-02-25T15:39:58.264Z</time>
      </trkpt>
      <trkpt lat="43.95371" lon="2.22047">
        <ele>169</ele>
        <time>2021-02-25T15:39:59.264Z</time>
      </trkpt>
      <trkpt lat="43.95372" lon="2.22046">
        <ele>169</ele>
        <time>2021-02-25T15:40:00.264Z</time>
      </trkpt>
      <trkpt lat="43.95372" lon="2.22046">
        <ele>169</ele>
        <time>2021-02-25T15:40:01.264Z</time>
      </trkpt>
      <trkpt lat="43.95373" lon="2.22044">
        <ele>169</ele>
        <time>2021-02-25T15:40:02.264Z</time>
      </trkpt>
      <trkpt lat="43.95373" lon="2.22043">
        <ele>169</ele>
        <time>2021-02-25T15:40:03.264Z</time>
      </trkpt>
      <trkpt lat="43.95374" lon="2.22042">
        <ele>169</ele>
        <time>2021-02-25T15:40:04.264Z</time>
      </trkpt>
      <trkpt lat="43.95374" lon="2.2204">
        <ele>169</ele>
        <time>2021-02-25T15:40:05.264Z</time>
      </trkpt>
      <trkpt lat="43.95374" lon="2.22039">
        <ele>169</ele>
        <time>2021-02-25T15:40:06.264Z</time>
      </trkpt>
      <trkpt lat="43.95375" lon="2.22038">
        <ele>169</ele>
        <time>2021-02-25T15:40:07.264Z</time>
      </trkpt>
      <trkpt lat="43.95375" lon="2.22037">
        <ele>169</ele>
        <time>2021-02-25T15:40:08.264Z</time>
      </trkpt>
      <trkpt lat="43.95375" lon="2.22036">
        <ele>169</ele>
        <time>2021-02-25T15:40:09.264Z</time>
      </trkpt>
      <trkpt lat="43.95375" lon="2.22035">
        <ele>169</ele>
        <time>2021-02-25T15:40:10.264Z</time>
      </trkpt>
      <trkpt lat="43.95376" lon="2.22033">
        <ele>169</ele>
        <time>2021-02-25T15:40:11.264Z</time>
      </trkpt>
      <trkpt lat="43.95376" lon="2.22032">
        <ele>169</ele>
        <time>2021-02-25T15:40:12.264Z</time>
      </trkpt>
      <trkpt lat="43.95376" lon="2.2203">
        <ele>169</ele>
        <time>2021-02-25T15:40:13.264Z</time>
      </trkpt>
      <trkpt lat="43.95377" lon="2.22028">
        <ele>169</ele>
        <time>2021-02-25T15:40:14.264Z</time>
      </trkpt>
      <trkpt lat="43.95377" lon="2.22027">
        <ele>169</ele>
        <time>2021-02-25T15:40:15.264Z</time>
      </trkpt>
      <trkpt lat="43.95378" lon="2.22025">
        <ele>169</ele>
        <time>2021-02-25T15:40:16.264Z</time>
      </trkpt>
      <trkpt lat="43.95378" lon="2.22023">
        <ele>169</ele>
        <time>2021-02-25T15:40:17.264Z</time>
      </trkpt>
      <trkpt lat="43.95379" lon="2.22022">
        <ele>169</ele>
        <time>2021-02-25T15:40:18.264Z</time>
      </trkpt>
      <trkpt lat="43.95379" lon="2.22022">
        <ele>169</ele>
        <time>2021-02-25T15:40:19.264Z</time>
      </trkpt>
      <trkpt lat="43.95379" lon="2.22022">
        <ele>169</ele>
        <time>2021-02-25T15:40:20.264Z</time>
      </trkpt>
      <trkpt lat="43.95379" lon="2.22021">
        <ele>169</ele>
        <time>2021-02-25T15:40:21.264Z</time>
      </trkpt>
      <trkpt lat="43.95378" lon="2.22021">
        <ele>169</ele>
        <time>2021-02-25T15:40:22.264Z</time>
      </trkpt>
      <trkpt lat="43.95378" lon="2.2202">
        <ele>169</ele>
        <time>2021-02-25T15:40:23.264Z</time>
      </trkpt>
      <trkpt lat="43.95378" lon="2.22019">
        <ele>170</ele>
        <time>2021-02-25T15:40:24.264Z</time>
      </trkpt>
      <trkpt lat="43.95378" lon="2.22019">
        <ele>170</ele>
        <time>2021-02-25T15:40:25.264Z</time>
      </trkpt>
      <trkpt lat="43.95378" lon="2.22019">
        <ele>170</ele>
        <time>2021-02-25T15:40:26.264Z</time>
      </trkpt>
      <trkpt lat="43.95378" lon="2.22019">
        <ele>170</ele>
        <time>2021-02-25T15:40:27.264Z</time>
      </trkpt>
      <trkpt lat="43.95379" lon="2.22017">
        <ele>170</ele>
        <time>2021-02-25T15:40:28.264Z</time>
      </trkpt>
      <trkpt lat="43.9538" lon="2.22016">
        <ele>170</ele>
        <time>2021-02-25T15:40:29.264Z</time>
      </trkpt>
      <trkpt lat="43.9538" lon="2.22014">
        <ele>170</ele>
        <time>2021-02-25T15:40:30.264Z</time>
      </trkpt>
      <trkpt lat="43.9538" lon="2.22012">
        <ele>170</ele>
        <time>2021-02-25T15:40:31.264Z</time>
      </trkpt>
      <trkpt lat="43.95381" lon="2.2201">
        <ele>170</ele>
        <time>2021-02-25T15:40:32.264Z</time>
      </trkpt>
      <trkpt lat="43.95381" lon="2.22009">
        <ele>170</ele>
        <time>2021-02-25T15:40:33.264Z</time>
      </trkpt>
      <trkpt lat="43.95382" lon="2.22007">
        <ele>170</ele>
        <time>2021-02-25T15:40:34.264Z</time>
      </trkpt>
      <trkpt lat="43.95382" lon="2.22006">
        <ele>170</ele>
        <time>2021-02-25T15:40:35.264Z</time>
      </trkpt>
      <trkpt lat="43.95383" lon="2.22004">
        <ele>169</ele>
        <time>2021-02-25T15:40:36.264Z</time>
      </trkpt>
      <trkpt lat="43.95383" lon="2.22002">
        <ele>169</ele>
        <time>2021-02-25T15:40:37.264Z</time>
      </trkpt>
      <trkpt lat="43.95384" lon="2.22001">
        <ele>169</ele>
        <time>2021-02-25T15:40:38.264Z</time>
      </trkpt>
      <trkpt lat="43.95384" lon="2.21999">
        <ele>169</ele>
        <time>2021-02-25T15:40:39.264Z</time>
      </trkpt>
      <trkpt lat="43.95385" lon="2.21998">
        <ele>169</ele>
        <time>2021-02-25T15:40:40.264Z</time>
      </trkpt>
      <trkpt lat="43.95385" lon="2.21997">
        <ele>169</ele>
        <time>2021-02-25T15:40:41.264Z</time>
      </trkpt>
      <trkpt lat="43.95386" lon="2.21997">
        <ele>169</ele>
        <time>2021-02-25T15:40:42.264Z</time>
      </trkpt>
      <trkpt lat="43.95386" lon="2.21997">
        <ele>169</ele>
        <time>2021-02-25T15:40:43.264Z</time>
      </trkpt>
      <trkpt lat="43.95386" lon="2.21997">
        <ele>169</ele>
        <time>2021-02-25T15:40:44.264Z</time>
      </trkpt>
      <trkpt lat="43.95386" lon="2.21995">
        <ele>169</ele>
        <time>2021-02-25T15:40:45.264Z</time>
      </trkpt>
      <trkpt lat="43.95386" lon="2.21994">
        <ele>169</ele>
        <time>2021-02-25T15:40:46.264Z</time>
      </trkpt>
      <trkpt lat="43.95387" lon="2.21992">
        <ele>169</ele>
        <time>2021-02-25T15:40:47.264Z</time>
      </trkpt>
      <trkpt lat="43.95387" lon="2.21991">
        <ele>169</ele>
        <time>2021-02-25T15:40:48.264Z</time>
      </trkpt>
      <trkpt lat="43.95387" lon="2.21989">
        <ele>168</ele>
        <time>2021-02-25T15:40:49.264Z</time>
      </trkpt>
      <trkpt lat="43.95388" lon="2.21987">
        <ele>168</ele>
        <time>2021-02-25T15:40:50.264Z</time>
      </trkpt>
      <trkpt lat="43.95389" lon="2.21986">
        <ele>168</ele>
        <time>2021-02-25T15:40:51.264Z</time>
      </trkpt>
      <trkpt lat="43.95389" lon="2.21984">
        <ele>168</ele>
        <time>2021-02-25T15:40:52.264Z</time>
      </trkpt>
      <trkpt lat="43.9539" lon="2.21982">
        <ele>168</ele>
        <time>2021-02-25T15:40:53.264Z</time>
      </trkpt>
      <trkpt lat="43.9539" lon="2.21981">
        <ele>168</ele>
        <time>2021-02-25T15:40:54.264Z</time>
      </trkpt>
      <trkpt lat="43.95391" lon="2.21979">
        <ele>168</ele>
        <time>2021-02-25T15:40:55.264Z</time>
      </trkpt>
      <trkpt lat="43.95391" lon="2.21978">
        <ele>168</ele>
        <time>2021-02-25T15:40:56.264Z</time>
      </trkpt>
      <trkpt lat="43.95392" lon="2.21976">
        <ele>168</ele>
        <time>2021-02-25T15:40:57.264Z</time>
      </trkpt>
      <trkpt lat="43.95392" lon="2.21974">
        <ele>168</ele>
        <time>2021-02-25T15:40:58.264Z</time>
      </trkpt>
      <trkpt lat="43.95393" lon="2.21973">
        <ele>168</ele>
        <time>2021-02-25T15:40:59.264Z</time>
      </trkpt>
      <trkpt lat="43.95393" lon="2.21972">
        <ele>168</ele>
        <time>2021-02-25T15:41:00.264Z</time>
      </trkpt>
      <trkpt lat="43.95394" lon="2.21971">
        <ele>168</ele>
        <time>2021-02-25T15:41:01.264Z</time>
      </trkpt>
      <trkpt lat="43.95394" lon="2.21969">
        <ele>168</ele>
        <time>2021-02-25T15:41:02.264Z</time>
      </trkpt>
      <trkpt lat="43.95395" lon="2.21968">
        <ele>168</ele>
        <time>2021-02-25T15:41:03.264Z</time>
      </trkpt>
      <trkpt lat="43.95396" lon="2.21966">
        <ele>168</ele>
        <time>2021-02-25T15:41:04.264Z</time>
      </trkpt>
      <trkpt lat="43.95396" lon="2.21964">
        <ele>168</ele>
        <time>2021-02-25T15:41:05.264Z</time>
      </trkpt>
      <trkpt lat="43.95397" lon="2.21962">
        <ele>168</ele>
        <time>2021-02-25T15:41:06.264Z</time>
      </trkpt>
      <trkpt lat="43.95397" lon="2.21961">
        <ele>168</ele>
        <time>2021-02-25T15:41:07.264Z</time>
      </trkpt>
      <trkpt lat="43.95398" lon="2.2196">
        <ele>168</ele>
        <time>2021-02-25T15:41:08.264Z</time>
      </trkpt>
      <trkpt lat="43.95398" lon="2.21958">
        <ele>168</ele>
        <time>2021-02-25T15:41:09.264Z</time>
      </trkpt>
      <trkpt lat="43.95398" lon="2.21958">
        <ele>168</ele>
        <time>2021-02-25T15:41:10.264Z</time>
      </trkpt>
      <trkpt lat="43.95399" lon="2.21956">
        <ele>168</ele>
        <time>2021-02-25T15:41:11.264Z</time>
      </trkpt>
      <trkpt lat="43.954" lon="2.21953">
        <ele>168</ele>
        <time>2021-02-25T15:41:12.264Z</time>
      </trkpt>
      <trkpt lat="43.954" lon="2.21952">
        <ele>168</ele>
        <time>2021-02-25T15:41:13.264Z</time>
      </trkpt>
      <trkpt lat="43.954" lon="2.21952">
        <ele>168</ele>
        <time>2021-02-25T15:41:14.264Z</time>
      </trkpt>
      <trkpt lat="43.95401" lon="2.21949">
        <ele>168</ele>
        <time>2021-02-25T15:41:15.264Z</time>
      </trkpt>
      <trkpt lat="43.95401" lon="2.21949">
        <ele>168</ele>
        <time>2021-02-25T15:41:16.264Z</time>
      </trkpt>
      <trkpt lat="43.95402" lon="2.21945">
        <ele>168</ele>
        <time>2021-02-25T15:41:17.264Z</time>
      </trkpt>
      <trkpt lat="43.95402" lon="2.21945">
        <ele>168</ele>
        <time>2021-02-25T15:41:18.264Z</time>
      </trkpt>
      <trkpt lat="43.95403" lon="2.21942">
        <ele>168</ele>
        <time>2021-02-25T15:41:19.264Z</time>
      </trkpt>
      <trkpt lat="43.95404" lon="2.21941">
        <ele>168</ele>
        <time>2021-02-25T15:41:20.264Z</time>
      </trkpt>
      <trkpt lat="43.95405" lon="2.21939">
        <ele>168</ele>
        <time>2021-02-25T15:41:21.264Z</time>
      </trkpt>
      <trkpt lat="43.95405" lon="2.21938">
        <ele>168</ele>
        <time>2021-02-25T15:41:22.264Z</time>
      </trkpt>
      <trkpt lat="43.95406" lon="2.21936">
        <ele>168</ele>
        <time>2021-02-25T15:41:23.264Z</time>
      </trkpt>
      <trkpt lat="43.95406" lon="2.21935">
        <ele>168</ele>
        <time>2021-02-25T15:41:24.264Z</time>
      </trkpt>
      <trkpt lat="43.95406" lon="2.21933">
        <ele>168</ele>
        <time>2021-02-25T15:41:25.264Z</time>
      </trkpt>
      <trkpt lat="43.95407" lon="2.21932">
        <ele>168</ele>
        <time>2021-02-25T15:41:26.264Z</time>
      </trkpt>
      <trkpt lat="43.95407" lon="2.2193">
        <ele>168</ele>
        <time>2021-02-25T15:41:27.264Z</time>
      </trkpt>
      <trkpt lat="43.95408" lon="2.21929">
        <ele>168</ele>
        <time>2021-02-25T15:41:28.264Z</time>
      </trkpt>
      <trkpt lat="43.95408" lon="2.21927">
        <ele>168</ele>
        <time>2021-02-25T15:41:29.264Z</time>
      </trkpt>
      <trkpt lat="43.95408" lon="2.21926">
        <ele>168</ele>
        <time>2021-02-25T15:41:30.264Z</time>
      </trkpt>
      <trkpt lat="43.95409" lon="2.21924">
        <ele>168</ele>
        <time>2021-02-25T15:41:31.264Z</time>
      </trkpt>
      <trkpt lat="43.95409" lon="2.21923">
        <ele>168</ele>
        <time>2021-02-25T15:41:32.264Z</time>
      </trkpt>
      <trkpt lat="43.9541" lon="2.21921">
        <ele>168</ele>
        <time>2021-02-25T15:41:33.264Z</time>
      </trkpt>
      <trkpt lat="43.9541" lon="2.2192">
        <ele>168</ele>
        <time>2021-02-25T15:41:34.264Z</time>
      </trkpt>
      <trkpt lat="43.95411" lon="2.21918">
        <ele>168</ele>
        <time>2021-02-25T15:41:35.264Z</time>
      </trkpt>
      <trkpt lat="43.95411" lon="2.21916">
        <ele>168</ele>
        <time>2021-02-25T15:41:38.508Z</time>
      </trkpt>
      <trkpt lat="43.95412" lon="2.21915">
        <ele>168</ele>
        <time>2021-02-25T15:41:39.508Z</time>
      </trkpt>
      <trkpt lat="43.95412" lon="2.21913">
        <ele>168</ele>
        <time>2021-02-25T15:41:40.508Z</time>
      </trkpt>
      <trkpt lat="43.95412" lon="2.21913">
        <ele>168</ele>
        <time>2021-02-25T15:41:41.508Z</time>
      </trkpt>
      <trkpt lat="43.95413" lon="2.2191">
        <ele>168</ele>
        <time>2021-02-25T15:42:20.514Z</time>
      </trkpt>
      <trkpt lat="43.95413" lon="2.21909">
        <ele>168</ele>
        <time>2021-02-25T15:42:21.514Z</time>
      </trkpt>
      <trkpt lat="43.95413" lon="2.21907">
        <ele>168</ele>
        <time>2021-02-25T15:42:22.514Z</time>
      </trkpt>
      <trkpt lat="43.95414" lon="2.21905">
        <ele>168</ele>
        <time>2021-02-25T15:42:23.514Z</time>
      </trkpt>
      <trkpt lat="43.95414" lon="2.21904">
        <ele>168</ele>
        <time>2021-02-25T15:42:24.514Z</time>
      </trkpt>
      <trkpt lat="43.95414" lon="2.21904">
        <ele>168</ele>
        <time>2021-02-25T15:42:25.514Z</time>
      </trkpt>
      <trkpt lat="43.95415" lon="2.219">
        <ele>168</ele>
        <time>2021-02-25T15:43:14.521Z</time>
      </trkpt>
      <trkpt lat="43.95415" lon="2.21899">
        <ele>168</ele>
        <time>2021-02-25T15:43:15.521Z</time>
      </trkpt>
      <trkpt lat="43.95416" lon="2.21897">
        <ele>168</ele>
        <time>2021-02-25T15:43:16.521Z</time>
      </trkpt>
      <trkpt lat="43.95416" lon="2.21896">
        <ele>168</ele>
        <time>2021-02-25T15:43:17.521Z</time>
      </trkpt>
      <trkpt lat="43.95416" lon="2.21894">
        <ele>168</ele>
        <time>2021-02-25T15:43:18.521Z</time>
      </trkpt>
      <trkpt lat="43.95417" lon="2.21893">
        <ele>168</ele>
        <time>2021-02-25T15:43:26.529Z</time>
      </trkpt>
      <trkpt lat="43.95417" lon="2.21891">
        <ele>168</ele>
        <time>2021-02-25T15:43:27.529Z</time>
      </trkpt>
      <trkpt lat="43.95417" lon="2.21889">
        <ele>168</ele>
        <time>2021-02-25T15:43:28.529Z</time>
      </trkpt>
      <trkpt lat="43.95418" lon="2.21888">
        <ele>168</ele>
        <time>2021-02-25T15:43:29.529Z</time>
      </trkpt>
      <trkpt lat="43.95418" lon="2.21886">
        <ele>168</ele>
        <time>2021-02-25T15:43:30.529Z</time>
      </trkpt>
      <trkpt lat="43.95418" lon="2.21885">
        <ele>168</ele>
        <time>2021-02-25T15:43:31.529Z</time>
      </trkpt>
      <trkpt lat="43.95419" lon="2.21883">
        <ele>168</ele>
        <time>2021-02-25T15:43:32.529Z</time>
      </trkpt>
      <trkpt lat="43.95419" lon="2.21881">
        <ele>168</ele>
        <time>2021-02-25T15:43:33.529Z</time>
      </trkpt>
      <trkpt lat="43.95419" lon="2.2188">
        <ele>168</ele>
        <time>2021-02-25T15:43:34.529Z</time>
      </trkpt>
      <trkpt lat="43.95419" lon="2.21878">
        <ele>168</ele>
        <time>2021-02-25T15:43:35.529Z</time>
      </trkpt>
      <trkpt lat="43.95419" lon="2.21878">
        <ele>168</ele>
        <time>2021-02-25T15:43:36.529Z</time>
      </trkpt>
      <trkpt lat="43.9542" lon="2.21876">
        <ele>168</ele>
        <time>2021-02-25T15:43:37.529Z</time>
      </trkpt>
      <trkpt lat="43.9542" lon="2.21873">
        <ele>168</ele>
        <time>2021-02-25T15:43:38.529Z</time>
      </trkpt>
      <trkpt lat="43.95421" lon="2.21871">
        <ele>168</ele>
        <time>2021-02-25T15:43:39.529Z</time>
      </trkpt>
      <trkpt lat="43.95421" lon="2.21871">
        <ele>168</ele>
        <time>2021-02-25T15:43:40.529Z</time>
      </trkpt>
      <trkpt lat="43.95421" lon="2.21868">
        <ele>168</ele>
        <time>2021-02-25T15:43:41.529Z</time>
      </trkpt>
      <trkpt lat="43.95421" lon="2.21868">
        <ele>168</ele>
        <time>2021-02-25T15:43:42.529Z</time>
      </trkpt>
      <trkpt lat="43.95421" lon="2.21866">
        <ele>168</ele>
        <time>2021-02-25T15:43:43.529Z</time>
      </trkpt>
      <trkpt lat="43.95422" lon="2.21864">
        <ele>168</ele>
        <time>2021-02-25T15:43:44.529Z</time>
      </trkpt>
      <trkpt lat="43.95422" lon="2.21861">
        <ele>168</ele>
        <time>2021-02-25T15:43:45.529Z</time>
      </trkpt>
      <trkpt lat="43.95422" lon="2.2186">
        <ele>168</ele>
        <time>2021-02-25T15:43:46.529Z</time>
      </trkpt>
      <trkpt lat="43.95423" lon="2.21858">
        <ele>168</ele>
        <time>2021-02-25T15:43:47.529Z</time>
      </trkpt>
      <trkpt lat="43.95423" lon="2.21857">
        <ele>168</ele>
        <time>2021-02-25T15:43:48.529Z</time>
      </trkpt>
      <trkpt lat="43.95423" lon="2.21855">
        <ele>168</ele>
        <time>2021-02-25T15:43:49.529Z</time>
      </trkpt>
      <trkpt lat="43.95423" lon="2.21853">
        <ele>168</ele>
        <time>2021-02-25T15:43:50.529Z</time>
      </trkpt>
      <trkpt lat="43.95424" lon="2.21851">
        <ele>168</ele>
        <time>2021-02-25T15:43:51.529Z</time>
      </trkpt>
      <trkpt lat="43.95424" lon="2.2185">
        <ele>168</ele>
        <time>2021-02-25T15:43:52.529Z</time>
      </trkpt>
      <trkpt lat="43.95424" lon="2.21849">
        <ele>168</ele>
        <time>2021-02-25T15:43:53.529Z</time>
      </trkpt>
      <trkpt lat="43.95424" lon="2.21849">
        <ele>168</ele>
        <time>2021-02-25T15:43:54.529Z</time>
      </trkpt>
      <trkpt lat="43.95424" lon="2.21848">
        <ele>168</ele>
        <time>2021-02-25T15:43:55.529Z</time>
      </trkpt>
      <trkpt lat="43.95424" lon="2.21848">
        <ele>168</ele>
        <time>2021-02-25T15:43:56.529Z</time>
      </trkpt>
      <trkpt lat="43.95424" lon="2.21847">
        <ele>168</ele>
        <time>2021-02-25T15:43:57.529Z</time>
      </trkpt>
      <trkpt lat="43.95424" lon="2.21846">
        <ele>168</ele>
        <time>2021-02-25T15:43:58.529Z</time>
      </trkpt>
      <trkpt lat="43.95424" lon="2.21844">
        <ele>168</ele>
        <time>2021-02-25T15:43:59.529Z</time>
      </trkpt>
      <trkpt lat="43.95425" lon="2.21842">
        <ele>168</ele>
        <time>2021-02-25T15:44:00.529Z</time>
      </trkpt>
      <trkpt lat="43.95425" lon="2.21841">
        <ele>168</ele>
        <time>2021-02-25T15:44:01.529Z</time>
      </trkpt>
      <trkpt lat="43.95425" lon="2.21839">
        <ele>168</ele>
        <time>2021-02-25T15:44:02.529Z</time>
      </trkpt>
      <trkpt lat="43.95425" lon="2.21837">
        <ele>168</ele>
        <time>2021-02-25T15:44:03.529Z</time>
      </trkpt>
      <trkpt lat="43.95425" lon="2.21837">
        <ele>168</ele>
        <time>2021-02-25T15:44:04.529Z</time>
      </trkpt>
      <trkpt lat="43.95426" lon="2.21834">
        <ele>168</ele>
        <time>2021-02-25T15:44:05.529Z</time>
      </trkpt>
      <trkpt lat="43.95427" lon="2.21833">
        <ele>168</ele>
        <time>2021-02-25T15:44:06.529Z</time>
      </trkpt>
      <trkpt lat="43.95427" lon="2.21831">
        <ele>168</ele>
        <time>2021-02-25T15:44:07.529Z</time>
      </trkpt>
      <trkpt lat="43.95427" lon="2.21829">
        <ele>168</ele>
        <time>2021-02-25T15:44:08.529Z</time>
      </trkpt>
      <trkpt lat="43.95427" lon="2.21827">
        <ele>168</ele>
        <time>2021-02-25T15:44:09.529Z</time>
      </trkpt>
      <trkpt lat="43.95428" lon="2.21825">
        <ele>168</ele>
        <time>2021-02-25T15:44:10.529Z</time>
      </trkpt>
      <trkpt lat="43.95428" lon="2.21824">
        <ele>168</ele>
        <time>2021-02-25T15:44:11.529Z</time>
      </trkpt>
      <trkpt lat="43.95428" lon="2.21822">
        <ele>168</ele>
        <time>2021-02-25T15:44:12.529Z</time>
      </trkpt>
      <trkpt lat="43.95428" lon="2.21821">
        <ele>168</ele>
        <time>2021-02-25T15:44:13.529Z</time>
      </trkpt>
      <trkpt lat="43.95428" lon="2.21819">
        <ele>168</ele>
        <time>2021-02-25T15:44:14.529Z</time>
      </trkpt>
      <trkpt lat="43.95429" lon="2.21817">
        <ele>168</ele>
        <time>2021-02-25T15:44:15.529Z</time>
      </trkpt>
      <trkpt lat="43.95429" lon="2.21815">
        <ele>168</ele>
        <time>2021-02-25T15:44:16.529Z</time>
      </trkpt>
      <trkpt lat="43.95429" lon="2.21813">
        <ele>168</ele>
        <time>2021-02-25T15:44:17.529Z</time>
      </trkpt>
      <trkpt lat="43.95429" lon="2.21812">
        <ele>168</ele>
        <time>2021-02-25T15:44:18.529Z</time>
      </trkpt>
      <trkpt lat="43.95429" lon="2.2181">
        <ele>168</ele>
        <time>2021-02-25T15:44:19.529Z</time>
      </trkpt>
      <trkpt lat="43.9543" lon="2.21808">
        <ele>168</ele>
        <time>2021-02-25T15:44:20.529Z</time>
      </trkpt>
      <trkpt lat="43.9543" lon="2.21807">
        <ele>168</ele>
        <time>2021-02-25T15:44:21.529Z</time>
      </trkpt>
      <trkpt lat="43.9543" lon="2.21805">
        <ele>168</ele>
        <time>2021-02-25T15:44:22.529Z</time>
      </trkpt>
      <trkpt lat="43.9543" lon="2.21803">
        <ele>168</ele>
        <time>2021-02-25T15:44:23.529Z</time>
      </trkpt>
      <trkpt lat="43.9543" lon="2.21801">
        <ele>168</ele>
        <time>2021-02-25T15:44:24.529Z</time>
      </trkpt>
      <trkpt lat="43.9543" lon="2.218">
        <ele>168</ele>
        <time>2021-02-25T15:44:25.529Z</time>
      </trkpt>
      <trkpt lat="43.95431" lon="2.21798">
        <ele>168</ele>
        <time>2021-02-25T15:44:26.529Z</time>
      </trkpt>
      <trkpt lat="43.95431" lon="2.21798">
        <ele>168</ele>
        <time>2021-02-25T15:44:27.529Z</time>
      </trkpt>
      <trkpt lat="43.95431" lon="2.21797">
        <ele>168</ele>
        <time>2021-02-25T15:44:28.529Z</time>
      </trkpt>
      <trkpt lat="43.95432" lon="2.21795">
        <ele>168</ele>
        <time>2021-02-25T15:44:29.529Z</time>
      </trkpt>
      <trkpt lat="43.95432" lon="2.21793">
        <ele>168</ele>
        <time>2021-02-25T15:44:30.529Z</time>
      </trkpt>
      <trkpt lat="43.95432" lon="2.21793">
        <ele>168</ele>
        <time>2021-02-25T15:44:31.529Z</time>
      </trkpt>
      <trkpt lat="43.95433" lon="2.2179">
        <ele>168</ele>
        <time>2021-02-25T15:44:32.529Z</time>
      </trkpt>
      <trkpt lat="43.95433" lon="2.2179">
        <ele>168</ele>
        <time>2021-02-25T15:44:33.529Z</time>
      </trkpt>
      <trkpt lat="43.95433" lon="2.21787">
        <ele>168</ele>
        <time>2021-02-25T15:44:34.529Z</time>
      </trkpt>
      <trkpt lat="43.95433" lon="2.21787">
        <ele>168</ele>
        <time>2021-02-25T15:44:35.529Z</time>
      </trkpt>
      <trkpt lat="43.95434" lon="2.21784">
        <ele>168</ele>
        <time>2021-02-25T15:44:36.529Z</time>
      </trkpt>
      <trkpt lat="43.95435" lon="2.21782">
        <ele>167</ele>
        <time>2021-02-25T15:44:37.529Z</time>
      </trkpt>
      <trkpt lat="43.95435" lon="2.2178">
        <ele>167</ele>
        <time>2021-02-25T15:44:38.529Z</time>
      </trkpt>
      <trkpt lat="43.95435" lon="2.21779">
        <ele>167</ele>
        <time>2021-02-25T15:44:39.529Z</time>
      </trkpt>
      <trkpt lat="43.95436" lon="2.21777">
        <ele>167</ele>
        <time>2021-02-25T15:44:40.529Z</time>
      </trkpt>
      <trkpt lat="43.95436" lon="2.21775">
        <ele>167</ele>
        <time>2021-02-25T15:44:41.529Z</time>
      </trkpt>
      <trkpt lat="43.95436" lon="2.21773">
        <ele>167</ele>
        <time>2021-02-25T15:44:42.529Z</time>
      </trkpt>
      <trkpt lat="43.95436" lon="2.21771">
        <ele>167</ele>
        <time>2021-02-25T15:44:43.529Z</time>
      </trkpt>
      <trkpt lat="43.95437" lon="2.21769">
        <ele>167</ele>
        <time>2021-02-25T15:44:44.529Z</time>
      </trkpt>
      <trkpt lat="43.95437" lon="2.21768">
        <ele>167</ele>
        <time>2021-02-25T15:44:45.529Z</time>
      </trkpt>
      <trkpt lat="43.95437" lon="2.21766">
        <ele>167</ele>
        <time>2021-02-25T15:44:46.529Z</time>
      </trkpt>
      <trkpt lat="43.95437" lon="2.21764">
        <ele>167</ele>
        <time>2021-02-25T15:44:47.529Z</time>
      </trkpt>
      <trkpt lat="43.95438" lon="2.21762">
        <ele>167</ele>
        <time>2021-02-25T15:44:48.529Z</time>
      </trkpt>
      <trkpt lat="43.95438" lon="2.2176">
        <ele>167</ele>
        <time>2021-02-25T15:44:49.529Z</time>
      </trkpt>
      <trkpt lat="43.95438" lon="2.21759">
        <ele>167</ele>
        <time>2021-02-25T15:44:50.529Z</time>
      </trkpt>
      <trkpt lat="43.95439" lon="2.21757">
        <ele>167</ele>
        <time>2021-02-25T15:44:51.529Z</time>
      </trkpt>
      <trkpt lat="43.95439" lon="2.21755">
        <ele>167</ele>
        <time>2021-02-25T15:44:52.529Z</time>
      </trkpt>
      <trkpt lat="43.9544" lon="2.21754">
        <ele>167</ele>
        <time>2021-02-25T15:44:53.529Z</time>
      </trkpt>
      <trkpt lat="43.9544" lon="2.21752">
        <ele>167</ele>
        <time>2021-02-25T15:44:54.529Z</time>
      </trkpt>
      <trkpt lat="43.9544" lon="2.2175">
        <ele>167</ele>
        <time>2021-02-25T15:44:55.529Z</time>
      </trkpt>
      <trkpt lat="43.9544" lon="2.2175">
        <ele>167</ele>
        <time>2021-02-25T15:44:56.529Z</time>
      </trkpt>
      <trkpt lat="43.95441" lon="2.21747">
        <ele>167</ele>
        <time>2021-02-25T15:44:57.529Z</time>
      </trkpt>
      <trkpt lat="43.95441" lon="2.21745">
        <ele>167</ele>
        <time>2021-02-25T15:44:58.529Z</time>
      </trkpt>
      <trkpt lat="43.95441" lon="2.21743">
        <ele>167</ele>
        <time>2021-02-25T15:44:59.529Z</time>
      </trkpt>
      <trkpt lat="43.95441" lon="2.21741">
        <ele>167</ele>
        <time>2021-02-25T15:45:00.529Z</time>
      </trkpt>
      <trkpt lat="43.95442" lon="2.21739">
        <ele>167</ele>
        <time>2021-02-25T15:45:01.529Z</time>
      </trkpt>
      <trkpt lat="43.95442" lon="2.21738">
        <ele>167</ele>
        <time>2021-02-25T15:45:02.529Z</time>
      </trkpt>
      <trkpt lat="43.95442" lon="2.21736">
        <ele>167</ele>
        <time>2021-02-25T15:45:03.529Z</time>
      </trkpt>
      <trkpt lat="43.95442" lon="2.21734">
        <ele>167</ele>
        <time>2021-02-25T15:45:04.529Z</time>
      </trkpt>
      <trkpt lat="43.95442" lon="2.21732">
        <ele>167</ele>
        <time>2021-02-25T15:45:05.529Z</time>
      </trkpt>
      <trkpt lat="43.95443" lon="2.21731">
        <ele>167</ele>
        <time>2021-02-25T15:45:06.529Z</time>
      </trkpt>
      <trkpt lat="43.95443" lon="2.21729">
        <ele>167</ele>
        <time>2021-02-25T15:45:07.529Z</time>
      </trkpt>
      <trkpt lat="43.95443" lon="2.21727">
        <ele>167</ele>
        <time>2021-02-25T15:45:08.529Z</time>
      </trkpt>
      <trkpt lat="43.95443" lon="2.21725">
        <ele>167</ele>
        <time>2021-02-25T15:45:09.529Z</time>
      </trkpt>
      <trkpt lat="43.95443" lon="2.21723">
        <ele>167</ele>
        <time>2021-02-25T15:45:10.529Z</time>
      </trkpt>
      <trkpt lat="43.95444" lon="2.21722">
        <ele>167</ele>
        <time>2021-02-25T15:45:11.529Z</time>
      </trkpt>
      <trkpt lat="43.95444" lon="2.2172">
        <ele>167</ele>
        <time>2021-02-25T15:45:12.529Z</time>
      </trkpt>
      <trkpt lat="43.95444" lon="2.21718">
        <ele>167</ele>
        <time>2021-02-25T15:45:13.529Z</time>
      </trkpt>
      <trkpt lat="43.95444" lon="2.21716">
        <ele>167</ele>
        <time>2021-02-25T15:45:14.529Z</time>
      </trkpt>
      <trkpt lat="43.95444" lon="2.21716">
        <ele>167</ele>
        <time>2021-02-25T15:45:15.529Z</time>
      </trkpt>
      <trkpt lat="43.95445" lon="2.21713">
        <ele>167</ele>
        <time>2021-02-25T15:45:16.529Z</time>
      </trkpt>
      <trkpt lat="43.95445" lon="2.21711">
        <ele>167</ele>
        <time>2021-02-25T15:45:17.529Z</time>
      </trkpt>
      <trkpt lat="43.95445" lon="2.21711">
        <ele>167</ele>
        <time>2021-02-25T15:45:18.529Z</time>
      </trkpt>
      <trkpt lat="43.95445" lon="2.21709">
        <ele>167</ele>
        <time>2021-02-25T15:45:19.529Z</time>
      </trkpt>
      <trkpt lat="43.95446" lon="2.21708">
        <ele>167</ele>
        <time>2021-02-25T15:45:20.529Z</time>
      </trkpt>
      <trkpt lat="43.95446" lon="2.21705">
        <ele>167</ele>
        <time>2021-02-25T15:45:21.529Z</time>
      </trkpt>
      <trkpt lat="43.95446" lon="2.21705">
        <ele>167</ele>
        <time>2021-02-25T15:45:22.529Z</time>
      </trkpt>
      <trkpt lat="43.95446" lon="2.21703">
        <ele>168</ele>
        <time>2021-02-25T15:45:23.529Z</time>
      </trkpt>
      <trkpt lat="43.95446" lon="2.21701">
        <ele>168</ele>
        <time>2021-02-25T15:45:24.529Z</time>
      </trkpt>
      <trkpt lat="43.95446" lon="2.21697">
        <ele>168</ele>
        <time>2021-02-25T15:45:25.529Z</time>
      </trkpt>
      <trkpt lat="43.95446" lon="2.21697">
        <ele>168</ele>
        <time>2021-02-25T15:45:26.529Z</time>
      </trkpt>
      <trkpt lat="43.95446" lon="2.21694">
        <ele>168</ele>
        <time>2021-02-25T15:45:27.529Z</time>
      </trkpt>
      <trkpt lat="43.95447" lon="2.21692">
        <ele>168</ele>
        <time>2021-02-25T15:45:28.529Z</time>
      </trkpt>
      <trkpt lat="43.95447" lon="2.21691">
        <ele>168</ele>
        <time>2021-02-25T15:45:29.529Z</time>
      </trkpt>
      <trkpt lat="43.95447" lon="2.21689">
        <ele>168</ele>
        <time>2021-02-25T15:45:30.529Z</time>
      </trkpt>
      <trkpt lat="43.95447" lon="2.21689">
        <ele>168</ele>
        <time>2021-02-25T15:45:31.529Z</time>
      </trkpt>
      <trkpt lat="43.95447" lon="2.21687">
        <ele>168</ele>
        <time>2021-02-25T15:45:32.529Z</time>
      </trkpt>
      <trkpt lat="43.95448" lon="2.21683">
        <ele>168</ele>
        <time>2021-02-25T15:45:33.529Z</time>
      </trkpt>
      <trkpt lat="43.95448" lon="2.21681">
        <ele>168</ele>
        <time>2021-02-25T15:45:34.529Z</time>
      </trkpt>
      <trkpt lat="43.95448" lon="2.2168">
        <ele>169</ele>
        <time>2021-02-25T15:45:35.529Z</time>
      </trkpt>
      <trkpt lat="43.95448" lon="2.2168">
        <ele>169</ele>
        <time>2021-02-25T15:45:36.529Z</time>
      </trkpt>
      <trkpt lat="43.95448" lon="2.21676">
        <ele>169</ele>
        <time>2021-02-25T15:45:37.529Z</time>
      </trkpt>
      <trkpt lat="43.95448" lon="2.21675">
        <ele>169</ele>
        <time>2021-02-25T15:45:38.529Z</time>
      </trkpt>
      <trkpt lat="43.95448" lon="2.21675">
        <ele>169</ele>
        <time>2021-02-25T15:45:39.529Z</time>
      </trkpt>
      <trkpt lat="43.95448" lon="2.21671">
        <ele>169</ele>
        <time>2021-02-25T15:45:40.529Z</time>
      </trkpt>
      <trkpt lat="43.95448" lon="2.21669">
        <ele>169</ele>
        <time>2021-02-25T15:45:41.529Z</time>
      </trkpt>
      <trkpt lat="43.95448" lon="2.21667">
        <ele>169</ele>
        <time>2021-02-25T15:45:42.529Z</time>
      </trkpt>
      <trkpt lat="43.95448" lon="2.21665">
        <ele>169</ele>
        <time>2021-02-25T15:45:43.529Z</time>
      </trkpt>
      <trkpt lat="43.95448" lon="2.21665">
        <ele>169</ele>
        <time>2021-02-25T15:45:44.529Z</time>
      </trkpt>
      <trkpt lat="43.95448" lon="2.21664">
        <ele>169</ele>
        <time>2021-02-25T15:45:45.529Z</time>
      </trkpt>
      <trkpt lat="43.95448" lon="2.21661">
        <ele>169</ele>
        <time>2021-02-25T15:45:46.529Z</time>
      </trkpt>
      <trkpt lat="43.95448" lon="2.21659">
        <ele>169</ele>
        <time>2021-02-25T15:45:47.529Z</time>
      </trkpt>
      <trkpt lat="43.95448" lon="2.21659">
        <ele>169</ele>
        <time>2021-02-25T15:45:48.529Z</time>
      </trkpt>
      <trkpt lat="43.95448" lon="2.21657">
        <ele>169</ele>
        <time>2021-02-25T15:45:49.529Z</time>
      </trkpt>
      <trkpt lat="43.95449" lon="2.21653">
        <ele>169</ele>
        <time>2021-02-25T15:45:50.529Z</time>
      </trkpt>
      <trkpt lat="43.95449" lon="2.21651">
        <ele>169</ele>
        <time>2021-02-25T15:45:51.529Z</time>
      </trkpt>
      <trkpt lat="43.95449" lon="2.2165">
        <ele>169</ele>
        <time>2021-02-25T15:45:52.529Z</time>
      </trkpt>
      <trkpt lat="43.95449" lon="2.21648">
        <ele>169</ele>
        <time>2021-02-25T15:45:53.529Z</time>
      </trkpt>
      <trkpt lat="43.95449" lon="2.21647">
        <ele>169</ele>
        <time>2021-02-25T15:45:54.529Z</time>
      </trkpt>
      <trkpt lat="43.95449" lon="2.21645">
        <ele>169</ele>
        <time>2021-02-25T15:45:55.529Z</time>
      </trkpt>
      <trkpt lat="43.95449" lon="2.21644">
        <ele>169</ele>
        <time>2021-02-25T15:45:56.529Z</time>
      </trkpt>
      <trkpt lat="43.95449" lon="2.21642">
        <ele>169</ele>
        <time>2021-02-25T15:45:57.529Z</time>
      </trkpt>
      <trkpt lat="43.95449" lon="2.2164">
        <ele>169</ele>
        <time>2021-02-25T15:45:58.529Z</time>
      </trkpt>
      <trkpt lat="43.95449" lon="2.21639">
        <ele>169</ele>
        <time>2021-02-25T15:45:59.529Z</time>
      </trkpt>
      <trkpt lat="43.95449" lon="2.21637">
        <ele>169</ele>
        <time>2021-02-25T15:46:00.529Z</time>
      </trkpt>
      <trkpt lat="43.95449" lon="2.21636">
        <ele>169</ele>
        <time>2021-02-25T15:46:03.774Z</time>
      </trkpt>
      <trkpt lat="43.95449" lon="2.21634">
        <ele>169</ele>
        <time>2021-02-25T15:46:04.774Z</time>
      </trkpt>
      <trkpt lat="43.95449" lon="2.21632">
        <ele>169</ele>
        <time>2021-02-25T15:46:05.774Z</time>
      </trkpt>
      <trkpt lat="43.95449" lon="2.2163">
        <ele>169</ele>
        <time>2021-02-25T15:46:06.774Z</time>
      </trkpt>
      <trkpt lat="43.95449" lon="2.21629">
        <ele>169</ele>
        <time>2021-02-25T15:46:07.774Z</time>
      </trkpt>
      <trkpt lat="43.95449" lon="2.21628">
        <ele>169</ele>
        <time>2021-02-25T15:46:08.774Z</time>
      </trkpt>
      <trkpt lat="43.95449" lon="2.21627">
        <ele>169</ele>
        <time>2021-02-25T15:52:56.778Z</time>
      </trkpt>
      <trkpt lat="43.95449" lon="2.21626">
        <ele>169</ele>
        <time>2021-02-25T15:52:57.778Z</time>
      </trkpt>
      <trkpt lat="43.95449" lon="2.21626">
        <ele>169</ele>
        <time>2021-02-25T15:52:58.778Z</time>
      </trkpt>
      <trkpt lat="43.95449" lon="2.21625">
        <ele>169</ele>
        <time>2021-02-25T15:53:02.788Z</time>
      </trkpt>
      <trkpt lat="43.95449" lon="2.21621">
        <ele>169</ele>
        <time>2021-02-25T15:53:03.788Z</time>
      </trkpt>
      <trkpt lat="43.95448" lon="2.2162">
        <ele>169</ele>
        <time>2021-02-25T15:53:04.788Z</time>
      </trkpt>
      <trkpt lat="43.95448" lon="2.2162">
        <ele>169</ele>
        <time>2021-02-25T15:53:05.788Z</time>
      </trkpt>
      <trkpt lat="43.95448" lon="2.21616">
        <ele>169</ele>
        <time>2021-02-25T15:53:06.788Z</time>
      </trkpt>
      <trkpt lat="43.95448" lon="2.21616">
        <ele>169</ele>
        <time>2021-02-25T15:53:07.788Z</time>
      </trkpt>
      <trkpt lat="43.95448" lon="2.21614">
        <ele>169</ele>
        <time>2021-02-25T15:53:08.788Z</time>
      </trkpt>
      <trkpt lat="43.95448" lon="2.21612">
        <ele>169</ele>
        <time>2021-02-25T15:53:19.793Z</time>
      </trkpt>
      <trkpt lat="43.95449" lon="2.21609">
        <ele>169</ele>
        <time>2021-02-25T15:53:20.793Z</time>
      </trkpt>
      <trkpt lat="43.95449" lon="2.21607">
        <ele>169</ele>
        <time>2021-02-25T15:53:21.793Z</time>
      </trkpt>
      <trkpt lat="43.95449" lon="2.21605">
        <ele>169</ele>
        <time>2021-02-25T15:53:22.793Z</time>
      </trkpt>
      <trkpt lat="43.95449" lon="2.21604">
        <ele>169</ele>
        <time>2021-02-25T15:53:23.793Z</time>
      </trkpt>
      <trkpt lat="43.95449" lon="2.21602">
        <ele>169</ele>
        <time>2021-02-25T15:53:24.793Z</time>
      </trkpt>
      <trkpt lat="43.95449" lon="2.216">
        <ele>169</ele>
        <time>2021-02-25T15:53:25.793Z</time>
      </trkpt>
      <trkpt lat="43.95449" lon="2.216">
        <ele>169</ele>
        <time>2021-02-25T15:53:26.793Z</time>
      </trkpt>
      <trkpt lat="43.95449" lon="2.21597">
        <ele>169</ele>
        <time>2021-02-25T15:53:43.798Z</time>
      </trkpt>
      <trkpt lat="43.95449" lon="2.21595">
        <ele>169</ele>
        <time>2021-02-25T15:53:44.798Z</time>
      </trkpt>
      <trkpt lat="43.95449" lon="2.21595">
        <ele>169</ele>
        <time>2021-02-25T15:53:45.798Z</time>
      </trkpt>
      <trkpt lat="43.95448" lon="2.21591">
        <ele>169</ele>
        <time>2021-02-25T15:53:46.798Z</time>
      </trkpt>
      <trkpt lat="43.95448" lon="2.21591">
        <ele>169</ele>
        <time>2021-02-25T15:53:47.798Z</time>
      </trkpt>
      <trkpt lat="43.95448" lon="2.21588">
        <ele>169</ele>
        <time>2021-02-25T15:54:23.805Z</time>
      </trkpt>
      <trkpt lat="43.95448" lon="2.21587">
        <ele>169</ele>
        <time>2021-02-25T15:54:24.805Z</time>
      </trkpt>
      <trkpt lat="43.95448" lon="2.21585">
        <ele>169</ele>
        <time>2021-02-25T15:54:25.805Z</time>
      </trkpt>
      <trkpt lat="43.95448" lon="2.21583">
        <ele>169</ele>
        <time>2021-02-25T15:54:26.805Z</time>
      </trkpt>
      <trkpt lat="43.95448" lon="2.21581">
        <ele>169</ele>
        <time>2021-02-25T15:54:27.805Z</time>
      </trkpt>
      <trkpt lat="43.95448" lon="2.21579">
        <ele>169</ele>
        <time>2021-02-25T15:54:28.805Z</time>
      </trkpt>
      <trkpt lat="43.95448" lon="2.21577">
        <ele>170</ele>
        <time>2021-02-25T15:54:33.811Z</time>
      </trkpt>
      <trkpt lat="43.95448" lon="2.21575">
        <ele>170</ele>
        <time>2021-02-25T15:54:34.811Z</time>
      </trkpt>
      <trkpt lat="43.95448" lon="2.21575">
        <ele>170</ele>
        <time>2021-02-25T15:54:35.811Z</time>
      </trkpt>
      <trkpt lat="43.95448" lon="2.21572">
        <ele>170</ele>
        <time>2021-02-25T15:54:36.811Z</time>
      </trkpt>
      <trkpt lat="43.95448" lon="2.2157">
        <ele>170</ele>
        <time>2021-02-25T15:54:37.811Z</time>
      </trkpt>
      <trkpt lat="43.95448" lon="2.21569">
        <ele>170</ele>
        <time>2021-02-25T15:54:38.811Z</time>
      </trkpt>
      <trkpt lat="43.95448" lon="2.21569">
        <ele>170</ele>
        <time>2021-02-25T15:54:56.820Z</time>
      </trkpt>
      <trkpt lat="43.95448" lon="2.21567">
        <ele>170</ele>
        <time>2021-02-25T15:54:57.820Z</time>
      </trkpt>
      <trkpt lat="43.95448" lon="2.21565">
        <ele>170</ele>
        <time>2021-02-25T15:54:58.820Z</time>
      </trkpt>
      <trkpt lat="43.95447" lon="2.21562">
        <ele>170</ele>
        <time>2021-02-25T15:54:59.820Z</time>
      </trkpt>
      <trkpt lat="43.95447" lon="2.2156">
        <ele>170</ele>
        <time>2021-02-25T15:55:00.820Z</time>
      </trkpt>
      <trkpt lat="43.95447" lon="2.21558">
        <ele>170</ele>
        <time>2021-02-25T15:55:01.820Z</time>
      </trkpt>
      <trkpt lat="43.95447" lon="2.21558">
        <ele>170</ele>
        <time>2021-02-25T15:55:02.820Z</time>
      </trkpt>
      <trkpt lat="43.95447" lon="2.21557">
        <ele>170</ele>
        <time>2021-02-25T15:55:07.826Z</time>
      </trkpt>
      <trkpt lat="43.95447" lon="2.21553">
        <ele>170</ele>
        <time>2021-02-25T15:55:08.826Z</time>
      </trkpt>
      <trkpt lat="43.95447" lon="2.21553">
        <ele>170</ele>
        <time>2021-02-25T15:55:12.833Z</time>
      </trkpt>
      <trkpt lat="43.95447" lon="2.2155">
        <ele>171</ele>
        <time>2021-02-25T15:55:13.833Z</time>
      </trkpt>
      <trkpt lat="43.95447" lon="2.21548">
        <ele>171</ele>
        <time>2021-02-25T15:56:20.841Z</time>
      </trkpt>
      <trkpt lat="43.95447" lon="2.21548">
        <ele>171</ele>
        <time>2021-02-25T15:56:21.841Z</time>
      </trkpt>
      <trkpt lat="43.95447" lon="2.21545">
        <ele>171</ele>
        <time>2021-02-25T15:56:22.841Z</time>
      </trkpt>
      <trkpt lat="43.95447" lon="2.21543">
        <ele>171</ele>
        <time>2021-02-25T15:56:23.841Z</time>
      </trkpt>
      <trkpt lat="43.95447" lon="2.21542">
        <ele>171</ele>
        <time>2021-02-25T15:56:24.841Z</time>
      </trkpt>
      <trkpt lat="43.95447" lon="2.21542">
        <ele>171</ele>
        <time>2021-02-25T15:56:25.841Z</time>
      </trkpt>
      <trkpt lat="43.95447" lon="2.2154">
        <ele>171</ele>
        <time>2021-02-25T15:56:26.841Z</time>
      </trkpt>
      <trkpt lat="43.95447" lon="2.21538">
        <ele>172</ele>
        <time>2021-02-25T15:56:27.841Z</time>
      </trkpt>
      <trkpt lat="43.95447" lon="2.21537">
        <ele>172</ele>
        <time>2021-02-25T15:56:28.841Z</time>
      </trkpt>
      <trkpt lat="43.95446" lon="2.21534">
        <ele>172</ele>
        <time>2021-02-25T15:56:29.841Z</time>
      </trkpt>
      <trkpt lat="43.95446" lon="2.21532">
        <ele>172</ele>
        <time>2021-02-25T15:56:30.841Z</time>
      </trkpt>
      <trkpt lat="43.95446" lon="2.21532">
        <ele>172</ele>
        <time>2021-02-25T15:56:31.841Z</time>
      </trkpt>
      <trkpt lat="43.95446" lon="2.21529">
        <ele>172</ele>
        <time>2021-02-25T15:57:45.851Z</time>
      </trkpt>
      <trkpt lat="43.95446" lon="2.21529">
        <ele>172</ele>
        <time>2021-02-25T15:57:46.851Z</time>
      </trkpt>
      <trkpt lat="43.95446" lon="2.21527">
        <ele>172</ele>
        <time>2021-02-25T15:57:47.851Z</time>
      </trkpt>
      <trkpt lat="43.95446" lon="2.21525">
        <ele>172</ele>
        <time>2021-02-25T15:57:48.851Z</time>
      </trkpt>
      <trkpt lat="43.95446" lon="2.21522">
        <ele>172</ele>
        <time>2021-02-25T15:57:49.851Z</time>
      </trkpt>
      <trkpt lat="43.95446" lon="2.21522">
        <ele>172</ele>
        <time>2021-02-25T15:57:50.851Z</time>
      </trkpt>
      <trkpt lat="43.95446" lon="2.2152">
        <ele>173</ele>
        <time>2021-02-25T15:57:51.851Z</time>
      </trkpt>
      <trkpt lat="43.95445" lon="2.21518">
        <ele>173</ele>
        <time>2021-02-25T15:57:52.851Z</time>
      </trkpt>
      <trkpt lat="43.95445" lon="2.21517">
        <ele>173</ele>
        <time>2021-02-25T15:57:53.851Z</time>
      </trkpt>
      <trkpt lat="43.95445" lon="2.21515">
        <ele>173</ele>
        <time>2021-02-25T15:57:54.851Z</time>
      </trkpt>
      <trkpt lat="43.95445" lon="2.21511">
        <ele>173</ele>
        <time>2021-02-25T15:57:55.851Z</time>
      </trkpt>
      <trkpt lat="43.95445" lon="2.21511">
        <ele>173</ele>
        <time>2021-02-25T15:57:56.851Z</time>
      </trkpt>
      <trkpt lat="43.95445" lon="2.21509">
        <ele>173</ele>
        <time>2021-02-25T15:57:57.851Z</time>
      </trkpt>
      <trkpt lat="43.95444" lon="2.21506">
        <ele>174</ele>
        <time>2021-02-25T15:57:58.851Z</time>
      </trkpt>
      <trkpt lat="43.95444" lon="2.21506">
        <ele>174</ele>
        <time>2021-02-25T15:57:59.851Z</time>
      </trkpt>
      <trkpt lat="43.95444" lon="2.21504">
        <ele>174</ele>
        <time>2021-02-25T15:58:00.851Z</time>
      </trkpt>
      <trkpt lat="43.95444" lon="2.21503">
        <ele>174</ele>
        <time>2021-02-25T15:58:01.851Z</time>
      </trkpt>
      <trkpt lat="43.95444" lon="2.21499">
        <ele>174</ele>
        <time>2021-02-25T15:58:02.851Z</time>
      </trkpt>
      <trkpt lat="43.95444" lon="2.21499">
        <ele>174</ele>
        <time>2021-02-25T15:58:03.851Z</time>
      </trkpt>
      <trkpt lat="43.95444" lon="2.21497">
        <ele>174</ele>
        <time>2021-02-25T15:58:04.851Z</time>
      </trkpt>
      <trkpt lat="43.95443" lon="2.21494">
        <ele>175</ele>
        <time>2021-02-25T15:58:05.851Z</time>
      </trkpt>
      <trkpt lat="43.95443" lon="2.21493">
        <ele>175</ele>
        <time>2021-02-25T15:58:06.851Z</time>
      </trkpt>
      <trkpt lat="43.95443" lon="2.21493">
        <ele>175</ele>
        <time>2021-02-25T15:58:07.851Z</time>
      </trkpt>
      <trkpt lat="43.95443" lon="2.21491">
        <ele>175</ele>
        <time>2021-02-25T15:58:08.851Z</time>
      </trkpt>
      <trkpt lat="43.95442" lon="2.21487">
        <ele>175</ele>
        <time>2021-02-25T15:58:09.851Z</time>
      </trkpt>
      <trkpt lat="43.95442" lon="2.21486">
        <ele>175</ele>
        <time>2021-02-25T15:58:10.851Z</time>
      </trkpt>
      <trkpt lat="43.95442" lon="2.21484">
        <ele>175</ele>
        <time>2021-02-25T15:58:11.851Z</time>
      </trkpt>
      <trkpt lat="43.95442" lon="2.21484">
        <ele>175</ele>
        <time>2021-02-25T15:58:12.851Z</time>
      </trkpt>
      <trkpt lat="43.95442" lon="2.2148">
        <ele>176</ele>
        <time>2021-02-25T15:58:13.851Z</time>
      </trkpt>
      <trkpt lat="43.95442" lon="2.2148">
        <ele>176</ele>
        <time>2021-02-25T15:58:14.851Z</time>
      </trkpt>
      <trkpt lat="43.95442" lon="2.21479">
        <ele>176</ele>
        <time>2021-02-25T15:58:15.851Z</time>
      </trkpt>
      <trkpt lat="43.95442" lon="2.21477">
        <ele>176</ele>
        <time>2021-02-25T15:58:16.851Z</time>
      </trkpt>
      <trkpt lat="43.95441" lon="2.21473">
        <ele>176</ele>
        <time>2021-02-25T15:58:17.851Z</time>
      </trkpt>
      <trkpt lat="43.95441" lon="2.21473">
        <ele>176</ele>
        <time>2021-02-25T15:58:18.851Z</time>
      </trkpt>
      <trkpt lat="43.95441" lon="2.21471">
        <ele>176</ele>
        <time>2021-02-25T15:58:19.851Z</time>
      </trkpt>
      <trkpt lat="43.9544" lon="2.2147">
        <ele>176</ele>
        <time>2021-02-25T15:58:20.851Z</time>
      </trkpt>
      <trkpt lat="43.95439" lon="2.21467">
        <ele>176</ele>
        <time>2021-02-25T15:58:21.851Z</time>
      </trkpt>
      <trkpt lat="43.95439" lon="2.21465">
        <ele>176</ele>
        <time>2021-02-25T15:58:22.851Z</time>
      </trkpt>
      <trkpt lat="43.95439" lon="2.21465">
        <ele>176</ele>
        <time>2021-02-25T15:58:23.851Z</time>
      </trkpt>
      <trkpt lat="43.95439" lon="2.21464">
        <ele>177</ele>
        <time>2021-02-25T15:58:24.851Z</time>
      </trkpt>
      <trkpt lat="43.95438" lon="2.21462">
        <ele>177</ele>
        <time>2021-02-25T15:58:25.851Z</time>
      </trkpt>
      <trkpt lat="43.95438" lon="2.21459">
        <ele>177</ele>
        <time>2021-02-25T15:58:26.851Z</time>
      </trkpt>
      <trkpt lat="43.95438" lon="2.21459">
        <ele>177</ele>
        <time>2021-02-25T15:58:27.851Z</time>
      </trkpt>
      <trkpt lat="43.95437" lon="2.21457">
        <ele>177</ele>
        <time>2021-02-25T15:58:28.851Z</time>
      </trkpt>
      <trkpt lat="43.95437" lon="2.21456">
        <ele>177</ele>
        <time>2021-02-25T15:58:29.851Z</time>
      </trkpt>
      <trkpt lat="43.95436" lon="2.21453">
        <ele>178</ele>
        <time>2021-02-25T15:58:30.851Z</time>
      </trkpt>
      <trkpt lat="43.95436" lon="2.21453">
        <ele>178</ele>
        <time>2021-02-25T15:58:31.851Z</time>
      </trkpt>
      <trkpt lat="43.95435" lon="2.21451">
        <ele>178</ele>
        <time>2021-02-25T15:58:32.851Z</time>
      </trkpt>
      <trkpt lat="43.95435" lon="2.2145">
        <ele>178</ele>
        <time>2021-02-25T15:58:33.851Z</time>
      </trkpt>
      <trkpt lat="43.95435" lon="2.21446">
        <ele>179</ele>
        <time>2021-02-25T15:58:34.851Z</time>
      </trkpt>
      <trkpt lat="43.95435" lon="2.21446">
        <ele>179</ele>
        <time>2021-02-25T15:58:35.851Z</time>
      </trkpt>
      <trkpt lat="43.95434" lon="2.21444">
        <ele>179</ele>
        <time>2021-02-25T15:58:36.851Z</time>
      </trkpt>
      <trkpt lat="43.95434" lon="2.21443">
        <ele>179</ele>
        <time>2021-02-25T15:58:37.851Z</time>
      </trkpt>
      <trkpt lat="43.95433" lon="2.21439">
        <ele>179</ele>
        <time>2021-02-25T15:58:38.851Z</time>
      </trkpt>
      <trkpt lat="43.95433" lon="2.21439">
        <ele>179</ele>
        <time>2021-02-25T15:58:39.851Z</time>
      </trkpt>
      <trkpt lat="43.95432" lon="2.21437">
        <ele>179</ele>
        <time>2021-02-25T15:58:40.851Z</time>
      </trkpt>
      <trkpt lat="43.95432" lon="2.21436">
        <ele>179</ele>
        <time>2021-02-25T15:58:41.851Z</time>
      </trkpt>
      <trkpt lat="43.95432" lon="2.21434">
        <ele>180</ele>
        <time>2021-02-25T15:58:42.851Z</time>
      </trkpt>
      <trkpt lat="43.95431" lon="2.21432">
        <ele>180</ele>
        <time>2021-02-25T15:58:43.851Z</time>
      </trkpt>
      <trkpt lat="43.95431" lon="2.2143">
        <ele>180</ele>
        <time>2021-02-25T15:58:44.851Z</time>
      </trkpt>
      <trkpt lat="43.9543" lon="2.21429">
        <ele>180</ele>
        <time>2021-02-25T15:58:45.851Z</time>
      </trkpt>
      <trkpt lat="43.9543" lon="2.21427">
        <ele>180</ele>
        <time>2021-02-25T15:58:46.851Z</time>
      </trkpt>
      <trkpt lat="43.9543" lon="2.21425">
        <ele>180</ele>
        <time>2021-02-25T15:58:47.851Z</time>
      </trkpt>
      <trkpt lat="43.95429" lon="2.21423">
        <ele>180</ele>
        <time>2021-02-25T15:58:48.851Z</time>
      </trkpt>
      <trkpt lat="43.95429" lon="2.21422">
        <ele>180</ele>
        <time>2021-02-25T15:58:49.851Z</time>
      </trkpt>
      <trkpt lat="43.95429" lon="2.2142">
        <ele>180</ele>
        <time>2021-02-25T15:58:50.851Z</time>
      </trkpt>
      <trkpt lat="43.95428" lon="2.21418">
        <ele>181</ele>
        <time>2021-02-25T15:58:51.851Z</time>
      </trkpt>
      <trkpt lat="43.95428" lon="2.21416">
        <ele>181</ele>
        <time>2021-02-25T15:58:52.851Z</time>
      </trkpt>
      <trkpt lat="43.95427" lon="2.21413">
        <ele>181</ele>
        <time>2021-02-25T15:58:53.851Z</time>
      </trkpt>
      <trkpt lat="43.95427" lon="2.21411">
        <ele>181</ele>
        <time>2021-02-25T15:58:54.851Z</time>
      </trkpt>
      <trkpt lat="43.95427" lon="2.21411">
        <ele>181</ele>
        <time>2021-02-25T15:58:55.851Z</time>
      </trkpt>
      <trkpt lat="43.95427" lon="2.21409">
        <ele>181</ele>
        <time>2021-02-25T15:58:56.851Z</time>
      </trkpt>
      <trkpt lat="43.95426" lon="2.21407">
        <ele>181</ele>
        <time>2021-02-25T15:58:57.851Z</time>
      </trkpt>
      <trkpt lat="43.95426" lon="2.21405">
        <ele>181</ele>
        <time>2021-02-25T15:58:58.851Z</time>
      </trkpt>
      <trkpt lat="43.95426" lon="2.21404">
        <ele>180</ele>
        <time>2021-02-25T15:58:59.851Z</time>
      </trkpt>
      <trkpt lat="43.95426" lon="2.214">
        <ele>180</ele>
        <time>2021-02-25T15:59:00.851Z</time>
      </trkpt>
      <trkpt lat="43.95426" lon="2.214">
        <ele>180</ele>
        <time>2021-02-25T15:59:01.851Z</time>
      </trkpt>
      <trkpt lat="43.95425" lon="2.21399">
        <ele>180</ele>
        <time>2021-02-25T15:59:02.851Z</time>
      </trkpt>
      <trkpt lat="43.95425" lon="2.21397">
        <ele>180</ele>
        <time>2021-02-25T15:59:03.851Z</time>
      </trkpt>
      <trkpt lat="43.95425" lon="2.21393">
        <ele>180</ele>
        <time>2021-02-25T15:59:04.851Z</time>
      </trkpt>
      <trkpt lat="43.95425" lon="2.21393">
        <ele>180</ele>
        <time>2021-02-25T15:59:05.851Z</time>
      </trkpt>
      <trkpt lat="43.95425" lon="2.21391">
        <ele>179</ele>
        <time>2021-02-25T15:59:06.851Z</time>
      </trkpt>
      <trkpt lat="43.95425" lon="2.21387">
        <ele>179</ele>
        <time>2021-02-25T15:59:07.851Z</time>
      </trkpt>
      <trkpt lat="43.95425" lon="2.21385">
        <ele>178</ele>
        <time>2021-02-25T15:59:08.851Z</time>
      </trkpt>
      <trkpt lat="43.95425" lon="2.21385">
        <ele>178</ele>
        <time>2021-02-25T15:59:09.851Z</time>
      </trkpt>
      <trkpt lat="43.95425" lon="2.21384">
        <ele>178</ele>
        <time>2021-02-25T15:59:10.851Z</time>
      </trkpt>
      <trkpt lat="43.95425" lon="2.2138">
        <ele>178</ele>
        <time>2021-02-25T15:59:11.851Z</time>
      </trkpt>
      <trkpt lat="43.95425" lon="2.21379">
        <ele>177</ele>
        <time>2021-02-25T15:59:12.851Z</time>
      </trkpt>
      <trkpt lat="43.95425" lon="2.21377">
        <ele>177</ele>
        <time>2021-02-25T15:59:13.851Z</time>
      </trkpt>
      <trkpt lat="43.95425" lon="2.21376">
        <ele>177</ele>
        <time>2021-02-25T15:59:14.851Z</time>
      </trkpt>
      <trkpt lat="43.95425" lon="2.21374">
        <ele>177</ele>
        <time>2021-02-25T15:59:15.851Z</time>
      </trkpt>
      <trkpt lat="43.95425" lon="2.21373">
        <ele>177</ele>
        <time>2021-02-25T15:59:16.851Z</time>
      </trkpt>
      <trkpt lat="43.95425" lon="2.21371">
        <ele>177</ele>
        <time>2021-02-25T15:59:17.851Z</time>
      </trkpt>
      <trkpt lat="43.95425" lon="2.21369">
        <ele>177</ele>
        <time>2021-02-25T15:59:18.851Z</time>
      </trkpt>
      <trkpt lat="43.95425" lon="2.21369">
        <ele>177</ele>
        <time>2021-02-25T15:59:19.851Z</time>
      </trkpt>
      <trkpt lat="43.95425" lon="2.21366">
        <ele>177</ele>
        <time>2021-02-25T15:59:20.851Z</time>
      </trkpt>
      <trkpt lat="43.95425" lon="2.21366">
        <ele>177</ele>
        <time>2021-02-25T15:59:21.851Z</time>
      </trkpt>
      <trkpt lat="43.95425" lon="2.21364">
        <ele>176</ele>
        <time>2021-02-25T15:59:22.851Z</time>
      </trkpt>
      <trkpt lat="43.95425" lon="2.21362">
        <ele>176</ele>
        <time>2021-02-25T15:59:23.851Z</time>
      </trkpt>
      <trkpt lat="43.95425" lon="2.2136">
        <ele>176</ele>
        <time>2021-02-25T15:59:24.851Z</time>
      </trkpt>
      <trkpt lat="43.95425" lon="2.21359">
        <ele>176</ele>
        <time>2021-02-25T15:59:25.851Z</time>
      </trkpt>
      <trkpt lat="43.95425" lon="2.21357">
        <ele>176</ele>
        <time>2021-02-25T15:59:26.851Z</time>
      </trkpt>
      <trkpt lat="43.95425" lon="2.21355">
        <ele>176</ele>
        <time>2021-02-25T15:59:27.851Z</time>
      </trkpt>
      <trkpt lat="43.95425" lon="2.21353">
        <ele>176</ele>
        <time>2021-02-25T15:59:28.851Z</time>
      </trkpt>
      <trkpt lat="43.95425" lon="2.21351">
        <ele>176</ele>
        <time>2021-02-25T15:59:29.851Z</time>
      </trkpt>
      <trkpt lat="43.95425" lon="2.21349">
        <ele>176</ele>
        <time>2021-02-25T15:59:30.851Z</time>
      </trkpt>
      <trkpt lat="43.95425" lon="2.21345">
        <ele>176</ele>
        <time>2021-02-25T15:59:31.851Z</time>
      </trkpt>
      <trkpt lat="43.95425" lon="2.21345">
        <ele>176</ele>
        <time>2021-02-25T15:59:32.851Z</time>
      </trkpt>
      <trkpt lat="43.95425" lon="2.21344">
        <ele>176</ele>
        <time>2021-02-25T15:59:33.851Z</time>
      </trkpt>
      <trkpt lat="43.95425" lon="2.21342">
        <ele>176</ele>
        <time>2021-02-25T15:59:34.851Z</time>
      </trkpt>
      <trkpt lat="43.95425" lon="2.2134">
        <ele>175</ele>
        <time>2021-02-25T15:59:35.851Z</time>
      </trkpt>
      <trkpt lat="43.95425" lon="2.21339">
        <ele>175</ele>
        <time>2021-02-25T15:59:36.851Z</time>
      </trkpt>
      <trkpt lat="43.95425" lon="2.21337">
        <ele>175</ele>
        <time>2021-02-25T15:59:37.851Z</time>
      </trkpt>
      <trkpt lat="43.95426" lon="2.21335">
        <ele>175</ele>
        <time>2021-02-25T15:59:38.851Z</time>
      </trkpt>
      <trkpt lat="43.95426" lon="2.21334">
        <ele>175</ele>
        <time>2021-02-25T15:59:39.851Z</time>
      </trkpt>
      <trkpt lat="43.95426" lon="2.21332">
        <ele>174</ele>
        <time>2021-02-25T15:59:40.851Z</time>
      </trkpt>
      <trkpt lat="43.95426" lon="2.21331">
        <ele>174</ele>
        <time>2021-02-25T15:59:41.851Z</time>
      </trkpt>
      <trkpt lat="43.95426" lon="2.2133">
        <ele>174</ele>
        <time>2021-02-25T15:59:42.851Z</time>
      </trkpt>
      <trkpt lat="43.95427" lon="2.21328">
        <ele>174</ele>
        <time>2021-02-25T15:59:43.851Z</time>
      </trkpt>
      <trkpt lat="43.95427" lon="2.21326">
        <ele>174</ele>
        <time>2021-02-25T15:59:44.851Z</time>
      </trkpt>
      <trkpt lat="43.95427" lon="2.21324">
        <ele>174</ele>
        <time>2021-02-25T15:59:45.851Z</time>
      </trkpt>
      <trkpt lat="43.95427" lon="2.21323">
        <ele>173</ele>
        <time>2021-02-25T15:59:46.851Z</time>
      </trkpt>
      <trkpt lat="43.95428" lon="2.21321">
        <ele>173</ele>
        <time>2021-02-25T15:59:47.851Z</time>
      </trkpt>
      <trkpt lat="43.95428" lon="2.21319">
        <ele>173</ele>
        <time>2021-02-25T15:59:48.851Z</time>
      </trkpt>
      <trkpt lat="43.95428" lon="2.21317">
        <ele>173</ele>
        <time>2021-02-25T15:59:56.867Z</time>
      </trkpt>
      <trkpt lat="43.95428" lon="2.21316">
        <ele>172</ele>
        <time>2021-02-25T15:59:57.867Z</time>
      </trkpt>
      <trkpt lat="43.95427" lon="2.21314">
        <ele>172</ele>
        <time>2021-02-25T15:59:58.867Z</time>
      </trkpt>
      <trkpt lat="43.95428" lon="2.21313">
        <ele>172</ele>
        <time>2021-02-25T15:59:59.867Z</time>
      </trkpt>
      <trkpt lat="43.95428" lon="2.21311">
        <ele>172</ele>
        <time>2021-02-25T16:00:00.867Z</time>
      </trkpt>
      <trkpt lat="43.95428" lon="2.21309">
        <ele>172</ele>
        <time>2021-02-25T16:00:01.867Z</time>
      </trkpt>
      <trkpt lat="43.95428" lon="2.21307">
        <ele>171</ele>
        <time>2021-02-25T16:00:02.867Z</time>
      </trkpt>
      <trkpt lat="43.95428" lon="2.21306">
        <ele>171</ele>
        <time>2021-02-25T16:00:03.867Z</time>
      </trkpt>
      <trkpt lat="43.95428" lon="2.21304">
        <ele>171</ele>
        <time>2021-02-25T16:00:04.867Z</time>
      </trkpt>
      <trkpt lat="43.95427" lon="2.21302">
        <ele>171</ele>
        <time>2021-02-25T16:00:05.867Z</time>
      </trkpt>
      <trkpt lat="43.95427" lon="2.21301">
        <ele>171</ele>
        <time>2021-02-25T16:00:06.867Z</time>
      </trkpt>
      <trkpt lat="43.95427" lon="2.21299">
        <ele>171</ele>
        <time>2021-02-25T16:00:07.867Z</time>
      </trkpt>
      <trkpt lat="43.95427" lon="2.21298">
        <ele>171</ele>
        <time>2021-02-25T16:00:08.867Z</time>
      </trkpt>
      <trkpt lat="43.95427" lon="2.21296">
        <ele>171</ele>
        <time>2021-02-25T16:00:09.867Z</time>
      </trkpt>
      <trkpt lat="43.95426" lon="2.21294">
        <ele>171</ele>
        <time>2021-02-25T16:00:10.867Z</time>
      </trkpt>
      <trkpt lat="43.95426" lon="2.21293">
        <ele>171</ele>
        <time>2021-02-25T16:00:11.867Z</time>
      </trkpt>
      <trkpt lat="43.95426" lon="2.21291">
        <ele>171</ele>
        <time>2021-02-25T16:00:12.867Z</time>
      </trkpt>
      <trkpt lat="43.95425" lon="2.2129">
        <ele>171</ele>
        <time>2021-02-25T16:00:13.867Z</time>
      </trkpt>
      <trkpt lat="43.95425" lon="2.21288">
        <ele>171</ele>
        <time>2021-02-25T16:00:14.867Z</time>
      </trkpt>
      <trkpt lat="43.95425" lon="2.21287">
        <ele>171</ele>
        <time>2021-02-25T16:00:15.867Z</time>
      </trkpt>
      <trkpt lat="43.95424" lon="2.21285">
        <ele>171</ele>
        <time>2021-02-25T16:00:16.867Z</time>
      </trkpt>
      <trkpt lat="43.95424" lon="2.21284">
        <ele>171</ele>
        <time>2021-02-25T16:00:17.867Z</time>
      </trkpt>
      <trkpt lat="43.95423" lon="2.21282">
        <ele>171</ele>
        <time>2021-02-25T16:00:18.867Z</time>
      </trkpt>
      <trkpt lat="43.95423" lon="2.2128">
        <ele>171</ele>
        <time>2021-02-25T16:00:19.867Z</time>
      </trkpt>
      <trkpt lat="43.95422" lon="2.21278">
        <ele>171</ele>
        <time>2021-02-25T16:00:20.867Z</time>
      </trkpt>
      <trkpt lat="43.95422" lon="2.21276">
        <ele>171</ele>
        <time>2021-02-25T16:00:21.867Z</time>
      </trkpt>
      <trkpt lat="43.95422" lon="2.21275">
        <ele>171</ele>
        <time>2021-02-25T16:00:22.867Z</time>
      </trkpt>
      <trkpt lat="43.95421" lon="2.21273">
        <ele>171</ele>
        <time>2021-02-25T16:00:23.867Z</time>
      </trkpt>
      <trkpt lat="43.95421" lon="2.21272">
        <ele>171</ele>
        <time>2021-02-25T16:00:24.867Z</time>
      </trkpt>
      <trkpt lat="43.95421" lon="2.2127">
        <ele>171</ele>
        <time>2021-02-25T16:00:25.867Z</time>
      </trkpt>
      <trkpt lat="43.9542" lon="2.21268">
        <ele>171</ele>
        <time>2021-02-25T16:00:26.867Z</time>
      </trkpt>
      <trkpt lat="43.9542" lon="2.21267">
        <ele>171</ele>
        <time>2021-02-25T16:00:27.867Z</time>
      </trkpt>
      <trkpt lat="43.95419" lon="2.21265">
        <ele>170</ele>
        <time>2021-02-25T16:00:28.867Z</time>
      </trkpt>
      <trkpt lat="43.95419" lon="2.21264">
        <ele>170</ele>
        <time>2021-02-25T16:00:29.867Z</time>
      </trkpt>
      <trkpt lat="43.95418" lon="2.21262">
        <ele>170</ele>
        <time>2021-02-25T16:00:30.867Z</time>
      </trkpt>
      <trkpt lat="43.95418" lon="2.21261">
        <ele>170</ele>
        <time>2021-02-25T16:00:31.867Z</time>
      </trkpt>
      <trkpt lat="43.95417" lon="2.21259">
        <ele>170</ele>
        <time>2021-02-25T16:00:32.867Z</time>
      </trkpt>
      <trkpt lat="43.95417" lon="2.21257">
        <ele>170</ele>
        <time>2021-02-25T16:00:33.867Z</time>
      </trkpt>
      <trkpt lat="43.95416" lon="2.21256">
        <ele>170</ele>
        <time>2021-02-25T16:00:34.867Z</time>
      </trkpt>
      <trkpt lat="43.95416" lon="2.21254">
        <ele>170</ele>
        <time>2021-02-25T16:00:35.867Z</time>
      </trkpt>
      <trkpt lat="43.95416" lon="2.21252">
        <ele>170</ele>
        <time>2021-02-25T16:00:36.867Z</time>
      </trkpt>
      <trkpt lat="43.95415" lon="2.21251">
        <ele>170</ele>
        <time>2021-02-25T16:00:37.867Z</time>
      </trkpt>
      <trkpt lat="43.95415" lon="2.2125">
        <ele>170</ele>
        <time>2021-02-25T16:00:38.867Z</time>
      </trkpt>
      <trkpt lat="43.95414" lon="2.21248">
        <ele>170</ele>
        <time>2021-02-25T16:00:39.867Z</time>
      </trkpt>
      <trkpt lat="43.95414" lon="2.21246">
        <ele>169</ele>
        <time>2021-02-25T16:00:40.867Z</time>
      </trkpt>
      <trkpt lat="43.95413" lon="2.21244">
        <ele>169</ele>
        <time>2021-02-25T16:00:41.867Z</time>
      </trkpt>
      <trkpt lat="43.95413" lon="2.21243">
        <ele>169</ele>
        <time>2021-02-25T16:00:42.867Z</time>
      </trkpt>
      <trkpt lat="43.95412" lon="2.21241">
        <ele>169</ele>
        <time>2021-02-25T16:00:43.867Z</time>
      </trkpt>
      <trkpt lat="43.95412" lon="2.2124">
        <ele>169</ele>
        <time>2021-02-25T16:00:44.867Z</time>
      </trkpt>
      <trkpt lat="43.95412" lon="2.21238">
        <ele>169</ele>
        <time>2021-02-25T16:00:45.867Z</time>
      </trkpt>
      <trkpt lat="43.95411" lon="2.21237">
        <ele>169</ele>
        <time>2021-02-25T16:00:46.867Z</time>
      </trkpt>
      <trkpt lat="43.95411" lon="2.21235">
        <ele>169</ele>
        <time>2021-02-25T16:00:47.867Z</time>
      </trkpt>
      <trkpt lat="43.9541" lon="2.21234">
        <ele>169</ele>
        <time>2021-02-25T16:00:48.867Z</time>
      </trkpt>
      <trkpt lat="43.9541" lon="2.21232">
        <ele>169</ele>
        <time>2021-02-25T16:00:49.867Z</time>
      </trkpt>
      <trkpt lat="43.95409" lon="2.21231">
        <ele>169</ele>
        <time>2021-02-25T16:00:50.867Z</time>
      </trkpt>
      <trkpt lat="43.95409" lon="2.21229">
        <ele>169</ele>
        <time>2021-02-25T16:00:51.867Z</time>
      </trkpt>
      <trkpt lat="43.95408" lon="2.21227">
        <ele>169</ele>
        <time>2021-02-25T16:00:52.867Z</time>
      </trkpt>
      <trkpt lat="43.95408" lon="2.21226">
        <ele>169</ele>
        <time>2021-02-25T16:00:53.867Z</time>
      </trkpt>
      <trkpt lat="43.95407" lon="2.21224">
        <ele>169</ele>
        <time>2021-02-25T16:00:54.867Z</time>
      </trkpt>
      <trkpt lat="43.95407" lon="2.21223">
        <ele>169</ele>
        <time>2021-02-25T16:00:55.867Z</time>
      </trkpt>
      <trkpt lat="43.95406" lon="2.21221">
        <ele>169</ele>
        <time>2021-02-25T16:00:56.867Z</time>
      </trkpt>
      <trkpt lat="43.95406" lon="2.21219">
        <ele>169</ele>
        <time>2021-02-25T16:00:57.867Z</time>
      </trkpt>
      <trkpt lat="43.95405" lon="2.21217">
        <ele>169</ele>
        <time>2021-02-25T16:00:58.867Z</time>
      </trkpt>
      <trkpt lat="43.95405" lon="2.21215">
        <ele>169</ele>
        <time>2021-02-25T16:00:59.867Z</time>
      </trkpt>
      <trkpt lat="43.95405" lon="2.21214">
        <ele>169</ele>
        <time>2021-02-25T16:01:00.867Z</time>
      </trkpt>
      <trkpt lat="43.95405" lon="2.21213">
        <ele>169</ele>
        <time>2021-02-25T16:01:01.867Z</time>
      </trkpt>
      <trkpt lat="43.95405" lon="2.21212">
        <ele>169</ele>
        <time>2021-02-25T16:01:02.867Z</time>
      </trkpt>
      <trkpt lat="43.95405" lon="2.21211">
        <ele>169</ele>
        <time>2021-02-25T16:01:03.867Z</time>
      </trkpt>
      <trkpt lat="43.95405" lon="2.2121">
        <ele>169</ele>
        <time>2021-02-25T16:01:04.867Z</time>
      </trkpt>
      <trkpt lat="43.95404" lon="2.2121">
        <ele>169</ele>
        <time>2021-02-25T16:01:05.867Z</time>
      </trkpt>
      <trkpt lat="43.95404" lon="2.21209">
        <ele>169</ele>
        <time>2021-02-25T16:01:06.867Z</time>
      </trkpt>
      <trkpt lat="43.95404" lon="2.21209">
        <ele>169</ele>
        <time>2021-02-25T16:01:07.867Z</time>
      </trkpt>
      <trkpt lat="43.95404" lon="2.21207">
        <ele>168</ele>
        <time>2021-02-25T16:01:08.867Z</time>
      </trkpt>
      <trkpt lat="43.95404" lon="2.21205">
        <ele>168</ele>
        <time>2021-02-25T16:01:09.867Z</time>
      </trkpt>
      <trkpt lat="43.95403" lon="2.21204">
        <ele>168</ele>
        <time>2021-02-25T16:01:10.867Z</time>
      </trkpt>
      <trkpt lat="43.95403" lon="2.21203">
        <ele>168</ele>
        <time>2021-02-25T16:01:11.867Z</time>
      </trkpt>
      <trkpt lat="43.95402" lon="2.21201">
        <ele>168</ele>
        <time>2021-02-25T16:01:12.867Z</time>
      </trkpt>
      <trkpt lat="43.95402" lon="2.212">
        <ele>168</ele>
        <time>2021-02-25T16:01:13.867Z</time>
      </trkpt>
      <trkpt lat="43.95401" lon="2.21198">
        <ele>168</ele>
        <time>2021-02-25T16:01:14.867Z</time>
      </trkpt>
      <trkpt lat="43.954" lon="2.21197">
        <ele>168</ele>
        <time>2021-02-25T16:01:15.867Z</time>
      </trkpt>
      <trkpt lat="43.954" lon="2.21195">
        <ele>168</ele>
        <time>2021-02-25T16:01:16.867Z</time>
      </trkpt>
      <trkpt lat="43.95399" lon="2.21194">
        <ele>167</ele>
        <time>2021-02-25T16:01:17.867Z</time>
      </trkpt>
      <trkpt lat="43.95399" lon="2.21193">
        <ele>167</ele>
        <time>2021-02-25T16:01:18.867Z</time>
      </trkpt>
      <trkpt lat="43.95399" lon="2.21192">
        <ele>167</ele>
        <time>2021-02-25T16:01:19.867Z</time>
      </trkpt>
      <trkpt lat="43.95398" lon="2.2119">
        <ele>167</ele>
        <time>2021-02-25T16:01:20.867Z</time>
      </trkpt>
      <trkpt lat="43.95398" lon="2.21189">
        <ele>167</ele>
        <time>2021-02-25T16:01:21.867Z</time>
      </trkpt>
      <trkpt lat="43.95397" lon="2.21187">
        <ele>167</ele>
        <time>2021-02-25T16:01:22.867Z</time>
      </trkpt>
      <trkpt lat="43.95397" lon="2.21186">
        <ele>167</ele>
        <time>2021-02-25T16:01:23.867Z</time>
      </trkpt>
      <trkpt lat="43.95396" lon="2.21185">
        <ele>167</ele>
        <time>2021-02-25T16:01:24.867Z</time>
      </trkpt>
      <trkpt lat="43.95396" lon="2.21183">
        <ele>167</ele>
        <time>2021-02-25T16:01:25.867Z</time>
      </trkpt>
      <trkpt lat="43.95395" lon="2.21182">
        <ele>167</ele>
        <time>2021-02-25T16:01:26.867Z</time>
      </trkpt>
      <trkpt lat="43.95395" lon="2.2118">
        <ele>166</ele>
        <time>2021-02-25T16:01:27.867Z</time>
      </trkpt>
      <trkpt lat="43.95394" lon="2.21179">
        <ele>166</ele>
        <time>2021-02-25T16:01:28.867Z</time>
      </trkpt>
      <trkpt lat="43.95394" lon="2.21177">
        <ele>166</ele>
        <time>2021-02-25T16:01:29.867Z</time>
      </trkpt>
      <trkpt lat="43.95393" lon="2.21176">
        <ele>166</ele>
        <time>2021-02-25T16:01:30.867Z</time>
      </trkpt>
      <trkpt lat="43.95393" lon="2.21174">
        <ele>166</ele>
        <time>2021-02-25T16:01:31.867Z</time>
      </trkpt>
      <trkpt lat="43.95392" lon="2.21173">
        <ele>166</ele>
        <time>2021-02-25T16:01:32.867Z</time>
      </trkpt>
      <trkpt lat="43.95392" lon="2.21171">
        <ele>166</ele>
        <time>2021-02-25T16:01:33.867Z</time>
      </trkpt>
      <trkpt lat="43.95391" lon="2.2117">
        <ele>166</ele>
        <time>2021-02-25T16:01:34.867Z</time>
      </trkpt>
      <trkpt lat="43.95391" lon="2.21168">
        <ele>166</ele>
        <time>2021-02-25T16:01:35.867Z</time>
      </trkpt>
      <trkpt lat="43.9539" lon="2.21167">
        <ele>167</ele>
        <time>2021-02-25T16:01:36.867Z</time>
      </trkpt>
      <trkpt lat="43.9539" lon="2.21165">
        <ele>167</ele>
        <time>2021-02-25T16:01:37.867Z</time>
      </trkpt>
      <trkpt lat="43.9539" lon="2.21163">
        <ele>167</ele>
        <time>2021-02-25T16:01:38.867Z</time>
      </trkpt>
      <trkpt lat="43.9539" lon="2.21161">
        <ele>167</ele>
        <time>2021-02-25T16:01:39.867Z</time>
      </trkpt>
      <trkpt lat="43.9539" lon="2.21159">
        <ele>167</ele>
        <time>2021-02-25T16:01:40.867Z</time>
      </trkpt>
      <trkpt lat="43.9539" lon="2.21157">
        <ele>167</ele>
        <time>2021-02-25T16:01:41.867Z</time>
      </trkpt>
      <trkpt lat="43.9539" lon="2.21155">
        <ele>167</ele>
        <time>2021-02-25T16:01:42.867Z</time>
      </trkpt>
      <trkpt lat="43.9539" lon="2.21154">
        <ele>167</ele>
        <time>2021-02-25T16:01:43.867Z</time>
      </trkpt>
      <trkpt lat="43.9539" lon="2.21152">
        <ele>167</ele>
        <time>2021-02-25T16:01:44.867Z</time>
      </trkpt>
      <trkpt lat="43.9539" lon="2.2115">
        <ele>167</ele>
        <time>2021-02-25T16:01:45.867Z</time>
      </trkpt>
      <trkpt lat="43.95391" lon="2.21149">
        <ele>167</ele>
        <time>2021-02-25T16:01:46.867Z</time>
      </trkpt>
      <trkpt lat="43.95391" lon="2.21147">
        <ele>167</ele>
        <time>2021-02-25T16:01:47.867Z</time>
      </trkpt>
      <trkpt lat="43.95391" lon="2.21145">
        <ele>167</ele>
        <time>2021-02-25T16:01:48.867Z</time>
      </trkpt>
      <trkpt lat="43.95391" lon="2.21143">
        <ele>167</ele>
        <time>2021-02-25T16:01:49.867Z</time>
      </trkpt>
      <trkpt lat="43.9539" lon="2.21141">
        <ele>167</ele>
        <time>2021-02-25T16:01:50.867Z</time>
      </trkpt>
      <trkpt lat="43.9539" lon="2.21139">
        <ele>167</ele>
        <time>2021-02-25T16:01:51.867Z</time>
      </trkpt>
      <trkpt lat="43.9539" lon="2.21138">
        <ele>167</ele>
        <time>2021-02-25T16:01:52.867Z</time>
      </trkpt>
      <trkpt lat="43.9539" lon="2.21136">
        <ele>168</ele>
        <time>2021-02-25T16:01:53.867Z</time>
      </trkpt>
      <trkpt lat="43.9539" lon="2.21134">
        <ele>168</ele>
        <time>2021-02-25T16:01:54.867Z</time>
      </trkpt>
      <trkpt lat="43.9539" lon="2.21132">
        <ele>168</ele>
        <time>2021-02-25T16:01:55.867Z</time>
      </trkpt>
      <trkpt lat="43.9539" lon="2.2113">
        <ele>168</ele>
        <time>2021-02-25T16:01:56.867Z</time>
      </trkpt>
      <trkpt lat="43.9539" lon="2.21128">
        <ele>168</ele>
        <time>2021-02-25T16:01:57.867Z</time>
      </trkpt>
      <trkpt lat="43.9539" lon="2.21126">
        <ele>168</ele>
        <time>2021-02-25T16:01:58.867Z</time>
      </trkpt>
      <trkpt lat="43.9539" lon="2.21125">
        <ele>168</ele>
        <time>2021-02-25T16:01:59.867Z</time>
      </trkpt>
      <trkpt lat="43.9539" lon="2.21123">
        <ele>168</ele>
        <time>2021-02-25T16:02:00.867Z</time>
      </trkpt>
      <trkpt lat="43.9539" lon="2.21121">
        <ele>168</ele>
        <time>2021-02-25T16:02:01.867Z</time>
      </trkpt>
      <trkpt lat="43.95391" lon="2.21119">
        <ele>168</ele>
        <time>2021-02-25T16:02:02.867Z</time>
      </trkpt>
      <trkpt lat="43.95391" lon="2.21117">
        <ele>168</ele>
        <time>2021-02-25T16:02:03.867Z</time>
      </trkpt>
      <trkpt lat="43.95391" lon="2.21116">
        <ele>168</ele>
        <time>2021-02-25T16:02:04.867Z</time>
      </trkpt>
      <trkpt lat="43.95391" lon="2.21114">
        <ele>168</ele>
        <time>2021-02-25T16:02:05.867Z</time>
      </trkpt>
      <trkpt lat="43.95392" lon="2.21112">
        <ele>168</ele>
        <time>2021-02-25T16:02:06.867Z</time>
      </trkpt>
      <trkpt lat="43.95392" lon="2.2111">
        <ele>168</ele>
        <time>2021-02-25T16:02:07.867Z</time>
      </trkpt>
      <trkpt lat="43.95392" lon="2.21109">
        <ele>168</ele>
        <time>2021-02-25T16:02:08.867Z</time>
      </trkpt>
      <trkpt lat="43.95393" lon="2.21107">
        <ele>168</ele>
        <time>2021-02-25T16:02:09.867Z</time>
      </trkpt>
      <trkpt lat="43.95393" lon="2.21106">
        <ele>168</ele>
        <time>2021-02-25T16:02:10.867Z</time>
      </trkpt>
      <trkpt lat="43.95394" lon="2.21104">
        <ele>168</ele>
        <time>2021-02-25T16:02:11.867Z</time>
      </trkpt>
      <trkpt lat="43.95394" lon="2.21102">
        <ele>168</ele>
        <time>2021-02-25T16:02:12.867Z</time>
      </trkpt>
      <trkpt lat="43.95394" lon="2.211">
        <ele>168</ele>
        <time>2021-02-25T16:02:13.867Z</time>
      </trkpt>
      <trkpt lat="43.95395" lon="2.21099">
        <ele>168</ele>
        <time>2021-02-25T16:02:14.867Z</time>
      </trkpt>
      <trkpt lat="43.95395" lon="2.21097">
        <ele>168</ele>
        <time>2021-02-25T16:02:15.867Z</time>
      </trkpt>
      <trkpt lat="43.95395" lon="2.21096">
        <ele>168</ele>
        <time>2021-02-25T16:02:16.867Z</time>
      </trkpt>
      <trkpt lat="43.95395" lon="2.21094">
        <ele>168</ele>
        <time>2021-02-25T16:02:17.867Z</time>
      </trkpt>
      <trkpt lat="43.95396" lon="2.21093">
        <ele>168</ele>
        <time>2021-02-25T16:02:18.867Z</time>
      </trkpt>
      <trkpt lat="43.95395" lon="2.21091">
        <ele>168</ele>
        <time>2021-02-25T16:02:19.867Z</time>
      </trkpt>
      <trkpt lat="43.95395" lon="2.21089">
        <ele>168</ele>
        <time>2021-02-25T16:02:20.867Z</time>
      </trkpt>
      <trkpt lat="43.95395" lon="2.21087">
        <ele>168</ele>
        <time>2021-02-25T16:02:21.867Z</time>
      </trkpt>
      <trkpt lat="43.95395" lon="2.21086">
        <ele>168</ele>
        <time>2021-02-25T16:02:22.867Z</time>
      </trkpt>
      <trkpt lat="43.95395" lon="2.21084">
        <ele>168</ele>
        <time>2021-02-25T16:02:23.867Z</time>
      </trkpt>
      <trkpt lat="43.95395" lon="2.21082">
        <ele>169</ele>
        <time>2021-02-25T16:02:24.867Z</time>
      </trkpt>
      <trkpt lat="43.95396" lon="2.21081">
        <ele>169</ele>
        <time>2021-02-25T16:02:25.867Z</time>
      </trkpt>
      <trkpt lat="43.95396" lon="2.21079">
        <ele>169</ele>
        <time>2021-02-25T16:02:26.867Z</time>
      </trkpt>
      <trkpt lat="43.95396" lon="2.21077">
        <ele>169</ele>
        <time>2021-02-25T16:02:27.867Z</time>
      </trkpt>
      <trkpt lat="43.95397" lon="2.21076">
        <ele>169</ele>
        <time>2021-02-25T16:02:28.867Z</time>
      </trkpt>
      <trkpt lat="43.95397" lon="2.21074">
        <ele>169</ele>
        <time>2021-02-25T16:02:29.867Z</time>
      </trkpt>
      <trkpt lat="43.95397" lon="2.21073">
        <ele>169</ele>
        <time>2021-02-25T16:02:30.867Z</time>
      </trkpt>
      <trkpt lat="43.95397" lon="2.21071">
        <ele>169</ele>
        <time>2021-02-25T16:02:31.867Z</time>
      </trkpt>
      <trkpt lat="43.95398" lon="2.21069">
        <ele>170</ele>
        <time>2021-02-25T16:02:32.867Z</time>
      </trkpt>
      <trkpt lat="43.95398" lon="2.21067">
        <ele>170</ele>
        <time>2021-02-25T16:02:33.867Z</time>
      </trkpt>
      <trkpt lat="43.95398" lon="2.21066">
        <ele>170</ele>
        <time>2021-02-25T16:02:34.867Z</time>
      </trkpt>
      <trkpt lat="43.95398" lon="2.21064">
        <ele>170</ele>
        <time>2021-02-25T16:02:35.867Z</time>
      </trkpt>
      <trkpt lat="43.95398" lon="2.21063">
        <ele>170</ele>
        <time>2021-02-25T16:02:36.867Z</time>
      </trkpt>
      <trkpt lat="43.95399" lon="2.21061">
        <ele>170</ele>
        <time>2021-02-25T16:02:37.867Z</time>
      </trkpt>
      <trkpt lat="43.95399" lon="2.2106">
        <ele>170</ele>
        <time>2021-02-25T16:02:38.867Z</time>
      </trkpt>
      <trkpt lat="43.95399" lon="2.21059">
        <ele>170</ele>
        <time>2021-02-25T16:02:39.867Z</time>
      </trkpt>
      <trkpt lat="43.95399" lon="2.21058">
        <ele>170</ele>
        <time>2021-02-25T16:02:40.867Z</time>
      </trkpt>
      <trkpt lat="43.95399" lon="2.21057">
        <ele>170</ele>
        <time>2021-02-25T16:02:41.867Z</time>
      </trkpt>
      <trkpt lat="43.95399" lon="2.21056">
        <ele>170</ele>
        <time>2021-02-25T16:02:42.867Z</time>
      </trkpt>
      <trkpt lat="43.95399" lon="2.21055">
        <ele>170</ele>
        <time>2021-02-25T16:02:43.867Z</time>
      </trkpt>
      <trkpt lat="43.954" lon="2.21054">
        <ele>170</ele>
        <time>2021-02-25T16:02:44.867Z</time>
      </trkpt>
      <trkpt lat="43.954" lon="2.21053">
        <ele>171</ele>
        <time>2021-02-25T16:02:45.867Z</time>
      </trkpt>
      <trkpt lat="43.954" lon="2.21051">
        <ele>171</ele>
        <time>2021-02-25T16:02:46.867Z</time>
      </trkpt>
      <trkpt lat="43.954" lon="2.21049">
        <ele>171</ele>
        <time>2021-02-25T16:02:47.867Z</time>
      </trkpt>
      <trkpt lat="43.954" lon="2.21048">
        <ele>171</ele>
        <time>2021-02-25T16:02:48.867Z</time>
      </trkpt>
      <trkpt lat="43.95401" lon="2.21046">
        <ele>171</ele>
        <time>2021-02-25T16:02:49.867Z</time>
      </trkpt>
      <trkpt lat="43.95401" lon="2.21045">
        <ele>171</ele>
        <time>2021-02-25T16:02:50.867Z</time>
      </trkpt>
      <trkpt lat="43.95401" lon="2.21043">
        <ele>171</ele>
        <time>2021-02-25T16:02:51.867Z</time>
      </trkpt>
      <trkpt lat="43.95401" lon="2.21041">
        <ele>171</ele>
        <time>2021-02-25T16:02:52.867Z</time>
      </trkpt>
      <trkpt lat="43.95401" lon="2.2104">
        <ele>171</ele>
        <time>2021-02-25T16:02:53.867Z</time>
      </trkpt>
      <trkpt lat="43.95401" lon="2.21038">
        <ele>171</ele>
        <time>2021-02-25T16:02:54.867Z</time>
      </trkpt>
      <trkpt lat="43.95401" lon="2.21036">
        <ele>171</ele>
        <time>2021-02-25T16:02:55.867Z</time>
      </trkpt>
      <trkpt lat="43.95402" lon="2.21034">
        <ele>171</ele>
        <time>2021-02-25T16:02:56.867Z</time>
      </trkpt>
      <trkpt lat="43.95402" lon="2.21033">
        <ele>171</ele>
        <time>2021-02-25T16:02:57.867Z</time>
      </trkpt>
      <trkpt lat="43.95402" lon="2.21031">
        <ele>171</ele>
        <time>2021-02-25T16:02:58.867Z</time>
      </trkpt>
      <trkpt lat="43.95402" lon="2.2103">
        <ele>172</ele>
        <time>2021-02-25T16:02:59.867Z</time>
      </trkpt>
      <trkpt lat="43.95402" lon="2.21028">
        <ele>172</ele>
        <time>2021-02-25T16:03:00.867Z</time>
      </trkpt>
      <trkpt lat="43.95403" lon="2.21027">
        <ele>172</ele>
        <time>2021-02-25T16:03:01.867Z</time>
      </trkpt>
      <trkpt lat="43.95403" lon="2.21025">
        <ele>172</ele>
        <time>2021-02-25T16:03:02.867Z</time>
      </trkpt>
      <trkpt lat="43.95403" lon="2.21023">
        <ele>172</ele>
        <time>2021-02-25T16:03:03.867Z</time>
      </trkpt>
      <trkpt lat="43.95404" lon="2.21022">
        <ele>172</ele>
        <time>2021-02-25T16:03:04.867Z</time>
      </trkpt>
      <trkpt lat="43.95404" lon="2.21021">
        <ele>172</ele>
        <time>2021-02-25T16:03:05.867Z</time>
      </trkpt>
      <trkpt lat="43.95404" lon="2.21018">
        <ele>172</ele>
        <time>2021-02-25T16:03:06.867Z</time>
      </trkpt>
      <trkpt lat="43.95404" lon="2.21017">
        <ele>172</ele>
        <time>2021-02-25T16:03:07.867Z</time>
      </trkpt>
      <trkpt lat="43.95403" lon="2.21016">
        <ele>172</ele>
        <time>2021-02-25T16:03:08.867Z</time>
      </trkpt>
      <trkpt lat="43.95403" lon="2.21015">
        <ele>172</ele>
        <time>2021-02-25T16:03:09.867Z</time>
      </trkpt>
      <trkpt lat="43.95403" lon="2.21013">
        <ele>173</ele>
        <time>2021-02-25T16:03:10.867Z</time>
      </trkpt>
      <trkpt lat="43.95403" lon="2.21012">
        <ele>173</ele>
        <time>2021-02-25T16:03:11.867Z</time>
      </trkpt>
      <trkpt lat="43.95404" lon="2.2101">
        <ele>173</ele>
        <time>2021-02-25T16:03:12.867Z</time>
      </trkpt>
      <trkpt lat="43.95404" lon="2.2101">
        <ele>173</ele>
        <time>2021-02-25T16:03:13.867Z</time>
      </trkpt>
      <trkpt lat="43.95404" lon="2.21009">
        <ele>173</ele>
        <time>2021-02-25T16:03:14.867Z</time>
      </trkpt>
      <trkpt lat="43.95404" lon="2.21005">
        <ele>173</ele>
        <time>2021-02-25T16:03:15.867Z</time>
      </trkpt>
      <trkpt lat="43.95404" lon="2.21005">
        <ele>173</ele>
        <time>2021-02-25T16:03:16.867Z</time>
      </trkpt>
      <trkpt lat="43.95405" lon="2.21003">
        <ele>172</ele>
        <time>2021-02-25T16:03:17.867Z</time>
      </trkpt>
      <trkpt lat="43.95405" lon="2.21001">
        <ele>172</ele>
        <time>2021-02-25T16:03:18.867Z</time>
      </trkpt>
      <trkpt lat="43.95406" lon="2.21">
        <ele>172</ele>
        <time>2021-02-25T16:03:19.867Z</time>
      </trkpt>
      <trkpt lat="43.95406" lon="2.20998">
        <ele>172</ele>
        <time>2021-02-25T16:03:20.867Z</time>
      </trkpt>
      <trkpt lat="43.95406" lon="2.20996">
        <ele>172</ele>
        <time>2021-02-25T16:03:21.867Z</time>
      </trkpt>
      <trkpt lat="43.95407" lon="2.20994">
        <ele>173</ele>
        <time>2021-02-25T16:03:22.867Z</time>
      </trkpt>
      <trkpt lat="43.95407" lon="2.20993">
        <ele>173</ele>
        <time>2021-02-25T16:03:23.867Z</time>
      </trkpt>
      <trkpt lat="43.95407" lon="2.20991">
        <ele>173</ele>
        <time>2021-02-25T16:03:24.867Z</time>
      </trkpt>
      <trkpt lat="43.95407" lon="2.20989">
        <ele>173</ele>
        <time>2021-02-25T16:03:25.867Z</time>
      </trkpt>
      <trkpt lat="43.95407" lon="2.20987">
        <ele>173</ele>
        <time>2021-02-25T16:03:26.867Z</time>
      </trkpt>
      <trkpt lat="43.95408" lon="2.20985">
        <ele>173</ele>
        <time>2021-02-25T16:03:27.867Z</time>
      </trkpt>
      <trkpt lat="43.95408" lon="2.20983">
        <ele>173</ele>
        <time>2021-02-25T16:03:28.867Z</time>
      </trkpt>
      <trkpt lat="43.95409" lon="2.20982">
        <ele>173</ele>
        <time>2021-02-25T16:03:29.867Z</time>
      </trkpt>
      <trkpt lat="43.95409" lon="2.2098">
        <ele>173</ele>
        <time>2021-02-25T16:03:30.867Z</time>
      </trkpt>
      <trkpt lat="43.95409" lon="2.20978">
        <ele>173</ele>
        <time>2021-02-25T16:03:31.867Z</time>
      </trkpt>
      <trkpt lat="43.9541" lon="2.20977">
        <ele>173</ele>
        <time>2021-02-25T16:03:32.867Z</time>
      </trkpt>
      <trkpt lat="43.9541" lon="2.20975">
        <ele>173</ele>
        <time>2021-02-25T16:03:33.867Z</time>
      </trkpt>
      <trkpt lat="43.9541" lon="2.20974">
        <ele>173</ele>
        <time>2021-02-25T16:03:34.867Z</time>
      </trkpt>
      <trkpt lat="43.9541" lon="2.20972">
        <ele>173</ele>
        <time>2021-02-25T16:03:35.867Z</time>
      </trkpt>
      <trkpt lat="43.9541" lon="2.2097">
        <ele>173</ele>
        <time>2021-02-25T16:03:36.867Z</time>
      </trkpt>
      <trkpt lat="43.9541" lon="2.20969">
        <ele>173</ele>
        <time>2021-02-25T16:03:37.867Z</time>
      </trkpt>
      <trkpt lat="43.9541" lon="2.20967">
        <ele>173</ele>
        <time>2021-02-25T16:03:41.113Z</time>
      </trkpt>
      <trkpt lat="43.9541" lon="2.20966">
        <ele>173</ele>
        <time>2021-02-25T16:03:42.113Z</time>
      </trkpt>
      <trkpt lat="43.9541" lon="2.20964">
        <ele>173</ele>
        <time>2021-02-25T16:03:43.113Z</time>
      </trkpt>
      <trkpt lat="43.9541" lon="2.20962">
        <ele>172</ele>
        <time>2021-02-25T16:03:44.113Z</time>
      </trkpt>
      <trkpt lat="43.9541" lon="2.20961">
        <ele>172</ele>
        <time>2021-02-25T16:03:45.113Z</time>
      </trkpt>
      <trkpt lat="43.95411" lon="2.20959">
        <ele>172</ele>
        <time>2021-02-25T16:03:46.113Z</time>
      </trkpt>
      <trkpt lat="43.95411" lon="2.20957">
        <ele>172</ele>
        <time>2021-02-25T16:03:47.113Z</time>
      </trkpt>
      <trkpt lat="43.95411" lon="2.20956">
        <ele>172</ele>
        <time>2021-02-25T16:03:48.113Z</time>
      </trkpt>
      <trkpt lat="43.95411" lon="2.20954">
        <ele>172</ele>
        <time>2021-02-25T16:03:49.113Z</time>
      </trkpt>
      <trkpt lat="43.95411" lon="2.20953">
        <ele>172</ele>
        <time>2021-02-25T16:03:50.113Z</time>
      </trkpt>
      <trkpt lat="43.95411" lon="2.20951">
        <ele>172</ele>
        <time>2021-02-25T16:03:51.113Z</time>
      </trkpt>
      <trkpt lat="43.95411" lon="2.20949">
        <ele>172</ele>
        <time>2021-02-25T16:03:52.113Z</time>
      </trkpt>
      <trkpt lat="43.95412" lon="2.20947">
        <ele>173</ele>
        <time>2021-02-25T16:03:53.113Z</time>
      </trkpt>
      <trkpt lat="43.95412" lon="2.20945">
        <ele>173</ele>
        <time>2021-02-25T16:03:54.113Z</time>
      </trkpt>
      <trkpt lat="43.95413" lon="2.20944">
        <ele>173</ele>
        <time>2021-02-25T16:03:55.113Z</time>
      </trkpt>
      <trkpt lat="43.95413" lon="2.20942">
        <ele>173</ele>
        <time>2021-02-25T16:03:56.113Z</time>
      </trkpt>
      <trkpt lat="43.95413" lon="2.2094">
        <ele>173</ele>
        <time>2021-02-25T16:03:57.113Z</time>
      </trkpt>
      <trkpt lat="43.95414" lon="2.20938">
        <ele>173</ele>
        <time>2021-02-25T16:03:58.113Z</time>
      </trkpt>
      <trkpt lat="43.95414" lon="2.20935">
        <ele>173</ele>
        <time>2021-02-25T16:03:59.113Z</time>
      </trkpt>
      <trkpt lat="43.95413" lon="2.20933">
        <ele>173</ele>
        <time>2021-02-25T16:04:00.113Z</time>
      </trkpt>
      <trkpt lat="43.95413" lon="2.20933">
        <ele>173</ele>
        <time>2021-02-25T16:04:01.113Z</time>
      </trkpt>
      <trkpt lat="43.95414" lon="2.20932">
        <ele>173</ele>
        <time>2021-02-25T16:04:02.113Z</time>
      </trkpt>
      <trkpt lat="43.95414" lon="2.20928">
        <ele>173</ele>
        <time>2021-02-25T16:04:03.113Z</time>
      </trkpt>
      <trkpt lat="43.95414" lon="2.20928">
        <ele>173</ele>
        <time>2021-02-25T16:04:04.113Z</time>
      </trkpt>
      <trkpt lat="43.95414" lon="2.20927">
        <ele>173</ele>
        <time>2021-02-25T16:04:05.113Z</time>
      </trkpt>
      <trkpt lat="43.95414" lon="2.20925">
        <ele>173</ele>
        <time>2021-02-25T16:04:06.113Z</time>
      </trkpt>
      <trkpt lat="43.95414" lon="2.20923">
        <ele>174</ele>
        <time>2021-02-25T16:04:07.113Z</time>
      </trkpt>
      <trkpt lat="43.95414" lon="2.20922">
        <ele>174</ele>
        <time>2021-02-25T16:04:08.113Z</time>
      </trkpt>
      <trkpt lat="43.95415" lon="2.2092">
        <ele>174</ele>
        <time>2021-02-25T16:04:09.113Z</time>
      </trkpt>
      <trkpt lat="43.95415" lon="2.20918">
        <ele>174</ele>
        <time>2021-02-25T16:04:10.113Z</time>
      </trkpt>
      <trkpt lat="43.95415" lon="2.20917">
        <ele>173</ele>
        <time>2021-02-25T16:04:11.113Z</time>
      </trkpt>
      <trkpt lat="43.95415" lon="2.20916">
        <ele>173</ele>
        <time>2021-02-25T16:04:12.113Z</time>
      </trkpt>
      <trkpt lat="43.95415" lon="2.20914">
        <ele>173</ele>
        <time>2021-02-25T16:04:13.113Z</time>
      </trkpt>
      <trkpt lat="43.95415" lon="2.20913">
        <ele>173</ele>
        <time>2021-02-25T16:04:14.113Z</time>
      </trkpt>
      <trkpt lat="43.95415" lon="2.20911">
        <ele>173</ele>
        <time>2021-02-25T16:04:15.113Z</time>
      </trkpt>
      <trkpt lat="43.95416" lon="2.2091">
        <ele>173</ele>
        <time>2021-02-25T16:04:16.113Z</time>
      </trkpt>
      <trkpt lat="43.95416" lon="2.20909">
        <ele>173</ele>
        <time>2021-02-25T16:04:17.113Z</time>
      </trkpt>
      <trkpt lat="43.95416" lon="2.20908">
        <ele>173</ele>
        <time>2021-02-25T16:04:18.113Z</time>
      </trkpt>
      <trkpt lat="43.95416" lon="2.20907">
        <ele>173</ele>
        <time>2021-02-25T16:04:19.113Z</time>
      </trkpt>
      <trkpt lat="43.95417" lon="2.20906">
        <ele>173</ele>
        <time>2021-02-25T16:04:20.113Z</time>
      </trkpt>
      <trkpt lat="43.95417" lon="2.20904">
        <ele>173</ele>
        <time>2021-02-25T16:04:21.113Z</time>
      </trkpt>
      <trkpt lat="43.95417" lon="2.20903">
        <ele>173</ele>
        <time>2021-02-25T16:04:22.113Z</time>
      </trkpt>
      <trkpt lat="43.95417" lon="2.20902">
        <ele>173</ele>
        <time>2021-02-25T16:04:23.113Z</time>
      </trkpt>
      <trkpt lat="43.95417" lon="2.20901">
        <ele>173</ele>
        <time>2021-02-25T16:04:24.113Z</time>
      </trkpt>
      <trkpt lat="43.95418" lon="2.20899">
        <ele>173</ele>
        <time>2021-02-25T16:04:25.113Z</time>
      </trkpt>
      <trkpt lat="43.95418" lon="2.20898">
        <ele>173</ele>
        <time>2021-02-25T16:04:26.113Z</time>
      </trkpt>
      <trkpt lat="43.95419" lon="2.20896">
        <ele>173</ele>
        <time>2021-02-25T16:04:27.113Z</time>
      </trkpt>
      <trkpt lat="43.95419" lon="2.20895">
        <ele>173</ele>
        <time>2021-02-25T16:04:28.113Z</time>
      </trkpt>
      <trkpt lat="43.95419" lon="2.20893">
        <ele>173</ele>
        <time>2021-02-25T16:04:29.113Z</time>
      </trkpt>
      <trkpt lat="43.9542" lon="2.20892">
        <ele>173</ele>
        <time>2021-02-25T16:04:30.113Z</time>
      </trkpt>
      <trkpt lat="43.9542" lon="2.2089">
        <ele>173</ele>
        <time>2021-02-25T16:04:31.113Z</time>
      </trkpt>
      <trkpt lat="43.9542" lon="2.20888">
        <ele>173</ele>
        <time>2021-02-25T16:04:32.113Z</time>
      </trkpt>
      <trkpt lat="43.9542" lon="2.20887">
        <ele>173</ele>
        <time>2021-02-25T16:04:33.113Z</time>
      </trkpt>
      <trkpt lat="43.95421" lon="2.20885">
        <ele>173</ele>
        <time>2021-02-25T16:04:34.113Z</time>
      </trkpt>
      <trkpt lat="43.95421" lon="2.20883">
        <ele>173</ele>
        <time>2021-02-25T16:04:35.113Z</time>
      </trkpt>
      <trkpt lat="43.95421" lon="2.20882">
        <ele>173</ele>
        <time>2021-02-25T16:04:36.113Z</time>
      </trkpt>
      <trkpt lat="43.95421" lon="2.20881">
        <ele>173</ele>
        <time>2021-02-25T16:04:37.113Z</time>
      </trkpt>
      <trkpt lat="43.95422" lon="2.20879">
        <ele>172</ele>
        <time>2021-02-25T16:04:38.113Z</time>
      </trkpt>
      <trkpt lat="43.95422" lon="2.20878">
        <ele>172</ele>
        <time>2021-02-25T16:04:39.113Z</time>
      </trkpt>
      <trkpt lat="43.95423" lon="2.20877">
        <ele>172</ele>
        <time>2021-02-25T16:04:40.113Z</time>
      </trkpt>
      <trkpt lat="43.95423" lon="2.20876">
        <ele>172</ele>
        <time>2021-02-25T16:04:41.113Z</time>
      </trkpt>
      <trkpt lat="43.95423" lon="2.20875">
        <ele>173</ele>
        <time>2021-02-25T16:04:42.113Z</time>
      </trkpt>
      <trkpt lat="43.95423" lon="2.20873">
        <ele>173</ele>
        <time>2021-02-25T16:04:43.113Z</time>
      </trkpt>
      <trkpt lat="43.95422" lon="2.20871">
        <ele>173</ele>
        <time>2021-02-25T16:04:44.113Z</time>
      </trkpt>
      <trkpt lat="43.95422" lon="2.2087">
        <ele>173</ele>
        <time>2021-02-25T16:04:45.113Z</time>
      </trkpt>
      <trkpt lat="43.95422" lon="2.20869">
        <ele>173</ele>
        <time>2021-02-25T16:04:46.113Z</time>
      </trkpt>
      <trkpt lat="43.95421" lon="2.20868">
        <ele>173</ele>
        <time>2021-02-25T16:04:47.113Z</time>
      </trkpt>
      <trkpt lat="43.95421" lon="2.20867">
        <ele>174</ele>
        <time>2021-02-25T16:04:48.113Z</time>
      </trkpt>
      <trkpt lat="43.95421" lon="2.20865">
        <ele>174</ele>
        <time>2021-02-25T16:04:49.113Z</time>
      </trkpt>
      <trkpt lat="43.9542" lon="2.20864">
        <ele>174</ele>
        <time>2021-02-25T16:04:50.113Z</time>
      </trkpt>
      <trkpt lat="43.9542" lon="2.20862">
        <ele>174</ele>
        <time>2021-02-25T16:04:51.113Z</time>
      </trkpt>
      <trkpt lat="43.95419" lon="2.20861">
        <ele>174</ele>
        <time>2021-02-25T16:04:52.113Z</time>
      </trkpt>
      <trkpt lat="43.95419" lon="2.20859">
        <ele>174</ele>
        <time>2021-02-25T16:04:53.113Z</time>
      </trkpt>
      <trkpt lat="43.95419" lon="2.20858">
        <ele>174</ele>
        <time>2021-02-25T16:04:54.113Z</time>
      </trkpt>
      <trkpt lat="43.95419" lon="2.20856">
        <ele>174</ele>
        <time>2021-02-25T16:04:55.113Z</time>
      </trkpt>
      <trkpt lat="43.95419" lon="2.20855">
        <ele>174</ele>
        <time>2021-02-25T16:04:56.113Z</time>
      </trkpt>
      <trkpt lat="43.95419" lon="2.20854">
        <ele>174</ele>
        <time>2021-02-25T16:04:57.113Z</time>
      </trkpt>
      <trkpt lat="43.9542" lon="2.20852">
        <ele>174</ele>
        <time>2021-02-25T16:04:58.113Z</time>
      </trkpt>
      <trkpt lat="43.9542" lon="2.20851">
        <ele>174</ele>
        <time>2021-02-25T16:04:59.113Z</time>
      </trkpt>
      <trkpt lat="43.9542" lon="2.2085">
        <ele>174</ele>
        <time>2021-02-25T16:05:00.113Z</time>
      </trkpt>
      <trkpt lat="43.9542" lon="2.2085">
        <ele>174</ele>
        <time>2021-02-25T16:05:01.113Z</time>
      </trkpt>
      <trkpt lat="43.9542" lon="2.20849">
        <ele>174</ele>
        <time>2021-02-25T16:05:02.113Z</time>
      </trkpt>
      <trkpt lat="43.95421" lon="2.20849">
        <ele>174</ele>
        <time>2021-02-25T16:05:03.113Z</time>
      </trkpt>
      <trkpt lat="43.95421" lon="2.20849">
        <ele>174</ele>
        <time>2021-02-25T16:05:04.113Z</time>
      </trkpt>
      <trkpt lat="43.95422" lon="2.20845">
        <ele>174</ele>
        <time>2021-02-25T16:05:05.113Z</time>
      </trkpt>
      <trkpt lat="43.95422" lon="2.20843">
        <ele>174</ele>
        <time>2021-02-25T16:05:06.113Z</time>
      </trkpt>
      <trkpt lat="43.95422" lon="2.20842">
        <ele>174</ele>
        <time>2021-02-25T16:05:07.113Z</time>
      </trkpt>
      <trkpt lat="43.95422" lon="2.20841">
        <ele>174</ele>
        <time>2021-02-25T16:05:08.113Z</time>
      </trkpt>
      <trkpt lat="43.95422" lon="2.2084">
        <ele>174</ele>
        <time>2021-02-25T16:05:09.113Z</time>
      </trkpt>
      <trkpt lat="43.95422" lon="2.20838">
        <ele>174</ele>
        <time>2021-02-25T16:05:10.113Z</time>
      </trkpt>
      <trkpt lat="43.95422" lon="2.20837">
        <ele>174</ele>
        <time>2021-02-25T16:05:11.113Z</time>
      </trkpt>
      <trkpt lat="43.95423" lon="2.20835">
        <ele>174</ele>
        <time>2021-02-25T16:05:12.113Z</time>
      </trkpt>
      <trkpt lat="43.95423" lon="2.20833">
        <ele>174</ele>
        <time>2021-02-25T16:05:13.113Z</time>
      </trkpt>
      <trkpt lat="43.95423" lon="2.20832">
        <ele>174</ele>
        <time>2021-02-25T16:05:14.113Z</time>
      </trkpt>
      <trkpt lat="43.95424" lon="2.20829">
        <ele>174</ele>
        <time>2021-02-25T16:05:15.113Z</time>
      </trkpt>
      <trkpt lat="43.95424" lon="2.20828">
        <ele>174</ele>
        <time>2021-02-25T16:05:16.113Z</time>
      </trkpt>
      <trkpt lat="43.95425" lon="2.20826">
        <ele>174</ele>
        <time>2021-02-25T16:05:17.113Z</time>
      </trkpt>
      <trkpt lat="43.95425" lon="2.20824">
        <ele>174</ele>
        <time>2021-02-25T16:05:18.113Z</time>
      </trkpt>
      <trkpt lat="43.95425" lon="2.20822">
        <ele>174</ele>
        <time>2021-02-25T16:05:19.113Z</time>
      </trkpt>
      <trkpt lat="43.95426" lon="2.2082">
        <ele>174</ele>
        <time>2021-02-25T16:05:20.113Z</time>
      </trkpt>
      <trkpt lat="43.95426" lon="2.20819">
        <ele>174</ele>
        <time>2021-02-25T16:05:21.113Z</time>
      </trkpt>
      <trkpt lat="43.95427" lon="2.20817">
        <ele>174</ele>
        <time>2021-02-25T16:05:22.113Z</time>
      </trkpt>
      <trkpt lat="43.95427" lon="2.20815">
        <ele>174</ele>
        <time>2021-02-25T16:05:23.113Z</time>
      </trkpt>
      <trkpt lat="43.95428" lon="2.20813">
        <ele>174</ele>
        <time>2021-02-25T16:05:24.113Z</time>
      </trkpt>
      <trkpt lat="43.95428" lon="2.20811">
        <ele>174</ele>
        <time>2021-02-25T16:05:25.113Z</time>
      </trkpt>
      <trkpt lat="43.95428" lon="2.2081">
        <ele>174</ele>
        <time>2021-02-25T16:05:26.113Z</time>
      </trkpt>
      <trkpt lat="43.95428" lon="2.20808">
        <ele>174</ele>
        <time>2021-02-25T16:05:27.113Z</time>
      </trkpt>
      <trkpt lat="43.95428" lon="2.20806">
        <ele>174</ele>
        <time>2021-02-25T16:05:28.113Z</time>
      </trkpt>
      <trkpt lat="43.95428" lon="2.20804">
        <ele>174</ele>
        <time>2021-02-25T16:05:29.113Z</time>
      </trkpt>
      <trkpt lat="43.95429" lon="2.20803">
        <ele>174</ele>
        <time>2021-02-25T16:05:30.113Z</time>
      </trkpt>
      <trkpt lat="43.95429" lon="2.20801">
        <ele>174</ele>
        <time>2021-02-25T16:05:31.113Z</time>
      </trkpt>
      <trkpt lat="43.95429" lon="2.208">
        <ele>174</ele>
        <time>2021-02-25T16:05:32.113Z</time>
      </trkpt>
      <trkpt lat="43.95429" lon="2.20798">
        <ele>174</ele>
        <time>2021-02-25T16:05:33.113Z</time>
      </trkpt>
      <trkpt lat="43.95429" lon="2.20796">
        <ele>174</ele>
        <time>2021-02-25T16:05:34.113Z</time>
      </trkpt>
      <trkpt lat="43.9543" lon="2.20794">
        <ele>174</ele>
        <time>2021-02-25T16:05:35.113Z</time>
      </trkpt>
      <trkpt lat="43.9543" lon="2.20793">
        <ele>174</ele>
        <time>2021-02-25T16:05:36.113Z</time>
      </trkpt>
      <trkpt lat="43.9543" lon="2.20791">
        <ele>174</ele>
        <time>2021-02-25T16:05:37.113Z</time>
      </trkpt>
      <trkpt lat="43.9543" lon="2.20789">
        <ele>174</ele>
        <time>2021-02-25T16:05:38.113Z</time>
      </trkpt>
      <trkpt lat="43.95431" lon="2.20788">
        <ele>174</ele>
        <time>2021-02-25T16:05:39.113Z</time>
      </trkpt>
      <trkpt lat="43.95431" lon="2.20786">
        <ele>174</ele>
        <time>2021-02-25T16:05:40.113Z</time>
      </trkpt>
      <trkpt lat="43.95431" lon="2.20784">
        <ele>174</ele>
        <time>2021-02-25T16:05:41.113Z</time>
      </trkpt>
      <trkpt lat="43.95431" lon="2.20783">
        <ele>174</ele>
        <time>2021-02-25T16:05:42.113Z</time>
      </trkpt>
      <trkpt lat="43.95432" lon="2.20782">
        <ele>174</ele>
        <time>2021-02-25T16:05:43.113Z</time>
      </trkpt>
      <trkpt lat="43.95432" lon="2.2078">
        <ele>174</ele>
        <time>2021-02-25T16:05:44.113Z</time>
      </trkpt>
      <trkpt lat="43.95432" lon="2.20779">
        <ele>174</ele>
        <time>2021-02-25T16:05:45.113Z</time>
      </trkpt>
      <trkpt lat="43.95432" lon="2.20778">
        <ele>174</ele>
        <time>2021-02-25T16:05:46.113Z</time>
      </trkpt>
      <trkpt lat="43.95432" lon="2.20776">
        <ele>174</ele>
        <time>2021-02-25T16:05:47.113Z</time>
      </trkpt>
      <trkpt lat="43.95432" lon="2.20775">
        <ele>174</ele>
        <time>2021-02-25T16:05:48.113Z</time>
      </trkpt>
      <trkpt lat="43.95432" lon="2.20773">
        <ele>174</ele>
        <time>2021-02-25T16:05:49.113Z</time>
      </trkpt>
      <trkpt lat="43.95432" lon="2.20771">
        <ele>174</ele>
        <time>2021-02-25T16:05:50.113Z</time>
      </trkpt>
      <trkpt lat="43.95433" lon="2.20769">
        <ele>174</ele>
        <time>2021-02-25T16:05:51.113Z</time>
      </trkpt>
      <trkpt lat="43.95433" lon="2.20767">
        <ele>174</ele>
        <time>2021-02-25T16:05:52.113Z</time>
      </trkpt>
      <trkpt lat="43.95433" lon="2.20765">
        <ele>174</ele>
        <time>2021-02-25T16:05:53.113Z</time>
      </trkpt>
      <trkpt lat="43.95433" lon="2.20764">
        <ele>175</ele>
        <time>2021-02-25T16:05:54.113Z</time>
      </trkpt>
      <trkpt lat="43.95433" lon="2.20762">
        <ele>175</ele>
        <time>2021-02-25T16:05:55.113Z</time>
      </trkpt>
      <trkpt lat="43.95433" lon="2.2076">
        <ele>175</ele>
        <time>2021-02-25T16:05:56.113Z</time>
      </trkpt>
      <trkpt lat="43.95433" lon="2.20758">
        <ele>175</ele>
        <time>2021-02-25T16:05:57.113Z</time>
      </trkpt>
      <trkpt lat="43.95433" lon="2.20756">
        <ele>175</ele>
        <time>2021-02-25T16:05:58.113Z</time>
      </trkpt>
      <trkpt lat="43.95433" lon="2.20755">
        <ele>175</ele>
        <time>2021-02-25T16:05:59.113Z</time>
      </trkpt>
      <trkpt lat="43.95434" lon="2.20753">
        <ele>175</ele>
        <time>2021-02-25T16:06:00.113Z</time>
      </trkpt>
      <trkpt lat="43.95434" lon="2.20751">
        <ele>174</ele>
        <time>2021-02-25T16:06:01.113Z</time>
      </trkpt>
      <trkpt lat="43.95435" lon="2.2075">
        <ele>174</ele>
        <time>2021-02-25T16:06:02.113Z</time>
      </trkpt>
      <trkpt lat="43.95435" lon="2.20748">
        <ele>174</ele>
        <time>2021-02-25T16:06:03.113Z</time>
      </trkpt>
      <trkpt lat="43.95435" lon="2.20747">
        <ele>174</ele>
        <time>2021-02-25T16:06:04.113Z</time>
      </trkpt>
      <trkpt lat="43.95435" lon="2.20746">
        <ele>174</ele>
        <time>2021-02-25T16:06:05.113Z</time>
      </trkpt>
      <trkpt lat="43.95436" lon="2.20744">
        <ele>174</ele>
        <time>2021-02-25T16:06:06.113Z</time>
      </trkpt>
      <trkpt lat="43.95436" lon="2.20743">
        <ele>174</ele>
        <time>2021-02-25T16:06:07.113Z</time>
      </trkpt>
      <trkpt lat="43.95436" lon="2.20742">
        <ele>174</ele>
        <time>2021-02-25T16:06:08.113Z</time>
      </trkpt>
      <trkpt lat="43.95436" lon="2.2074">
        <ele>174</ele>
        <time>2021-02-25T16:06:09.113Z</time>
      </trkpt>
      <trkpt lat="43.95437" lon="2.20739">
        <ele>174</ele>
        <time>2021-02-25T16:06:10.113Z</time>
      </trkpt>
      <trkpt lat="43.95437" lon="2.20737">
        <ele>174</ele>
        <time>2021-02-25T16:06:11.113Z</time>
      </trkpt>
      <trkpt lat="43.95437" lon="2.20735">
        <ele>174</ele>
        <time>2021-02-25T16:06:12.113Z</time>
      </trkpt>
      <trkpt lat="43.95437" lon="2.20733">
        <ele>174</ele>
        <time>2021-02-25T16:06:13.113Z</time>
      </trkpt>
      <trkpt lat="43.95437" lon="2.20732">
        <ele>173</ele>
        <time>2021-02-25T16:06:14.113Z</time>
      </trkpt>
      <trkpt lat="43.95437" lon="2.2073">
        <ele>173</ele>
        <time>2021-02-25T16:06:15.113Z</time>
      </trkpt>
      <trkpt lat="43.95437" lon="2.20728">
        <ele>173</ele>
        <time>2021-02-25T16:06:16.113Z</time>
      </trkpt>
      <trkpt lat="43.95436" lon="2.20727">
        <ele>173</ele>
        <time>2021-02-25T16:06:17.113Z</time>
      </trkpt>
      <trkpt lat="43.95436" lon="2.20725">
        <ele>173</ele>
        <time>2021-02-25T16:06:18.113Z</time>
      </trkpt>
      <trkpt lat="43.95435" lon="2.20723">
        <ele>173</ele>
        <time>2021-02-25T16:06:19.113Z</time>
      </trkpt>
      <trkpt lat="43.95435" lon="2.20721">
        <ele>173</ele>
        <time>2021-02-25T16:06:20.113Z</time>
      </trkpt>
      <trkpt lat="43.95435" lon="2.20719">
        <ele>173</ele>
        <time>2021-02-25T16:06:21.113Z</time>
      </trkpt>
      <trkpt lat="43.95435" lon="2.20717">
        <ele>173</ele>
        <time>2021-02-25T16:06:22.113Z</time>
      </trkpt>
      <trkpt lat="43.95435" lon="2.20715">
        <ele>173</ele>
        <time>2021-02-25T16:06:23.113Z</time>
      </trkpt>
      <trkpt lat="43.95435" lon="2.20714">
        <ele>172</ele>
        <time>2021-02-25T16:06:24.113Z</time>
      </trkpt>
      <trkpt lat="43.95435" lon="2.20712">
        <ele>172</ele>
        <time>2021-02-25T16:06:25.113Z</time>
      </trkpt>
      <trkpt lat="43.95435" lon="2.2071">
        <ele>172</ele>
        <time>2021-02-25T16:06:26.113Z</time>
      </trkpt>
      <trkpt lat="43.95435" lon="2.20708">
        <ele>172</ele>
        <time>2021-02-25T16:06:27.113Z</time>
      </trkpt>
      <trkpt lat="43.95434" lon="2.20706">
        <ele>172</ele>
        <time>2021-02-25T16:06:28.113Z</time>
      </trkpt>
      <trkpt lat="43.95433" lon="2.20705">
        <ele>172</ele>
        <time>2021-02-25T16:06:29.113Z</time>
      </trkpt>
      <trkpt lat="43.95433" lon="2.20703">
        <ele>171</ele>
        <time>2021-02-25T16:06:30.113Z</time>
      </trkpt>
      <trkpt lat="43.95432" lon="2.20702">
        <ele>171</ele>
        <time>2021-02-25T16:06:31.113Z</time>
      </trkpt>
      <trkpt lat="43.95431" lon="2.20701">
        <ele>171</ele>
        <time>2021-02-25T16:06:32.113Z</time>
      </trkpt>
      <trkpt lat="43.9543" lon="2.20699">
        <ele>171</ele>
        <time>2021-02-25T16:06:33.113Z</time>
      </trkpt>
      <trkpt lat="43.95429" lon="2.20698">
        <ele>171</ele>
        <time>2021-02-25T16:06:34.113Z</time>
      </trkpt>
      <trkpt lat="43.95427" lon="2.20697">
        <ele>171</ele>
        <time>2021-02-25T16:06:35.113Z</time>
      </trkpt>
      <trkpt lat="43.95426" lon="2.20697">
        <ele>171</ele>
        <time>2021-02-25T16:06:36.113Z</time>
      </trkpt>
      <trkpt lat="43.95424" lon="2.20697">
        <ele>171</ele>
        <time>2021-02-25T16:06:37.113Z</time>
      </trkpt>
      <trkpt lat="43.95423" lon="2.20696">
        <ele>171</ele>
        <time>2021-02-25T16:06:38.113Z</time>
      </trkpt>
      <trkpt lat="43.95422" lon="2.20696">
        <ele>171</ele>
        <time>2021-02-25T16:06:39.113Z</time>
      </trkpt>
      <trkpt lat="43.95421" lon="2.20695">
        <ele>171</ele>
        <time>2021-02-25T16:06:40.113Z</time>
      </trkpt>
      <trkpt lat="43.9542" lon="2.20695">
        <ele>170</ele>
        <time>2021-02-25T16:06:41.113Z</time>
      </trkpt>
      <trkpt lat="43.95419" lon="2.20695">
        <ele>170</ele>
        <time>2021-02-25T16:06:42.113Z</time>
      </trkpt>
      <trkpt lat="43.95418" lon="2.20694">
        <ele>170</ele>
        <time>2021-02-25T16:06:43.113Z</time>
      </trkpt>
      <trkpt lat="43.95417" lon="2.20694">
        <ele>170</ele>
        <time>2021-02-25T16:06:44.113Z</time>
      </trkpt>
      <trkpt lat="43.95416" lon="2.20693">
        <ele>170</ele>
        <time>2021-02-25T16:06:45.113Z</time>
      </trkpt>
      <trkpt lat="43.95415" lon="2.20693">
        <ele>170</ele>
        <time>2021-02-25T16:06:46.113Z</time>
      </trkpt>
      <trkpt lat="43.95414" lon="2.20692">
        <ele>170</ele>
        <time>2021-02-25T16:06:47.113Z</time>
      </trkpt>
      <trkpt lat="43.95413" lon="2.20692">
        <ele>170</ele>
        <time>2021-02-25T16:06:48.113Z</time>
      </trkpt>
      <trkpt lat="43.95412" lon="2.20691">
        <ele>170</ele>
        <time>2021-02-25T16:06:49.113Z</time>
      </trkpt>
      <trkpt lat="43.95411" lon="2.20691">
        <ele>170</ele>
        <time>2021-02-25T16:06:50.113Z</time>
      </trkpt>
      <trkpt lat="43.9541" lon="2.2069">
        <ele>171</ele>
        <time>2021-02-25T16:06:51.113Z</time>
      </trkpt>
      <trkpt lat="43.95409" lon="2.2069">
        <ele>171</ele>
        <time>2021-02-25T16:06:52.113Z</time>
      </trkpt>
      <trkpt lat="43.95408" lon="2.20689">
        <ele>171</ele>
        <time>2021-02-25T16:06:53.113Z</time>
      </trkpt>
      <trkpt lat="43.95407" lon="2.20688">
        <ele>171</ele>
        <time>2021-02-25T16:06:54.113Z</time>
      </trkpt>
      <trkpt lat="43.95407" lon="2.20688">
        <ele>171</ele>
        <time>2021-02-25T16:06:55.113Z</time>
      </trkpt>
      <trkpt lat="43.95406" lon="2.20687">
        <ele>171</ele>
        <time>2021-02-25T16:06:56.113Z</time>
      </trkpt>
      <trkpt lat="43.95406" lon="2.20687">
        <ele>171</ele>
        <time>2021-02-25T16:06:57.113Z</time>
      </trkpt>
      <trkpt lat="43.95406" lon="2.20686">
        <ele>171</ele>
        <time>2021-02-25T16:06:58.113Z</time>
      </trkpt>
      <trkpt lat="43.95406" lon="2.20686">
        <ele>171</ele>
        <time>2021-02-25T16:06:59.113Z</time>
      </trkpt>
      <trkpt lat="43.95406" lon="2.20686">
        <ele>171</ele>
        <time>2021-02-25T16:07:00.113Z</time>
      </trkpt>
    </trkseg>
  </trk>
</gpx>